<?xml version='1.0' encoding='UTF-8'?><gpx version="1.1" creator="JPX - https://github.com/jenetics/jpx" xmlns="http://www.topografix.com/GPX/1/1"><trk><trkseg><trkpt lat="45.10872384345399" lon="10.07680944007087"><ele>41.0</ele><time>2026-04-18T04:29:19.998Z</time></trkpt><trkpt lat="45.108791483335075" lon="10.076900675468845"><ele>41.0</ele><time>2026-04-18T04:29:23.998Z</time></trkpt><trkpt lat="45.108841327822695" lon="10.077000945091907"><ele>41.0</ele><time>2026-04-18T04:29:26.998Z</time></trkpt><trkpt lat="45.10884900474024" lon="10.077123953906346"><ele>41.0</ele><time>2026-04-18T04:29:29.999Z</time></trkpt><trkpt lat="45.108831117325884" lon="10.077226223277604"><ele>41.0</ele><time>2026-04-18T04:29:32.999Z</time></trkpt><trkpt lat="45.10882265533294" lon="10.07733752020987"><ele>41.0</ele><time>2026-04-18T04:29:35.999Z</time></trkpt><trkpt lat="45.10881191363251" lon="10.077464743965967"><ele>41.166666666666664</ele><time>2026-04-18T04:29:38.999Z</time></trkpt><trkpt lat="45.10878633370881" lon="10.077581994181955"><ele>41.33333333333333</ele><time>2026-04-18T04:29:41.999Z</time></trkpt><trkpt lat="45.10877081001454" lon="10.077693127317978"><ele>41.5</ele><time>2026-04-18T04:29:44.999Z</time></trkpt><trkpt lat="45.108741390226896" lon="10.077775579930517"><ele>41.666666666666664</ele><time>2026-04-18T04:29:46.999Z</time></trkpt><trkpt lat="45.10869268647412" lon="10.077843037868302"><ele>41.833333333333336</ele><time>2026-04-18T04:29:48.999Z</time></trkpt><trkpt lat="45.10861786691423" lon="10.077870394155651"><ele>42.0</ele><time>2026-04-18T04:29:50.999Z</time></trkpt><trkpt lat="45.10852993455585" lon="10.077855332079022"><ele>42.0</ele><time>2026-04-18T04:29:52.999Z</time></trkpt><trkpt lat="45.10843848241641" lon="10.077836789911016"><ele>42.0</ele><time>2026-04-18T04:29:54.999Z</time></trkpt><trkpt lat="45.10834395817631" lon="10.07780139003412"><ele>42.0</ele><time>2026-04-18T04:29:56.999Z</time></trkpt><trkpt lat="45.10823205103825" lon="10.077755591832641"><ele>42.0</ele><time>2026-04-18T04:29:58.999Z</time></trkpt><trkpt lat="45.108112276905864" lon="10.077731684480808"><ele>42.0</ele><time>2026-04-18T04:30:00.999Z</time></trkpt><trkpt lat="45.10799091119666" lon="10.077704558353497"><ele>41.833333333333336</ele><time>2026-04-18T04:30:02.999Z</time></trkpt><trkpt lat="45.10787235297227" lon="10.07767230613571"><ele>41.666666666666664</ele><time>2026-04-18T04:30:04.999Z</time></trkpt><trkpt lat="45.10775521079323" lon="10.077647307323554"><ele>41.5</ele><time>2026-04-18T04:30:06.999Z</time></trkpt><trkpt lat="45.107690333258304" lon="10.077624162571551"><ele>41.33333333333333</ele><time>2026-04-18T04:30:07.999Z</time></trkpt><trkpt lat="45.10762534418975" lon="10.077598551837085"><ele>41.166666666666664</ele><time>2026-04-18T04:30:08.999Z</time></trkpt><trkpt lat="45.10756323792637" lon="10.0775720544799"><ele>41.0</ele><time>2026-04-18T04:30:09.999Z</time></trkpt><trkpt lat="45.10750147523833" lon="10.07754301148283"><ele>41.0</ele><time>2026-04-18T04:30:10.999Z</time></trkpt><trkpt lat="45.10743930965959" lon="10.077519597606756"><ele>41.0</ele><time>2026-04-18T04:30:11.999Z</time></trkpt><trkpt lat="45.107315224869296" lon="10.077474999688881"><ele>41.0</ele><time>2026-04-18T04:30:13.999Z</time></trkpt><trkpt lat="45.107233983004384" lon="10.077417413623037"><ele>41.0</ele><time>2026-04-18T04:30:15.999Z</time></trkpt><trkpt lat="45.107276407197084" lon="10.077299784246591"><ele>41.0</ele><time>2026-04-18T04:30:17.999Z</time></trkpt><trkpt lat="45.10735353426106" lon="10.077176457558883"><ele>40.857142857142854</ele><time>2026-04-18T04:30:19.999Z</time></trkpt><trkpt lat="45.10740192131951" lon="10.077099086332426"><ele>40.714285714285715</ele><time>2026-04-18T04:30:20.999Z</time></trkpt><trkpt lat="45.10744868470366" lon="10.07702431136839"><ele>40.57142857142857</ele><time>2026-04-18T04:30:21.999Z</time></trkpt><trkpt lat="45.10749426136873" lon="10.076951433979326"><ele>40.42857142857143</ele><time>2026-04-18T04:30:22.999Z</time></trkpt><trkpt lat="45.1075301902136" lon="10.076864072430826"><ele>40.285714285714285</ele><time>2026-04-18T04:30:23.999Z</time></trkpt><trkpt lat="45.10758147235953" lon="10.076793732474897"><ele>40.14285714285714</ele><time>2026-04-18T04:30:24.999Z</time></trkpt><trkpt lat="45.10763020975087" lon="10.076722204027432"><ele>40.0</ele><time>2026-04-18T04:30:25.999Z</time></trkpt><trkpt lat="45.10768636456046" lon="10.07665312830328"><ele>39.714285714285715</ele><time>2026-04-18T04:30:26.999Z</time></trkpt><trkpt lat="45.107736523842576" lon="10.076583629061764"><ele>39.42857142857143</ele><time>2026-04-18T04:30:27.999Z</time></trkpt><trkpt lat="45.10778710071876" lon="10.076521533772073"><ele>39.14285714285714</ele><time>2026-04-18T04:30:28.999Z</time></trkpt><trkpt lat="45.107845309923675" lon="10.076464983328624"><ele>38.85714285714286</ele><time>2026-04-18T04:30:29.999Z</time></trkpt><trkpt lat="45.10790845339884" lon="10.07641471518926"><ele>38.57142857142858</ele><time>2026-04-18T04:30:30.999Z</time></trkpt><trkpt lat="45.10797068199467" lon="10.076371018343542"><ele>38.285714285714285</ele><time>2026-04-18T04:30:31.999Z</time></trkpt><trkpt lat="45.108032929144436" lon="10.076334323695079"><ele>38.0</ele><time>2026-04-18T04:30:32.999Z</time></trkpt><trkpt lat="45.10809793544657" lon="10.076296531715977"><ele>38.0</ele><time>2026-04-18T04:30:33.999Z</time></trkpt><trkpt lat="45.108167419444925" lon="10.07625868244631"><ele>38.0</ele><time>2026-04-18T04:30:34.999Z</time></trkpt><trkpt lat="45.10823367715934" lon="10.076222418708808"><ele>38.0</ele><time>2026-04-18T04:30:35.999Z</time></trkpt><trkpt lat="45.10829399193533" lon="10.076185038054176"><ele>38.0</ele><time>2026-04-18T04:30:36.999Z</time></trkpt><trkpt lat="45.1083572361805" lon="10.076148390371976"><ele>38.0</ele><time>2026-04-18T04:30:37.999Z</time></trkpt><trkpt lat="45.10841967929038" lon="10.076113866490356"><ele>38.0</ele><time>2026-04-18T04:30:38.999Z</time></trkpt><trkpt lat="45.10848054397614" lon="10.07607370073914"><ele>38.0</ele><time>2026-04-18T04:30:39.999Z</time></trkpt><trkpt lat="45.108544313185355" lon="10.07603267553113"><ele>37.857142857142854</ele><time>2026-04-18T04:30:40.999Z</time></trkpt><trkpt lat="45.10860634622763" lon="10.075987352807967"><ele>37.714285714285715</ele><time>2026-04-18T04:30:41.999Z</time></trkpt><trkpt lat="45.10866361364811" lon="10.075932499681794"><ele>37.57142857142857</ele><time>2026-04-18T04:30:42.999Z</time></trkpt><trkpt lat="45.10871467098916" lon="10.075869707965458"><ele>37.42857142857143</ele><time>2026-04-18T04:30:43.999Z</time></trkpt><trkpt lat="45.10876620152091" lon="10.075801595156785"><ele>37.285714285714285</ele><time>2026-04-18T04:30:44.999Z</time></trkpt><trkpt lat="45.10881560358044" lon="10.075731448340989"><ele>37.142857142857146</ele><time>2026-04-18T04:30:45.999Z</time></trkpt><trkpt lat="45.10886146201268" lon="10.07565816397063"><ele>37.0</ele><time>2026-04-18T04:30:46.999Z</time></trkpt><trkpt lat="45.10890192874065" lon="10.07557621423524"><ele>37.0</ele><time>2026-04-18T04:30:47.999Z</time></trkpt><trkpt lat="45.1089240560892" lon="10.075483879768928"><ele>37.0</ele><time>2026-04-18T04:30:48.999Z</time></trkpt><trkpt lat="45.108955119717976" lon="10.075394310640482"><ele>37.0</ele><time>2026-04-18T04:30:50.001Z</time></trkpt><trkpt lat="45.1089783750313" lon="10.075299943242754"><ele>37.0</ele><time>2026-04-18T04:30:51.001Z</time></trkpt><trkpt lat="45.10900403314877" lon="10.075207143324958"><ele>37.0</ele><time>2026-04-18T04:30:52.001Z</time></trkpt><trkpt lat="45.109028844394196" lon="10.075116850654384"><ele>37.0</ele><time>2026-04-18T04:30:53.001Z</time></trkpt><trkpt lat="45.10905471608187" lon="10.07502600119801"><ele>37.0</ele><time>2026-04-18T04:30:54.001Z</time></trkpt><trkpt lat="45.10907748833262" lon="10.074934331720609"><ele>37.285714285714285</ele><time>2026-04-18T04:30:55.001Z</time></trkpt><trkpt lat="45.109101355923606" lon="10.074843495336584"><ele>37.57142857142857</ele><time>2026-04-18T04:30:56.001Z</time></trkpt><trkpt lat="45.10912648369131" lon="10.074754191809406"><ele>37.85714285714286</ele><time>2026-04-18T04:30:57.001Z</time></trkpt><trkpt lat="45.109153657419164" lon="10.074666643540352"><ele>38.14285714285714</ele><time>2026-04-18T04:30:58Z</time></trkpt><trkpt lat="45.10918317861768" lon="10.074580577986811"><ele>38.42857142857142</ele><time>2026-04-18T04:30:59Z</time></trkpt><trkpt lat="45.10921366026281" lon="10.074493463441197"><ele>38.714285714285715</ele><time>2026-04-18T04:31:00Z</time></trkpt><trkpt lat="45.10923998927216" lon="10.074408734531989"><ele>39.0</ele><time>2026-04-18T04:31:01Z</time></trkpt><trkpt lat="45.10927105116269" lon="10.074323630802185"><ele>39.0</ele><time>2026-04-18T04:31:02Z</time></trkpt><trkpt lat="45.109308364679514" lon="10.074244002584814"><ele>39.0</ele><time>2026-04-18T04:31:03Z</time></trkpt><trkpt lat="45.109349312651744" lon="10.07416619736288"><ele>39.0</ele><time>2026-04-18T04:31:04Z</time></trkpt><trkpt lat="45.10938658322517" lon="10.0740868259374"><ele>39.0</ele><time>2026-04-18T04:31:05Z</time></trkpt><trkpt lat="45.10942591467249" lon="10.074010540847746"><ele>39.0</ele><time>2026-04-18T04:31:06Z</time></trkpt><trkpt lat="45.109468137561755" lon="10.073935549628626"><ele>39.0</ele><time>2026-04-18T04:31:07Z</time></trkpt><trkpt lat="45.109512173621106" lon="10.073858924783824"><ele>39.0</ele><time>2026-04-18T04:31:08Z</time></trkpt><trkpt lat="45.10955380580969" lon="10.073782585391102"><ele>39.285714285714285</ele><time>2026-04-18T04:31:09Z</time></trkpt><trkpt lat="45.1095956321876" lon="10.073705689187506"><ele>39.57142857142857</ele><time>2026-04-18T04:31:10Z</time></trkpt><trkpt lat="45.10963734334612" lon="10.073627443211546"><ele>39.857142857142854</ele><time>2026-04-18T04:31:11Z</time></trkpt><trkpt lat="45.10968041800975" lon="10.073549771948375"><ele>40.14285714285714</ele><time>2026-04-18T04:31:12Z</time></trkpt><trkpt lat="45.10972131111746" lon="10.073473841451603"><ele>40.42857142857143</ele><time>2026-04-18T04:31:13Z</time></trkpt><trkpt lat="45.10976591279662" lon="10.073393573450959"><ele>40.71428571428571</ele><time>2026-04-18T04:31:14Z</time></trkpt><trkpt lat="45.10980918448912" lon="10.073315888044595"><ele>41.0</ele><time>2026-04-18T04:31:15Z</time></trkpt><trkpt lat="45.109850308050916" lon="10.07323818613713"><ele>40.99999999999999</ele><time>2026-04-18T04:31:16Z</time></trkpt><trkpt lat="45.10989521202179" lon="10.073162412954455"><ele>41.0</ele><time>2026-04-18T04:31:17Z</time></trkpt><trkpt lat="45.10993910169336" lon="10.073082767425461"><ele>41.0</ele><time>2026-04-18T04:31:18Z</time></trkpt><trkpt lat="45.109976671147535" lon="10.073004662206461"><ele>41.0</ele><time>2026-04-18T04:31:19Z</time></trkpt><trkpt lat="45.110020749492996" lon="10.072925836060094"><ele>41.0</ele><time>2026-04-18T04:31:20Z</time></trkpt><trkpt lat="45.11006131652988" lon="10.072848114204868"><ele>40.99999999999999</ele><time>2026-04-18T04:31:21Z</time></trkpt><trkpt lat="45.11010328674877" lon="10.072768151322109"><ele>41.0</ele><time>2026-04-18T04:31:22Z</time></trkpt><trkpt lat="45.110141931726936" lon="10.072687043433094"><ele>40.99999999999999</ele><time>2026-04-18T04:31:23Z</time></trkpt><trkpt lat="45.11018078757849" lon="10.072606884250748"><ele>41.0</ele><time>2026-04-18T04:31:24Z</time></trkpt><trkpt lat="45.11022066734389" lon="10.072525757696408"><ele>41.0</ele><time>2026-04-18T04:31:25Z</time></trkpt><trkpt lat="45.1102605836167" lon="10.072446417740517"><ele>41.0</ele><time>2026-04-18T04:31:26Z</time></trkpt><trkpt lat="45.11029577840308" lon="10.07236126233742"><ele>41.0</ele><time>2026-04-18T04:31:27Z</time></trkpt><trkpt lat="45.110331916218676" lon="10.072277157065791"><ele>40.99999999999999</ele><time>2026-04-18T04:31:27.999Z</time></trkpt><trkpt lat="45.110362418422945" lon="10.072190574932549"><ele>41.0</ele><time>2026-04-18T04:31:28.999Z</time></trkpt><trkpt lat="45.11039144035906" lon="10.072102169378324"><ele>40.99999999999999</ele><time>2026-04-18T04:31:29.999Z</time></trkpt><trkpt lat="45.11041922866505" lon="10.072014568627479"><ele>41.0</ele><time>2026-04-18T04:31:30.999Z</time></trkpt><trkpt lat="45.110448822259116" lon="10.071927203103083"><ele>41.0</ele><time>2026-04-18T04:31:31.999Z</time></trkpt><trkpt lat="45.11047918264126" lon="10.071839067628552"><ele>41.0</ele><time>2026-04-18T04:31:32.999Z</time></trkpt><trkpt lat="45.11051084536307" lon="10.07174929142218"><ele>41.0</ele><time>2026-04-18T04:31:33.999Z</time></trkpt><trkpt lat="45.11054233685041" lon="10.071660365735344"><ele>40.99999999999999</ele><time>2026-04-18T04:31:34.999Z</time></trkpt><trkpt lat="45.110570689301895" lon="10.07156911251682"><ele>41.0</ele><time>2026-04-18T04:31:35.999Z</time></trkpt><trkpt lat="45.1106006189025" lon="10.071478869453747"><ele>41.0</ele><time>2026-04-18T04:31:36.999Z</time></trkpt><trkpt lat="45.11063335456203" lon="10.071388815639681"><ele>41.0</ele><time>2026-04-18T04:31:37.999Z</time></trkpt><trkpt lat="45.11066679284051" lon="10.071305005007671"><ele>41.0</ele><time>2026-04-18T04:31:38.999Z</time></trkpt><trkpt lat="45.1107014637184" lon="10.071223425392255"><ele>41.0</ele><time>2026-04-18T04:31:39.999Z</time></trkpt><trkpt lat="45.11076551644581" lon="10.071093324843376"><ele>41.0</ele><time>2026-04-18T04:31:41.999Z</time></trkpt><trkpt lat="45.11080018314489" lon="10.071003198619715"><ele>41.0</ele><time>2026-04-18T04:31:43.999Z</time></trkpt><trkpt lat="45.110700589798164" lon="10.070902414758187"><ele>41.5</ele><time>2026-04-18T04:31:44.999Z</time></trkpt><trkpt lat="45.1105815309471" lon="10.07082814132637"><ele>42.0</ele><time>2026-04-18T04:31:46.999Z</time></trkpt><trkpt lat="45.110519832892464" lon="10.070792415852946"><ele>42.5</ele><time>2026-04-18T04:31:47.999Z</time></trkpt><trkpt lat="45.11045767708571" lon="10.070754419576575"><ele>43.0</ele><time>2026-04-18T04:31:48.999Z</time></trkpt><trkpt lat="45.11039000815798" lon="10.070712411805856"><ele>43.5</ele><time>2026-04-18T04:31:49.999Z</time></trkpt><trkpt lat="45.110323463875034" lon="10.070666862010517"><ele>44.0</ele><time>2026-04-18T04:31:50.999Z</time></trkpt><trkpt lat="45.11025259639107" lon="10.070613779791287"><ele>42.83333333333333</ele><time>2026-04-18T04:31:51.999Z</time></trkpt><trkpt lat="45.11019182868818" lon="10.070551689085368"><ele>41.666666666666664</ele><time>2026-04-18T04:31:52.999Z</time></trkpt><trkpt lat="45.11013230012553" lon="10.0704765583407"><ele>40.5</ele><time>2026-04-18T04:31:53.999Z</time></trkpt><trkpt lat="45.110081467109424" lon="10.070384213926257"><ele>39.333333333333336</ele><time>2026-04-18T04:31:54.999Z</time></trkpt><trkpt lat="45.110038272015196" lon="10.070283104042486"><ele>38.16666666666667</ele><time>2026-04-18T04:31:55.999Z</time></trkpt><trkpt lat="45.110001230377456" lon="10.070178227089876"><ele>37.0</ele><time>2026-04-18T04:31:56.999Z</time></trkpt><trkpt lat="45.10996714110502" lon="10.070074012780323"><ele>37.0</ele><time>2026-04-18T04:31:57.999Z</time></trkpt><trkpt lat="45.10993718953046" lon="10.069970147887316"><ele>37.0</ele><time>2026-04-18T04:31:58.999Z</time></trkpt><trkpt lat="45.109905575451876" lon="10.069869334626487"><ele>37.0</ele><time>2026-04-18T04:31:59.999Z</time></trkpt><trkpt lat="45.10987396304164" lon="10.069769572463569"><ele>37.0</ele><time>2026-04-18T04:32:00.999Z</time></trkpt><trkpt lat="45.10984168542417" lon="10.06967155332862"><ele>37.0</ele><time>2026-04-18T04:32:01.999Z</time></trkpt><trkpt lat="45.1098104947618" lon="10.069574797475521"><ele>37.0</ele><time>2026-04-18T04:32:02.999Z</time></trkpt><trkpt lat="45.10977522141331" lon="10.069481044121753"><ele>36.42857142857143</ele><time>2026-04-18T04:32:03.999Z</time></trkpt><trkpt lat="45.10973871345639" lon="10.06938914120307"><ele>35.857142857142854</ele><time>2026-04-18T04:32:04.999Z</time></trkpt><trkpt lat="45.10970373491201" lon="10.069297652149682"><ele>35.285714285714285</ele><time>2026-04-18T04:32:05.999Z</time></trkpt><trkpt lat="45.109670001772784" lon="10.069206001492997"><ele>34.714285714285715</ele><time>2026-04-18T04:32:06.999Z</time></trkpt><trkpt lat="45.10963184861338" lon="10.069117498506607"><ele>34.142857142857146</ele><time>2026-04-18T04:32:07.999Z</time></trkpt><trkpt lat="45.109590352573434" lon="10.069033519691418"><ele>33.57142857142857</ele><time>2026-04-18T04:32:08.999Z</time></trkpt><trkpt lat="45.10954417952719" lon="10.068956345688532"><ele>33.0</ele><time>2026-04-18T04:32:09.999Z</time></trkpt><trkpt lat="45.10949618648155" lon="10.068878273457573"><ele>33.0</ele><time>2026-04-18T04:32:10.999Z</time></trkpt><trkpt lat="45.10944819543416" lon="10.068800830044683"><ele>33.0</ele><time>2026-04-18T04:32:11.999Z</time></trkpt><trkpt lat="45.10940330336593" lon="10.068721472562853"><ele>33.0</ele><time>2026-04-18T04:32:12.999Z</time></trkpt><trkpt lat="45.109357403227506" lon="10.068645539557446"><ele>33.0</ele><time>2026-04-18T04:32:13.999Z</time></trkpt><trkpt lat="45.10931158472184" lon="10.06856866538913"><ele>33.0</ele><time>2026-04-18T04:32:14.999Z</time></trkpt><trkpt lat="45.10926740610837" lon="10.068491076683094"><ele>33.0</ele><time>2026-04-18T04:32:15.999Z</time></trkpt><trkpt lat="45.10922244948334" lon="10.0684167813186"><ele>33.0</ele><time>2026-04-18T04:32:16.999Z</time></trkpt><trkpt lat="45.109177445421714" lon="10.06833930248657"><ele>33.14285714285714</ele><time>2026-04-18T04:32:17.999Z</time></trkpt><trkpt lat="45.10913038320249" lon="10.068263338696738"><ele>33.285714285714285</ele><time>2026-04-18T04:32:18.999Z</time></trkpt><trkpt lat="45.10908431495653" lon="10.068187945265878"><ele>33.42857142857143</ele><time>2026-04-18T04:32:19.999Z</time></trkpt><trkpt lat="45.10903819532334" lon="10.06811283194161"><ele>33.57142857142857</ele><time>2026-04-18T04:32:20.998Z</time></trkpt><trkpt lat="45.1089916065873" lon="10.068037259078244"><ele>33.714285714285715</ele><time>2026-04-18T04:32:21.998Z</time></trkpt><trkpt lat="45.108947564659246" lon="10.067959308665834"><ele>33.857142857142854</ele><time>2026-04-18T04:32:22.998Z</time></trkpt><trkpt lat="45.1089017749727" lon="10.067883262245694"><ele>34.0</ele><time>2026-04-18T04:32:23.998Z</time></trkpt><trkpt lat="45.1088560817453" lon="10.06780938805933"><ele>33.99999999999999</ele><time>2026-04-18T04:32:24.998Z</time></trkpt><trkpt lat="45.10881048771514" lon="10.067733106645885"><ele>34.0</ele><time>2026-04-18T04:32:25.998Z</time></trkpt><trkpt lat="45.10876788776442" lon="10.067653060573361"><ele>34.0</ele><time>2026-04-18T04:32:26.998Z</time></trkpt><trkpt lat="45.1087210737144" lon="10.067578521087588"><ele>34.0</ele><time>2026-04-18T04:32:27.998Z</time></trkpt><trkpt lat="45.108674932827384" lon="10.067503746991653"><ele>34.0</ele><time>2026-04-18T04:32:28.998Z</time></trkpt><trkpt lat="45.108629041565635" lon="10.067424185529005"><ele>33.99999999999999</ele><time>2026-04-18T04:32:29.998Z</time></trkpt><trkpt lat="45.1085818914939" lon="10.067346538614668"><ele>34.0</ele><time>2026-04-18T04:32:30.998Z</time></trkpt><trkpt lat="45.10853715419327" lon="10.06726856643216"><ele>33.857142857142854</ele><time>2026-04-18T04:32:31.998Z</time></trkpt><trkpt lat="45.10848917968399" lon="10.067191728168854"><ele>33.714285714285715</ele><time>2026-04-18T04:32:32.998Z</time></trkpt><trkpt lat="45.108445665693935" lon="10.067112102307227"><ele>33.57142857142857</ele><time>2026-04-18T04:32:33.998Z</time></trkpt><trkpt lat="45.10839961002941" lon="10.067034121917843"><ele>33.42857142857143</ele><time>2026-04-18T04:32:34.998Z</time></trkpt><trkpt lat="45.10835133092762" lon="10.066958421282246"><ele>33.285714285714285</ele><time>2026-04-18T04:32:35.998Z</time></trkpt><trkpt lat="45.10830432320305" lon="10.066880425465733"><ele>33.14285714285714</ele><time>2026-04-18T04:32:36.998Z</time></trkpt><trkpt lat="45.108256180666686" lon="10.066803713606271"><ele>33.0</ele><time>2026-04-18T04:32:37.998Z</time></trkpt><trkpt lat="45.10821136145908" lon="10.066728485732797"><ele>33.0</ele><time>2026-04-18T04:32:38.998Z</time></trkpt><trkpt lat="45.10816391447281" lon="10.066647918928505"><ele>33.0</ele><time>2026-04-18T04:32:39.998Z</time></trkpt><trkpt lat="45.108120440463395" lon="10.06657285243849"><ele>33.0</ele><time>2026-04-18T04:32:40.998Z</time></trkpt><trkpt lat="45.10807458652388" lon="10.066493607873351"><ele>33.0</ele><time>2026-04-18T04:32:41.998Z</time></trkpt><trkpt lat="45.10802754018181" lon="10.066417521191273"><ele>33.0</ele><time>2026-04-18T04:32:42.998Z</time></trkpt><trkpt lat="45.10798057306283" lon="10.066341590586488"><ele>33.0</ele><time>2026-04-18T04:32:43.998Z</time></trkpt><trkpt lat="45.10793375939273" lon="10.066264765231725"><ele>33.0</ele><time>2026-04-18T04:32:44.998Z</time></trkpt><trkpt lat="45.107888033312584" lon="10.06618934731203"><ele>33.0</ele><time>2026-04-18T04:32:45.998Z</time></trkpt><trkpt lat="45.10784244821202" lon="10.066113902653289"><ele>33.0</ele><time>2026-04-18T04:32:46.998Z</time></trkpt><trkpt lat="45.10779687042377" lon="10.066036243167531"><ele>33.0</ele><time>2026-04-18T04:32:47.998Z</time></trkpt><trkpt lat="45.10774970723963" lon="10.06596049967918"><ele>33.0</ele><time>2026-04-18T04:32:48.998Z</time></trkpt><trkpt lat="45.10770228866658" lon="10.065887122638745"><ele>33.0</ele><time>2026-04-18T04:32:49.998Z</time></trkpt><trkpt lat="45.10765586005499" lon="10.065810741165183"><ele>33.0</ele><time>2026-04-18T04:32:50.998Z</time></trkpt><trkpt lat="45.10760864172186" lon="10.06573499457263"><ele>33.0</ele><time>2026-04-18T04:32:51.998Z</time></trkpt><trkpt lat="45.107562179120215" lon="10.06565723513727"><ele>33.0</ele><time>2026-04-18T04:32:52.998Z</time></trkpt><trkpt lat="45.10751449280683" lon="10.06558169207005"><ele>33.0</ele><time>2026-04-18T04:32:53.998Z</time></trkpt><trkpt lat="45.107466845627854" lon="10.065505372910065"><ele>33.0</ele><time>2026-04-18T04:32:54.998Z</time></trkpt><trkpt lat="45.10741844914787" lon="10.065431366606113"><ele>33.0</ele><time>2026-04-18T04:32:56Z</time></trkpt><trkpt lat="45.10737092187727" lon="10.065355166804737"><ele>33.0</ele><time>2026-04-18T04:32:57Z</time></trkpt><trkpt lat="45.10732447130744" lon="10.065280181301599"><ele>33.0</ele><time>2026-04-18T04:32:58Z</time></trkpt><trkpt lat="45.107277006982144" lon="10.065204278577038"><ele>33.0</ele><time>2026-04-18T04:32:59Z</time></trkpt><trkpt lat="45.10723038325861" lon="10.065130836996468"><ele>33.0</ele><time>2026-04-18T04:33:00Z</time></trkpt><trkpt lat="45.10718354975379" lon="10.065055152672196"><ele>33.0</ele><time>2026-04-18T04:33:01Z</time></trkpt><trkpt lat="45.10713739056388" lon="10.064980663181641"><ele>33.0</ele><time>2026-04-18T04:33:02Z</time></trkpt><trkpt lat="45.10709152596189" lon="10.064907211483696"><ele>33.0</ele><time>2026-04-18T04:33:03Z</time></trkpt><trkpt lat="45.10704284833629" lon="10.064835240548742"><ele>33.0</ele><time>2026-04-18T04:33:04Z</time></trkpt><trkpt lat="45.106994901669914" lon="10.064762056168966"><ele>33.0</ele><time>2026-04-18T04:33:05Z</time></trkpt><trkpt lat="45.10694846088979" lon="10.064684044686512"><ele>33.0</ele><time>2026-04-18T04:33:06Z</time></trkpt><trkpt lat="45.10690328693896" lon="10.064607567085968"><ele>33.0</ele><time>2026-04-18T04:33:07Z</time></trkpt><trkpt lat="45.106855052988394" lon="10.06452951538745"><ele>33.0</ele><time>2026-04-18T04:33:08Z</time></trkpt><trkpt lat="45.106806265000394" lon="10.064455766376044"><ele>33.0</ele><time>2026-04-18T04:33:09Z</time></trkpt><trkpt lat="45.10675905645103" lon="10.064376345891652"><ele>33.0</ele><time>2026-04-18T04:33:10Z</time></trkpt><trkpt lat="45.1067111903583" lon="10.064300419526774"><ele>33.0</ele><time>2026-04-18T04:33:11Z</time></trkpt><trkpt lat="45.106664549157614" lon="10.06422318219836"><ele>33.0</ele><time>2026-04-18T04:33:12Z</time></trkpt><trkpt lat="45.10661844172019" lon="10.064148006151814"><ele>33.0</ele><time>2026-04-18T04:33:13Z</time></trkpt><trkpt lat="45.10657138785016" lon="10.064071535537902"><ele>33.285714285714285</ele><time>2026-04-18T04:33:14Z</time></trkpt><trkpt lat="45.10652717033807" lon="10.063995481122182"><ele>33.57142857142857</ele><time>2026-04-18T04:33:15Z</time></trkpt><trkpt lat="45.106481515277046" lon="10.063924816639757"><ele>33.85714285714286</ele><time>2026-04-18T04:33:16Z</time></trkpt><trkpt lat="45.10643711673893" lon="10.06385175111076"><ele>34.14285714285714</ele><time>2026-04-18T04:33:17Z</time></trkpt><trkpt lat="45.1063916158594" lon="10.063778927908647"><ele>34.42857142857143</ele><time>2026-04-18T04:33:18Z</time></trkpt><trkpt lat="45.106348736009785" lon="10.063708639729573"><ele>34.714285714285715</ele><time>2026-04-18T04:33:19Z</time></trkpt><trkpt lat="45.10630401833267" lon="10.063639345793323"><ele>35.0</ele><time>2026-04-18T04:33:20Z</time></trkpt><trkpt lat="45.106260795768584" lon="10.0635691933537"><ele>35.0</ele><time>2026-04-18T04:33:21Z</time></trkpt><trkpt lat="45.10621656780855" lon="10.06349909481877"><ele>35.0</ele><time>2026-04-18T04:33:22Z</time></trkpt><trkpt lat="45.10617318201636" lon="10.063427936789504"><ele>35.0</ele><time>2026-04-18T04:33:23Z</time></trkpt><trkpt lat="45.10613195893181" lon="10.063359665473806"><ele>35.0</ele><time>2026-04-18T04:33:24Z</time></trkpt><trkpt lat="45.10608991845969" lon="10.063289433714097"><ele>35.0</ele><time>2026-04-18T04:33:25Z</time></trkpt><trkpt lat="45.10604919498703" lon="10.06321963765871"><ele>35.0</ele><time>2026-04-18T04:33:26Z</time></trkpt><trkpt lat="45.10600424130302" lon="10.063149861881037"><ele>35.0</ele><time>2026-04-18T04:33:26.999Z</time></trkpt><trkpt lat="45.10596207776867" lon="10.063081112620582"><ele>34.857142857142854</ele><time>2026-04-18T04:33:27.999Z</time></trkpt><trkpt lat="45.105919962574724" lon="10.063011484686651"><ele>34.714285714285715</ele><time>2026-04-18T04:33:28.999Z</time></trkpt><trkpt lat="45.105870843473205" lon="10.062945852739864"><ele>34.57142857142857</ele><time>2026-04-18T04:33:29.999Z</time></trkpt><trkpt lat="45.10582316162043" lon="10.062877260971879"><ele>34.42857142857143</ele><time>2026-04-18T04:33:30.999Z</time></trkpt><trkpt lat="45.10577186413885" lon="10.062805097691244"><ele>34.285714285714285</ele><time>2026-04-18T04:33:31.999Z</time></trkpt><trkpt lat="45.10572379663684" lon="10.062726431263338"><ele>34.14285714285714</ele><time>2026-04-18T04:33:32.999Z</time></trkpt><trkpt lat="45.10567359054713" lon="10.06264565178738"><ele>34.0</ele><time>2026-04-18T04:33:33.999Z</time></trkpt><trkpt lat="45.10562042382158" lon="10.062567063073226"><ele>34.0</ele><time>2026-04-18T04:33:34.999Z</time></trkpt><trkpt lat="45.10556328362221" lon="10.062491263146796"><ele>34.0</ele><time>2026-04-18T04:33:35.999Z</time></trkpt><trkpt lat="45.10550794209411" lon="10.062406912065995"><ele>34.0</ele><time>2026-04-18T04:33:36.999Z</time></trkpt><trkpt lat="45.10545003297983" lon="10.062326691478601"><ele>34.0</ele><time>2026-04-18T04:33:37.999Z</time></trkpt><trkpt lat="45.10538687216655" lon="10.062254347430398"><ele>34.0</ele><time>2026-04-18T04:33:38.999Z</time></trkpt><trkpt lat="45.10531775514139" lon="10.062186912437234"><ele>34.0</ele><time>2026-04-18T04:33:39.999Z</time></trkpt><trkpt lat="45.105245441547225" lon="10.062127229961337"><ele>33.71428571428571</ele><time>2026-04-18T04:33:40.999Z</time></trkpt><trkpt lat="45.10517244568027" lon="10.062077058222256"><ele>33.42857142857143</ele><time>2026-04-18T04:33:41.999Z</time></trkpt><trkpt lat="45.10510064111687" lon="10.06203221332355"><ele>33.14285714285714</ele><time>2026-04-18T04:33:42.999Z</time></trkpt><trkpt lat="45.1050315364279" lon="10.061994499860532"><ele>32.857142857142854</ele><time>2026-04-18T04:33:43.999Z</time></trkpt><trkpt lat="45.10496057383231" lon="10.061963656412495"><ele>32.57142857142857</ele><time>2026-04-18T04:33:44.999Z</time></trkpt><trkpt lat="45.10489071267589" lon="10.061947758094687"><ele>32.285714285714285</ele><time>2026-04-18T04:33:45.999Z</time></trkpt><trkpt lat="45.10482329234341" lon="10.061948812339415"><ele>32.0</ele><time>2026-04-18T04:33:46.999Z</time></trkpt><trkpt lat="45.10475473880042" lon="10.061963524372441"><ele>32.0</ele><time>2026-04-18T04:33:47.999Z</time></trkpt><trkpt lat="45.104688501885114" lon="10.06199069115005"><ele>31.999999999999996</ele><time>2026-04-18T04:33:48.999Z</time></trkpt><trkpt lat="45.10462464145573" lon="10.062024909403815"><ele>32.0</ele><time>2026-04-18T04:33:49.999Z</time></trkpt><trkpt lat="45.104562094502015" lon="10.062055947188707"><ele>32.0</ele><time>2026-04-18T04:33:50.999Z</time></trkpt><trkpt lat="45.10449918881888" lon="10.062089466249805"><ele>31.999999999999996</ele><time>2026-04-18T04:33:51.999Z</time></trkpt><trkpt lat="45.104437761542165" lon="10.062127056501238"><ele>32.0</ele><time>2026-04-18T04:33:52.999Z</time></trkpt><trkpt lat="45.10436756676028" lon="10.062142243967225"><ele>32.0</ele><time>2026-04-18T04:33:53.999Z</time></trkpt><trkpt lat="45.10431059357909" lon="10.062199104673951"><ele>32.0</ele><time>2026-04-18T04:33:54.999Z</time></trkpt><trkpt lat="45.104246296544176" lon="10.062232767874018"><ele>31.999999999999996</ele><time>2026-04-18T04:33:55.999Z</time></trkpt><trkpt lat="45.10418204203738" lon="10.062269357317806"><ele>32.0</ele><time>2026-04-18T04:33:56.999Z</time></trkpt><trkpt lat="45.10411833065886" lon="10.062307483723952"><ele>32.0</ele><time>2026-04-18T04:33:57.999Z</time></trkpt><trkpt lat="45.1040553469277" lon="10.06234551510412"><ele>31.999999999999996</ele><time>2026-04-18T04:33:58.999Z</time></trkpt><trkpt lat="45.10399207835945" lon="10.062383589437596"><ele>32.0</ele><time>2026-04-18T04:33:59.999Z</time></trkpt><trkpt lat="45.1039273039087" lon="10.062419254490242"><ele>32.0</ele><time>2026-04-18T04:34:00.999Z</time></trkpt><trkpt lat="45.10386308381568" lon="10.06245716098194"><ele>32.285714285714285</ele><time>2026-04-18T04:34:01.999Z</time></trkpt><trkpt lat="45.10379829301133" lon="10.062491233931391"><ele>32.57142857142857</ele><time>2026-04-18T04:34:02.999Z</time></trkpt><trkpt lat="45.103733894759316" lon="10.062529362428185"><ele>32.857142857142854</ele><time>2026-04-18T04:34:03.999Z</time></trkpt><trkpt lat="45.10367087083236" lon="10.062566489106905"><ele>33.14285714285714</ele><time>2026-04-18T04:34:04.999Z</time></trkpt><trkpt lat="45.103605983778436" lon="10.062599178079074"><ele>33.42857142857143</ele><time>2026-04-18T04:34:05.999Z</time></trkpt><trkpt lat="45.103542286888135" lon="10.062636234439216"><ele>33.71428571428571</ele><time>2026-04-18T04:34:06.999Z</time></trkpt><trkpt lat="45.10347832992635" lon="10.062670742773337"><ele>34.0</ele><time>2026-04-18T04:34:07.999Z</time></trkpt><trkpt lat="45.103414897056616" lon="10.062700587508473"><ele>33.99999999999999</ele><time>2026-04-18T04:34:08.999Z</time></trkpt><trkpt lat="45.10335153458151" lon="10.062721414157677"><ele>34.0</ele><time>2026-04-18T04:34:09.999Z</time></trkpt><trkpt lat="45.10328987508306" lon="10.062691601133071"><ele>34.0</ele><time>2026-04-18T04:34:10.999Z</time></trkpt><trkpt lat="45.103251839206564" lon="10.062616469541306"><ele>34.0</ele><time>2026-04-18T04:34:11.999Z</time></trkpt><trkpt lat="45.10325216754694" lon="10.06250903419085"><ele>34.0</ele><time>2026-04-18T04:34:12.999Z</time></trkpt><trkpt lat="45.10326938402333" lon="10.062410562387765"><ele>33.99999999999999</ele><time>2026-04-18T04:34:13.999Z</time></trkpt><trkpt lat="45.10328654592565" lon="10.062318852111805"><ele>34.0</ele><time>2026-04-18T04:34:14.999Z</time></trkpt><trkpt lat="45.103293461015035" lon="10.062223386393525"><ele>34.14285714285714</ele><time>2026-04-18T04:34:15.999Z</time></trkpt><trkpt lat="45.103291736555896" lon="10.062130672373153"><ele>34.285714285714285</ele><time>2026-04-18T04:34:16.999Z</time></trkpt><trkpt lat="45.1032925913547" lon="10.06203211325366"><ele>34.42857142857143</ele><time>2026-04-18T04:34:17.999Z</time></trkpt><trkpt lat="45.10329519787966" lon="10.061934758705199"><ele>34.57142857142857</ele><time>2026-04-18T04:34:18.999Z</time></trkpt><trkpt lat="45.10329714410428" lon="10.061836075604235"><ele>34.714285714285715</ele><time>2026-04-18T04:34:19.999Z</time></trkpt><trkpt lat="45.10329730277915" lon="10.061736940595774"><ele>34.857142857142854</ele><time>2026-04-18T04:34:20.998Z</time></trkpt><trkpt lat="45.10330131040551" lon="10.061639340623934"><ele>35.0</ele><time>2026-04-18T04:34:21.998Z</time></trkpt><trkpt lat="45.1033020281536" lon="10.061540312322823"><ele>35.142857142857146</ele><time>2026-04-18T04:34:22.998Z</time></trkpt><trkpt lat="45.103303752421986" lon="10.061440420867823"><ele>35.285714285714285</ele><time>2026-04-18T04:34:23.998Z</time></trkpt><trkpt lat="45.10330766032536" lon="10.061341830748049"><ele>35.42857142857143</ele><time>2026-04-18T04:34:24.998Z</time></trkpt><trkpt lat="45.103306511342815" lon="10.061245431080357"><ele>35.57142857142857</ele><time>2026-04-18T04:34:25.998Z</time></trkpt><trkpt lat="45.103304634364754" lon="10.061147092775284"><ele>35.714285714285715</ele><time>2026-04-18T04:34:26.998Z</time></trkpt><trkpt lat="45.10330695731398" lon="10.061051746144813"><ele>35.85714285714286</ele><time>2026-04-18T04:34:27.998Z</time></trkpt><trkpt lat="45.10330890919415" lon="10.060949802814191"><ele>36.0</ele><time>2026-04-18T04:34:28.998Z</time></trkpt><trkpt lat="45.10331006463304" lon="10.060849739598723"><ele>35.714285714285715</ele><time>2026-04-18T04:34:29.998Z</time></trkpt><trkpt lat="45.10331275890973" lon="10.0607485111336"><ele>35.42857142857143</ele><time>2026-04-18T04:34:30.998Z</time></trkpt><trkpt lat="45.10331578302146" lon="10.060646082984817"><ele>35.14285714285714</ele><time>2026-04-18T04:34:31.998Z</time></trkpt><trkpt lat="45.10331910842069" lon="10.060545666356786"><ele>34.85714285714286</ele><time>2026-04-18T04:34:32.998Z</time></trkpt><trkpt lat="45.103323844267955" lon="10.060443751140976"><ele>34.57142857142857</ele><time>2026-04-18T04:34:33.998Z</time></trkpt><trkpt lat="45.10332908265839" lon="10.060343349464242"><ele>34.285714285714285</ele><time>2026-04-18T04:34:34.998Z</time></trkpt><trkpt lat="45.10333473803411" lon="10.060240792657657"><ele>34.0</ele><time>2026-04-18T04:34:35.998Z</time></trkpt><trkpt lat="45.103338266428096" lon="10.060139600502385"><ele>33.99999999999999</ele><time>2026-04-18T04:34:36.998Z</time></trkpt><trkpt lat="45.10333774871597" lon="10.060038622936233"><ele>34.0</ele><time>2026-04-18T04:34:37.998Z</time></trkpt><trkpt lat="45.103336213605665" lon="10.059933965935015"><ele>34.0</ele><time>2026-04-18T04:34:38.998Z</time></trkpt><trkpt lat="45.103333189014215" lon="10.059830275654013"><ele>34.0</ele><time>2026-04-18T04:34:39.998Z</time></trkpt><trkpt lat="45.1033338869147" lon="10.0597273950245"><ele>34.0</ele><time>2026-04-18T04:34:40.998Z</time></trkpt><trkpt lat="45.10334431682847" lon="10.059624094856648"><ele>33.99999999999999</ele><time>2026-04-18T04:34:41.998Z</time></trkpt><trkpt lat="45.10333557566282" lon="10.059522258460005"><ele>34.0</ele><time>2026-04-18T04:34:42.998Z</time></trkpt><trkpt lat="45.10332662357093" lon="10.059421319616627"><ele>34.14285714285714</ele><time>2026-04-18T04:34:43.998Z</time></trkpt><trkpt lat="45.10330759931886" lon="10.059325626043535"><ele>34.285714285714285</ele><time>2026-04-18T04:34:44.998Z</time></trkpt><trkpt lat="45.10326871085504" lon="10.05923764143485"><ele>34.42857142857143</ele><time>2026-04-18T04:34:45.998Z</time></trkpt><trkpt lat="45.10320984869508" lon="10.059170981484593"><ele>34.57142857142857</ele><time>2026-04-18T04:34:46.998Z</time></trkpt><trkpt lat="45.103142147129994" lon="10.059131122391301"><ele>34.714285714285715</ele><time>2026-04-18T04:34:47.998Z</time></trkpt><trkpt lat="45.10307215474421" lon="10.059112757904924"><ele>34.857142857142854</ele><time>2026-04-18T04:34:48.998Z</time></trkpt><trkpt lat="45.10300109354288" lon="10.059102310704858"><ele>35.0</ele><time>2026-04-18T04:34:49.998Z</time></trkpt><trkpt lat="45.10293281779644" lon="10.05908923901434"><ele>35.285714285714285</ele><time>2026-04-18T04:34:50.998Z</time></trkpt><trkpt lat="45.10287082626953" lon="10.059053360061972"><ele>35.57142857142857</ele><time>2026-04-18T04:34:51.998Z</time></trkpt><trkpt lat="45.10281832034243" lon="10.058983410605238"><ele>35.85714285714286</ele><time>2026-04-18T04:34:52.998Z</time></trkpt><trkpt lat="45.10278986332" lon="10.058884089696315"><ele>36.14285714285714</ele><time>2026-04-18T04:34:53.998Z</time></trkpt><trkpt lat="45.10277824882503" lon="10.058774378990298"><ele>36.42857142857143</ele><time>2026-04-18T04:34:54.998Z</time></trkpt><trkpt lat="45.10276937129798" lon="10.058673533183471"><ele>36.714285714285715</ele><time>2026-04-18T04:34:55.998Z</time></trkpt><trkpt lat="45.1027537549924" lon="10.05857158997341"><ele>37.0</ele><time>2026-04-18T04:34:56.998Z</time></trkpt><trkpt lat="45.10273506569711" lon="10.05847114732717"><ele>37.0</ele><time>2026-04-18T04:34:57.998Z</time></trkpt><trkpt lat="45.10271716851788" lon="10.058371876343656"><ele>37.0</ele><time>2026-04-18T04:34:58.998Z</time></trkpt><trkpt lat="45.10269444962404" lon="10.05827586822709"><ele>37.0</ele><time>2026-04-18T04:34:59.998Z</time></trkpt><trkpt lat="45.102674599790404" lon="10.05817776748953"><ele>37.0</ele><time>2026-04-18T04:35:00.998Z</time></trkpt><trkpt lat="45.10265502062263" lon="10.058085306051648"><ele>37.0</ele><time>2026-04-18T04:35:02Z</time></trkpt><trkpt lat="45.10263258096309" lon="10.057989696962862"><ele>37.0</ele><time>2026-04-18T04:35:03Z</time></trkpt><trkpt lat="45.102607468747905" lon="10.05789543326418"><ele>37.0</ele><time>2026-04-18T04:35:04Z</time></trkpt><trkpt lat="45.10258301791231" lon="10.057804971780799"><ele>37.142857142857146</ele><time>2026-04-18T04:35:05Z</time></trkpt><trkpt lat="45.10255852673844" lon="10.057708637674029"><ele>37.285714285714285</ele><time>2026-04-18T04:35:06Z</time></trkpt><trkpt lat="45.102526185655" lon="10.057617670033201"><ele>37.42857142857143</ele><time>2026-04-18T04:35:07Z</time></trkpt><trkpt lat="45.10249873115129" lon="10.057524337622336"><ele>37.57142857142857</ele><time>2026-04-18T04:35:08Z</time></trkpt><trkpt lat="45.102475615739536" lon="10.057427990698438"><ele>37.714285714285715</ele><time>2026-04-18T04:35:09Z</time></trkpt><trkpt lat="45.102439386210776" lon="10.057340003139934"><ele>37.857142857142854</ele><time>2026-04-18T04:35:10Z</time></trkpt><trkpt lat="45.102404595923254" lon="10.057251671930187"><ele>38.0</ele><time>2026-04-18T04:35:11Z</time></trkpt><trkpt lat="45.10237144297123" lon="10.057161452636029"><ele>38.0</ele><time>2026-04-18T04:35:12Z</time></trkpt><trkpt lat="45.10233974421687" lon="10.057071329431533"><ele>38.0</ele><time>2026-04-18T04:35:13Z</time></trkpt><trkpt lat="45.102310522621195" lon="10.056977639750135"><ele>38.0</ele><time>2026-04-18T04:35:14Z</time></trkpt><trkpt lat="45.10228090441213" lon="10.056887283235527"><ele>38.0</ele><time>2026-04-18T04:35:15Z</time></trkpt><trkpt lat="45.102250121458646" lon="10.056793553933387"><ele>38.0</ele><time>2026-04-18T04:35:16Z</time></trkpt><trkpt lat="45.10221941472612" lon="10.05670193718649"><ele>38.0</ele><time>2026-04-18T04:35:17Z</time></trkpt><trkpt lat="45.10218757163882" lon="10.056609580093927"><ele>38.0</ele><time>2026-04-18T04:35:18Z</time></trkpt><trkpt lat="45.10215516960015" lon="10.056516335616772"><ele>37.714285714285715</ele><time>2026-04-18T04:35:19Z</time></trkpt><trkpt lat="45.10212237456702" lon="10.056428285311737"><ele>37.42857142857143</ele><time>2026-04-18T04:35:20Z</time></trkpt><trkpt lat="45.102092558283765" lon="10.056334185170064"><ele>37.142857142857146</ele><time>2026-04-18T04:35:21Z</time></trkpt><trkpt lat="45.10206247176578" lon="10.056241873634566"><ele>36.85714285714286</ele><time>2026-04-18T04:35:22Z</time></trkpt><trkpt lat="45.10203082370321" lon="10.056150056076843"><ele>36.57142857142857</ele><time>2026-04-18T04:35:23Z</time></trkpt><trkpt lat="45.1019981923192" lon="10.056055335170365"><ele>36.28571428571429</ele><time>2026-04-18T04:35:24Z</time></trkpt><trkpt lat="45.10197027819868" lon="10.055960435021772"><ele>36.0</ele><time>2026-04-18T04:35:25Z</time></trkpt><trkpt lat="45.10193637293739" lon="10.055866700337715"><ele>35.714285714285715</ele><time>2026-04-18T04:35:26Z</time></trkpt><trkpt lat="45.101904689859026" lon="10.055772681332362"><ele>35.42857142857143</ele><time>2026-04-18T04:35:27Z</time></trkpt><trkpt lat="45.10187430070006" lon="10.05567903185176"><ele>35.14285714285714</ele><time>2026-04-18T04:35:28Z</time></trkpt><trkpt lat="45.101841281039015" lon="10.055587012326876"><ele>34.85714285714286</ele><time>2026-04-18T04:35:28.999Z</time></trkpt><trkpt lat="45.101810211267214" lon="10.055495439405334"><ele>34.57142857142857</ele><time>2026-04-18T04:35:29.999Z</time></trkpt><trkpt lat="45.101776996390676" lon="10.055404107976122"><ele>34.285714285714285</ele><time>2026-04-18T04:35:30.999Z</time></trkpt><trkpt lat="45.10174683448176" lon="10.055311786750915"><ele>34.0</ele><time>2026-04-18T04:35:31.999Z</time></trkpt><trkpt lat="45.101716261293745" lon="10.055219063830636"><ele>33.99999999999999</ele><time>2026-04-18T04:35:32.999Z</time></trkpt><trkpt lat="45.10168661529429" lon="10.055125422130107"><ele>34.0</ele><time>2026-04-18T04:35:33.999Z</time></trkpt><trkpt lat="45.10165554308188" lon="10.055034328048944"><ele>34.0</ele><time>2026-04-18T04:35:34.999Z</time></trkpt><trkpt lat="45.10162551886064" lon="10.054941782651499"><ele>34.0</ele><time>2026-04-18T04:35:35.999Z</time></trkpt><trkpt lat="45.101595836799355" lon="10.054850802271396"><ele>34.0</ele><time>2026-04-18T04:35:36.999Z</time></trkpt><trkpt lat="45.10156556661281" lon="10.054758705531903"><ele>33.99999999999999</ele><time>2026-04-18T04:35:37.999Z</time></trkpt><trkpt lat="45.101534758690214" lon="10.054666641424799"><ele>34.0</ele><time>2026-04-18T04:35:38.999Z</time></trkpt><trkpt lat="45.10150649981673" lon="10.05457190767003"><ele>34.14285714285714</ele><time>2026-04-18T04:35:39.999Z</time></trkpt><trkpt lat="45.101477929617175" lon="10.054479264148831"><ele>34.285714285714285</ele><time>2026-04-18T04:35:40.999Z</time></trkpt><trkpt lat="45.10145117423632" lon="10.054385070565765"><ele>34.42857142857143</ele><time>2026-04-18T04:35:41.999Z</time></trkpt><trkpt lat="45.10142407243616" lon="10.054291849698958"><ele>34.57142857142857</ele><time>2026-04-18T04:35:42.999Z</time></trkpt><trkpt lat="45.10140375167986" lon="10.054192133715102"><ele>34.714285714285715</ele><time>2026-04-18T04:35:43.999Z</time></trkpt><trkpt lat="45.10139083477443" lon="10.05409344579755"><ele>34.857142857142854</ele><time>2026-04-18T04:35:44.999Z</time></trkpt><trkpt lat="45.10139088731698" lon="10.053990663388792"><ele>35.0</ele><time>2026-04-18T04:35:45.999Z</time></trkpt><trkpt lat="45.10139265567034" lon="10.053889087276898"><ele>35.0</ele><time>2026-04-18T04:35:46.999Z</time></trkpt><trkpt lat="45.10139813863707" lon="10.053787742187643"><ele>35.0</ele><time>2026-04-18T04:35:47.999Z</time></trkpt><trkpt lat="45.101403241969756" lon="10.0536875403838"><ele>35.0</ele><time>2026-04-18T04:35:48.999Z</time></trkpt><trkpt lat="45.10140692154272" lon="10.053587952325838"><ele>35.0</ele><time>2026-04-18T04:35:49.999Z</time></trkpt><trkpt lat="45.10141255012914" lon="10.053485928535897"><ele>35.0</ele><time>2026-04-18T04:35:50.999Z</time></trkpt><trkpt lat="45.10141620602051" lon="10.053387094872846"><ele>35.0</ele><time>2026-04-18T04:35:51.999Z</time></trkpt><trkpt lat="45.10142517575614" lon="10.053282879784108"><ele>35.0</ele><time>2026-04-18T04:35:52.999Z</time></trkpt><trkpt lat="45.10143156518841" lon="10.053183457304774"><ele>35.0</ele><time>2026-04-18T04:35:53.999Z</time></trkpt><trkpt lat="45.10144245484251" lon="10.053082650620428"><ele>35.0</ele><time>2026-04-18T04:35:54.999Z</time></trkpt><trkpt lat="45.101450950254694" lon="10.052982542220883"><ele>35.0</ele><time>2026-04-18T04:35:55.999Z</time></trkpt><trkpt lat="45.10146222655158" lon="10.052880297829129"><ele>35.0</ele><time>2026-04-18T04:35:56.999Z</time></trkpt><trkpt lat="45.10147068778247" lon="10.05278102588305"><ele>35.0</ele><time>2026-04-18T04:35:57.999Z</time></trkpt><trkpt lat="45.10147974358015" lon="10.05268092958847"><ele>35.0</ele><time>2026-04-18T04:35:58.999Z</time></trkpt><trkpt lat="45.101490020206995" lon="10.052581049942354"><ele>35.0</ele><time>2026-04-18T04:35:59.999Z</time></trkpt><trkpt lat="45.10149817002565" lon="10.052479731342189"><ele>35.142857142857146</ele><time>2026-04-18T04:36:00.999Z</time></trkpt><trkpt lat="45.10150341379546" lon="10.052383050585885"><ele>35.285714285714285</ele><time>2026-04-18T04:36:01.999Z</time></trkpt><trkpt lat="45.101511726898764" lon="10.05228064461659"><ele>35.42857142857143</ele><time>2026-04-18T04:36:02.999Z</time></trkpt><trkpt lat="45.10151720043456" lon="10.052184060583315"><ele>35.57142857142857</ele><time>2026-04-18T04:36:03.999Z</time></trkpt><trkpt lat="45.10152659117634" lon="10.0520838300416"><ele>35.714285714285715</ele><time>2026-04-18T04:36:04.999Z</time></trkpt><trkpt lat="45.101533540458064" lon="10.051983853143227"><ele>35.85714285714286</ele><time>2026-04-18T04:36:05.999Z</time></trkpt><trkpt lat="45.101540079664396" lon="10.051885470081702"><ele>36.0</ele><time>2026-04-18T04:36:06.999Z</time></trkpt><trkpt lat="45.101548186465294" lon="10.051786025318517"><ele>36.00000000000001</ele><time>2026-04-18T04:36:07.999Z</time></trkpt><trkpt lat="45.101555058572465" lon="10.05168869477812"><ele>36.0</ele><time>2026-04-18T04:36:08.999Z</time></trkpt><trkpt lat="45.10156307542772" lon="10.051591612711059"><ele>36.0</ele><time>2026-04-18T04:36:09.999Z</time></trkpt><trkpt lat="45.10157075017579" lon="10.051496534209218"><ele>36.0</ele><time>2026-04-18T04:36:10.999Z</time></trkpt><trkpt lat="45.10157580327754" lon="10.051399507958577"><ele>36.0</ele><time>2026-04-18T04:36:11.999Z</time></trkpt><trkpt lat="45.10157952115792" lon="10.051305979421365"><ele>36.00000000000001</ele><time>2026-04-18T04:36:12.999Z</time></trkpt><trkpt lat="45.10158955985957" lon="10.051213829021865"><ele>36.0</ele><time>2026-04-18T04:36:13.999Z</time></trkpt><trkpt lat="45.10161087028428" lon="10.051126678309128"><ele>36.142857142857146</ele><time>2026-04-18T04:36:14.999Z</time></trkpt><trkpt lat="45.10165697065888" lon="10.051047037881654"><ele>36.285714285714285</ele><time>2026-04-18T04:36:15.999Z</time></trkpt><trkpt lat="45.101716123358614" lon="10.051000473781617"><ele>36.42857142857143</ele><time>2026-04-18T04:36:16.999Z</time></trkpt><trkpt lat="45.10179125457871" lon="10.050996212700854"><ele>36.57142857142857</ele><time>2026-04-18T04:36:17.999Z</time></trkpt><trkpt lat="45.10186496111904" lon="10.051019976889647"><ele>36.714285714285715</ele><time>2026-04-18T04:36:18.999Z</time></trkpt><trkpt lat="45.1019351131752" lon="10.051044531416656"><ele>36.85714285714286</ele><time>2026-04-18T04:36:19.999Z</time></trkpt><trkpt lat="45.10200425509403" lon="10.051059132159658"><ele>37.0</ele><time>2026-04-18T04:36:20.999Z</time></trkpt><trkpt lat="45.10207363301512" lon="10.051067514658039"><ele>37.0</ele><time>2026-04-18T04:36:21.999Z</time></trkpt><trkpt lat="45.102142555255575" lon="10.051071153918471"><ele>37.0</ele><time>2026-04-18T04:36:22.998Z</time></trkpt><trkpt lat="45.10221248568921" lon="10.05108114087488"><ele>37.0</ele><time>2026-04-18T04:36:23.998Z</time></trkpt><trkpt lat="45.102282888494635" lon="10.051090532937666"><ele>37.0</ele><time>2026-04-18T04:36:24.998Z</time></trkpt><trkpt lat="45.10235210950221" lon="10.051099323758546"><ele>37.0</ele><time>2026-04-18T04:36:25.998Z</time></trkpt><trkpt lat="45.102420779491446" lon="10.051103989004512"><ele>37.0</ele><time>2026-04-18T04:36:26.998Z</time></trkpt><trkpt lat="45.10249054546057" lon="10.051111489561462"><ele>37.0</ele><time>2026-04-18T04:36:27.998Z</time></trkpt><trkpt lat="45.10256071118195" lon="10.051119782258551"><ele>36.714285714285715</ele><time>2026-04-18T04:36:28.998Z</time></trkpt><trkpt lat="45.10263054442464" lon="10.051125679823729"><ele>36.42857142857143</ele><time>2026-04-18T04:36:29.998Z</time></trkpt><trkpt lat="45.10269923251882" lon="10.051134505245736"><ele>36.14285714285714</ele><time>2026-04-18T04:36:30.998Z</time></trkpt><trkpt lat="45.102767626776775" lon="10.051142177972984"><ele>35.85714285714286</ele><time>2026-04-18T04:36:31.998Z</time></trkpt><trkpt lat="45.10283879971095" lon="10.051154499544682"><ele>35.57142857142857</ele><time>2026-04-18T04:36:32.998Z</time></trkpt><trkpt lat="45.102909439780426" lon="10.05116293608747"><ele>35.285714285714285</ele><time>2026-04-18T04:36:33.998Z</time></trkpt><trkpt lat="45.10297911914454" lon="10.051173274235802"><ele>35.0</ele><time>2026-04-18T04:36:34.998Z</time></trkpt><trkpt lat="45.103049515697" lon="10.051181582252347"><ele>35.0</ele><time>2026-04-18T04:36:35.998Z</time></trkpt><trkpt lat="45.10312070576129" lon="10.051189548403022"><ele>35.0</ele><time>2026-04-18T04:36:36.998Z</time></trkpt><trkpt lat="45.103192566313" lon="10.051202705883057"><ele>35.0</ele><time>2026-04-18T04:36:37.998Z</time></trkpt><trkpt lat="45.10326411028228" lon="10.051214930041413"><ele>35.0</ele><time>2026-04-18T04:36:38.998Z</time></trkpt><trkpt lat="45.103337186857665" lon="10.051227264396251"><ele>35.0</ele><time>2026-04-18T04:36:39.998Z</time></trkpt><trkpt lat="45.10341030207221" lon="10.051239882821152"><ele>35.0</ele><time>2026-04-18T04:36:40.998Z</time></trkpt><trkpt lat="45.103481638019254" lon="10.051253734418562"><ele>35.0</ele><time>2026-04-18T04:36:41.998Z</time></trkpt><trkpt lat="45.10355171039816" lon="10.05126526224545"><ele>34.857142857142854</ele><time>2026-04-18T04:36:42.998Z</time></trkpt><trkpt lat="45.10362469459728" lon="10.05127988001077"><ele>34.714285714285715</ele><time>2026-04-18T04:36:43.998Z</time></trkpt><trkpt lat="45.103698047330134" lon="10.05129254676103"><ele>34.57142857142857</ele><time>2026-04-18T04:36:44.998Z</time></trkpt><trkpt lat="45.103766164242906" lon="10.051302361833791"><ele>34.42857142857143</ele><time>2026-04-18T04:36:45.998Z</time></trkpt><trkpt lat="45.103839776895285" lon="10.051318872618417"><ele>34.285714285714285</ele><time>2026-04-18T04:36:46.998Z</time></trkpt><trkpt lat="45.10391402604797" lon="10.051329377529791"><ele>34.14285714285714</ele><time>2026-04-18T04:36:47.998Z</time></trkpt><trkpt lat="45.10398378319735" lon="10.051339621940645"><ele>34.0</ele><time>2026-04-18T04:36:48.998Z</time></trkpt><trkpt lat="45.10405253520324" lon="10.05135575673108"><ele>33.857142857142854</ele><time>2026-04-18T04:36:49.998Z</time></trkpt><trkpt lat="45.104120875467295" lon="10.05137083142572"><ele>33.714285714285715</ele><time>2026-04-18T04:36:50.998Z</time></trkpt><trkpt lat="45.10419083778925" lon="10.051379677406523"><ele>33.57142857142857</ele><time>2026-04-18T04:36:51.998Z</time></trkpt><trkpt lat="45.10425968571144" lon="10.051399134979375"><ele>33.42857142857143</ele><time>2026-04-18T04:36:52.998Z</time></trkpt><trkpt lat="45.104327649255595" lon="10.051412163185912"><ele>33.285714285714285</ele><time>2026-04-18T04:36:53.998Z</time></trkpt><trkpt lat="45.104398272240076" lon="10.051428455370802"><ele>33.14285714285714</ele><time>2026-04-18T04:36:54.998Z</time></trkpt><trkpt lat="45.10446822297553" lon="10.051442423924113"><ele>33.0</ele><time>2026-04-18T04:36:55.998Z</time></trkpt><trkpt lat="45.10453800619097" lon="10.051457161081911"><ele>33.0</ele><time>2026-04-18T04:36:56.998Z</time></trkpt><trkpt lat="45.1046091745301" lon="10.051467987257569"><ele>33.0</ele><time>2026-04-18T04:36:57.998Z</time></trkpt><trkpt lat="45.10467941024549" lon="10.05147136393491"><ele>33.0</ele><time>2026-04-18T04:36:58.998Z</time></trkpt><trkpt lat="45.10475442549008" lon="10.051471826839672"><ele>33.0</ele><time>2026-04-18T04:36:59.998Z</time></trkpt><trkpt lat="45.10482138315812" lon="10.051478919209913"><ele>33.0</ele><time>2026-04-18T04:37:00.998Z</time></trkpt><trkpt lat="45.104888331399856" lon="10.051484274500805"><ele>33.0</ele><time>2026-04-18T04:37:01.998Z</time></trkpt><trkpt lat="45.10496128415393" lon="10.05148233267162"><ele>33.0</ele><time>2026-04-18T04:37:02.998Z</time></trkpt><trkpt lat="45.105028359804216" lon="10.051474965539027"><ele>33.0</ele><time>2026-04-18T04:37:03.998Z</time></trkpt><trkpt lat="45.105095893822345" lon="10.051473400216985"><ele>33.0</ele><time>2026-04-18T04:37:04.998Z</time></trkpt><trkpt lat="45.10520350846567" lon="10.051428146300934"><ele>33.0</ele><time>2026-04-18T04:37:06.998Z</time></trkpt><trkpt lat="45.105247964208296" lon="10.051326448486215"><ele>33.0</ele><time>2026-04-18T04:37:08Z</time></trkpt><trkpt lat="45.10525782628569" lon="10.051215446320983"><ele>33.0</ele><time>2026-04-18T04:37:09Z</time></trkpt><trkpt lat="45.10525520658496" lon="10.051106540400598"><ele>33.0</ele><time>2026-04-18T04:37:10Z</time></trkpt><trkpt lat="45.105248954032305" lon="10.051000145803766"><ele>33.0</ele><time>2026-04-18T04:37:11Z</time></trkpt><trkpt lat="45.10524600449258" lon="10.050892558237223"><ele>33.0</ele><time>2026-04-18T04:37:12Z</time></trkpt><trkpt lat="45.10524304194811" lon="10.050786972753444"><ele>33.0</ele><time>2026-04-18T04:37:13Z</time></trkpt><trkpt lat="45.1052406446115" lon="10.050679874929282"><ele>33.0</ele><time>2026-04-18T04:37:14Z</time></trkpt><trkpt lat="45.10523928969272" lon="10.050574678905575"><ele>33.0</ele><time>2026-04-18T04:37:15Z</time></trkpt><trkpt lat="45.10524128345742" lon="10.050471808764545"><ele>33.0</ele><time>2026-04-18T04:37:16Z</time></trkpt><trkpt lat="45.10524135504459" lon="10.050371104835236"><ele>33.0</ele><time>2026-04-18T04:37:17Z</time></trkpt><trkpt lat="45.10524177496684" lon="10.050269701548938"><ele>33.0</ele><time>2026-04-18T04:37:18Z</time></trkpt><trkpt lat="45.10524377612303" lon="10.050168403927279"><ele>33.0</ele><time>2026-04-18T04:37:19Z</time></trkpt><trkpt lat="45.10524424988848" lon="10.050066669939856"><ele>33.0</ele><time>2026-04-18T04:37:20Z</time></trkpt><trkpt lat="45.10524273321439" lon="10.049965588064868"><ele>33.0</ele><time>2026-04-18T04:37:21Z</time></trkpt><trkpt lat="45.10524205092951" lon="10.049864333458025"><ele>33.0</ele><time>2026-04-18T04:37:22Z</time></trkpt><trkpt lat="45.10524047540808" lon="10.049765060743534"><ele>33.0</ele><time>2026-04-18T04:37:23Z</time></trkpt><trkpt lat="45.10523930172448" lon="10.049663471403928"><ele>33.0</ele><time>2026-04-18T04:37:24Z</time></trkpt><trkpt lat="45.10523419205823" lon="10.049563447938803"><ele>33.0</ele><time>2026-04-18T04:37:25Z</time></trkpt><trkpt lat="45.10523042210184" lon="10.04946279924981"><ele>33.0</ele><time>2026-04-18T04:37:26Z</time></trkpt><trkpt lat="45.10522664493738" lon="10.049362136608128"><ele>33.0</ele><time>2026-04-18T04:37:27Z</time></trkpt><trkpt lat="45.10522148023344" lon="10.04926179186055"><ele>33.0</ele><time>2026-04-18T04:37:28Z</time></trkpt><trkpt lat="45.10521841264206" lon="10.049161378544019"><ele>33.0</ele><time>2026-04-18T04:37:29Z</time></trkpt><trkpt lat="45.10521265274806" lon="10.049058985256071"><ele>33.0</ele><time>2026-04-18T04:37:30Z</time></trkpt><trkpt lat="45.10520377503823" lon="10.048959782303715"><ele>33.0</ele><time>2026-04-18T04:37:30.999Z</time></trkpt><trkpt lat="45.1051947474646" lon="10.048859849610565"><ele>33.285714285714285</ele><time>2026-04-18T04:37:31.999Z</time></trkpt><trkpt lat="45.105184535281786" lon="10.048760410972726"><ele>33.57142857142857</ele><time>2026-04-18T04:37:32.999Z</time></trkpt><trkpt lat="45.105175129772704" lon="10.048659642329252"><ele>33.85714285714286</ele><time>2026-04-18T04:37:33.999Z</time></trkpt><trkpt lat="45.10516507996979" lon="10.04856049580037"><ele>34.14285714285714</ele><time>2026-04-18T04:37:34.999Z</time></trkpt><trkpt lat="45.10515613800058" lon="10.04846020526506"><ele>34.42857142857143</ele><time>2026-04-18T04:37:35.999Z</time></trkpt><trkpt lat="45.10514623998157" lon="10.048360333739478"><ele>34.714285714285715</ele><time>2026-04-18T04:37:36.999Z</time></trkpt><trkpt lat="45.105133778886234" lon="10.048259164126549"><ele>35.0</ele><time>2026-04-18T04:37:37.999Z</time></trkpt><trkpt lat="45.10511862050141" lon="10.048162648858186"><ele>35.0</ele><time>2026-04-18T04:37:38.999Z</time></trkpt><trkpt lat="45.1051069422124" lon="10.048063174841321"><ele>35.0</ele><time>2026-04-18T04:37:39.999Z</time></trkpt><trkpt lat="45.105093133104575" lon="10.047966044166774"><ele>35.0</ele><time>2026-04-18T04:37:40.999Z</time></trkpt><trkpt lat="45.10507854531098" lon="10.047869021028067"><ele>35.0</ele><time>2026-04-18T04:37:41.999Z</time></trkpt><trkpt lat="45.10506070968226" lon="10.047773572712986"><ele>35.0</ele><time>2026-04-18T04:37:42.999Z</time></trkpt><trkpt lat="45.105038713660676" lon="10.047681538459074"><ele>35.0</ele><time>2026-04-18T04:37:43.999Z</time></trkpt><trkpt lat="45.10501605453008" lon="10.047590348460702"><ele>35.0</ele><time>2026-04-18T04:37:44.999Z</time></trkpt><trkpt lat="45.10499449231202" lon="10.047502960771642"><ele>34.857142857142854</ele><time>2026-04-18T04:37:45.999Z</time></trkpt><trkpt lat="45.10497306108111" lon="10.047410581732294"><ele>34.714285714285715</ele><time>2026-04-18T04:37:46.999Z</time></trkpt><trkpt lat="45.1049500375132" lon="10.047319996942752"><ele>34.57142857142857</ele><time>2026-04-18T04:37:47.999Z</time></trkpt><trkpt lat="45.104927833768706" lon="10.047228670961168"><ele>34.42857142857143</ele><time>2026-04-18T04:37:48.999Z</time></trkpt><trkpt lat="45.10490713590094" lon="10.047135603624149"><ele>34.285714285714285</ele><time>2026-04-18T04:37:49.999Z</time></trkpt><trkpt lat="45.10488607525126" lon="10.047040959853312"><ele>34.14285714285714</ele><time>2026-04-18T04:37:50.999Z</time></trkpt><trkpt lat="45.104864783308145" lon="10.046947121239773"><ele>34.0</ele><time>2026-04-18T04:37:51.999Z</time></trkpt><trkpt lat="45.104843874562754" lon="10.046851858616865"><ele>33.857142857142854</ele><time>2026-04-18T04:37:52.999Z</time></trkpt><trkpt lat="45.10482083970635" lon="10.046758072368279"><ele>33.714285714285715</ele><time>2026-04-18T04:37:53.999Z</time></trkpt><trkpt lat="45.10479750502767" lon="10.046664125860865"><ele>33.57142857142857</ele><time>2026-04-18T04:37:54.999Z</time></trkpt><trkpt lat="45.10477480903326" lon="10.046568819299472"><ele>33.42857142857143</ele><time>2026-04-18T04:37:55.999Z</time></trkpt><trkpt lat="45.1047542055125" lon="10.046472186354947"><ele>33.285714285714285</ele><time>2026-04-18T04:37:56.999Z</time></trkpt><trkpt lat="45.104733775233264" lon="10.046376344532884"><ele>33.14285714285714</ele><time>2026-04-18T04:37:57.999Z</time></trkpt><trkpt lat="45.10471209507505" lon="10.046279308176976"><ele>33.0</ele><time>2026-04-18T04:37:58.999Z</time></trkpt><trkpt lat="45.104689581376164" lon="10.046183950406235"><ele>33.0</ele><time>2026-04-18T04:37:59.999Z</time></trkpt><trkpt lat="45.10466724235554" lon="10.04608820318201"><ele>33.0</ele><time>2026-04-18T04:38:00.999Z</time></trkpt><trkpt lat="45.10464527542165" lon="10.045992917704904"><ele>33.0</ele><time>2026-04-18T04:38:01.999Z</time></trkpt><trkpt lat="45.104621591472984" lon="10.045899699243066"><ele>33.0</ele><time>2026-04-18T04:38:02.999Z</time></trkpt><trkpt lat="45.104599784998534" lon="10.045804232848333"><ele>33.0</ele><time>2026-04-18T04:38:03.999Z</time></trkpt><trkpt lat="45.1045775281482" lon="10.045709571699705"><ele>33.0</ele><time>2026-04-18T04:38:04.999Z</time></trkpt><trkpt lat="45.10455733743231" lon="10.045615942317793"><ele>33.0</ele><time>2026-04-18T04:38:05.999Z</time></trkpt><trkpt lat="45.10453607894264" lon="10.04552033707062"><ele>33.285714285714285</ele><time>2026-04-18T04:38:06.999Z</time></trkpt><trkpt lat="45.10451483842822" lon="10.04542907658563"><ele>33.57142857142857</ele><time>2026-04-18T04:38:07.999Z</time></trkpt><trkpt lat="45.10449493677366" lon="10.045335591817723"><ele>33.85714285714286</ele><time>2026-04-18T04:38:08.999Z</time></trkpt><trkpt lat="45.10447509261138" lon="10.045243720748575"><ele>34.14285714285714</ele><time>2026-04-18T04:38:09.999Z</time></trkpt><trkpt lat="45.104454537641345" lon="10.045150776701664"><ele>34.42857142857143</ele><time>2026-04-18T04:38:10.999Z</time></trkpt><trkpt lat="45.10443360489204" lon="10.045060227484662"><ele>34.714285714285715</ele><time>2026-04-18T04:38:11.999Z</time></trkpt><trkpt lat="45.10441227448466" lon="10.044969962729354"><ele>35.0</ele><time>2026-04-18T04:38:12.999Z</time></trkpt><trkpt lat="45.104391805713625" lon="10.044881530921222"><ele>35.142857142857146</ele><time>2026-04-18T04:38:13.999Z</time></trkpt><trkpt lat="45.10437341129286" lon="10.044789989896548"><ele>35.285714285714285</ele><time>2026-04-18T04:38:14.999Z</time></trkpt><trkpt lat="45.10435352893559" lon="10.044700600708714"><ele>35.42857142857143</ele><time>2026-04-18T04:38:15.999Z</time></trkpt><trkpt lat="45.10433591110778" lon="10.044612111306327"><ele>35.57142857142857</ele><time>2026-04-18T04:38:16.999Z</time></trkpt><trkpt lat="45.10431568863307" lon="10.044524168785875"><ele>35.714285714285715</ele><time>2026-04-18T04:38:17.999Z</time></trkpt><trkpt lat="45.10429442639541" lon="10.044435326775014"><ele>35.85714285714286</ele><time>2026-04-18T04:38:18.999Z</time></trkpt><trkpt lat="45.10427368238798" lon="10.04434828887247"><ele>36.0</ele><time>2026-04-18T04:38:19.999Z</time></trkpt><trkpt lat="45.10424931721892" lon="10.044261250261883"><ele>36.00000000000001</ele><time>2026-04-18T04:38:20.999Z</time></trkpt><trkpt lat="45.104224300763825" lon="10.044176224145971"><ele>36.0</ele><time>2026-04-18T04:38:21.999Z</time></trkpt><trkpt lat="45.1041966416938" lon="10.04409357106955"><ele>36.0</ele><time>2026-04-18T04:38:22.999Z</time></trkpt><trkpt lat="45.10416812877821" lon="10.044013564327246"><ele>36.0</ele><time>2026-04-18T04:38:23.999Z</time></trkpt><trkpt lat="45.10414325234476" lon="10.043927298114983"><ele>36.0</ele><time>2026-04-18T04:38:24.999Z</time></trkpt><trkpt lat="45.10411706592905" lon="10.043842976909493"><ele>36.00000000000001</ele><time>2026-04-18T04:38:25.998Z</time></trkpt><trkpt lat="45.10408561693673" lon="10.043761180239253"><ele>36.0</ele><time>2026-04-18T04:38:26.998Z</time></trkpt><trkpt lat="45.1040547853672" lon="10.04367913495623"><ele>36.0</ele><time>2026-04-18T04:38:27.998Z</time></trkpt><trkpt lat="45.10398768120775" lon="10.043532395479064"><ele>36.0</ele><time>2026-04-18T04:38:29.998Z</time></trkpt><trkpt lat="45.10393679463281" lon="10.043384877775175"><ele>36.0</ele><time>2026-04-18T04:38:31.998Z</time></trkpt><trkpt lat="45.10396881742836" lon="10.043224178366533"><ele>36.0</ele><time>2026-04-18T04:38:33.998Z</time></trkpt><trkpt lat="45.104055106794085" lon="10.04310751550883"><ele>36.166666666666664</ele><time>2026-04-18T04:38:35.998Z</time></trkpt><trkpt lat="45.10412833079512" lon="10.042988632895149"><ele>36.333333333333336</ele><time>2026-04-18T04:38:37.998Z</time></trkpt><trkpt lat="45.10416850183729" lon="10.04291981124603"><ele>36.5</ele><time>2026-04-18T04:38:38.998Z</time></trkpt><trkpt lat="45.10420797281829" lon="10.042849972128359"><ele>36.66666666666667</ele><time>2026-04-18T04:38:39.998Z</time></trkpt><trkpt lat="45.10424624463904" lon="10.042778147107363"><ele>36.833333333333336</ele><time>2026-04-18T04:38:40.998Z</time></trkpt><trkpt lat="45.10428774846419" lon="10.042707199785404"><ele>37.0</ele><time>2026-04-18T04:38:41.998Z</time></trkpt><trkpt lat="45.10436365075942" lon="10.042578741774552"><ele>37.0</ele><time>2026-04-18T04:38:43.998Z</time></trkpt><trkpt lat="45.104444004965316" lon="10.042449134082759"><ele>37.0</ele><time>2026-04-18T04:38:45.998Z</time></trkpt><trkpt lat="45.10448792566275" lon="10.04237948143854"><ele>37.0</ele><time>2026-04-18T04:38:46.998Z</time></trkpt><trkpt lat="45.10453183757611" lon="10.042303300799373"><ele>37.0</ele><time>2026-04-18T04:38:47.998Z</time></trkpt><trkpt lat="45.10457400348484" lon="10.042226493256516"><ele>37.0</ele><time>2026-04-18T04:38:48.998Z</time></trkpt><trkpt lat="45.104616293271675" lon="10.042148881153604"><ele>37.0</ele><time>2026-04-18T04:38:49.998Z</time></trkpt><trkpt lat="45.10465871090018" lon="10.042073998998388"><ele>37.0</ele><time>2026-04-18T04:38:50.998Z</time></trkpt><trkpt lat="45.10470256525497" lon="10.041997856698455"><ele>37.0</ele><time>2026-04-18T04:38:51.998Z</time></trkpt><trkpt lat="45.10474448976184" lon="10.041922852415594"><ele>37.0</ele><time>2026-04-18T04:38:52.998Z</time></trkpt><trkpt lat="45.104788263151285" lon="10.041848004166727"><ele>37.0</ele><time>2026-04-18T04:38:53.998Z</time></trkpt><trkpt lat="45.104830376414995" lon="10.04177380500089"><ele>37.0</ele><time>2026-04-18T04:38:54.998Z</time></trkpt><trkpt lat="45.10487172923543" lon="10.041700031582083"><ele>37.0</ele><time>2026-04-18T04:38:55.998Z</time></trkpt><trkpt lat="45.10491414379874" lon="10.041629180235299"><ele>37.0</ele><time>2026-04-18T04:38:56.998Z</time></trkpt><trkpt lat="45.104995134432336" lon="10.041502513528803"><ele>37.2</ele><time>2026-04-18T04:38:58.998Z</time></trkpt><trkpt lat="45.105059281111174" lon="10.041375809540188"><ele>37.400000000000006</ele><time>2026-04-18T04:39:00.998Z</time></trkpt><trkpt lat="45.10513789116763" lon="10.041238943767475"><ele>37.599999999999994</ele><time>2026-04-18T04:39:02.998Z</time></trkpt><trkpt lat="45.105181985326674" lon="10.04117344632146"><ele>37.8</ele><time>2026-04-18T04:39:03.998Z</time></trkpt><trkpt lat="45.10523800477423" lon="10.041057510678339"><ele>38.0</ele><time>2026-04-18T04:39:05.998Z</time></trkpt><trkpt lat="45.10511586711973" lon="10.040936735823491"><ele>38.0</ele><time>2026-04-18T04:39:07.998Z</time></trkpt><trkpt lat="45.104996798141705" lon="10.04089882152603"><ele>38.0</ele><time>2026-04-18T04:39:09.998Z</time></trkpt><trkpt lat="45.104877610787355" lon="10.040861122604495"><ele>38.0</ele><time>2026-04-18T04:39:11.998Z</time></trkpt><trkpt lat="45.10475425412983" lon="10.04081776163673"><ele>38.0</ele><time>2026-04-18T04:39:14Z</time></trkpt><trkpt lat="45.104690792530775" lon="10.040784222310787"><ele>38.0</ele><time>2026-04-18T04:39:15Z</time></trkpt><trkpt lat="45.1046219989956" lon="10.040756157148287"><ele>38.166666666666664</ele><time>2026-04-18T04:39:16Z</time></trkpt><trkpt lat="45.10450106424153" lon="10.04072226125147"><ele>38.33333333333333</ele><time>2026-04-18T04:39:18Z</time></trkpt><trkpt lat="45.10443932919764" lon="10.040702500316305"><ele>38.5</ele><time>2026-04-18T04:39:19Z</time></trkpt><trkpt lat="45.10437612563557" lon="10.04067811457744"><ele>38.666666666666664</ele><time>2026-04-18T04:39:20Z</time></trkpt><trkpt lat="45.1043101396402" lon="10.040657089434594"><ele>38.833333333333336</ele><time>2026-04-18T04:39:21Z</time></trkpt><trkpt lat="45.104244034089554" lon="10.040637584209048"><ele>39.0</ele><time>2026-04-18T04:39:22Z</time></trkpt><trkpt lat="45.10418139010651" lon="10.04060705533057"><ele>39.0</ele><time>2026-04-18T04:39:23Z</time></trkpt><trkpt lat="45.10411795342067" lon="10.040577000101203"><ele>39.0</ele><time>2026-04-18T04:39:24Z</time></trkpt><trkpt lat="45.104053808779014" lon="10.040557087183846"><ele>39.0</ele><time>2026-04-18T04:39:25Z</time></trkpt><trkpt lat="45.10398720211032" lon="10.040538136391916"><ele>39.0</ele><time>2026-04-18T04:39:26Z</time></trkpt><trkpt lat="45.10392190220537" lon="10.040512882237891"><ele>39.0</ele><time>2026-04-18T04:39:27Z</time></trkpt><trkpt lat="45.103855302250444" lon="10.040487704855785"><ele>39.0</ele><time>2026-04-18T04:39:28Z</time></trkpt><trkpt lat="45.103787656288844" lon="10.040462010934933"><ele>39.0</ele><time>2026-04-18T04:39:29Z</time></trkpt><trkpt lat="45.103721697141204" lon="10.040436087872363"><ele>38.714285714285715</ele><time>2026-04-18T04:39:30Z</time></trkpt><trkpt lat="45.10365436129713" lon="10.040408386768945"><ele>38.42857142857142</ele><time>2026-04-18T04:39:31Z</time></trkpt><trkpt lat="45.10358481029403" lon="10.040385851959039"><ele>38.14285714285714</ele><time>2026-04-18T04:39:32Z</time></trkpt><trkpt lat="45.10351552795521" lon="10.040365072949548"><ele>37.85714285714286</ele><time>2026-04-18T04:39:33Z</time></trkpt><trkpt lat="45.10344667867889" lon="10.040343389032602"><ele>37.57142857142857</ele><time>2026-04-18T04:39:33.999Z</time></trkpt><trkpt lat="45.10337889124693" lon="10.040321199192222"><ele>37.285714285714285</ele><time>2026-04-18T04:39:34.999Z</time></trkpt><trkpt lat="45.103310068402145" lon="10.040295240989513"><ele>37.0</ele><time>2026-04-18T04:39:35.999Z</time></trkpt><trkpt lat="45.10324425048979" lon="10.040268766132593"><ele>36.714285714285715</ele><time>2026-04-18T04:39:36.999Z</time></trkpt><trkpt lat="45.10318024791721" lon="10.040240404086445"><ele>36.42857142857143</ele><time>2026-04-18T04:39:37.999Z</time></trkpt><trkpt lat="45.103113340773426" lon="10.040213141521312"><ele>36.14285714285714</ele><time>2026-04-18T04:39:38.999Z</time></trkpt><trkpt lat="45.10304765666152" lon="10.040190334042457"><ele>35.85714285714286</ele><time>2026-04-18T04:39:39.999Z</time></trkpt><trkpt lat="45.10298140830288" lon="10.040161275348064"><ele>35.57142857142857</ele><time>2026-04-18T04:39:40.999Z</time></trkpt><trkpt lat="45.10291466609115" lon="10.040140259250727"><ele>35.285714285714285</ele><time>2026-04-18T04:39:41.999Z</time></trkpt><trkpt lat="45.102846473370455" lon="10.040115473246747"><ele>35.0</ele><time>2026-04-18T04:39:42.999Z</time></trkpt><trkpt lat="45.102778851284164" lon="10.040090486143567"><ele>35.0</ele><time>2026-04-18T04:39:43.999Z</time></trkpt><trkpt lat="45.102713560695776" lon="10.040059576538733"><ele>35.0</ele><time>2026-04-18T04:39:44.999Z</time></trkpt><trkpt lat="45.10264798610106" lon="10.040028616690144"><ele>35.0</ele><time>2026-04-18T04:39:45.999Z</time></trkpt><trkpt lat="45.10258170018178" lon="10.039998164961963"><ele>35.0</ele><time>2026-04-18T04:39:46.999Z</time></trkpt><trkpt lat="45.10251548534426" lon="10.039967306683003"><ele>35.0</ele><time>2026-04-18T04:39:47.999Z</time></trkpt><trkpt lat="45.102451174126806" lon="10.039934974907395"><ele>35.0</ele><time>2026-04-18T04:39:48.999Z</time></trkpt><trkpt lat="45.10238727209587" lon="10.03990314822633"><ele>35.0</ele><time>2026-04-18T04:39:49.999Z</time></trkpt><trkpt lat="45.10232082138085" lon="10.03987198343827"><ele>35.2</ele><time>2026-04-18T04:39:50.999Z</time></trkpt><trkpt lat="45.102254876851084" lon="10.039845245642976"><ele>35.4</ele><time>2026-04-18T04:39:51.999Z</time></trkpt><trkpt lat="45.10218949868034" lon="10.039814607323546"><ele>35.6</ele><time>2026-04-18T04:39:52.999Z</time></trkpt><trkpt lat="45.10206519470398" lon="10.039754761363117"><ele>35.8</ele><time>2026-04-18T04:39:54.999Z</time></trkpt><trkpt lat="45.10199413754102" lon="10.039723577373532"><ele>36.0</ele><time>2026-04-18T04:39:55.999Z</time></trkpt><trkpt lat="45.101875976684575" lon="10.03966281680666"><ele>36.0</ele><time>2026-04-18T04:39:57.999Z</time></trkpt><trkpt lat="45.10181548439529" lon="10.039621037241314"><ele>36.0</ele><time>2026-04-18T04:39:58.999Z</time></trkpt><trkpt lat="45.10175712127263" lon="10.0395758508592"><ele>36.0</ele><time>2026-04-18T04:39:59.999Z</time></trkpt><trkpt lat="45.101697014543326" lon="10.03953187209938"><ele>36.0</ele><time>2026-04-18T04:40:00.999Z</time></trkpt><trkpt lat="45.10162938383155" lon="10.039498024587985"><ele>36.0</ele><time>2026-04-18T04:40:01.999Z</time></trkpt><trkpt lat="45.10150951537422" lon="10.039430990632331"><ele>36.0</ele><time>2026-04-18T04:40:03.999Z</time></trkpt><trkpt lat="45.10145151741231" lon="10.039391822979905"><ele>36.166666666666664</ele><time>2026-04-18T04:40:04.999Z</time></trkpt><trkpt lat="45.10133844603079" lon="10.039308407288576"><ele>36.333333333333336</ele><time>2026-04-18T04:40:06.999Z</time></trkpt><trkpt lat="45.10128009685205" lon="10.0392657273962"><ele>36.5</ele><time>2026-04-18T04:40:07.999Z</time></trkpt><trkpt lat="45.101216239862" lon="10.039239339453694"><ele>36.66666666666667</ele><time>2026-04-18T04:40:08.999Z</time></trkpt><trkpt lat="45.10115749763081" lon="10.03919956332555"><ele>36.833333333333336</ele><time>2026-04-18T04:40:09.999Z</time></trkpt><trkpt lat="45.101097283904274" lon="10.039167958266995"><ele>37.0</ele><time>2026-04-18T04:40:10.999Z</time></trkpt><trkpt lat="45.10103832140577" lon="10.039133213985103"><ele>37.0</ele><time>2026-04-18T04:40:11.999Z</time></trkpt><trkpt lat="45.100916041905414" lon="10.039063649857646"><ele>37.0</ele><time>2026-04-18T04:40:13.999Z</time></trkpt><trkpt lat="45.10080026503736" lon="10.038980052375024"><ele>37.0</ele><time>2026-04-18T04:40:15.999Z</time></trkpt><trkpt lat="45.10068552050325" lon="10.038900890688502"><ele>37.0</ele><time>2026-04-18T04:40:17.999Z</time></trkpt><trkpt lat="45.10062562378796" lon="10.038862340818037"><ele>37.2</ele><time>2026-04-18T04:40:18.999Z</time></trkpt><trkpt lat="45.10050442477339" lon="10.038796335384408"><ele>37.400000000000006</ele><time>2026-04-18T04:40:20.999Z</time></trkpt><trkpt lat="45.10044693628234" lon="10.038756192681324"><ele>37.599999999999994</ele><time>2026-04-18T04:40:21.999Z</time></trkpt><trkpt lat="45.10033583230198" lon="10.038684515648114"><ele>37.8</ele><time>2026-04-18T04:40:23.999Z</time></trkpt><trkpt lat="45.10023279598624" lon="10.038603874196143"><ele>38.0</ele><time>2026-04-18T04:40:25.999Z</time></trkpt><trkpt lat="45.100178367872964" lon="10.03855846211374"><ele>38.0</ele><time>2026-04-18T04:40:26.999Z</time></trkpt><trkpt lat="45.10005487734695" lon="10.038492283790724"><ele>38.0</ele><time>2026-04-18T04:40:28.998Z</time></trkpt><trkpt lat="45.10000421657677" lon="10.038429548113607"><ele>38.0</ele><time>2026-04-18T04:40:29.998Z</time></trkpt><trkpt lat="45.099945997837224" lon="10.038382529939698"><ele>38.0</ele><time>2026-04-18T04:40:30.998Z</time></trkpt><trkpt lat="45.09989068668534" lon="10.038330401354388"><ele>38.0</ele><time>2026-04-18T04:40:31.998Z</time></trkpt><trkpt lat="45.0998346903563" lon="10.03828134101767"><ele>38.0</ele><time>2026-04-18T04:40:32.998Z</time></trkpt><trkpt lat="45.099780009857085" lon="10.038232910391734"><ele>37.714285714285715</ele><time>2026-04-18T04:40:33.998Z</time></trkpt><trkpt lat="45.099723958904434" lon="10.038184300794349"><ele>37.42857142857143</ele><time>2026-04-18T04:40:34.998Z</time></trkpt><trkpt lat="45.09966677886578" lon="10.03814204696225"><ele>37.142857142857146</ele><time>2026-04-18T04:40:35.998Z</time></trkpt><trkpt lat="45.09960626653716" lon="10.038089476055264"><ele>36.85714285714286</ele><time>2026-04-18T04:40:36.998Z</time></trkpt><trkpt lat="45.09954985120499" lon="10.038038324413753"><ele>36.57142857142857</ele><time>2026-04-18T04:40:37.998Z</time></trkpt><trkpt lat="45.09949805114051" lon="10.037986395333665"><ele>36.28571428571429</ele><time>2026-04-18T04:40:38.998Z</time></trkpt><trkpt lat="45.09943927853687" lon="10.037938002272742"><ele>36.0</ele><time>2026-04-18T04:40:39.998Z</time></trkpt><trkpt lat="45.09938201845298" lon="10.03789035027726"><ele>36.00000000000001</ele><time>2026-04-18T04:40:40.998Z</time></trkpt><trkpt lat="45.09932498989808" lon="10.037839282435753"><ele>36.0</ele><time>2026-04-18T04:40:41.998Z</time></trkpt><trkpt lat="45.09926890096791" lon="10.037789244676533"><ele>36.0</ele><time>2026-04-18T04:40:42.998Z</time></trkpt><trkpt lat="45.09921154517885" lon="10.03774017682939"><ele>36.0</ele><time>2026-04-18T04:40:43.998Z</time></trkpt><trkpt lat="45.099157910971414" lon="10.037686397096083"><ele>36.0</ele><time>2026-04-18T04:40:44.998Z</time></trkpt><trkpt lat="45.09910747473261" lon="10.037627959735701"><ele>36.00000000000001</ele><time>2026-04-18T04:40:45.998Z</time></trkpt><trkpt lat="45.0990555265958" lon="10.037569391566217"><ele>36.0</ele><time>2026-04-18T04:40:46.998Z</time></trkpt><trkpt lat="45.09900248992877" lon="10.037507350746353"><ele>35.714285714285715</ele><time>2026-04-18T04:40:47.998Z</time></trkpt><trkpt lat="45.09895332082581" lon="10.037447856269093"><ele>35.42857142857143</ele><time>2026-04-18T04:40:48.998Z</time></trkpt><trkpt lat="45.09889986574649" lon="10.037386717617684"><ele>35.14285714285714</ele><time>2026-04-18T04:40:49.998Z</time></trkpt><trkpt lat="45.098847961947634" lon="10.037322869004038"><ele>34.85714285714286</ele><time>2026-04-18T04:40:50.998Z</time></trkpt><trkpt lat="45.098794275000955" lon="10.037265877884936"><ele>34.57142857142857</ele><time>2026-04-18T04:40:51.998Z</time></trkpt><trkpt lat="45.09874249769276" lon="10.037199573920947"><ele>34.285714285714285</ele><time>2026-04-18T04:40:52.998Z</time></trkpt><trkpt lat="45.098693579768465" lon="10.03713919668483"><ele>34.0</ele><time>2026-04-18T04:40:53.998Z</time></trkpt><trkpt lat="45.09864052269681" lon="10.03707763126753"><ele>33.99999999999999</ele><time>2026-04-18T04:40:54.998Z</time></trkpt><trkpt lat="45.09858495512037" lon="10.037017259169307"><ele>34.0</ele><time>2026-04-18T04:40:55.998Z</time></trkpt><trkpt lat="45.0985315800223" lon="10.036954981651856"><ele>34.0</ele><time>2026-04-18T04:40:56.998Z</time></trkpt><trkpt lat="45.09847802275247" lon="10.036894807815779"><ele>34.0</ele><time>2026-04-18T04:40:57.998Z</time></trkpt><trkpt lat="45.09842519158358" lon="10.036833002688402"><ele>34.0</ele><time>2026-04-18T04:40:58.998Z</time></trkpt><trkpt lat="45.0983703503662" lon="10.036776091697233"><ele>33.99999999999999</ele><time>2026-04-18T04:40:59.998Z</time></trkpt><trkpt lat="45.0983149118818" lon="10.036724080364792"><ele>34.0</ele><time>2026-04-18T04:41:00.998Z</time></trkpt><trkpt lat="45.09825883442961" lon="10.036673121690889"><ele>34.8</ele><time>2026-04-18T04:41:01.998Z</time></trkpt><trkpt lat="45.09814238705718" lon="10.036598716456316"><ele>35.599999999999994</ele><time>2026-04-18T04:41:03.998Z</time></trkpt><trkpt lat="45.09802298994936" lon="10.036543273867725"><ele>36.4</ele><time>2026-04-18T04:41:05.998Z</time></trkpt><trkpt lat="45.09790880147296" lon="10.03646986531879"><ele>37.199999999999996</ele><time>2026-04-18T04:41:07.998Z</time></trkpt><trkpt lat="45.09785455673204" lon="10.036422025137464"><ele>38.0</ele><time>2026-04-18T04:41:08.998Z</time></trkpt><trkpt lat="45.09775102978357" lon="10.036321033459798"><ele>38.0</ele><time>2026-04-18T04:41:10.998Z</time></trkpt><trkpt lat="45.09770280224291" lon="10.036261235722407"><ele>38.0</ele><time>2026-04-18T04:41:11.998Z</time></trkpt><trkpt lat="45.09765195276469" lon="10.036193456763899"><ele>38.0</ele><time>2026-04-18T04:41:12.998Z</time></trkpt><trkpt lat="45.09760657075817" lon="10.036130997212588"><ele>38.0</ele><time>2026-04-18T04:41:13.998Z</time></trkpt><trkpt lat="45.09755924101251" lon="10.036064985846531"><ele>38.0</ele><time>2026-04-18T04:41:14.998Z</time></trkpt><trkpt lat="45.097473707331076" lon="10.035931837463545"><ele>38.0</ele><time>2026-04-18T04:41:16.998Z</time></trkpt><trkpt lat="45.09742920194192" lon="10.035864544276647"><ele>37.5</ele><time>2026-04-18T04:41:17.998Z</time></trkpt><trkpt lat="45.09738674828715" lon="10.035796695081766"><ele>37.0</ele><time>2026-04-18T04:41:19Z</time></trkpt><trkpt lat="45.09734412874757" lon="10.035722271939992"><ele>36.5</ele><time>2026-04-18T04:41:20Z</time></trkpt><trkpt lat="45.09730426110855" lon="10.035650433874206"><ele>36.0</ele><time>2026-04-18T04:41:21Z</time></trkpt><trkpt lat="45.09726623836187" lon="10.035575423201031"><ele>35.5</ele><time>2026-04-18T04:41:22Z</time></trkpt><trkpt lat="45.09719753031853" lon="10.035427055020246"><ele>35.0</ele><time>2026-04-18T04:41:24Z</time></trkpt><trkpt lat="45.097132932499974" lon="10.035284186785344"><ele>35.0</ele><time>2026-04-18T04:41:26Z</time></trkpt><trkpt lat="45.09707583470236" lon="10.035156205337724"><ele>35.0</ele><time>2026-04-18T04:41:28Z</time></trkpt><trkpt lat="45.09707131804058" lon="10.035047108410074"><ele>35.0</ele><time>2026-04-18T04:41:30Z</time></trkpt><trkpt lat="45.09711651988927" lon="10.034971316184887"><ele>35.0</ele><time>2026-04-18T04:41:32Z</time></trkpt><trkpt lat="45.09721728553708" lon="10.034952555202793"><ele>35.0</ele><time>2026-04-18T04:41:34Z</time></trkpt><trkpt lat="45.097315368408445" lon="10.03493357863181"><ele>35.2</ele><time>2026-04-18T04:41:35.999Z</time></trkpt><trkpt lat="45.09738338592981" lon="10.03494102962425"><ele>35.4</ele><time>2026-04-18T04:41:36.999Z</time></trkpt><trkpt lat="45.097508224898" lon="10.034925553702696"><ele>35.6</ele><time>2026-04-18T04:41:38.999Z</time></trkpt><trkpt lat="45.09757855656675" lon="10.034923545943974"><ele>35.8</ele><time>2026-04-18T04:41:39.999Z</time></trkpt><trkpt lat="45.09770443767058" lon="10.034908130747056"><ele>36.0</ele><time>2026-04-18T04:41:41.999Z</time></trkpt><trkpt lat="45.09777122935755" lon="10.034901803700714"><ele>36.00000000000001</ele><time>2026-04-18T04:41:42.999Z</time></trkpt><trkpt lat="45.097834504953056" lon="10.03489830362616"><ele>36.0</ele><time>2026-04-18T04:41:43.999Z</time></trkpt><trkpt lat="45.09789896134412" lon="10.034894520398598"><ele>36.0</ele><time>2026-04-18T04:41:44.999Z</time></trkpt><trkpt lat="45.09802227755342" lon="10.03488036448153"><ele>36.0</ele><time>2026-04-18T04:41:46.999Z</time></trkpt><trkpt lat="45.09808611827987" lon="10.034874348707318"><ele>36.0</ele><time>2026-04-18T04:41:47.999Z</time></trkpt><trkpt lat="45.098149067205355" lon="10.034865036266089"><ele>36.00000000000001</ele><time>2026-04-18T04:41:48.999Z</time></trkpt><trkpt lat="45.098217755019945" lon="10.034858240756703"><ele>36.0</ele><time>2026-04-18T04:41:49.999Z</time></trkpt><trkpt lat="45.09828365566931" lon="10.034848055545472"><ele>35.57142857142858</ele><time>2026-04-18T04:41:50.999Z</time></trkpt><trkpt lat="45.09834613619017" lon="10.03483617243198"><ele>35.142857142857146</ele><time>2026-04-18T04:41:51.999Z</time></trkpt><trkpt lat="45.098410476908114" lon="10.034824804704083"><ele>34.714285714285715</ele><time>2026-04-18T04:41:52.999Z</time></trkpt><trkpt lat="45.09847496022861" lon="10.034812588704748"><ele>34.28571428571429</ele><time>2026-04-18T04:41:53.999Z</time></trkpt><trkpt lat="45.0985384849963" lon="10.034802892165423"><ele>33.85714285714286</ele><time>2026-04-18T04:41:54.999Z</time></trkpt><trkpt lat="45.09860275210726" lon="10.034793827454905"><ele>33.42857142857143</ele><time>2026-04-18T04:41:55.999Z</time></trkpt><trkpt lat="45.09866577529482" lon="10.034782104801833"><ele>33.0</ele><time>2026-04-18T04:41:56.999Z</time></trkpt><trkpt lat="45.09873052389596" lon="10.034772289127707"><ele>33.0</ele><time>2026-04-18T04:41:57.999Z</time></trkpt><trkpt lat="45.09879395475402" lon="10.034762627135427"><ele>33.0</ele><time>2026-04-18T04:41:58.999Z</time></trkpt><trkpt lat="45.098857012698666" lon="10.0347538002409"><ele>33.0</ele><time>2026-04-18T04:41:59.999Z</time></trkpt><trkpt lat="45.098980223262714" lon="10.034733400843791"><ele>33.0</ele><time>2026-04-18T04:42:01.999Z</time></trkpt><trkpt lat="45.09904298776851" lon="10.034722830433726"><ele>33.0</ele><time>2026-04-18T04:42:02.999Z</time></trkpt><trkpt lat="45.09910591303362" lon="10.034715671962488"><ele>33.0</ele><time>2026-04-18T04:42:03.999Z</time></trkpt><trkpt lat="45.09923126109802" lon="10.034701129197833"><ele>32.714285714285715</ele><time>2026-04-18T04:42:05.999Z</time></trkpt><trkpt lat="45.09935521458449" lon="10.034678692197408"><ele>32.42857142857143</ele><time>2026-04-18T04:42:07.999Z</time></trkpt><trkpt lat="45.099418802989476" lon="10.034673569485912"><ele>32.142857142857146</ele><time>2026-04-18T04:42:08.999Z</time></trkpt><trkpt lat="45.099482375778145" lon="10.034667979831957"><ele>31.857142857142858</ele><time>2026-04-18T04:42:09.999Z</time></trkpt><trkpt lat="45.09954498179185" lon="10.034657446031483"><ele>31.571428571428577</ele><time>2026-04-18T04:42:10.999Z</time></trkpt><trkpt lat="45.099607834318654" lon="10.034644992206625"><ele>31.28571428571429</ele><time>2026-04-18T04:42:11.999Z</time></trkpt><trkpt lat="45.09967488797052" lon="10.034632806372514"><ele>31.0</ele><time>2026-04-18T04:42:12.999Z</time></trkpt><trkpt lat="45.09974446959223" lon="10.034621573442639"><ele>31.0</ele><time>2026-04-18T04:42:13.999Z</time></trkpt><trkpt lat="45.09980912571493" lon="10.034593959013844"><ele>31.0</ele><time>2026-04-18T04:42:14.999Z</time></trkpt><trkpt lat="45.099924689839675" lon="10.03451511059359"><ele>31.0</ele><time>2026-04-18T04:42:16.999Z</time></trkpt><trkpt lat="45.09998419888562" lon="10.03448093064318"><ele>31.0</ele><time>2026-04-18T04:42:17.999Z</time></trkpt><trkpt lat="45.10004406473234" lon="10.034440569282875"><ele>31.0</ele><time>2026-04-18T04:42:18.999Z</time></trkpt><trkpt lat="45.10016238288578" lon="10.03436248340397"><ele>31.28571428571429</ele><time>2026-04-18T04:42:20.999Z</time></trkpt><trkpt lat="45.100222252627" lon="10.034324412966207"><ele>31.571428571428577</ele><time>2026-04-18T04:42:21.999Z</time></trkpt><trkpt lat="45.1002829612804" lon="10.034288256349559"><ele>31.857142857142858</ele><time>2026-04-18T04:42:22.999Z</time></trkpt><trkpt lat="45.100343976230555" lon="10.034249583861437"><ele>32.142857142857146</ele><time>2026-04-18T04:42:23.999Z</time></trkpt><trkpt lat="45.1004058740272" lon="10.0342104784955"><ele>32.42857142857143</ele><time>2026-04-18T04:42:24.999Z</time></trkpt><trkpt lat="45.10046609884834" lon="10.034171656872257"><ele>32.714285714285715</ele><time>2026-04-18T04:42:25.999Z</time></trkpt><trkpt lat="45.100527707453246" lon="10.034132504651476"><ele>33.0</ele><time>2026-04-18T04:42:26.999Z</time></trkpt><trkpt lat="45.10059165995912" lon="10.034092550385786"><ele>33.0</ele><time>2026-04-18T04:42:27.999Z</time></trkpt><trkpt lat="45.10070243972202" lon="10.034026768709905"><ele>33.0</ele><time>2026-04-18T04:42:29.999Z</time></trkpt><trkpt lat="45.10076130187649" lon="10.033985178527304"><ele>33.0</ele><time>2026-04-18T04:42:30.999Z</time></trkpt><trkpt lat="45.100822946357155" lon="10.03394672672941"><ele>33.0</ele><time>2026-04-18T04:42:31.998Z</time></trkpt><trkpt lat="45.100887378086064" lon="10.033905339508552"><ele>33.0</ele><time>2026-04-18T04:42:32.998Z</time></trkpt><trkpt lat="45.10094543022898" lon="10.033866333146625"><ele>33.0</ele><time>2026-04-18T04:42:33.998Z</time></trkpt><trkpt lat="45.10100820341267" lon="10.033829099627573"><ele>33.0</ele><time>2026-04-18T04:42:34.998Z</time></trkpt><trkpt lat="45.1010704134595" lon="10.033792247399727"><ele>33.0</ele><time>2026-04-18T04:42:35.998Z</time></trkpt><trkpt lat="45.10113174736795" lon="10.033752626168532"><ele>33.0</ele><time>2026-04-18T04:42:36.998Z</time></trkpt><trkpt lat="45.10119439265286" lon="10.033714259240789"><ele>33.0</ele><time>2026-04-18T04:42:37.998Z</time></trkpt><trkpt lat="45.101255186487826" lon="10.033675384295021"><ele>33.0</ele><time>2026-04-18T04:42:38.998Z</time></trkpt><trkpt lat="45.101316143766375" lon="10.033636307992518"><ele>33.0</ele><time>2026-04-18T04:42:39.998Z</time></trkpt><trkpt lat="45.101377452634914" lon="10.033600460326152"><ele>33.0</ele><time>2026-04-18T04:42:40.998Z</time></trkpt><trkpt lat="45.10143773430153" lon="10.033563153452482"><ele>33.0</ele><time>2026-04-18T04:42:41.998Z</time></trkpt><trkpt lat="45.10149934830907" lon="10.033524192173502"><ele>33.0</ele><time>2026-04-18T04:42:42.998Z</time></trkpt><trkpt lat="45.1015608561434" lon="10.03348773946347"><ele>33.0</ele><time>2026-04-18T04:42:43.998Z</time></trkpt><trkpt lat="45.101622466247335" lon="10.033450396421415"><ele>33.0</ele><time>2026-04-18T04:42:44.998Z</time></trkpt><trkpt lat="45.10168441764613" lon="10.033411891798075"><ele>33.0</ele><time>2026-04-18T04:42:45.998Z</time></trkpt><trkpt lat="45.10174576772103" lon="10.033375749647188"><ele>33.0</ele><time>2026-04-18T04:42:46.998Z</time></trkpt><trkpt lat="45.1018073437762" lon="10.033338608518484"><ele>33.0</ele><time>2026-04-18T04:42:47.998Z</time></trkpt><trkpt lat="45.10186849089798" lon="10.033301223736583"><ele>33.0</ele><time>2026-04-18T04:42:48.998Z</time></trkpt><trkpt lat="45.10192891632508" lon="10.033264527318407"><ele>33.0</ele><time>2026-04-18T04:42:49.998Z</time></trkpt><trkpt lat="45.10198900058098" lon="10.033224970294308"><ele>33.0</ele><time>2026-04-18T04:42:50.998Z</time></trkpt><trkpt lat="45.10205009839697" lon="10.033184991813908"><ele>33.0</ele><time>2026-04-18T04:42:51.998Z</time></trkpt><trkpt lat="45.102108588148496" lon="10.0331429016435"><ele>33.0</ele><time>2026-04-18T04:42:52.998Z</time></trkpt><trkpt lat="45.10216761899659" lon="10.033094698175713"><ele>33.0</ele><time>2026-04-18T04:42:53.998Z</time></trkpt><trkpt lat="45.10222153238299" lon="10.033042476080594"><ele>33.0</ele><time>2026-04-18T04:42:54.998Z</time></trkpt><trkpt lat="45.102276163821735" lon="10.032987801926772"><ele>33.0</ele><time>2026-04-18T04:42:55.998Z</time></trkpt><trkpt lat="45.102327200921614" lon="10.032927845829107"><ele>33.0</ele><time>2026-04-18T04:42:56.998Z</time></trkpt><trkpt lat="45.10237677450603" lon="10.03286399583141"><ele>33.0</ele><time>2026-04-18T04:42:57.998Z</time></trkpt><trkpt lat="45.10242410702137" lon="10.032798991690283"><ele>33.0</ele><time>2026-04-18T04:42:58.998Z</time></trkpt><trkpt lat="45.10247165823858" lon="10.032728661070593"><ele>33.0</ele><time>2026-04-18T04:42:59.998Z</time></trkpt><trkpt lat="45.1025187377518" lon="10.032659854749095"><ele>33.0</ele><time>2026-04-18T04:43:00.998Z</time></trkpt><trkpt lat="45.10256340133655" lon="10.032590076244519"><ele>33.0</ele><time>2026-04-18T04:43:01.998Z</time></trkpt><trkpt lat="45.10260777439983" lon="10.032520303078588"><ele>33.14285714285714</ele><time>2026-04-18T04:43:02.998Z</time></trkpt><trkpt lat="45.102652355506194" lon="10.032449874463751"><ele>33.285714285714285</ele><time>2026-04-18T04:43:03.998Z</time></trkpt><trkpt lat="45.10269671179482" lon="10.032379466146267"><ele>33.42857142857143</ele><time>2026-04-18T04:43:04.998Z</time></trkpt><trkpt lat="45.10274131960825" lon="10.032311855672816"><ele>33.57142857142857</ele><time>2026-04-18T04:43:05.998Z</time></trkpt><trkpt lat="45.10278555441982" lon="10.032243053880611"><ele>33.714285714285715</ele><time>2026-04-18T04:43:06.998Z</time></trkpt><trkpt lat="45.102828057682736" lon="10.032170936642506"><ele>33.857142857142854</ele><time>2026-04-18T04:43:07.998Z</time></trkpt><trkpt lat="45.10287049684127" lon="10.03210009022238"><ele>34.0</ele><time>2026-04-18T04:43:08.998Z</time></trkpt><trkpt lat="45.1029145186367" lon="10.03202866130841"><ele>33.99999999999999</ele><time>2026-04-18T04:43:09.998Z</time></trkpt><trkpt lat="45.1029587907208" lon="10.031954895198833"><ele>34.0</ele><time>2026-04-18T04:43:10.998Z</time></trkpt><trkpt lat="45.10299819756531" lon="10.031879493534563"><ele>34.0</ele><time>2026-04-18T04:43:11.998Z</time></trkpt><trkpt lat="45.103037019348704" lon="10.03180222524375"><ele>34.0</ele><time>2026-04-18T04:43:12.998Z</time></trkpt><trkpt lat="45.103074915570346" lon="10.031724948002019"><ele>34.0</ele><time>2026-04-18T04:43:13.998Z</time></trkpt><trkpt lat="45.1031149926618" lon="10.031651332150624"><ele>33.99999999999999</ele><time>2026-04-18T04:43:14.998Z</time></trkpt><trkpt lat="45.10315553117265" lon="10.0315782077135"><ele>34.0</ele><time>2026-04-18T04:43:15.998Z</time></trkpt><trkpt lat="45.10319787186264" lon="10.031501914660142"><ele>34.0</ele><time>2026-04-18T04:43:16.998Z</time></trkpt><trkpt lat="45.10324147263492" lon="10.03142555270278"><ele>34.0</ele><time>2026-04-18T04:43:17.998Z</time></trkpt><trkpt lat="45.10328908907711" lon="10.031346705117455"><ele>34.0</ele><time>2026-04-18T04:43:18.998Z</time></trkpt><trkpt lat="45.10333713763013" lon="10.031265500838478"><ele>34.0</ele><time>2026-04-18T04:43:19.998Z</time></trkpt><trkpt lat="45.10338782841971" lon="10.031181880143745"><ele>34.0</ele><time>2026-04-18T04:43:20.998Z</time></trkpt><trkpt lat="45.10343531346345" lon="10.031091910833442"><ele>34.0</ele><time>2026-04-18T04:43:21.998Z</time></trkpt><trkpt lat="45.1034853769122" lon="10.031001506782923"><ele>34.333333333333336</ele><time>2026-04-18T04:43:22.998Z</time></trkpt><trkpt lat="45.10353748930703" lon="10.030912615612655"><ele>34.66666666666667</ele><time>2026-04-18T04:43:24Z</time></trkpt><trkpt lat="45.10359598553429" lon="10.030825104130983"><ele>35.0</ele><time>2026-04-18T04:43:25Z</time></trkpt><trkpt lat="45.10367381620315" lon="10.030768002249534"><ele>35.333333333333336</ele><time>2026-04-18T04:43:26Z</time></trkpt><trkpt lat="45.10375039019188" lon="10.030712975009497"><ele>35.666666666666664</ele><time>2026-04-18T04:43:27Z</time></trkpt><trkpt lat="45.10382791203643" lon="10.030651613147121"><ele>36.0</ele><time>2026-04-18T04:43:28Z</time></trkpt><trkpt lat="45.10390013799109" lon="10.030592917129564"><ele>36.4</ele><time>2026-04-18T04:43:29Z</time></trkpt><trkpt lat="45.103973088499636" lon="10.030532660315417"><ele>36.8</ele><time>2026-04-18T04:43:30Z</time></trkpt><trkpt lat="45.10403360153555" lon="10.030443959126737"><ele>37.199999999999996</ele><time>2026-04-18T04:43:31Z</time></trkpt><trkpt lat="45.10409865251454" lon="10.030387139284576"><ele>37.6</ele><time>2026-04-18T04:43:32Z</time></trkpt><trkpt lat="45.104156486893984" lon="10.030318221322087"><ele>38.0</ele><time>2026-04-18T04:43:33Z</time></trkpt><trkpt lat="45.10423878884891" lon="10.030176991951986"><ele>38.0</ele><time>2026-04-18T04:43:35Z</time></trkpt><trkpt lat="45.104268941487184" lon="10.030086989811775"><ele>38.0</ele><time>2026-04-18T04:43:36Z</time></trkpt><trkpt lat="45.10427491415122" lon="10.029995483840695"><ele>38.0</ele><time>2026-04-18T04:43:37Z</time></trkpt><trkpt lat="45.10427284657064" lon="10.029900254511727"><ele>38.0</ele><time>2026-04-18T04:43:38Z</time></trkpt><trkpt lat="45.104277399649256" lon="10.029725018601296"><ele>38.0</ele><time>2026-04-18T04:43:40Z</time></trkpt><trkpt lat="45.10428063892352" lon="10.029635290792342"><ele>38.0</ele><time>2026-04-18T04:43:41Z</time></trkpt><trkpt lat="45.10428593438555" lon="10.02946551034906"><ele>38.0</ele><time>2026-04-18T04:43:42.999Z</time></trkpt><trkpt lat="45.10430794271524" lon="10.029306667632119"><ele>38.0</ele><time>2026-04-18T04:43:44.999Z</time></trkpt><trkpt lat="45.10433871349076" lon="10.0291515250796"><ele>38.0</ele><time>2026-04-18T04:43:46.999Z</time></trkpt><trkpt lat="45.10438350865239" lon="10.029014585641963"><ele>38.0</ele><time>2026-04-18T04:43:48.999Z</time></trkpt><trkpt lat="45.104457988658545" lon="10.028898256693163"><ele>38.0</ele><time>2026-04-18T04:43:50.999Z</time></trkpt><trkpt lat="45.10455728126728" lon="10.028802114823053"><ele>37.857142857142854</ele><time>2026-04-18T04:43:52.999Z</time></trkpt><trkpt lat="45.10465932066913" lon="10.028710329160665"><ele>37.714285714285715</ele><time>2026-04-18T04:43:54.999Z</time></trkpt><trkpt lat="45.10471487735135" lon="10.028667854524212"><ele>37.57142857142857</ele><time>2026-04-18T04:43:55.999Z</time></trkpt><trkpt lat="45.10477195907589" lon="10.028618786811492"><ele>37.42857142857143</ele><time>2026-04-18T04:43:56.999Z</time></trkpt><trkpt lat="45.10482715589876" lon="10.028570701705856"><ele>37.285714285714285</ele><time>2026-04-18T04:43:57.999Z</time></trkpt><trkpt lat="45.10488530638805" lon="10.028525867476668"><ele>37.142857142857146</ele><time>2026-04-18T04:43:58.999Z</time></trkpt><trkpt lat="45.1049425445544" lon="10.028482647385937"><ele>37.0</ele><time>2026-04-18T04:43:59.999Z</time></trkpt><trkpt lat="45.10500073375847" lon="10.028438929950951"><ele>36.714285714285715</ele><time>2026-04-18T04:44:00.999Z</time></trkpt><trkpt lat="45.10507705818484" lon="10.028450521931873"><ele>36.42857142857143</ele><time>2026-04-18T04:44:01.999Z</time></trkpt><trkpt lat="45.10513574165526" lon="10.028416377820557"><ele>36.14285714285714</ele><time>2026-04-18T04:44:02.999Z</time></trkpt><trkpt lat="45.10518297239769" lon="10.028333573644394"><ele>35.85714285714286</ele><time>2026-04-18T04:44:03.999Z</time></trkpt><trkpt lat="45.10524367304557" lon="10.028299787363052"><ele>35.57142857142857</ele><time>2026-04-18T04:44:04.999Z</time></trkpt><trkpt lat="45.10530714034709" lon="10.028264833829924"><ele>35.285714285714285</ele><time>2026-04-18T04:44:05.999Z</time></trkpt><trkpt lat="45.105369729788386" lon="10.028231407135697"><ele>35.0</ele><time>2026-04-18T04:44:06.999Z</time></trkpt><trkpt lat="45.10543296090327" lon="10.028197507040247"><ele>34.714285714285715</ele><time>2026-04-18T04:44:07.999Z</time></trkpt><trkpt lat="45.10549601297392" lon="10.028163383241044"><ele>34.42857142857143</ele><time>2026-04-18T04:44:08.999Z</time></trkpt><trkpt lat="45.10555711756681" lon="10.028127091832246"><ele>34.14285714285714</ele><time>2026-04-18T04:44:09.999Z</time></trkpt><trkpt lat="45.10562023667597" lon="10.028092337425917"><ele>33.85714285714286</ele><time>2026-04-18T04:44:10.999Z</time></trkpt><trkpt lat="45.10568302055281" lon="10.028064895710312"><ele>33.57142857142857</ele><time>2026-04-18T04:44:11.999Z</time></trkpt><trkpt lat="45.10574727739129" lon="10.028034503850483"><ele>33.285714285714285</ele><time>2026-04-18T04:44:12.999Z</time></trkpt><trkpt lat="45.105810641114836" lon="10.028007289896811"><ele>33.0</ele><time>2026-04-18T04:44:13.999Z</time></trkpt><trkpt lat="45.10587500820181" lon="10.027976920170014"><ele>33.0</ele><time>2026-04-18T04:44:14.999Z</time></trkpt><trkpt lat="45.10593829628315" lon="10.02795177132843"><ele>33.0</ele><time>2026-04-18T04:44:15.999Z</time></trkpt><trkpt lat="45.10601198274391" lon="10.027994136665596"><ele>33.0</ele><time>2026-04-18T04:44:16.999Z</time></trkpt><trkpt lat="45.106077014118796" lon="10.027980855581724"><ele>33.0</ele><time>2026-04-18T04:44:17.999Z</time></trkpt><trkpt lat="45.106205227231634" lon="10.027980325097833"><ele>33.0</ele><time>2026-04-18T04:44:19.999Z</time></trkpt><trkpt lat="45.106274037636055" lon="10.027982406691562"><ele>33.0</ele><time>2026-04-18T04:44:20.999Z</time></trkpt><trkpt lat="45.106342134514826" lon="10.027984466699591"><ele>33.0</ele><time>2026-04-18T04:44:21.999Z</time></trkpt><trkpt lat="45.10641045441821" lon="10.027987549150273"><ele>33.0</ele><time>2026-04-18T04:44:22.999Z</time></trkpt><trkpt lat="45.106479226954065" lon="10.02799072095887"><ele>33.0</ele><time>2026-04-18T04:44:23.999Z</time></trkpt><trkpt lat="45.10654793436981" lon="10.027993889764472"><ele>33.0</ele><time>2026-04-18T04:44:24.999Z</time></trkpt><trkpt lat="45.10661622468403" lon="10.027997039333293"><ele>33.0</ele><time>2026-04-18T04:44:25.999Z</time></trkpt><trkpt lat="45.106685683028346" lon="10.028000113640829"><ele>33.0</ele><time>2026-04-18T04:44:26.999Z</time></trkpt><trkpt lat="45.10675361365484" lon="10.028002769502672"><ele>33.0</ele><time>2026-04-18T04:44:27.999Z</time></trkpt><trkpt lat="45.10682293289362" lon="10.028005479651293"><ele>33.285714285714285</ele><time>2026-04-18T04:44:28.999Z</time></trkpt><trkpt lat="45.10689151813704" lon="10.027966312614243"><ele>33.57142857142857</ele><time>2026-04-18T04:44:29.999Z</time></trkpt><trkpt lat="45.106961545123156" lon="10.027970797274042"><ele>33.85714285714286</ele><time>2026-04-18T04:44:30.999Z</time></trkpt><trkpt lat="45.10702876662067" lon="10.027973838328231"><ele>34.14285714285714</ele><time>2026-04-18T04:44:31.999Z</time></trkpt><trkpt lat="45.10709834025008" lon="10.028016122132412"><ele>34.42857142857143</ele><time>2026-04-18T04:44:32.999Z</time></trkpt><trkpt lat="45.107167057071415" lon="10.028018360396842"><ele>34.714285714285715</ele><time>2026-04-18T04:44:33.999Z</time></trkpt><trkpt lat="45.10723631816689" lon="10.02802061639139"><ele>35.0</ele><time>2026-04-18T04:44:34.999Z</time></trkpt><trkpt lat="45.107306108410754" lon="10.028022889620651"><ele>35.0</ele><time>2026-04-18T04:44:35.999Z</time></trkpt><trkpt lat="45.10737578897899" lon="10.0280251592877"><ele>35.0</ele><time>2026-04-18T04:44:36.999Z</time></trkpt><trkpt lat="45.107443885661375" lon="10.028027162311107"><ele>35.0</ele><time>2026-04-18T04:44:37.998Z</time></trkpt><trkpt lat="45.10751112668038" lon="10.028028952366785"><ele>35.0</ele><time>2026-04-18T04:44:38.998Z</time></trkpt><trkpt lat="45.107579461241" lon="10.028030771511975"><ele>35.0</ele><time>2026-04-18T04:44:39.998Z</time></trkpt><trkpt lat="45.10764640275331" lon="10.028032553580001"><ele>35.0</ele><time>2026-04-18T04:44:40.998Z</time></trkpt><trkpt lat="45.10771559916648" lon="10.028034395690858"><ele>35.0</ele><time>2026-04-18T04:44:41.998Z</time></trkpt><trkpt lat="45.107782603604676" lon="10.028036179434899"><ele>34.714285714285715</ele><time>2026-04-18T04:44:42.998Z</time></trkpt><trkpt lat="45.10785075347126" lon="10.028037993678103"><ele>34.42857142857143</ele><time>2026-04-18T04:44:43.998Z</time></trkpt><trkpt lat="45.107916821394795" lon="10.028039754410651"><ele>34.14285714285714</ele><time>2026-04-18T04:44:44.998Z</time></trkpt><trkpt lat="45.10798673077627" lon="10.028041615492794"><ele>33.85714285714286</ele><time>2026-04-18T04:44:45.998Z</time></trkpt><trkpt lat="45.108053292449696" lon="10.028043387454465"><ele>33.57142857142857</ele><time>2026-04-18T04:44:46.998Z</time></trkpt><trkpt lat="45.108121603983996" lon="10.028045098714989"><ele>33.285714285714285</ele><time>2026-04-18T04:44:47.998Z</time></trkpt><trkpt lat="45.1081911682245" lon="10.028045959986619"><ele>33.0</ele><time>2026-04-18T04:44:48.998Z</time></trkpt><trkpt lat="45.1082582118689" lon="10.028045120384466"><ele>33.0</ele><time>2026-04-18T04:44:49.998Z</time></trkpt><trkpt lat="45.10832645344197" lon="10.028042858086284"><ele>33.0</ele><time>2026-04-18T04:44:50.998Z</time></trkpt><trkpt lat="45.108399027707556" lon="10.028037537900751"><ele>33.0</ele><time>2026-04-18T04:44:51.998Z</time></trkpt><trkpt lat="45.108468374806954" lon="10.028025464264129"><ele>33.0</ele><time>2026-04-18T04:44:52.998Z</time></trkpt><trkpt lat="45.10853874122234" lon="10.02801042366402"><ele>33.0</ele><time>2026-04-18T04:44:53.998Z</time></trkpt><trkpt lat="45.10860818279073" lon="10.0279927056525"><ele>33.0</ele><time>2026-04-18T04:44:54.998Z</time></trkpt><trkpt lat="45.108677862141214" lon="10.027973283288393"><ele>33.0</ele><time>2026-04-18T04:44:55.998Z</time></trkpt><trkpt lat="45.108745253603914" lon="10.027952885872125"><ele>33.0</ele><time>2026-04-18T04:44:56.998Z</time></trkpt><trkpt lat="45.10881411233838" lon="10.027932044356072"><ele>33.0</ele><time>2026-04-18T04:44:57.998Z</time></trkpt><trkpt lat="45.10888277982997" lon="10.027910523030496"><ele>33.0</ele><time>2026-04-18T04:44:58.998Z</time></trkpt><trkpt lat="45.108950455943926" lon="10.027889190726775"><ele>33.0</ele><time>2026-04-18T04:44:59.998Z</time></trkpt><trkpt lat="45.10901945641168" lon="10.027867365390746"><ele>33.0</ele><time>2026-04-18T04:45:00.998Z</time></trkpt><trkpt lat="45.10908702282024" lon="10.027844799675002"><ele>33.0</ele><time>2026-04-18T04:45:01.998Z</time></trkpt><trkpt lat="45.109155631250616" lon="10.02782188594518"><ele>33.0</ele><time>2026-04-18T04:45:02.998Z</time></trkpt><trkpt lat="45.109223469260044" lon="10.027799229519813"><ele>32.857142857142854</ele><time>2026-04-18T04:45:03.998Z</time></trkpt><trkpt lat="45.109291513169694" lon="10.027776504329115"><ele>32.714285714285715</ele><time>2026-04-18T04:45:04.998Z</time></trkpt><trkpt lat="45.109359955566546" lon="10.027753646051588"><ele>32.57142857142857</ele><time>2026-04-18T04:45:05.998Z</time></trkpt><trkpt lat="45.109428071986486" lon="10.027730896643794"><ele>32.42857142857143</ele><time>2026-04-18T04:45:06.998Z</time></trkpt><trkpt lat="45.10949642299586" lon="10.027708068887517"><ele>32.285714285714285</ele><time>2026-04-18T04:45:07.998Z</time></trkpt><trkpt lat="45.109565792704615" lon="10.0276849009088"><ele>32.14285714285714</ele><time>2026-04-18T04:45:08.998Z</time></trkpt><trkpt lat="45.10963362729902" lon="10.027662245624176"><ele>32.0</ele><time>2026-04-18T04:45:09.998Z</time></trkpt><trkpt lat="45.10970219218712" lon="10.027639346438205"><ele>32.0</ele><time>2026-04-18T04:45:10.998Z</time></trkpt><trkpt lat="45.10977014125811" lon="10.027616652921758"><ele>31.999999999999996</ele><time>2026-04-18T04:45:11.998Z</time></trkpt><trkpt lat="45.109838153847164" lon="10.027593682424131"><ele>32.0</ele><time>2026-04-18T04:45:12.998Z</time></trkpt><trkpt lat="45.109907005734314" lon="10.027570315814893"><ele>32.0</ele><time>2026-04-18T04:45:13.998Z</time></trkpt><trkpt lat="45.10997346525025" lon="10.027547761116345"><ele>31.999999999999996</ele><time>2026-04-18T04:45:14.998Z</time></trkpt><trkpt lat="45.11004098644956" lon="10.027524846109634"><ele>32.0</ele><time>2026-04-18T04:45:15.998Z</time></trkpt><trkpt lat="45.11010848765544" lon="10.027502012273402"><ele>32.0</ele><time>2026-04-18T04:45:16.998Z</time></trkpt><trkpt lat="45.11017605330456" lon="10.027477043097006"><ele>32.14285714285714</ele><time>2026-04-18T04:45:17.998Z</time></trkpt><trkpt lat="45.11024168224557" lon="10.027452789633333"><ele>32.285714285714285</ele><time>2026-04-18T04:45:18.998Z</time></trkpt><trkpt lat="45.110310400418605" lon="10.02742740461109"><ele>32.42857142857143</ele><time>2026-04-18T04:45:19.998Z</time></trkpt><trkpt lat="45.11037563663135" lon="10.027402026217773"><ele>32.57142857142857</ele><time>2026-04-18T04:45:20.998Z</time></trkpt><trkpt lat="45.1104388900048" lon="10.027354608920847"><ele>32.714285714285715</ele><time>2026-04-18T04:45:21.998Z</time></trkpt><trkpt lat="45.11050724090455" lon="10.02733310946259"><ele>32.857142857142854</ele><time>2026-04-18T04:45:22.998Z</time></trkpt><trkpt lat="45.110573262925776" lon="10.02730606233663"><ele>33.0</ele><time>2026-04-18T04:45:23.998Z</time></trkpt><trkpt lat="45.11064151811884" lon="10.027284627279835"><ele>33.0</ele><time>2026-04-18T04:45:24.998Z</time></trkpt><trkpt lat="45.11070821439962" lon="10.027256826887037"><ele>33.0</ele><time>2026-04-18T04:45:25.998Z</time></trkpt><trkpt lat="45.11077383876537" lon="10.027225060494283"><ele>33.0</ele><time>2026-04-18T04:45:26.998Z</time></trkpt><trkpt lat="45.11083786340866" lon="10.027188878418126"><ele>33.0</ele><time>2026-04-18T04:45:27.998Z</time></trkpt><trkpt lat="45.11090198997944" lon="10.027151925504196"><ele>33.0</ele><time>2026-04-18T04:45:28.998Z</time></trkpt><trkpt lat="45.110973940672416" lon="10.027138145427262"><ele>33.0</ele><time>2026-04-18T04:45:30Z</time></trkpt><trkpt lat="45.111040517630784" lon="10.027103429088799"><ele>33.0</ele><time>2026-04-18T04:45:31Z</time></trkpt><trkpt lat="45.11110647915648" lon="10.02706871944178"><ele>33.285714285714285</ele><time>2026-04-18T04:45:32Z</time></trkpt><trkpt lat="45.11117143055249" lon="10.027034541336265"><ele>33.57142857142857</ele><time>2026-04-18T04:45:33Z</time></trkpt><trkpt lat="45.111236622456595" lon="10.027000236673153"><ele>33.85714285714286</ele><time>2026-04-18T04:45:34Z</time></trkpt><trkpt lat="45.11130253132135" lon="10.026964965283945"><ele>34.14285714285714</ele><time>2026-04-18T04:45:35Z</time></trkpt><trkpt lat="45.1113677146176" lon="10.02692989764769"><ele>34.42857142857143</ele><time>2026-04-18T04:45:36Z</time></trkpt><trkpt lat="45.11143203712884" lon="10.026895293101719"><ele>34.714285714285715</ele><time>2026-04-18T04:45:37Z</time></trkpt><trkpt lat="45.1114971525499" lon="10.02686026198178"><ele>35.0</ele><time>2026-04-18T04:45:38Z</time></trkpt><trkpt lat="45.111563218382436" lon="10.026824681346241"><ele>34.57142857142857</ele><time>2026-04-18T04:45:39Z</time></trkpt><trkpt lat="45.11162797511153" lon="10.026789216148098"><ele>34.14285714285714</ele><time>2026-04-18T04:45:40Z</time></trkpt><trkpt lat="45.111691561847934" lon="10.026754391717056"><ele>33.714285714285715</ele><time>2026-04-18T04:45:41Z</time></trkpt><trkpt lat="45.111755313779895" lon="10.02671947681478"><ele>33.285714285714285</ele><time>2026-04-18T04:45:42Z</time></trkpt><trkpt lat="45.11182033547016" lon="10.026683618726928"><ele>32.857142857142854</ele><time>2026-04-18T04:45:43Z</time></trkpt><trkpt lat="45.11188448086786" lon="10.026647636276614"><ele>32.42857142857143</ele><time>2026-04-18T04:45:44Z</time></trkpt><trkpt lat="45.11194904015475" lon="10.026611421654056"><ele>32.0</ele><time>2026-04-18T04:45:44.999Z</time></trkpt><trkpt lat="45.11201328777917" lon="10.026575381850614"><ele>32.0</ele><time>2026-04-18T04:45:45.999Z</time></trkpt><trkpt lat="45.112077335311135" lon="10.026539454298186"><ele>31.999999999999996</ele><time>2026-04-18T04:45:46.999Z</time></trkpt><trkpt lat="45.112141617582665" lon="10.02650339506178"><ele>32.0</ele><time>2026-04-18T04:45:47.999Z</time></trkpt><trkpt lat="45.11220439125267" lon="10.026468182087546"><ele>32.0</ele><time>2026-04-18T04:45:48.999Z</time></trkpt><trkpt lat="45.11226914397989" lon="10.026431858945756"><ele>31.999999999999996</ele><time>2026-04-18T04:45:49.999Z</time></trkpt><trkpt lat="45.11233285412979" lon="10.02639666676259"><ele>32.0</ele><time>2026-04-18T04:45:50.999Z</time></trkpt><trkpt lat="45.11239775110029" lon="10.026361589816442"><ele>32.0</ele><time>2026-04-18T04:45:51.999Z</time></trkpt><trkpt lat="45.11246185142302" lon="10.026326943455075"><ele>32.0</ele><time>2026-04-18T04:45:52.999Z</time></trkpt><trkpt lat="45.11252687967122" lon="10.026291795557801"><ele>31.999999999999996</ele><time>2026-04-18T04:45:53.999Z</time></trkpt><trkpt lat="45.11259078734866" lon="10.026260061041917"><ele>32.0</ele><time>2026-04-18T04:45:54.999Z</time></trkpt><trkpt lat="45.11265699945514" lon="10.026229089802854"><ele>32.0</ele><time>2026-04-18T04:45:55.999Z</time></trkpt><trkpt lat="45.11272099837022" lon="10.026202445867382"><ele>31.999999999999996</ele><time>2026-04-18T04:45:56.999Z</time></trkpt><trkpt lat="45.11278874351714" lon="10.026176616413288"><ele>32.0</ele><time>2026-04-18T04:45:57.999Z</time></trkpt><trkpt lat="45.11285575643431" lon="10.026152088922633"><ele>32.0</ele><time>2026-04-18T04:45:58.999Z</time></trkpt><trkpt lat="45.11292412556472" lon="10.026128360173104"><ele>32.0</ele><time>2026-04-18T04:45:59.999Z</time></trkpt><trkpt lat="45.1129913400944" lon="10.0261050321463"><ele>31.999999999999996</ele><time>2026-04-18T04:46:00.999Z</time></trkpt><trkpt lat="45.113059089583224" lon="10.02608236955955"><ele>32.0</ele><time>2026-04-18T04:46:01.999Z</time></trkpt><trkpt lat="45.11312585506476" lon="10.026060482380261"><ele>32.0</ele><time>2026-04-18T04:46:02.999Z</time></trkpt><trkpt lat="45.11319406597517" lon="10.02603885970265"><ele>31.999999999999996</ele><time>2026-04-18T04:46:03.999Z</time></trkpt><trkpt lat="45.11326054951731" lon="10.026018282916418"><ele>32.0</ele><time>2026-04-18T04:46:04.999Z</time></trkpt><trkpt lat="45.11332669497267" lon="10.025997810772305"><ele>32.0</ele><time>2026-04-18T04:46:05.999Z</time></trkpt><trkpt lat="45.113395062065536" lon="10.025977072906793"><ele>32.14285714285714</ele><time>2026-04-18T04:46:06.999Z</time></trkpt><trkpt lat="45.11346178365619" lon="10.02595756237565"><ele>32.285714285714285</ele><time>2026-04-18T04:46:07.999Z</time></trkpt><trkpt lat="45.11353030789075" lon="10.025937524718756"><ele>32.42857142857143</ele><time>2026-04-18T04:46:08.999Z</time></trkpt><trkpt lat="45.113595655547805" lon="10.025917691683778"><ele>32.57142857142857</ele><time>2026-04-18T04:46:09.999Z</time></trkpt><trkpt lat="45.11365820809508" lon="10.025896186719104"><ele>32.714285714285715</ele><time>2026-04-18T04:46:10.999Z</time></trkpt><trkpt lat="45.11372054869471" lon="10.025874754659737"><ele>32.857142857142854</ele><time>2026-04-18T04:46:11.999Z</time></trkpt><trkpt lat="45.11378830502115" lon="10.025852937905887"><ele>33.0</ele><time>2026-04-18T04:46:12.999Z</time></trkpt><trkpt lat="45.11385742467705" lon="10.025831200032"><ele>33.0</ele><time>2026-04-18T04:46:13.999Z</time></trkpt><trkpt lat="45.11392580743817" lon="10.025809693898578"><ele>33.0</ele><time>2026-04-18T04:46:14.999Z</time></trkpt><trkpt lat="45.11399618086301" lon="10.025787561719879"><ele>33.0</ele><time>2026-04-18T04:46:15.999Z</time></trkpt><trkpt lat="45.11406658993153" lon="10.02576541836936"><ele>33.0</ele><time>2026-04-18T04:46:16.999Z</time></trkpt><trkpt lat="45.11413639772357" lon="10.025743464054097"><ele>33.0</ele><time>2026-04-18T04:46:17.999Z</time></trkpt><trkpt lat="45.11420736525823" lon="10.025721145009143"><ele>33.0</ele><time>2026-04-18T04:46:18.999Z</time></trkpt><trkpt lat="45.11427953247125" lon="10.02569844868304"><ele>33.0</ele><time>2026-04-18T04:46:19.999Z</time></trkpt><trkpt lat="45.114349170166385" lon="10.025676547888455"><ele>32.714285714285715</ele><time>2026-04-18T04:46:20.999Z</time></trkpt><trkpt lat="45.114418645828025" lon="10.025654698036675"><ele>32.42857142857143</ele><time>2026-04-18T04:46:21.999Z</time></trkpt><trkpt lat="45.11448760162588" lon="10.02563301169764"><ele>32.142857142857146</ele><time>2026-04-18T04:46:22.999Z</time></trkpt><trkpt lat="45.11455858720536" lon="10.025610687001441"><ele>31.857142857142858</ele><time>2026-04-18T04:46:23.999Z</time></trkpt><trkpt lat="45.11462676506055" lon="10.025589245316871"><ele>31.571428571428577</ele><time>2026-04-18T04:46:24.999Z</time></trkpt><trkpt lat="45.11469566088418" lon="10.025565118138074"><ele>31.28571428571429</ele><time>2026-04-18T04:46:25.999Z</time></trkpt><trkpt lat="45.114763740422056" lon="10.025540855208181"><ele>31.0</ele><time>2026-04-18T04:46:26.999Z</time></trkpt><trkpt lat="45.114831476329876" lon="10.025515619251548"><ele>31.0</ele><time>2026-04-18T04:46:27.999Z</time></trkpt><trkpt lat="45.11489860358155" lon="10.025490476113637"><ele>31.000000000000004</ele><time>2026-04-18T04:46:28.999Z</time></trkpt><trkpt lat="45.114966338605186" lon="10.025464349752117"><ele>31.0</ele><time>2026-04-18T04:46:29.999Z</time></trkpt><trkpt lat="45.11503365896817" lon="10.025438383349703"><ele>31.0</ele><time>2026-04-18T04:46:30.999Z</time></trkpt><trkpt lat="45.115101572252556" lon="10.025412188230993"><ele>31.000000000000004</ele><time>2026-04-18T04:46:31.999Z</time></trkpt><trkpt lat="45.11517025327081" lon="10.025385696962843"><ele>31.0</ele><time>2026-04-18T04:46:32.999Z</time></trkpt><trkpt lat="45.115236809352545" lon="10.02536002533008"><ele>31.0</ele><time>2026-04-18T04:46:33.999Z</time></trkpt><trkpt lat="45.115305179414264" lon="10.025333654011357"><ele>31.0</ele><time>2026-04-18T04:46:34.999Z</time></trkpt><trkpt lat="45.11537239128571" lon="10.025307729440893"><ele>31.000000000000004</ele><time>2026-04-18T04:46:35.999Z</time></trkpt><trkpt lat="45.115440728595026" lon="10.025280889763575"><ele>31.0</ele><time>2026-04-18T04:46:36.999Z</time></trkpt><trkpt lat="45.11550744312957" lon="10.025253561875232"><ele>31.0</ele><time>2026-04-18T04:46:37.999Z</time></trkpt><trkpt lat="45.115574236142166" lon="10.02522443529488"><ele>31.000000000000004</ele><time>2026-04-18T04:46:38.999Z</time></trkpt><trkpt lat="45.1156418436613" lon="10.025190937060367"><ele>31.0</ele><time>2026-04-18T04:46:39.999Z</time></trkpt><trkpt lat="45.11570638359224" lon="10.025145624509534"><ele>31.0</ele><time>2026-04-18T04:46:40.999Z</time></trkpt><trkpt lat="45.11575814506659" lon="10.025073050727045"><ele>31.142857142857146</ele><time>2026-04-18T04:46:41.998Z</time></trkpt><trkpt lat="45.11581479342974" lon="10.02500986780732"><ele>31.28571428571429</ele><time>2026-04-18T04:46:42.998Z</time></trkpt><trkpt lat="45.1158669381448" lon="10.024938286257616"><ele>31.42857142857143</ele><time>2026-04-18T04:46:43.998Z</time></trkpt><trkpt lat="45.11590906884698" lon="10.024861262360309"><ele>31.57142857142857</ele><time>2026-04-18T04:46:44.998Z</time></trkpt><trkpt lat="45.11595324413396" lon="10.024779000907884"><ele>31.71428571428571</ele><time>2026-04-18T04:46:45.998Z</time></trkpt><trkpt lat="45.11598102690288" lon="10.02468547771892"><ele>31.857142857142854</ele><time>2026-04-18T04:46:46.998Z</time></trkpt><trkpt lat="45.11600834028216" lon="10.024592599897138"><ele>32.0</ele><time>2026-04-18T04:46:47.998Z</time></trkpt><trkpt lat="45.11604079417433" lon="10.024503439695994"><ele>32.0</ele><time>2026-04-18T04:46:48.998Z</time></trkpt><trkpt lat="45.11607267899168" lon="10.02441307455469"><ele>31.999999999999996</ele><time>2026-04-18T04:46:49.998Z</time></trkpt><trkpt lat="45.11610389609601" lon="10.02432600907278"><ele>32.0</ele><time>2026-04-18T04:46:50.998Z</time></trkpt><trkpt lat="45.11613672279033" lon="10.02423967291164"><ele>32.0</ele><time>2026-04-18T04:46:51.998Z</time></trkpt><trkpt lat="45.116169622989176" lon="10.024151880732497"><ele>31.999999999999996</ele><time>2026-04-18T04:46:52.998Z</time></trkpt><trkpt lat="45.116202554122346" lon="10.024065578476176"><ele>32.0</ele><time>2026-04-18T04:46:53.998Z</time></trkpt><trkpt lat="45.11623456214116" lon="10.023980002793637"><ele>32.0</ele><time>2026-04-18T04:46:54.998Z</time></trkpt><trkpt lat="45.11626810992575" lon="10.023893473952317"><ele>32.0</ele><time>2026-04-18T04:46:55.998Z</time></trkpt><trkpt lat="45.116300300666275" lon="10.023805448378182"><ele>31.999999999999996</ele><time>2026-04-18T04:46:56.998Z</time></trkpt><trkpt lat="45.116333169587335" lon="10.023718904893084"><ele>32.0</ele><time>2026-04-18T04:46:57.998Z</time></trkpt><trkpt lat="45.11636837125077" lon="10.023635165299538"><ele>32.0</ele><time>2026-04-18T04:46:58.998Z</time></trkpt><trkpt lat="45.116404778787164" lon="10.023552106233625"><ele>31.999999999999996</ele><time>2026-04-18T04:46:59.998Z</time></trkpt><trkpt lat="45.116442462443" lon="10.023471044499031"><ele>32.0</ele><time>2026-04-18T04:47:00.998Z</time></trkpt><trkpt lat="45.11648237119298" lon="10.023391123069523"><ele>32.0</ele><time>2026-04-18T04:47:01.998Z</time></trkpt><trkpt lat="45.11652113909753" lon="10.023311664202641"><ele>32.0</ele><time>2026-04-18T04:47:02.998Z</time></trkpt><trkpt lat="45.11656195266071" lon="10.023233583122396"><ele>31.999999999999996</ele><time>2026-04-18T04:47:03.998Z</time></trkpt><trkpt lat="45.11660394595808" lon="10.02315651127222"><ele>32.0</ele><time>2026-04-18T04:47:04.998Z</time></trkpt><trkpt lat="45.11664588302356" lon="10.023080242536505"><ele>32.0</ele><time>2026-04-18T04:47:05.998Z</time></trkpt><trkpt lat="45.11668752552728" lon="10.023002754187695"><ele>31.999999999999996</ele><time>2026-04-18T04:47:06.998Z</time></trkpt><trkpt lat="45.11672975592954" lon="10.022924856764652"><ele>32.0</ele><time>2026-04-18T04:47:07.998Z</time></trkpt><trkpt lat="45.116772507639354" lon="10.022847527817149"><ele>32.0</ele><time>2026-04-18T04:47:08.998Z</time></trkpt><trkpt lat="45.116817999438474" lon="10.022772023482817"><ele>32.0</ele><time>2026-04-18T04:47:09.998Z</time></trkpt><trkpt lat="45.11686245769127" lon="10.022697885710034"><ele>31.999999999999996</ele><time>2026-04-18T04:47:10.998Z</time></trkpt><trkpt lat="45.11690694240804" lon="10.022621393350073"><ele>32.0</ele><time>2026-04-18T04:47:11.998Z</time></trkpt><trkpt lat="45.116965919156705" lon="10.022569401988513"><ele>32.0</ele><time>2026-04-18T04:47:12.998Z</time></trkpt><trkpt lat="45.11701545146372" lon="10.022503567634079"><ele>31.999999999999996</ele><time>2026-04-18T04:47:13.998Z</time></trkpt><trkpt lat="45.11706590934771" lon="10.022437387091504"><ele>32.0</ele><time>2026-04-18T04:47:14.998Z</time></trkpt><trkpt lat="45.11711891520837" lon="10.022378845018942"><ele>32.0</ele><time>2026-04-18T04:47:15.998Z</time></trkpt><trkpt lat="45.11717260217331" lon="10.022317388713851"><ele>32.0</ele><time>2026-04-18T04:47:16.998Z</time></trkpt><trkpt lat="45.11722647892415" lon="10.022255715092411"><ele>31.999999999999996</ele><time>2026-04-18T04:47:17.998Z</time></trkpt><trkpt lat="45.11727995466535" lon="10.022193192288622"><ele>32.0</ele><time>2026-04-18T04:47:18.998Z</time></trkpt><trkpt lat="45.117332902536894" lon="10.02213060686587"><ele>32.0</ele><time>2026-04-18T04:47:19.998Z</time></trkpt><trkpt lat="45.117385700007574" lon="10.022068199171558"><ele>31.999999999999996</ele><time>2026-04-18T04:47:20.998Z</time></trkpt><trkpt lat="45.117438398818656" lon="10.022005908125333"><ele>32.0</ele><time>2026-04-18T04:47:21.998Z</time></trkpt><trkpt lat="45.11749130690768" lon="10.021943369711648"><ele>32.0</ele><time>2026-04-18T04:47:22.998Z</time></trkpt><trkpt lat="45.117534057633065" lon="10.021864994577932"><ele>32.0</ele><time>2026-04-18T04:47:23.998Z</time></trkpt><trkpt lat="45.11758704909263" lon="10.021802172629773"><ele>31.999999999999996</ele><time>2026-04-18T04:47:24.998Z</time></trkpt><trkpt lat="45.11763952198922" lon="10.021739378729416"><ele>32.0</ele><time>2026-04-18T04:47:25.998Z</time></trkpt><trkpt lat="45.117691655869166" lon="10.021676103763934"><ele>32.0</ele><time>2026-04-18T04:47:26.998Z</time></trkpt><trkpt lat="45.117746175323866" lon="10.021613741838827"><ele>31.999999999999996</ele><time>2026-04-18T04:47:27.998Z</time></trkpt><trkpt lat="45.117799267428886" lon="10.021551415697452"><ele>32.0</ele><time>2026-04-18T04:47:28.998Z</time></trkpt><trkpt lat="45.11786363119846" lon="10.021507666385704"><ele>32.0</ele><time>2026-04-18T04:47:29.998Z</time></trkpt><trkpt lat="45.117917882453604" lon="10.02144540072356"><ele>32.0</ele><time>2026-04-18T04:47:30.998Z</time></trkpt><trkpt lat="45.117972155843105" lon="10.021382519384915"><ele>31.999999999999996</ele><time>2026-04-18T04:47:31.998Z</time></trkpt><trkpt lat="45.118025560724476" lon="10.021319409727585"><ele>32.0</ele><time>2026-04-18T04:47:32.998Z</time></trkpt><trkpt lat="45.1180784814137" lon="10.02125544218087"><ele>32.0</ele><time>2026-04-18T04:47:33.998Z</time></trkpt><trkpt lat="45.1181310476604" lon="10.021191023170587"><ele>31.999999999999996</ele><time>2026-04-18T04:47:34.999Z</time></trkpt><trkpt lat="45.1181833400045" lon="10.02112613363276"><ele>32.0</ele><time>2026-04-18T04:47:35.999Z</time></trkpt><trkpt lat="45.118234779678986" lon="10.021060793896558"><ele>32.0</ele><time>2026-04-18T04:47:36.999Z</time></trkpt><trkpt lat="45.11827672876204" lon="10.020977982185412"><ele>32.14285714285714</ele><time>2026-04-18T04:47:37.999Z</time></trkpt><trkpt lat="45.11832739613193" lon="10.02091052218969"><ele>32.285714285714285</ele><time>2026-04-18T04:47:38.999Z</time></trkpt><trkpt lat="45.118376132830065" lon="10.020842522516709"><ele>32.42857142857143</ele><time>2026-04-18T04:47:39.999Z</time></trkpt><trkpt lat="45.118425637278975" lon="10.020774874044509"><ele>32.57142857142857</ele><time>2026-04-18T04:47:40.999Z</time></trkpt><trkpt lat="45.11847315122308" lon="10.020703704975132"><ele>32.714285714285715</ele><time>2026-04-18T04:47:41.999Z</time></trkpt><trkpt lat="45.11852117000308" lon="10.02063303200801"><ele>32.857142857142854</ele><time>2026-04-18T04:47:42.999Z</time></trkpt><trkpt lat="45.11856812958977" lon="10.020563394439074"><ele>33.0</ele><time>2026-04-18T04:47:43.999Z</time></trkpt><trkpt lat="45.11861534746764" lon="10.020493016501018"><ele>33.0</ele><time>2026-04-18T04:47:44.999Z</time></trkpt><trkpt lat="45.11866345923756" lon="10.020422895516715"><ele>33.0</ele><time>2026-04-18T04:47:45.999Z</time></trkpt><trkpt lat="45.11871159486745" lon="10.02035327310421"><ele>33.0</ele><time>2026-04-18T04:47:46.999Z</time></trkpt><trkpt lat="45.11875920671132" lon="10.020282326530628"><ele>33.0</ele><time>2026-04-18T04:47:47.999Z</time></trkpt><trkpt lat="45.118807263519805" lon="10.020211617157052"><ele>33.0</ele><time>2026-04-18T04:47:48.999Z</time></trkpt><trkpt lat="45.11885489124544" lon="10.020139682593593"><ele>33.0</ele><time>2026-04-18T04:47:49.999Z</time></trkpt><trkpt lat="45.11890251349195" lon="10.020068762895107"><ele>33.0</ele><time>2026-04-18T04:47:50.999Z</time></trkpt><trkpt lat="45.11895103998622" lon="10.019994140739035"><ele>33.0</ele><time>2026-04-18T04:47:51.999Z</time></trkpt><trkpt lat="45.11899957827607" lon="10.019923939561508"><ele>33.0</ele><time>2026-04-18T04:47:52.999Z</time></trkpt><trkpt lat="45.11904934731421" lon="10.019856216459875"><ele>33.0</ele><time>2026-04-18T04:47:53.999Z</time></trkpt><trkpt lat="45.119099151208054" lon="10.019785673111992"><ele>33.0</ele><time>2026-04-18T04:47:54.999Z</time></trkpt><trkpt lat="45.11914446788712" lon="10.019711767989483"><ele>33.0</ele><time>2026-04-18T04:47:55.999Z</time></trkpt><trkpt lat="45.11919028753908" lon="10.01963565278758"><ele>33.0</ele><time>2026-04-18T04:47:56.999Z</time></trkpt><trkpt lat="45.119233418159276" lon="10.019559825029663"><ele>33.0</ele><time>2026-04-18T04:47:57.999Z</time></trkpt><trkpt lat="45.11927609433485" lon="10.019482334763817"><ele>33.0</ele><time>2026-04-18T04:47:58.999Z</time></trkpt><trkpt lat="45.119314950381344" lon="10.01940034064289"><ele>33.0</ele><time>2026-04-18T04:47:59.999Z</time></trkpt><trkpt lat="45.11935266136769" lon="10.019316989481538"><ele>33.0</ele><time>2026-04-18T04:48:00.999Z</time></trkpt><trkpt lat="45.119390641363786" lon="10.019236255001033"><ele>33.0</ele><time>2026-04-18T04:48:01.999Z</time></trkpt><trkpt lat="45.11942812779976" lon="10.019152371249222"><ele>33.0</ele><time>2026-04-18T04:48:02.999Z</time></trkpt><trkpt lat="45.11946393465177" lon="10.019068499141824"><ele>33.0</ele><time>2026-04-18T04:48:03.999Z</time></trkpt><trkpt lat="45.11950103847811" lon="10.018983494687346"><ele>33.0</ele><time>2026-04-18T04:48:04.999Z</time></trkpt><trkpt lat="45.119535608453496" lon="10.018900256827692"><ele>32.857142857142854</ele><time>2026-04-18T04:48:05.999Z</time></trkpt><trkpt lat="45.11957083632643" lon="10.018817019446557"><ele>32.714285714285715</ele><time>2026-04-18T04:48:06.999Z</time></trkpt><trkpt lat="45.119603113271836" lon="10.018731837191918"><ele>32.57142857142857</ele><time>2026-04-18T04:48:07.999Z</time></trkpt><trkpt lat="45.11963678140109" lon="10.01864571610963"><ele>32.42857142857143</ele><time>2026-04-18T04:48:08.999Z</time></trkpt><trkpt lat="45.11967175654896" lon="10.018559195520831"><ele>32.285714285714285</ele><time>2026-04-18T04:48:09.999Z</time></trkpt><trkpt lat="45.11970594628844" lon="10.018475960909338"><ele>32.14285714285714</ele><time>2026-04-18T04:48:10.999Z</time></trkpt><trkpt lat="45.11974273153424" lon="10.018390108135943"><ele>32.0</ele><time>2026-04-18T04:48:11.999Z</time></trkpt><trkpt lat="45.119778093436786" lon="10.018305000567711"><ele>32.285714285714285</ele><time>2026-04-18T04:48:12.999Z</time></trkpt><trkpt lat="45.11981370903202" lon="10.018221154901145"><ele>32.57142857142857</ele><time>2026-04-18T04:48:13.999Z</time></trkpt><trkpt lat="45.11984873487582" lon="10.018136629285765"><ele>32.857142857142854</ele><time>2026-04-18T04:48:14.999Z</time></trkpt><trkpt lat="45.1198835006638" lon="10.018050927193778"><ele>33.14285714285714</ele><time>2026-04-18T04:48:15.999Z</time></trkpt><trkpt lat="45.11993164897541" lon="10.01797961733365"><ele>33.42857142857143</ele><time>2026-04-18T04:48:16.999Z</time></trkpt><trkpt lat="45.11996722836894" lon="10.017896011668704"><ele>33.71428571428571</ele><time>2026-04-18T04:48:17.999Z</time></trkpt><trkpt lat="45.12000243585819" lon="10.017813279942846"><ele>34.0</ele><time>2026-04-18T04:48:18.999Z</time></trkpt><trkpt lat="45.12002537243414" lon="10.017720054777364"><ele>33.99999999999999</ele><time>2026-04-18T04:48:19.999Z</time></trkpt><trkpt lat="45.120059448228886" lon="10.017638748820477"><ele>34.0</ele><time>2026-04-18T04:48:20.999Z</time></trkpt><trkpt lat="45.120093431496876" lon="10.017556999016238"><ele>34.0</ele><time>2026-04-18T04:48:21.999Z</time></trkpt><trkpt lat="45.12012784668352" lon="10.017475986087483"><ele>34.0</ele><time>2026-04-18T04:48:22.999Z</time></trkpt><trkpt lat="45.12016319518982" lon="10.017395031278733"><ele>34.0</ele><time>2026-04-18T04:48:23.999Z</time></trkpt><trkpt lat="45.120197191289435" lon="10.017311211077267"><ele>33.99999999999999</ele><time>2026-04-18T04:48:24.999Z</time></trkpt><trkpt lat="45.12023321086335" lon="10.017229862991346"><ele>34.0</ele><time>2026-04-18T04:48:25.999Z</time></trkpt><trkpt lat="45.1202690955612" lon="10.017148900443134"><ele>33.99999999999999</ele><time>2026-04-18T04:48:26.999Z</time></trkpt><trkpt lat="45.120305349664555" lon="10.017068432816654"><ele>34.0</ele><time>2026-04-18T04:48:27.999Z</time></trkpt><trkpt lat="45.12034279583869" lon="10.01698519687923"><ele>34.0</ele><time>2026-04-18T04:48:28.999Z</time></trkpt><trkpt lat="45.12037613489875" lon="10.016901223269613"><ele>34.0</ele><time>2026-04-18T04:48:29.999Z</time></trkpt><trkpt lat="45.1204089277418" lon="10.016818556963266"><ele>34.0</ele><time>2026-04-18T04:48:30.999Z</time></trkpt><trkpt lat="45.120444403302784" lon="10.016735927430645"><ele>33.99999999999999</ele><time>2026-04-18T04:48:31.999Z</time></trkpt><trkpt lat="45.12047979479102" lon="10.016654976626281"><ele>34.0</ele><time>2026-04-18T04:48:32.999Z</time></trkpt><trkpt lat="45.1205167741095" lon="10.016573026002932"><ele>33.857142857142854</ele><time>2026-04-18T04:48:33.999Z</time></trkpt><trkpt lat="45.12055120861237" lon="10.01649162766093"><ele>33.714285714285715</ele><time>2026-04-18T04:48:34.999Z</time></trkpt><trkpt lat="45.120588296824444" lon="10.016409289897018"><ele>33.57142857142857</ele><time>2026-04-18T04:48:35.999Z</time></trkpt><trkpt lat="45.12062618001535" lon="10.016328121309815"><ele>33.42857142857143</ele><time>2026-04-18T04:48:36.999Z</time></trkpt><trkpt lat="45.12067836165118" lon="10.016260992538916"><ele>33.285714285714285</ele><time>2026-04-18T04:48:37.999Z</time></trkpt><trkpt lat="45.120718842048184" lon="10.016184584958605"><ele>33.14285714285714</ele><time>2026-04-18T04:48:38.999Z</time></trkpt><trkpt lat="45.120760681937206" lon="10.01610721525272"><ele>33.0</ele><time>2026-04-18T04:48:39.999Z</time></trkpt><trkpt lat="45.12080366851031" lon="10.01602772502932"><ele>33.0</ele><time>2026-04-18T04:48:40.999Z</time></trkpt><trkpt lat="45.12084659866014" lon="10.015948339103042"><ele>33.0</ele><time>2026-04-18T04:48:41.999Z</time></trkpt><trkpt lat="45.12088924748497" lon="10.015869473523608"><ele>33.0</ele><time>2026-04-18T04:48:42.999Z</time></trkpt><trkpt lat="45.12092046867535" lon="10.015775764261546"><ele>33.0</ele><time>2026-04-18T04:48:43.998Z</time></trkpt><trkpt lat="45.12096342087041" lon="10.015697773275749"><ele>33.0</ele><time>2026-04-18T04:48:44.998Z</time></trkpt><trkpt lat="45.121006558559436" lon="10.015620164150986"><ele>33.0</ele><time>2026-04-18T04:48:45.998Z</time></trkpt><trkpt lat="45.12104989396871" lon="10.015540095942768"><ele>33.0</ele><time>2026-04-18T04:48:46.998Z</time></trkpt><trkpt lat="45.12109235756233" lon="10.015460908600186"><ele>33.14285714285714</ele><time>2026-04-18T04:48:47.998Z</time></trkpt><trkpt lat="45.121147698487015" lon="10.015397053821351"><ele>33.285714285714285</ele><time>2026-04-18T04:48:48.998Z</time></trkpt><trkpt lat="45.12117993337457" lon="10.015304672614029"><ele>33.42857142857143</ele><time>2026-04-18T04:48:49.998Z</time></trkpt><trkpt lat="45.12122369962679" lon="10.015225466374245"><ele>33.57142857142857</ele><time>2026-04-18T04:48:50.998Z</time></trkpt><trkpt lat="45.12126644682232" lon="10.015149805684288"><ele>33.714285714285715</ele><time>2026-04-18T04:48:51.998Z</time></trkpt><trkpt lat="45.121310688213576" lon="10.015073293483173"><ele>33.857142857142854</ele><time>2026-04-18T04:48:52.998Z</time></trkpt><trkpt lat="45.121354422979906" lon="10.014998406687848"><ele>34.0</ele><time>2026-04-18T04:48:53.998Z</time></trkpt><trkpt lat="45.121397268166426" lon="10.014922942047189"><ele>33.99999999999999</ele><time>2026-04-18T04:48:54.998Z</time></trkpt><trkpt lat="45.121442282349655" lon="10.014846958839662"><ele>34.0</ele><time>2026-04-18T04:48:55.998Z</time></trkpt><trkpt lat="45.12148891717042" lon="10.01477185232757"><ele>34.0</ele><time>2026-04-18T04:48:56.998Z</time></trkpt><trkpt lat="45.121534072911935" lon="10.014694710478551"><ele>34.0</ele><time>2026-04-18T04:48:57.998Z</time></trkpt><trkpt lat="45.12157987909785" lon="10.014619265406333"><ele>34.0</ele><time>2026-04-18T04:48:58.998Z</time></trkpt><trkpt lat="45.12162484832849" lon="10.014545216820196"><ele>33.99999999999999</ele><time>2026-04-18T04:48:59.998Z</time></trkpt><trkpt lat="45.1216731944459" lon="10.014469969177494"><ele>34.0</ele><time>2026-04-18T04:49:00.998Z</time></trkpt><trkpt lat="45.121717324866566" lon="10.014398025601283"><ele>33.71428571428571</ele><time>2026-04-18T04:49:01.998Z</time></trkpt><trkpt lat="45.12176332098278" lon="10.014324521324582"><ele>33.42857142857143</ele><time>2026-04-18T04:49:02.998Z</time></trkpt><trkpt lat="45.12181011155668" lon="10.014253049080782"><ele>33.14285714285714</ele><time>2026-04-18T04:49:03.998Z</time></trkpt><trkpt lat="45.12185515058203" lon="10.014179618415511"><ele>32.857142857142854</ele><time>2026-04-18T04:49:04.998Z</time></trkpt><trkpt lat="45.12190196961649" lon="10.014103799980246"><ele>32.57142857142857</ele><time>2026-04-18T04:49:05.998Z</time></trkpt><trkpt lat="45.12194768551615" lon="10.014030396018194"><ele>32.285714285714285</ele><time>2026-04-18T04:49:06.998Z</time></trkpt><trkpt lat="45.12199288265399" lon="10.013957521871845"><ele>32.0</ele><time>2026-04-18T04:49:07.998Z</time></trkpt><trkpt lat="45.12203915833824" lon="10.013884478915658"><ele>32.0</ele><time>2026-04-18T04:49:08.998Z</time></trkpt><trkpt lat="45.12208641869673" lon="10.013809852096125"><ele>31.999999999999996</ele><time>2026-04-18T04:49:09.998Z</time></trkpt><trkpt lat="45.12213183541827" lon="10.013734388174871"><ele>32.0</ele><time>2026-04-18T04:49:10.998Z</time></trkpt><trkpt lat="45.122178128481764" lon="10.013660168998625"><ele>32.0</ele><time>2026-04-18T04:49:11.998Z</time></trkpt><trkpt lat="45.12222382060594" lon="10.013586458836874"><ele>31.999999999999996</ele><time>2026-04-18T04:49:12.998Z</time></trkpt><trkpt lat="45.12227049553738" lon="10.013511800018035"><ele>32.0</ele><time>2026-04-18T04:49:13.998Z</time></trkpt><trkpt lat="45.12231748556477" lon="10.013438136047277"><ele>32.0</ele><time>2026-04-18T04:49:14.998Z</time></trkpt><trkpt lat="45.12236153391812" lon="10.013364950162126"><ele>31.857142857142854</ele><time>2026-04-18T04:49:15.998Z</time></trkpt><trkpt lat="45.12240845982755" lon="10.01328758835223"><ele>31.71428571428571</ele><time>2026-04-18T04:49:16.998Z</time></trkpt><trkpt lat="45.12245216546915" lon="10.013209401273242"><ele>31.57142857142857</ele><time>2026-04-18T04:49:17.998Z</time></trkpt><trkpt lat="45.122493341827145" lon="10.013130121901028"><ele>31.42857142857143</ele><time>2026-04-18T04:49:18.998Z</time></trkpt><trkpt lat="45.12253747232629" lon="10.01304995078041"><ele>31.28571428571429</ele><time>2026-04-18T04:49:19.998Z</time></trkpt><trkpt lat="45.122576450013575" lon="10.012968931997483"><ele>31.142857142857146</ele><time>2026-04-18T04:49:20.998Z</time></trkpt><trkpt lat="45.12261369477011" lon="10.012884009562264"><ele>31.0</ele><time>2026-04-18T04:49:21.998Z</time></trkpt><trkpt lat="45.122648194826986" lon="10.012799096317273"><ele>31.0</ele><time>2026-04-18T04:49:22.998Z</time></trkpt><trkpt lat="45.1226844469174" lon="10.012713200954122"><ele>31.000000000000004</ele><time>2026-04-18T04:49:23.998Z</time></trkpt><trkpt lat="45.122717868069216" lon="10.012630248244697"><ele>31.0</ele><time>2026-04-18T04:49:24.998Z</time></trkpt><trkpt lat="45.12275366054014" lon="10.01254356108899"><ele>31.0</ele><time>2026-04-18T04:49:25.998Z</time></trkpt><trkpt lat="45.12278553875485" lon="10.012457795512468"><ele>31.000000000000004</ele><time>2026-04-18T04:49:26.998Z</time></trkpt><trkpt lat="45.12281507936252" lon="10.012371072396302"><ele>31.0</ele><time>2026-04-18T04:49:27.998Z</time></trkpt><trkpt lat="45.12284431191229" lon="10.012282167808142"><ele>31.0</ele><time>2026-04-18T04:49:28.998Z</time></trkpt><trkpt lat="45.12287409239573" lon="10.01219489664347"><ele>31.42857142857143</ele><time>2026-04-18T04:49:29.998Z</time></trkpt><trkpt lat="45.12290381357016" lon="10.012107084417591"><ele>31.85714285714286</ele><time>2026-04-18T04:49:30.998Z</time></trkpt><trkpt lat="45.12293436767216" lon="10.012020533353876"><ele>32.285714285714285</ele><time>2026-04-18T04:49:31.998Z</time></trkpt><trkpt lat="45.122963706681354" lon="10.011931599267482"><ele>32.714285714285715</ele><time>2026-04-18T04:49:32.998Z</time></trkpt><trkpt lat="45.1229945583946" lon="10.011843016254147"><ele>33.14285714285714</ele><time>2026-04-18T04:49:33.998Z</time></trkpt><trkpt lat="45.12302358244207" lon="10.011755318039263"><ele>33.57142857142857</ele><time>2026-04-18T04:49:34.998Z</time></trkpt><trkpt lat="45.123051890645684" lon="10.011666725710256"><ele>34.0</ele><time>2026-04-18T04:49:35.998Z</time></trkpt><trkpt lat="45.12308143970534" lon="10.011578512068592"><ele>33.99999999999999</ele><time>2026-04-18T04:49:36.998Z</time></trkpt><trkpt lat="45.12311058714213" lon="10.011489379191262"><ele>34.0</ele><time>2026-04-18T04:49:37.998Z</time></trkpt><trkpt lat="45.123139255146484" lon="10.011401643951082"><ele>34.0</ele><time>2026-04-18T04:49:38.997Z</time></trkpt><trkpt lat="45.12316906681706" lon="10.011312550309784"><ele>34.0</ele><time>2026-04-18T04:49:39.997Z</time></trkpt><trkpt lat="45.12319750264063" lon="10.011224333483645"><ele>34.0</ele><time>2026-04-18T04:49:40.999Z</time></trkpt><trkpt lat="45.12322574094697" lon="10.011136335653639"><ele>33.99999999999999</ele><time>2026-04-18T04:49:41.999Z</time></trkpt><trkpt lat="45.123256284985" lon="10.011048246889922"><ele>34.0</ele><time>2026-04-18T04:49:42.999Z</time></trkpt><trkpt lat="45.12328668222788" lon="10.01096084505631"><ele>33.99999999999999</ele><time>2026-04-18T04:49:43.999Z</time></trkpt><trkpt lat="45.12331718469244" lon="10.010873010456525"><ele>34.0</ele><time>2026-04-18T04:49:44.999Z</time></trkpt><trkpt lat="45.123346938877035" lon="10.010784765372472"><ele>34.0</ele><time>2026-04-18T04:49:45.999Z</time></trkpt><trkpt lat="45.1233779565137" lon="10.010695315576273"><ele>34.0</ele><time>2026-04-18T04:49:46.999Z</time></trkpt><trkpt lat="45.12340682867891" lon="10.010608111282966"><ele>34.0</ele><time>2026-04-18T04:49:47.999Z</time></trkpt><trkpt lat="45.12343707410668" lon="10.010521339634014"><ele>33.99999999999999</ele><time>2026-04-18T04:49:48.999Z</time></trkpt><trkpt lat="45.12346729126717" lon="10.010433535922882"><ele>34.0</ele><time>2026-04-18T04:49:49.999Z</time></trkpt><trkpt lat="45.123496399621466" lon="10.010346048356551"><ele>33.99999999999999</ele><time>2026-04-18T04:49:50.999Z</time></trkpt><trkpt lat="45.12352565362022" lon="10.010256517736513"><ele>34.0</ele><time>2026-04-18T04:49:51.999Z</time></trkpt><trkpt lat="45.1235538990889" lon="10.010168286576098"><ele>34.0</ele><time>2026-04-18T04:49:52.999Z</time></trkpt><trkpt lat="45.12358276222651" lon="10.010079129287282"><ele>34.0</ele><time>2026-04-18T04:49:53.999Z</time></trkpt><trkpt lat="45.12361085632857" lon="10.009990901900537"><ele>34.0</ele><time>2026-04-18T04:49:54.999Z</time></trkpt><trkpt lat="45.123640143370444" lon="10.009902289669505"><ele>33.99999999999999</ele><time>2026-04-18T04:49:55.999Z</time></trkpt><trkpt lat="45.12366972546185" lon="10.009813535443515"><ele>34.0</ele><time>2026-04-18T04:49:56.999Z</time></trkpt><trkpt lat="45.12369915750116" lon="10.009725988287267"><ele>33.99999999999999</ele><time>2026-04-18T04:49:57.999Z</time></trkpt><trkpt lat="45.12372925002683" lon="10.009639442251796"><ele>34.0</ele><time>2026-04-18T04:49:58.999Z</time></trkpt><trkpt lat="45.12375862341225" lon="10.009551560044844"><ele>34.0</ele><time>2026-04-18T04:49:59.999Z</time></trkpt><trkpt lat="45.12378875771755" lon="10.009465565835521"><ele>34.0</ele><time>2026-04-18T04:50:00.999Z</time></trkpt><trkpt lat="45.123816034309385" lon="10.009376656076409"><ele>34.0</ele><time>2026-04-18T04:50:01.999Z</time></trkpt><trkpt lat="45.12384471867259" lon="10.009287527121064"><ele>33.99999999999999</ele><time>2026-04-18T04:50:02.999Z</time></trkpt><trkpt lat="45.12387280673032" lon="10.009199320172641"><ele>34.0</ele><time>2026-04-18T04:50:03.999Z</time></trkpt><trkpt lat="45.12390446661681" lon="10.009114061795096"><ele>33.99999999999999</ele><time>2026-04-18T04:50:04.999Z</time></trkpt><trkpt lat="45.12393462204744" lon="10.009026585558258"><ele>34.0</ele><time>2026-04-18T04:50:05.999Z</time></trkpt><trkpt lat="45.12396523769768" lon="10.008938119231015"><ele>34.0</ele><time>2026-04-18T04:50:06.999Z</time></trkpt><trkpt lat="45.12399464319035" lon="10.008850252023766"><ele>34.0</ele><time>2026-04-18T04:50:07.999Z</time></trkpt><trkpt lat="45.124024255762265" lon="10.00875949541341"><ele>34.0</ele><time>2026-04-18T04:50:08.999Z</time></trkpt><trkpt lat="45.12405365445524" lon="10.00866884897661"><ele>33.99999999999999</ele><time>2026-04-18T04:50:09.999Z</time></trkpt><trkpt lat="45.12408580131684" lon="10.0085784992316"><ele>34.0</ele><time>2026-04-18T04:50:10.999Z</time></trkpt><trkpt lat="45.12411689673977" lon="10.008488227755027"><ele>34.14285714285714</ele><time>2026-04-18T04:50:11.999Z</time></trkpt><trkpt lat="45.12414856026871" lon="10.008400956735226"><ele>34.285714285714285</ele><time>2026-04-18T04:50:12.999Z</time></trkpt><trkpt lat="45.124179396773144" lon="10.008311993024773"><ele>34.42857142857143</ele><time>2026-04-18T04:50:13.999Z</time></trkpt><trkpt lat="45.12420812993437" lon="10.008227148564998"><ele>34.57142857142857</ele><time>2026-04-18T04:50:14.999Z</time></trkpt><trkpt lat="45.12423530244474" lon="10.008144370438085"><ele>34.714285714285715</ele><time>2026-04-18T04:50:15.999Z</time></trkpt><trkpt lat="45.124260292283324" lon="10.008062191635377"><ele>34.857142857142854</ele><time>2026-04-18T04:50:16.999Z</time></trkpt><trkpt lat="45.12428712842603" lon="10.007979602347842"><ele>35.0</ele><time>2026-04-18T04:50:17.999Z</time></trkpt><trkpt lat="45.12431349746718" lon="10.007896097987452"><ele>35.4</ele><time>2026-04-18T04:50:18.999Z</time></trkpt><trkpt lat="45.124340692104305" lon="10.007812444974157"><ele>35.8</ele><time>2026-04-18T04:50:19.999Z</time></trkpt><trkpt lat="45.124392911863396" lon="10.007653344210759"><ele>36.2</ele><time>2026-04-18T04:50:21.999Z</time></trkpt><trkpt lat="45.1244399642458" lon="10.007501091828148"><ele>36.6</ele><time>2026-04-18T04:50:23.999Z</time></trkpt><trkpt lat="45.12448593161135" lon="10.007357690363346"><ele>37.0</ele><time>2026-04-18T04:50:25.999Z</time></trkpt><trkpt lat="45.124529562311245" lon="10.007223466424046"><ele>37.8</ele><time>2026-04-18T04:50:27.999Z</time></trkpt><trkpt lat="45.12457545128965" lon="10.007101766967772"><ele>38.6</ele><time>2026-04-18T04:50:29.999Z</time></trkpt><trkpt lat="45.124609344264144" lon="10.006984937942889"><ele>39.4</ele><time>2026-04-18T04:50:31.999Z</time></trkpt><trkpt lat="45.12451667604299" lon="10.006869759020688"><ele>40.199999999999996</ele><time>2026-04-18T04:50:33.999Z</time></trkpt><trkpt lat="45.12442290404193" lon="10.006773356229123"><ele>41.0</ele><time>2026-04-18T04:50:35.999Z</time></trkpt><trkpt lat="45.12431982318705" lon="10.00666482804163"><ele>40.99999999999999</ele><time>2026-04-18T04:50:37.999Z</time></trkpt><trkpt lat="45.1242637324435" lon="10.006605609186616"><ele>41.0</ele><time>2026-04-18T04:50:38.999Z</time></trkpt><trkpt lat="45.1242097760729" lon="10.006548430266081"><ele>41.0</ele><time>2026-04-18T04:50:39.999Z</time></trkpt><trkpt lat="45.12415473215024" lon="10.006490098888905"><ele>41.0</ele><time>2026-04-18T04:50:40.999Z</time></trkpt><trkpt lat="45.124095548723325" lon="10.006427380764222"><ele>41.0</ele><time>2026-04-18T04:50:41.999Z</time></trkpt><trkpt lat="45.12403852211216" lon="10.006366948273921"><ele>40.99999999999999</ele><time>2026-04-18T04:50:42.999Z</time></trkpt><trkpt lat="45.12398372364908" lon="10.006308877017497"><ele>41.0</ele><time>2026-04-18T04:50:43.999Z</time></trkpt><trkpt lat="45.123925692067175" lon="10.006260844431113"><ele>41.285714285714285</ele><time>2026-04-18T04:50:44.999Z</time></trkpt><trkpt lat="45.12387358657599" lon="10.006192756223776"><ele>41.57142857142857</ele><time>2026-04-18T04:50:45.999Z</time></trkpt><trkpt lat="45.12382156135023" lon="10.006124335269913"><ele>41.85714285714286</ele><time>2026-04-18T04:50:46.999Z</time></trkpt><trkpt lat="45.123765113276356" lon="10.006067705883785"><ele>42.14285714285714</ele><time>2026-04-18T04:50:47.998Z</time></trkpt><trkpt lat="45.123703461208784" lon="10.006012335834773"><ele>42.42857142857143</ele><time>2026-04-18T04:50:48.998Z</time></trkpt><trkpt lat="45.12364618318642" lon="10.005951714612822"><ele>42.714285714285715</ele><time>2026-04-18T04:50:49.998Z</time></trkpt><trkpt lat="45.12359207879639" lon="10.005894241274676"><ele>43.0</ele><time>2026-04-18T04:50:50.998Z</time></trkpt><trkpt lat="45.12354111312931" lon="10.005835858039594"><ele>43.0</ele><time>2026-04-18T04:50:51.998Z</time></trkpt><trkpt lat="45.12348720802665" lon="10.005777106569827"><ele>43.0</ele><time>2026-04-18T04:50:52.998Z</time></trkpt><trkpt lat="45.1234343619555" lon="10.005722988188998"><ele>43.0</ele><time>2026-04-18T04:50:53.998Z</time></trkpt><trkpt lat="45.12338233442374" lon="10.005670878696545"><ele>43.0</ele><time>2026-04-18T04:50:54.998Z</time></trkpt><trkpt lat="45.123331085567195" lon="10.005616633028234"><ele>43.0</ele><time>2026-04-18T04:50:55.998Z</time></trkpt><trkpt lat="45.12322611959219" lon="10.005504720117592"><ele>43.0</ele><time>2026-04-18T04:50:57.998Z</time></trkpt><trkpt lat="45.12317742551545" lon="10.00544781445769"><ele>42.0</ele><time>2026-04-18T04:50:58.998Z</time></trkpt><trkpt lat="45.123126918488" lon="10.005390507295974"><ele>41.0</ele><time>2026-04-18T04:50:59.998Z</time></trkpt><trkpt lat="45.123071906756685" lon="10.005342350285192"><ele>40.0</ele><time>2026-04-18T04:51:00.998Z</time></trkpt><trkpt lat="45.1229807049824" lon="10.005239843274511"><ele>39.0</ele><time>2026-04-18T04:51:02.999Z</time></trkpt><trkpt lat="45.12298025249311" lon="10.005082824282187"><ele>38.0</ele><time>2026-04-18T04:51:04.999Z</time></trkpt><trkpt lat="45.12305697361689" lon="10.00497565619593"><ele>38.25</ele><time>2026-04-18T04:51:06.999Z</time></trkpt><trkpt lat="45.12314142181773" lon="10.0048603296118"><ele>38.5</ele><time>2026-04-18T04:51:08.999Z</time></trkpt><trkpt lat="45.12323186103216" lon="10.004759166928311"><ele>38.75</ele><time>2026-04-18T04:51:10.999Z</time></trkpt><trkpt lat="45.12332410889581" lon="10.004658535446893"><ele>39.0</ele><time>2026-04-18T04:51:12.999Z</time></trkpt><trkpt lat="45.12341185796513" lon="10.004551310179147"><ele>39.0</ele><time>2026-04-18T04:51:14.999Z</time></trkpt><trkpt lat="45.12350894284078" lon="10.004446876293896"><ele>39.0</ele><time>2026-04-18T04:51:16.999Z</time></trkpt><trkpt lat="45.12359822263617" lon="10.00434444461493"><ele>39.0</ele><time>2026-04-18T04:51:18.999Z</time></trkpt><trkpt lat="45.12369063550606" lon="10.004241001687493"><ele>39.0</ele><time>2026-04-18T04:51:20.999Z</time></trkpt><trkpt lat="45.12377297652416" lon="10.004141707619498"><ele>38.4</ele><time>2026-04-18T04:51:22.999Z</time></trkpt><trkpt lat="45.12386141673871" lon="10.004040317543932"><ele>37.8</ele><time>2026-04-18T04:51:24.999Z</time></trkpt><trkpt lat="45.1239461459067" lon="10.003942427625068"><ele>37.2</ele><time>2026-04-18T04:51:26.999Z</time></trkpt><trkpt lat="45.12402856798545" lon="10.003844473970071"><ele>36.6</ele><time>2026-04-18T04:51:28.999Z</time></trkpt><trkpt lat="45.1241117296313" lon="10.003748021919032"><ele>36.0</ele><time>2026-04-18T04:51:30.999Z</time></trkpt><trkpt lat="45.12419294120017" lon="10.003653985603659"><ele>36.0</ele><time>2026-04-18T04:51:32.999Z</time></trkpt><trkpt lat="45.12427409718677" lon="10.003556222787463"><ele>36.0</ele><time>2026-04-18T04:51:34.999Z</time></trkpt><trkpt lat="45.1243525810349" lon="10.003452336353348"><ele>36.0</ele><time>2026-04-18T04:51:36.999Z</time></trkpt><trkpt lat="45.12442564919617" lon="10.003347340327766"><ele>36.0</ele><time>2026-04-18T04:51:38.999Z</time></trkpt><trkpt lat="45.1245051108532" lon="10.003237304796096"><ele>36.0</ele><time>2026-04-18T04:51:40.999Z</time></trkpt><trkpt lat="45.124580493227825" lon="10.003110027405004"><ele>34.5</ele><time>2026-04-18T04:51:42.999Z</time></trkpt><trkpt lat="45.12465649950866" lon="10.002977924291631"><ele>33.0</ele><time>2026-04-18T04:51:44.998Z</time></trkpt><trkpt lat="45.12472904279783" lon="10.00285338849858"><ele>31.5</ele><time>2026-04-18T04:51:47Z</time></trkpt><trkpt lat="45.124806954254865" lon="10.002738903714606"><ele>30.0</ele><time>2026-04-18T04:51:49Z</time></trkpt><trkpt lat="45.124878147136805" lon="10.002619796695193"><ele>30.5</ele><time>2026-04-18T04:51:51Z</time></trkpt><trkpt lat="45.12495596127212" lon="10.002499852441137"><ele>31.0</ele><time>2026-04-18T04:51:53Z</time></trkpt><trkpt lat="45.12504044785188" lon="10.002385642255204"><ele>31.5</ele><time>2026-04-18T04:51:55Z</time></trkpt><trkpt lat="45.125132719490736" lon="10.002273153425108"><ele>32.0</ele><time>2026-04-18T04:51:57Z</time></trkpt><trkpt lat="45.12522232393162" lon="10.002156045374539"><ele>32.0</ele><time>2026-04-18T04:51:59Z</time></trkpt><trkpt lat="45.12531195980348" lon="10.002041831138799"><ele>32.0</ele><time>2026-04-18T04:52:01Z</time></trkpt><trkpt lat="45.125399030255544" lon="10.001942688569025"><ele>32.0</ele><time>2026-04-18T04:52:03Z</time></trkpt><trkpt lat="45.12548889172957" lon="10.001840991259263"><ele>32.0</ele><time>2026-04-18T04:52:05Z</time></trkpt><trkpt lat="45.125578506905136" lon="10.001731881806323"><ele>31.400000000000002</ele><time>2026-04-18T04:52:07Z</time></trkpt><trkpt lat="45.12565961135308" lon="10.001639474530638"><ele>30.800000000000004</ele><time>2026-04-18T04:52:09Z</time></trkpt><trkpt lat="45.12575296717969" lon="10.001524031806284"><ele>30.2</ele><time>2026-04-18T04:52:11Z</time></trkpt><trkpt lat="45.12584855205467" lon="10.00143016871906"><ele>29.6</ele><time>2026-04-18T04:52:13Z</time></trkpt><trkpt lat="45.12592530327911" lon="10.001328324917916"><ele>29.0</ele><time>2026-04-18T04:52:15Z</time></trkpt><trkpt lat="45.125999269097484" lon="10.001242900861607"><ele>29.0</ele><time>2026-04-18T04:52:17Z</time></trkpt><trkpt lat="45.126086636362714" lon="10.001146423349851"><ele>29.0</ele><time>2026-04-18T04:52:19Z</time></trkpt><trkpt lat="45.126174514394236" lon="10.001051471821976"><ele>29.0</ele><time>2026-04-18T04:52:21Z</time></trkpt><trkpt lat="45.12625525336998" lon="10.000954935918918"><ele>29.0</ele><time>2026-04-18T04:52:23Z</time></trkpt><trkpt lat="45.12632716570834" lon="10.000850423433569"><ele>29.0</ele><time>2026-04-18T04:52:25Z</time></trkpt><trkpt lat="45.12640065157155" lon="10.000746757876167"><ele>29.0</ele><time>2026-04-18T04:52:27Z</time></trkpt><trkpt lat="45.12648121818689" lon="10.000652386791478"><ele>29.0</ele><time>2026-04-18T04:52:29Z</time></trkpt><trkpt lat="45.126566669128984" lon="10.000545192229643"><ele>29.0</ele><time>2026-04-18T04:52:31Z</time></trkpt><trkpt lat="45.1266544441132" lon="10.000445790502843"><ele>29.0</ele><time>2026-04-18T04:52:33Z</time></trkpt><trkpt lat="45.126741725831465" lon="10.000344753045098"><ele>29.0</ele><time>2026-04-18T04:52:35Z</time></trkpt><trkpt lat="45.1268340232463" lon="10.000249396433164"><ele>29.0</ele><time>2026-04-18T04:52:37Z</time></trkpt><trkpt lat="45.12693159377677" lon="10.000162993130704"><ele>29.0</ele><time>2026-04-18T04:52:39Z</time></trkpt><trkpt lat="45.12703455194353" lon="10.000076193270615"><ele>29.0</ele><time>2026-04-18T04:52:41Z</time></trkpt><trkpt lat="45.12713565256028" lon="9.999986328939478"><ele>29.0</ele><time>2026-04-18T04:52:43Z</time></trkpt><trkpt lat="45.12723900997259" lon="9.999905187751184"><ele>29.0</ele><time>2026-04-18T04:52:45Z</time></trkpt><trkpt lat="45.12734412647978" lon="9.99983802060822"><ele>29.0</ele><time>2026-04-18T04:52:47Z</time></trkpt><trkpt lat="45.12739312833827" lon="9.999781831782753"><ele>29.0</ele><time>2026-04-18T04:52:48Z</time></trkpt><trkpt lat="45.12751251668752" lon="9.999736271728812"><ele>29.0</ele><time>2026-04-18T04:52:50Z</time></trkpt><trkpt lat="45.12762677135325" lon="9.999710232356016"><ele>29.0</ele><time>2026-04-18T04:52:52Z</time></trkpt><trkpt lat="45.127689183564115" lon="9.999781441158172"><ele>31.0</ele><time>2026-04-18T04:52:53Z</time></trkpt><trkpt lat="45.12779862572703" lon="9.999836408982246"><ele>33.0</ele><time>2026-04-18T04:52:54.999Z</time></trkpt><trkpt lat="45.12785563672085" lon="9.999881124102075"><ele>35.0</ele><time>2026-04-18T04:52:55.999Z</time></trkpt><trkpt lat="45.12796525178964" lon="9.999951238694369"><ele>37.0</ele><time>2026-04-18T04:52:57.999Z</time></trkpt><trkpt lat="45.12806876281849" lon="10.000022588827038"><ele>39.0</ele><time>2026-04-18T04:52:59.999Z</time></trkpt><trkpt lat="45.12817386012735" lon="10.000096633610555"><ele>39.0</ele><time>2026-04-18T04:53:01.999Z</time></trkpt><trkpt lat="45.12827352947375" lon="10.000168740462344"><ele>39.0</ele><time>2026-04-18T04:53:03.999Z</time></trkpt><trkpt lat="45.128374722250626" lon="10.000247773846759"><ele>39.0</ele><time>2026-04-18T04:53:05.999Z</time></trkpt><trkpt lat="45.12847805575986" lon="10.000326430843641"><ele>39.0</ele><time>2026-04-18T04:53:07.999Z</time></trkpt><trkpt lat="45.12857768423465" lon="10.00039244130908"><ele>39.0</ele><time>2026-04-18T04:53:09.999Z</time></trkpt><trkpt lat="45.128674383040085" lon="10.000455504049075"><ele>39.0</ele><time>2026-04-18T04:53:11.999Z</time></trkpt><trkpt lat="45.12877339107008" lon="10.000519427310202"><ele>39.0</ele><time>2026-04-18T04:53:13.999Z</time></trkpt><trkpt lat="45.12886826150621" lon="10.000586515071566"><ele>39.0</ele><time>2026-04-18T04:53:15.999Z</time></trkpt><trkpt lat="45.12896633847043" lon="10.00065701803411"><ele>39.0</ele><time>2026-04-18T04:53:17.999Z</time></trkpt><trkpt lat="45.12905632000101" lon="10.000727006966923"><ele>39.0</ele><time>2026-04-18T04:53:19.999Z</time></trkpt><trkpt lat="45.12914266767743" lon="10.000786660936264"><ele>39.0</ele><time>2026-04-18T04:53:21.999Z</time></trkpt><trkpt lat="45.12922848174261" lon="10.000838540253273"><ele>39.0</ele><time>2026-04-18T04:53:23.999Z</time></trkpt><trkpt lat="45.1293092181326" lon="10.000903086793759"><ele>39.0</ele><time>2026-04-18T04:53:25.999Z</time></trkpt><trkpt lat="45.1293939877403" lon="10.000962324400803"><ele>39.0</ele><time>2026-04-18T04:53:27.999Z</time></trkpt><trkpt lat="45.12947686900753" lon="10.001020583621642"><ele>39.0</ele><time>2026-04-18T04:53:29.999Z</time></trkpt><trkpt lat="45.12956220113305" lon="10.001078657110398"><ele>39.0</ele><time>2026-04-18T04:53:31.999Z</time></trkpt><trkpt lat="45.129649458105085" lon="10.00114051004037"><ele>39.0</ele><time>2026-04-18T04:53:33.999Z</time></trkpt><trkpt lat="45.12973365792807" lon="10.001208495364041"><ele>39.0</ele><time>2026-04-18T04:53:35.999Z</time></trkpt><trkpt lat="45.129820744709086" lon="10.001270339288205"><ele>39.0</ele><time>2026-04-18T04:53:37.999Z</time></trkpt><trkpt lat="45.12990842021809" lon="10.001327418853737"><ele>39.142857142857146</ele><time>2026-04-18T04:53:39.999Z</time></trkpt><trkpt lat="45.12999796835964" lon="10.001378638587612"><ele>39.285714285714285</ele><time>2026-04-18T04:53:41.999Z</time></trkpt><trkpt lat="45.130055073501815" lon="10.001455557911555"><ele>39.42857142857143</ele><time>2026-04-18T04:53:43.999Z</time></trkpt><trkpt lat="45.13007490891446" lon="10.001370442021386"><ele>39.57142857142857</ele><time>2026-04-18T05:00:05.998Z</time></trkpt><trkpt lat="45.13012878771125" lon="10.001318556864806"><ele>39.714285714285715</ele><time>2026-04-18T05:00:07.998Z</time></trkpt><trkpt lat="45.13019061108456" lon="10.001266976284905"><ele>39.857142857142854</ele><time>2026-04-18T05:00:10Z</time></trkpt><trkpt lat="45.130224818002304" lon="10.00118406644797"><ele>40.0</ele><time>2026-04-18T05:00:12Z</time></trkpt><trkpt lat="45.130275956937474" lon="10.001079414491846"><ele>40.0</ele><time>2026-04-18T05:00:15Z</time></trkpt><trkpt lat="45.13031377553377" lon="10.0009861853204"><ele>40.0</ele><time>2026-04-18T05:00:17Z</time></trkpt><trkpt lat="45.130354013005665" lon="10.00088313775203"><ele>40.0</ele><time>2026-04-18T05:00:19Z</time></trkpt><trkpt lat="45.130391620861005" lon="10.000765662254564"><ele>40.0</ele><time>2026-04-18T05:00:21Z</time></trkpt><trkpt lat="45.13042388832497" lon="10.000645738403238"><ele>40.0</ele><time>2026-04-18T05:00:23Z</time></trkpt><trkpt lat="45.13044872777097" lon="10.000517904283775"><ele>40.0</ele><time>2026-04-18T05:00:25Z</time></trkpt><trkpt lat="45.13045551095611" lon="10.000379506374363"><ele>40.2</ele><time>2026-04-18T05:00:27Z</time></trkpt><trkpt lat="45.13045141827375" lon="10.000240705033503"><ele>40.4</ele><time>2026-04-18T05:00:29Z</time></trkpt><trkpt lat="45.13043186423142" lon="10.000092412481846"><ele>40.599999999999994</ele><time>2026-04-18T05:00:31Z</time></trkpt><trkpt lat="45.13041883121064" lon="9.99998523378549"><ele>40.8</ele><time>2026-04-18T05:00:33Z</time></trkpt><trkpt lat="45.13045172044535" lon="9.999879103452084"><ele>41.0</ele><time>2026-04-18T05:00:35Z</time></trkpt><trkpt lat="45.13043356331992" lon="9.999712099116241"><ele>41.0</ele><time>2026-04-18T05:00:36Z</time></trkpt><trkpt lat="45.13041730866728" lon="9.999562921208506"><ele>41.0</ele><time>2026-04-18T05:00:38Z</time></trkpt><trkpt lat="45.130376057088924" lon="9.999420482609022"><ele>41.0</ele><time>2026-04-18T05:00:40Z</time></trkpt><trkpt lat="45.130361004164754" lon="9.999274533136532"><ele>41.0</ele><time>2026-04-18T05:00:42Z</time></trkpt><trkpt lat="45.13034524015891" lon="9.999133617826988"><ele>41.0</ele><time>2026-04-18T05:00:44Z</time></trkpt><trkpt lat="45.130324444968885" lon="9.998989738352527"><ele>41.0</ele><time>2026-04-18T05:00:46Z</time></trkpt><trkpt lat="45.13031054865231" lon="9.99884250564451"><ele>41.0</ele><time>2026-04-18T05:00:48Z</time></trkpt><trkpt lat="45.13028999396617" lon="9.9986944330342"><ele>41.0</ele><time>2026-04-18T05:00:50Z</time></trkpt><trkpt lat="45.130267442552096" lon="9.998541048592129"><ele>41.0</ele><time>2026-04-18T05:00:52Z</time></trkpt><trkpt lat="45.130256931368585" lon="9.998394373161855"><ele>41.0</ele><time>2026-04-18T05:00:54Z</time></trkpt><trkpt lat="45.13024200793085" lon="9.998248522183735"><ele>40.8</ele><time>2026-04-18T05:00:56Z</time></trkpt><trkpt lat="45.13022190103095" lon="9.998101560440935"><ele>40.599999999999994</ele><time>2026-04-18T05:00:58Z</time></trkpt><trkpt lat="45.13019647893977" lon="9.997952968281323"><ele>40.4</ele><time>2026-04-18T05:01:00Z</time></trkpt><trkpt lat="45.13017626751449" lon="9.997803129928926"><ele>40.2</ele><time>2026-04-18T05:01:02Z</time></trkpt><trkpt lat="45.1301600841704" lon="9.997659697680934"><ele>40.0</ele><time>2026-04-18T05:01:04Z</time></trkpt><trkpt lat="45.13014703452295" lon="9.997511888645114"><ele>40.0</ele><time>2026-04-18T05:01:06Z</time></trkpt><trkpt lat="45.13012774615079" lon="9.997360976807087"><ele>40.0</ele><time>2026-04-18T05:01:08Z</time></trkpt><trkpt lat="45.130105644287354" lon="9.997206376156427"><ele>40.0</ele><time>2026-04-18T05:01:09.999Z</time></trkpt><trkpt lat="45.13008113297541" lon="9.997062463151952"><ele>40.0</ele><time>2026-04-18T05:01:11.999Z</time></trkpt><trkpt lat="45.13006052508026" lon="9.99690111499421"><ele>40.0</ele><time>2026-04-18T05:01:13.999Z</time></trkpt><trkpt lat="45.13004572019312" lon="9.996741597982158"><ele>39.6</ele><time>2026-04-18T05:01:15.999Z</time></trkpt><trkpt lat="45.13003146700313" lon="9.996591315695753"><ele>39.2</ele><time>2026-04-18T05:01:17.999Z</time></trkpt><trkpt lat="45.130001931306396" lon="9.996442493229326"><ele>38.8</ele><time>2026-04-18T05:01:19.999Z</time></trkpt><trkpt lat="45.129967137043764" lon="9.996303589188804"><ele>38.4</ele><time>2026-04-18T05:01:21.999Z</time></trkpt><trkpt lat="45.12990967338649" lon="9.996179785136468"><ele>38.0</ele><time>2026-04-18T05:01:23.999Z</time></trkpt><trkpt lat="45.12984959982729" lon="9.996075117057586"><ele>38.0</ele><time>2026-04-18T05:01:25.999Z</time></trkpt><trkpt lat="45.12978482888761" lon="9.99597569955305"><ele>38.0</ele><time>2026-04-18T05:01:27.999Z</time></trkpt><trkpt lat="45.129699760679514" lon="9.995910555093456"><ele>38.0</ele><time>2026-04-18T05:01:29.999Z</time></trkpt><trkpt lat="45.12961114022829" lon="9.99584586704413"><ele>38.0</ele><time>2026-04-18T05:01:31.999Z</time></trkpt><trkpt lat="45.129523488020055" lon="9.99577523023772"><ele>38.0</ele><time>2026-04-18T05:01:33.999Z</time></trkpt><trkpt lat="45.12943158208062" lon="9.995684321224301"><ele>37.25</ele><time>2026-04-18T05:01:35.999Z</time></trkpt><trkpt lat="45.12935500193641" lon="9.995537314465947"><ele>36.5</ele><time>2026-04-18T05:01:37.999Z</time></trkpt><trkpt lat="45.12925587261522" lon="9.995452300416002"><ele>35.75</ele><time>2026-04-18T05:01:39.999Z</time></trkpt><trkpt lat="45.12915456159632" lon="9.995365415376014"><ele>35.0</ele><time>2026-04-18T05:01:41.999Z</time></trkpt><trkpt lat="45.129052382281046" lon="9.995277785697139"><ele>34.6</ele><time>2026-04-18T05:01:43.999Z</time></trkpt><trkpt lat="45.12894867332697" lon="9.995188844069895"><ele>34.2</ele><time>2026-04-18T05:01:45.999Z</time></trkpt><trkpt lat="45.128893597683955" lon="9.995141610868536"><ele>33.8</ele><time>2026-04-18T05:01:46.999Z</time></trkpt><trkpt lat="45.12879255261085" lon="9.995054953804942"><ele>33.4</ele><time>2026-04-18T05:01:48.999Z</time></trkpt><trkpt lat="45.128685627821405" lon="9.994962742424498"><ele>33.0</ele><time>2026-04-18T05:01:50.999Z</time></trkpt><trkpt lat="45.12863044229907" lon="9.994914793376374"><ele>31.75</ele><time>2026-04-18T05:01:51.999Z</time></trkpt><trkpt lat="45.12852818996644" lon="9.994825949416636"><ele>30.5</ele><time>2026-04-18T05:01:53.999Z</time></trkpt><trkpt lat="45.12842578893055" lon="9.994736976303066"><ele>29.25</ele><time>2026-04-18T05:01:55.999Z</time></trkpt><trkpt lat="45.12832174220161" lon="9.99464680330656"><ele>28.0</ele><time>2026-04-18T05:01:57.999Z</time></trkpt><trkpt lat="45.12821670215175" lon="9.994556398732293"><ele>28.0</ele><time>2026-04-18T05:01:59.999Z</time></trkpt><trkpt lat="45.128116979921145" lon="9.994470571033403"><ele>28.0</ele><time>2026-04-18T05:02:01.999Z</time></trkpt><trkpt lat="45.12801338411929" lon="9.994381409432687"><ele>28.0</ele><time>2026-04-18T05:02:03.999Z</time></trkpt><trkpt lat="45.12790923720556" lon="9.99429199061075"><ele>28.0</ele><time>2026-04-18T05:02:05.998Z</time></trkpt><trkpt lat="45.12780395535272" lon="9.994201579221413"><ele>28.0</ele><time>2026-04-18T05:02:07.998Z</time></trkpt><trkpt lat="45.12769933822935" lon="9.994111357315397"><ele>27.999999999999996</ele><time>2026-04-18T05:02:09.998Z</time></trkpt><trkpt lat="45.127594391074375" lon="9.994020850804826"><ele>27.999999999999996</ele><time>2026-04-18T05:02:11.998Z</time></trkpt><trkpt lat="45.12754020895096" lon="9.9939741241019"><ele>28.0</ele><time>2026-04-18T05:02:12.998Z</time></trkpt><trkpt lat="45.127435224870574" lon="9.993883585786746"><ele>28.0</ele><time>2026-04-18T05:02:15Z</time></trkpt><trkpt lat="45.127331730065094" lon="9.993794331715904"><ele>30.25</ele><time>2026-04-18T05:02:17Z</time></trkpt><trkpt lat="45.12722612948188" lon="9.99370326161178"><ele>32.5</ele><time>2026-04-18T05:02:19Z</time></trkpt><trkpt lat="45.127116399888706" lon="9.993608769938742"><ele>34.75</ele><time>2026-04-18T05:02:21Z</time></trkpt><trkpt lat="45.12701156893879" lon="9.993518710985635"><ele>37.0</ele><time>2026-04-18T05:02:23Z</time></trkpt><trkpt lat="45.12690650505847" lon="9.99342843706516"><ele>37.4</ele><time>2026-04-18T05:02:25Z</time></trkpt><trkpt lat="45.12680022252781" lon="9.993336368948176"><ele>37.800000000000004</ele><time>2026-04-18T05:02:27Z</time></trkpt><trkpt lat="45.126692946326315" lon="9.9932434400844"><ele>38.2</ele><time>2026-04-18T05:02:29Z</time></trkpt><trkpt lat="45.12660883838704" lon="9.99326999368772"><ele>38.6</ele><time>2026-04-18T05:02:30Z</time></trkpt><trkpt lat="45.126555262320586" lon="9.993222320428446"><ele>39.0</ele><time>2026-04-18T05:02:31Z</time></trkpt><trkpt lat="45.126533073966165" lon="9.99310494931222"><ele>39.0</ele><time>2026-04-18T05:02:32Z</time></trkpt><trkpt lat="45.126478197822216" lon="9.993057803761985"><ele>39.0</ele><time>2026-04-18T05:02:33Z</time></trkpt><trkpt lat="45.12637360856652" lon="9.992968263357033"><ele>39.0</ele><time>2026-04-18T05:02:35Z</time></trkpt><trkpt lat="45.126268285848724" lon="9.992878095124027"><ele>39.0</ele><time>2026-04-18T05:02:37Z</time></trkpt><trkpt lat="45.12616208638987" lon="9.992787176328306"><ele>39.0</ele><time>2026-04-18T05:02:39Z</time></trkpt><trkpt lat="45.126108078155056" lon="9.992740939129776"><ele>39.0</ele><time>2026-04-18T05:02:40Z</time></trkpt><trkpt lat="45.126001586372645" lon="9.99264969136999"><ele>39.0</ele><time>2026-04-18T05:02:42Z</time></trkpt><trkpt lat="45.125898090441815" lon="9.992560560328153"><ele>39.0</ele><time>2026-04-18T05:02:44Z</time></trkpt><trkpt lat="45.12579281492255" lon="9.992469896613468"><ele>39.0</ele><time>2026-04-18T05:02:46Z</time></trkpt><trkpt lat="45.12568364933889" lon="9.99237625474206"><ele>39.333333333333336</ele><time>2026-04-18T05:02:48Z</time></trkpt><trkpt lat="45.125629558800256" lon="9.99233025720141"><ele>39.666666666666664</ele><time>2026-04-18T05:02:49Z</time></trkpt><trkpt lat="45.1255745147413" lon="9.992283448884383"><ele>40.0</ele><time>2026-04-18T05:02:50Z</time></trkpt><trkpt lat="45.12546907422798" lon="9.992193462293532"><ele>40.33333333333333</ele><time>2026-04-18T05:02:52Z</time></trkpt><trkpt lat="45.125414544602876" lon="9.992145676171843"><ele>40.666666666666664</ele><time>2026-04-18T05:02:53Z</time></trkpt><trkpt lat="45.125311610011146" lon="9.992055471147648"><ele>41.0</ele><time>2026-04-18T05:02:55Z</time></trkpt><trkpt lat="45.125255804518396" lon="9.99200656707356"><ele>41.0</ele><time>2026-04-18T05:02:56Z</time></trkpt><trkpt lat="45.12520208150676" lon="9.991959487715613"><ele>41.0</ele><time>2026-04-18T05:02:57Z</time></trkpt><trkpt lat="45.125148110777246" lon="9.991912881306614"><ele>41.0</ele><time>2026-04-18T05:02:58Z</time></trkpt><trkpt lat="45.12504126525405" lon="9.991821456761713"><ele>41.0</ele><time>2026-04-18T05:03:00Z</time></trkpt><trkpt lat="45.124987258776315" lon="9.991775245025508"><ele>41.0</ele><time>2026-04-18T05:03:01Z</time></trkpt><trkpt lat="45.12487991719628" lon="9.991683396068348"><ele>41.0</ele><time>2026-04-18T05:03:03Z</time></trkpt><trkpt lat="45.12477267187534" lon="9.9915901939567"><ele>40.599999999999994</ele><time>2026-04-18T05:03:05Z</time></trkpt><trkpt lat="45.124667401793594" lon="9.991498581971612"><ele>40.199999999999996</ele><time>2026-04-18T05:03:07Z</time></trkpt><trkpt lat="45.124560767575424" lon="9.991406401114123"><ele>39.8</ele><time>2026-04-18T05:03:09Z</time></trkpt><trkpt lat="45.12450594352221" lon="9.991359209921292"><ele>39.4</ele><time>2026-04-18T05:03:10Z</time></trkpt><trkpt lat="45.12445197811936" lon="9.991312757710306"><ele>39.0</ele><time>2026-04-18T05:03:11Z</time></trkpt><trkpt lat="45.12434473803112" lon="9.991220447955081"><ele>39.0</ele><time>2026-04-18T05:03:13Z</time></trkpt><trkpt lat="45.124289820036424" lon="9.991173175812932"><ele>39.0</ele><time>2026-04-18T05:03:14Z</time></trkpt><trkpt lat="45.124235246429365" lon="9.991126200127152"><ele>39.0</ele><time>2026-04-18T05:03:15Z</time></trkpt><trkpt lat="45.12414639693292" lon="9.991157278960847"><ele>39.0</ele><time>2026-04-18T05:03:16Z</time></trkpt><trkpt lat="45.12404339786316" lon="9.991059405759572"><ele>39.0</ele><time>2026-04-18T05:03:17.999Z</time></trkpt><trkpt lat="45.123986402979355" lon="9.991018193986164"><ele>39.0</ele><time>2026-04-18T05:03:18.999Z</time></trkpt><trkpt lat="45.12393393090477" lon="9.990966432298071"><ele>39.2</ele><time>2026-04-18T05:03:19.999Z</time></trkpt><trkpt lat="45.123876782459774" lon="9.990922741493213"><ele>39.4</ele><time>2026-04-18T05:03:20.999Z</time></trkpt><trkpt lat="45.12377423175414" lon="9.990818342154244"><ele>39.6</ele><time>2026-04-18T05:03:22.999Z</time></trkpt><trkpt lat="45.12366501997541" lon="9.99073022638567"><ele>39.8</ele><time>2026-04-18T05:03:24.999Z</time></trkpt><trkpt lat="45.12361025609037" lon="9.990683870163988"><ele>40.0</ele><time>2026-04-18T05:03:25.999Z</time></trkpt><trkpt lat="45.12350190140587" lon="9.990590284307968"><ele>40.0</ele><time>2026-04-18T05:03:27.999Z</time></trkpt><trkpt lat="45.12342580959934" lon="9.990428264406908"><ele>40.0</ele><time>2026-04-18T05:03:29.999Z</time></trkpt><trkpt lat="45.123371958649905" lon="9.990381550590428"><ele>40.0</ele><time>2026-04-18T05:03:30.999Z</time></trkpt><trkpt lat="45.123317588673935" lon="9.990334388062568"><ele>40.0</ele><time>2026-04-18T05:03:31.999Z</time></trkpt><trkpt lat="45.12326228187078" lon="9.990286411305515"><ele>40.0</ele><time>2026-04-18T05:03:32.999Z</time></trkpt><trkpt lat="45.12320758334329" lon="9.990238962199523"><ele>40.0</ele><time>2026-04-18T05:03:33.999Z</time></trkpt><trkpt lat="45.123152718592166" lon="9.990191368842428"><ele>40.0</ele><time>2026-04-18T05:03:34.999Z</time></trkpt><trkpt lat="45.12309900143446" lon="9.990144771012135"><ele>40.0</ele><time>2026-04-18T05:03:35.999Z</time></trkpt><trkpt lat="45.12304505273457" lon="9.990097972351803"><ele>40.0</ele><time>2026-04-18T05:03:36.999Z</time></trkpt><trkpt lat="45.12299090372659" lon="9.990050999897113"><ele>40.0</ele><time>2026-04-18T05:03:37.999Z</time></trkpt><trkpt lat="45.12288512808827" lon="9.989959688634945"><ele>40.0</ele><time>2026-04-18T05:03:39.999Z</time></trkpt><trkpt lat="45.122830760052416" lon="9.989912929442182"><ele>40.0</ele><time>2026-04-18T05:03:40.999Z</time></trkpt><trkpt lat="45.12272533802739" lon="9.98982226136452"><ele>40.0</ele><time>2026-04-18T05:03:42.999Z</time></trkpt><trkpt lat="45.12261980279769" lon="9.989731495924048"><ele>40.0</ele><time>2026-04-18T05:03:44.999Z</time></trkpt><trkpt lat="45.122518851219816" lon="9.989644672710616"><ele>40.0</ele><time>2026-04-18T05:03:46.999Z</time></trkpt><trkpt lat="45.12241788777169" lon="9.989556172910982"><ele>40.0</ele><time>2026-04-18T05:03:48.999Z</time></trkpt><trkpt lat="45.122312345059626" lon="9.989462052440336"><ele>39.8</ele><time>2026-04-18T05:03:50.999Z</time></trkpt><trkpt lat="45.122212550803674" lon="9.989380303962609"><ele>39.6</ele><time>2026-04-18T05:03:52.999Z</time></trkpt><trkpt lat="45.122106893349205" lon="9.989301844234117"><ele>39.4</ele><time>2026-04-18T05:03:54.999Z</time></trkpt><trkpt lat="45.121994962440105" lon="9.98922316042464"><ele>39.2</ele><time>2026-04-18T05:03:56.999Z</time></trkpt><trkpt lat="45.12193174150493" lon="9.98919497351224"><ele>39.0</ele><time>2026-04-18T05:03:57.999Z</time></trkpt><trkpt lat="45.12180626686559" lon="9.989162219361772"><ele>39.0</ele><time>2026-04-18T05:03:59.999Z</time></trkpt><trkpt lat="45.121741234929814" lon="9.989155005833807"><ele>39.0</ele><time>2026-04-18T05:04:00.999Z</time></trkpt><trkpt lat="45.12167346941132" lon="9.98915615711843"><ele>39.0</ele><time>2026-04-18T05:04:01.999Z</time></trkpt><trkpt lat="45.121603896412694" lon="9.989165723833144"><ele>39.0</ele><time>2026-04-18T05:04:02.999Z</time></trkpt><trkpt lat="45.121531298867254" lon="9.989193499990142"><ele>39.0</ele><time>2026-04-18T05:04:03.999Z</time></trkpt><trkpt lat="45.1214657965363" lon="9.989224752191417"><ele>39.0</ele><time>2026-04-18T05:04:04.999Z</time></trkpt><trkpt lat="45.121403930179206" lon="9.989259622252417"><ele>39.0</ele><time>2026-04-18T05:04:05.999Z</time></trkpt><trkpt lat="45.1213453845214" lon="9.989294297850678"><ele>38.25</ele><time>2026-04-18T05:04:06.999Z</time></trkpt><trkpt lat="45.12123255861741" lon="9.98936083619266"><ele>37.5</ele><time>2026-04-18T05:04:08.999Z</time></trkpt><trkpt lat="45.12112202824156" lon="9.989427690411812"><ele>36.75</ele><time>2026-04-18T05:04:10.999Z</time></trkpt><trkpt lat="45.121017158240456" lon="9.989491378479018"><ele>36.0</ele><time>2026-04-18T05:04:12.998Z</time></trkpt><trkpt lat="45.120929918864206" lon="9.989544359326379"><ele>36.0</ele><time>2026-04-18T05:04:14.998Z</time></trkpt><trkpt lat="45.12086581188209" lon="9.98958329154772"><ele>36.0</ele><time>2026-04-18T05:04:17.998Z</time></trkpt><trkpt lat="45.120797356396906" lon="9.989624153144922"><ele>36.0</ele><time>2026-04-18T05:04:24Z</time></trkpt><trkpt lat="45.12071259549732" lon="9.989654102895022"><ele>36.0</ele><time>2026-04-18T05:04:27Z</time></trkpt><trkpt lat="45.12062049413068" lon="9.98970288561551"><ele>36.0</ele><time>2026-04-18T05:04:29Z</time></trkpt><trkpt lat="45.120522286811116" lon="9.989767405462606"><ele>36.0</ele><time>2026-04-18T05:04:31Z</time></trkpt><trkpt lat="45.120417144231375" lon="9.989826482635422"><ele>36.42857142857143</ele><time>2026-04-18T05:04:33Z</time></trkpt><trkpt lat="45.12030725366127" lon="9.989891533963043"><ele>36.85714285714286</ele><time>2026-04-18T05:04:35Z</time></trkpt><trkpt lat="45.120249173909755" lon="9.98992706533308"><ele>37.28571428571429</ele><time>2026-04-18T05:04:36Z</time></trkpt><trkpt lat="45.12018921281959" lon="9.989960017620911"><ele>37.714285714285715</ele><time>2026-04-18T05:04:37Z</time></trkpt><trkpt lat="45.12012930809662" lon="9.989994106836399"><ele>38.14285714285714</ele><time>2026-04-18T05:04:38Z</time></trkpt><trkpt lat="45.12006823968624" lon="9.990029591094272"><ele>38.57142857142858</ele><time>2026-04-18T05:04:39Z</time></trkpt><trkpt lat="45.120006096688165" lon="9.990066157654587"><ele>39.0</ele><time>2026-04-18T05:04:40Z</time></trkpt><trkpt lat="45.119943760243665" lon="9.990103976811497"><ele>38.57142857142858</ele><time>2026-04-18T05:04:41Z</time></trkpt><trkpt lat="45.11988175139047" lon="9.99014369616737"><ele>38.14285714285714</ele><time>2026-04-18T05:04:42Z</time></trkpt><trkpt lat="45.11981636665861" lon="9.99018193124435"><ele>37.714285714285715</ele><time>2026-04-18T05:04:43Z</time></trkpt><trkpt lat="45.11975041657529" lon="9.990218820918361"><ele>37.28571428571429</ele><time>2026-04-18T05:04:44Z</time></trkpt><trkpt lat="45.11968676607611" lon="9.99026091186874"><ele>36.85714285714286</ele><time>2026-04-18T05:04:45Z</time></trkpt><trkpt lat="45.119622494033734" lon="9.990302032025912"><ele>36.42857142857143</ele><time>2026-04-18T05:04:46Z</time></trkpt><trkpt lat="45.11955628990957" lon="9.990339850467583"><ele>36.0</ele><time>2026-04-18T05:04:47Z</time></trkpt><trkpt lat="45.11949211095176" lon="9.990380582311323"><ele>36.00000000000001</ele><time>2026-04-18T05:04:48Z</time></trkpt><trkpt lat="45.119426910050734" lon="9.99042037486755"><ele>36.0</ele><time>2026-04-18T05:04:49Z</time></trkpt><trkpt lat="45.119362168825084" lon="9.990462967704481"><ele>36.0</ele><time>2026-04-18T05:04:50Z</time></trkpt><trkpt lat="45.119297582865485" lon="9.990501157477649"><ele>36.0</ele><time>2026-04-18T05:04:51Z</time></trkpt><trkpt lat="45.11923230697089" lon="9.990540353840698"><ele>36.0</ele><time>2026-04-18T05:04:52Z</time></trkpt><trkpt lat="45.119169540017396" lon="9.990580464757532"><ele>36.00000000000001</ele><time>2026-04-18T05:04:53Z</time></trkpt><trkpt lat="45.11910472784105" lon="9.99062187123959"><ele>36.0</ele><time>2026-04-18T05:04:54Z</time></trkpt><trkpt lat="45.11904013085121" lon="9.990661742308447"><ele>36.00000000000001</ele><time>2026-04-18T05:04:55Z</time></trkpt><trkpt lat="45.118975891556275" lon="9.990699305382643"><ele>36.0</ele><time>2026-04-18T05:04:56Z</time></trkpt><trkpt lat="45.118910833696454" lon="9.990735034571282"><ele>36.0</ele><time>2026-04-18T05:04:57Z</time></trkpt><trkpt lat="45.11884498574504" lon="9.990776223038782"><ele>36.0</ele><time>2026-04-18T05:04:58Z</time></trkpt><trkpt lat="45.11878106825642" lon="9.990815201061217"><ele>36.0</ele><time>2026-04-18T05:04:59Z</time></trkpt><trkpt lat="45.11871755299604" lon="9.990854215044058"><ele>36.00000000000001</ele><time>2026-04-18T05:05:00Z</time></trkpt><trkpt lat="45.11865188142111" lon="9.990892765087086"><ele>36.0</ele><time>2026-04-18T05:05:01Z</time></trkpt><trkpt lat="45.118587697436254" lon="9.990932335954959"><ele>35.714285714285715</ele><time>2026-04-18T05:05:02Z</time></trkpt><trkpt lat="45.11852438891976" lon="9.990972291348845"><ele>35.42857142857143</ele><time>2026-04-18T05:05:03Z</time></trkpt><trkpt lat="45.11845948749987" lon="9.991012806199922"><ele>35.14285714285714</ele><time>2026-04-18T05:05:04Z</time></trkpt><trkpt lat="45.11839564924145" lon="9.99105343340949"><ele>34.85714285714286</ele><time>2026-04-18T05:05:05Z</time></trkpt><trkpt lat="45.118331914145784" lon="9.991091880334697"><ele>34.57142857142857</ele><time>2026-04-18T05:05:06Z</time></trkpt><trkpt lat="45.11826649052705" lon="9.99113071842696"><ele>34.285714285714285</ele><time>2026-04-18T05:05:07Z</time></trkpt><trkpt lat="45.11820138875456" lon="9.991169730169517"><ele>34.0</ele><time>2026-04-18T05:05:08Z</time></trkpt><trkpt lat="45.118137547650754" lon="9.991208394898466"><ele>34.71428571428571</ele><time>2026-04-18T05:05:09Z</time></trkpt><trkpt lat="45.118075056276446" lon="9.991246390735"><ele>35.42857142857143</ele><time>2026-04-18T05:05:10Z</time></trkpt><trkpt lat="45.11801203656934" lon="9.991283967626769"><ele>36.14285714285714</ele><time>2026-04-18T05:05:11Z</time></trkpt><trkpt lat="45.11794847135424" lon="9.991323169513455"><ele>36.857142857142854</ele><time>2026-04-18T05:05:12Z</time></trkpt><trkpt lat="45.11788522028922" lon="9.991358994598654"><ele>37.57142857142857</ele><time>2026-04-18T05:05:13Z</time></trkpt><trkpt lat="45.11782348499325" lon="9.991397655156515"><ele>38.285714285714285</ele><time>2026-04-18T05:05:14Z</time></trkpt><trkpt lat="45.11776125162103" lon="9.991433403421892"><ele>39.0</ele><time>2026-04-18T05:05:15Z</time></trkpt><trkpt lat="45.11769912699268" lon="9.99146874381642"><ele>39.0</ele><time>2026-04-18T05:05:16Z</time></trkpt><trkpt lat="45.11763829996421" lon="9.99150731289754"><ele>39.0</ele><time>2026-04-18T05:05:17Z</time></trkpt><trkpt lat="45.117577726831165" lon="9.991545503228407"><ele>39.0</ele><time>2026-04-18T05:05:18Z</time></trkpt><trkpt lat="45.11751598063006" lon="9.991584378908563"><ele>39.0</ele><time>2026-04-18T05:05:19Z</time></trkpt><trkpt lat="45.117452933871874" lon="9.991623051683808"><ele>39.0</ele><time>2026-04-18T05:05:20Z</time></trkpt><trkpt lat="45.11739047381461" lon="9.99166147714708"><ele>39.0</ele><time>2026-04-18T05:05:20.999Z</time></trkpt><trkpt lat="45.117326277160906" lon="9.991698615620809"><ele>39.0</ele><time>2026-04-18T05:05:21.999Z</time></trkpt><trkpt lat="45.1172645394893" lon="9.991738121493343"><ele>39.0</ele><time>2026-04-18T05:05:22.999Z</time></trkpt><trkpt lat="45.117201953246244" lon="9.99177704635861"><ele>39.0</ele><time>2026-04-18T05:05:23.999Z</time></trkpt><trkpt lat="45.11713897708487" lon="9.991815061854982"><ele>39.0</ele><time>2026-04-18T05:05:24.999Z</time></trkpt><trkpt lat="45.11707489516435" lon="9.991852354967044"><ele>39.0</ele><time>2026-04-18T05:05:25.999Z</time></trkpt><trkpt lat="45.117012413073674" lon="9.991887424382929"><ele>39.0</ele><time>2026-04-18T05:05:26.999Z</time></trkpt><trkpt lat="45.116947602849386" lon="9.99192502026027"><ele>39.0</ele><time>2026-04-18T05:05:27.999Z</time></trkpt><trkpt lat="45.11688511929931" lon="9.991964810565458"><ele>39.0</ele><time>2026-04-18T05:05:28.999Z</time></trkpt><trkpt lat="45.11681858018948" lon="9.99200215523363"><ele>39.0</ele><time>2026-04-18T05:05:29.999Z</time></trkpt><trkpt lat="45.116756687863344" lon="9.992038610569194"><ele>39.0</ele><time>2026-04-18T05:05:30.999Z</time></trkpt><trkpt lat="45.1166936212759" lon="9.992070306906294"><ele>39.0</ele><time>2026-04-18T05:05:31.999Z</time></trkpt><trkpt lat="45.11662875053573" lon="9.992115879421432"><ele>39.0</ele><time>2026-04-18T05:05:32.999Z</time></trkpt><trkpt lat="45.11656337232677" lon="9.99215392698942"><ele>39.0</ele><time>2026-04-18T05:05:33.999Z</time></trkpt><trkpt lat="45.11650122666393" lon="9.992194838447405"><ele>39.0</ele><time>2026-04-18T05:05:34.999Z</time></trkpt><trkpt lat="45.11643713014811" lon="9.992233326730718"><ele>39.0</ele><time>2026-04-18T05:05:35.999Z</time></trkpt><trkpt lat="45.11637342028172" lon="9.992269474754643"><ele>39.0</ele><time>2026-04-18T05:05:36.999Z</time></trkpt><trkpt lat="45.11631019843251" lon="9.99230705808278"><ele>39.0</ele><time>2026-04-18T05:05:37.999Z</time></trkpt><trkpt lat="45.11624510765772" lon="9.992343585331634"><ele>39.0</ele><time>2026-04-18T05:05:38.999Z</time></trkpt><trkpt lat="45.11618169479475" lon="9.992382937233927"><ele>39.0</ele><time>2026-04-18T05:05:39.999Z</time></trkpt><trkpt lat="45.11611750680575" lon="9.992419829994311"><ele>39.0</ele><time>2026-04-18T05:05:40.999Z</time></trkpt><trkpt lat="45.11605405481595" lon="9.99245747039075"><ele>39.0</ele><time>2026-04-18T05:05:41.999Z</time></trkpt><trkpt lat="45.1159894905541" lon="9.992495100271778"><ele>39.0</ele><time>2026-04-18T05:05:42.999Z</time></trkpt><trkpt lat="45.11592819510485" lon="9.992536972317133"><ele>39.0</ele><time>2026-04-18T05:05:43.999Z</time></trkpt><trkpt lat="45.11586505419173" lon="9.99257524383109"><ele>39.0</ele><time>2026-04-18T05:05:44.999Z</time></trkpt><trkpt lat="45.11580187337446" lon="9.992611134415675"><ele>39.0</ele><time>2026-04-18T05:05:45.999Z</time></trkpt><trkpt lat="45.11573633145291" lon="9.992644832575156"><ele>39.0</ele><time>2026-04-18T05:05:46.999Z</time></trkpt><trkpt lat="45.1156725776178" lon="9.99268224365116"><ele>39.0</ele><time>2026-04-18T05:05:47.999Z</time></trkpt><trkpt lat="45.115607420023814" lon="9.992718296429022"><ele>39.0</ele><time>2026-04-18T05:05:48.999Z</time></trkpt><trkpt lat="45.1155426630576" lon="9.992757601525273"><ele>39.0</ele><time>2026-04-18T05:05:49.999Z</time></trkpt><trkpt lat="45.11547964958198" lon="9.992795983425214"><ele>39.142857142857146</ele><time>2026-04-18T05:05:50.999Z</time></trkpt><trkpt lat="45.115415882976464" lon="9.992833704248884"><ele>39.285714285714285</ele><time>2026-04-18T05:05:51.999Z</time></trkpt><trkpt lat="45.115350839322595" lon="9.99286953060769"><ele>39.42857142857143</ele><time>2026-04-18T05:05:52.999Z</time></trkpt><trkpt lat="45.11528659611511" lon="9.992906875704598"><ele>39.57142857142857</ele><time>2026-04-18T05:05:53.999Z</time></trkpt><trkpt lat="45.11522270977942" lon="9.99294398615909"><ele>39.714285714285715</ele><time>2026-04-18T05:05:54.999Z</time></trkpt><trkpt lat="45.11515938016386" lon="9.99298435202228"><ele>39.857142857142854</ele><time>2026-04-18T05:05:55.999Z</time></trkpt><trkpt lat="45.11509633620562" lon="9.99302174222919"><ele>40.0</ele><time>2026-04-18T05:05:56.999Z</time></trkpt><trkpt lat="45.11503397997339" lon="9.993061024114501"><ele>40.0</ele><time>2026-04-18T05:05:57.999Z</time></trkpt><trkpt lat="45.114971322881196" lon="9.993099993916307"><ele>40.0</ele><time>2026-04-18T05:05:58.999Z</time></trkpt><trkpt lat="45.11490779831634" lon="9.993137461000815"><ele>40.0</ele><time>2026-04-18T05:05:59.999Z</time></trkpt><trkpt lat="45.11484551855143" lon="9.99317527640563"><ele>40.0</ele><time>2026-04-18T05:06:00.999Z</time></trkpt><trkpt lat="45.11478130885148" lon="9.99321113006627"><ele>40.0</ele><time>2026-04-18T05:06:01.999Z</time></trkpt><trkpt lat="45.114717014236554" lon="9.993248655486315"><ele>40.0</ele><time>2026-04-18T05:06:02.999Z</time></trkpt><trkpt lat="45.114653825143165" lon="9.99328800784499"><ele>40.0</ele><time>2026-04-18T05:06:03.999Z</time></trkpt><trkpt lat="45.114591727579054" lon="9.99332546272145"><ele>39.857142857142854</ele><time>2026-04-18T05:06:04.999Z</time></trkpt><trkpt lat="45.11452968407584" lon="9.993363168798936"><ele>39.714285714285715</ele><time>2026-04-18T05:06:05.999Z</time></trkpt><trkpt lat="45.11446801129645" lon="9.993403231669319"><ele>39.57142857142857</ele><time>2026-04-18T05:06:06.999Z</time></trkpt><trkpt lat="45.114406275350824" lon="9.993443199273436"><ele>39.42857142857143</ele><time>2026-04-18T05:06:07.999Z</time></trkpt><trkpt lat="45.11434331045722" lon="9.99348007568727"><ele>39.285714285714285</ele><time>2026-04-18T05:06:08.999Z</time></trkpt><trkpt lat="45.11428343239838" lon="9.99351974410062"><ele>39.142857142857146</ele><time>2026-04-18T05:06:09.999Z</time></trkpt><trkpt lat="45.11422263635593" lon="9.993557231362189"><ele>39.0</ele><time>2026-04-18T05:06:10.999Z</time></trkpt><trkpt lat="45.11416151556863" lon="9.993595415665295"><ele>39.0</ele><time>2026-04-18T05:06:11.999Z</time></trkpt><trkpt lat="45.114102283327114" lon="9.993629875529779"><ele>39.0</ele><time>2026-04-18T05:06:12.999Z</time></trkpt><trkpt lat="45.11404263320944" lon="9.993662258815354"><ele>39.0</ele><time>2026-04-18T05:06:13.999Z</time></trkpt><trkpt lat="45.113924687773746" lon="9.993734397433691"><ele>39.0</ele><time>2026-04-18T05:06:15.998Z</time></trkpt><trkpt lat="45.11386242131828" lon="9.993768570516357"><ele>39.0</ele><time>2026-04-18T05:06:16.998Z</time></trkpt><trkpt lat="45.11380171064886" lon="9.993804353048333"><ele>39.0</ele><time>2026-04-18T05:06:17.998Z</time></trkpt><trkpt lat="45.113739853830104" lon="9.993842595117188"><ele>39.0</ele><time>2026-04-18T05:06:18.998Z</time></trkpt><trkpt lat="45.11367694725088" lon="9.993877317155592"><ele>39.0</ele><time>2026-04-18T05:06:19.998Z</time></trkpt><trkpt lat="45.11355581320049" lon="9.993940515606822"><ele>39.0</ele><time>2026-04-18T05:06:21.998Z</time></trkpt><trkpt lat="45.113494828798515" lon="9.993977205943006"><ele>39.0</ele><time>2026-04-18T05:06:22.998Z</time></trkpt><trkpt lat="45.11343421767821" lon="9.994013895383512"><ele>39.0</ele><time>2026-04-18T05:06:23.998Z</time></trkpt><trkpt lat="45.113374650925735" lon="9.994051781978134"><ele>39.0</ele><time>2026-04-18T05:06:24.998Z</time></trkpt><trkpt lat="45.11331333831245" lon="9.994088548866133"><ele>39.0</ele><time>2026-04-18T05:06:26Z</time></trkpt><trkpt lat="45.1132512801824" lon="9.994125377211308"><ele>39.0</ele><time>2026-04-18T05:06:27Z</time></trkpt><trkpt lat="45.113191173017505" lon="9.994164951363093"><ele>39.0</ele><time>2026-04-18T05:06:28Z</time></trkpt><trkpt lat="45.11312970338085" lon="9.994203856592605"><ele>39.0</ele><time>2026-04-18T05:06:29Z</time></trkpt><trkpt lat="45.11306695332359" lon="9.994243714586313"><ele>39.0</ele><time>2026-04-18T05:06:30Z</time></trkpt><trkpt lat="45.11300545162362" lon="9.994281781076223"><ele>39.0</ele><time>2026-04-18T05:06:31Z</time></trkpt><trkpt lat="45.11294046232926" lon="9.994317541789236"><ele>39.0</ele><time>2026-04-18T05:06:32Z</time></trkpt><trkpt lat="45.112876744031" lon="9.994358373634102"><ele>39.142857142857146</ele><time>2026-04-18T05:06:33Z</time></trkpt><trkpt lat="45.11281200341292" lon="9.9943978843216"><ele>39.285714285714285</ele><time>2026-04-18T05:06:34Z</time></trkpt><trkpt lat="45.112746639927266" lon="9.994436085637634"><ele>39.42857142857143</ele><time>2026-04-18T05:06:35Z</time></trkpt><trkpt lat="45.11268333737012" lon="9.994474895298891"><ele>39.57142857142857</ele><time>2026-04-18T05:06:36Z</time></trkpt><trkpt lat="45.112617531689516" lon="9.994516353063368"><ele>39.714285714285715</ele><time>2026-04-18T05:06:37Z</time></trkpt><trkpt lat="45.11255125137148" lon="9.994550209597907"><ele>39.857142857142854</ele><time>2026-04-18T05:06:38Z</time></trkpt><trkpt lat="45.11248103656286" lon="9.99457430856072"><ele>40.0</ele><time>2026-04-18T05:06:39Z</time></trkpt><trkpt lat="45.11241188740234" lon="9.994589396859407"><ele>39.857142857142854</ele><time>2026-04-18T05:06:40Z</time></trkpt><trkpt lat="45.112340210375145" lon="9.994590850893443"><ele>39.714285714285715</ele><time>2026-04-18T05:06:41Z</time></trkpt><trkpt lat="45.11226887026544" lon="9.994588691081168"><ele>39.57142857142857</ele><time>2026-04-18T05:06:42Z</time></trkpt><trkpt lat="45.11219824030405" lon="9.99457641260889"><ele>39.42857142857143</ele><time>2026-04-18T05:06:43Z</time></trkpt><trkpt lat="45.11212807567715" lon="9.994550791316787"><ele>39.285714285714285</ele><time>2026-04-18T05:06:44Z</time></trkpt><trkpt lat="45.11206183805512" lon="9.994514030418804"><ele>39.142857142857146</ele><time>2026-04-18T05:06:45Z</time></trkpt><trkpt lat="45.111997986461866" lon="9.994468172861666"><ele>39.0</ele><time>2026-04-18T05:06:46Z</time></trkpt><trkpt lat="45.11193763374541" lon="9.994416487057615"><ele>39.0</ele><time>2026-04-18T05:06:47Z</time></trkpt><trkpt lat="45.1118856152072" lon="9.994362413237969"><ele>39.0</ele><time>2026-04-18T05:06:48Z</time></trkpt><trkpt lat="45.11182848678776" lon="9.994300396260396"><ele>39.0</ele><time>2026-04-18T05:06:49Z</time></trkpt><trkpt lat="45.11177410881448" lon="9.994241600268994"><ele>39.0</ele><time>2026-04-18T05:06:50Z</time></trkpt><trkpt lat="45.1117192794912" lon="9.99418268350573"><ele>39.0</ele><time>2026-04-18T05:06:51Z</time></trkpt><trkpt lat="45.111666126003456" lon="9.994120658567807"><ele>39.0</ele><time>2026-04-18T05:06:52Z</time></trkpt><trkpt lat="45.11161198485637" lon="9.994061124942023"><ele>39.0</ele><time>2026-04-18T05:06:53Z</time></trkpt><trkpt lat="45.11155583520544" lon="9.994003505759991"><ele>38.714285714285715</ele><time>2026-04-18T05:06:54Z</time></trkpt><trkpt lat="45.11150022895274" lon="9.993946849566145"><ele>38.42857142857142</ele><time>2026-04-18T05:06:55Z</time></trkpt><trkpt lat="45.11144654102149" lon="9.993884352326617"><ele>38.14285714285714</ele><time>2026-04-18T05:06:56Z</time></trkpt><trkpt lat="45.11139168137809" lon="9.993823670500541"><ele>37.85714285714286</ele><time>2026-04-18T05:06:57Z</time></trkpt><trkpt lat="45.11133514500919" lon="9.993764769430182"><ele>37.57142857142857</ele><time>2026-04-18T05:06:58Z</time></trkpt><trkpt lat="45.11127930309757" lon="9.993705244406074"><ele>37.285714285714285</ele><time>2026-04-18T05:06:59Z</time></trkpt><trkpt lat="45.11122342062436" lon="9.993647510533496"><ele>37.0</ele><time>2026-04-18T05:07:00Z</time></trkpt><trkpt lat="45.11116785289819" lon="9.993584190505418"><ele>37.0</ele><time>2026-04-18T05:07:01Z</time></trkpt><trkpt lat="45.111112938759554" lon="9.993524543412343"><ele>37.0</ele><time>2026-04-18T05:07:02Z</time></trkpt><trkpt lat="45.11105655208093" lon="9.99346497830094"><ele>37.0</ele><time>2026-04-18T05:07:03Z</time></trkpt><trkpt lat="45.11100067915673" lon="9.993404294483282"><ele>37.0</ele><time>2026-04-18T05:07:04Z</time></trkpt><trkpt lat="45.1109459605092" lon="9.993341803432"><ele>37.0</ele><time>2026-04-18T05:07:05Z</time></trkpt><trkpt lat="45.11088902571588" lon="9.993284501268375"><ele>37.0</ele><time>2026-04-18T05:07:06Z</time></trkpt><trkpt lat="45.1108331503726" lon="9.99322222833834"><ele>37.0</ele><time>2026-04-18T05:07:07Z</time></trkpt><trkpt lat="45.110776419265285" lon="9.993163677542574"><ele>37.0</ele><time>2026-04-18T05:07:08Z</time></trkpt><trkpt lat="45.110721057771286" lon="9.993104517348753"><ele>37.0</ele><time>2026-04-18T05:07:09Z</time></trkpt><trkpt lat="45.110665614998084" lon="9.993039189263735"><ele>37.0</ele><time>2026-04-18T05:07:10Z</time></trkpt><trkpt lat="45.110609313131086" lon="9.992982926543894"><ele>37.0</ele><time>2026-04-18T05:07:11Z</time></trkpt><trkpt lat="45.110555691572706" lon="9.9929180308551"><ele>37.0</ele><time>2026-04-18T05:07:12Z</time></trkpt><trkpt lat="45.11049942933418" lon="9.992857690456312"><ele>37.0</ele><time>2026-04-18T05:07:13Z</time></trkpt><trkpt lat="45.11044446566725" lon="9.992797212042527"><ele>37.0</ele><time>2026-04-18T05:07:14Z</time></trkpt><trkpt lat="45.110389470106234" lon="9.992736752513025"><ele>37.0</ele><time>2026-04-18T05:07:15Z</time></trkpt><trkpt lat="45.11033417426932" lon="9.992674986881944"><ele>37.0</ele><time>2026-04-18T05:07:16Z</time></trkpt><trkpt lat="45.11027960645082" lon="9.992614835781431"><ele>37.0</ele><time>2026-04-18T05:07:17Z</time></trkpt><trkpt lat="45.11022423121031" lon="9.992554574279916"><ele>37.0</ele><time>2026-04-18T05:07:18Z</time></trkpt><trkpt lat="45.1101709187737" lon="9.99249521725849"><ele>37.0</ele><time>2026-04-18T05:07:19Z</time></trkpt><trkpt lat="45.11011647415434" lon="9.992435029693004"><ele>37.0</ele><time>2026-04-18T05:07:20Z</time></trkpt><trkpt lat="45.11006256075342" lon="9.992374236211516"><ele>37.0</ele><time>2026-04-18T05:07:21Z</time></trkpt><trkpt lat="45.11000899303541" lon="9.992315271471194"><ele>37.0</ele><time>2026-04-18T05:07:22Z</time></trkpt><trkpt lat="45.10995559605944" lon="9.992253282171689"><ele>37.0</ele><time>2026-04-18T05:07:23Z</time></trkpt><trkpt lat="45.10990463998455" lon="9.99219397285688"><ele>37.0</ele><time>2026-04-18T05:07:24Z</time></trkpt><trkpt lat="45.10985155662594" lon="9.992132230548739"><ele>37.0</ele><time>2026-04-18T05:07:25Z</time></trkpt><trkpt lat="45.10980044563224" lon="9.992074743319593"><ele>37.0</ele><time>2026-04-18T05:07:25.999Z</time></trkpt><trkpt lat="45.1097480508219" lon="9.992015338805079"><ele>37.0</ele><time>2026-04-18T05:07:26.999Z</time></trkpt><trkpt lat="45.10969579314791" lon="9.99196147252121"><ele>37.0</ele><time>2026-04-18T05:07:27.999Z</time></trkpt><trkpt lat="45.10964266684668" lon="9.99190391334463"><ele>36.85714285714286</ele><time>2026-04-18T05:07:28.999Z</time></trkpt><trkpt lat="45.10959073438365" lon="9.9918460859699"><ele>36.714285714285715</ele><time>2026-04-18T05:07:29.999Z</time></trkpt><trkpt lat="45.109538442474964" lon="9.991784392156893"><ele>36.57142857142857</ele><time>2026-04-18T05:07:30.999Z</time></trkpt><trkpt lat="45.10948520724564" lon="9.99172071389927"><ele>36.42857142857143</ele><time>2026-04-18T05:07:31.999Z</time></trkpt><trkpt lat="45.109428243451454" lon="9.99165792691619"><ele>36.285714285714285</ele><time>2026-04-18T05:07:32.999Z</time></trkpt><trkpt lat="45.10937090000836" lon="9.991595244526035"><ele>36.142857142857146</ele><time>2026-04-18T05:07:33.999Z</time></trkpt><trkpt lat="45.10931519795004" lon="9.991529895429398"><ele>36.0</ele><time>2026-04-18T05:07:34.999Z</time></trkpt><trkpt lat="45.109258959753554" lon="9.991465079465973"><ele>36.42857142857143</ele><time>2026-04-18T05:07:35.999Z</time></trkpt><trkpt lat="45.10920119325475" lon="9.991399904917428"><ele>36.85714285714286</ele><time>2026-04-18T05:07:36.999Z</time></trkpt><trkpt lat="45.10914329322962" lon="9.991334141290432"><ele>37.28571428571429</ele><time>2026-04-18T05:07:37.999Z</time></trkpt><trkpt lat="45.10908817018813" lon="9.991266926820902"><ele>37.714285714285715</ele><time>2026-04-18T05:07:38.999Z</time></trkpt><trkpt lat="45.10903084162798" lon="9.991198415670441"><ele>38.14285714285714</ele><time>2026-04-18T05:07:39.999Z</time></trkpt><trkpt lat="45.108972392948125" lon="9.991132223757507"><ele>38.57142857142858</ele><time>2026-04-18T05:07:40.999Z</time></trkpt><trkpt lat="45.108916864358854" lon="9.991064792740286"><ele>39.0</ele><time>2026-04-18T05:07:41.999Z</time></trkpt><trkpt lat="45.1088592267915" lon="9.991000810458672"><ele>39.0</ele><time>2026-04-18T05:07:42.999Z</time></trkpt><trkpt lat="45.10880276945091" lon="9.99093664835391"><ele>39.0</ele><time>2026-04-18T05:07:43.999Z</time></trkpt><trkpt lat="45.10874922049107" lon="9.990871631063921"><ele>39.0</ele><time>2026-04-18T05:07:44.999Z</time></trkpt><trkpt lat="45.108694675522514" lon="9.990807322887054"><ele>39.0</ele><time>2026-04-18T05:07:45.999Z</time></trkpt><trkpt lat="45.108640617609915" lon="9.99074786693353"><ele>39.0</ele><time>2026-04-18T05:07:46.999Z</time></trkpt><trkpt lat="45.108587850983696" lon="9.99068921503124"><ele>39.0</ele><time>2026-04-18T05:07:47.999Z</time></trkpt><trkpt lat="45.10853532036697" lon="9.990630898621122"><ele>39.0</ele><time>2026-04-18T05:07:48.999Z</time></trkpt><trkpt lat="45.10848406789178" lon="9.990570722532805"><ele>39.0</ele><time>2026-04-18T05:07:49.999Z</time></trkpt><trkpt lat="45.1084313250874" lon="9.990504765363776"><ele>39.0</ele><time>2026-04-18T05:07:50.999Z</time></trkpt><trkpt lat="45.108379082840386" lon="9.990443348465547"><ele>39.0</ele><time>2026-04-18T05:07:51.999Z</time></trkpt><trkpt lat="45.108326141914866" lon="9.990386780591576"><ele>39.0</ele><time>2026-04-18T05:07:52.999Z</time></trkpt><trkpt lat="45.108270275968685" lon="9.990323233260066"><ele>39.0</ele><time>2026-04-18T05:07:53.999Z</time></trkpt><trkpt lat="45.108217670507436" lon="9.990260468004246"><ele>39.0</ele><time>2026-04-18T05:07:54.999Z</time></trkpt><trkpt lat="45.108163742929236" lon="9.990197321927788"><ele>39.0</ele><time>2026-04-18T05:07:55.999Z</time></trkpt><trkpt lat="45.10810887081221" lon="9.990140355131802"><ele>39.0</ele><time>2026-04-18T05:07:56.999Z</time></trkpt><trkpt lat="45.10805664927931" lon="9.990076638942206"><ele>39.0</ele><time>2026-04-18T05:07:57.999Z</time></trkpt><trkpt lat="45.108003941316674" lon="9.990015282897195"><ele>39.0</ele><time>2026-04-18T05:07:58.999Z</time></trkpt><trkpt lat="45.10794988431031" lon="9.989953922978831"><ele>39.0</ele><time>2026-04-18T05:07:59.999Z</time></trkpt><trkpt lat="45.107898238422635" lon="9.989893245780046"><ele>39.0</ele><time>2026-04-18T05:08:00.999Z</time></trkpt><trkpt lat="45.10784497770038" lon="9.98983561049592"><ele>39.0</ele><time>2026-04-18T05:08:01.999Z</time></trkpt><trkpt lat="45.10779519383596" lon="9.989773211722374"><ele>39.0</ele><time>2026-04-18T05:08:02.999Z</time></trkpt><trkpt lat="45.1077447570967" lon="9.989718386650612"><ele>38.8</ele><time>2026-04-18T05:08:03.999Z</time></trkpt><trkpt lat="45.10769607876559" lon="9.989661040639179"><ele>38.599999999999994</ele><time>2026-04-18T05:08:04.999Z</time></trkpt><trkpt lat="45.107599954169" lon="9.989553942120903"><ele>38.4</ele><time>2026-04-18T05:08:06.999Z</time></trkpt><trkpt lat="45.1075058727472" lon="9.989450632425548"><ele>38.199999999999996</ele><time>2026-04-18T05:08:08.999Z</time></trkpt><trkpt lat="45.107417557749" lon="9.98935192065455"><ele>38.0</ele><time>2026-04-18T05:08:10.999Z</time></trkpt><trkpt lat="45.107333799749085" lon="9.98926146461038"><ele>38.33333333333333</ele><time>2026-04-18T05:08:12.999Z</time></trkpt><trkpt lat="45.107256662271794" lon="9.989180380469348"><ele>38.666666666666664</ele><time>2026-04-18T05:08:14.999Z</time></trkpt><trkpt lat="45.107190006908596" lon="9.989096789829375"><ele>39.0</ele><time>2026-04-18T05:08:16.999Z</time></trkpt><trkpt lat="45.10714036511767" lon="9.989037126671711"><ele>39.333333333333336</ele><time>2026-04-18T05:08:18.999Z</time></trkpt><trkpt lat="45.107087505895294" lon="9.988966397395043"><ele>39.66666666666667</ele><time>2026-04-18T05:08:20.998Z</time></trkpt><trkpt lat="45.10702225705577" lon="9.98887706093128"><ele>40.0</ele><time>2026-04-18T05:08:22.998Z</time></trkpt><trkpt lat="45.1069490859934" lon="9.98879154130763"><ele>40.25</ele><time>2026-04-18T05:08:24.998Z</time></trkpt><trkpt lat="45.106858750321834" lon="9.988702615381603"><ele>40.5</ele><time>2026-04-18T05:08:26.998Z</time></trkpt><trkpt lat="45.10676354322921" lon="9.988600838674397"><ele>40.75</ele><time>2026-04-18T05:08:28.998Z</time></trkpt><trkpt lat="45.10666145648734" lon="9.988493289857091"><ele>41.0</ele><time>2026-04-18T05:08:30.998Z</time></trkpt><trkpt lat="45.10656557090559" lon="9.988381156234862"><ele>40.599999999999994</ele><time>2026-04-18T05:08:33Z</time></trkpt><trkpt lat="45.106512543182575" lon="9.988325294996379"><ele>40.199999999999996</ele><time>2026-04-18T05:08:34Z</time></trkpt><trkpt lat="45.106460223525744" lon="9.988272773720468"><ele>39.8</ele><time>2026-04-18T05:08:35Z</time></trkpt><trkpt lat="45.10636025344873" lon="9.988170088108161"><ele>39.4</ele><time>2026-04-18T05:08:37Z</time></trkpt><trkpt lat="45.10626709677468" lon="9.988072166282745"><ele>39.0</ele><time>2026-04-18T05:08:39Z</time></trkpt><trkpt lat="45.10617351652821" lon="9.987969956549962"><ele>39.0</ele><time>2026-04-18T05:08:41Z</time></trkpt><trkpt lat="45.10612503122008" lon="9.987908376889587"><ele>39.0</ele><time>2026-04-18T05:08:42Z</time></trkpt><trkpt lat="45.106071920626086" lon="9.987854579265674"><ele>39.0</ele><time>2026-04-18T05:08:43Z</time></trkpt><trkpt lat="45.106021448361055" lon="9.987798370519835"><ele>39.0</ele><time>2026-04-18T05:08:44Z</time></trkpt><trkpt lat="45.10592033516811" lon="9.987691535435145"><ele>39.0</ele><time>2026-04-18T05:08:46Z</time></trkpt><trkpt lat="45.10582269293479" lon="9.98758179568624"><ele>39.0</ele><time>2026-04-18T05:08:48Z</time></trkpt><trkpt lat="45.105770947416666" lon="9.987526650093166"><ele>38.75</ele><time>2026-04-18T05:08:49Z</time></trkpt><trkpt lat="45.10567979723838" lon="9.987418378209668"><ele>38.5</ele><time>2026-04-18T05:08:51Z</time></trkpt><trkpt lat="45.10559299095754" lon="9.98732042654164"><ele>38.25</ele><time>2026-04-18T05:08:53Z</time></trkpt><trkpt lat="45.105496811408315" lon="9.987225813456371"><ele>38.0</ele><time>2026-04-18T05:08:55Z</time></trkpt><trkpt lat="45.1053954429726" lon="9.987135996248274"><ele>38.0</ele><time>2026-04-18T05:08:57Z</time></trkpt><trkpt lat="45.105300188966865" lon="9.987032094509292"><ele>38.0</ele><time>2026-04-18T05:08:59Z</time></trkpt><trkpt lat="45.10521204429649" lon="9.986921524272068"><ele>38.0</ele><time>2026-04-18T05:09:01Z</time></trkpt><trkpt lat="45.10513166412083" lon="9.986805252752356"><ele>38.0</ele><time>2026-04-18T05:09:03Z</time></trkpt><trkpt lat="45.1050732300391" lon="9.986665765714097"><ele>38.0</ele><time>2026-04-18T05:09:05Z</time></trkpt><trkpt lat="45.10500989543625" lon="9.986535438795702"><ele>38.0</ele><time>2026-04-18T05:09:07Z</time></trkpt><trkpt lat="45.104935981802505" lon="9.986513925087133"><ele>38.0</ele><time>2026-04-18T05:09:08Z</time></trkpt><trkpt lat="45.104837507982715" lon="9.986433774052509"><ele>38.0</ele><time>2026-04-18T05:09:10Z</time></trkpt><trkpt lat="45.10472861906129" lon="9.986375124475513"><ele>38.0</ele><time>2026-04-18T05:09:12Z</time></trkpt><trkpt lat="45.1046330843982" lon="9.98626838769107"><ele>38.0</ele><time>2026-04-18T05:09:14Z</time></trkpt><trkpt lat="45.104536411081526" lon="9.986166324354098"><ele>38.0</ele><time>2026-04-18T05:09:16Z</time></trkpt><trkpt lat="45.104448122728726" lon="9.98605180986841"><ele>38.0</ele><time>2026-04-18T05:09:18Z</time></trkpt><trkpt lat="45.10435102044207" lon="9.985942031469525"><ele>38.0</ele><time>2026-04-18T05:09:20Z</time></trkpt><trkpt lat="45.104298348167745" lon="9.985880813803323"><ele>38.0</ele><time>2026-04-18T05:09:21Z</time></trkpt><trkpt lat="45.10424283470909" lon="9.985820869577038"><ele>37.857142857142854</ele><time>2026-04-18T05:09:22Z</time></trkpt><trkpt lat="45.1041891768254" lon="9.985759812345178"><ele>37.714285714285715</ele><time>2026-04-18T05:09:23Z</time></trkpt><trkpt lat="45.10413361416847" lon="9.985698333459919"><ele>37.57142857142857</ele><time>2026-04-18T05:09:24Z</time></trkpt><trkpt lat="45.10408055541848" lon="9.985637570849217"><ele>37.42857142857143</ele><time>2026-04-18T05:09:25Z</time></trkpt><trkpt lat="45.10402658249546" lon="9.985579732449066"><ele>37.285714285714285</ele><time>2026-04-18T05:09:26Z</time></trkpt><trkpt lat="45.10397092394817" lon="9.98551641180275"><ele>37.142857142857146</ele><time>2026-04-18T05:09:27Z</time></trkpt><trkpt lat="45.10391595270933" lon="9.985460867448644"><ele>37.0</ele><time>2026-04-18T05:09:28Z</time></trkpt><trkpt lat="45.10382189159905" lon="9.98534509608324"><ele>37.333333333333336</ele><time>2026-04-18T05:09:29.999Z</time></trkpt><trkpt lat="45.1037732598063" lon="9.985283593815637"><ele>37.66666666666667</ele><time>2026-04-18T05:09:30.999Z</time></trkpt><trkpt lat="45.10371999120143" lon="9.985223980439377"><ele>38.0</ele><time>2026-04-18T05:09:31.999Z</time></trkpt><trkpt lat="45.10366683758285" lon="9.985166849375121"><ele>38.333333333333336</ele><time>2026-04-18T05:09:32.999Z</time></trkpt><trkpt lat="45.10361346162358" lon="9.985109017678134"><ele>38.666666666666664</ele><time>2026-04-18T05:09:33.999Z</time></trkpt><trkpt lat="45.10356026964483" lon="9.985051686315119"><ele>39.0</ele><time>2026-04-18T05:09:34.999Z</time></trkpt><trkpt lat="45.103454204868804" lon="9.98494070003862"><ele>39.0</ele><time>2026-04-18T05:09:36.999Z</time></trkpt><trkpt lat="45.10339997011351" lon="9.9848849438846"><ele>39.0</ele><time>2026-04-18T05:09:37.999Z</time></trkpt><trkpt lat="45.10335058382161" lon="9.984826394086568"><ele>39.0</ele><time>2026-04-18T05:09:38.999Z</time></trkpt><trkpt lat="45.103303215208015" lon="9.984765610054968"><ele>39.0</ele><time>2026-04-18T05:09:39.999Z</time></trkpt><trkpt lat="45.1032518709535" lon="9.984700312456802"><ele>39.0</ele><time>2026-04-18T05:09:40.999Z</time></trkpt><trkpt lat="45.103203039476675" lon="9.984641310633116"><ele>39.0</ele><time>2026-04-18T05:09:41.999Z</time></trkpt><trkpt lat="45.10314909322728" lon="9.98457928284269"><ele>39.0</ele><time>2026-04-18T05:09:42.999Z</time></trkpt><trkpt lat="45.10309501217143" lon="9.98452094190898"><ele>39.0</ele><time>2026-04-18T05:09:43.999Z</time></trkpt><trkpt lat="45.10304177831491" lon="9.98446171275627"><ele>39.0</ele><time>2026-04-18T05:09:44.999Z</time></trkpt><trkpt lat="45.10298712783883" lon="9.984400350512814"><ele>39.0</ele><time>2026-04-18T05:09:45.999Z</time></trkpt><trkpt lat="45.10293280121993" lon="9.984339300092092"><ele>39.0</ele><time>2026-04-18T05:09:46.999Z</time></trkpt><trkpt lat="45.10287886723047" lon="9.984279892812829"><ele>39.0</ele><time>2026-04-18T05:09:47.999Z</time></trkpt><trkpt lat="45.10282368055829" lon="9.984220598990323"><ele>39.0</ele><time>2026-04-18T05:09:48.999Z</time></trkpt><trkpt lat="45.10276851443824" lon="9.984163887115564"><ele>39.0</ele><time>2026-04-18T05:09:49.999Z</time></trkpt><trkpt lat="45.10271457010801" lon="9.984103374041025"><ele>39.0</ele><time>2026-04-18T05:09:50.999Z</time></trkpt><trkpt lat="45.10266274615904" lon="9.984038822496554"><ele>39.0</ele><time>2026-04-18T05:09:51.999Z</time></trkpt><trkpt lat="45.10261031086717" lon="9.983974528498274"><ele>39.0</ele><time>2026-04-18T05:09:52.999Z</time></trkpt><trkpt lat="45.10255496334203" lon="9.983912136491211"><ele>39.0</ele><time>2026-04-18T05:09:53.999Z</time></trkpt><trkpt lat="45.10249897867322" lon="9.983853418967401"><ele>39.0</ele><time>2026-04-18T05:09:54.999Z</time></trkpt><trkpt lat="45.102445554948034" lon="9.983792957874945"><ele>39.0</ele><time>2026-04-18T05:09:55.999Z</time></trkpt><trkpt lat="45.10239125419331" lon="9.983731440900193"><ele>39.0</ele><time>2026-04-18T05:09:56.999Z</time></trkpt><trkpt lat="45.10233637633603" lon="9.983667659875401"><ele>39.142857142857146</ele><time>2026-04-18T05:09:57.999Z</time></trkpt><trkpt lat="45.10228318170595" lon="9.983604253682861"><ele>39.285714285714285</ele><time>2026-04-18T05:09:58.999Z</time></trkpt><trkpt lat="45.10222766815335" lon="9.983544844580408"><ele>39.42857142857143</ele><time>2026-04-18T05:09:59.999Z</time></trkpt><trkpt lat="45.102170595024845" lon="9.983487697889315"><ele>39.57142857142857</ele><time>2026-04-18T05:10:00.999Z</time></trkpt><trkpt lat="45.102112244805134" lon="9.98343159214065"><ele>39.714285714285715</ele><time>2026-04-18T05:10:01.999Z</time></trkpt><trkpt lat="45.102054031558694" lon="9.983377114209109"><ele>39.857142857142854</ele><time>2026-04-18T05:10:02.999Z</time></trkpt><trkpt lat="45.10199355417919" lon="9.983329949475925"><ele>40.0</ele><time>2026-04-18T05:10:03.999Z</time></trkpt><trkpt lat="45.10193186488411" lon="9.983290438637132"><ele>40.0</ele><time>2026-04-18T05:10:04.999Z</time></trkpt><trkpt lat="45.101864506444514" lon="9.983265506531797"><ele>40.0</ele><time>2026-04-18T05:10:05.999Z</time></trkpt><trkpt lat="45.10179409979241" lon="9.983250561706207"><ele>40.0</ele><time>2026-04-18T05:10:06.999Z</time></trkpt><trkpt lat="45.10172480009412" lon="9.983246604869857"><ele>40.0</ele><time>2026-04-18T05:10:07.999Z</time></trkpt><trkpt lat="45.10165435994979" lon="9.983254116072604"><ele>40.0</ele><time>2026-04-18T05:10:08.999Z</time></trkpt><trkpt lat="45.1015847107247" lon="9.983274646786676"><ele>40.0</ele><time>2026-04-18T05:10:09.999Z</time></trkpt><trkpt lat="45.101518903593195" lon="9.98330778790517"><ele>40.0</ele><time>2026-04-18T05:10:10.999Z</time></trkpt><trkpt lat="45.101451852655636" lon="9.983356590894177"><ele>39.57142857142857</ele><time>2026-04-18T05:10:11.999Z</time></trkpt><trkpt lat="45.10139310596853" lon="9.983409500704816"><ele>39.142857142857146</ele><time>2026-04-18T05:10:12.999Z</time></trkpt><trkpt lat="45.10133662178424" lon="9.983473784960543"><ele>38.714285714285715</ele><time>2026-04-18T05:10:13.999Z</time></trkpt><trkpt lat="45.10128393422155" lon="9.983542641242906"><ele>38.285714285714285</ele><time>2026-04-18T05:10:14.999Z</time></trkpt><trkpt lat="45.10123690289367" lon="9.98361936654242"><ele>37.857142857142854</ele><time>2026-04-18T05:10:15.999Z</time></trkpt><trkpt lat="45.10119224893556" lon="9.983701546974816"><ele>37.42857142857143</ele><time>2026-04-18T05:10:16.999Z</time></trkpt><trkpt lat="45.10115198613439" lon="9.983788095310588"><ele>37.0</ele><time>2026-04-18T05:10:17.999Z</time></trkpt><trkpt lat="45.101113696240596" lon="9.98387793223404"><ele>37.0</ele><time>2026-04-18T05:10:18.999Z</time></trkpt><trkpt lat="45.10107647271785" lon="9.9839684701378"><ele>37.0</ele><time>2026-04-18T05:10:19.999Z</time></trkpt><trkpt lat="45.10103702632735" lon="9.984056373592509"><ele>37.0</ele><time>2026-04-18T05:10:20.999Z</time></trkpt><trkpt lat="45.10099733057107" lon="9.984141609255634"><ele>37.0</ele><time>2026-04-18T05:10:21.999Z</time></trkpt><trkpt lat="45.100957665500424" lon="9.984231726891577"><ele>37.0</ele><time>2026-04-18T05:10:22.999Z</time></trkpt><trkpt lat="45.10091962380833" lon="9.984317658314735"><ele>37.0</ele><time>2026-04-18T05:10:23.999Z</time></trkpt><trkpt lat="45.10088374975624" lon="9.984405511275678"><ele>37.0</ele><time>2026-04-18T05:10:24.998Z</time></trkpt><trkpt lat="45.10084312524365" lon="9.984493126427461"><ele>37.285714285714285</ele><time>2026-04-18T05:10:25.998Z</time></trkpt><trkpt lat="45.10080607236545" lon="9.984580477621245"><ele>37.57142857142857</ele><time>2026-04-18T05:10:26.998Z</time></trkpt><trkpt lat="45.10077037551872" lon="9.984670031852698"><ele>37.85714285714286</ele><time>2026-04-18T05:10:27.998Z</time></trkpt><trkpt lat="45.10073511456877" lon="9.984757364582054"><ele>38.14285714285714</ele><time>2026-04-18T05:10:28.998Z</time></trkpt><trkpt lat="45.100697812545164" lon="9.984845345368038"><ele>38.42857142857142</ele><time>2026-04-18T05:10:29.998Z</time></trkpt><trkpt lat="45.100659559709875" lon="9.984931671238954"><ele>38.714285714285715</ele><time>2026-04-18T05:10:30.998Z</time></trkpt><trkpt lat="45.10062392337481" lon="9.985020020773195"><ele>39.0</ele><time>2026-04-18T05:10:31.998Z</time></trkpt><trkpt lat="45.10058820063003" lon="9.985105410689254"><ele>39.0</ele><time>2026-04-18T05:10:32.998Z</time></trkpt><trkpt lat="45.100552442609875" lon="9.985192154104132"><ele>39.0</ele><time>2026-04-18T05:10:33.998Z</time></trkpt><trkpt lat="45.10051568861792" lon="9.98527545132316"><ele>39.0</ele><time>2026-04-18T05:10:34.998Z</time></trkpt><trkpt lat="45.100476699566265" lon="9.985360601676506"><ele>39.0</ele><time>2026-04-18T05:10:35.998Z</time></trkpt><trkpt lat="45.10043899137503" lon="9.98544473952194"><ele>39.0</ele><time>2026-04-18T05:10:36.998Z</time></trkpt><trkpt lat="45.100399829422884" lon="9.985531637299593"><ele>39.0</ele><time>2026-04-18T05:10:38Z</time></trkpt><trkpt lat="45.100363360502186" lon="9.985617526910106"><ele>39.0</ele><time>2026-04-18T05:10:39Z</time></trkpt><trkpt lat="45.10032668212901" lon="9.985705789352302"><ele>39.0</ele><time>2026-04-18T05:10:40Z</time></trkpt><trkpt lat="45.10028836216039" lon="9.985792894155525"><ele>39.0</ele><time>2026-04-18T05:10:41Z</time></trkpt><trkpt lat="45.10024928889524" lon="9.985879165298604"><ele>39.0</ele><time>2026-04-18T05:10:42Z</time></trkpt><trkpt lat="45.10020945345912" lon="9.985967491015536"><ele>39.0</ele><time>2026-04-18T05:10:43Z</time></trkpt><trkpt lat="45.100167928338095" lon="9.986050618088308"><ele>39.0</ele><time>2026-04-18T05:10:44Z</time></trkpt><trkpt lat="45.10013023891075" lon="9.986139640995512"><ele>39.0</ele><time>2026-04-18T05:10:45Z</time></trkpt><trkpt lat="45.10008930050898" lon="9.986227280039735"><ele>39.0</ele><time>2026-04-18T05:10:46Z</time></trkpt><trkpt lat="45.100048841100296" lon="9.986314325986308"><ele>39.0</ele><time>2026-04-18T05:10:47Z</time></trkpt><trkpt lat="45.10000919211287" lon="9.986402972401036"><ele>39.0</ele><time>2026-04-18T05:10:48Z</time></trkpt><trkpt lat="45.09997023487146" lon="9.986490352440438"><ele>39.0</ele><time>2026-04-18T05:10:49Z</time></trkpt><trkpt lat="45.09992971265574" lon="9.986577083281743"><ele>39.0</ele><time>2026-04-18T05:10:50Z</time></trkpt><trkpt lat="45.0998872487296" lon="9.986664338351872"><ele>39.0</ele><time>2026-04-18T05:10:51Z</time></trkpt><trkpt lat="45.09984573437248" lon="9.986749058846051"><ele>39.0</ele><time>2026-04-18T05:10:52Z</time></trkpt><trkpt lat="45.09980390072337" lon="9.986835607937953"><ele>39.0</ele><time>2026-04-18T05:10:53Z</time></trkpt><trkpt lat="45.09975969968649" lon="9.986919920809115"><ele>39.142857142857146</ele><time>2026-04-18T05:10:54Z</time></trkpt><trkpt lat="45.099713910923995" lon="9.987001050317796"><ele>39.285714285714285</ele><time>2026-04-18T05:10:55Z</time></trkpt><trkpt lat="45.09966831407253" lon="9.987082845744922"><ele>39.42857142857143</ele><time>2026-04-18T05:10:56Z</time></trkpt><trkpt lat="45.099622438768904" lon="9.98716486575578"><ele>39.57142857142857</ele><time>2026-04-18T05:10:57Z</time></trkpt><trkpt lat="45.099575648263624" lon="9.987246019896974"><ele>39.714285714285715</ele><time>2026-04-18T05:10:58Z</time></trkpt><trkpt lat="45.09952849528332" lon="9.987325998004856"><ele>39.857142857142854</ele><time>2026-04-18T05:10:59Z</time></trkpt><trkpt lat="45.09948033012774" lon="9.987403233968152"><ele>40.0</ele><time>2026-04-18T05:11:00Z</time></trkpt><trkpt lat="45.099430868149845" lon="9.987479376969686"><ele>39.857142857142854</ele><time>2026-04-18T05:11:01Z</time></trkpt><trkpt lat="45.09938046713319" lon="9.987557292514737"><ele>39.714285714285715</ele><time>2026-04-18T05:11:02Z</time></trkpt><trkpt lat="45.09933121834927" lon="9.987634745921646"><ele>39.57142857142857</ele><time>2026-04-18T05:11:03Z</time></trkpt><trkpt lat="45.09928246260422" lon="9.98770963884751"><ele>39.42857142857143</ele><time>2026-04-18T05:11:04Z</time></trkpt><trkpt lat="45.09923337779229" lon="9.987782826152106"><ele>39.285714285714285</ele><time>2026-04-18T05:11:05Z</time></trkpt><trkpt lat="45.09918119486323" lon="9.987854684057597"><ele>39.142857142857146</ele><time>2026-04-18T05:11:06Z</time></trkpt><trkpt lat="45.09913178732536" lon="9.987929529139842"><ele>39.0</ele><time>2026-04-18T05:11:07Z</time></trkpt><trkpt lat="45.099082446562704" lon="9.988006434432242"><ele>39.0</ele><time>2026-04-18T05:11:08Z</time></trkpt><trkpt lat="45.099033062173326" lon="9.98807966742933"><ele>39.0</ele><time>2026-04-18T05:11:09Z</time></trkpt><trkpt lat="45.09898351499944" lon="9.988155023629112"><ele>39.0</ele><time>2026-04-18T05:11:10Z</time></trkpt><trkpt lat="45.09893497280103" lon="9.988230815857358"><ele>39.0</ele><time>2026-04-18T05:11:11Z</time></trkpt><trkpt lat="45.09888583039487" lon="9.988305415126364"><ele>39.0</ele><time>2026-04-18T05:11:12Z</time></trkpt><trkpt lat="45.09883553515538" lon="9.988381357184219"><ele>39.0</ele><time>2026-04-18T05:11:13Z</time></trkpt><trkpt lat="45.09878551079561" lon="9.98845624951713"><ele>39.0</ele><time>2026-04-18T05:11:14Z</time></trkpt><trkpt lat="45.09873559898276" lon="9.988530723360334"><ele>39.0</ele><time>2026-04-18T05:11:15Z</time></trkpt><trkpt lat="45.09868631262702" lon="9.988607183185554"><ele>39.0</ele><time>2026-04-18T05:11:16Z</time></trkpt><trkpt lat="45.09863812626375" lon="9.98868418915707"><ele>39.0</ele><time>2026-04-18T05:11:17Z</time></trkpt><trkpt lat="45.09858868461035" lon="9.988761717311803"><ele>39.0</ele><time>2026-04-18T05:11:18Z</time></trkpt><trkpt lat="45.098540706275564" lon="9.988839141823489"><ele>39.0</ele><time>2026-04-18T05:11:19Z</time></trkpt><trkpt lat="45.09849369751666" lon="9.988918167377026"><ele>39.0</ele><time>2026-04-18T05:11:20Z</time></trkpt><trkpt lat="45.09844715146562" lon="9.988996690121768"><ele>39.0</ele><time>2026-04-18T05:11:21Z</time></trkpt><trkpt lat="45.09839701787619" lon="9.989072665985693"><ele>39.0</ele><time>2026-04-18T05:11:22Z</time></trkpt><trkpt lat="45.09834929333799" lon="9.989150370183985"><ele>39.0</ele><time>2026-04-18T05:11:23Z</time></trkpt><trkpt lat="45.09830345529773" lon="9.989231421608972"><ele>39.0</ele><time>2026-04-18T05:11:24Z</time></trkpt><trkpt lat="45.09825665690892" lon="9.989309856315357"><ele>39.0</ele><time>2026-04-18T05:11:25Z</time></trkpt><trkpt lat="45.098212474998746" lon="9.98938826663723"><ele>39.0</ele><time>2026-04-18T05:11:26Z</time></trkpt><trkpt lat="45.09816436081364" lon="9.989466359726375"><ele>39.0</ele><time>2026-04-18T05:11:27Z</time></trkpt><trkpt lat="45.098115558737035" lon="9.989538109635388"><ele>39.0</ele><time>2026-04-18T05:11:28Z</time></trkpt><trkpt lat="45.09806301783851" lon="9.989609926886994"><ele>38.85714285714286</ele><time>2026-04-18T05:11:29Z</time></trkpt><trkpt lat="45.09801183871931" lon="9.98967753215844"><ele>38.71428571428571</ele><time>2026-04-18T05:11:30Z</time></trkpt><trkpt lat="45.097954180722546" lon="9.989739981393724"><ele>38.57142857142857</ele><time>2026-04-18T05:11:31Z</time></trkpt><trkpt lat="45.097896776611044" lon="9.98979649880247"><ele>38.42857142857143</ele><time>2026-04-18T05:11:32Z</time></trkpt><trkpt lat="45.09783146091717" lon="9.989841539602516"><ele>38.28571428571429</ele><time>2026-04-18T05:11:33Z</time></trkpt><trkpt lat="45.097763455195164" lon="9.989878179074127"><ele>38.14285714285714</ele><time>2026-04-18T05:11:34Z</time></trkpt><trkpt lat="45.097694065304154" lon="9.98990599975993"><ele>38.0</ele><time>2026-04-18T05:11:34.999Z</time></trkpt><trkpt lat="45.0976269471293" lon="9.989935359030767"><ele>38.0</ele><time>2026-04-18T05:11:35.999Z</time></trkpt><trkpt lat="45.097558444612986" lon="9.989959903831666"><ele>38.0</ele><time>2026-04-18T05:11:36.999Z</time></trkpt><trkpt lat="45.09749227132526" lon="9.989991204687573"><ele>38.0</ele><time>2026-04-18T05:11:37.999Z</time></trkpt><trkpt lat="45.0974232883887" lon="9.990014591708382"><ele>38.0</ele><time>2026-04-18T05:11:38.999Z</time></trkpt><trkpt lat="45.09735569263346" lon="9.990042884206806"><ele>38.0</ele><time>2026-04-18T05:11:39.999Z</time></trkpt><trkpt lat="45.09728670168677" lon="9.99006920751149"><ele>38.0</ele><time>2026-04-18T05:11:40.999Z</time></trkpt><trkpt lat="45.09721978218213" lon="9.990092555868934"><ele>38.0</ele><time>2026-04-18T05:11:41.999Z</time></trkpt><trkpt lat="45.0971510707035" lon="9.990120744964935"><ele>37.857142857142854</ele><time>2026-04-18T05:11:42.999Z</time></trkpt><trkpt lat="45.09708236584843" lon="9.990143971792305"><ele>37.714285714285715</ele><time>2026-04-18T05:11:43.999Z</time></trkpt><trkpt lat="45.097014176102824" lon="9.990165891057703"><ele>37.57142857142857</ele><time>2026-04-18T05:11:44.999Z</time></trkpt><trkpt lat="45.09694501214193" lon="9.990185763989542"><ele>37.42857142857143</ele><time>2026-04-18T05:11:45.999Z</time></trkpt><trkpt lat="45.09687258398439" lon="9.990205912219487"><ele>37.285714285714285</ele><time>2026-04-18T05:11:46.999Z</time></trkpt><trkpt lat="45.09680379207988" lon="9.990226590916855"><ele>37.142857142857146</ele><time>2026-04-18T05:11:47.999Z</time></trkpt><trkpt lat="45.0967396895093" lon="9.99024194467161"><ele>37.0</ele><time>2026-04-18T05:11:48.999Z</time></trkpt><trkpt lat="45.09666666425315" lon="9.990263376510931"><ele>37.0</ele><time>2026-04-18T05:11:49.999Z</time></trkpt><trkpt lat="45.0965958359612" lon="9.99028279808094"><ele>37.0</ele><time>2026-04-18T05:11:50.999Z</time></trkpt><trkpt lat="45.0965244473793" lon="9.990297454750728"><ele>37.0</ele><time>2026-04-18T05:11:51.999Z</time></trkpt><trkpt lat="45.096456106639835" lon="9.990316344436724"><ele>37.0</ele><time>2026-04-18T05:11:52.999Z</time></trkpt><trkpt lat="45.096387984538566" lon="9.990334690440884"><ele>37.0</ele><time>2026-04-18T05:11:53.999Z</time></trkpt><trkpt lat="45.09631548910939" lon="9.990345731975653"><ele>37.0</ele><time>2026-04-18T05:11:54.999Z</time></trkpt><trkpt lat="45.096246393283586" lon="9.990360569622865"><ele>37.0</ele><time>2026-04-18T05:11:55.999Z</time></trkpt><trkpt lat="45.09617459253816" lon="9.990365517110613"><ele>37.285714285714285</ele><time>2026-04-18T05:11:56.999Z</time></trkpt><trkpt lat="45.09610678956368" lon="9.990374496626456"><ele>37.57142857142857</ele><time>2026-04-18T05:11:57.999Z</time></trkpt><trkpt lat="45.096034248874254" lon="9.99038951342616"><ele>37.85714285714286</ele><time>2026-04-18T05:11:58.999Z</time></trkpt><trkpt lat="45.09596984989418" lon="9.990405238316608"><ele>38.14285714285714</ele><time>2026-04-18T05:11:59.999Z</time></trkpt><trkpt lat="45.09590185574799" lon="9.990422046708618"><ele>38.42857142857142</ele><time>2026-04-18T05:12:00.999Z</time></trkpt><trkpt lat="45.095831882837786" lon="9.990443690550249"><ele>38.714285714285715</ele><time>2026-04-18T05:12:01.999Z</time></trkpt><trkpt lat="45.095759827936995" lon="9.990461208151387"><ele>39.0</ele><time>2026-04-18T05:12:02.999Z</time></trkpt><trkpt lat="45.095693529121114" lon="9.99048527617781"><ele>39.142857142857146</ele><time>2026-04-18T05:12:03.999Z</time></trkpt><trkpt lat="45.09562525254955" lon="9.990506065355177"><ele>39.285714285714285</ele><time>2026-04-18T05:12:04.999Z</time></trkpt><trkpt lat="45.09555387605286" lon="9.990527559304423"><ele>39.42857142857143</ele><time>2026-04-18T05:12:05.999Z</time></trkpt><trkpt lat="45.09548399261763" lon="9.990551355957592"><ele>39.57142857142857</ele><time>2026-04-18T05:12:06.999Z</time></trkpt><trkpt lat="45.09541436117775" lon="9.990578485469275"><ele>39.714285714285715</ele><time>2026-04-18T05:12:07.999Z</time></trkpt><trkpt lat="45.0953439375723" lon="9.990603287504445"><ele>39.857142857142854</ele><time>2026-04-18T05:12:08.999Z</time></trkpt><trkpt lat="45.09527477964494" lon="9.990630921727155"><ele>40.0</ele><time>2026-04-18T05:12:09.999Z</time></trkpt><trkpt lat="45.09520516949594" lon="9.990655602137773"><ele>40.0</ele><time>2026-04-18T05:12:10.999Z</time></trkpt><trkpt lat="45.095136746868796" lon="9.990680220709809"><ele>40.0</ele><time>2026-04-18T05:12:11.999Z</time></trkpt><trkpt lat="45.09506649989603" lon="9.990699981145744"><ele>40.0</ele><time>2026-04-18T05:12:12.999Z</time></trkpt><trkpt lat="45.094992437373925" lon="9.99071472524636"><ele>40.0</ele><time>2026-04-18T05:12:13.999Z</time></trkpt><trkpt lat="45.094920264278024" lon="9.99072495339708"><ele>40.0</ele><time>2026-04-18T05:12:14.999Z</time></trkpt><trkpt lat="45.0948475916732" lon="9.990733339663134"><ele>40.0</ele><time>2026-04-18T05:12:15.999Z</time></trkpt><trkpt lat="45.09477295738532" lon="9.99073571612277"><ele>40.0</ele><time>2026-04-18T05:12:16.999Z</time></trkpt><trkpt lat="45.09469829381275" lon="9.990737041605504"><ele>39.57142857142857</ele><time>2026-04-18T05:12:17.999Z</time></trkpt><trkpt lat="45.09462531956867" lon="9.99073845635297"><ele>39.142857142857146</ele><time>2026-04-18T05:12:18.999Z</time></trkpt><trkpt lat="45.09455327329272" lon="9.990739527578363"><ele>38.714285714285715</ele><time>2026-04-18T05:12:19.999Z</time></trkpt><trkpt lat="45.09448054482102" lon="9.990741515634113"><ele>38.285714285714285</ele><time>2026-04-18T05:12:20.999Z</time></trkpt><trkpt lat="45.09440813110353" lon="9.990753203710188"><ele>37.857142857142854</ele><time>2026-04-18T05:12:21.999Z</time></trkpt><trkpt lat="45.09433784751499" lon="9.99077491406388"><ele>37.42857142857143</ele><time>2026-04-18T05:12:22.999Z</time></trkpt><trkpt lat="45.094269228152264" lon="9.990805649311111"><ele>37.0</ele><time>2026-04-18T05:12:23.999Z</time></trkpt><trkpt lat="45.094203202632954" lon="9.99084654558238"><ele>37.0</ele><time>2026-04-18T05:12:24.999Z</time></trkpt><trkpt lat="45.094135212595255" lon="9.990888861304816"><ele>37.0</ele><time>2026-04-18T05:12:25.999Z</time></trkpt><trkpt lat="45.09407097866972" lon="9.990939574428413"><ele>37.0</ele><time>2026-04-18T05:12:26.999Z</time></trkpt><trkpt lat="45.09400815809143" lon="9.990992550139612"><ele>37.0</ele><time>2026-04-18T05:12:27.999Z</time></trkpt><trkpt lat="45.09394467934206" lon="9.991048380640514"><ele>37.0</ele><time>2026-04-18T05:12:28.999Z</time></trkpt><trkpt lat="45.09388347947423" lon="9.991109219256565"><ele>37.0</ele><time>2026-04-18T05:12:29.998Z</time></trkpt><trkpt lat="45.09382136720448" lon="9.991168427434896"><ele>37.0</ele><time>2026-04-18T05:12:30.998Z</time></trkpt><trkpt lat="45.093763386904726" lon="9.991229362014721"><ele>37.142857142857146</ele><time>2026-04-18T05:12:31.998Z</time></trkpt><trkpt lat="45.09370338405072" lon="9.991287492123385"><ele>37.285714285714285</ele><time>2026-04-18T05:12:32.998Z</time></trkpt><trkpt lat="45.09363985535358" lon="9.991341507128631"><ele>37.42857142857143</ele><time>2026-04-18T05:12:33.998Z</time></trkpt><trkpt lat="45.09357814458729" lon="9.991394013834304"><ele>37.57142857142857</ele><time>2026-04-18T05:12:34.998Z</time></trkpt><trkpt lat="45.09351515038601" lon="9.991446720415764"><ele>37.714285714285715</ele><time>2026-04-18T05:12:35.998Z</time></trkpt><trkpt lat="45.093452045468105" lon="9.991500681637005"><ele>37.857142857142854</ele><time>2026-04-18T05:12:36.998Z</time></trkpt><trkpt lat="45.09338912692171" lon="9.991553349697215"><ele>38.0</ele><time>2026-04-18T05:12:37.998Z</time></trkpt><trkpt lat="45.09332273088387" lon="9.991605255677847"><ele>38.0</ele><time>2026-04-18T05:12:38.998Z</time></trkpt><trkpt lat="45.09325613191148" lon="9.991656400567637"><ele>38.0</ele><time>2026-04-18T05:12:39.998Z</time></trkpt><trkpt lat="45.093187957843206" lon="9.991699686788898"><ele>38.0</ele><time>2026-04-18T05:12:40.998Z</time></trkpt><trkpt lat="45.09311682565142" lon="9.991737395492686"><ele>38.0</ele><time>2026-04-18T05:12:41.998Z</time></trkpt><trkpt lat="45.09304627430601" lon="9.991775219660376"><ele>38.0</ele><time>2026-04-18T05:12:42.998Z</time></trkpt><trkpt lat="45.09297655462658" lon="9.991811295544327"><ele>38.0</ele><time>2026-04-18T05:12:44Z</time></trkpt><trkpt lat="45.09290556655652" lon="9.991841921067579"><ele>38.0</ele><time>2026-04-18T05:12:45Z</time></trkpt><trkpt lat="45.09283243186186" lon="9.99186577580081"><ele>38.0</ele><time>2026-04-18T05:12:46Z</time></trkpt><trkpt lat="45.092760577755655" lon="9.991888042988958"><ele>38.0</ele><time>2026-04-18T05:12:47Z</time></trkpt><trkpt lat="45.09268709758278" lon="9.991907892526488"><ele>38.0</ele><time>2026-04-18T05:12:48Z</time></trkpt><trkpt lat="45.09261341856306" lon="9.991921896808716"><ele>38.0</ele><time>2026-04-18T05:12:49Z</time></trkpt><trkpt lat="45.09254112778069" lon="9.991936220803545"><ele>38.0</ele><time>2026-04-18T05:12:50Z</time></trkpt><trkpt lat="45.09246711828036" lon="9.991946944095307"><ele>38.0</ele><time>2026-04-18T05:12:51Z</time></trkpt><trkpt lat="45.09239266497454" lon="9.991952125513016"><ele>38.0</ele><time>2026-04-18T05:12:52Z</time></trkpt><trkpt lat="45.092318861695574" lon="9.99195721369882"><ele>38.0</ele><time>2026-04-18T05:12:53Z</time></trkpt><trkpt lat="45.0922450707526" lon="9.991956240262736"><ele>38.0</ele><time>2026-04-18T05:12:54Z</time></trkpt><trkpt lat="45.09217141272997" lon="9.991952122166788"><ele>38.0</ele><time>2026-04-18T05:12:55Z</time></trkpt><trkpt lat="45.09209943397492" lon="9.991946866567787"><ele>38.0</ele><time>2026-04-18T05:12:56Z</time></trkpt><trkpt lat="45.09202590608307" lon="9.99193333407349"><ele>38.0</ele><time>2026-04-18T05:12:57Z</time></trkpt><trkpt lat="45.09195463622777" lon="9.991919584807953"><ele>38.0</ele><time>2026-04-18T05:12:58Z</time></trkpt><trkpt lat="45.09188257289736" lon="9.991898779342625"><ele>38.0</ele><time>2026-04-18T05:12:59Z</time></trkpt><trkpt lat="45.09181160379551" lon="9.991885276841774"><ele>38.0</ele><time>2026-04-18T05:13:00Z</time></trkpt><trkpt lat="45.09173677664899" lon="9.991862868847004"><ele>38.0</ele><time>2026-04-18T05:13:01Z</time></trkpt><trkpt lat="45.091664420153066" lon="9.991840259678728"><ele>38.0</ele><time>2026-04-18T05:13:02Z</time></trkpt><trkpt lat="45.09159286959921" lon="9.99182299282097"><ele>38.0</ele><time>2026-04-18T05:13:03Z</time></trkpt><trkpt lat="45.09151977567371" lon="9.991801173194002"><ele>38.0</ele><time>2026-04-18T05:13:04Z</time></trkpt><trkpt lat="45.091444980107376" lon="9.991782163267601"><ele>38.0</ele><time>2026-04-18T05:13:05Z</time></trkpt><trkpt lat="45.091372797493634" lon="9.9917641736366"><ele>37.857142857142854</ele><time>2026-04-18T05:13:06Z</time></trkpt><trkpt lat="45.091302851065656" lon="9.991748604737312"><ele>37.714285714285715</ele><time>2026-04-18T05:13:07Z</time></trkpt><trkpt lat="45.091227800393746" lon="9.991730345394286"><ele>37.57142857142857</ele><time>2026-04-18T05:13:08Z</time></trkpt><trkpt lat="45.091157895145344" lon="9.991716528515617"><ele>37.42857142857143</ele><time>2026-04-18T05:13:09Z</time></trkpt><trkpt lat="45.091086639095764" lon="9.991701250576595"><ele>37.285714285714285</ele><time>2026-04-18T05:13:10Z</time></trkpt><trkpt lat="45.091016791745915" lon="9.99168725714351"><ele>37.142857142857146</ele><time>2026-04-18T05:13:11Z</time></trkpt><trkpt lat="45.09094509617583" lon="9.991671164503593"><ele>37.0</ele><time>2026-04-18T05:13:12Z</time></trkpt><trkpt lat="45.09087384801926" lon="9.991657286077197"><ele>36.85714285714286</ele><time>2026-04-18T05:13:13Z</time></trkpt><trkpt lat="45.090799889415926" lon="9.991640164087928"><ele>36.714285714285715</ele><time>2026-04-18T05:13:14Z</time></trkpt><trkpt lat="45.09072780126934" lon="9.991626021232658"><ele>36.57142857142857</ele><time>2026-04-18T05:13:15Z</time></trkpt><trkpt lat="45.090654766152646" lon="9.991614137603726"><ele>36.42857142857143</ele><time>2026-04-18T05:13:16Z</time></trkpt><trkpt lat="45.09058107010402" lon="9.99159648510746"><ele>36.285714285714285</ele><time>2026-04-18T05:13:17Z</time></trkpt><trkpt lat="45.09050805675972" lon="9.991578911014773"><ele>36.142857142857146</ele><time>2026-04-18T05:13:18Z</time></trkpt><trkpt lat="45.09043757854983" lon="9.991556106406739"><ele>36.0</ele><time>2026-04-18T05:13:19Z</time></trkpt><trkpt lat="45.090367556525564" lon="9.991533522759331"><ele>36.28571428571429</ele><time>2026-04-18T05:13:20Z</time></trkpt><trkpt lat="45.090298350770716" lon="9.991495900782414"><ele>36.57142857142857</ele><time>2026-04-18T05:13:21Z</time></trkpt><trkpt lat="45.090228619852205" lon="9.99145871032142"><ele>36.85714285714286</ele><time>2026-04-18T05:13:22Z</time></trkpt><trkpt lat="45.09015403681458" lon="9.99144252147951"><ele>37.142857142857146</ele><time>2026-04-18T05:13:23Z</time></trkpt><trkpt lat="45.09007826749908" lon="9.991447432083426"><ele>37.42857142857143</ele><time>2026-04-18T05:13:24Z</time></trkpt><trkpt lat="45.09000360206674" lon="9.991456586887304"><ele>37.714285714285715</ele><time>2026-04-18T05:13:25Z</time></trkpt><trkpt lat="45.08992939019899" lon="9.991456466043019"><ele>38.0</ele><time>2026-04-18T05:13:26Z</time></trkpt><trkpt lat="45.08985587622576" lon="9.991439240283551"><ele>38.0</ele><time>2026-04-18T05:13:27Z</time></trkpt><trkpt lat="45.0897802876403" lon="9.991417413165644"><ele>38.0</ele><time>2026-04-18T05:13:28Z</time></trkpt><trkpt lat="45.08970805562216" lon="9.991397407947964"><ele>38.0</ele><time>2026-04-18T05:13:29Z</time></trkpt><trkpt lat="45.08963767892042" lon="9.991378642987643"><ele>38.0</ele><time>2026-04-18T05:13:30Z</time></trkpt><trkpt lat="45.08956404569121" lon="9.991356804619578"><ele>38.0</ele><time>2026-04-18T05:13:31Z</time></trkpt><trkpt lat="45.089492222208904" lon="9.991337385698474"><ele>38.0</ele><time>2026-04-18T05:13:32Z</time></trkpt><trkpt lat="45.08942033474599" lon="9.991311613158077"><ele>38.0</ele><time>2026-04-18T05:13:33Z</time></trkpt><trkpt lat="45.08935069972122" lon="9.99128592529923"><ele>38.0</ele><time>2026-04-18T05:13:34Z</time></trkpt><trkpt lat="45.08927887144077" lon="9.991265325974675"><ele>38.0</ele><time>2026-04-18T05:13:35Z</time></trkpt><trkpt lat="45.08920940485738" lon="9.991243853699395"><ele>38.0</ele><time>2026-04-18T05:13:36Z</time></trkpt><trkpt lat="45.089138743134924" lon="9.991217714436095"><ele>38.0</ele><time>2026-04-18T05:13:37Z</time></trkpt><trkpt lat="45.08906719730123" lon="9.9911945118934"><ele>38.0</ele><time>2026-04-18T05:13:37.999Z</time></trkpt><trkpt lat="45.08899590177029" lon="9.991166584816332"><ele>38.0</ele><time>2026-04-18T05:13:38.999Z</time></trkpt><trkpt lat="45.08892530476402" lon="9.99113037316478"><ele>38.0</ele><time>2026-04-18T05:13:39.999Z</time></trkpt><trkpt lat="45.088858242566154" lon="9.9910945533374"><ele>38.0</ele><time>2026-04-18T05:13:40.999Z</time></trkpt><trkpt lat="45.08878818666134" lon="9.991049832129308"><ele>38.0</ele><time>2026-04-18T05:13:41.999Z</time></trkpt><trkpt lat="45.08872172994232" lon="9.991003009924682"><ele>38.0</ele><time>2026-04-18T05:13:42.999Z</time></trkpt><trkpt lat="45.0886543792883" lon="9.990948378257423"><ele>38.0</ele><time>2026-04-18T05:13:43.999Z</time></trkpt><trkpt lat="45.0885864350485" lon="9.99089089378242"><ele>38.0</ele><time>2026-04-18T05:13:44.999Z</time></trkpt><trkpt lat="45.08852252681028" lon="9.990825128418475"><ele>38.0</ele><time>2026-04-18T05:13:45.999Z</time></trkpt><trkpt lat="45.08845873766029" lon="9.990754143386448"><ele>37.83333333333333</ele><time>2026-04-18T05:13:46.999Z</time></trkpt><trkpt lat="45.08839505955864" lon="9.990682798890216"><ele>37.666666666666664</ele><time>2026-04-18T05:13:47.999Z</time></trkpt><trkpt lat="45.08833213952126" lon="9.990608277440918"><ele>37.5</ele><time>2026-04-18T05:13:48.999Z</time></trkpt><trkpt lat="45.0882706338946" lon="9.990534512913056"><ele>37.333333333333336</ele><time>2026-04-18T05:13:49.999Z</time></trkpt><trkpt lat="45.088208896990125" lon="9.990456267925353"><ele>37.16666666666667</ele><time>2026-04-18T05:13:50.999Z</time></trkpt><trkpt lat="45.08814799219001" lon="9.990379717638126"><ele>37.0</ele><time>2026-04-18T05:13:51.999Z</time></trkpt><trkpt lat="45.08808759003272" lon="9.990305388234644"><ele>36.833333333333336</ele><time>2026-04-18T05:13:52.999Z</time></trkpt><trkpt lat="45.08802518566012" lon="9.990230970890142"><ele>36.66666666666667</ele><time>2026-04-18T05:13:53.999Z</time></trkpt><trkpt lat="45.08796423107344" lon="9.99015693393539"><ele>36.5</ele><time>2026-04-18T05:13:54.999Z</time></trkpt><trkpt lat="45.0879022857086" lon="9.990083477463754"><ele>36.333333333333336</ele><time>2026-04-18T05:13:55.999Z</time></trkpt><trkpt lat="45.08784121721535" lon="9.9900087425937"><ele>36.166666666666664</ele><time>2026-04-18T05:13:56.999Z</time></trkpt><trkpt lat="45.087781213842476" lon="9.989934801632632"><ele>36.0</ele><time>2026-04-18T05:13:57.999Z</time></trkpt><trkpt lat="45.087722584798385" lon="9.98986016923232"><ele>36.0</ele><time>2026-04-18T05:13:58.999Z</time></trkpt><trkpt lat="45.0876625782065" lon="9.989788461706802"><ele>36.0</ele><time>2026-04-18T05:13:59.999Z</time></trkpt><trkpt lat="45.08760383365015" lon="9.989720362000384"><ele>36.0</ele><time>2026-04-18T05:14:00.999Z</time></trkpt><trkpt lat="45.08754604498084" lon="9.989650161572058"><ele>36.0</ele><time>2026-04-18T05:14:01.999Z</time></trkpt><trkpt lat="45.087487111918634" lon="9.989579639293337"><ele>36.0</ele><time>2026-04-18T05:14:02.999Z</time></trkpt><trkpt lat="45.08743230478849" lon="9.989509297008976"><ele>36.0</ele><time>2026-04-18T05:14:03.999Z</time></trkpt><trkpt lat="45.08737557686786" lon="9.989439545129008"><ele>36.00000000000001</ele><time>2026-04-18T05:14:04.999Z</time></trkpt><trkpt lat="45.087316999178114" lon="9.989369537049068"><ele>36.0</ele><time>2026-04-18T05:14:05.999Z</time></trkpt><trkpt lat="45.087260710909895" lon="9.989301556615983"><ele>36.0</ele><time>2026-04-18T05:14:06.999Z</time></trkpt><trkpt lat="45.0872045783176" lon="9.989232366567071"><ele>36.0</ele><time>2026-04-18T05:14:07.999Z</time></trkpt><trkpt lat="45.08714708788297" lon="9.989164573310058"><ele>36.0</ele><time>2026-04-18T05:14:08.999Z</time></trkpt><trkpt lat="45.08709001153072" lon="9.989096064030164"><ele>36.00000000000001</ele><time>2026-04-18T05:14:09.999Z</time></trkpt><trkpt lat="45.08703407069191" lon="9.98902832062855"><ele>36.0</ele><time>2026-04-18T05:14:10.999Z</time></trkpt><trkpt lat="45.08697980353036" lon="9.988962285445558"><ele>36.00000000000001</ele><time>2026-04-18T05:14:11.999Z</time></trkpt><trkpt lat="45.086923983561945" lon="9.988891523630542"><ele>36.0</ele><time>2026-04-18T05:14:12.999Z</time></trkpt><trkpt lat="45.0868676581899" lon="9.988823184517466"><ele>36.0</ele><time>2026-04-18T05:14:13.999Z</time></trkpt><trkpt lat="45.08681135299806" lon="9.98875696001251"><ele>36.0</ele><time>2026-04-18T05:14:14.999Z</time></trkpt><trkpt lat="45.08675548746007" lon="9.988685966948983"><ele>36.0</ele><time>2026-04-18T05:14:15.999Z</time></trkpt><trkpt lat="45.08669976126075" lon="9.98861917795701"><ele>36.00000000000001</ele><time>2026-04-18T05:14:16.999Z</time></trkpt><trkpt lat="45.08664333321922" lon="9.988552877240737"><ele>36.0</ele><time>2026-04-18T05:14:17.999Z</time></trkpt><trkpt lat="45.08658825667027" lon="9.988483507400456"><ele>36.00000000000001</ele><time>2026-04-18T05:14:18.999Z</time></trkpt><trkpt lat="45.086531592067075" lon="9.98841777735017"><ele>36.0</ele><time>2026-04-18T05:14:19.999Z</time></trkpt><trkpt lat="45.08647560334568" lon="9.988351433757378"><ele>36.0</ele><time>2026-04-18T05:14:20.999Z</time></trkpt><trkpt lat="45.086420553645326" lon="9.98828384113437"><ele>36.0</ele><time>2026-04-18T05:14:21.999Z</time></trkpt><trkpt lat="45.08636679954445" lon="9.988216644087236"><ele>36.0</ele><time>2026-04-18T05:14:22.999Z</time></trkpt><trkpt lat="45.08631137548737" lon="9.988147732635095"><ele>36.00000000000001</ele><time>2026-04-18T05:14:23.999Z</time></trkpt><trkpt lat="45.08625519846099" lon="9.98808121955288"><ele>36.0</ele><time>2026-04-18T05:14:24.999Z</time></trkpt><trkpt lat="45.08620069592039" lon="9.988014670382354"><ele>35.85714285714286</ele><time>2026-04-18T05:14:25.999Z</time></trkpt><trkpt lat="45.08614458556523" lon="9.98794850565016"><ele>35.714285714285715</ele><time>2026-04-18T05:14:26.999Z</time></trkpt><trkpt lat="45.0860895584661" lon="9.987884028924142"><ele>35.57142857142857</ele><time>2026-04-18T05:14:27.999Z</time></trkpt><trkpt lat="45.08603445498513" lon="9.98781544171165"><ele>35.42857142857143</ele><time>2026-04-18T05:14:28.999Z</time></trkpt><trkpt lat="45.08597862700706" lon="9.987749622048572"><ele>35.285714285714285</ele><time>2026-04-18T05:14:29.999Z</time></trkpt><trkpt lat="45.085924094117345" lon="9.98768249963724"><ele>35.142857142857146</ele><time>2026-04-18T05:14:30.999Z</time></trkpt><trkpt lat="45.08586822755745" lon="9.987612023561969"><ele>35.0</ele><time>2026-04-18T05:14:31.999Z</time></trkpt><trkpt lat="45.08581421771642" lon="9.987544711323121"><ele>35.0</ele><time>2026-04-18T05:14:32.998Z</time></trkpt><trkpt lat="45.08575951935671" lon="9.98747630278829"><ele>35.0</ele><time>2026-04-18T05:14:33.998Z</time></trkpt><trkpt lat="45.08570348732925" lon="9.987407606216422"><ele>35.0</ele><time>2026-04-18T05:14:34.998Z</time></trkpt><trkpt lat="45.08564905765102" lon="9.987345454313592"><ele>35.0</ele><time>2026-04-18T05:14:35.998Z</time></trkpt><trkpt lat="45.085594864742106" lon="9.987275756500669"><ele>35.0</ele><time>2026-04-18T05:14:36.998Z</time></trkpt><trkpt lat="45.08554059337974" lon="9.98721057782862"><ele>35.0</ele><time>2026-04-18T05:14:37.998Z</time></trkpt><trkpt lat="45.08548670652311" lon="9.98714571036582"><ele>35.0</ele><time>2026-04-18T05:14:38.998Z</time></trkpt><trkpt lat="45.08543219340474" lon="9.987078969867111"><ele>35.0</ele><time>2026-04-18T05:14:39.998Z</time></trkpt><trkpt lat="45.08537669706301" lon="9.98701537916705"><ele>35.0</ele><time>2026-04-18T05:14:40.998Z</time></trkpt><trkpt lat="45.08532032372497" lon="9.986948599181849"><ele>35.0</ele><time>2026-04-18T05:14:41.998Z</time></trkpt><trkpt lat="45.08526459582322" lon="9.986885930097909"><ele>35.0</ele><time>2026-04-18T05:14:42.998Z</time></trkpt><trkpt lat="45.08520817578609" lon="9.986823829508324"><ele>35.0</ele><time>2026-04-18T05:14:43.998Z</time></trkpt><trkpt lat="45.08514884458928" lon="9.9867698450778"><ele>35.0</ele><time>2026-04-18T05:14:44.998Z</time></trkpt><trkpt lat="45.08508637421225" lon="9.986719626520014"><ele>35.0</ele><time>2026-04-18T05:14:45.998Z</time></trkpt><trkpt lat="45.085020922667596" lon="9.986670525170647"><ele>35.0</ele><time>2026-04-18T05:14:46.998Z</time></trkpt><trkpt lat="45.08495689845983" lon="9.986625185165996"><ele>35.0</ele><time>2026-04-18T05:14:47.998Z</time></trkpt><trkpt lat="45.08488946860707" lon="9.986585990364702"><ele>35.0</ele><time>2026-04-18T05:14:48.998Z</time></trkpt><trkpt lat="45.08481818192237" lon="9.986553518388579"><ele>35.0</ele><time>2026-04-18T05:14:50Z</time></trkpt><trkpt lat="45.08474718371263" lon="9.986527350106595"><ele>35.0</ele><time>2026-04-18T05:14:51Z</time></trkpt><trkpt lat="45.084675807383874" lon="9.986504482323108"><ele>35.0</ele><time>2026-04-18T05:14:52Z</time></trkpt><trkpt lat="45.08460547084623" lon="9.986485768612797"><ele>35.0</ele><time>2026-04-18T05:14:53Z</time></trkpt><trkpt lat="45.08453381450836" lon="9.986465813145543"><ele>35.0</ele><time>2026-04-18T05:14:54Z</time></trkpt><trkpt lat="45.08446106693547" lon="9.986459200565868"><ele>35.0</ele><time>2026-04-18T05:14:55Z</time></trkpt><trkpt lat="45.084388763705114" lon="9.986454606724397"><ele>35.0</ele><time>2026-04-18T05:14:56Z</time></trkpt><trkpt lat="45.08431570513476" lon="9.98645724923177"><ele>35.0</ele><time>2026-04-18T05:14:57Z</time></trkpt><trkpt lat="45.084243386880075" lon="9.98646615848543"><ele>35.0</ele><time>2026-04-18T05:14:58Z</time></trkpt><trkpt lat="45.08416977136466" lon="9.986473795785678"><ele>35.0</ele><time>2026-04-18T05:14:59Z</time></trkpt><trkpt lat="45.084098007267116" lon="9.98648966021876"><ele>35.0</ele><time>2026-04-18T05:15:00Z</time></trkpt><trkpt lat="45.084027311329194" lon="9.986514803120292"><ele>35.285714285714285</ele><time>2026-04-18T05:15:01Z</time></trkpt><trkpt lat="45.08395574257813" lon="9.986542190363338"><ele>35.57142857142857</ele><time>2026-04-18T05:15:02Z</time></trkpt><trkpt lat="45.08388606096479" lon="9.986574384222205"><ele>35.85714285714286</ele><time>2026-04-18T05:15:03Z</time></trkpt><trkpt lat="45.08381732505851" lon="9.98660841007049"><ele>36.14285714285714</ele><time>2026-04-18T05:15:04Z</time></trkpt><trkpt lat="45.083748475064" lon="9.98664613772753"><ele>36.42857142857143</ele><time>2026-04-18T05:15:05Z</time></trkpt><trkpt lat="45.083680988336894" lon="9.986688817575237"><ele>36.714285714285715</ele><time>2026-04-18T05:15:06Z</time></trkpt><trkpt lat="45.083618210112675" lon="9.986736075173992"><ele>37.0</ele><time>2026-04-18T05:15:07Z</time></trkpt><trkpt lat="45.08355446521567" lon="9.986786828097868"><ele>37.0</ele><time>2026-04-18T05:15:08Z</time></trkpt><trkpt lat="45.08348883561081" lon="9.98683579447854"><ele>37.0</ele><time>2026-04-18T05:15:09Z</time></trkpt><trkpt lat="45.083422810485466" lon="9.98688482021104"><ele>37.0</ele><time>2026-04-18T05:15:10Z</time></trkpt><trkpt lat="45.083357971897584" lon="9.986931810814125"><ele>37.0</ele><time>2026-04-18T05:15:11Z</time></trkpt><trkpt lat="45.08328600725035" lon="9.986977516066533"><ele>37.0</ele><time>2026-04-18T05:15:12Z</time></trkpt><trkpt lat="45.0832094875349" lon="9.987027775004494"><ele>37.0</ele><time>2026-04-18T05:15:13Z</time></trkpt><trkpt lat="45.08313967868037" lon="9.987071907347259"><ele>36.66666666666667</ele><time>2026-04-18T05:15:14Z</time></trkpt><trkpt lat="45.083070273389886" lon="9.987114600416781"><ele>36.333333333333336</ele><time>2026-04-18T05:15:15Z</time></trkpt><trkpt lat="45.0830002827002" lon="9.987154466794278"><ele>36.0</ele><time>2026-04-18T05:15:16Z</time></trkpt><trkpt lat="45.08292862771909" lon="9.987189342270252"><ele>35.666666666666664</ele><time>2026-04-18T05:15:17Z</time></trkpt><trkpt lat="45.08285633706711" lon="9.98722062571151"><ele>35.33333333333333</ele><time>2026-04-18T05:15:18Z</time></trkpt><trkpt lat="45.08278403243614" lon="9.987251449422295"><ele>35.0</ele><time>2026-04-18T05:15:19Z</time></trkpt><trkpt lat="45.082711535530166" lon="9.987280381519529"><ele>35.0</ele><time>2026-04-18T05:15:20Z</time></trkpt><trkpt lat="45.08264138320534" lon="9.987309083987727"><ele>35.0</ele><time>2026-04-18T05:15:21Z</time></trkpt><trkpt lat="45.08256952221405" lon="9.987339270270546"><ele>35.0</ele><time>2026-04-18T05:15:22Z</time></trkpt><trkpt lat="45.08249877184797" lon="9.987371248458542"><ele>35.0</ele><time>2026-04-18T05:15:23Z</time></trkpt><trkpt lat="45.08242887695692" lon="9.987400850259863"><ele>35.0</ele><time>2026-04-18T05:15:24Z</time></trkpt><trkpt lat="45.08235825679305" lon="9.987428836838417"><ele>35.0</ele><time>2026-04-18T05:15:25Z</time></trkpt><trkpt lat="45.08228894725973" lon="9.98745970599829"><ele>35.0</ele><time>2026-04-18T05:15:26Z</time></trkpt><trkpt lat="45.08221801085913" lon="9.98748676454075"><ele>35.285714285714285</ele><time>2026-04-18T05:15:27Z</time></trkpt><trkpt lat="45.08214776871659" lon="9.987516394713255"><ele>35.57142857142857</ele><time>2026-04-18T05:15:28Z</time></trkpt><trkpt lat="45.08207562441443" lon="9.98754562639361"><ele>35.85714285714286</ele><time>2026-04-18T05:15:29Z</time></trkpt><trkpt lat="45.082005732152155" lon="9.987577393955402"><ele>36.14285714285714</ele><time>2026-04-18T05:15:30Z</time></trkpt><trkpt lat="45.08193624074704" lon="9.987608124694413"><ele>36.42857142857143</ele><time>2026-04-18T05:15:31Z</time></trkpt><trkpt lat="45.081865399905105" lon="9.98763678895374"><ele>36.714285714285715</ele><time>2026-04-18T05:15:32Z</time></trkpt><trkpt lat="45.08179516135324" lon="9.987664096873278"><ele>37.0</ele><time>2026-04-18T05:15:33Z</time></trkpt><trkpt lat="45.08172423103037" lon="9.987690954992122"><ele>37.0</ele><time>2026-04-18T05:15:34Z</time></trkpt><trkpt lat="45.08165479209237" lon="9.987720748369547"><ele>37.0</ele><time>2026-04-18T05:15:35Z</time></trkpt><trkpt lat="45.081585381185796" lon="9.987749291711118"><ele>37.0</ele><time>2026-04-18T05:15:36Z</time></trkpt><trkpt lat="45.08151527528811" lon="9.987776726143897"><ele>37.0</ele><time>2026-04-18T05:15:37Z</time></trkpt><trkpt lat="45.081446136259494" lon="9.987806748514378"><ele>37.0</ele><time>2026-04-18T05:15:38Z</time></trkpt><trkpt lat="45.08137771020298" lon="9.987838818300961"><ele>37.0</ele><time>2026-04-18T05:15:39Z</time></trkpt><trkpt lat="45.08131006284839" lon="9.987876421921648"><ele>37.0</ele><time>2026-04-18T05:15:40Z</time></trkpt><trkpt lat="45.08124385491967" lon="9.987919524244507"><ele>36.85714285714286</ele><time>2026-04-18T05:15:41Z</time></trkpt><trkpt lat="45.081178031153044" lon="9.987967280246442"><ele>36.714285714285715</ele><time>2026-04-18T05:15:41.999Z</time></trkpt><trkpt lat="45.081108970696185" lon="9.988009316452194"><ele>36.57142857142857</ele><time>2026-04-18T05:15:42.999Z</time></trkpt><trkpt lat="45.081038079171854" lon="9.988040688128716"><ele>36.42857142857143</ele><time>2026-04-18T05:15:43.999Z</time></trkpt><trkpt lat="45.08096681808874" lon="9.988066667627542"><ele>36.285714285714285</ele><time>2026-04-18T05:15:44.999Z</time></trkpt><trkpt lat="45.08089355505235" lon="9.988089867544273"><ele>36.142857142857146</ele><time>2026-04-18T05:15:45.999Z</time></trkpt><trkpt lat="45.08081945670237" lon="9.988118597303362"><ele>36.0</ele><time>2026-04-18T05:15:46.999Z</time></trkpt><trkpt lat="45.080746123581385" lon="9.988148951261039"><ele>36.333333333333336</ele><time>2026-04-18T05:15:47.999Z</time></trkpt><trkpt lat="45.08067477057138" lon="9.988173247841532"><ele>36.666666666666664</ele><time>2026-04-18T05:15:48.999Z</time></trkpt><trkpt lat="45.08059822693235" lon="9.9881876135893"><ele>37.0</ele><time>2026-04-18T05:15:49.999Z</time></trkpt><trkpt lat="45.08051999140097" lon="9.988197372018076"><ele>37.33333333333333</ele><time>2026-04-18T05:15:50.999Z</time></trkpt><trkpt lat="45.080444657796846" lon="9.988215654748236"><ele>37.666666666666664</ele><time>2026-04-18T05:15:51.999Z</time></trkpt><trkpt lat="45.08037032021415" lon="9.988246208373461"><ele>38.0</ele><time>2026-04-18T05:15:52.999Z</time></trkpt><trkpt lat="45.080296615881664" lon="9.988280271756558"><ele>38.0</ele><time>2026-04-18T05:15:53.999Z</time></trkpt><trkpt lat="45.08022252298099" lon="9.988312824056123"><ele>38.0</ele><time>2026-04-18T05:15:54.999Z</time></trkpt><trkpt lat="45.08014847928869" lon="9.988346664385515"><ele>38.0</ele><time>2026-04-18T05:15:55.999Z</time></trkpt><trkpt lat="45.08007671106702" lon="9.988378723072323"><ele>38.0</ele><time>2026-04-18T05:15:56.999Z</time></trkpt><trkpt lat="45.08000209458369" lon="9.988410504772741"><ele>38.0</ele><time>2026-04-18T05:15:57.999Z</time></trkpt><trkpt lat="45.0799288381022" lon="9.988437891066805"><ele>38.0</ele><time>2026-04-18T05:15:58.999Z</time></trkpt><trkpt lat="45.07985316191743" lon="9.988466802931537"><ele>38.0</ele><time>2026-04-18T05:15:59.999Z</time></trkpt><trkpt lat="45.07977937144268" lon="9.988496775166547"><ele>38.0</ele><time>2026-04-18T05:16:00.999Z</time></trkpt><trkpt lat="45.07970696544432" lon="9.988527374214252"><ele>38.0</ele><time>2026-04-18T05:16:01.999Z</time></trkpt><trkpt lat="45.07963287661125" lon="9.988552574155255"><ele>38.0</ele><time>2026-04-18T05:16:02.999Z</time></trkpt><trkpt lat="45.0795592688906" lon="9.988583319458908"><ele>38.0</ele><time>2026-04-18T05:16:03.999Z</time></trkpt><trkpt lat="45.07948417893941" lon="9.988613087000353"><ele>38.0</ele><time>2026-04-18T05:16:04.999Z</time></trkpt><trkpt lat="45.079410111030185" lon="9.988642073941561"><ele>38.0</ele><time>2026-04-18T05:16:05.999Z</time></trkpt><trkpt lat="45.07933550137127" lon="9.988670178622277"><ele>38.0</ele><time>2026-04-18T05:16:06.999Z</time></trkpt><trkpt lat="45.079260974356345" lon="9.988694846042803"><ele>38.0</ele><time>2026-04-18T05:16:07.999Z</time></trkpt><trkpt lat="45.07918552402028" lon="9.988719140916011"><ele>38.0</ele><time>2026-04-18T05:16:08.999Z</time></trkpt><trkpt lat="45.07911084760661" lon="9.988740238394392"><ele>38.0</ele><time>2026-04-18T05:16:09.999Z</time></trkpt><trkpt lat="45.07903427444631" lon="9.988760274762603"><ele>38.0</ele><time>2026-04-18T05:16:10.999Z</time></trkpt><trkpt lat="45.07896103008323" lon="9.988777785888372"><ele>37.83333333333333</ele><time>2026-04-18T05:16:11.999Z</time></trkpt><trkpt lat="45.07888619767465" lon="9.988793675629864"><ele>37.666666666666664</ele><time>2026-04-18T05:16:12.999Z</time></trkpt><trkpt lat="45.07881213278537" lon="9.988811199320178"><ele>37.5</ele><time>2026-04-18T05:16:13.999Z</time></trkpt><trkpt lat="45.07873751578951" lon="9.988828774716735"><ele>37.333333333333336</ele><time>2026-04-18T05:16:14.999Z</time></trkpt><trkpt lat="45.07866256634199" lon="9.988845657710856"><ele>37.16666666666667</ele><time>2026-04-18T05:16:15.999Z</time></trkpt><trkpt lat="45.07858795855004" lon="9.988861310572549"><ele>37.0</ele><time>2026-04-18T05:16:16.999Z</time></trkpt><trkpt lat="45.07851274640922" lon="9.98887738506921"><ele>37.0</ele><time>2026-04-18T05:16:17.999Z</time></trkpt><trkpt lat="45.07843908275296" lon="9.98889277471504"><ele>37.0</ele><time>2026-04-18T05:16:18.999Z</time></trkpt><trkpt lat="45.0783646841325" lon="9.988909169885773"><ele>37.0</ele><time>2026-04-18T05:16:19.999Z</time></trkpt><trkpt lat="45.07828983849925" lon="9.988917373899465"><ele>37.0</ele><time>2026-04-18T05:16:20.999Z</time></trkpt><trkpt lat="45.078215838263205" lon="9.98892114580925"><ele>37.0</ele><time>2026-04-18T05:16:21.999Z</time></trkpt><trkpt lat="45.07814096076359" lon="9.988923514864018"><ele>37.0</ele><time>2026-04-18T05:16:22.999Z</time></trkpt><trkpt lat="45.07806714924224" lon="9.988923331295121"><ele>37.0</ele><time>2026-04-18T05:16:23.999Z</time></trkpt><trkpt lat="45.07799190432774" lon="9.988922384100302"><ele>36.85714285714286</ele><time>2026-04-18T05:16:24.999Z</time></trkpt><trkpt lat="45.0779177857946" lon="9.98892144094846"><ele>36.714285714285715</ele><time>2026-04-18T05:16:25.999Z</time></trkpt><trkpt lat="45.07784274559537" lon="9.988920090820166"><ele>36.57142857142857</ele><time>2026-04-18T05:16:26.999Z</time></trkpt><trkpt lat="45.077768506063265" lon="9.988921815001646"><ele>36.42857142857143</ele><time>2026-04-18T05:16:27.999Z</time></trkpt><trkpt lat="45.077694707685694" lon="9.988924132068954"><ele>36.285714285714285</ele><time>2026-04-18T05:16:28.999Z</time></trkpt><trkpt lat="45.07761900756225" lon="9.988923319622101"><ele>36.142857142857146</ele><time>2026-04-18T05:16:29.999Z</time></trkpt><trkpt lat="45.07754496774093" lon="9.988924009892884"><ele>36.0</ele><time>2026-04-18T05:16:30.999Z</time></trkpt><trkpt lat="45.07746930791569" lon="9.988922557225203"><ele>36.00000000000001</ele><time>2026-04-18T05:16:31.999Z</time></trkpt><trkpt lat="45.07739449728528" lon="9.988922828409205"><ele>36.0</ele><time>2026-04-18T05:16:32.999Z</time></trkpt><trkpt lat="45.077319207313764" lon="9.988925985561831"><ele>36.0</ele><time>2026-04-18T05:16:33.999Z</time></trkpt><trkpt lat="45.07724630053888" lon="9.988927533763535"><ele>36.0</ele><time>2026-04-18T05:16:34.999Z</time></trkpt><trkpt lat="45.077173571834415" lon="9.988928191146849"><ele>36.0</ele><time>2026-04-18T05:16:35.999Z</time></trkpt><trkpt lat="45.07710308054133" lon="9.988930947130312"><ele>36.00000000000001</ele><time>2026-04-18T05:16:36.999Z</time></trkpt><trkpt lat="45.077028870177244" lon="9.988933142291783"><ele>36.0</ele><time>2026-04-18T05:16:37.998Z</time></trkpt><trkpt lat="45.07695479369861" lon="9.988936628570702"><ele>36.0</ele><time>2026-04-18T05:16:38.998Z</time></trkpt><trkpt lat="45.076885680314696" lon="9.98894715957387"><ele>36.0</ele><time>2026-04-18T05:16:39.998Z</time></trkpt><trkpt lat="45.07681205454977" lon="9.988941013891777"><ele>36.0</ele><time>2026-04-18T05:16:40.998Z</time></trkpt><trkpt lat="45.076737450402575" lon="9.98899563739639"><ele>36.0</ele><time>2026-04-18T05:16:41.998Z</time></trkpt><trkpt lat="45.07668221056113" lon="9.989080901328604"><ele>36.0</ele><time>2026-04-18T05:16:42.998Z</time></trkpt><trkpt lat="45.07667200606028" lon="9.989219221577743"><ele>36.0</ele><time>2026-04-18T05:16:43.998Z</time></trkpt><trkpt lat="45.07666236521552" lon="9.989327005369068"><ele>36.166666666666664</ele><time>2026-04-18T05:16:44.998Z</time></trkpt><trkpt lat="45.07665819995849" lon="9.989432773137764"><ele>36.333333333333336</ele><time>2026-04-18T05:16:45.998Z</time></trkpt><trkpt lat="45.07665258417047" lon="9.98953709327714"><ele>36.5</ele><time>2026-04-18T05:16:46.998Z</time></trkpt><trkpt lat="45.076645984516304" lon="9.989644285835142"><ele>36.66666666666667</ele><time>2026-04-18T05:16:47.998Z</time></trkpt><trkpt lat="45.076653128031744" lon="9.989755568619705"><ele>36.833333333333336</ele><time>2026-04-18T05:16:48.998Z</time></trkpt><trkpt lat="45.076643981417156" lon="9.989866262645295"><ele>37.0</ele><time>2026-04-18T05:16:49.998Z</time></trkpt><trkpt lat="45.07663553981358" lon="9.989974950188808"><ele>37.0</ele><time>2026-04-18T05:16:50.998Z</time></trkpt><trkpt lat="45.07662614299187" lon="9.990084958194549"><ele>37.0</ele><time>2026-04-18T05:16:51.998Z</time></trkpt><trkpt lat="45.07661591487871" lon="9.990193325696575"><ele>37.0</ele><time>2026-04-18T05:16:52.998Z</time></trkpt><trkpt lat="45.07660347851336" lon="9.990300180225937"><ele>37.0</ele><time>2026-04-18T05:16:53.998Z</time></trkpt><trkpt lat="45.07658638884731" lon="9.99040817524549"><ele>37.0</ele><time>2026-04-18T05:16:55Z</time></trkpt><trkpt lat="45.07656484050431" lon="9.990513895506766"><ele>37.0</ele><time>2026-04-18T05:16:56Z</time></trkpt><trkpt lat="45.07653755103351" lon="9.990616199991775"><ele>37.16666666666667</ele><time>2026-04-18T05:16:57Z</time></trkpt><trkpt lat="45.07649918668303" lon="9.990711831345841"><ele>37.333333333333336</ele><time>2026-04-18T05:16:58Z</time></trkpt><trkpt lat="45.07645416927348" lon="9.990803444008707"><ele>37.5</ele><time>2026-04-18T05:16:59Z</time></trkpt><trkpt lat="45.07641003022718" lon="9.990894359092147"><ele>37.666666666666664</ele><time>2026-04-18T05:17:00Z</time></trkpt><trkpt lat="45.07636817591525" lon="9.990985258942526"><ele>37.83333333333333</ele><time>2026-04-18T05:17:01Z</time></trkpt><trkpt lat="45.07633233391017" lon="9.991081323488267"><ele>38.0</ele><time>2026-04-18T05:17:02Z</time></trkpt><trkpt lat="45.076284416908464" lon="9.991165376688853"><ele>38.0</ele><time>2026-04-18T05:17:03Z</time></trkpt><trkpt lat="45.07625535844913" lon="9.99126887072235"><ele>38.0</ele><time>2026-04-18T05:17:04Z</time></trkpt><trkpt lat="45.076252559034906" lon="9.991380388780696"><ele>38.0</ele><time>2026-04-18T05:17:05Z</time></trkpt><trkpt lat="45.07621902129103" lon="9.991474806224062"><ele>38.0</ele><time>2026-04-18T05:17:06Z</time></trkpt><trkpt lat="45.07620005728182" lon="9.99157100546126"><ele>38.0</ele><time>2026-04-18T05:17:07Z</time></trkpt><trkpt lat="45.076116818871625" lon="9.991698434869694"><ele>38.0</ele><time>2026-04-18T05:17:09Z</time></trkpt><trkpt lat="45.07603763635292" lon="9.991698238162316"><ele>38.0</ele><time>2026-04-18T05:17:10Z</time></trkpt><trkpt lat="45.0759632366163" lon="9.991701196535129"><ele>38.0</ele><time>2026-04-18T05:17:11Z</time></trkpt><trkpt lat="45.07588662617344" lon="9.991709981771427"><ele>38.0</ele><time>2026-04-18T05:17:12Z</time></trkpt><trkpt lat="45.07581057321728" lon="9.991722673504432"><ele>38.0</ele><time>2026-04-18T05:17:13Z</time></trkpt><trkpt lat="45.07573275213879" lon="9.991736103699314"><ele>38.0</ele><time>2026-04-18T05:17:14Z</time></trkpt><trkpt lat="45.0756544969456" lon="9.991738458121588"><ele>38.0</ele><time>2026-04-18T05:17:15Z</time></trkpt><trkpt lat="45.075575536545465" lon="9.991727618737158"><ele>38.0</ele><time>2026-04-18T05:17:16Z</time></trkpt><trkpt lat="45.075499172670355" lon="9.99171068638871"><ele>38.0</ele><time>2026-04-18T05:17:17Z</time></trkpt><trkpt lat="45.07542217550749" lon="9.991689627399948"><ele>38.0</ele><time>2026-04-18T05:17:18Z</time></trkpt><trkpt lat="45.07534743762728" lon="9.991670596718693"><ele>38.0</ele><time>2026-04-18T05:17:19Z</time></trkpt><trkpt lat="45.075270000337675" lon="9.991664453683166"><ele>38.0</ele><time>2026-04-18T05:17:20Z</time></trkpt><trkpt lat="45.07519285102685" lon="9.991672808773567"><ele>38.0</ele><time>2026-04-18T05:17:21Z</time></trkpt><trkpt lat="45.075116191047364" lon="9.991702343414694"><ele>38.0</ele><time>2026-04-18T05:17:22Z</time></trkpt><trkpt lat="45.07504375678615" lon="9.991748373832744"><ele>38.0</ele><time>2026-04-18T05:17:23Z</time></trkpt><trkpt lat="45.07497326820848" lon="9.991802653673426"><ele>38.0</ele><time>2026-04-18T05:17:24Z</time></trkpt><trkpt lat="45.07490571500354" lon="9.991858980900405"><ele>38.0</ele><time>2026-04-18T05:17:25Z</time></trkpt><trkpt lat="45.074837225883726" lon="9.991912170658507"><ele>38.0</ele><time>2026-04-18T05:17:26Z</time></trkpt><trkpt lat="45.07476768597835" lon="9.99196419427336"><ele>38.0</ele><time>2026-04-18T05:17:27Z</time></trkpt><trkpt lat="45.0746990407122" lon="9.992012401731836"><ele>38.166666666666664</ele><time>2026-04-18T05:17:28Z</time></trkpt><trkpt lat="45.074630531386845" lon="9.992062687406696"><ele>38.33333333333333</ele><time>2026-04-18T05:17:29Z</time></trkpt><trkpt lat="45.07456202593979" lon="9.992111823203217"><ele>38.5</ele><time>2026-04-18T05:17:30Z</time></trkpt><trkpt lat="45.07449489556531" lon="9.992164554071504"><ele>38.666666666666664</ele><time>2026-04-18T05:17:31Z</time></trkpt><trkpt lat="45.07442860089003" lon="9.992212345761128"><ele>38.833333333333336</ele><time>2026-04-18T05:17:32Z</time></trkpt><trkpt lat="45.07436135095495" lon="9.99226305395438"><ele>39.0</ele><time>2026-04-18T05:17:33Z</time></trkpt><trkpt lat="45.0742949396576" lon="9.992313926813543"><ele>39.0</ele><time>2026-04-18T05:17:34Z</time></trkpt><trkpt lat="45.07422839334784" lon="9.99236217038069"><ele>39.0</ele><time>2026-04-18T05:17:35Z</time></trkpt><trkpt lat="45.07415953739952" lon="9.992408030842306"><ele>39.0</ele><time>2026-04-18T05:17:36Z</time></trkpt><trkpt lat="45.074092177011906" lon="9.992452781198441"><ele>39.0</ele><time>2026-04-18T05:17:37Z</time></trkpt><trkpt lat="45.07402391090858" lon="9.992500532189908"><ele>39.0</ele><time>2026-04-18T05:17:38Z</time></trkpt><trkpt lat="45.073954731625555" lon="9.992547078926597"><ele>39.0</ele><time>2026-04-18T05:17:39Z</time></trkpt><trkpt lat="45.07388841905618" lon="9.992597464161019"><ele>38.666666666666664</ele><time>2026-04-18T05:17:40Z</time></trkpt><trkpt lat="45.07382175675187" lon="9.992646145672662"><ele>38.333333333333336</ele><time>2026-04-18T05:17:41Z</time></trkpt><trkpt lat="45.0737534476812" lon="9.992692574627021"><ele>38.0</ele><time>2026-04-18T05:17:42Z</time></trkpt><trkpt lat="45.07368294966934" lon="9.992736701792522"><ele>37.66666666666667</ele><time>2026-04-18T05:17:43Z</time></trkpt><trkpt lat="45.07361109817314" lon="9.992770058847123"><ele>37.333333333333336</ele><time>2026-04-18T05:17:44Z</time></trkpt><trkpt lat="45.07353581431027" lon="9.992794200987161"><ele>37.0</ele><time>2026-04-18T05:17:45Z</time></trkpt><trkpt lat="45.07346128613511" lon="9.992807988784364"><ele>37.0</ele><time>2026-04-18T05:17:45.999Z</time></trkpt><trkpt lat="45.07338614244734" lon="9.99281814022146"><ele>37.0</ele><time>2026-04-18T05:17:46.999Z</time></trkpt><trkpt lat="45.07331087526365" lon="9.99282675656074"><ele>37.0</ele><time>2026-04-18T05:17:47.999Z</time></trkpt><trkpt lat="45.07323619982914" lon="9.99283673692018"><ele>37.0</ele><time>2026-04-18T05:17:48.999Z</time></trkpt><trkpt lat="45.073161244217566" lon="9.992845119440796"><ele>37.0</ele><time>2026-04-18T05:17:49.999Z</time></trkpt><trkpt lat="45.073084845071534" lon="9.992855770213126"><ele>37.0</ele><time>2026-04-18T05:17:50.999Z</time></trkpt><trkpt lat="45.073011405020274" lon="9.99286663020757"><ele>36.85714285714286</ele><time>2026-04-18T05:17:51.999Z</time></trkpt><trkpt lat="45.072937013861186" lon="9.992872270437172"><ele>36.714285714285715</ele><time>2026-04-18T05:17:52.999Z</time></trkpt><trkpt lat="45.0728627646628" lon="9.992872768936262"><ele>36.57142857142857</ele><time>2026-04-18T05:17:53.999Z</time></trkpt><trkpt lat="45.072788407310014" lon="9.992876553707355"><ele>36.42857142857143</ele><time>2026-04-18T05:17:54.999Z</time></trkpt><trkpt lat="45.07271517321211" lon="9.99288050489339"><ele>36.285714285714285</ele><time>2026-04-18T05:17:55.999Z</time></trkpt><trkpt lat="45.07264033624753" lon="9.99289142039927"><ele>36.142857142857146</ele><time>2026-04-18T05:17:56.999Z</time></trkpt><trkpt lat="45.07256581047686" lon="9.992911077276716"><ele>36.0</ele><time>2026-04-18T05:17:57.999Z</time></trkpt><trkpt lat="45.07249470914935" lon="9.992941480289895"><ele>36.142857142857146</ele><time>2026-04-18T05:17:58.999Z</time></trkpt><trkpt lat="45.072427030176534" lon="9.992984438353831"><ele>36.285714285714285</ele><time>2026-04-18T05:17:59.999Z</time></trkpt><trkpt lat="45.07236399544336" lon="9.993043439088211"><ele>36.42857142857143</ele><time>2026-04-18T05:18:00.999Z</time></trkpt><trkpt lat="45.07230875725959" lon="9.993111409854905"><ele>36.57142857142857</ele><time>2026-04-18T05:18:01.999Z</time></trkpt><trkpt lat="45.07225701202042" lon="9.993188750259444"><ele>36.714285714285715</ele><time>2026-04-18T05:18:02.999Z</time></trkpt><trkpt lat="45.07220640896098" lon="9.993266296487274"><ele>36.85714285714286</ele><time>2026-04-18T05:18:03.999Z</time></trkpt><trkpt lat="45.07215662423972" lon="9.993345365663886"><ele>37.0</ele><time>2026-04-18T05:18:04.999Z</time></trkpt><trkpt lat="45.07209636646506" lon="9.993413270089212"><ele>37.0</ele><time>2026-04-18T05:18:05.999Z</time></trkpt><trkpt lat="45.07202845924187" lon="9.993468152766111"><ele>37.0</ele><time>2026-04-18T05:18:06.999Z</time></trkpt><trkpt lat="45.07195321509676" lon="9.99350105290274"><ele>37.0</ele><time>2026-04-18T05:18:07.999Z</time></trkpt><trkpt lat="45.071875697032326" lon="9.99351369983215"><ele>37.0</ele><time>2026-04-18T05:18:08.999Z</time></trkpt><trkpt lat="45.071796503974646" lon="9.993506628886028"><ele>37.0</ele><time>2026-04-18T05:18:09.999Z</time></trkpt><trkpt lat="45.07172117231016" lon="9.993488430193217"><ele>37.0</ele><time>2026-04-18T05:18:10.999Z</time></trkpt><trkpt lat="45.07164777323438" lon="9.993469932543473"><ele>37.16666666666667</ele><time>2026-04-18T05:18:11.999Z</time></trkpt><trkpt lat="45.07157248300249" lon="9.99345242316133"><ele>37.333333333333336</ele><time>2026-04-18T05:18:12.999Z</time></trkpt><trkpt lat="45.07149611500855" lon="9.993441177151936"><ele>37.5</ele><time>2026-04-18T05:18:13.999Z</time></trkpt><trkpt lat="45.07142040022821" lon="9.993426643345796"><ele>37.666666666666664</ele><time>2026-04-18T05:18:14.999Z</time></trkpt><trkpt lat="45.07134370426853" lon="9.99341386959839"><ele>37.83333333333333</ele><time>2026-04-18T05:18:15.999Z</time></trkpt><trkpt lat="45.071268576389286" lon="9.993403270274287"><ele>38.0</ele><time>2026-04-18T05:18:16.999Z</time></trkpt><trkpt lat="45.071194144098044" lon="9.993392020270248"><ele>38.0</ele><time>2026-04-18T05:18:17.999Z</time></trkpt><trkpt lat="45.07111828451288" lon="9.993382892138678"><ele>38.0</ele><time>2026-04-18T05:18:18.999Z</time></trkpt><trkpt lat="45.071043286866" lon="9.993374488093409"><ele>38.0</ele><time>2026-04-18T05:18:19.999Z</time></trkpt><trkpt lat="45.07096898169152" lon="9.993363043831605"><ele>38.0</ele><time>2026-04-18T05:18:20.999Z</time></trkpt><trkpt lat="45.07089474786523" lon="9.993355961555235"><ele>38.0</ele><time>2026-04-18T05:18:21.999Z</time></trkpt><trkpt lat="45.07081774916418" lon="9.99335906553073"><ele>38.0</ele><time>2026-04-18T05:18:22.999Z</time></trkpt><trkpt lat="45.07074022831183" lon="9.993375221107998"><ele>38.166666666666664</ele><time>2026-04-18T05:18:23.999Z</time></trkpt><trkpt lat="45.070668239278085" lon="9.993402476976348"><ele>38.33333333333333</ele><time>2026-04-18T05:18:24.999Z</time></trkpt><trkpt lat="45.07059412578065" lon="9.993422601528673"><ele>38.5</ele><time>2026-04-18T05:18:25.999Z</time></trkpt><trkpt lat="45.070516217710654" lon="9.99342732707089"><ele>38.666666666666664</ele><time>2026-04-18T05:18:26.999Z</time></trkpt><trkpt lat="45.070438134016314" lon="9.9934037458803"><ele>38.833333333333336</ele><time>2026-04-18T05:18:27.999Z</time></trkpt><trkpt lat="45.07036957743666" lon="9.993351758516578"><ele>39.0</ele><time>2026-04-18T05:18:28.999Z</time></trkpt><trkpt lat="45.070305022031235" lon="9.993278562339926"><ele>39.0</ele><time>2026-04-18T05:18:29.999Z</time></trkpt><trkpt lat="45.07024747164317" lon="9.993204140172558"><ele>39.0</ele><time>2026-04-18T05:18:30.999Z</time></trkpt><trkpt lat="45.07018713302989" lon="9.99313738592613"><ele>39.0</ele><time>2026-04-18T05:18:31.999Z</time></trkpt><trkpt lat="45.07012539444414" lon="9.993069710816457"><ele>39.0</ele><time>2026-04-18T05:18:32.999Z</time></trkpt><trkpt lat="45.07006548674555" lon="9.99300277103117"><ele>39.0</ele><time>2026-04-18T05:18:33.999Z</time></trkpt><trkpt lat="45.07000630718545" lon="9.992939047270289"><ele>39.0</ele><time>2026-04-18T05:18:34.999Z</time></trkpt><trkpt lat="45.069943930771984" lon="9.992878931660332"><ele>38.85714285714286</ele><time>2026-04-18T05:18:35.999Z</time></trkpt><trkpt lat="45.06988463268396" lon="9.992819774114201"><ele>38.71428571428571</ele><time>2026-04-18T05:18:36.999Z</time></trkpt><trkpt lat="45.069825570227096" lon="9.992756442367957"><ele>38.57142857142857</ele><time>2026-04-18T05:18:37.999Z</time></trkpt><trkpt lat="45.06976777987306" lon="9.992695179264274"><ele>38.42857142857143</ele><time>2026-04-18T05:18:38.999Z</time></trkpt><trkpt lat="45.069705475636965" lon="9.992631849354696"><ele>38.28571428571429</ele><time>2026-04-18T05:18:39.999Z</time></trkpt><trkpt lat="45.06964967431467" lon="9.992568659091225"><ele>38.14285714285714</ele><time>2026-04-18T05:18:40.999Z</time></trkpt><trkpt lat="45.069595208868" lon="9.992500481095274"><ele>38.0</ele><time>2026-04-18T05:18:41.998Z</time></trkpt><trkpt lat="45.06953781292969" lon="9.992437904707455"><ele>38.0</ele><time>2026-04-18T05:18:42.998Z</time></trkpt><trkpt lat="45.06948176908114" lon="9.992377007207548"><ele>38.0</ele><time>2026-04-18T05:18:43.998Z</time></trkpt><trkpt lat="45.06942266827946" lon="9.992310633132721"><ele>38.0</ele><time>2026-04-18T05:18:44.998Z</time></trkpt><trkpt lat="45.06936404351241" lon="9.992245846126771"><ele>38.0</ele><time>2026-04-18T05:18:45.998Z</time></trkpt><trkpt lat="45.06930797812753" lon="9.992185525245477"><ele>38.0</ele><time>2026-04-18T05:18:46.998Z</time></trkpt><trkpt lat="45.06925167724744" lon="9.992124646260962"><ele>38.0</ele><time>2026-04-18T05:18:47.998Z</time></trkpt><trkpt lat="45.06919344568569" lon="9.992061254975035"><ele>38.0</ele><time>2026-04-18T05:18:48.998Z</time></trkpt><trkpt lat="45.069137475722464" lon="9.99200950663164"><ele>38.0</ele><time>2026-04-18T05:18:49.998Z</time></trkpt><trkpt lat="45.06908367744103" lon="9.991934516093961"><ele>38.0</ele><time>2026-04-18T05:18:50.998Z</time></trkpt><trkpt lat="45.06902570574294" lon="9.991872903962388"><ele>38.0</ele><time>2026-04-18T05:18:51.998Z</time></trkpt><trkpt lat="45.06896738973152" lon="9.991809375300686"><ele>38.0</ele><time>2026-04-18T05:18:52.998Z</time></trkpt><trkpt lat="45.06890909577806" lon="9.991746296678228"><ele>38.0</ele><time>2026-04-18T05:18:53.998Z</time></trkpt><trkpt lat="45.068849267364065" lon="9.991682084992373"><ele>38.0</ele><time>2026-04-18T05:18:54.998Z</time></trkpt><trkpt lat="45.06879172112021" lon="9.99162077859028"><ele>38.0</ele><time>2026-04-18T05:18:55.998Z</time></trkpt><trkpt lat="45.06873392897324" lon="9.991553958451256"><ele>38.0</ele><time>2026-04-18T05:18:56.998Z</time></trkpt><trkpt lat="45.068676521697974" lon="9.991488596819714"><ele>38.0</ele><time>2026-04-18T05:18:57.998Z</time></trkpt><trkpt lat="45.06861670704395" lon="9.991423645875452"><ele>38.0</ele><time>2026-04-18T05:18:58.998Z</time></trkpt><trkpt lat="45.06855873519707" lon="9.99135824213523"><ele>38.0</ele><time>2026-04-18T05:18:59.998Z</time></trkpt><trkpt lat="45.06850196785574" lon="9.99129510550505"><ele>38.0</ele><time>2026-04-18T05:19:01Z</time></trkpt><trkpt lat="45.06844113679417" lon="9.991233085187814"><ele>38.0</ele><time>2026-04-18T05:19:02Z</time></trkpt><trkpt lat="45.06838376137922" lon="9.991169957088937"><ele>38.0</ele><time>2026-04-18T05:19:03Z</time></trkpt><trkpt lat="45.06832621847305" lon="9.991110266058868"><ele>38.0</ele><time>2026-04-18T05:19:04Z</time></trkpt><trkpt lat="45.06826960058427" lon="9.991044263307316"><ele>38.0</ele><time>2026-04-18T05:19:05Z</time></trkpt><trkpt lat="45.06821139216487" lon="9.990980624493023"><ele>38.0</ele><time>2026-04-18T05:19:06Z</time></trkpt><trkpt lat="45.06815533250495" lon="9.990920260186302"><ele>38.0</ele><time>2026-04-18T05:19:07Z</time></trkpt><trkpt lat="45.068096732765596" lon="9.99086251790875"><ele>38.0</ele><time>2026-04-18T05:19:08Z</time></trkpt><trkpt lat="45.06803677082125" lon="9.990812564542978"><ele>38.0</ele><time>2026-04-18T05:19:09Z</time></trkpt><trkpt lat="45.0679713586766" lon="9.990771924937613"><ele>38.0</ele><time>2026-04-18T05:19:10Z</time></trkpt><trkpt lat="45.067902497233774" lon="9.990744677940176"><ele>38.0</ele><time>2026-04-18T05:19:11Z</time></trkpt><trkpt lat="45.067828061515144" lon="9.990729047429063"><ele>38.0</ele><time>2026-04-18T05:19:12Z</time></trkpt><trkpt lat="45.06775499769585" lon="9.990729450274998"><ele>38.0</ele><time>2026-04-18T05:19:13Z</time></trkpt><trkpt lat="45.06768131530382" lon="9.990746456771868"><ele>38.0</ele><time>2026-04-18T05:19:14Z</time></trkpt><trkpt lat="45.06760835867" lon="9.990766565096024"><ele>38.0</ele><time>2026-04-18T05:19:15Z</time></trkpt><trkpt lat="45.067533019920695" lon="9.990785761566316"><ele>38.0</ele><time>2026-04-18T05:19:16Z</time></trkpt><trkpt lat="45.06746053151887" lon="9.990803439947646"><ele>38.0</ele><time>2026-04-18T05:19:17Z</time></trkpt><trkpt lat="45.06738432523012" lon="9.990811229948935"><ele>37.83333333333333</ele><time>2026-04-18T05:19:18Z</time></trkpt><trkpt lat="45.06730616665903" lon="9.990803655603008"><ele>37.666666666666664</ele><time>2026-04-18T05:19:19Z</time></trkpt><trkpt lat="45.06723067824461" lon="9.990790207710814"><ele>37.5</ele><time>2026-04-18T05:19:20Z</time></trkpt><trkpt lat="45.06715390447282" lon="9.990768579404875"><ele>37.333333333333336</ele><time>2026-04-18T05:19:21Z</time></trkpt><trkpt lat="45.06707886154524" lon="9.990740412123866"><ele>37.16666666666667</ele><time>2026-04-18T05:19:22Z</time></trkpt><trkpt lat="45.06700630319458" lon="9.990708523585544"><ele>37.0</ele><time>2026-04-18T05:19:23Z</time></trkpt><trkpt lat="45.06692981645588" lon="9.990670484484378"><ele>37.0</ele><time>2026-04-18T05:19:24Z</time></trkpt><trkpt lat="45.06685484750371" lon="9.990638057848004"><ele>37.0</ele><time>2026-04-18T05:19:25Z</time></trkpt><trkpt lat="45.06678233249427" lon="9.990606124772665"><ele>37.0</ele><time>2026-04-18T05:19:26Z</time></trkpt><trkpt lat="45.06670740236661" lon="9.990579558650278"><ele>37.0</ele><time>2026-04-18T05:19:27Z</time></trkpt><trkpt lat="45.06662922148477" lon="9.990568652891794"><ele>37.0</ele><time>2026-04-18T05:19:28Z</time></trkpt><trkpt lat="45.06655154601075" lon="9.990576340866223"><ele>37.0</ele><time>2026-04-18T05:19:29Z</time></trkpt><trkpt lat="45.06647533201835" lon="9.990604319913977"><ele>36.833333333333336</ele><time>2026-04-18T05:19:30Z</time></trkpt><trkpt lat="45.06640215001909" lon="9.99064503618458"><ele>36.66666666666667</ele><time>2026-04-18T05:19:31Z</time></trkpt><trkpt lat="45.06633343506034" lon="9.990699618419782"><ele>36.5</ele><time>2026-04-18T05:19:32Z</time></trkpt><trkpt lat="45.06626371971818" lon="9.99075379257648"><ele>36.333333333333336</ele><time>2026-04-18T05:19:33Z</time></trkpt><trkpt lat="45.066196569440045" lon="9.99080648375148"><ele>36.166666666666664</ele><time>2026-04-18T05:19:34Z</time></trkpt><trkpt lat="45.066129002105846" lon="9.990860344285972"><ele>36.0</ele><time>2026-04-18T05:19:35Z</time></trkpt><trkpt lat="45.0660624028399" lon="9.99091339659677"><ele>35.833333333333336</ele><time>2026-04-18T05:19:36Z</time></trkpt><trkpt lat="45.06599637232488" lon="9.990968940466072"><ele>35.666666666666664</ele><time>2026-04-18T05:19:37Z</time></trkpt><trkpt lat="45.06592990977165" lon="9.991024496283792"><ele>35.5</ele><time>2026-04-18T05:19:38Z</time></trkpt><trkpt lat="45.06586729692207" lon="9.991083677752663"><ele>35.33333333333333</ele><time>2026-04-18T05:19:39Z</time></trkpt><trkpt lat="45.06580518287844" lon="9.991149469623979"><ele>35.166666666666664</ele><time>2026-04-18T05:19:40Z</time></trkpt><trkpt lat="45.06575654335774" lon="9.991227752047081"><ele>35.0</ele><time>2026-04-18T05:19:41Z</time></trkpt><trkpt lat="45.06571730373745" lon="9.99132237604322"><ele>35.0</ele><time>2026-04-18T05:19:42Z</time></trkpt><trkpt lat="45.065689202741886" lon="9.991427489183412"><ele>35.0</ele><time>2026-04-18T05:19:43Z</time></trkpt><trkpt lat="45.065662740922726" lon="9.991528127278821"><ele>35.0</ele><time>2026-04-18T05:19:44Z</time></trkpt><trkpt lat="45.06563842175697" lon="9.991632969357827"><ele>35.0</ele><time>2026-04-18T05:19:45Z</time></trkpt><trkpt lat="45.0656149376778" lon="9.99173866677409"><ele>35.0</ele><time>2026-04-18T05:19:46Z</time></trkpt><trkpt lat="45.06558999531511" lon="9.991841138437815"><ele>35.0</ele><time>2026-04-18T05:19:47Z</time></trkpt><trkpt lat="45.065565018399674" lon="9.991945050386983"><ele>35.0</ele><time>2026-04-18T05:19:48Z</time></trkpt><trkpt lat="45.06554178188904" lon="9.992045976550513"><ele>35.0</ele><time>2026-04-18T05:19:49Z</time></trkpt><trkpt lat="45.06551804717721" lon="9.992147835499123"><ele>35.0</ele><time>2026-04-18T05:19:49.999Z</time></trkpt><trkpt lat="45.065493791783524" lon="9.99225088593195"><ele>35.0</ele><time>2026-04-18T05:19:50.999Z</time></trkpt><trkpt lat="45.065467553346934" lon="9.992353621026876"><ele>35.0</ele><time>2026-04-18T05:19:51.999Z</time></trkpt><trkpt lat="45.065443731538565" lon="9.992454920229747"><ele>35.0</ele><time>2026-04-18T05:19:52.999Z</time></trkpt><trkpt lat="45.06541750325295" lon="9.992556691528394"><ele>35.0</ele><time>2026-04-18T05:19:53.999Z</time></trkpt><trkpt lat="45.06539340606395" lon="9.992657601163563"><ele>35.0</ele><time>2026-04-18T05:19:54.999Z</time></trkpt><trkpt lat="45.06536885946697" lon="9.992758792941487"><ele>35.0</ele><time>2026-04-18T05:19:55.999Z</time></trkpt><trkpt lat="45.06534496091845" lon="9.992859371836861"><ele>35.0</ele><time>2026-04-18T05:19:56.999Z</time></trkpt><trkpt lat="45.0653209936785" lon="9.992959848303801"><ele>35.0</ele><time>2026-04-18T05:19:57.999Z</time></trkpt><trkpt lat="45.06529502656222" lon="9.99305955086142"><ele>35.0</ele><time>2026-04-18T05:19:58.999Z</time></trkpt><trkpt lat="45.06526987929806" lon="9.99315995901261"><ele>35.0</ele><time>2026-04-18T05:19:59.999Z</time></trkpt><trkpt lat="45.065243665154284" lon="9.993259530600783"><ele>35.0</ele><time>2026-04-18T05:20:00.999Z</time></trkpt><trkpt lat="45.0652186286135" lon="9.993358907276054"><ele>35.0</ele><time>2026-04-18T05:20:01.999Z</time></trkpt><trkpt lat="45.06519127997102" lon="9.993457592585223"><ele>35.0</ele><time>2026-04-18T05:20:02.999Z</time></trkpt><trkpt lat="45.06516236286922" lon="9.993557170529682"><ele>35.0</ele><time>2026-04-18T05:20:03.999Z</time></trkpt><trkpt lat="45.065132834904674" lon="9.993654214216615"><ele>35.0</ele><time>2026-04-18T05:20:04.999Z</time></trkpt><trkpt lat="45.06510157674405" lon="9.993749223830667"><ele>35.0</ele><time>2026-04-18T05:20:05.999Z</time></trkpt><trkpt lat="45.0650699299872" lon="9.99384393986838"><ele>35.0</ele><time>2026-04-18T05:20:06.999Z</time></trkpt><trkpt lat="45.06503650305086" lon="9.99393891408554"><ele>35.0</ele><time>2026-04-18T05:20:07.999Z</time></trkpt><trkpt lat="45.06500351475408" lon="9.994031689877586"><ele>35.0</ele><time>2026-04-18T05:20:08.999Z</time></trkpt><trkpt lat="45.06496740572425" lon="9.994124725009655"><ele>35.0</ele><time>2026-04-18T05:20:09.999Z</time></trkpt><trkpt lat="45.064932073544554" lon="9.99421818636773"><ele>35.0</ele><time>2026-04-18T05:20:10.999Z</time></trkpt><trkpt lat="45.06489631531808" lon="9.994309112964563"><ele>35.0</ele><time>2026-04-18T05:20:11.999Z</time></trkpt><trkpt lat="45.06486049171105" lon="9.994401035571448"><ele>35.0</ele><time>2026-04-18T05:20:12.999Z</time></trkpt><trkpt lat="45.06482461843333" lon="9.994491570396477"><ele>35.0</ele><time>2026-04-18T05:20:13.999Z</time></trkpt><trkpt lat="45.064787525693966" lon="9.99458388226605"><ele>35.0</ele><time>2026-04-18T05:20:14.999Z</time></trkpt><trkpt lat="45.06475074594602" lon="9.994675496035965"><ele>35.0</ele><time>2026-04-18T05:20:15.999Z</time></trkpt><trkpt lat="45.06471350521903" lon="9.99476510363677"><ele>35.0</ele><time>2026-04-18T05:20:16.999Z</time></trkpt><trkpt lat="45.06467678494324" lon="9.994856284921326"><ele>35.0</ele><time>2026-04-18T05:20:17.999Z</time></trkpt><trkpt lat="45.06463808947492" lon="9.994946218854217"><ele>35.0</ele><time>2026-04-18T05:20:18.999Z</time></trkpt><trkpt lat="45.064598552032436" lon="9.995035033849478"><ele>35.0</ele><time>2026-04-18T05:20:19.999Z</time></trkpt><trkpt lat="45.06455854770078" lon="9.99512452484877"><ele>35.0</ele><time>2026-04-18T05:20:20.999Z</time></trkpt><trkpt lat="45.06451993276892" lon="9.995215057859824"><ele>35.0</ele><time>2026-04-18T05:20:21.999Z</time></trkpt><trkpt lat="45.06447823947154" lon="9.995303078332173"><ele>35.0</ele><time>2026-04-18T05:20:22.999Z</time></trkpt><trkpt lat="45.06443788880987" lon="9.99539141909506"><ele>35.0</ele><time>2026-04-18T05:20:23.999Z</time></trkpt><trkpt lat="45.064397550397864" lon="9.995481673961596"><ele>35.0</ele><time>2026-04-18T05:20:24.999Z</time></trkpt><trkpt lat="45.06435777276399" lon="9.995572118266224"><ele>35.0</ele><time>2026-04-18T05:20:25.999Z</time></trkpt><trkpt lat="45.06431773210809" lon="9.99566154681621"><ele>35.0</ele><time>2026-04-18T05:20:26.999Z</time></trkpt><trkpt lat="45.064279226678664" lon="9.995751911563381"><ele>35.0</ele><time>2026-04-18T05:20:27.999Z</time></trkpt><trkpt lat="45.06424170190635" lon="9.995843088292455"><ele>35.0</ele><time>2026-04-18T05:20:28.999Z</time></trkpt><trkpt lat="45.06420500064948" lon="9.995932184351679"><ele>35.0</ele><time>2026-04-18T05:20:29.999Z</time></trkpt><trkpt lat="45.064167704476056" lon="9.996021532776174"><ele>35.0</ele><time>2026-04-18T05:20:30.999Z</time></trkpt><trkpt lat="45.06411643687784" lon="9.99609343748933"><ele>35.0</ele><time>2026-04-18T05:20:31.999Z</time></trkpt><trkpt lat="45.064085204469286" lon="9.996190922757545"><ele>35.0</ele><time>2026-04-18T05:20:32.999Z</time></trkpt><trkpt lat="45.06402754683925" lon="9.996254021822747"><ele>35.0</ele><time>2026-04-18T05:20:33.999Z</time></trkpt><trkpt lat="45.06395013503085" lon="9.9962675608622"><ele>35.166666666666664</ele><time>2026-04-18T05:20:34.999Z</time></trkpt><trkpt lat="45.06388586993687" lon="9.99626312562596"><ele>35.33333333333333</ele><time>2026-04-18T05:20:35.999Z</time></trkpt><trkpt lat="45.06381203925469" lon="9.996189278049645"><ele>35.5</ele><time>2026-04-18T05:20:36.999Z</time></trkpt><trkpt lat="45.06375149519631" lon="9.996111732677594"><ele>35.666666666666664</ele><time>2026-04-18T05:20:37.999Z</time></trkpt><trkpt lat="45.06369791071154" lon="9.996034560663428"><ele>35.833333333333336</ele><time>2026-04-18T05:20:38.999Z</time></trkpt><trkpt lat="45.0636448086981" lon="9.995965474564304"><ele>36.0</ele><time>2026-04-18T05:20:39.999Z</time></trkpt><trkpt lat="45.06359140266989" lon="9.995896403378392"><ele>36.0</ele><time>2026-04-18T05:20:40.999Z</time></trkpt><trkpt lat="45.063534011429134" lon="9.995821240490796"><ele>36.0</ele><time>2026-04-18T05:20:41.999Z</time></trkpt><trkpt lat="45.06348044842396" lon="9.995748238010007"><ele>36.0</ele><time>2026-04-18T05:20:42.999Z</time></trkpt><trkpt lat="45.06342609134241" lon="9.995675496236364"><ele>36.0</ele><time>2026-04-18T05:20:43.999Z</time></trkpt><trkpt lat="45.063371032652796" lon="9.995601370490073"><ele>36.0</ele><time>2026-04-18T05:20:44.999Z</time></trkpt><trkpt lat="45.06331431985164" lon="9.995533672697483"><ele>36.0</ele><time>2026-04-18T05:20:45.999Z</time></trkpt><trkpt lat="45.06325060049343" lon="9.995473637911376"><ele>36.0</ele><time>2026-04-18T05:20:46.998Z</time></trkpt><trkpt lat="45.06318111434918" lon="9.99542757963689"><ele>36.0</ele><time>2026-04-18T05:20:47.998Z</time></trkpt><trkpt lat="45.06311064680935" lon="9.995392386017079"><ele>36.0</ele><time>2026-04-18T05:20:48.998Z</time></trkpt><trkpt lat="45.06303700047278" lon="9.995360016651013"><ele>36.0</ele><time>2026-04-18T05:20:49.998Z</time></trkpt><trkpt lat="45.06296647760704" lon="9.99532414259952"><ele>36.0</ele><time>2026-04-18T05:20:50.998Z</time></trkpt><trkpt lat="45.06289560062092" lon="9.995287953583016"><ele>36.0</ele><time>2026-04-18T05:20:51.998Z</time></trkpt><trkpt lat="45.06282586940131" lon="9.995246845160793"><ele>36.0</ele><time>2026-04-18T05:20:52.998Z</time></trkpt><trkpt lat="45.062755214945106" lon="9.995204671439181"><ele>36.0</ele><time>2026-04-18T05:20:53.998Z</time></trkpt><trkpt lat="45.06268582404019" lon="9.995158944578694"><ele>36.0</ele><time>2026-04-18T05:20:54.998Z</time></trkpt><trkpt lat="45.06261711310462" lon="9.995112960945209"><ele>36.0</ele><time>2026-04-18T05:20:55.998Z</time></trkpt><trkpt lat="45.0625469931575" lon="9.995067286994528"><ele>36.0</ele><time>2026-04-18T05:20:56.998Z</time></trkpt><trkpt lat="45.06247939475964" lon="9.995023695120583"><ele>36.0</ele><time>2026-04-18T05:20:57.998Z</time></trkpt><trkpt lat="45.062411476774514" lon="9.99497721110079"><ele>35.833333333333336</ele><time>2026-04-18T05:20:58.998Z</time></trkpt><trkpt lat="45.062343855812635" lon="9.994928964224803"><ele>35.666666666666664</ele><time>2026-04-18T05:20:59.998Z</time></trkpt><trkpt lat="45.06227551532949" lon="9.994880286640045"><ele>35.5</ele><time>2026-04-18T05:21:00.998Z</time></trkpt><trkpt lat="45.062207164809436" lon="9.994835606506768"><ele>35.33333333333333</ele><time>2026-04-18T05:21:01.998Z</time></trkpt><trkpt lat="45.062138237680834" lon="9.99479106828686"><ele>35.166666666666664</ele><time>2026-04-18T05:21:02.998Z</time></trkpt><trkpt lat="45.06206753602147" lon="9.994755327863414"><ele>35.0</ele><time>2026-04-18T05:21:03.998Z</time></trkpt><trkpt lat="45.06199831908119" lon="9.994719816518971"><ele>35.0</ele><time>2026-04-18T05:21:04.998Z</time></trkpt><trkpt lat="45.06192842341921" lon="9.994682393014411"><ele>35.0</ele><time>2026-04-18T05:21:06Z</time></trkpt><trkpt lat="45.061857824765326" lon="9.994649377659963"><ele>35.0</ele><time>2026-04-18T05:21:07Z</time></trkpt><trkpt lat="45.061788256407496" lon="9.994616380702562"><ele>35.0</ele><time>2026-04-18T05:21:08Z</time></trkpt><trkpt lat="45.06171785818417" lon="9.994581965516451"><ele>35.0</ele><time>2026-04-18T05:21:09Z</time></trkpt><trkpt lat="45.06164832289885" lon="9.99455011743353"><ele>35.0</ele><time>2026-04-18T05:21:10Z</time></trkpt><trkpt lat="45.06157644123296" lon="9.994517368980768"><ele>35.0</ele><time>2026-04-18T05:21:11Z</time></trkpt><trkpt lat="45.06150584530727" lon="9.994486032079621"><ele>35.285714285714285</ele><time>2026-04-18T05:21:12Z</time></trkpt><trkpt lat="45.06143591964385" lon="9.994450401514865"><ele>35.57142857142857</ele><time>2026-04-18T05:21:13Z</time></trkpt><trkpt lat="45.06136648900549" lon="9.994417387233444"><ele>35.85714285714286</ele><time>2026-04-18T05:21:14Z</time></trkpt><trkpt lat="45.06129545912372" lon="9.994383955879316"><ele>36.14285714285714</ele><time>2026-04-18T05:21:15Z</time></trkpt><trkpt lat="45.06122496149534" lon="9.994352669126425"><ele>36.42857142857143</ele><time>2026-04-18T05:21:16Z</time></trkpt><trkpt lat="45.06115684833057" lon="9.994322361573612"><ele>36.714285714285715</ele><time>2026-04-18T05:21:17Z</time></trkpt><trkpt lat="45.06108641484245" lon="9.994291250059906"><ele>37.0</ele><time>2026-04-18T05:21:18Z</time></trkpt><trkpt lat="45.061015077545555" lon="9.994260980678673"><ele>37.0</ele><time>2026-04-18T05:21:19Z</time></trkpt><trkpt lat="45.060943831023735" lon="9.994228093191639"><ele>37.0</ele><time>2026-04-18T05:21:20Z</time></trkpt><trkpt lat="45.060872666543354" lon="9.994192848145941"><ele>37.0</ele><time>2026-04-18T05:21:21Z</time></trkpt><trkpt lat="45.0608020169746" lon="9.994156484599008"><ele>37.0</ele><time>2026-04-18T05:21:22Z</time></trkpt><trkpt lat="45.060730579932816" lon="9.994119312166207"><ele>37.0</ele><time>2026-04-18T05:21:23Z</time></trkpt><trkpt lat="45.06066080828803" lon="9.994081678368385"><ele>37.0</ele><time>2026-04-18T05:21:24Z</time></trkpt><trkpt lat="45.06059157644019" lon="9.994037501288888"><ele>36.5</ele><time>2026-04-18T05:21:25Z</time></trkpt><trkpt lat="45.06052244018514" lon="9.993992543604774"><ele>36.0</ele><time>2026-04-18T05:21:26Z</time></trkpt><trkpt lat="45.06045482500555" lon="9.99394351303874"><ele>35.5</ele><time>2026-04-18T05:21:27Z</time></trkpt><trkpt lat="45.06038881881008" lon="9.99389242400948"><ele>35.0</ele><time>2026-04-18T05:21:28Z</time></trkpt><trkpt lat="45.06032299995805" lon="9.99383736835576"><ele>34.5</ele><time>2026-04-18T05:21:29Z</time></trkpt><trkpt lat="45.060258228447935" lon="9.993783037097929"><ele>34.0</ele><time>2026-04-18T05:21:30Z</time></trkpt><trkpt lat="45.06019661681916" lon="9.993726204745622"><ele>33.99999999999999</ele><time>2026-04-18T05:21:31Z</time></trkpt><trkpt lat="45.06013362068291" lon="9.993668785491769"><ele>34.0</ele><time>2026-04-18T05:21:32Z</time></trkpt><trkpt lat="45.06007079874675" lon="9.993612821402555"><ele>34.0</ele><time>2026-04-18T05:21:33Z</time></trkpt><trkpt lat="45.06000880870932" lon="9.993556942621586"><ele>34.0</ele><time>2026-04-18T05:21:34Z</time></trkpt><trkpt lat="45.05994547164982" lon="9.993500519730256"><ele>34.0</ele><time>2026-04-18T05:21:35Z</time></trkpt><trkpt lat="45.059882787586574" lon="9.993443865783556"><ele>33.99999999999999</ele><time>2026-04-18T05:21:36Z</time></trkpt><trkpt lat="45.05982178082867" lon="9.993388658898485"><ele>34.0</ele><time>2026-04-18T05:21:37Z</time></trkpt><trkpt lat="45.05975930324114" lon="9.993333494172504"><ele>33.99999999999999</ele><time>2026-04-18T05:21:38Z</time></trkpt><trkpt lat="45.05969830358255" lon="9.993277951114962"><ele>34.0</ele><time>2026-04-18T05:21:39Z</time></trkpt><trkpt lat="45.05963605673211" lon="9.993220869180284"><ele>34.0</ele><time>2026-04-18T05:21:40Z</time></trkpt><trkpt lat="45.05957573942408" lon="9.993161607795114"><ele>34.0</ele><time>2026-04-18T05:21:41Z</time></trkpt><trkpt lat="45.05951458163846" lon="9.993101584304421"><ele>34.0</ele><time>2026-04-18T05:21:42Z</time></trkpt><trkpt lat="45.059452153088515" lon="9.99304477265723"><ele>33.99999999999999</ele><time>2026-04-18T05:21:43Z</time></trkpt><trkpt lat="45.059390134328005" lon="9.992985313998217"><ele>34.0</ele><time>2026-04-18T05:21:44Z</time></trkpt><trkpt lat="45.05932913225126" lon="9.992929847321976"><ele>33.99999999999999</ele><time>2026-04-18T05:21:45Z</time></trkpt><trkpt lat="45.05926691187607" lon="9.992870906799057"><ele>34.0</ele><time>2026-04-18T05:21:46Z</time></trkpt><trkpt lat="45.05920576250586" lon="9.992813149792624"><ele>34.0</ele><time>2026-04-18T05:21:47Z</time></trkpt><trkpt lat="45.059144856945935" lon="9.992751582038206"><ele>34.0</ele><time>2026-04-18T05:21:48Z</time></trkpt><trkpt lat="45.05908486330025" lon="9.992691872609889"><ele>34.0</ele><time>2026-04-18T05:21:49Z</time></trkpt><trkpt lat="45.05902553473815" lon="9.99262913696925"><ele>33.99999999999999</ele><time>2026-04-18T05:21:50Z</time></trkpt><trkpt lat="45.0589669227604" lon="9.992564303438495"><ele>34.0</ele><time>2026-04-18T05:21:51Z</time></trkpt><trkpt lat="45.05890930929967" lon="9.992496289379373"><ele>34.14285714285714</ele><time>2026-04-18T05:21:52Z</time></trkpt><trkpt lat="45.05885312129875" lon="9.992426968885008"><ele>34.285714285714285</ele><time>2026-04-18T05:21:53Z</time></trkpt><trkpt lat="45.0587967213689" lon="9.99235558545331"><ele>34.42857142857143</ele><time>2026-04-18T05:21:54Z</time></trkpt><trkpt lat="45.05874434350731" lon="9.992281243816503"><ele>34.57142857142857</ele><time>2026-04-18T05:21:54.999Z</time></trkpt><trkpt lat="45.05869136195719" lon="9.992206606676756"><ele>34.714285714285715</ele><time>2026-04-18T05:21:55.999Z</time></trkpt><trkpt lat="45.058640262191936" lon="9.992135335738503"><ele>34.857142857142854</ele><time>2026-04-18T05:21:56.999Z</time></trkpt><trkpt lat="45.058588777627556" lon="9.992059235064396"><ele>35.0</ele><time>2026-04-18T05:21:57.999Z</time></trkpt><trkpt lat="45.05853832143538" lon="9.991981764651912"><ele>35.0</ele><time>2026-04-18T05:21:58.999Z</time></trkpt><trkpt lat="45.05849010660034" lon="9.991906000889351"><ele>35.0</ele><time>2026-04-18T05:21:59.999Z</time></trkpt><trkpt lat="45.058444236428855" lon="9.991825277219418"><ele>35.0</ele><time>2026-04-18T05:22:00.999Z</time></trkpt><trkpt lat="45.058402116181085" lon="9.991743727725739"><ele>35.0</ele><time>2026-04-18T05:22:01.999Z</time></trkpt><trkpt lat="45.05835720254544" lon="9.991662448806489"><ele>35.0</ele><time>2026-04-18T05:22:02.999Z</time></trkpt><trkpt lat="45.058312710408366" lon="9.99158173934905"><ele>35.0</ele><time>2026-04-18T05:22:03.999Z</time></trkpt><trkpt lat="45.05826638798942" lon="9.991500804463268"><ele>35.0</ele><time>2026-04-18T05:22:04.999Z</time></trkpt><trkpt lat="45.05821634771235" lon="9.991426039363919"><ele>35.142857142857146</ele><time>2026-04-18T05:22:05.999Z</time></trkpt><trkpt lat="45.05816446334191" lon="9.991350471216874"><ele>35.285714285714285</ele><time>2026-04-18T05:22:06.999Z</time></trkpt><trkpt lat="45.058109306431206" lon="9.991280176654067"><ele>35.42857142857143</ele><time>2026-04-18T05:22:07.999Z</time></trkpt><trkpt lat="45.058052028880844" lon="9.991213724163602"><ele>35.57142857142857</ele><time>2026-04-18T05:22:08.999Z</time></trkpt><trkpt lat="45.05799274885813" lon="9.991150563316173"><ele>35.714285714285715</ele><time>2026-04-18T05:22:09.999Z</time></trkpt><trkpt lat="45.05793241165154" lon="9.991087380445618"><ele>35.85714285714286</ele><time>2026-04-18T05:22:10.999Z</time></trkpt><trkpt lat="45.05787067138249" lon="9.991031081925717"><ele>36.0</ele><time>2026-04-18T05:22:11.999Z</time></trkpt><trkpt lat="45.05780613123403" lon="9.990976835392512"><ele>36.0</ele><time>2026-04-18T05:22:12.999Z</time></trkpt><trkpt lat="45.05774030748116" lon="9.990924801211865"><ele>36.0</ele><time>2026-04-18T05:22:13.999Z</time></trkpt><trkpt lat="45.057673195159495" lon="9.990875650197378"><ele>36.0</ele><time>2026-04-18T05:22:14.999Z</time></trkpt><trkpt lat="45.057606511491834" lon="9.990828706130133"><ele>36.0</ele><time>2026-04-18T05:22:15.999Z</time></trkpt><trkpt lat="45.05753889980551" lon="9.990784639893409"><ele>36.0</ele><time>2026-04-18T05:22:16.999Z</time></trkpt><trkpt lat="45.05747068215732" lon="9.990739524734082"><ele>36.0</ele><time>2026-04-18T05:22:17.999Z</time></trkpt><trkpt lat="45.057404669721016" lon="9.990684181185532"><ele>36.333333333333336</ele><time>2026-04-18T05:22:18.999Z</time></trkpt><trkpt lat="45.0573388780481" lon="9.99063464227625"><ele>36.666666666666664</ele><time>2026-04-18T05:22:19.999Z</time></trkpt><trkpt lat="45.05727040351694" lon="9.990589441466026"><ele>37.0</ele><time>2026-04-18T05:22:20.999Z</time></trkpt><trkpt lat="45.057202392225484" lon="9.990543033517385"><ele>37.33333333333333</ele><time>2026-04-18T05:22:21.999Z</time></trkpt><trkpt lat="45.05713485051268" lon="9.99049758341728"><ele>37.666666666666664</ele><time>2026-04-18T05:22:22.999Z</time></trkpt><trkpt lat="45.057065263350815" lon="9.99045119572682"><ele>38.0</ele><time>2026-04-18T05:22:23.999Z</time></trkpt><trkpt lat="45.05699869924703" lon="9.990406305947474"><ele>38.0</ele><time>2026-04-18T05:22:24.999Z</time></trkpt><trkpt lat="45.056931653294406" lon="9.990361975266998"><ele>38.0</ele><time>2026-04-18T05:22:25.999Z</time></trkpt><trkpt lat="45.05686319151741" lon="9.990315621119484"><ele>38.0</ele><time>2026-04-18T05:22:26.999Z</time></trkpt><trkpt lat="45.05679488418046" lon="9.990273382635984"><ele>38.0</ele><time>2026-04-18T05:22:27.999Z</time></trkpt><trkpt lat="45.05672641213577" lon="9.990232766868411"><ele>38.0</ele><time>2026-04-18T05:22:28.999Z</time></trkpt><trkpt lat="45.05665681195112" lon="9.990197738853002"><ele>38.0</ele><time>2026-04-18T05:22:29.999Z</time></trkpt><trkpt lat="45.05658620943091" lon="9.99017139933359"><ele>38.0</ele><time>2026-04-18T05:22:30.999Z</time></trkpt><trkpt lat="45.05651288800746" lon="9.990157447944878"><ele>37.857142857142854</ele><time>2026-04-18T05:22:31.999Z</time></trkpt><trkpt lat="45.05643990770883" lon="9.99015978117878"><ele>37.714285714285715</ele><time>2026-04-18T05:22:32.999Z</time></trkpt><trkpt lat="45.05636900906511" lon="9.990170180645622"><ele>37.57142857142857</ele><time>2026-04-18T05:22:33.999Z</time></trkpt><trkpt lat="45.05629936581553" lon="9.990187464868626"><ele>37.42857142857143</ele><time>2026-04-18T05:22:34.999Z</time></trkpt><trkpt lat="45.05622707859915" lon="9.990206442859723"><ele>37.285714285714285</ele><time>2026-04-18T05:22:35.999Z</time></trkpt><trkpt lat="45.056157633641114" lon="9.990230438663929"><ele>37.142857142857146</ele><time>2026-04-18T05:22:36.999Z</time></trkpt><trkpt lat="45.056083806513925" lon="9.990250911077903"><ele>37.0</ele><time>2026-04-18T05:22:37.999Z</time></trkpt><trkpt lat="45.05601448447771" lon="9.990270602475483"><ele>37.0</ele><time>2026-04-18T05:22:38.999Z</time></trkpt><trkpt lat="45.055942582131294" lon="9.990295946078199"><ele>37.0</ele><time>2026-04-18T05:22:39.999Z</time></trkpt><trkpt lat="45.055872765877595" lon="9.990319835663671"><ele>37.0</ele><time>2026-04-18T05:22:40.999Z</time></trkpt><trkpt lat="45.05580113608147" lon="9.990335120356319"><ele>37.0</ele><time>2026-04-18T05:22:41.999Z</time></trkpt><trkpt lat="45.055731013959424" lon="9.990350579651874"><ele>37.0</ele><time>2026-04-18T05:22:42.999Z</time></trkpt><trkpt lat="45.05566068478307" lon="9.990361257213593"><ele>37.0</ele><time>2026-04-18T05:22:43.999Z</time></trkpt><trkpt lat="45.05558928421247" lon="9.990362882788562"><ele>37.0</ele><time>2026-04-18T05:22:44.999Z</time></trkpt><trkpt lat="45.05551986322858" lon="9.990350150696406"><ele>37.0</ele><time>2026-04-18T05:22:45.999Z</time></trkpt><trkpt lat="45.05545165186346" lon="9.990324314202702"><ele>37.0</ele><time>2026-04-18T05:22:46.999Z</time></trkpt><trkpt lat="45.05538685781678" lon="9.990287453912064"><ele>37.0</ele><time>2026-04-18T05:22:47.999Z</time></trkpt><trkpt lat="45.055321847223176" lon="9.990245042586205"><ele>37.0</ele><time>2026-04-18T05:22:48.999Z</time></trkpt><trkpt lat="45.055258236296815" lon="9.990200177293735"><ele>37.0</ele><time>2026-04-18T05:22:49.999Z</time></trkpt><trkpt lat="45.05519544828072" lon="9.990148953457922"><ele>37.0</ele><time>2026-04-18T05:22:50.998Z</time></trkpt><trkpt lat="45.05513617714847" lon="9.990081675396688"><ele>37.0</ele><time>2026-04-18T05:22:51.998Z</time></trkpt><trkpt lat="45.055084593701054" lon="9.990005988571676"><ele>37.0</ele><time>2026-04-18T05:22:52.998Z</time></trkpt><trkpt lat="45.055034355586784" lon="9.989928692560579"><ele>37.0</ele><time>2026-04-18T05:22:53.998Z</time></trkpt><trkpt lat="45.05498440945543" lon="9.989849727728137"><ele>37.0</ele><time>2026-04-18T05:22:54.998Z</time></trkpt><trkpt lat="45.054934869281155" lon="9.989770739399583"><ele>37.0</ele><time>2026-04-18T05:22:55.998Z</time></trkpt><trkpt lat="45.05488401233476" lon="9.989691940198309"><ele>37.0</ele><time>2026-04-18T05:22:56.998Z</time></trkpt><trkpt lat="45.05483323067986" lon="9.989613419763929"><ele>37.0</ele><time>2026-04-18T05:22:57.998Z</time></trkpt><trkpt lat="45.05477901729984" lon="9.989532252978021"><ele>37.0</ele><time>2026-04-18T05:22:58.998Z</time></trkpt><trkpt lat="45.054729366442494" lon="9.989452879512788"><ele>37.0</ele><time>2026-04-18T05:22:59.998Z</time></trkpt><trkpt lat="45.05467909772023" lon="9.989373103777192"><ele>37.0</ele><time>2026-04-18T05:23:00.998Z</time></trkpt><trkpt lat="45.05462797633026" lon="9.989290492897892"><ele>37.0</ele><time>2026-04-18T05:23:01.998Z</time></trkpt><trkpt lat="45.054577963053035" lon="9.98921176846554"><ele>37.0</ele><time>2026-04-18T05:23:02.998Z</time></trkpt><trkpt lat="45.05452563036204" lon="9.989129803852883"><ele>37.0</ele><time>2026-04-18T05:23:03.998Z</time></trkpt><trkpt lat="45.05447467527589" lon="9.989050819074226"><ele>37.0</ele><time>2026-04-18T05:23:04.998Z</time></trkpt><trkpt lat="45.05442447227641" lon="9.988972702553054"><ele>37.0</ele><time>2026-04-18T05:23:05.998Z</time></trkpt><trkpt lat="45.05437339574845" lon="9.988891539516775"><ele>37.0</ele><time>2026-04-18T05:23:06.998Z</time></trkpt><trkpt lat="45.05432343167825" lon="9.988811465156463"><ele>37.0</ele><time>2026-04-18T05:23:07.998Z</time></trkpt><trkpt lat="45.054273666258524" lon="9.98873641593664"><ele>37.0</ele><time>2026-04-18T05:23:08.998Z</time></trkpt><trkpt lat="45.05422279941857" lon="9.988657108488828"><ele>37.0</ele><time>2026-04-18T05:23:09.998Z</time></trkpt><trkpt lat="45.054171677284515" lon="9.988582904579962"><ele>37.0</ele><time>2026-04-18T05:23:10.998Z</time></trkpt><trkpt lat="45.054122644738406" lon="9.988507255363038"><ele>37.0</ele><time>2026-04-18T05:23:12Z</time></trkpt><trkpt lat="45.05407121725417" lon="9.988427692352776"><ele>37.0</ele><time>2026-04-18T05:23:13Z</time></trkpt><trkpt lat="45.05401992720253" lon="9.98835587205772"><ele>37.0</ele><time>2026-04-18T05:23:14Z</time></trkpt><trkpt lat="45.05396078541789" lon="9.988301601745146"><ele>37.0</ele><time>2026-04-18T05:23:15Z</time></trkpt><trkpt lat="45.05388951793502" lon="9.98826601939299"><ele>37.0</ele><time>2026-04-18T05:23:16Z</time></trkpt><trkpt lat="45.053816742606536" lon="9.988250177461577"><ele>37.0</ele><time>2026-04-18T05:23:17Z</time></trkpt><trkpt lat="45.05374018274064" lon="9.98824404647507"><ele>37.0</ele><time>2026-04-18T05:23:18Z</time></trkpt><trkpt lat="45.05366418838037" lon="9.988236754067126"><ele>37.0</ele><time>2026-04-18T05:23:19Z</time></trkpt><trkpt lat="45.05358316846847" lon="9.988220879841252"><ele>37.0</ele><time>2026-04-18T05:23:20Z</time></trkpt><trkpt lat="45.053502440091044" lon="9.988205826141467"><ele>37.0</ele><time>2026-04-18T05:23:21Z</time></trkpt><trkpt lat="45.05342122835763" lon="9.98818834098279"><ele>37.0</ele><time>2026-04-18T05:23:22Z</time></trkpt><trkpt lat="45.053341441498006" lon="9.988175748788777"><ele>37.0</ele><time>2026-04-18T05:23:23Z</time></trkpt><trkpt lat="45.05326330838002" lon="9.988162727000871"><ele>37.0</ele><time>2026-04-18T05:23:24Z</time></trkpt><trkpt lat="45.05318487875705" lon="9.988145763965203"><ele>36.833333333333336</ele><time>2026-04-18T05:23:25Z</time></trkpt><trkpt lat="45.053107066408195" lon="9.988129372896486"><ele>36.66666666666667</ele><time>2026-04-18T05:23:26Z</time></trkpt><trkpt lat="45.05303035705402" lon="9.988116838221124"><ele>36.5</ele><time>2026-04-18T05:23:27Z</time></trkpt><trkpt lat="45.052953573386986" lon="9.988103662249587"><ele>36.333333333333336</ele><time>2026-04-18T05:23:28Z</time></trkpt><trkpt lat="45.052876420484544" lon="9.98809026688466"><ele>36.166666666666664</ele><time>2026-04-18T05:23:29Z</time></trkpt><trkpt lat="45.05280029008327" lon="9.988075175511693"><ele>36.0</ele><time>2026-04-18T05:23:30Z</time></trkpt><trkpt lat="45.052725256793174" lon="9.98806104624928"><ele>36.0</ele><time>2026-04-18T05:23:31Z</time></trkpt><trkpt lat="45.052649836328435" lon="9.988048143427017"><ele>36.0</ele><time>2026-04-18T05:23:32Z</time></trkpt><trkpt lat="45.05257347456715" lon="9.988033473726679"><ele>36.0</ele><time>2026-04-18T05:23:33Z</time></trkpt><trkpt lat="45.05249844177441" lon="9.98801949068932"><ele>36.0</ele><time>2026-04-18T05:23:34Z</time></trkpt><trkpt lat="45.05242239057531" lon="9.988006770408157"><ele>36.0</ele><time>2026-04-18T05:23:35Z</time></trkpt><trkpt lat="45.052346533689864" lon="9.987993647393402"><ele>36.0</ele><time>2026-04-18T05:23:36Z</time></trkpt><trkpt lat="45.05227017935211" lon="9.987981860221018"><ele>36.0</ele><time>2026-04-18T05:23:37Z</time></trkpt><trkpt lat="45.05219523353365" lon="9.987970480695514"><ele>36.0</ele><time>2026-04-18T05:23:38Z</time></trkpt><trkpt lat="45.052120241181804" lon="9.987951884773517"><ele>36.0</ele><time>2026-04-18T05:23:39Z</time></trkpt><trkpt lat="45.05204555320908" lon="9.987935299161284"><ele>36.0</ele><time>2026-04-18T05:23:40Z</time></trkpt><trkpt lat="45.051970306533086" lon="9.987922015048674"><ele>36.0</ele><time>2026-04-18T05:23:41Z</time></trkpt><trkpt lat="45.0518951396116" lon="9.987911089963783"><ele>36.0</ele><time>2026-04-18T05:23:42Z</time></trkpt><trkpt lat="45.0518198778314" lon="9.987897118838903"><ele>36.0</ele><time>2026-04-18T05:23:43Z</time></trkpt><trkpt lat="45.05174389834705" lon="9.98788384179419"><ele>36.0</ele><time>2026-04-18T05:23:44Z</time></trkpt><trkpt lat="45.05167030961719" lon="9.987872421077194"><ele>36.0</ele><time>2026-04-18T05:23:45Z</time></trkpt><trkpt lat="45.05159497798061" lon="9.987858634290756"><ele>36.0</ele><time>2026-04-18T05:23:46Z</time></trkpt><trkpt lat="45.05151965563098" lon="9.98784464602143"><ele>36.0</ele><time>2026-04-18T05:23:47Z</time></trkpt><trkpt lat="45.05144475685193" lon="9.987833035311562"><ele>36.0</ele><time>2026-04-18T05:23:48Z</time></trkpt><trkpt lat="45.051369251282985" lon="9.987819244810295"><ele>35.833333333333336</ele><time>2026-04-18T05:23:49Z</time></trkpt><trkpt lat="45.05129412720881" lon="9.987805770906796"><ele>35.666666666666664</ele><time>2026-04-18T05:23:50Z</time></trkpt><trkpt lat="45.0512184631732" lon="9.987791282109242"><ele>35.5</ele><time>2026-04-18T05:23:51Z</time></trkpt><trkpt lat="45.05114348332415" lon="9.987777322281756"><ele>35.33333333333333</ele><time>2026-04-18T05:23:52Z</time></trkpt><trkpt lat="45.05106842843049" lon="9.987762592031494"><ele>35.166666666666664</ele><time>2026-04-18T05:23:53Z</time></trkpt><trkpt lat="45.05099415558734" lon="9.987748470560815"><ele>35.0</ele><time>2026-04-18T05:23:54Z</time></trkpt><trkpt lat="45.05092053839228" lon="9.987734728261879"><ele>35.0</ele><time>2026-04-18T05:23:55Z</time></trkpt><trkpt lat="45.05084632211629" lon="9.987722850870986"><ele>35.0</ele><time>2026-04-18T05:23:56Z</time></trkpt><trkpt lat="45.05077150658861" lon="9.98770917359735"><ele>35.0</ele><time>2026-04-18T05:23:57Z</time></trkpt><trkpt lat="45.05069765177217" lon="9.987698019944851"><ele>35.0</ele><time>2026-04-18T05:23:58Z</time></trkpt><trkpt lat="45.050623710525294" lon="9.98768479565489"><ele>35.0</ele><time>2026-04-18T05:23:59Z</time></trkpt><trkpt lat="45.05054814180898" lon="9.987670089345075"><ele>35.0</ele><time>2026-04-18T05:24:00Z</time></trkpt><trkpt lat="45.050472791745804" lon="9.987656451919408"><ele>34.83333333333333</ele><time>2026-04-18T05:24:00.999Z</time></trkpt><trkpt lat="45.0503982256913" lon="9.987645891062305"><ele>34.666666666666664</ele><time>2026-04-18T05:24:01.999Z</time></trkpt><trkpt lat="45.05032176861589" lon="9.98763019273605"><ele>34.5</ele><time>2026-04-18T05:24:02.999Z</time></trkpt><trkpt lat="45.050247653824066" lon="9.98761760427771"><ele>34.333333333333336</ele><time>2026-04-18T05:24:03.999Z</time></trkpt><trkpt lat="45.05017122541583" lon="9.98760384950113"><ele>34.16666666666667</ele><time>2026-04-18T05:24:04.999Z</time></trkpt><trkpt lat="45.0500978539113" lon="9.987591131824828"><ele>34.0</ele><time>2026-04-18T05:24:05.999Z</time></trkpt><trkpt lat="45.05002111853037" lon="9.987575181070206"><ele>34.16666666666667</ele><time>2026-04-18T05:24:06.999Z</time></trkpt><trkpt lat="45.0499444218072" lon="9.987562710940201"><ele>34.333333333333336</ele><time>2026-04-18T05:24:07.999Z</time></trkpt><trkpt lat="45.04987047457302" lon="9.987548731886056"><ele>34.5</ele><time>2026-04-18T05:24:08.999Z</time></trkpt><trkpt lat="45.049793381617256" lon="9.987534856768415"><ele>34.666666666666664</ele><time>2026-04-18T05:24:09.999Z</time></trkpt><trkpt lat="45.0497177555603" lon="9.98752231001917"><ele>34.83333333333333</ele><time>2026-04-18T05:24:10.999Z</time></trkpt><trkpt lat="45.04964075993767" lon="9.987507057793765"><ele>35.0</ele><time>2026-04-18T05:24:11.999Z</time></trkpt><trkpt lat="45.04956494355849" lon="9.987496128049262"><ele>35.0</ele><time>2026-04-18T05:24:12.999Z</time></trkpt><trkpt lat="45.04948865631489" lon="9.987483205490863"><ele>35.0</ele><time>2026-04-18T05:24:13.999Z</time></trkpt><trkpt lat="45.04941225050017" lon="9.987470172435623"><ele>35.0</ele><time>2026-04-18T05:24:14.999Z</time></trkpt><trkpt lat="45.049337230062235" lon="9.987456518940542"><ele>35.0</ele><time>2026-04-18T05:24:15.999Z</time></trkpt><trkpt lat="45.04926380453791" lon="9.987447893225289"><ele>35.0</ele><time>2026-04-18T05:24:16.999Z</time></trkpt><trkpt lat="45.049185018905426" lon="9.987432255395445"><ele>35.0</ele><time>2026-04-18T05:24:17.999Z</time></trkpt><trkpt lat="45.0491089941647" lon="9.98742562345285"><ele>35.33333333333333</ele><time>2026-04-18T05:24:18.999Z</time></trkpt><trkpt lat="45.04903294228559" lon="9.987413015934868"><ele>35.666666666666664</ele><time>2026-04-18T05:24:19.999Z</time></trkpt><trkpt lat="45.048957489318624" lon="9.987402542128706"><ele>36.0</ele><time>2026-04-18T05:24:20.999Z</time></trkpt><trkpt lat="45.04887997316379" lon="9.987388679693133"><ele>36.333333333333336</ele><time>2026-04-18T05:24:21.999Z</time></trkpt><trkpt lat="45.04880428717249" lon="9.98737827306867"><ele>36.66666666666667</ele><time>2026-04-18T05:24:22.999Z</time></trkpt><trkpt lat="45.0487275434187" lon="9.987370338395127"><ele>37.0</ele><time>2026-04-18T05:24:23.999Z</time></trkpt><trkpt lat="45.048651461209474" lon="9.987359149404632"><ele>37.0</ele><time>2026-04-18T05:24:24.999Z</time></trkpt><trkpt lat="45.04857717603513" lon="9.987348735713017"><ele>37.0</ele><time>2026-04-18T05:24:25.999Z</time></trkpt><trkpt lat="45.04849927627341" lon="9.987337955305529"><ele>37.0</ele><time>2026-04-18T05:24:26.999Z</time></trkpt><trkpt lat="45.048425358369094" lon="9.987327548343375"><ele>37.0</ele><time>2026-04-18T05:24:27.999Z</time></trkpt><trkpt lat="45.04834804342532" lon="9.987317392069116"><ele>37.0</ele><time>2026-04-18T05:24:28.999Z</time></trkpt><trkpt lat="45.04827125265166" lon="9.987309024179796"><ele>37.0</ele><time>2026-04-18T05:24:29.999Z</time></trkpt><trkpt lat="45.048196197257816" lon="9.987298901879662"><ele>37.0</ele><time>2026-04-18T05:24:30.999Z</time></trkpt><trkpt lat="45.04812063976737" lon="9.98728980882769"><ele>37.0</ele><time>2026-04-18T05:24:31.999Z</time></trkpt><trkpt lat="45.04804460197962" lon="9.987279375416804"><ele>37.0</ele><time>2026-04-18T05:24:32.999Z</time></trkpt><trkpt lat="45.047969043637295" lon="9.987268799155547"><ele>37.0</ele><time>2026-04-18T05:24:33.999Z</time></trkpt><trkpt lat="45.04789319912321" lon="9.987256466751031"><ele>37.0</ele><time>2026-04-18T05:24:34.999Z</time></trkpt><trkpt lat="45.04781705431802" lon="9.987247859823057"><ele>37.0</ele><time>2026-04-18T05:24:35.999Z</time></trkpt><trkpt lat="45.04774164036154" lon="9.98723772194551"><ele>37.0</ele><time>2026-04-18T05:24:36.999Z</time></trkpt><trkpt lat="45.0476652685956" lon="9.987230520947245"><ele>37.0</ele><time>2026-04-18T05:24:37.999Z</time></trkpt><trkpt lat="45.04758831595973" lon="9.987219768647877"><ele>37.0</ele><time>2026-04-18T05:24:38.999Z</time></trkpt><trkpt lat="45.047512591360054" lon="9.987207371554737"><ele>37.0</ele><time>2026-04-18T05:24:39.999Z</time></trkpt><trkpt lat="45.04743743606885" lon="9.987193169723053"><ele>37.0</ele><time>2026-04-18T05:24:40.999Z</time></trkpt><trkpt lat="45.04736042364893" lon="9.987179186587136"><ele>37.0</ele><time>2026-04-18T05:24:41.999Z</time></trkpt><trkpt lat="45.04728343262238" lon="9.987167588148841"><ele>36.5</ele><time>2026-04-18T05:24:42.999Z</time></trkpt><trkpt lat="45.047205484485524" lon="9.987158827887342"><ele>36.0</ele><time>2026-04-18T05:24:43.999Z</time></trkpt><trkpt lat="45.047130785125105" lon="9.987148019746071"><ele>35.5</ele><time>2026-04-18T05:24:44.999Z</time></trkpt><trkpt lat="45.047054382928884" lon="9.98714058333968"><ele>35.0</ele><time>2026-04-18T05:24:45.999Z</time></trkpt><trkpt lat="45.04697769075" lon="9.987127558847165"><ele>34.5</ele><time>2026-04-18T05:24:46.999Z</time></trkpt><trkpt lat="45.04690398754172" lon="9.987117067338746"><ele>34.0</ele><time>2026-04-18T05:24:47.999Z</time></trkpt><trkpt lat="45.04682686015661" lon="9.987107360440492"><ele>33.99999999999999</ele><time>2026-04-18T05:24:48.999Z</time></trkpt><trkpt lat="45.04675219701855" lon="9.987098571944946"><ele>34.0</ele><time>2026-04-18T05:24:49.999Z</time></trkpt><trkpt lat="45.04667673389348" lon="9.987089880996"><ele>34.0</ele><time>2026-04-18T05:24:50.999Z</time></trkpt><trkpt lat="45.04660409583676" lon="9.987079395234167"><ele>34.0</ele><time>2026-04-18T05:24:51.999Z</time></trkpt><trkpt lat="45.046529426257734" lon="9.98707158728663"><ele>34.0</ele><time>2026-04-18T05:24:52.999Z</time></trkpt><trkpt lat="45.04645861624311" lon="9.987065219853973"><ele>33.99999999999999</ele><time>2026-04-18T05:24:53.999Z</time></trkpt><trkpt lat="45.04638087018922" lon="9.987056223334967"><ele>34.0</ele><time>2026-04-18T05:24:54.999Z</time></trkpt><trkpt lat="45.04630572193104" lon="9.987047813664919"><ele>33.99999999999999</ele><time>2026-04-18T05:24:55.999Z</time></trkpt><trkpt lat="45.046232094414414" lon="9.987044455293207"><ele>34.0</ele><time>2026-04-18T05:24:56.998Z</time></trkpt><trkpt lat="45.04615727307381" lon="9.987041900278886"><ele>34.0</ele><time>2026-04-18T05:24:57.998Z</time></trkpt><trkpt lat="45.046082796482494" lon="9.98704295062807"><ele>34.0</ele><time>2026-04-18T05:24:58.998Z</time></trkpt><trkpt lat="45.04600799503365" lon="9.987049121595263"><ele>34.0</ele><time>2026-04-18T05:24:59.998Z</time></trkpt><trkpt lat="45.045934324077706" lon="9.987058212930796"><ele>33.99999999999999</ele><time>2026-04-18T05:25:00.998Z</time></trkpt><trkpt lat="45.04586131047783" lon="9.987076233246622"><ele>34.0</ele><time>2026-04-18T05:25:01.998Z</time></trkpt><trkpt lat="45.04578832838179" lon="9.987096197273235"><ele>34.0</ele><time>2026-04-18T05:25:02.998Z</time></trkpt><trkpt lat="45.045715428729" lon="9.987117362579756"><ele>34.0</ele><time>2026-04-18T05:25:03.998Z</time></trkpt><trkpt lat="45.04564194992464" lon="9.987139984175935"><ele>34.0</ele><time>2026-04-18T05:25:04.998Z</time></trkpt><trkpt lat="45.04556969995426" lon="9.987165009449434"><ele>34.0</ele><time>2026-04-18T05:25:05.998Z</time></trkpt><trkpt lat="45.045495168059865" lon="9.98718749033212"><ele>34.0</ele><time>2026-04-18T05:25:06.998Z</time></trkpt><trkpt lat="45.04542200083235" lon="9.987209319770407"><ele>34.0</ele><time>2026-04-18T05:25:07.998Z</time></trkpt><trkpt lat="45.04534825862992" lon="9.987232245471187"><ele>34.0</ele><time>2026-04-18T05:25:08.998Z</time></trkpt><trkpt lat="45.04527527989534" lon="9.987256418285359"><ele>34.0</ele><time>2026-04-18T05:25:09.998Z</time></trkpt><trkpt lat="45.045201491359656" lon="9.98727974650875"><ele>34.0</ele><time>2026-04-18T05:25:10.998Z</time></trkpt><trkpt lat="45.04512790941046" lon="9.98730383111132"><ele>34.0</ele><time>2026-04-18T05:25:11.998Z</time></trkpt><trkpt lat="45.04505433260835" lon="9.987326839793829"><ele>34.0</ele><time>2026-04-18T05:25:12.998Z</time></trkpt><trkpt lat="45.04497974468791" lon="9.987351417618644"><ele>34.0</ele><time>2026-04-18T05:25:13.998Z</time></trkpt><trkpt lat="45.044905033121" lon="9.987375262229078"><ele>34.16666666666667</ele><time>2026-04-18T05:25:14.998Z</time></trkpt><trkpt lat="45.04483080884029" lon="9.987399358025499"><ele>34.333333333333336</ele><time>2026-04-18T05:25:15.998Z</time></trkpt><trkpt lat="45.04475725906508" lon="9.987425943524729"><ele>34.5</ele><time>2026-04-18T05:25:16.998Z</time></trkpt><trkpt lat="45.044682797526434" lon="9.987450855398423"><ele>34.666666666666664</ele><time>2026-04-18T05:25:18Z</time></trkpt><trkpt lat="45.0446081771814" lon="9.987475874913828"><ele>34.83333333333333</ele><time>2026-04-18T05:25:19Z</time></trkpt><trkpt lat="45.04453274276472" lon="9.987499164144692"><ele>35.0</ele><time>2026-04-18T05:25:20Z</time></trkpt><trkpt lat="45.044457777241426" lon="9.987522968930424"><ele>35.0</ele><time>2026-04-18T05:25:21Z</time></trkpt><trkpt lat="45.04438144536755" lon="9.987547705496349"><ele>35.0</ele><time>2026-04-18T05:25:22Z</time></trkpt><trkpt lat="45.044307192402556" lon="9.98757559056486"><ele>35.0</ele><time>2026-04-18T05:25:23Z</time></trkpt><trkpt lat="45.04423218253176" lon="9.987598722478198"><ele>35.0</ele><time>2026-04-18T05:25:24Z</time></trkpt><trkpt lat="45.044157421820636" lon="9.987621831207157"><ele>35.0</ele><time>2026-04-18T05:25:25Z</time></trkpt><trkpt lat="45.044082256353754" lon="9.987647658096101"><ele>35.0</ele><time>2026-04-18T05:25:26Z</time></trkpt><trkpt lat="45.044008157564306" lon="9.987671755064966"><ele>35.166666666666664</ele><time>2026-04-18T05:25:27Z</time></trkpt><trkpt lat="45.043933846222046" lon="9.987696258730388"><ele>35.33333333333333</ele><time>2026-04-18T05:25:28Z</time></trkpt><trkpt lat="45.04385911561118" lon="9.987719104758913"><ele>35.5</ele><time>2026-04-18T05:25:29Z</time></trkpt><trkpt lat="45.043785017831325" lon="9.987742523932393"><ele>35.666666666666664</ele><time>2026-04-18T05:25:30Z</time></trkpt><trkpt lat="45.043710365630595" lon="9.987766658972067"><ele>35.833333333333336</ele><time>2026-04-18T05:25:31Z</time></trkpt><trkpt lat="45.04363406081353" lon="9.987792500002305"><ele>36.0</ele><time>2026-04-18T05:25:32Z</time></trkpt><trkpt lat="45.04355879183419" lon="9.98781598455249"><ele>36.0</ele><time>2026-04-18T05:25:33Z</time></trkpt><trkpt lat="45.04348446264459" lon="9.987843009950456"><ele>36.0</ele><time>2026-04-18T05:25:34Z</time></trkpt><trkpt lat="45.04340770874009" lon="9.987863900388215"><ele>36.0</ele><time>2026-04-18T05:25:35Z</time></trkpt><trkpt lat="45.043332405282136" lon="9.98789098415395"><ele>36.0</ele><time>2026-04-18T05:25:36Z</time></trkpt><trkpt lat="45.04325674164471" lon="9.987915481610635"><ele>36.0</ele><time>2026-04-18T05:25:37Z</time></trkpt><trkpt lat="45.043181680713204" lon="9.987942643836888"><ele>36.0</ele><time>2026-04-18T05:25:38Z</time></trkpt><trkpt lat="45.04310567570507" lon="9.987965330682636"><ele>36.166666666666664</ele><time>2026-04-18T05:25:39Z</time></trkpt><trkpt lat="45.04302889699488" lon="9.987988537479511"><ele>36.333333333333336</ele><time>2026-04-18T05:25:40Z</time></trkpt><trkpt lat="45.04295446270814" lon="9.988011405541808"><ele>36.5</ele><time>2026-04-18T05:25:41Z</time></trkpt><trkpt lat="45.04287880407713" lon="9.988033356875091"><ele>36.66666666666667</ele><time>2026-04-18T05:25:42Z</time></trkpt><trkpt lat="45.0428036231254" lon="9.988058362743184"><ele>36.833333333333336</ele><time>2026-04-18T05:25:43Z</time></trkpt><trkpt lat="45.042728458361076" lon="9.98808356418183"><ele>37.0</ele><time>2026-04-18T05:25:44Z</time></trkpt><trkpt lat="45.042654491647454" lon="9.98810816968274"><ele>37.0</ele><time>2026-04-18T05:25:45Z</time></trkpt><trkpt lat="45.042577640572205" lon="9.988131659773597"><ele>37.0</ele><time>2026-04-18T05:25:46Z</time></trkpt><trkpt lat="45.04250264653783" lon="9.988156434518777"><ele>37.0</ele><time>2026-04-18T05:25:47Z</time></trkpt><trkpt lat="45.04242789414667" lon="9.988181110138575"><ele>37.0</ele><time>2026-04-18T05:25:48Z</time></trkpt><trkpt lat="45.04235361911911" lon="9.988204539245425"><ele>37.0</ele><time>2026-04-18T05:25:49Z</time></trkpt><trkpt lat="45.04227851682452" lon="9.988229469927195"><ele>37.0</ele><time>2026-04-18T05:25:50Z</time></trkpt><trkpt lat="45.04220320628365" lon="9.988254700039528"><ele>37.0</ele><time>2026-04-18T05:25:51Z</time></trkpt><trkpt lat="45.04212875408124" lon="9.988282425040236"><ele>37.0</ele><time>2026-04-18T05:25:52Z</time></trkpt><trkpt lat="45.042053376674964" lon="9.9883079500946"><ele>37.0</ele><time>2026-04-18T05:25:53Z</time></trkpt><trkpt lat="45.041977248603786" lon="9.988329967114877"><ele>37.0</ele><time>2026-04-18T05:25:54Z</time></trkpt><trkpt lat="45.04190070459951" lon="9.988354724288019"><ele>37.0</ele><time>2026-04-18T05:25:55Z</time></trkpt><trkpt lat="45.041826112836894" lon="9.988381886961607"><ele>37.0</ele><time>2026-04-18T05:25:56Z</time></trkpt><trkpt lat="45.04174860855155" lon="9.98840582375559"><ele>36.833333333333336</ele><time>2026-04-18T05:25:57Z</time></trkpt><trkpt lat="45.041672356599626" lon="9.988428043792199"><ele>36.66666666666667</ele><time>2026-04-18T05:25:58Z</time></trkpt><trkpt lat="45.04159662130765" lon="9.988450317439751"><ele>36.5</ele><time>2026-04-18T05:25:59Z</time></trkpt><trkpt lat="45.04152056241814" lon="9.988475742858329"><ele>36.333333333333336</ele><time>2026-04-18T05:26:00Z</time></trkpt><trkpt lat="45.04144428271605" lon="9.988502014021146"><ele>36.166666666666664</ele><time>2026-04-18T05:26:01Z</time></trkpt><trkpt lat="45.04136967867183" lon="9.988527532976066"><ele>36.0</ele><time>2026-04-18T05:26:02Z</time></trkpt><trkpt lat="45.04129464471723" lon="9.988552792939291"><ele>36.0</ele><time>2026-04-18T05:26:03Z</time></trkpt><trkpt lat="45.041218062025216" lon="9.988576674363122"><ele>36.0</ele><time>2026-04-18T05:26:03.999Z</time></trkpt><trkpt lat="45.04114364313309" lon="9.988604210111"><ele>36.0</ele><time>2026-04-18T05:26:04.999Z</time></trkpt><trkpt lat="45.04106757821905" lon="9.988629324447203"><ele>36.0</ele><time>2026-04-18T05:26:05.999Z</time></trkpt><trkpt lat="45.04099211052359" lon="9.98865334072259"><ele>36.0</ele><time>2026-04-18T05:26:06.999Z</time></trkpt><trkpt lat="45.04091749561947" lon="9.988678556966937"><ele>36.0</ele><time>2026-04-18T05:26:07.999Z</time></trkpt><trkpt lat="45.040843346704065" lon="9.988699213455149"><ele>36.166666666666664</ele><time>2026-04-18T05:26:08.999Z</time></trkpt><trkpt lat="45.040767567498165" lon="9.988721344188894"><ele>36.333333333333336</ele><time>2026-04-18T05:26:09.999Z</time></trkpt><trkpt lat="45.04069321216221" lon="9.988744745928976"><ele>36.5</ele><time>2026-04-18T05:26:10.999Z</time></trkpt><trkpt lat="45.04061899309835" lon="9.98876923021573"><ele>36.66666666666667</ele><time>2026-04-18T05:26:11.999Z</time></trkpt><trkpt lat="45.04054521017426" lon="9.988794302882068"><ele>36.833333333333336</ele><time>2026-04-18T05:26:12.999Z</time></trkpt><trkpt lat="45.040471338281165" lon="9.98881995015945"><ele>37.0</ele><time>2026-04-18T05:26:13.999Z</time></trkpt><trkpt lat="45.04040045754776" lon="9.988842028319253"><ele>37.0</ele><time>2026-04-18T05:26:14.999Z</time></trkpt><trkpt lat="45.04032647039438" lon="9.988863294430896"><ele>37.0</ele><time>2026-04-18T05:26:15.999Z</time></trkpt><trkpt lat="45.04025304421008" lon="9.988887632022497"><ele>37.0</ele><time>2026-04-18T05:26:16.999Z</time></trkpt><trkpt lat="45.040179399093354" lon="9.988910755238045"><ele>37.0</ele><time>2026-04-18T05:26:17.999Z</time></trkpt><trkpt lat="45.04010693343473" lon="9.988935054088218"><ele>37.0</ele><time>2026-04-18T05:26:18.999Z</time></trkpt><trkpt lat="45.04003448883886" lon="9.988957977190887"><ele>37.0</ele><time>2026-04-18T05:26:19.999Z</time></trkpt><trkpt lat="45.03996190156281" lon="9.98898328264185"><ele>36.833333333333336</ele><time>2026-04-18T05:26:20.999Z</time></trkpt><trkpt lat="45.03988841085273" lon="9.989004895230693"><ele>36.66666666666667</ele><time>2026-04-18T05:26:21.999Z</time></trkpt><trkpt lat="45.039814671695716" lon="9.989029449586655"><ele>36.5</ele><time>2026-04-18T05:26:22.999Z</time></trkpt><trkpt lat="45.03974127363119" lon="9.989052604739568"><ele>36.333333333333336</ele><time>2026-04-18T05:26:23.999Z</time></trkpt><trkpt lat="45.03966968255972" lon="9.98907733769747"><ele>36.166666666666664</ele><time>2026-04-18T05:26:24.999Z</time></trkpt><trkpt lat="45.03959662768809" lon="9.989100404129333"><ele>36.0</ele><time>2026-04-18T05:26:25.999Z</time></trkpt><trkpt lat="45.03952339232338" lon="9.989125721119752"><ele>36.0</ele><time>2026-04-18T05:26:26.999Z</time></trkpt><trkpt lat="45.03944909341155" lon="9.98915085943211"><ele>36.0</ele><time>2026-04-18T05:26:27.999Z</time></trkpt><trkpt lat="45.039376433855935" lon="9.989175742149714"><ele>36.0</ele><time>2026-04-18T05:26:28.999Z</time></trkpt><trkpt lat="45.0393039398238" lon="9.989201286156536"><ele>36.0</ele><time>2026-04-18T05:26:29.999Z</time></trkpt><trkpt lat="45.03923079577572" lon="9.989225408882062"><ele>36.0</ele><time>2026-04-18T05:26:30.999Z</time></trkpt><trkpt lat="45.039157196097236" lon="9.989247871122691"><ele>36.0</ele><time>2026-04-18T05:26:31.999Z</time></trkpt><trkpt lat="45.03908409515282" lon="9.98927194065738"><ele>35.57142857142858</ele><time>2026-04-18T05:26:32.999Z</time></trkpt><trkpt lat="45.039009352138955" lon="9.989293989059572"><ele>35.142857142857146</ele><time>2026-04-18T05:26:33.999Z</time></trkpt><trkpt lat="45.03893679384704" lon="9.989317317757749"><ele>34.714285714285715</ele><time>2026-04-18T05:26:34.999Z</time></trkpt><trkpt lat="45.03886346652145" lon="9.989341550141935"><ele>34.28571428571429</ele><time>2026-04-18T05:26:35.999Z</time></trkpt><trkpt lat="45.03879161209676" lon="9.989367050017828"><ele>33.85714285714286</ele><time>2026-04-18T05:26:36.999Z</time></trkpt><trkpt lat="45.038719276544015" lon="9.98939006699892"><ele>33.42857142857143</ele><time>2026-04-18T05:26:37.999Z</time></trkpt><trkpt lat="45.038646739750675" lon="9.989416026203745"><ele>33.0</ele><time>2026-04-18T05:26:38.999Z</time></trkpt><trkpt lat="45.03857415332363" lon="9.989441488478773"><ele>33.0</ele><time>2026-04-18T05:26:39.999Z</time></trkpt><trkpt lat="45.03850351276208" lon="9.989469177746074"><ele>33.0</ele><time>2026-04-18T05:26:40.999Z</time></trkpt><trkpt lat="45.03843156538084" lon="9.989499077155655"><ele>33.0</ele><time>2026-04-18T05:26:41.999Z</time></trkpt><trkpt lat="45.038360289103345" lon="9.989531417918366"><ele>33.0</ele><time>2026-04-18T05:26:42.999Z</time></trkpt><trkpt lat="45.038288430825375" lon="9.989557884610212"><ele>33.0</ele><time>2026-04-18T05:26:43.999Z</time></trkpt><trkpt lat="45.038215752878365" lon="9.989583167376038"><ele>33.0</ele><time>2026-04-18T05:26:44.999Z</time></trkpt><trkpt lat="45.03814215751758" lon="9.989614049767065"><ele>33.0</ele><time>2026-04-18T05:26:45.999Z</time></trkpt><trkpt lat="45.0380713045857" lon="9.989643902183095"><ele>33.714285714285715</ele><time>2026-04-18T05:26:46.999Z</time></trkpt><trkpt lat="45.03799938287815" lon="9.989672680800888"><ele>34.42857142857143</ele><time>2026-04-18T05:26:47.999Z</time></trkpt><trkpt lat="45.03792728870148" lon="9.989700075136993"><ele>35.14285714285714</ele><time>2026-04-18T05:26:48.999Z</time></trkpt><trkpt lat="45.0378558777944" lon="9.989728501213213"><ele>35.85714285714286</ele><time>2026-04-18T05:26:49.999Z</time></trkpt><trkpt lat="45.03778393856549" lon="9.989760995697745"><ele>36.57142857142858</ele><time>2026-04-18T05:26:50.999Z</time></trkpt><trkpt lat="45.03771130324108" lon="9.989791779540937"><ele>37.285714285714285</ele><time>2026-04-18T05:26:51.999Z</time></trkpt><trkpt lat="45.03764135932188" lon="9.989825029808527"><ele>38.0</ele><time>2026-04-18T05:26:52.999Z</time></trkpt><trkpt lat="45.03756907915893" lon="9.989858566582937"><ele>38.0</ele><time>2026-04-18T05:26:53.999Z</time></trkpt><trkpt lat="45.037499849541796" lon="9.989895955290317"><ele>38.0</ele><time>2026-04-18T05:26:54.999Z</time></trkpt><trkpt lat="45.037429837642065" lon="9.989935363475794"><ele>38.0</ele><time>2026-04-18T05:26:55.999Z</time></trkpt><trkpt lat="45.037361756301536" lon="9.989976683152115"><ele>38.0</ele><time>2026-04-18T05:26:56.999Z</time></trkpt><trkpt lat="45.037292349127114" lon="9.990023432278914"><ele>38.0</ele><time>2026-04-18T05:26:57.999Z</time></trkpt><trkpt lat="45.03722451630463" lon="9.990074058679438"><ele>38.0</ele><time>2026-04-18T05:26:58.999Z</time></trkpt><trkpt lat="45.037157045828664" lon="9.990126023069777"><ele>38.0</ele><time>2026-04-18T05:26:59.998Z</time></trkpt><trkpt lat="45.03709107998501" lon="9.990176923754202"><ele>38.0</ele><time>2026-04-18T05:27:00.998Z</time></trkpt><trkpt lat="45.03702314909329" lon="9.990226373873258"><ele>38.0</ele><time>2026-04-18T05:27:01.998Z</time></trkpt><trkpt lat="45.03695536759698" lon="9.990276780516737"><ele>38.0</ele><time>2026-04-18T05:27:02.998Z</time></trkpt><trkpt lat="45.036887325771836" lon="9.990326751028316"><ele>38.0</ele><time>2026-04-18T05:27:03.998Z</time></trkpt><trkpt lat="45.03681903156668" lon="9.990372349008702"><ele>38.0</ele><time>2026-04-18T05:27:04.998Z</time></trkpt><trkpt lat="45.036747941676005" lon="9.99041216661086"><ele>38.0</ele><time>2026-04-18T05:27:05.998Z</time></trkpt><trkpt lat="45.036673608169075" lon="9.99044053148626"><ele>38.0</ele><time>2026-04-18T05:27:06.998Z</time></trkpt><trkpt lat="45.036597703667674" lon="9.990454141370277"><ele>38.0</ele><time>2026-04-18T05:27:07.998Z</time></trkpt><trkpt lat="45.03651520753985" lon="9.990452531272888"><ele>38.0</ele><time>2026-04-18T05:27:08.998Z</time></trkpt><trkpt lat="45.03644325634973" lon="9.990441840724616"><ele>38.0</ele><time>2026-04-18T05:27:09.998Z</time></trkpt><trkpt lat="45.03637023275996" lon="9.990426640094656"><ele>38.0</ele><time>2026-04-18T05:27:10.998Z</time></trkpt><trkpt lat="45.0362960902159" lon="9.990409107516555"><ele>38.0</ele><time>2026-04-18T05:27:11.998Z</time></trkpt><trkpt lat="45.036222639541776" lon="9.990392514636259"><ele>38.0</ele><time>2026-04-18T05:27:12.998Z</time></trkpt><trkpt lat="45.03614791710985" lon="9.990376710828041"><ele>38.0</ele><time>2026-04-18T05:27:13.998Z</time></trkpt><trkpt lat="45.03607440631972" lon="9.990359938008984"><ele>38.0</ele><time>2026-04-18T05:27:14.998Z</time></trkpt><trkpt lat="45.03600032086693" lon="9.990343114786977"><ele>38.0</ele><time>2026-04-18T05:27:15.998Z</time></trkpt><trkpt lat="45.035926652270184" lon="9.99032525607266"><ele>38.0</ele><time>2026-04-18T05:27:16.998Z</time></trkpt><trkpt lat="45.03585334032205" lon="9.9903109911567"><ele>38.0</ele><time>2026-04-18T05:27:17.998Z</time></trkpt><trkpt lat="45.035778374514955" lon="9.990290728912314"><ele>37.857142857142854</ele><time>2026-04-18T05:27:18.998Z</time></trkpt><trkpt lat="45.03570496413088" lon="9.990272202556087"><ele>37.714285714285715</ele><time>2026-04-18T05:27:19.998Z</time></trkpt><trkpt lat="45.035631652171645" lon="9.990254398310405"><ele>37.57142857142857</ele><time>2026-04-18T05:27:20.998Z</time></trkpt><trkpt lat="45.03555951318609" lon="9.99023331318453"><ele>37.42857142857143</ele><time>2026-04-18T05:27:21.998Z</time></trkpt><trkpt lat="45.03548669764521" lon="9.990210592166404"><ele>37.285714285714285</ele><time>2026-04-18T05:27:22.998Z</time></trkpt><trkpt lat="45.035414869446484" lon="9.990186376583706"><ele>37.142857142857146</ele><time>2026-04-18T05:27:24Z</time></trkpt><trkpt lat="45.035344209972564" lon="9.990158347181326"><ele>37.0</ele><time>2026-04-18T05:27:25Z</time></trkpt><trkpt lat="45.03527147136304" lon="9.990128685617684"><ele>37.0</ele><time>2026-04-18T05:27:26Z</time></trkpt><trkpt lat="45.035201530062096" lon="9.990097671736907"><ele>37.0</ele><time>2026-04-18T05:27:27Z</time></trkpt><trkpt lat="45.0351308738512" lon="9.990061334729516"><ele>37.0</ele><time>2026-04-18T05:27:28Z</time></trkpt><trkpt lat="45.03506190006517" lon="9.990022611795705"><ele>37.0</ele><time>2026-04-18T05:27:29Z</time></trkpt><trkpt lat="45.034993322915724" lon="9.989982778083544"><ele>37.0</ele><time>2026-04-18T05:27:30Z</time></trkpt><trkpt lat="45.03492520922902" lon="9.989941262773026"><ele>37.0</ele><time>2026-04-18T05:27:31Z</time></trkpt><trkpt lat="45.03485694146162" lon="9.989897428566303"><ele>37.0</ele><time>2026-04-18T05:27:32Z</time></trkpt><trkpt lat="45.034791301876005" lon="9.989854768942783"><ele>37.42857142857143</ele><time>2026-04-18T05:27:33Z</time></trkpt><trkpt lat="45.03472401065306" lon="9.989809968294733"><ele>37.857142857142854</ele><time>2026-04-18T05:27:34Z</time></trkpt><trkpt lat="45.034657194409256" lon="9.989766273670599"><ele>38.285714285714285</ele><time>2026-04-18T05:27:35Z</time></trkpt><trkpt lat="45.034589394386145" lon="9.989721465406786"><ele>38.714285714285715</ele><time>2026-04-18T05:27:36Z</time></trkpt><trkpt lat="45.03452079856136" lon="9.989678077987659"><ele>39.142857142857146</ele><time>2026-04-18T05:27:37Z</time></trkpt><trkpt lat="45.03445340724315" lon="9.989633551178098"><ele>39.57142857142857</ele><time>2026-04-18T05:27:38Z</time></trkpt><trkpt lat="45.0343852414566" lon="9.989591460758584"><ele>40.0</ele><time>2026-04-18T05:27:39Z</time></trkpt><trkpt lat="45.03431975768288" lon="9.989544799074908"><ele>40.0</ele><time>2026-04-18T05:27:40Z</time></trkpt><trkpt lat="45.03425072674892" lon="9.98950803735857"><ele>40.0</ele><time>2026-04-18T05:27:41Z</time></trkpt><trkpt lat="45.034186176993266" lon="9.989467311257163"><ele>40.0</ele><time>2026-04-18T05:27:42Z</time></trkpt><trkpt lat="45.03411576745968" lon="9.989424693527715"><ele>40.0</ele><time>2026-04-18T05:27:43Z</time></trkpt><trkpt lat="45.03404482157429" lon="9.989399244532802"><ele>40.0</ele><time>2026-04-18T05:27:44Z</time></trkpt><trkpt lat="45.03397637801333" lon="9.989356588063627"><ele>40.0</ele><time>2026-04-18T05:27:45Z</time></trkpt><trkpt lat="45.03390571982846" lon="9.989322845239256"><ele>40.0</ele><time>2026-04-18T05:27:46Z</time></trkpt><trkpt lat="45.033836279006245" lon="9.989292959377893"><ele>39.857142857142854</ele><time>2026-04-18T05:27:47Z</time></trkpt><trkpt lat="45.03376473040963" lon="9.989253233157037"><ele>39.714285714285715</ele><time>2026-04-18T05:27:48Z</time></trkpt><trkpt lat="45.03369485100467" lon="9.989225813277073"><ele>39.57142857142857</ele><time>2026-04-18T05:27:49Z</time></trkpt><trkpt lat="45.03362332403786" lon="9.989203023969017"><ele>39.42857142857143</ele><time>2026-04-18T05:27:50Z</time></trkpt><trkpt lat="45.033549445604066" lon="9.989183080678503"><ele>39.285714285714285</ele><time>2026-04-18T05:27:51Z</time></trkpt><trkpt lat="45.033477284544105" lon="9.989162852421874"><ele>39.142857142857146</ele><time>2026-04-18T05:27:52Z</time></trkpt><trkpt lat="45.033403145754804" lon="9.989144655794883"><ele>39.0</ele><time>2026-04-18T05:27:53Z</time></trkpt><trkpt lat="45.03332974945056" lon="9.989129322546296"><ele>39.0</ele><time>2026-04-18T05:27:54Z</time></trkpt><trkpt lat="45.03325763289717" lon="9.989110746884458"><ele>39.0</ele><time>2026-04-18T05:27:55Z</time></trkpt><trkpt lat="45.03318518985455" lon="9.989092302343549"><ele>39.0</ele><time>2026-04-18T05:27:56Z</time></trkpt><trkpt lat="45.033112289489516" lon="9.989076018528147"><ele>39.0</ele><time>2026-04-18T05:27:57Z</time></trkpt><trkpt lat="45.03303995940665" lon="9.989063839866978"><ele>39.0</ele><time>2026-04-18T05:27:58Z</time></trkpt><trkpt lat="45.032967262379785" lon="9.989043732483415"><ele>39.0</ele><time>2026-04-18T05:27:59Z</time></trkpt><trkpt lat="45.03289367637407" lon="9.98902607055569"><ele>39.0</ele><time>2026-04-18T05:28:00Z</time></trkpt><trkpt lat="45.032821791752184" lon="9.989007252347372"><ele>39.0</ele><time>2026-04-18T05:28:01Z</time></trkpt><trkpt lat="45.03274986426511" lon="9.988993566146227"><ele>39.0</ele><time>2026-04-18T05:28:02Z</time></trkpt><trkpt lat="45.03267506167225" lon="9.988983338973698"><ele>39.0</ele><time>2026-04-18T05:28:03Z</time></trkpt><trkpt lat="45.032603102938694" lon="9.988971195092722"><ele>39.0</ele><time>2026-04-18T05:28:04Z</time></trkpt><trkpt lat="45.03252944877475" lon="9.988958649997977"><ele>39.0</ele><time>2026-04-18T05:28:05Z</time></trkpt><trkpt lat="45.03245547275945" lon="9.988946160871738"><ele>39.0</ele><time>2026-04-18T05:28:06Z</time></trkpt><trkpt lat="45.03238157631487" lon="9.988932981031937"><ele>39.0</ele><time>2026-04-18T05:28:07Z</time></trkpt><trkpt lat="45.032305697570244" lon="9.988924458259419"><ele>39.0</ele><time>2026-04-18T05:28:07.999Z</time></trkpt><trkpt lat="45.03223059593506" lon="9.988923490182513"><ele>39.0</ele><time>2026-04-18T05:28:08.999Z</time></trkpt><trkpt lat="45.03215352171509" lon="9.988930811730988"><ele>39.0</ele><time>2026-04-18T05:28:09.999Z</time></trkpt><trkpt lat="45.03207833167871" lon="9.988945776712214"><ele>39.0</ele><time>2026-04-18T05:28:10.999Z</time></trkpt><trkpt lat="45.03200431720267" lon="9.98897180431694"><ele>39.0</ele><time>2026-04-18T05:28:11.999Z</time></trkpt><trkpt lat="45.031932112675385" lon="9.989005064290463"><ele>39.0</ele><time>2026-04-18T05:28:12.999Z</time></trkpt><trkpt lat="45.031863408164284" lon="9.989041501594222"><ele>39.0</ele><time>2026-04-18T05:28:13.999Z</time></trkpt><trkpt lat="45.031792574972584" lon="9.98908370524794"><ele>39.0</ele><time>2026-04-18T05:28:14.999Z</time></trkpt><trkpt lat="45.03172628842818" lon="9.989132268141967"><ele>39.0</ele><time>2026-04-18T05:28:15.999Z</time></trkpt><trkpt lat="45.031661363820184" lon="9.989187989321868"><ele>39.0</ele><time>2026-04-18T05:28:16.999Z</time></trkpt><trkpt lat="45.03160017304438" lon="9.989249796626963"><ele>39.0</ele><time>2026-04-18T05:28:17.999Z</time></trkpt><trkpt lat="45.031541429343605" lon="9.98931718115443"><ele>39.0</ele><time>2026-04-18T05:28:18.999Z</time></trkpt><trkpt lat="45.03148805900435" lon="9.989391371736133"><ele>38.333333333333336</ele><time>2026-04-18T05:28:19.999Z</time></trkpt><trkpt lat="45.0314361252726" lon="9.98946880502153"><ele>37.666666666666664</ele><time>2026-04-18T05:28:20.999Z</time></trkpt><trkpt lat="45.031389257612055" lon="9.989550833051366"><ele>37.0</ele><time>2026-04-18T05:28:21.999Z</time></trkpt><trkpt lat="45.03134339581199" lon="9.989638301584174"><ele>36.33333333333333</ele><time>2026-04-18T05:28:22.999Z</time></trkpt><trkpt lat="45.03130335662126" lon="9.989730350653899"><ele>35.666666666666664</ele><time>2026-04-18T05:28:23.999Z</time></trkpt><trkpt lat="45.031265245983995" lon="9.98982273366237"><ele>35.0</ele><time>2026-04-18T05:28:24.999Z</time></trkpt><trkpt lat="45.03122878246228" lon="9.989918273250002"><ele>35.0</ele><time>2026-04-18T05:28:25.999Z</time></trkpt><trkpt lat="45.03119448394867" lon="9.990010156270907"><ele>35.0</ele><time>2026-04-18T05:28:26.999Z</time></trkpt><trkpt lat="45.031159920272536" lon="9.990106944857885"><ele>35.0</ele><time>2026-04-18T05:28:27.999Z</time></trkpt><trkpt lat="45.03112536841911" lon="9.990203171481896"><ele>35.0</ele><time>2026-04-18T05:28:28.999Z</time></trkpt><trkpt lat="45.03109033723735" lon="9.990296935034298"><ele>35.0</ele><time>2026-04-18T05:28:29.999Z</time></trkpt><trkpt lat="45.03105591180187" lon="9.990394549298784"><ele>35.0</ele><time>2026-04-18T05:28:30.999Z</time></trkpt><trkpt lat="45.03102277407979" lon="9.990489531713706"><ele>35.0</ele><time>2026-04-18T05:28:31.999Z</time></trkpt><trkpt lat="45.03098863983948" lon="9.990586611413447"><ele>35.0</ele><time>2026-04-18T05:28:32.999Z</time></trkpt><trkpt lat="45.03095658176462" lon="9.990682886025244"><ele>35.0</ele><time>2026-04-18T05:28:33.999Z</time></trkpt><trkpt lat="45.03092047533175" lon="9.990778354253981"><ele>35.0</ele><time>2026-04-18T05:28:34.999Z</time></trkpt><trkpt lat="45.03088641298588" lon="9.990873844625531"><ele>35.0</ele><time>2026-04-18T05:28:35.999Z</time></trkpt><trkpt lat="45.03084986700932" lon="9.990969758254927"><ele>35.0</ele><time>2026-04-18T05:28:36.999Z</time></trkpt><trkpt lat="45.030816364908695" lon="9.991067509043786"><ele>35.33333333333333</ele><time>2026-04-18T05:28:37.999Z</time></trkpt><trkpt lat="45.03078069570194" lon="9.991161487830507"><ele>35.666666666666664</ele><time>2026-04-18T05:28:38.999Z</time></trkpt><trkpt lat="45.030748532429584" lon="9.991257154453981"><ele>36.0</ele><time>2026-04-18T05:28:39.999Z</time></trkpt><trkpt lat="45.0307145909055" lon="9.991353503970892"><ele>36.333333333333336</ele><time>2026-04-18T05:28:40.999Z</time></trkpt><trkpt lat="45.030681642761" lon="9.991448615051508"><ele>36.66666666666667</ele><time>2026-04-18T05:28:41.999Z</time></trkpt><trkpt lat="45.03064726398751" lon="9.991543954674881"><ele>37.0</ele><time>2026-04-18T05:28:42.999Z</time></trkpt><trkpt lat="45.0306121023273" lon="9.991638549857313"><ele>36.833333333333336</ele><time>2026-04-18T05:28:43.999Z</time></trkpt><trkpt lat="45.03057639240423" lon="9.991734190167364"><ele>36.66666666666667</ele><time>2026-04-18T05:28:44.999Z</time></trkpt><trkpt lat="45.03054373403958" lon="9.991830511892742"><ele>36.5</ele><time>2026-04-18T05:28:45.999Z</time></trkpt><trkpt lat="45.03050921201304" lon="9.991926732647338"><ele>36.333333333333336</ele><time>2026-04-18T05:28:46.999Z</time></trkpt><trkpt lat="45.030474656270925" lon="9.99202400762045"><ele>36.166666666666664</ele><time>2026-04-18T05:28:47.999Z</time></trkpt><trkpt lat="45.030441559714184" lon="9.992120169492173"><ele>36.0</ele><time>2026-04-18T05:28:48.999Z</time></trkpt><trkpt lat="45.03040768626471" lon="9.99221728176278"><ele>36.0</ele><time>2026-04-18T05:28:49.999Z</time></trkpt><trkpt lat="45.03037681152356" lon="9.99231386505074"><ele>36.0</ele><time>2026-04-18T05:28:50.999Z</time></trkpt><trkpt lat="45.03034387806533" lon="9.992411236503441"><ele>36.0</ele><time>2026-04-18T05:28:51.999Z</time></trkpt><trkpt lat="45.030310574249825" lon="9.992506276854407"><ele>36.0</ele><time>2026-04-18T05:28:52.999Z</time></trkpt><trkpt lat="45.03027696749405" lon="9.99260181273849"><ele>36.0</ele><time>2026-04-18T05:28:53.999Z</time></trkpt><trkpt lat="45.030241997356335" lon="9.992695278761984"><ele>36.0</ele><time>2026-04-18T05:28:54.999Z</time></trkpt><trkpt lat="45.030206598504115" lon="9.992789346658764"><ele>36.333333333333336</ele><time>2026-04-18T05:28:55.999Z</time></trkpt><trkpt lat="45.030169350899115" lon="9.992884492098622"><ele>36.666666666666664</ele><time>2026-04-18T05:28:56.999Z</time></trkpt><trkpt lat="45.03013143896061" lon="9.99298364706322"><ele>37.0</ele><time>2026-04-18T05:28:57.999Z</time></trkpt><trkpt lat="45.030095842992615" lon="9.993082362428163"><ele>37.33333333333333</ele><time>2026-04-18T05:28:58.999Z</time></trkpt><trkpt lat="45.03006032345139" lon="9.993180439886507"><ele>37.666666666666664</ele><time>2026-04-18T05:28:59.999Z</time></trkpt><trkpt lat="45.03002439899932" lon="9.99328201184006"><ele>38.0</ele><time>2026-04-18T05:29:00.999Z</time></trkpt><trkpt lat="45.029987795509115" lon="9.993383400372913"><ele>38.5</ele><time>2026-04-18T05:29:01.999Z</time></trkpt><trkpt lat="45.02995049406751" lon="9.993482480775452"><ele>39.0</ele><time>2026-04-18T05:29:02.999Z</time></trkpt><trkpt lat="45.02991570306557" lon="9.99358332856317"><ele>39.5</ele><time>2026-04-18T05:29:03.999Z</time></trkpt><trkpt lat="45.02988039681358" lon="9.993684210290036"><ele>40.0</ele><time>2026-04-18T05:29:04.998Z</time></trkpt><trkpt lat="45.02984621272223" lon="9.993785861256988"><ele>40.5</ele><time>2026-04-18T05:29:05.998Z</time></trkpt><trkpt lat="45.02980859320763" lon="9.993883503302465"><ele>41.0</ele><time>2026-04-18T05:29:06.998Z</time></trkpt><trkpt lat="45.02976924681147" lon="9.993981033777889"><ele>41.0</ele><time>2026-04-18T05:29:07.998Z</time></trkpt><trkpt lat="45.029732092582144" lon="9.99407963866664"><ele>41.0</ele><time>2026-04-18T05:29:08.998Z</time></trkpt><trkpt lat="45.02969792166521" lon="9.99417920586678"><ele>41.0</ele><time>2026-04-18T05:29:09.998Z</time></trkpt><trkpt lat="45.02966205933953" lon="9.994278493428304"><ele>41.0</ele><time>2026-04-18T05:29:10.998Z</time></trkpt><trkpt lat="45.02963051095645" lon="9.99437631478545"><ele>41.0</ele><time>2026-04-18T05:29:11.998Z</time></trkpt><trkpt lat="45.02959302128272" lon="9.994474463044286"><ele>41.0</ele><time>2026-04-18T05:29:12.998Z</time></trkpt><trkpt lat="45.02955940597313" lon="9.994573424071419"><ele>40.83333333333333</ele><time>2026-04-18T05:29:13.998Z</time></trkpt><trkpt lat="45.02952152373882" lon="9.994670778532429"><ele>40.666666666666664</ele><time>2026-04-18T05:29:14.998Z</time></trkpt><trkpt lat="45.02948774476735" lon="9.99476794882499"><ele>40.5</ele><time>2026-04-18T05:29:15.998Z</time></trkpt><trkpt lat="45.029452078654785" lon="9.994866751592749"><ele>40.333333333333336</ele><time>2026-04-18T05:29:16.998Z</time></trkpt><trkpt lat="45.02941845912781" lon="9.994964954456007"><ele>40.16666666666667</ele><time>2026-04-18T05:29:17.998Z</time></trkpt><trkpt lat="45.029382610019454" lon="9.995065443627485"><ele>40.0</ele><time>2026-04-18T05:29:18.998Z</time></trkpt><trkpt lat="45.02934874760566" lon="9.995163594742468"><ele>39.833333333333336</ele><time>2026-04-18T05:29:19.998Z</time></trkpt><trkpt lat="45.02931343819484" lon="9.995262398252864"><ele>39.66666666666667</ele><time>2026-04-18T05:29:20.998Z</time></trkpt><trkpt lat="45.0292760855934" lon="9.995359374384973"><ele>39.5</ele><time>2026-04-18T05:29:21.998Z</time></trkpt><trkpt lat="45.02924007818354" lon="9.995454941033028"><ele>39.333333333333336</ele><time>2026-04-18T05:29:22.998Z</time></trkpt><trkpt lat="45.02920272350387" lon="9.995551857679008"><ele>39.166666666666664</ele><time>2026-04-18T05:29:23.998Z</time></trkpt><trkpt lat="45.029166414909454" lon="9.995647068976949"><ele>39.0</ele><time>2026-04-18T05:29:24.998Z</time></trkpt><trkpt lat="45.02913158163794" lon="9.995745592924147"><ele>39.166666666666664</ele><time>2026-04-18T05:29:25.998Z</time></trkpt><trkpt lat="45.02909689732541" lon="9.995843081477249"><ele>39.333333333333336</ele><time>2026-04-18T05:29:26.998Z</time></trkpt><trkpt lat="45.02906182411218" lon="9.995938666703365"><ele>39.5</ele><time>2026-04-18T05:29:27.998Z</time></trkpt><trkpt lat="45.029027888015065" lon="9.996037408082763"><ele>39.66666666666667</ele><time>2026-04-18T05:29:28.998Z</time></trkpt><trkpt lat="45.02899297128648" lon="9.996136525135237"><ele>39.833333333333336</ele><time>2026-04-18T05:29:30Z</time></trkpt><trkpt lat="45.02895766841068" lon="9.996234331463912"><ele>40.0</ele><time>2026-04-18T05:29:31Z</time></trkpt><trkpt lat="45.028921890604565" lon="9.99633141915473"><ele>40.0</ele><time>2026-04-18T05:29:32Z</time></trkpt><trkpt lat="45.02888418322543" lon="9.996429632054499"><ele>40.0</ele><time>2026-04-18T05:29:33Z</time></trkpt><trkpt lat="45.02884828822332" lon="9.996526206686786"><ele>40.0</ele><time>2026-04-18T05:29:34Z</time></trkpt><trkpt lat="45.028814829967764" lon="9.996623483790593"><ele>40.0</ele><time>2026-04-18T05:29:35Z</time></trkpt><trkpt lat="45.028780443607744" lon="9.996721192633586"><ele>40.0</ele><time>2026-04-18T05:29:36Z</time></trkpt><trkpt lat="45.02874901260181" lon="9.996819906668366"><ele>40.0</ele><time>2026-04-18T05:29:37Z</time></trkpt><trkpt lat="45.02871229374785" lon="9.996915583997252"><ele>40.16666666666667</ele><time>2026-04-18T05:29:38Z</time></trkpt><trkpt lat="45.02867660761" lon="9.99701311418862"><ele>40.333333333333336</ele><time>2026-04-18T05:29:39Z</time></trkpt><trkpt lat="45.02864356856776" lon="9.997110633807248"><ele>40.5</ele><time>2026-04-18T05:29:40Z</time></trkpt><trkpt lat="45.02861095940029" lon="9.997207114027649"><ele>40.666666666666664</ele><time>2026-04-18T05:29:41Z</time></trkpt><trkpt lat="45.028575393802036" lon="9.997303608901875"><ele>40.83333333333333</ele><time>2026-04-18T05:29:42Z</time></trkpt><trkpt lat="45.028540205668406" lon="9.997397024956584"><ele>41.0</ele><time>2026-04-18T05:29:43Z</time></trkpt><trkpt lat="45.02850318835469" lon="9.997494106750924"><ele>41.0</ele><time>2026-04-18T05:29:44Z</time></trkpt><trkpt lat="45.02846869331783" lon="9.997589106666863"><ele>41.0</ele><time>2026-04-18T05:29:45Z</time></trkpt><trkpt lat="45.028433251035715" lon="9.997685858250254"><ele>41.0</ele><time>2026-04-18T05:29:46Z</time></trkpt><trkpt lat="45.028400622254495" lon="9.997779962658745"><ele>41.0</ele><time>2026-04-18T05:29:47Z</time></trkpt><trkpt lat="45.02836434273889" lon="9.997882438871853"><ele>41.0</ele><time>2026-04-18T05:29:48Z</time></trkpt><trkpt lat="45.02832895282534" lon="9.997977268757683"><ele>41.0</ele><time>2026-04-18T05:29:49Z</time></trkpt><trkpt lat="45.028293904981574" lon="9.998077812346581"><ele>41.166666666666664</ele><time>2026-04-18T05:29:50Z</time></trkpt><trkpt lat="45.02825708300222" lon="9.998168396214442"><ele>41.33333333333333</ele><time>2026-04-18T05:29:51Z</time></trkpt><trkpt lat="45.0282146473643" lon="9.998258151680833"><ele>41.5</ele><time>2026-04-18T05:29:52Z</time></trkpt><trkpt lat="45.0281602385604" lon="9.998338335232006"><ele>41.666666666666664</ele><time>2026-04-18T05:29:53Z</time></trkpt><trkpt lat="45.028088612953056" lon="9.99837935482411"><ele>41.833333333333336</ele><time>2026-04-18T05:29:54Z</time></trkpt><trkpt lat="45.02799860364142" lon="9.99836641612117"><ele>42.0</ele><time>2026-04-18T05:29:55Z</time></trkpt><trkpt lat="45.02792287965548" lon="9.998312098794727"><ele>42.0</ele><time>2026-04-18T05:29:56Z</time></trkpt><trkpt lat="45.02785902017334" lon="9.99824344130067"><ele>42.0</ele><time>2026-04-18T05:29:57Z</time></trkpt><trkpt lat="45.02779265916152" lon="9.998182944922656"><ele>42.0</ele><time>2026-04-18T05:29:58Z</time></trkpt><trkpt lat="45.02772551962074" lon="9.99813197940575"><ele>42.0</ele><time>2026-04-18T05:29:59Z</time></trkpt><trkpt lat="45.027658366783946" lon="9.998084288643808"><ele>42.0</ele><time>2026-04-18T05:30:00Z</time></trkpt><trkpt lat="45.02759228809167" lon="9.998037105208851"><ele>42.0</ele><time>2026-04-18T05:30:01Z</time></trkpt><trkpt lat="45.02752505409593" lon="9.997989678657904"><ele>41.833333333333336</ele><time>2026-04-18T05:30:02Z</time></trkpt><trkpt lat="45.02745611200763" lon="9.9979462845604"><ele>41.666666666666664</ele><time>2026-04-18T05:30:03Z</time></trkpt><trkpt lat="45.027387634060354" lon="9.99789856363509"><ele>41.5</ele><time>2026-04-18T05:30:04Z</time></trkpt><trkpt lat="45.027322728412805" lon="9.997845915859024"><ele>41.33333333333333</ele><time>2026-04-18T05:30:05Z</time></trkpt><trkpt lat="45.02725592073621" lon="9.997796170543996"><ele>41.166666666666664</ele><time>2026-04-18T05:30:06Z</time></trkpt><trkpt lat="45.027189816742364" lon="9.997749533871243"><ele>41.0</ele><time>2026-04-18T05:30:07Z</time></trkpt><trkpt lat="45.027121952608546" lon="9.997703424318921"><ele>41.0</ele><time>2026-04-18T05:30:08Z</time></trkpt><trkpt lat="45.02705419137455" lon="9.997655132456318"><ele>41.0</ele><time>2026-04-18T05:30:09Z</time></trkpt><trkpt lat="45.02698650547867" lon="9.997607336449361"><ele>41.0</ele><time>2026-04-18T05:30:10Z</time></trkpt><trkpt lat="45.02691850770503" lon="9.997560523291565"><ele>41.0</ele><time>2026-04-18T05:30:11Z</time></trkpt><trkpt lat="45.0268501196935" lon="9.997517715432174"><ele>41.0</ele><time>2026-04-18T05:30:11.999Z</time></trkpt><trkpt lat="45.02677919029779" lon="9.997485235170283"><ele>41.0</ele><time>2026-04-18T05:30:12.999Z</time></trkpt><trkpt lat="45.026705439956054" lon="9.99747364598936"><ele>41.0</ele><time>2026-04-18T05:30:13.999Z</time></trkpt><trkpt lat="45.02663089698589" lon="9.997501184695263"><ele>41.0</ele><time>2026-04-18T05:30:14.999Z</time></trkpt><trkpt lat="45.02656481930141" lon="9.997561392257182"><ele>41.0</ele><time>2026-04-18T05:30:15.999Z</time></trkpt><trkpt lat="45.02651531949884" lon="9.997649683786443"><ele>41.0</ele><time>2026-04-18T05:30:16.999Z</time></trkpt><trkpt lat="45.02648154931104" lon="9.99774824736256"><ele>41.0</ele><time>2026-04-18T05:30:17.999Z</time></trkpt><trkpt lat="45.02644616942603" lon="9.997845076026708"><ele>41.0</ele><time>2026-04-18T05:30:18.999Z</time></trkpt><trkpt lat="45.026411425891816" lon="9.997937424500416"><ele>41.14285714285714</ele><time>2026-04-18T05:30:19.999Z</time></trkpt><trkpt lat="45.02636172279505" lon="9.998017663950792"><ele>41.285714285714285</ele><time>2026-04-18T05:30:20.999Z</time></trkpt><trkpt lat="45.02633605887681" lon="9.998121775449533"><ele>41.42857142857143</ele><time>2026-04-18T05:30:21.999Z</time></trkpt><trkpt lat="45.026299292476374" lon="9.99821276564401"><ele>41.57142857142857</ele><time>2026-04-18T05:30:22.999Z</time></trkpt><trkpt lat="45.0262632461739" lon="9.998303111238133"><ele>41.714285714285715</ele><time>2026-04-18T05:30:23.999Z</time></trkpt><trkpt lat="45.026224210644244" lon="9.998390973212427"><ele>41.857142857142854</ele><time>2026-04-18T05:30:24.999Z</time></trkpt><trkpt lat="45.02619118628748" lon="9.998477786931135"><ele>42.0</ele><time>2026-04-18T05:30:25.999Z</time></trkpt><trkpt lat="45.02615181692397" lon="9.998562306326564"><ele>42.0</ele><time>2026-04-18T05:30:26.999Z</time></trkpt><trkpt lat="45.02612009757313" lon="9.998649908105968"><ele>42.0</ele><time>2026-04-18T05:30:27.999Z</time></trkpt><trkpt lat="45.02608504090029" lon="9.998730190112292"><ele>42.0</ele><time>2026-04-18T05:30:28.999Z</time></trkpt><trkpt lat="45.026052472113" lon="9.99880658910844"><ele>42.0</ele><time>2026-04-18T05:30:29.999Z</time></trkpt><trkpt lat="45.02602088724854" lon="9.99888462147901"><ele>42.0</ele><time>2026-04-18T05:30:30.999Z</time></trkpt><trkpt lat="45.025984775760556" lon="9.998966988964046"><ele>42.0</ele><time>2026-04-18T05:30:31.999Z</time></trkpt><trkpt lat="45.02594558257752" lon="9.999046074363301"><ele>42.0</ele><time>2026-04-18T05:30:32.999Z</time></trkpt><trkpt lat="45.02590673975873" lon="9.9991291466663"><ele>42.142857142857146</ele><time>2026-04-18T05:30:33.999Z</time></trkpt><trkpt lat="45.02587811202567" lon="9.999217187971297"><ele>42.285714285714285</ele><time>2026-04-18T05:30:34.999Z</time></trkpt><trkpt lat="45.0258403118263" lon="9.999303677542754"><ele>42.42857142857143</ele><time>2026-04-18T05:30:35.999Z</time></trkpt><trkpt lat="45.02580037992669" lon="9.999391088857474"><ele>42.57142857142857</ele><time>2026-04-18T05:30:36.999Z</time></trkpt><trkpt lat="45.02576485100852" lon="9.999480161521038"><ele>42.714285714285715</ele><time>2026-04-18T05:30:37.999Z</time></trkpt><trkpt lat="45.02572923919255" lon="9.999570286739555"><ele>42.85714285714286</ele><time>2026-04-18T05:30:38.999Z</time></trkpt><trkpt lat="45.025692868658304" lon="9.99965605678059"><ele>43.0</ele><time>2026-04-18T05:30:39.999Z</time></trkpt><trkpt lat="45.02565631692253" lon="9.999738430357477"><ele>43.00000000000001</ele><time>2026-04-18T05:30:40.999Z</time></trkpt><trkpt lat="45.025618158871346" lon="9.99981642661231"><ele>43.0</ele><time>2026-04-18T05:30:41.999Z</time></trkpt><trkpt lat="45.025567196108724" lon="9.999890557393135"><ele>43.0</ele><time>2026-04-18T05:30:42.999Z</time></trkpt><trkpt lat="45.025517537015446" lon="9.999959342279306"><ele>43.0</ele><time>2026-04-18T05:30:43.999Z</time></trkpt><trkpt lat="45.0254639653035" lon="10.00002540358609"><ele>43.0</ele><time>2026-04-18T05:30:44.999Z</time></trkpt><trkpt lat="45.025407552805945" lon="10.000087277368536"><ele>43.00000000000001</ele><time>2026-04-18T05:30:45.999Z</time></trkpt><trkpt lat="45.02535410027773" lon="10.000150787732867"><ele>43.0</ele><time>2026-04-18T05:30:46.999Z</time></trkpt><trkpt lat="45.02530550509132" lon="10.000219901992223"><ele>43.0</ele><time>2026-04-18T05:30:47.999Z</time></trkpt><trkpt lat="45.02524898012683" lon="10.000280398256681"><ele>43.0</ele><time>2026-04-18T05:30:48.999Z</time></trkpt><trkpt lat="45.025193472733754" lon="10.00034486223582"><ele>43.0</ele><time>2026-04-18T05:30:49.999Z</time></trkpt><trkpt lat="45.02513476240254" lon="10.000409308778353"><ele>43.0</ele><time>2026-04-18T05:30:50.999Z</time></trkpt><trkpt lat="45.025074116743" lon="10.000478519449885"><ele>43.0</ele><time>2026-04-18T05:30:51.999Z</time></trkpt><trkpt lat="45.02501427540837" lon="10.000548829190503"><ele>43.0</ele><time>2026-04-18T05:30:52.999Z</time></trkpt><trkpt lat="45.02495082372549" lon="10.000622852984938"><ele>42.833333333333336</ele><time>2026-04-18T05:30:53.999Z</time></trkpt><trkpt lat="45.02488618959" lon="10.00069417572006"><ele>42.66666666666667</ele><time>2026-04-18T05:30:54.999Z</time></trkpt><trkpt lat="45.02482020459051" lon="10.000765952818837"><ele>42.5</ele><time>2026-04-18T05:30:55.999Z</time></trkpt><trkpt lat="45.02475556485863" lon="10.000838813750448"><ele>42.333333333333336</ele><time>2026-04-18T05:30:56.999Z</time></trkpt><trkpt lat="45.02469142080315" lon="10.00091145473314"><ele>42.166666666666664</ele><time>2026-04-18T05:30:57.999Z</time></trkpt><trkpt lat="45.024627950496914" lon="10.000986967848315"><ele>42.0</ele><time>2026-04-18T05:30:58.999Z</time></trkpt><trkpt lat="45.02456419859238" lon="10.001062024719568"><ele>41.666666666666664</ele><time>2026-04-18T05:30:59.999Z</time></trkpt><trkpt lat="45.02449983030964" lon="10.001135005413492"><ele>41.333333333333336</ele><time>2026-04-18T05:31:00.999Z</time></trkpt><trkpt lat="45.02443335649493" lon="10.001207658726603"><ele>41.0</ele><time>2026-04-18T05:31:01.999Z</time></trkpt><trkpt lat="45.0243685383576" lon="10.0012811145981"><ele>40.66666666666667</ele><time>2026-04-18T05:31:02.999Z</time></trkpt><trkpt lat="45.02430660770657" lon="10.00135346717162"><ele>40.333333333333336</ele><time>2026-04-18T05:31:03.999Z</time></trkpt><trkpt lat="45.0242414522399" lon="10.001426931350736"><ele>40.0</ele><time>2026-04-18T05:31:04.999Z</time></trkpt><trkpt lat="45.02417835476809" lon="10.00149766220291"><ele>39.66666666666667</ele><time>2026-04-18T05:31:05.999Z</time></trkpt><trkpt lat="45.024115635033034" lon="10.001571550833505"><ele>39.333333333333336</ele><time>2026-04-18T05:31:06.999Z</time></trkpt><trkpt lat="45.02405162431208" lon="10.001644316577769"><ele>39.0</ele><time>2026-04-18T05:31:07.999Z</time></trkpt><trkpt lat="45.02398810419677" lon="10.001715963244706"><ele>38.666666666666664</ele><time>2026-04-18T05:31:08.998Z</time></trkpt><trkpt lat="45.023925982008166" lon="10.00178902393109"><ele>38.33333333333333</ele><time>2026-04-18T05:31:09.998Z</time></trkpt><trkpt lat="45.023864239873845" lon="10.001859973490385"><ele>38.0</ele><time>2026-04-18T05:31:10.998Z</time></trkpt><trkpt lat="45.023800167341314" lon="10.001931837346639"><ele>37.83333333333333</ele><time>2026-04-18T05:31:11.998Z</time></trkpt><trkpt lat="45.02374117659805" lon="10.002003033452516"><ele>37.666666666666664</ele><time>2026-04-18T05:31:12.998Z</time></trkpt><trkpt lat="45.02368103767194" lon="10.002077222443036"><ele>37.5</ele><time>2026-04-18T05:31:13.998Z</time></trkpt><trkpt lat="45.02361985733319" lon="10.002148526823644"><ele>37.333333333333336</ele><time>2026-04-18T05:31:14.998Z</time></trkpt><trkpt lat="45.02355757809833" lon="10.002219500520964"><ele>37.16666666666667</ele><time>2026-04-18T05:31:15.998Z</time></trkpt><trkpt lat="45.0234972150738" lon="10.002291833503962"><ele>37.0</ele><time>2026-04-18T05:31:16.998Z</time></trkpt><trkpt lat="45.023437447707366" lon="10.002366074378855"><ele>37.0</ele><time>2026-04-18T05:31:17.998Z</time></trkpt><trkpt lat="45.02338325319053" lon="10.002447309310684"><ele>37.0</ele><time>2026-04-18T05:31:18.998Z</time></trkpt><trkpt lat="45.02333436767917" lon="10.002532353527014"><ele>37.0</ele><time>2026-04-18T05:31:19.998Z</time></trkpt><trkpt lat="45.02328508857392" lon="10.002618230928471"><ele>37.0</ele><time>2026-04-18T05:31:20.998Z</time></trkpt><trkpt lat="45.02323649092812" lon="10.002708239559734"><ele>37.0</ele><time>2026-04-18T05:31:21.998Z</time></trkpt><trkpt lat="45.02319004117742" lon="10.002796014281522"><ele>37.0</ele><time>2026-04-18T05:31:22.998Z</time></trkpt><trkpt lat="45.02314419672232" lon="10.00288562758483"><ele>36.833333333333336</ele><time>2026-04-18T05:31:23.998Z</time></trkpt><trkpt lat="45.023099414015356" lon="10.002976876830067"><ele>36.66666666666667</ele><time>2026-04-18T05:31:24.998Z</time></trkpt><trkpt lat="45.02305464712382" lon="10.003066408617265"><ele>36.5</ele><time>2026-04-18T05:31:25.998Z</time></trkpt><trkpt lat="45.02300954220531" lon="10.003153574983484"><ele>36.333333333333336</ele><time>2026-04-18T05:31:26.998Z</time></trkpt><trkpt lat="45.02296385164962" lon="10.003240965718815"><ele>36.166666666666664</ele><time>2026-04-18T05:31:27.998Z</time></trkpt><trkpt lat="45.022918896109566" lon="10.003329721398268"><ele>36.0</ele><time>2026-04-18T05:31:28.998Z</time></trkpt><trkpt lat="45.02287509708937" lon="10.003418174330609"><ele>36.0</ele><time>2026-04-18T05:31:29.998Z</time></trkpt><trkpt lat="45.0228310268241" lon="10.00350635728068"><ele>36.0</ele><time>2026-04-18T05:31:30.998Z</time></trkpt><trkpt lat="45.02278857179357" lon="10.003594690426882"><ele>36.0</ele><time>2026-04-18T05:31:31.998Z</time></trkpt><trkpt lat="45.02274285330636" lon="10.00368101595662"><ele>36.0</ele><time>2026-04-18T05:31:32.998Z</time></trkpt><trkpt lat="45.02269568230993" lon="10.003767635674471"><ele>36.0</ele><time>2026-04-18T05:31:33.998Z</time></trkpt><trkpt lat="45.022650688364905" lon="10.003855339807409"><ele>36.0</ele><time>2026-04-18T05:31:34.998Z</time></trkpt><trkpt lat="45.02260523208811" lon="10.003944067776517"><ele>36.0</ele><time>2026-04-18T05:31:36Z</time></trkpt><trkpt lat="45.022561883455545" lon="10.004032128492886"><ele>36.0</ele><time>2026-04-18T05:31:37Z</time></trkpt><trkpt lat="45.022517181051725" lon="10.004120998048519"><ele>36.0</ele><time>2026-04-18T05:31:38Z</time></trkpt><trkpt lat="45.02247486561049" lon="10.004209535430563"><ele>36.0</ele><time>2026-04-18T05:31:39Z</time></trkpt><trkpt lat="45.022430442035485" lon="10.00430038316955"><ele>36.0</ele><time>2026-04-18T05:31:40Z</time></trkpt><trkpt lat="45.02238326878206" lon="10.004386679053544"><ele>36.0</ele><time>2026-04-18T05:31:41Z</time></trkpt><trkpt lat="45.02233770996317" lon="10.004475325986222"><ele>36.166666666666664</ele><time>2026-04-18T05:31:42Z</time></trkpt><trkpt lat="45.0222914437587" lon="10.004563058657265"><ele>36.333333333333336</ele><time>2026-04-18T05:31:43Z</time></trkpt><trkpt lat="45.02224562078475" lon="10.00465025606542"><ele>36.5</ele><time>2026-04-18T05:31:44Z</time></trkpt><trkpt lat="45.022199776357446" lon="10.004738365371631"><ele>36.66666666666667</ele><time>2026-04-18T05:31:45Z</time></trkpt><trkpt lat="45.02215428349156" lon="10.00482635297223"><ele>36.833333333333336</ele><time>2026-04-18T05:31:46Z</time></trkpt><trkpt lat="45.02210731055292" lon="10.004913329066186"><ele>37.0</ele><time>2026-04-18T05:31:47Z</time></trkpt><trkpt lat="45.022062029011025" lon="10.005002367408022"><ele>37.0</ele><time>2026-04-18T05:31:48Z</time></trkpt><trkpt lat="45.022017741805044" lon="10.005092606661918"><ele>37.0</ele><time>2026-04-18T05:31:49Z</time></trkpt><trkpt lat="45.02197368372801" lon="10.00518312848638"><ele>37.0</ele><time>2026-04-18T05:31:50Z</time></trkpt><trkpt lat="45.02192954155767" lon="10.005272513076921"><ele>37.0</ele><time>2026-04-18T05:31:51Z</time></trkpt><trkpt lat="45.021885796142136" lon="10.005360499999684"><ele>37.0</ele><time>2026-04-18T05:31:52Z</time></trkpt><trkpt lat="45.02184153640429" lon="10.00545042289178"><ele>37.0</ele><time>2026-04-18T05:31:53Z</time></trkpt><trkpt lat="45.021799324197104" lon="10.005539693572208"><ele>37.0</ele><time>2026-04-18T05:31:54Z</time></trkpt><trkpt lat="45.02175441437524" lon="10.005628398678128"><ele>37.0</ele><time>2026-04-18T05:31:55Z</time></trkpt><trkpt lat="45.02170718195825" lon="10.00571517527923"><ele>37.0</ele><time>2026-04-18T05:31:56Z</time></trkpt><trkpt lat="45.02166062120429" lon="10.005801902450692"><ele>37.0</ele><time>2026-04-18T05:31:57Z</time></trkpt><trkpt lat="45.02161560640382" lon="10.005890328260884"><ele>37.0</ele><time>2026-04-18T05:31:58Z</time></trkpt><trkpt lat="45.021570725126246" lon="10.005977594564158"><ele>37.0</ele><time>2026-04-18T05:31:59Z</time></trkpt><trkpt lat="45.021524614605575" lon="10.006066111026538"><ele>36.66666666666667</ele><time>2026-04-18T05:32:00Z</time></trkpt><trkpt lat="45.021479687943305" lon="10.006155397683559"><ele>36.333333333333336</ele><time>2026-04-18T05:32:01Z</time></trkpt><trkpt lat="45.0214366976869" lon="10.006243651473884"><ele>36.0</ele><time>2026-04-18T05:32:02Z</time></trkpt><trkpt lat="45.021391011655666" lon="10.006333107820598"><ele>35.666666666666664</ele><time>2026-04-18T05:32:03Z</time></trkpt><trkpt lat="45.02134631924633" lon="10.006419066951473"><ele>35.33333333333333</ele><time>2026-04-18T05:32:04Z</time></trkpt><trkpt lat="45.021301401105966" lon="10.006509595261138"><ele>35.0</ele><time>2026-04-18T05:32:05Z</time></trkpt><trkpt lat="45.02125663488561" lon="10.00659724534125"><ele>35.5</ele><time>2026-04-18T05:32:06Z</time></trkpt><trkpt lat="45.021210518934915" lon="10.006687095343702"><ele>36.0</ele><time>2026-04-18T05:32:07Z</time></trkpt><trkpt lat="45.021165313734926" lon="10.00677530909695"><ele>36.5</ele><time>2026-04-18T05:32:08Z</time></trkpt><trkpt lat="45.02112109919904" lon="10.006865592840807"><ele>37.0</ele><time>2026-04-18T05:32:09Z</time></trkpt><trkpt lat="45.02107672428939" lon="10.006954200605431"><ele>37.5</ele><time>2026-04-18T05:32:10Z</time></trkpt><trkpt lat="45.02103250530445" lon="10.007042658969947"><ele>38.0</ele><time>2026-04-18T05:32:11Z</time></trkpt><trkpt lat="45.02098799978072" lon="10.007132640689143"><ele>38.0</ele><time>2026-04-18T05:32:12Z</time></trkpt><trkpt lat="45.02094423426139" lon="10.007221871396412"><ele>38.0</ele><time>2026-04-18T05:32:13Z</time></trkpt><trkpt lat="45.0208989847403" lon="10.007310127533215"><ele>38.0</ele><time>2026-04-18T05:32:14Z</time></trkpt><trkpt lat="45.02085361432142" lon="10.007396261034854"><ele>38.0</ele><time>2026-04-18T05:32:15Z</time></trkpt><trkpt lat="45.020808445645244" lon="10.007484796562158"><ele>38.0</ele><time>2026-04-18T05:32:15.999Z</time></trkpt><trkpt lat="45.02076477124346" lon="10.00757385783204"><ele>38.0</ele><time>2026-04-18T05:32:16.999Z</time></trkpt><trkpt lat="45.02072021869183" lon="10.00766097126746"><ele>38.0</ele><time>2026-04-18T05:32:17.999Z</time></trkpt><trkpt lat="45.02067642194139" lon="10.007749350965971"><ele>38.0</ele><time>2026-04-18T05:32:18.999Z</time></trkpt><trkpt lat="45.02063231939224" lon="10.007835489076102"><ele>38.0</ele><time>2026-04-18T05:32:19.999Z</time></trkpt><trkpt lat="45.0205901734571" lon="10.007923045867487"><ele>38.0</ele><time>2026-04-18T05:32:20.999Z</time></trkpt><trkpt lat="45.02054411690936" lon="10.00801135081261"><ele>38.0</ele><time>2026-04-18T05:32:21.999Z</time></trkpt><trkpt lat="45.0205005139112" lon="10.00809894086421"><ele>38.0</ele><time>2026-04-18T05:32:22.999Z</time></trkpt><trkpt lat="45.020455679250915" lon="10.00818571116523"><ele>38.0</ele><time>2026-04-18T05:32:23.999Z</time></trkpt><trkpt lat="45.020412133267456" lon="10.008272203459203"><ele>38.0</ele><time>2026-04-18T05:32:24.999Z</time></trkpt><trkpt lat="45.02036942274461" lon="10.008358256904618"><ele>38.0</ele><time>2026-04-18T05:32:25.999Z</time></trkpt><trkpt lat="45.020326425153115" lon="10.008445122263968"><ele>38.0</ele><time>2026-04-18T05:32:26.999Z</time></trkpt><trkpt lat="45.02028401841505" lon="10.008532359821338"><ele>38.0</ele><time>2026-04-18T05:32:27.999Z</time></trkpt><trkpt lat="45.020243638672625" lon="10.00861808996707"><ele>38.0</ele><time>2026-04-18T05:32:28.999Z</time></trkpt><trkpt lat="45.02020371062206" lon="10.00869831483718"><ele>38.0</ele><time>2026-04-18T05:32:29.999Z</time></trkpt><trkpt lat="45.020164132385624" lon="10.008779739587604"><ele>37.83333333333333</ele><time>2026-04-18T05:32:30.999Z</time></trkpt><trkpt lat="45.020128469858456" lon="10.008858037789631"><ele>37.666666666666664</ele><time>2026-04-18T05:32:31.999Z</time></trkpt><trkpt lat="45.020088746705646" lon="10.008932577998317"><ele>37.5</ele><time>2026-04-18T05:32:32.999Z</time></trkpt><trkpt lat="45.02004717212197" lon="10.009002348659074"><ele>37.333333333333336</ele><time>2026-04-18T05:32:33.999Z</time></trkpt><trkpt lat="45.01993953149727" lon="10.009032783720848"><ele>37.16666666666667</ele><time>2026-04-18T05:32:35.999Z</time></trkpt><trkpt lat="45.019874665691546" lon="10.008953901809825"><ele>37.0</ele><time>2026-04-18T05:32:36.999Z</time></trkpt><trkpt lat="45.01983425318943" lon="10.008874586882452"><ele>37.285714285714285</ele><time>2026-04-18T05:32:37.999Z</time></trkpt><trkpt lat="45.01979405600131" lon="10.008800176770938"><ele>37.57142857142857</ele><time>2026-04-18T05:32:38.999Z</time></trkpt><trkpt lat="45.01975407540288" lon="10.008728676130218"><ele>37.85714285714286</ele><time>2026-04-18T05:32:39.999Z</time></trkpt><trkpt lat="45.019710623461656" lon="10.008656225709792"><ele>38.14285714285714</ele><time>2026-04-18T05:32:40.999Z</time></trkpt><trkpt lat="45.0196656878681" lon="10.008586730048169"><ele>38.42857142857142</ele><time>2026-04-18T05:32:41.999Z</time></trkpt><trkpt lat="45.019622155936226" lon="10.008513251891854"><ele>38.714285714285715</ele><time>2026-04-18T05:32:42.999Z</time></trkpt><trkpt lat="45.01957901195907" lon="10.008437068012457"><ele>39.0</ele><time>2026-04-18T05:32:43.999Z</time></trkpt><trkpt lat="45.01953206926057" lon="10.008361926416073"><ele>38.57142857142858</ele><time>2026-04-18T05:32:44.999Z</time></trkpt><trkpt lat="45.01948922789649" lon="10.008288372075274"><ele>38.14285714285714</ele><time>2026-04-18T05:32:45.999Z</time></trkpt><trkpt lat="45.01944575016145" lon="10.008217299647631"><ele>37.714285714285715</ele><time>2026-04-18T05:32:46.999Z</time></trkpt><trkpt lat="45.019401092589646" lon="10.00814167604104"><ele>37.28571428571429</ele><time>2026-04-18T05:32:47.999Z</time></trkpt><trkpt lat="45.01935719099089" lon="10.008066988328743"><ele>36.85714285714286</ele><time>2026-04-18T05:32:48.999Z</time></trkpt><trkpt lat="45.01931184804034" lon="10.007995926177202"><ele>36.42857142857143</ele><time>2026-04-18T05:32:49.999Z</time></trkpt><trkpt lat="45.01926803034124" lon="10.007923242079931"><ele>36.0</ele><time>2026-04-18T05:32:50.999Z</time></trkpt><trkpt lat="45.01922430153525" lon="10.00785155075395"><ele>36.00000000000001</ele><time>2026-04-18T05:32:51.999Z</time></trkpt><trkpt lat="45.01918080549786" lon="10.007776269615505"><ele>36.0</ele><time>2026-04-18T05:32:52.999Z</time></trkpt><trkpt lat="45.019135412357166" lon="10.007703834999587"><ele>36.0</ele><time>2026-04-18T05:32:53.999Z</time></trkpt><trkpt lat="45.01909141222337" lon="10.007630463929274"><ele>36.0</ele><time>2026-04-18T05:32:54.999Z</time></trkpt><trkpt lat="45.01904590386346" lon="10.007555780040509"><ele>36.0</ele><time>2026-04-18T05:32:55.999Z</time></trkpt><trkpt lat="45.01900051413202" lon="10.007484562009148"><ele>36.00000000000001</ele><time>2026-04-18T05:32:56.999Z</time></trkpt><trkpt lat="45.018955031682154" lon="10.00741026296892"><ele>36.0</ele><time>2026-04-18T05:32:57.999Z</time></trkpt><trkpt lat="45.01891084587003" lon="10.007335467629447"><ele>36.28571428571429</ele><time>2026-04-18T05:32:58.999Z</time></trkpt><trkpt lat="45.018864525908235" lon="10.007262726812005"><ele>36.57142857142857</ele><time>2026-04-18T05:32:59.999Z</time></trkpt><trkpt lat="45.01881849296673" lon="10.007189444492642"><ele>36.85714285714286</ele><time>2026-04-18T05:33:00.999Z</time></trkpt><trkpt lat="45.01877404836427" lon="10.007114338789778"><ele>37.142857142857146</ele><time>2026-04-18T05:33:01.999Z</time></trkpt><trkpt lat="45.01872933671104" lon="10.00703861501938"><ele>37.42857142857143</ele><time>2026-04-18T05:33:02.999Z</time></trkpt><trkpt lat="45.0186839166078" lon="10.006964265205351"><ele>37.714285714285715</ele><time>2026-04-18T05:33:03.999Z</time></trkpt><trkpt lat="45.01863735694696" lon="10.006891069497781"><ele>38.0</ele><time>2026-04-18T05:33:04.999Z</time></trkpt><trkpt lat="45.01859198934399" lon="10.006817137012977"><ele>38.0</ele><time>2026-04-18T05:33:05.999Z</time></trkpt><trkpt lat="45.01854558777537" lon="10.006743346458872"><ele>38.0</ele><time>2026-04-18T05:33:06.999Z</time></trkpt><trkpt lat="45.018500606662315" lon="10.00667038692391"><ele>38.0</ele><time>2026-04-18T05:33:07.999Z</time></trkpt><trkpt lat="45.018453877540104" lon="10.006594460005951"><ele>38.0</ele><time>2026-04-18T05:33:08.999Z</time></trkpt><trkpt lat="45.018409340465524" lon="10.006519038625923"><ele>38.0</ele><time>2026-04-18T05:33:09.999Z</time></trkpt><trkpt lat="45.01836410229076" lon="10.006440480080759"><ele>38.0</ele><time>2026-04-18T05:33:10.999Z</time></trkpt><trkpt lat="45.01831710423459" lon="10.006364340893228"><ele>38.0</ele><time>2026-04-18T05:33:11.999Z</time></trkpt><trkpt lat="45.01826976814914" lon="10.006291091568183"><ele>38.14285714285714</ele><time>2026-04-18T05:33:12.999Z</time></trkpt><trkpt lat="45.01822375765358" lon="10.006215725267262"><ele>38.28571428571429</ele><time>2026-04-18T05:33:13.998Z</time></trkpt><trkpt lat="45.01817886138547" lon="10.006140774357442"><ele>38.42857142857143</ele><time>2026-04-18T05:33:14.998Z</time></trkpt><trkpt lat="45.01813218426623" lon="10.006066967154775"><ele>38.57142857142857</ele><time>2026-04-18T05:33:15.998Z</time></trkpt><trkpt lat="45.01808639342589" lon="10.00599259751214"><ele>38.71428571428571</ele><time>2026-04-18T05:33:16.998Z</time></trkpt><trkpt lat="45.018040728371105" lon="10.005918643831219"><ele>38.85714285714286</ele><time>2026-04-18T05:33:17.998Z</time></trkpt><trkpt lat="45.017995145547566" lon="10.005843693524524"><ele>39.0</ele><time>2026-04-18T05:33:18.998Z</time></trkpt><trkpt lat="45.01795147062573" lon="10.005770647116032"><ele>39.0</ele><time>2026-04-18T05:33:19.998Z</time></trkpt><trkpt lat="45.01790803491397" lon="10.005696130773684"><ele>39.0</ele><time>2026-04-18T05:33:20.998Z</time></trkpt><trkpt lat="45.017864371885864" lon="10.00562244163713"><ele>39.0</ele><time>2026-04-18T05:33:21.998Z</time></trkpt><trkpt lat="45.017819744201596" lon="10.005550856793752"><ele>39.0</ele><time>2026-04-18T05:33:22.998Z</time></trkpt><trkpt lat="45.0177761977063" lon="10.005479940343061"><ele>39.0</ele><time>2026-04-18T05:33:23.998Z</time></trkpt><trkpt lat="45.01773216553966" lon="10.005406465124016"><ele>39.0</ele><time>2026-04-18T05:33:24.998Z</time></trkpt><trkpt lat="45.01768653259506" lon="10.005336440694096"><ele>39.0</ele><time>2026-04-18T05:33:25.998Z</time></trkpt><trkpt lat="45.01764016682302" lon="10.00526561378427"><ele>39.0</ele><time>2026-04-18T05:33:26.998Z</time></trkpt><trkpt lat="45.017595516672166" lon="10.005195116911747"><ele>39.0</ele><time>2026-04-18T05:33:27.998Z</time></trkpt><trkpt lat="45.01755239067503" lon="10.005122530947661"><ele>39.0</ele><time>2026-04-18T05:33:28.998Z</time></trkpt><trkpt lat="45.01750984833868" lon="10.005051559334476"><ele>39.0</ele><time>2026-04-18T05:33:29.998Z</time></trkpt><trkpt lat="45.017466030456575" lon="10.00498203518415"><ele>39.0</ele><time>2026-04-18T05:33:30.998Z</time></trkpt><trkpt lat="45.01742318623292" lon="10.004912350386565"><ele>39.0</ele><time>2026-04-18T05:33:31.998Z</time></trkpt><trkpt lat="45.01737981190707" lon="10.004841055211163"><ele>39.0</ele><time>2026-04-18T05:33:32.998Z</time></trkpt><trkpt lat="45.017336857358316" lon="10.004769723483745"><ele>38.85714285714286</ele><time>2026-04-18T05:33:33.998Z</time></trkpt><trkpt lat="45.01729073997342" lon="10.004702107077135"><ele>38.71428571428571</ele><time>2026-04-18T05:33:34.998Z</time></trkpt><trkpt lat="45.01724033408741" lon="10.004636571980527"><ele>38.57142857142857</ele><time>2026-04-18T05:33:35.998Z</time></trkpt><trkpt lat="45.017188722356195" lon="10.004572410951235"><ele>38.42857142857143</ele><time>2026-04-18T05:33:36.998Z</time></trkpt><trkpt lat="45.01713912494956" lon="10.004505171033749"><ele>38.28571428571429</ele><time>2026-04-18T05:33:37.998Z</time></trkpt><trkpt lat="45.01709514128072" lon="10.004429734116892"><ele>38.14285714285714</ele><time>2026-04-18T05:33:38.998Z</time></trkpt><trkpt lat="45.017055862715026" lon="10.004352781016792"><ele>38.0</ele><time>2026-04-18T05:33:39.998Z</time></trkpt><trkpt lat="45.01702021556603" lon="10.004278837597495"><ele>38.0</ele><time>2026-04-18T05:33:40.998Z</time></trkpt><trkpt lat="45.01694811226766" lon="10.004137170486905"><ele>38.0</ele><time>2026-04-18T05:33:43Z</time></trkpt><trkpt lat="45.016906324855114" lon="10.004068508995353"><ele>38.0</ele><time>2026-04-18T05:33:44Z</time></trkpt><trkpt lat="45.01682021627388" lon="10.00393451340515"><ele>38.0</ele><time>2026-04-18T05:33:46Z</time></trkpt><trkpt lat="45.01677810539348" lon="10.003865748558074"><ele>38.0</ele><time>2026-04-18T05:33:47Z</time></trkpt><trkpt lat="45.016733093982246" lon="10.0037930915562"><ele>38.0</ele><time>2026-04-18T05:33:48Z</time></trkpt><trkpt lat="45.01668979773869" lon="10.003725004984052"><ele>38.0</ele><time>2026-04-18T05:33:49Z</time></trkpt><trkpt lat="45.01664457274199" lon="10.003658788381301"><ele>38.0</ele><time>2026-04-18T05:33:50Z</time></trkpt><trkpt lat="45.016599818653575" lon="10.003588349143364"><ele>38.0</ele><time>2026-04-18T05:33:51Z</time></trkpt><trkpt lat="45.01652043934125" lon="10.003447355257483"><ele>38.0</ele><time>2026-04-18T05:33:53Z</time></trkpt><trkpt lat="45.016478345917406" lon="10.00337888716932"><ele>38.0</ele><time>2026-04-18T05:33:54Z</time></trkpt><trkpt lat="45.01639331841618" lon="10.003245136586367"><ele>38.0</ele><time>2026-04-18T05:33:56Z</time></trkpt><trkpt lat="45.01631687414666" lon="10.003115541708572"><ele>38.0</ele><time>2026-04-18T05:33:58Z</time></trkpt><trkpt lat="45.0162387259969" lon="10.00299549254962"><ele>38.0</ele><time>2026-04-18T05:34:00Z</time></trkpt><trkpt lat="45.01616931418238" lon="10.002878592784842"><ele>38.0</ele><time>2026-04-18T05:34:02Z</time></trkpt><trkpt lat="45.01610179504282" lon="10.002768675180365"><ele>38.0</ele><time>2026-04-18T05:34:04Z</time></trkpt><trkpt lat="45.01604005304964" lon="10.002663781398686"><ele>38.0</ele><time>2026-04-18T05:34:06Z</time></trkpt><trkpt lat="45.01597807504173" lon="10.00256741388548"><ele>38.0</ele><time>2026-04-18T05:34:08Z</time></trkpt><trkpt lat="45.015918407435294" lon="10.00247554878051"><ele>38.0</ele><time>2026-04-18T05:34:10Z</time></trkpt><trkpt lat="45.01586610000806" lon="10.002389954615523"><ele>38.0</ele><time>2026-04-18T05:34:12Z</time></trkpt><trkpt lat="45.015827378816056" lon="10.00231612916913"><ele>38.0</ele><time>2026-04-18T05:34:14Z</time></trkpt><trkpt lat="45.01578378678841" lon="10.002242441127716"><ele>38.0</ele><time>2026-04-18T05:34:17Z</time></trkpt><trkpt lat="45.015750048536" lon="10.002164813354845"><ele>38.0</ele><time>2026-04-18T05:36:59.999Z</time></trkpt><trkpt lat="45.01569788569715" lon="10.00208127295378"><ele>38.0</ele><time>2026-04-18T05:37:02.999Z</time></trkpt><trkpt lat="45.01565176590035" lon="10.002001452818208"><ele>38.0</ele><time>2026-04-18T05:37:04.999Z</time></trkpt><trkpt lat="45.0156041161887" lon="10.00193038608557"><ele>38.0</ele><time>2026-04-18T05:37:06.999Z</time></trkpt><trkpt lat="45.0155517401845" lon="10.00183847463266"><ele>38.0</ele><time>2026-04-18T05:37:09.999Z</time></trkpt><trkpt lat="45.01549037790796" lon="10.001743693844634"><ele>38.0</ele><time>2026-04-18T05:37:12.999Z</time></trkpt><trkpt lat="45.01543472920375" lon="10.001644900967737"><ele>38.0</ele><time>2026-04-18T05:37:14.999Z</time></trkpt><trkpt lat="45.01536047315992" lon="10.00151839452837"><ele>38.0</ele><time>2026-04-18T05:37:16.999Z</time></trkpt><trkpt lat="45.01527553911407" lon="10.001387142920564"><ele>38.0</ele><time>2026-04-18T05:37:18.999Z</time></trkpt><trkpt lat="45.01522981906626" lon="10.00131950046288"><ele>38.0</ele><time>2026-04-18T05:37:19.999Z</time></trkpt><trkpt lat="45.01518544259398" lon="10.001251306069557"><ele>38.0</ele><time>2026-04-18T05:37:20.999Z</time></trkpt><trkpt lat="45.015101946434" lon="10.001110818624369"><ele>38.0</ele><time>2026-04-18T05:37:22.998Z</time></trkpt><trkpt lat="45.015057728863276" lon="10.001039738124138"><ele>38.0</ele><time>2026-04-18T05:37:23.998Z</time></trkpt><trkpt lat="45.01501187774469" lon="10.000966623337643"><ele>38.0</ele><time>2026-04-18T05:37:24.998Z</time></trkpt><trkpt lat="45.01497013491077" lon="10.000896857597114"><ele>38.0</ele><time>2026-04-18T05:37:25.998Z</time></trkpt><trkpt lat="45.01492832662105" lon="10.000829729230396"><ele>38.0</ele><time>2026-04-18T05:37:26.998Z</time></trkpt><trkpt lat="45.01487991105326" lon="10.00076443518064"><ele>38.0</ele><time>2026-04-18T05:37:27.998Z</time></trkpt><trkpt lat="45.01483500483489" lon="10.000692656649836"><ele>38.0</ele><time>2026-04-18T05:37:28.998Z</time></trkpt><trkpt lat="45.014788595177635" lon="10.000618501609997"><ele>38.14285714285714</ele><time>2026-04-18T05:37:29.998Z</time></trkpt><trkpt lat="45.0147442568803" lon="10.000544090904762"><ele>38.28571428571429</ele><time>2026-04-18T05:37:30.998Z</time></trkpt><trkpt lat="45.01469960349595" lon="10.00046996710814"><ele>38.42857142857143</ele><time>2026-04-18T05:37:31.998Z</time></trkpt><trkpt lat="45.01465391430758" lon="10.000394486456495"><ele>38.57142857142857</ele><time>2026-04-18T05:37:32.998Z</time></trkpt><trkpt lat="45.01460783127472" lon="10.00032380094791"><ele>38.71428571428571</ele><time>2026-04-18T05:37:33.998Z</time></trkpt><trkpt lat="45.01456320829188" lon="10.000253341832904"><ele>38.85714285714286</ele><time>2026-04-18T05:37:34.998Z</time></trkpt><trkpt lat="45.01451951595209" lon="10.000180643356968"><ele>39.0</ele><time>2026-04-18T05:37:35.998Z</time></trkpt><trkpt lat="45.01447604424054" lon="10.000105282226667"><ele>39.0</ele><time>2026-04-18T05:37:36.998Z</time></trkpt><trkpt lat="45.01443220529736" lon="10.000035291140792"><ele>39.0</ele><time>2026-04-18T05:37:37.998Z</time></trkpt><trkpt lat="45.014386641226565" lon="9.999957327223106"><ele>39.0</ele><time>2026-04-18T05:37:38.998Z</time></trkpt><trkpt lat="45.014343237590666" lon="9.999884133919622"><ele>39.0</ele><time>2026-04-18T05:37:39.998Z</time></trkpt><trkpt lat="45.01429922958058" lon="9.999806304808391"><ele>39.0</ele><time>2026-04-18T05:37:40.998Z</time></trkpt><trkpt lat="45.01425308373551" lon="9.99973104725888"><ele>39.0</ele><time>2026-04-18T05:37:41.998Z</time></trkpt><trkpt lat="45.01420502494618" lon="9.999657708130654"><ele>39.0</ele><time>2026-04-18T05:37:42.998Z</time></trkpt><trkpt lat="45.01415829805436" lon="9.99958084649302"><ele>38.85714285714286</ele><time>2026-04-18T05:37:43.998Z</time></trkpt><trkpt lat="45.01411173058861" lon="9.999505208402791"><ele>38.71428571428571</ele><time>2026-04-18T05:37:44.998Z</time></trkpt><trkpt lat="45.01406450971379" lon="9.999427455067233"><ele>38.57142857142857</ele><time>2026-04-18T05:37:45.998Z</time></trkpt><trkpt lat="45.01401761173687" lon="9.999356869849848"><ele>38.42857142857143</ele><time>2026-04-18T05:37:46.998Z</time></trkpt><trkpt lat="45.013970967872034" lon="9.999281819291761"><ele>38.28571428571429</ele><time>2026-04-18T05:37:47.998Z</time></trkpt><trkpt lat="45.01392557071218" lon="9.999206326481154"><ele>38.14285714285714</ele><time>2026-04-18T05:37:48.998Z</time></trkpt><trkpt lat="45.0138803942336" lon="9.99913105028609"><ele>38.0</ele><time>2026-04-18T05:37:49.998Z</time></trkpt><trkpt lat="45.01383621119475" lon="9.99905482163467"><ele>38.0</ele><time>2026-04-18T05:37:50.998Z</time></trkpt><trkpt lat="45.013790710516446" lon="9.998979982067887"><ele>38.0</ele><time>2026-04-18T05:37:51.998Z</time></trkpt><trkpt lat="45.01374339668782" lon="9.998908117139228"><ele>38.0</ele><time>2026-04-18T05:37:52.998Z</time></trkpt><trkpt lat="45.01369640122132" lon="9.998833550687406"><ele>38.0</ele><time>2026-04-18T05:37:54Z</time></trkpt><trkpt lat="45.01365123600016" lon="9.998758965885564"><ele>38.0</ele><time>2026-04-18T05:37:55Z</time></trkpt><trkpt lat="45.013608596697765" lon="9.998680019838886"><ele>38.0</ele><time>2026-04-18T05:37:56Z</time></trkpt><trkpt lat="45.01356434018663" lon="9.998609799465598"><ele>38.0</ele><time>2026-04-18T05:37:57Z</time></trkpt><trkpt lat="45.0135162957799" lon="9.998537213786689"><ele>38.0</ele><time>2026-04-18T05:37:58Z</time></trkpt><trkpt lat="45.01347016106027" lon="9.998462658280703"><ele>38.0</ele><time>2026-04-18T05:37:59Z</time></trkpt><trkpt lat="45.0134246983548" lon="9.99838792191852"><ele>38.0</ele><time>2026-04-18T05:38:00Z</time></trkpt><trkpt lat="45.013380423800974" lon="9.998313238056909"><ele>38.0</ele><time>2026-04-18T05:38:01Z</time></trkpt><trkpt lat="45.01333532916366" lon="9.99823596079071"><ele>38.0</ele><time>2026-04-18T05:38:02Z</time></trkpt><trkpt lat="45.01328989946326" lon="9.998162373504647"><ele>38.0</ele><time>2026-04-18T05:38:03Z</time></trkpt><trkpt lat="45.01324324592572" lon="9.998088935937929"><ele>38.0</ele><time>2026-04-18T05:38:04Z</time></trkpt><trkpt lat="45.01319660869693" lon="9.99801495511318"><ele>38.14285714285714</ele><time>2026-04-18T05:38:05Z</time></trkpt><trkpt lat="45.013149827742104" lon="9.997941939661434"><ele>38.28571428571429</ele><time>2026-04-18T05:38:06Z</time></trkpt><trkpt lat="45.013106218631435" lon="9.997866451224317"><ele>38.42857142857143</ele><time>2026-04-18T05:38:07Z</time></trkpt><trkpt lat="45.01306270993661" lon="9.997787854442924"><ele>38.57142857142857</ele><time>2026-04-18T05:38:08Z</time></trkpt><trkpt lat="45.013019874196765" lon="9.997709069017471"><ele>38.71428571428571</ele><time>2026-04-18T05:38:09Z</time></trkpt><trkpt lat="45.01297542228357" lon="9.997635712130089"><ele>38.85714285714286</ele><time>2026-04-18T05:38:10Z</time></trkpt><trkpt lat="45.01293108942932" lon="9.997563534964577"><ele>39.0</ele><time>2026-04-18T05:38:11Z</time></trkpt><trkpt lat="45.01288559790913" lon="9.997489239963622"><ele>39.0</ele><time>2026-04-18T05:38:12Z</time></trkpt><trkpt lat="45.012838841597464" lon="9.99741531914113"><ele>39.0</ele><time>2026-04-18T05:38:13Z</time></trkpt><trkpt lat="45.01279150866846" lon="9.997342593851716"><ele>39.0</ele><time>2026-04-18T05:38:14Z</time></trkpt><trkpt lat="45.01274843925262" lon="9.997267214167648"><ele>39.0</ele><time>2026-04-18T05:38:15Z</time></trkpt><trkpt lat="45.012707499508274" lon="9.997190969912817"><ele>39.0</ele><time>2026-04-18T05:38:16Z</time></trkpt><trkpt lat="45.01266297154062" lon="9.997115995430358"><ele>39.0</ele><time>2026-04-18T05:38:17Z</time></trkpt><trkpt lat="45.01261774506864" lon="9.99705181412261"><ele>39.0</ele><time>2026-04-18T05:38:18Z</time></trkpt><trkpt lat="45.01257410836948" lon="9.996982276278201"><ele>39.0</ele><time>2026-04-18T05:38:19Z</time></trkpt><trkpt lat="45.01253166817263" lon="9.996907052581355"><ele>39.0</ele><time>2026-04-18T05:38:20Z</time></trkpt><trkpt lat="45.01248900352888" lon="9.996835229806003"><ele>39.0</ele><time>2026-04-18T05:38:21Z</time></trkpt><trkpt lat="45.01244552130708" lon="9.996767948259462"><ele>39.0</ele><time>2026-04-18T05:38:22Z</time></trkpt><trkpt lat="45.01236520609088" lon="9.996637713707024"><ele>39.0</ele><time>2026-04-18T05:38:24Z</time></trkpt><trkpt lat="45.0122960319512" lon="9.996502168523465"><ele>39.0</ele><time>2026-04-18T05:38:26Z</time></trkpt><trkpt lat="45.0122256338206" lon="9.996375082218709"><ele>39.166666666666664</ele><time>2026-04-18T05:38:28Z</time></trkpt><trkpt lat="45.01214472717999" lon="9.996238181762013"><ele>39.333333333333336</ele><time>2026-04-18T05:38:30Z</time></trkpt><trkpt lat="45.012107591670585" lon="9.996159303530233"><ele>39.5</ele><time>2026-04-18T05:38:31Z</time></trkpt><trkpt lat="45.01206522400523" lon="9.996076314035724"><ele>39.66666666666667</ele><time>2026-04-18T05:38:31.999Z</time></trkpt><trkpt lat="45.01201823231898" lon="9.995997396569237"><ele>39.833333333333336</ele><time>2026-04-18T05:38:32.999Z</time></trkpt><trkpt lat="45.01196881198247" lon="9.995918637274405"><ele>40.0</ele><time>2026-04-18T05:38:33.999Z</time></trkpt><trkpt lat="45.0119189710188" lon="9.995839030421857"><ele>39.857142857142854</ele><time>2026-04-18T05:38:34.999Z</time></trkpt><trkpt lat="45.011869232598265" lon="9.99576086918438"><ele>39.714285714285715</ele><time>2026-04-18T05:38:35.999Z</time></trkpt><trkpt lat="45.011819599287435" lon="9.995679586221396"><ele>39.57142857142857</ele><time>2026-04-18T05:38:36.999Z</time></trkpt><trkpt lat="45.011769504236675" lon="9.995601632022888"><ele>39.42857142857143</ele><time>2026-04-18T05:38:37.999Z</time></trkpt><trkpt lat="45.01172149994785" lon="9.995524837608839"><ele>39.285714285714285</ele><time>2026-04-18T05:38:38.999Z</time></trkpt><trkpt lat="45.011674153978284" lon="9.995451659290227"><ele>39.142857142857146</ele><time>2026-04-18T05:38:39.999Z</time></trkpt><trkpt lat="45.011625210861105" lon="9.99537434870941"><ele>39.0</ele><time>2026-04-18T05:38:40.999Z</time></trkpt><trkpt lat="45.011577584111706" lon="9.995295090508739"><ele>39.0</ele><time>2026-04-18T05:38:41.999Z</time></trkpt><trkpt lat="45.01152644001683" lon="9.995216474811066"><ele>39.0</ele><time>2026-04-18T05:38:42.999Z</time></trkpt><trkpt lat="45.011475500444156" lon="9.99514021289213"><ele>39.0</ele><time>2026-04-18T05:38:43.999Z</time></trkpt><trkpt lat="45.01142119248897" lon="9.995069981484285"><ele>39.0</ele><time>2026-04-18T05:38:44.999Z</time></trkpt><trkpt lat="45.011372125267016" lon="9.994989930916814"><ele>39.0</ele><time>2026-04-18T05:38:45.999Z</time></trkpt><trkpt lat="45.01132229156132" lon="9.994913667619073"><ele>39.0</ele><time>2026-04-18T05:38:46.999Z</time></trkpt><trkpt lat="45.01126937370676" lon="9.994837326036"><ele>39.0</ele><time>2026-04-18T05:38:47.999Z</time></trkpt><trkpt lat="45.011214001855876" lon="9.994765508476418"><ele>39.142857142857146</ele><time>2026-04-18T05:38:48.999Z</time></trkpt><trkpt lat="45.01115894477229" lon="9.994695501790831"><ele>39.285714285714285</ele><time>2026-04-18T05:38:49.999Z</time></trkpt><trkpt lat="45.011103193061984" lon="9.994625646462225"><ele>39.42857142857143</ele><time>2026-04-18T05:38:50.999Z</time></trkpt><trkpt lat="45.01104880894354" lon="9.99455831457232"><ele>39.57142857142857</ele><time>2026-04-18T05:38:51.999Z</time></trkpt><trkpt lat="45.01099450623394" lon="9.994490581211537"><ele>39.714285714285715</ele><time>2026-04-18T05:38:52.999Z</time></trkpt><trkpt lat="45.01094032029621" lon="9.994419539689488"><ele>39.857142857142854</ele><time>2026-04-18T05:38:53.999Z</time></trkpt><trkpt lat="45.01088572431138" lon="9.994349179313119"><ele>40.0</ele><time>2026-04-18T05:38:54.999Z</time></trkpt><trkpt lat="45.01083248863487" lon="9.994274012858147"><ele>40.0</ele><time>2026-04-18T05:38:55.999Z</time></trkpt><trkpt lat="45.01077825308456" lon="9.994200275601976"><ele>40.0</ele><time>2026-04-18T05:38:56.999Z</time></trkpt><trkpt lat="45.01072562698888" lon="9.994126216179845"><ele>40.0</ele><time>2026-04-18T05:38:57.999Z</time></trkpt><trkpt lat="45.01067132555614" lon="9.994052685543611"><ele>40.0</ele><time>2026-04-18T05:38:58.999Z</time></trkpt><trkpt lat="45.01061422756875" lon="9.993981201654492"><ele>40.0</ele><time>2026-04-18T05:38:59.999Z</time></trkpt><trkpt lat="45.01056004716403" lon="9.993910053537107"><ele>40.0</ele><time>2026-04-18T05:39:00.999Z</time></trkpt><trkpt lat="45.010511225376646" lon="9.99382923779051"><ele>40.0</ele><time>2026-04-18T05:39:01.999Z</time></trkpt><trkpt lat="45.01046421754412" lon="9.993745380243718"><ele>40.0</ele><time>2026-04-18T05:39:02.999Z</time></trkpt><trkpt lat="45.01041152874985" lon="9.993665659996967"><ele>40.0</ele><time>2026-04-18T05:39:03.999Z</time></trkpt><trkpt lat="45.010357747048104" lon="9.993591964993774"><ele>40.0</ele><time>2026-04-18T05:39:04.999Z</time></trkpt><trkpt lat="45.010306148339204" lon="9.993512973011144"><ele>40.0</ele><time>2026-04-18T05:39:05.999Z</time></trkpt><trkpt lat="45.01025330709515" lon="9.993438080025443"><ele>40.0</ele><time>2026-04-18T05:39:06.999Z</time></trkpt><trkpt lat="45.01019959433221" lon="9.993360893646846"><ele>39.833333333333336</ele><time>2026-04-18T05:39:07.999Z</time></trkpt><trkpt lat="45.01014765628804" lon="9.993286950787343"><ele>39.66666666666667</ele><time>2026-04-18T05:39:08.999Z</time></trkpt><trkpt lat="45.010096341293895" lon="9.993207091766802"><ele>39.5</ele><time>2026-04-18T05:39:09.999Z</time></trkpt><trkpt lat="45.01004441921332" lon="9.993130123169824"><ele>39.333333333333336</ele><time>2026-04-18T05:39:10.999Z</time></trkpt><trkpt lat="45.00999460564866" lon="9.993050571899056"><ele>39.166666666666664</ele><time>2026-04-18T05:39:11.999Z</time></trkpt><trkpt lat="45.00994418174922" lon="9.992969238639011"><ele>39.0</ele><time>2026-04-18T05:39:12.999Z</time></trkpt><trkpt lat="45.00989145313495" lon="9.992890714442215"><ele>39.0</ele><time>2026-04-18T05:39:13.999Z</time></trkpt><trkpt lat="45.00983926357832" lon="9.992811841381187"><ele>39.0</ele><time>2026-04-18T05:39:14.999Z</time></trkpt><trkpt lat="45.00978571277037" lon="9.992739297457776"><ele>39.0</ele><time>2026-04-18T05:39:15.999Z</time></trkpt><trkpt lat="45.00972902654921" lon="9.992660189957363"><ele>39.0</ele><time>2026-04-18T05:39:16.999Z</time></trkpt><trkpt lat="45.009670401634374" lon="9.992583128024648"><ele>39.0</ele><time>2026-04-18T05:39:17.999Z</time></trkpt><trkpt lat="45.009628460115096" lon="9.99249237767442"><ele>39.0</ele><time>2026-04-18T05:39:18.999Z</time></trkpt><trkpt lat="45.00957621327853" lon="9.992410031364074"><ele>38.833333333333336</ele><time>2026-04-18T05:39:19.999Z</time></trkpt><trkpt lat="45.00951193971664" lon="9.992340546022158"><ele>38.666666666666664</ele><time>2026-04-18T05:39:20.999Z</time></trkpt><trkpt lat="45.00946394157134" lon="9.992256940311488"><ele>38.5</ele><time>2026-04-18T05:39:21.999Z</time></trkpt><trkpt lat="45.00941574458265" lon="9.992177150499977"><ele>38.33333333333333</ele><time>2026-04-18T05:39:22.999Z</time></trkpt><trkpt lat="45.00936729035677" lon="9.992099608927028"><ele>38.166666666666664</ele><time>2026-04-18T05:39:23.999Z</time></trkpt><trkpt lat="45.009320033869955" lon="9.992019690422088"><ele>38.0</ele><time>2026-04-18T05:39:24.999Z</time></trkpt><trkpt lat="45.00927165438591" lon="9.991939338947168"><ele>38.0</ele><time>2026-04-18T05:39:25.999Z</time></trkpt><trkpt lat="45.00922709591292" lon="9.991861531140314"><ele>38.0</ele><time>2026-04-18T05:39:26.999Z</time></trkpt><trkpt lat="45.009178655126924" lon="9.991782439153816"><ele>38.0</ele><time>2026-04-18T05:39:27.999Z</time></trkpt><trkpt lat="45.00913161060975" lon="9.991701943802898"><ele>38.0</ele><time>2026-04-18T05:39:28.998Z</time></trkpt><trkpt lat="45.00908627806439" lon="9.991624465438457"><ele>38.0</ele><time>2026-04-18T05:39:29.998Z</time></trkpt><trkpt lat="45.00903915176997" lon="9.991544483892215"><ele>38.0</ele><time>2026-04-18T05:39:30.998Z</time></trkpt><trkpt lat="45.00899207517258" lon="9.991466736593233"><ele>38.0</ele><time>2026-04-18T05:39:31.998Z</time></trkpt><trkpt lat="45.00894339587806" lon="9.991386636824576"><ele>38.14285714285714</ele><time>2026-04-18T05:39:32.998Z</time></trkpt><trkpt lat="45.00889521154507" lon="9.991306678305437"><ele>38.28571428571429</ele><time>2026-04-18T05:39:33.998Z</time></trkpt><trkpt lat="45.00884966547956" lon="9.991225953266282"><ele>38.42857142857143</ele><time>2026-04-18T05:39:34.998Z</time></trkpt><trkpt lat="45.00880207644192" lon="9.991145576133082"><ele>38.57142857142857</ele><time>2026-04-18T05:39:35.998Z</time></trkpt><trkpt lat="45.00875474611493" lon="9.991065435432256"><ele>38.71428571428571</ele><time>2026-04-18T05:39:36.998Z</time></trkpt><trkpt lat="45.008706122437346" lon="9.990989014013977"><ele>38.85714285714286</ele><time>2026-04-18T05:39:37.998Z</time></trkpt><trkpt lat="45.00865899169281" lon="9.99091135669744"><ele>39.0</ele><time>2026-04-18T05:39:38.998Z</time></trkpt><trkpt lat="45.00861278303989" lon="9.990830194663527"><ele>39.0</ele><time>2026-04-18T05:39:39.998Z</time></trkpt><trkpt lat="45.00856628354137" lon="9.990749374741172"><ele>39.0</ele><time>2026-04-18T05:39:40.998Z</time></trkpt><trkpt lat="45.00851911844657" lon="9.990670097435475"><ele>39.0</ele><time>2026-04-18T05:39:41.998Z</time></trkpt><trkpt lat="45.0084713616863" lon="9.9905934575118"><ele>39.0</ele><time>2026-04-18T05:39:42.998Z</time></trkpt><trkpt lat="45.00842453656302" lon="9.990514459607784"><ele>39.0</ele><time>2026-04-18T05:39:43.998Z</time></trkpt><trkpt lat="45.008388899451674" lon="9.990421729004519"><ele>39.0</ele><time>2026-04-18T05:39:44.998Z</time></trkpt><trkpt lat="45.00834219441174" lon="9.99034361253169"><ele>39.0</ele><time>2026-04-18T05:39:45.998Z</time></trkpt><trkpt lat="45.00828353861495" lon="9.9902791419918"><ele>39.142857142857146</ele><time>2026-04-18T05:39:46.998Z</time></trkpt><trkpt lat="45.00823806626116" lon="9.990198848439114"><ele>39.285714285714285</ele><time>2026-04-18T05:39:47.998Z</time></trkpt><trkpt lat="45.0081918192106" lon="9.990119651751119"><ele>39.42857142857143</ele><time>2026-04-18T05:39:48.998Z</time></trkpt><trkpt lat="45.008143270665094" lon="9.990043594858294"><ele>39.57142857142857</ele><time>2026-04-18T05:39:49.998Z</time></trkpt><trkpt lat="45.00809476535234" lon="9.989966526317128"><ele>39.714285714285715</ele><time>2026-04-18T05:39:50.998Z</time></trkpt><trkpt lat="45.00805728185956" lon="9.989869746718558"><ele>39.857142857142854</ele><time>2026-04-18T05:39:51.998Z</time></trkpt><trkpt lat="45.00800987267627" lon="9.989789172852918"><ele>40.0</ele><time>2026-04-18T05:39:52.998Z</time></trkpt><trkpt lat="45.00795113421812" lon="9.989718681229785"><ele>40.14285714285714</ele><time>2026-04-18T05:39:53.998Z</time></trkpt><trkpt lat="45.00790578408071" lon="9.989635541774293"><ele>40.285714285714285</ele><time>2026-04-18T05:39:54.998Z</time></trkpt><trkpt lat="45.00785814710774" lon="9.989553744175119"><ele>40.42857142857143</ele><time>2026-04-18T05:39:55.998Z</time></trkpt><trkpt lat="45.007813090609766" lon="9.989470218356429"><ele>40.57142857142857</ele><time>2026-04-18T05:39:56.998Z</time></trkpt><trkpt lat="45.00776812206934" lon="9.989385249833116"><ele>40.714285714285715</ele><time>2026-04-18T05:39:57.998Z</time></trkpt><trkpt lat="45.007726128564876" lon="9.989298362886448"><ele>40.857142857142854</ele><time>2026-04-18T05:39:58.998Z</time></trkpt><trkpt lat="45.00769090073228" lon="9.989202550059009"><ele>41.0</ele><time>2026-04-18T05:40:00Z</time></trkpt><trkpt lat="45.007654579526914" lon="9.98911359463359"><ele>41.0</ele><time>2026-04-18T05:40:01Z</time></trkpt><trkpt lat="45.007621881281835" lon="9.989014010250347"><ele>41.0</ele><time>2026-04-18T05:40:02Z</time></trkpt><trkpt lat="45.00758918746713" lon="9.988915888209911"><ele>41.0</ele><time>2026-04-18T05:40:03Z</time></trkpt><trkpt lat="45.007554698737096" lon="9.988818393326248"><ele>41.0</ele><time>2026-04-18T05:40:04Z</time></trkpt><trkpt lat="45.007522733074815" lon="9.98872127631052"><ele>41.0</ele><time>2026-04-18T05:40:05Z</time></trkpt><trkpt lat="45.00748810514312" lon="9.988625303983179"><ele>41.0</ele><time>2026-04-18T05:40:06Z</time></trkpt><trkpt lat="45.007452207906134" lon="9.988530729024793"><ele>40.99999999999999</ele><time>2026-04-18T05:40:07Z</time></trkpt><trkpt lat="45.007414676921435" lon="9.988438584109007"><ele>41.0</ele><time>2026-04-18T05:40:08Z</time></trkpt><trkpt lat="45.007372502596795" lon="9.988347691135386"><ele>41.0</ele><time>2026-04-18T05:40:09Z</time></trkpt><trkpt lat="45.00732929870801" lon="9.988264337322123"><ele>41.0</ele><time>2026-04-18T05:40:10Z</time></trkpt><trkpt lat="45.00728158901638" lon="9.98818126193528"><ele>41.0</ele><time>2026-04-18T05:40:11Z</time></trkpt><trkpt lat="45.007234834766614" lon="9.988103634094697"><ele>40.99999999999999</ele><time>2026-04-18T05:40:12Z</time></trkpt><trkpt lat="45.00718665104753" lon="9.98802561573734"><ele>41.0</ele><time>2026-04-18T05:40:13Z</time></trkpt><trkpt lat="45.00713518049806" lon="9.987947415500992"><ele>40.99999999999999</ele><time>2026-04-18T05:40:14Z</time></trkpt><trkpt lat="45.0070856071335" lon="9.987868935200014"><ele>41.0</ele><time>2026-04-18T05:40:15Z</time></trkpt><trkpt lat="45.00703565056414" lon="9.987788389068447"><ele>41.0</ele><time>2026-04-18T05:40:16Z</time></trkpt><trkpt lat="45.00698499274507" lon="9.987710138185388"><ele>41.0</ele><time>2026-04-18T05:40:17Z</time></trkpt><trkpt lat="45.00693565004478" lon="9.987628959677377"><ele>41.0</ele><time>2026-04-18T05:40:18Z</time></trkpt><trkpt lat="45.00688637905182" lon="9.98755144352406"><ele>40.99999999999999</ele><time>2026-04-18T05:40:19Z</time></trkpt><trkpt lat="45.00683726301511" lon="9.987472076588215"><ele>41.0</ele><time>2026-04-18T05:40:20Z</time></trkpt><trkpt lat="45.006788370660445" lon="9.987394180767216"><ele>40.99999999999999</ele><time>2026-04-18T05:40:21Z</time></trkpt><trkpt lat="45.006741051071074" lon="9.987313341552186"><ele>41.0</ele><time>2026-04-18T05:40:22Z</time></trkpt><trkpt lat="45.006690417891264" lon="9.98723775643267"><ele>41.0</ele><time>2026-04-18T05:40:23Z</time></trkpt><trkpt lat="45.006641401407244" lon="9.987160685582305"><ele>41.0</ele><time>2026-04-18T05:40:24Z</time></trkpt><trkpt lat="45.00659280987927" lon="9.987084278985996"><ele>41.0</ele><time>2026-04-18T05:40:25Z</time></trkpt><trkpt lat="45.00654390947914" lon="9.987004321638485"><ele>40.99999999999999</ele><time>2026-04-18T05:40:26Z</time></trkpt><trkpt lat="45.00649582978607" lon="9.986926036629864"><ele>41.0</ele><time>2026-04-18T05:40:27Z</time></trkpt><trkpt lat="45.00644810946427" lon="9.986848243226587"><ele>40.99999999999999</ele><time>2026-04-18T05:40:28Z</time></trkpt><trkpt lat="45.006398113635115" lon="9.986770183093046"><ele>41.0</ele><time>2026-04-18T05:40:29Z</time></trkpt><trkpt lat="45.006346831594485" lon="9.986696168424876"><ele>41.0</ele><time>2026-04-18T05:40:30Z</time></trkpt><trkpt lat="45.00629528557188" lon="9.986620473249893"><ele>41.0</ele><time>2026-04-18T05:40:31Z</time></trkpt><trkpt lat="45.00624633436475" lon="9.986543557631057"><ele>41.0</ele><time>2026-04-18T05:40:32Z</time></trkpt><trkpt lat="45.00619171523997" lon="9.986471970998362"><ele>40.99999999999999</ele><time>2026-04-18T05:40:33Z</time></trkpt><trkpt lat="45.00614565928022" lon="9.986386339380738"><ele>41.0</ele><time>2026-04-18T05:40:34Z</time></trkpt><trkpt lat="45.00607157053023" lon="9.986345632174563"><ele>41.166666666666664</ele><time>2026-04-18T05:40:35Z</time></trkpt><trkpt lat="45.00600625016133" lon="9.986293963646103"><ele>41.33333333333333</ele><time>2026-04-18T05:40:36Z</time></trkpt><trkpt lat="45.00593990836062" lon="9.986243403011693"><ele>41.5</ele><time>2026-04-18T05:40:37Z</time></trkpt><trkpt lat="45.00588188054543" lon="9.986170659437681"><ele>41.666666666666664</ele><time>2026-04-18T05:40:37.999Z</time></trkpt><trkpt lat="45.00580728445168" lon="9.986137851264077"><ele>41.833333333333336</ele><time>2026-04-18T05:40:38.999Z</time></trkpt><trkpt lat="45.00574176648609" lon="9.986084143062508"><ele>42.0</ele><time>2026-04-18T05:40:39.999Z</time></trkpt><trkpt lat="45.00567752908508" lon="9.986033270848722"><ele>41.666666666666664</ele><time>2026-04-18T05:40:40.999Z</time></trkpt><trkpt lat="45.00561990375989" lon="9.98596079247541"><ele>41.333333333333336</ele><time>2026-04-18T05:40:41.999Z</time></trkpt><trkpt lat="45.00555406298373" lon="9.985908048327872"><ele>41.0</ele><time>2026-04-18T05:40:42.999Z</time></trkpt><trkpt lat="45.00548831669882" lon="9.9858560070081"><ele>40.66666666666667</ele><time>2026-04-18T05:40:43.999Z</time></trkpt><trkpt lat="45.005423251695305" lon="9.98580450495426"><ele>40.333333333333336</ele><time>2026-04-18T05:40:44.999Z</time></trkpt><trkpt lat="45.00535003852903" lon="9.985772395713951"><ele>40.0</ele><time>2026-04-18T05:40:45.999Z</time></trkpt><trkpt lat="45.005285955484155" lon="9.985719150476285"><ele>40.0</ele><time>2026-04-18T05:40:46.999Z</time></trkpt><trkpt lat="45.005221357186464" lon="9.985665929808109"><ele>40.0</ele><time>2026-04-18T05:40:47.999Z</time></trkpt><trkpt lat="45.005156074586125" lon="9.985613225600234"><ele>40.0</ele><time>2026-04-18T05:40:48.999Z</time></trkpt><trkpt lat="45.00509106756969" lon="9.985560654535686"><ele>40.0</ele><time>2026-04-18T05:40:49.999Z</time></trkpt><trkpt lat="45.00502502336691" lon="9.98550892059159"><ele>40.0</ele><time>2026-04-18T05:40:50.999Z</time></trkpt><trkpt lat="45.0049598220652" lon="9.985456104570614"><ele>40.0</ele><time>2026-04-18T05:40:51.999Z</time></trkpt><trkpt lat="45.00489461491174" lon="9.98540450155188"><ele>40.0</ele><time>2026-04-18T05:40:52.999Z</time></trkpt><trkpt lat="45.00482910545225" lon="9.985351636195082"><ele>40.0</ele><time>2026-04-18T05:40:53.999Z</time></trkpt><trkpt lat="45.00476435640661" lon="9.985301215586809"><ele>40.0</ele><time>2026-04-18T05:40:54.999Z</time></trkpt><trkpt lat="45.00469900451421" lon="9.985251423348227"><ele>40.0</ele><time>2026-04-18T05:40:55.999Z</time></trkpt><trkpt lat="45.00463366103874" lon="9.985201126520487"><ele>40.0</ele><time>2026-04-18T05:40:56.999Z</time></trkpt><trkpt lat="45.004569518041386" lon="9.985148466954747"><ele>40.0</ele><time>2026-04-18T05:40:57.999Z</time></trkpt><trkpt lat="45.004504270911774" lon="9.985094517569658"><ele>40.0</ele><time>2026-04-18T05:40:58.999Z</time></trkpt><trkpt lat="45.00443910091843" lon="9.985044630148534"><ele>40.14285714285714</ele><time>2026-04-18T05:40:59.999Z</time></trkpt><trkpt lat="45.004374071892244" lon="9.984993838926561"><ele>40.285714285714285</ele><time>2026-04-18T05:41:00.999Z</time></trkpt><trkpt lat="45.00430961063961" lon="9.984942496032746"><ele>40.42857142857143</ele><time>2026-04-18T05:41:01.999Z</time></trkpt><trkpt lat="45.00424486501233" lon="9.98489197896307"><ele>40.57142857142857</ele><time>2026-04-18T05:41:02.999Z</time></trkpt><trkpt lat="45.0041807404215" lon="9.984838088990706"><ele>40.714285714285715</ele><time>2026-04-18T05:41:03.999Z</time></trkpt><trkpt lat="45.00411698223167" lon="9.984783554591022"><ele>40.857142857142854</ele><time>2026-04-18T05:41:04.999Z</time></trkpt><trkpt lat="45.00405129945126" lon="9.984733637627606"><ele>41.0</ele><time>2026-04-18T05:41:05.999Z</time></trkpt><trkpt lat="45.00398604093433" lon="9.984683001555771"><ele>40.99999999999999</ele><time>2026-04-18T05:41:06.999Z</time></trkpt><trkpt lat="45.00392171197023" lon="9.984632228862955"><ele>41.0</ele><time>2026-04-18T05:41:07.999Z</time></trkpt><trkpt lat="45.00385820878634" lon="9.98458000860462"><ele>41.0</ele><time>2026-04-18T05:41:08.999Z</time></trkpt><trkpt lat="45.00379327144254" lon="9.984528726357329"><ele>41.0</ele><time>2026-04-18T05:41:09.999Z</time></trkpt><trkpt lat="45.00372691962502" lon="9.984476875506036"><ele>41.0</ele><time>2026-04-18T05:41:10.999Z</time></trkpt><trkpt lat="45.00366991537987" lon="9.984407527240123"><ele>40.99999999999999</ele><time>2026-04-18T05:41:11.999Z</time></trkpt><trkpt lat="45.00360459913903" lon="9.984355327818822"><ele>41.0</ele><time>2026-04-18T05:41:12.999Z</time></trkpt><trkpt lat="45.003540867457176" lon="9.984304446040317"><ele>40.99999999999999</ele><time>2026-04-18T05:41:13.999Z</time></trkpt><trkpt lat="45.003475135353064" lon="9.984251967175652"><ele>41.0</ele><time>2026-04-18T05:41:14.999Z</time></trkpt><trkpt lat="45.00340450861394" lon="9.984221098409131"><ele>41.0</ele><time>2026-04-18T05:41:15.999Z</time></trkpt><trkpt lat="45.003338970178625" lon="9.984170513057583"><ele>41.0</ele><time>2026-04-18T05:41:16.999Z</time></trkpt><trkpt lat="45.00327469196325" lon="9.984119961645945"><ele>41.0</ele><time>2026-04-18T05:41:17.999Z</time></trkpt><trkpt lat="45.00320803614409" lon="9.984070014795916"><ele>40.99999999999999</ele><time>2026-04-18T05:41:18.999Z</time></trkpt><trkpt lat="45.00314268215228" lon="9.984018990991515"><ele>41.0</ele><time>2026-04-18T05:41:19.999Z</time></trkpt><trkpt lat="45.00307794510189" lon="9.983965513176292"><ele>40.83333333333333</ele><time>2026-04-18T05:41:20.999Z</time></trkpt><trkpt lat="45.00301320817264" lon="9.983916473903461"><ele>40.666666666666664</ele><time>2026-04-18T05:41:21.999Z</time></trkpt><trkpt lat="45.0029486504652" lon="9.983863319898441"><ele>40.5</ele><time>2026-04-18T05:41:22.999Z</time></trkpt><trkpt lat="45.00289219218118" lon="9.983790389751954"><ele>40.333333333333336</ele><time>2026-04-18T05:41:23.999Z</time></trkpt><trkpt lat="45.00281910122252" lon="9.983754767831696"><ele>40.16666666666667</ele><time>2026-04-18T05:41:24.999Z</time></trkpt><trkpt lat="45.002756639515525" lon="9.983698905343486"><ele>40.0</ele><time>2026-04-18T05:41:25.999Z</time></trkpt><trkpt lat="45.0027068988056" lon="9.983619664188057"><ele>40.0</ele><time>2026-04-18T05:41:26.999Z</time></trkpt><trkpt lat="45.00265235619408" lon="9.983549383446045"><ele>40.0</ele><time>2026-04-18T05:41:27.999Z</time></trkpt><trkpt lat="45.00260937824457" lon="9.983471679167168"><ele>40.0</ele><time>2026-04-18T05:41:28.999Z</time></trkpt><trkpt lat="45.002552012968145" lon="9.983402446052366"><ele>40.0</ele><time>2026-04-18T05:41:29.999Z</time></trkpt><trkpt lat="45.00251130042603" lon="9.983316525074708"><ele>40.0</ele><time>2026-04-18T05:41:30.999Z</time></trkpt><trkpt lat="45.00246599427305" lon="9.983234755353655"><ele>40.0</ele><time>2026-04-18T05:41:31.999Z</time></trkpt><trkpt lat="45.002413658020814" lon="9.98316143007021"><ele>40.0</ele><time>2026-04-18T05:41:32.999Z</time></trkpt><trkpt lat="45.002353489741466" lon="9.983098303947672"><ele>40.285714285714285</ele><time>2026-04-18T05:41:33.999Z</time></trkpt><trkpt lat="45.002298678328934" lon="9.983024636436085"><ele>40.57142857142857</ele><time>2026-04-18T05:41:34.998Z</time></trkpt><trkpt lat="45.00222978447112" lon="9.982976334360126"><ele>40.85714285714286</ele><time>2026-04-18T05:41:35.998Z</time></trkpt><trkpt lat="45.00216180871443" lon="9.982938447736023"><ele>41.14285714285714</ele><time>2026-04-18T05:41:36.998Z</time></trkpt><trkpt lat="45.00209458792094" lon="9.982896047399613"><ele>41.42857142857143</ele><time>2026-04-18T05:41:37.998Z</time></trkpt><trkpt lat="45.002025976077604" lon="9.982852769642863"><ele>41.714285714285715</ele><time>2026-04-18T05:41:38.998Z</time></trkpt><trkpt lat="45.0019575548233" lon="9.982809612086562"><ele>42.0</ele><time>2026-04-18T05:41:39.998Z</time></trkpt><trkpt lat="45.001888751398305" lon="9.982768974807312"><ele>42.0</ele><time>2026-04-18T05:41:40.998Z</time></trkpt><trkpt lat="45.001819440372216" lon="9.982728301258238"><ele>42.0</ele><time>2026-04-18T05:41:41.998Z</time></trkpt><trkpt lat="45.00175028801497" lon="9.982687720842362"><ele>42.0</ele><time>2026-04-18T05:41:42.998Z</time></trkpt><trkpt lat="45.001682131900886" lon="9.98264586930534"><ele>42.0</ele><time>2026-04-18T05:41:43.998Z</time></trkpt><trkpt lat="45.00161387754485" lon="9.982603395325613"><ele>42.0</ele><time>2026-04-18T05:41:44.998Z</time></trkpt><trkpt lat="45.001543977904134" lon="9.982560855062728"><ele>42.0</ele><time>2026-04-18T05:41:45.998Z</time></trkpt><trkpt lat="45.00147597922915" lon="9.982521201496553"><ele>42.0</ele><time>2026-04-18T05:41:46.998Z</time></trkpt><trkpt lat="45.00140672645799" lon="9.98248081657866"><ele>42.0</ele><time>2026-04-18T05:41:47.998Z</time></trkpt><trkpt lat="45.0013320576419" lon="9.98245929730491"><ele>42.0</ele><time>2026-04-18T05:41:48.998Z</time></trkpt><trkpt lat="45.001263064833104" lon="9.98241611924182"><ele>42.0</ele><time>2026-04-18T05:41:49.998Z</time></trkpt><trkpt lat="45.00119548937474" lon="9.982375337656226"><ele>42.0</ele><time>2026-04-18T05:41:50.998Z</time></trkpt><trkpt lat="45.0011341817311" lon="9.982312928078867"><ele>42.0</ele><time>2026-04-18T05:41:51.998Z</time></trkpt><trkpt lat="45.00106654041268" lon="9.982271637360162"><ele>42.0</ele><time>2026-04-18T05:41:52.998Z</time></trkpt><trkpt lat="45.000990746628915" lon="9.982252619423296"><ele>42.0</ele><time>2026-04-18T05:41:53.998Z</time></trkpt><trkpt lat="45.00092289148557" lon="9.982209577919384"><ele>42.0</ele><time>2026-04-18T05:41:54.998Z</time></trkpt><trkpt lat="45.00086024248383" lon="9.98214809055003"><ele>42.0</ele><time>2026-04-18T05:41:55.998Z</time></trkpt><trkpt lat="45.00079179973464" lon="9.982105685782475"><ele>42.0</ele><time>2026-04-18T05:41:56.998Z</time></trkpt><trkpt lat="45.00072226721422" lon="9.982067413929498"><ele>42.0</ele><time>2026-04-18T05:41:57.998Z</time></trkpt><trkpt lat="45.00065322662445" lon="9.982030300110269"><ele>42.0</ele><time>2026-04-18T05:41:58.998Z</time></trkpt><trkpt lat="45.00058425294356" lon="9.981994065103908"><ele>42.0</ele><time>2026-04-18T05:41:59.998Z</time></trkpt><trkpt lat="45.00050793351613" lon="9.981978650476613"><ele>42.0</ele><time>2026-04-18T05:42:00.998Z</time></trkpt><trkpt lat="45.00043814500592" lon="9.981943508728751"><ele>42.0</ele><time>2026-04-18T05:42:01.998Z</time></trkpt><trkpt lat="45.00037343913135" lon="9.981886359724108"><ele>42.0</ele><time>2026-04-18T05:42:02.998Z</time></trkpt><trkpt lat="45.000303419456785" lon="9.981851371941817"><ele>42.0</ele><time>2026-04-18T05:42:03.998Z</time></trkpt><trkpt lat="45.00023271221177" lon="9.981816040655309"><ele>42.0</ele><time>2026-04-18T05:42:04.998Z</time></trkpt><trkpt lat="45.00016184393552" lon="9.981780965440642"><ele>42.0</ele><time>2026-04-18T05:42:06Z</time></trkpt><trkpt lat="45.000089379788974" lon="9.98174660524069"><ele>42.0</ele><time>2026-04-18T05:42:07Z</time></trkpt><trkpt lat="45.00001863062597" lon="9.98171305808987"><ele>42.0</ele><time>2026-04-18T05:42:08Z</time></trkpt><trkpt lat="44.99994603479113" lon="9.981679834440241"><ele>42.0</ele><time>2026-04-18T05:42:09Z</time></trkpt><trkpt lat="44.99987552632614" lon="9.981647369375272"><ele>42.0</ele><time>2026-04-18T05:42:10Z</time></trkpt><trkpt lat="44.99980453711756" lon="9.981614951124731"><ele>42.0</ele><time>2026-04-18T05:42:11Z</time></trkpt><trkpt lat="44.999733299989146" lon="9.981582840724526"><ele>42.0</ele><time>2026-04-18T05:42:12Z</time></trkpt><trkpt lat="44.999661989848505" lon="9.981550697460003"><ele>42.0</ele><time>2026-04-18T05:42:13Z</time></trkpt><trkpt lat="44.99959015402836" lon="9.981518317240027"><ele>42.166666666666664</ele><time>2026-04-18T05:42:14Z</time></trkpt><trkpt lat="44.99951517749593" lon="9.981506876365305"><ele>42.333333333333336</ele><time>2026-04-18T05:42:15Z</time></trkpt><trkpt lat="44.99944355497484" lon="9.981473953506468"><ele>42.5</ele><time>2026-04-18T05:42:16Z</time></trkpt><trkpt lat="44.9993768519038" lon="9.981418849224015"><ele>42.66666666666667</ele><time>2026-04-18T05:42:17Z</time></trkpt><trkpt lat="44.999305657762555" lon="9.981385556495638"><ele>42.833333333333336</ele><time>2026-04-18T05:42:18Z</time></trkpt><trkpt lat="44.99923236747157" lon="9.981351663996714"><ele>43.0</ele><time>2026-04-18T05:42:19Z</time></trkpt><trkpt lat="44.99916027860198" lon="9.981318219130836"><ele>43.0</ele><time>2026-04-18T05:42:20Z</time></trkpt><trkpt lat="44.9990889926763" lon="9.981285212152846"><ele>43.0</ele><time>2026-04-18T05:42:21Z</time></trkpt><trkpt lat="44.99901665889477" lon="9.981252158221032"><ele>43.0</ele><time>2026-04-18T05:42:22Z</time></trkpt><trkpt lat="44.99894417388647" lon="9.981219035159162"><ele>43.0</ele><time>2026-04-18T05:42:23Z</time></trkpt><trkpt lat="44.99887039791814" lon="9.981185322185265"><ele>43.0</ele><time>2026-04-18T05:42:24Z</time></trkpt><trkpt lat="44.998797633926664" lon="9.981152071617151"><ele>43.0</ele><time>2026-04-18T05:42:25Z</time></trkpt><trkpt lat="44.99872405538352" lon="9.981118448862754"><ele>43.0</ele><time>2026-04-18T05:42:26Z</time></trkpt><trkpt lat="44.998652918010876" lon="9.981085941631553"><ele>43.0</ele><time>2026-04-18T05:42:27Z</time></trkpt><trkpt lat="44.99857896712884" lon="9.98105186165548"><ele>43.0</ele><time>2026-04-18T05:42:28Z</time></trkpt><trkpt lat="44.99850752171361" lon="9.981018334561057"><ele>43.0</ele><time>2026-04-18T05:42:29Z</time></trkpt><trkpt lat="44.99843471872669" lon="9.980984170386483"><ele>43.0</ele><time>2026-04-18T05:42:30Z</time></trkpt><trkpt lat="44.998362909869236" lon="9.980950760526692"><ele>43.0</ele><time>2026-04-18T05:42:31Z</time></trkpt><trkpt lat="44.998289400778575" lon="9.980917550209098"><ele>42.66666666666667</ele><time>2026-04-18T05:42:32Z</time></trkpt><trkpt lat="44.9982133110664" lon="9.98090752054262"><ele>42.333333333333336</ele><time>2026-04-18T05:42:33Z</time></trkpt><trkpt lat="44.99814113663714" lon="9.980874973241031"><ele>42.0</ele><time>2026-04-18T05:42:34Z</time></trkpt><trkpt lat="44.99807556396082" lon="9.980820901400758"><ele>41.666666666666664</ele><time>2026-04-18T05:42:35Z</time></trkpt><trkpt lat="44.998001008971464" lon="9.980801039704154"><ele>41.33333333333333</ele><time>2026-04-18T05:42:36Z</time></trkpt><trkpt lat="44.997930405383144" lon="9.980769186066379"><ele>41.0</ele><time>2026-04-18T05:42:37Z</time></trkpt><trkpt lat="44.997859588567316" lon="9.980739056151126"><ele>40.857142857142854</ele><time>2026-04-18T05:42:38Z</time></trkpt><trkpt lat="44.99778857907368" lon="9.980705433093153"><ele>40.714285714285715</ele><time>2026-04-18T05:42:39Z</time></trkpt><trkpt lat="44.997716986524836" lon="9.980671369940927"><ele>40.57142857142857</ele><time>2026-04-18T05:42:40Z</time></trkpt><trkpt lat="44.99764589978696" lon="9.980638648842087"><ele>40.42857142857143</ele><time>2026-04-18T05:42:41Z</time></trkpt><trkpt lat="44.99757453478097" lon="9.980606083585728"><ele>40.285714285714285</ele><time>2026-04-18T05:42:41.999Z</time></trkpt><trkpt lat="44.997503642916314" lon="9.980572759508554"><ele>40.14285714285714</ele><time>2026-04-18T05:42:42.999Z</time></trkpt><trkpt lat="44.997432366100426" lon="9.98054153159115"><ele>40.0</ele><time>2026-04-18T05:42:43.999Z</time></trkpt><trkpt lat="44.997361719467634" lon="9.980508967964525"><ele>39.857142857142854</ele><time>2026-04-18T05:42:44.999Z</time></trkpt><trkpt lat="44.99729013532198" lon="9.980475980695017"><ele>39.714285714285715</ele><time>2026-04-18T05:42:45.999Z</time></trkpt><trkpt lat="44.99721903977485" lon="9.980443497371544"><ele>39.57142857142857</ele><time>2026-04-18T05:42:46.999Z</time></trkpt><trkpt lat="44.99714823424802" lon="9.980409763681267"><ele>39.42857142857143</ele><time>2026-04-18T05:42:47.999Z</time></trkpt><trkpt lat="44.99707769777896" lon="9.980380353353254"><ele>39.285714285714285</ele><time>2026-04-18T05:42:48.999Z</time></trkpt><trkpt lat="44.99700683316456" lon="9.980349547789995"><ele>39.142857142857146</ele><time>2026-04-18T05:42:49.999Z</time></trkpt><trkpt lat="44.99693546557245" lon="9.980320022427765"><ele>39.0</ele><time>2026-04-18T05:42:50.999Z</time></trkpt><trkpt lat="44.996863282590056" lon="9.980288512488336"><ele>39.0</ele><time>2026-04-18T05:42:51.999Z</time></trkpt><trkpt lat="44.996790678621124" lon="9.98025774343325"><ele>39.0</ele><time>2026-04-18T05:42:52.999Z</time></trkpt><trkpt lat="44.99671980394176" lon="9.980227412442298"><ele>39.0</ele><time>2026-04-18T05:42:53.999Z</time></trkpt><trkpt lat="44.99664824876313" lon="9.980196137094353"><ele>39.0</ele><time>2026-04-18T05:42:54.999Z</time></trkpt><trkpt lat="44.99657712167755" lon="9.980165225528413"><ele>39.0</ele><time>2026-04-18T05:42:55.999Z</time></trkpt><trkpt lat="44.99650514770873" lon="9.980133710021676"><ele>39.0</ele><time>2026-04-18T05:42:56.999Z</time></trkpt><trkpt lat="44.99643354075449" lon="9.980103383980763"><ele>39.0</ele><time>2026-04-18T05:42:57.999Z</time></trkpt><trkpt lat="44.9963619405121" lon="9.980069578427367"><ele>39.166666666666664</ele><time>2026-04-18T05:42:58.999Z</time></trkpt><trkpt lat="44.996289726657594" lon="9.980039188191768"><ele>39.333333333333336</ele><time>2026-04-18T05:42:59.999Z</time></trkpt><trkpt lat="44.996218271278266" lon="9.980006847120201"><ele>39.5</ele><time>2026-04-18T05:43:00.999Z</time></trkpt><trkpt lat="44.996146809933734" lon="9.979974875149766"><ele>39.66666666666667</ele><time>2026-04-18T05:43:01.999Z</time></trkpt><trkpt lat="44.99607441875649" lon="9.97994353271387"><ele>39.833333333333336</ele><time>2026-04-18T05:43:02.999Z</time></trkpt><trkpt lat="44.99600258114833" lon="9.97991206831669"><ele>40.0</ele><time>2026-04-18T05:43:03.999Z</time></trkpt><trkpt lat="44.99593199590708" lon="9.979877316000765"><ele>40.0</ele><time>2026-04-18T05:43:04.999Z</time></trkpt><trkpt lat="44.99586118217456" lon="9.979844502958876"><ele>40.0</ele><time>2026-04-18T05:43:05.999Z</time></trkpt><trkpt lat="44.995790340020726" lon="9.979812261586991"><ele>40.0</ele><time>2026-04-18T05:43:06.999Z</time></trkpt><trkpt lat="44.9957201178464" lon="9.979780423468931"><ele>40.0</ele><time>2026-04-18T05:43:07.999Z</time></trkpt><trkpt lat="44.995652614373796" lon="9.979728488371817"><ele>40.0</ele><time>2026-04-18T05:43:08.999Z</time></trkpt><trkpt lat="44.995581307616305" lon="9.979695640901172"><ele>40.0</ele><time>2026-04-18T05:43:09.999Z</time></trkpt><trkpt lat="44.995510568281226" lon="9.979662153282758"><ele>40.0</ele><time>2026-04-18T05:43:10.999Z</time></trkpt><trkpt lat="44.99544013639355" lon="9.979628110125788"><ele>40.285714285714285</ele><time>2026-04-18T05:43:11.999Z</time></trkpt><trkpt lat="44.99537002233694" lon="9.979594220590148"><ele>40.57142857142857</ele><time>2026-04-18T05:43:12.999Z</time></trkpt><trkpt lat="44.99529892869631" lon="9.97955985757377"><ele>40.85714285714286</ele><time>2026-04-18T05:43:13.999Z</time></trkpt><trkpt lat="44.99522773218268" lon="9.979525444873598"><ele>41.14285714285714</ele><time>2026-04-18T05:43:14.999Z</time></trkpt><trkpt lat="44.99515787558462" lon="9.979490382597394"><ele>41.42857142857143</ele><time>2026-04-18T05:43:15.999Z</time></trkpt><trkpt lat="44.99508239640134" lon="9.979476778673309"><ele>41.714285714285715</ele><time>2026-04-18T05:43:16.999Z</time></trkpt><trkpt lat="44.99501396004235" lon="9.97943826420636"><ele>42.0</ele><time>2026-04-18T05:43:17.999Z</time></trkpt><trkpt lat="44.994950772288924" lon="9.979380614145466"><ele>42.142857142857146</ele><time>2026-04-18T05:43:18.999Z</time></trkpt><trkpt lat="44.99488239678366" lon="9.979342995273681"><ele>42.285714285714285</ele><time>2026-04-18T05:43:19.999Z</time></trkpt><trkpt lat="44.99481374709014" lon="9.97930522547055"><ele>42.42857142857143</ele><time>2026-04-18T05:43:20.999Z</time></trkpt><trkpt lat="44.99474356848616" lon="9.979266614552289"><ele>42.57142857142857</ele><time>2026-04-18T05:43:21.999Z</time></trkpt><trkpt lat="44.99467302715176" lon="9.979227804074732"><ele>42.714285714285715</ele><time>2026-04-18T05:43:22.999Z</time></trkpt><trkpt lat="44.99460372338854" lon="9.979189674429405"><ele>42.85714285714286</ele><time>2026-04-18T05:43:23.999Z</time></trkpt><trkpt lat="44.99453361364771" lon="9.979151101392832"><ele>43.0</ele><time>2026-04-18T05:43:24.999Z</time></trkpt><trkpt lat="44.99446414426394" lon="9.979112880703465"><ele>43.142857142857146</ele><time>2026-04-18T05:43:25.999Z</time></trkpt><trkpt lat="44.994389676193784" lon="9.979094596701925"><ele>43.285714285714285</ele><time>2026-04-18T05:43:26.999Z</time></trkpt><trkpt lat="44.99432198448053" lon="9.979055245880993"><ele>43.42857142857143</ele><time>2026-04-18T05:43:27.999Z</time></trkpt><trkpt lat="44.99425349735313" lon="9.979015623162164"><ele>43.57142857142857</ele><time>2026-04-18T05:43:28.999Z</time></trkpt><trkpt lat="44.994184885585256" lon="9.978978169032134"><ele>43.714285714285715</ele><time>2026-04-18T05:43:29.999Z</time></trkpt><trkpt lat="44.9941172676285" lon="9.978940592446447"><ele>43.85714285714286</ele><time>2026-04-18T05:43:30.999Z</time></trkpt><trkpt lat="44.99404837293634" lon="9.978903324816594"><ele>44.0</ele><time>2026-04-18T05:43:31.999Z</time></trkpt><trkpt lat="44.99398190487335" lon="9.978859652592336"><ele>44.0</ele><time>2026-04-18T05:43:32.999Z</time></trkpt><trkpt lat="44.993913750881056" lon="9.978825333387176"><ele>44.0</ele><time>2026-04-18T05:43:33.999Z</time></trkpt><trkpt lat="44.99385202826058" lon="9.978766290255528"><ele>44.0</ele><time>2026-04-18T05:43:34.999Z</time></trkpt><trkpt lat="44.99378363707932" lon="9.978726933644081"><ele>44.0</ele><time>2026-04-18T05:43:35.999Z</time></trkpt><trkpt lat="44.99370998833235" lon="9.978710462407864"><ele>44.0</ele><time>2026-04-18T05:43:36.999Z</time></trkpt><trkpt lat="44.99364269721509" lon="9.978671350695075"><ele>44.0</ele><time>2026-04-18T05:43:37.999Z</time></trkpt><trkpt lat="44.99357515629328" lon="9.978636953544749"><ele>44.0</ele><time>2026-04-18T05:43:38.998Z</time></trkpt><trkpt lat="44.99350656165399" lon="9.978603459644566"><ele>44.0</ele><time>2026-04-18T05:43:39.998Z</time></trkpt><trkpt lat="44.99343924943973" lon="9.978559934709793"><ele>44.0</ele><time>2026-04-18T05:43:40.998Z</time></trkpt><trkpt lat="44.9933635655895" lon="9.978553311483472"><ele>44.0</ele><time>2026-04-18T05:43:41.998Z</time></trkpt><trkpt lat="44.99328173869694" lon="9.978590832832461"><ele>44.0</ele><time>2026-04-18T05:43:42.998Z</time></trkpt><trkpt lat="44.993215519014775" lon="9.978647598848474"><ele>44.0</ele><time>2026-04-18T05:43:43.998Z</time></trkpt><trkpt lat="44.99317505566271" lon="9.97874187321253"><ele>44.0</ele><time>2026-04-18T05:43:44.998Z</time></trkpt><trkpt lat="44.99313396019655" lon="9.978828653799757"><ele>44.142857142857146</ele><time>2026-04-18T05:43:45.998Z</time></trkpt><trkpt lat="44.99309136831515" lon="9.978912572992877"><ele>44.285714285714285</ele><time>2026-04-18T05:43:46.998Z</time></trkpt><trkpt lat="44.993053350592994" lon="9.97899593886907"><ele>44.42857142857143</ele><time>2026-04-18T05:43:47.998Z</time></trkpt><trkpt lat="44.993014983650056" lon="9.979081769099869"><ele>44.57142857142857</ele><time>2026-04-18T05:43:48.998Z</time></trkpt><trkpt lat="44.99297172579403" lon="9.979161683410382"><ele>44.714285714285715</ele><time>2026-04-18T05:43:49.998Z</time></trkpt><trkpt lat="44.9929323807681" lon="9.9792456383876"><ele>44.857142857142854</ele><time>2026-04-18T05:43:50.998Z</time></trkpt><trkpt lat="44.99289239480021" lon="9.979325879847584"><ele>45.0</ele><time>2026-04-18T05:43:51.998Z</time></trkpt><trkpt lat="44.9928304651603" lon="9.979364342555817"><ele>44.4</ele><time>2026-04-18T05:43:52.998Z</time></trkpt><trkpt lat="44.99273565992831" lon="9.979406721282155"><ele>43.8</ele><time>2026-04-18T05:43:54.998Z</time></trkpt><trkpt lat="44.99273967465872" lon="9.979644791138446"><ele>43.2</ele><time>2026-04-18T05:43:55.998Z</time></trkpt><trkpt lat="44.99270151981476" lon="9.979729170084038"><ele>42.6</ele><time>2026-04-18T05:43:56.998Z</time></trkpt><trkpt lat="44.99266241291124" lon="9.979811554594715"><ele>42.0</ele><time>2026-04-18T05:43:57.998Z</time></trkpt><trkpt lat="44.992621007131426" lon="9.979894760292659"><ele>42.0</ele><time>2026-04-18T05:43:58.998Z</time></trkpt><trkpt lat="44.992581657803356" lon="9.979979017023432"><ele>42.0</ele><time>2026-04-18T05:43:59.998Z</time></trkpt><trkpt lat="44.99254392785443" lon="9.980066242875354"><ele>42.0</ele><time>2026-04-18T05:44:00.998Z</time></trkpt><trkpt lat="44.99250289859239" lon="9.980151685385342"><ele>42.0</ele><time>2026-04-18T05:44:01.998Z</time></trkpt><trkpt lat="44.99246138419695" lon="9.98023595373443"><ele>42.0</ele><time>2026-04-18T05:44:02.998Z</time></trkpt><trkpt lat="44.99241967879389" lon="9.980320807750733"><ele>42.0</ele><time>2026-04-18T05:44:03.998Z</time></trkpt><trkpt lat="44.99237962742506" lon="9.98040757928331"><ele>42.0</ele><time>2026-04-18T05:44:04.998Z</time></trkpt><trkpt lat="44.9923397992451" lon="9.980495023504048"><ele>42.0</ele><time>2026-04-18T05:44:05.998Z</time></trkpt><trkpt lat="44.992300115955764" lon="9.980581262308815"><ele>42.0</ele><time>2026-04-18T05:44:06.998Z</time></trkpt><trkpt lat="44.99225952754438" lon="9.980667489208026"><ele>42.0</ele><time>2026-04-18T05:44:07.998Z</time></trkpt><trkpt lat="44.99221616668986" lon="9.980751936540052"><ele>42.0</ele><time>2026-04-18T05:44:08.998Z</time></trkpt><trkpt lat="44.992174446838" lon="9.980838781530903"><ele>42.0</ele><time>2026-04-18T05:44:09.998Z</time></trkpt><trkpt lat="44.992133780641026" lon="9.980926855289391"><ele>42.0</ele><time>2026-04-18T05:44:11Z</time></trkpt><trkpt lat="44.99209165658013" lon="9.981011881857457"><ele>42.0</ele><time>2026-04-18T05:44:12Z</time></trkpt><trkpt lat="44.99205139747742" lon="9.981097165770478"><ele>42.0</ele><time>2026-04-18T05:44:13Z</time></trkpt><trkpt lat="44.99201081838156" lon="9.981182886139766"><ele>42.0</ele><time>2026-04-18T05:44:14Z</time></trkpt><trkpt lat="44.991971820866404" lon="9.981270978105233"><ele>42.0</ele><time>2026-04-18T05:44:15Z</time></trkpt><trkpt lat="44.99191648288702" lon="9.981344813487"><ele>42.0</ele><time>2026-04-18T05:44:16Z</time></trkpt><trkpt lat="44.99187519132539" lon="9.981430735291422"><ele>42.0</ele><time>2026-04-18T05:44:17Z</time></trkpt><trkpt lat="44.991832541401934" lon="9.981519483724933"><ele>42.0</ele><time>2026-04-18T05:44:18Z</time></trkpt><trkpt lat="44.9917906803883" lon="9.981606590477378"><ele>42.0</ele><time>2026-04-18T05:44:19Z</time></trkpt><trkpt lat="44.99174772501935" lon="9.98169597449841"><ele>42.142857142857146</ele><time>2026-04-18T05:44:20Z</time></trkpt><trkpt lat="44.99170580593016" lon="9.98178432555154"><ele>42.285714285714285</ele><time>2026-04-18T05:44:21Z</time></trkpt><trkpt lat="44.991664743217946" lon="9.98187180702388"><ele>42.42857142857143</ele><time>2026-04-18T05:44:22Z</time></trkpt><trkpt lat="44.99163778923249" lon="9.981970822883358"><ele>42.57142857142857</ele><time>2026-04-18T05:44:23Z</time></trkpt><trkpt lat="44.99159482130265" lon="9.982057638419729"><ele>42.714285714285715</ele><time>2026-04-18T05:44:24Z</time></trkpt><trkpt lat="44.99155336487728" lon="9.982145571041025"><ele>42.85714285714286</ele><time>2026-04-18T05:44:25Z</time></trkpt><trkpt lat="44.99151352224773" lon="9.98223456615975"><ele>43.0</ele><time>2026-04-18T05:44:26Z</time></trkpt><trkpt lat="44.99145977380738" lon="9.982308480938993"><ele>43.0</ele><time>2026-04-18T05:44:27Z</time></trkpt><trkpt lat="44.99141855388595" lon="9.982396496819597"><ele>43.0</ele><time>2026-04-18T05:44:28Z</time></trkpt><trkpt lat="44.99137734550096" lon="9.98248475173797"><ele>43.0</ele><time>2026-04-18T05:44:29Z</time></trkpt><trkpt lat="44.99133585837095" lon="9.982573603643749"><ele>43.0</ele><time>2026-04-18T05:44:30Z</time></trkpt><trkpt lat="44.99130761521065" lon="9.982674016714851"><ele>43.0</ele><time>2026-04-18T05:44:31Z</time></trkpt><trkpt lat="44.99126511483064" lon="9.982760407378088"><ele>43.0</ele><time>2026-04-18T05:44:32Z</time></trkpt><trkpt lat="44.99122376485152" lon="9.982848270750987"><ele>43.00000000000001</ele><time>2026-04-18T05:44:33Z</time></trkpt><trkpt lat="44.99118400337683" lon="9.982936623286497"><ele>43.0</ele><time>2026-04-18T05:44:34Z</time></trkpt><trkpt lat="44.99114334861813" lon="9.983023603600309"><ele>43.0</ele><time>2026-04-18T05:44:35Z</time></trkpt><trkpt lat="44.991103930049626" lon="9.983111470720283"><ele>43.0</ele><time>2026-04-18T05:44:36Z</time></trkpt><trkpt lat="44.99106299345448" lon="9.983199634747248"><ele>43.0</ele><time>2026-04-18T05:44:37Z</time></trkpt><trkpt lat="44.99102301169898" lon="9.983287710874636"><ele>43.00000000000001</ele><time>2026-04-18T05:44:38Z</time></trkpt><trkpt lat="44.99097975763923" lon="9.983373828829459"><ele>43.0</ele><time>2026-04-18T05:44:39Z</time></trkpt><trkpt lat="44.990941302303845" lon="9.983464178999505"><ele>43.00000000000001</ele><time>2026-04-18T05:44:40Z</time></trkpt><trkpt lat="44.990897747780124" lon="9.983551813273573"><ele>43.0</ele><time>2026-04-18T05:44:41Z</time></trkpt><trkpt lat="44.99085438806695" lon="9.983637365055394"><ele>43.0</ele><time>2026-04-18T05:44:42Z</time></trkpt><trkpt lat="44.990814383151765" lon="9.983727033331917"><ele>43.0</ele><time>2026-04-18T05:44:43Z</time></trkpt><trkpt lat="44.990773074658534" lon="9.983815620916198"><ele>43.0</ele><time>2026-04-18T05:44:44Z</time></trkpt><trkpt lat="44.99073238941389" lon="9.983905140480651"><ele>43.00000000000001</ele><time>2026-04-18T05:44:45Z</time></trkpt><trkpt lat="44.990694630288296" lon="9.983991183286491"><ele>43.0</ele><time>2026-04-18T05:44:45.999Z</time></trkpt><trkpt lat="44.99065023190199" lon="9.984076789795424"><ele>43.00000000000001</ele><time>2026-04-18T05:44:46.999Z</time></trkpt><trkpt lat="44.99060770181234" lon="9.984165355883091"><ele>43.0</ele><time>2026-04-18T05:44:47.999Z</time></trkpt><trkpt lat="44.990568106362275" lon="9.984255218703208"><ele>43.0</ele><time>2026-04-18T05:44:48.999Z</time></trkpt><trkpt lat="44.9905291132846" lon="9.984343180299316"><ele>43.0</ele><time>2026-04-18T05:44:49.999Z</time></trkpt><trkpt lat="44.99048907422716" lon="9.984428862902444"><ele>43.0</ele><time>2026-04-18T05:44:50.999Z</time></trkpt><trkpt lat="44.990450441328306" lon="9.9845132756155"><ele>43.00000000000001</ele><time>2026-04-18T05:44:51.999Z</time></trkpt><trkpt lat="44.99040933431521" lon="9.984594129587474"><ele>43.0</ele><time>2026-04-18T05:44:52.999Z</time></trkpt><trkpt lat="44.99037528739062" lon="9.984679781796546"><ele>43.25</ele><time>2026-04-18T05:44:53.999Z</time></trkpt><trkpt lat="44.99034452657934" lon="9.984762685909418"><ele>43.5</ele><time>2026-04-18T05:44:54.999Z</time></trkpt><trkpt lat="44.99026765183913" lon="9.98488255934532"><ele>43.75</ele><time>2026-04-18T05:44:56.999Z</time></trkpt><trkpt lat="44.99013266436048" lon="9.9847722346636"><ele>44.0</ele><time>2026-04-18T05:44:59.999Z</time></trkpt><trkpt lat="44.990050865822326" lon="9.984646313576482"><ele>44.0</ele><time>2026-04-18T05:45:01.999Z</time></trkpt><trkpt lat="44.9900040897167" lon="9.98458660147365"><ele>44.0</ele><time>2026-04-18T05:45:02.999Z</time></trkpt><trkpt lat="44.989953977777745" lon="9.984527923450464"><ele>44.0</ele><time>2026-04-18T05:45:03.999Z</time></trkpt><trkpt lat="44.98990300683288" lon="9.984468003410111"><ele>44.0</ele><time>2026-04-18T05:45:04.999Z</time></trkpt><trkpt lat="44.98985132602358" lon="9.984405141879282"><ele>44.0</ele><time>2026-04-18T05:45:05.999Z</time></trkpt><trkpt lat="44.98979999262968" lon="9.98434130847307"><ele>44.0</ele><time>2026-04-18T05:45:06.999Z</time></trkpt><trkpt lat="44.98974607964613" lon="9.984277304094777"><ele>44.0</ele><time>2026-04-18T05:45:07.999Z</time></trkpt><trkpt lat="44.989694150944565" lon="9.98421495093918"><ele>43.714285714285715</ele><time>2026-04-18T05:45:08.999Z</time></trkpt><trkpt lat="44.98964113154111" lon="9.984151246761819"><ele>43.42857142857143</ele><time>2026-04-18T05:45:09.999Z</time></trkpt><trkpt lat="44.98958697336937" lon="9.984084453726704"><ele>43.14285714285714</ele><time>2026-04-18T05:45:10.999Z</time></trkpt><trkpt lat="44.989531357511154" lon="9.984019684183838"><ele>42.85714285714286</ele><time>2026-04-18T05:45:11.999Z</time></trkpt><trkpt lat="44.98947532033952" lon="9.98395213209347"><ele>42.57142857142857</ele><time>2026-04-18T05:45:12.999Z</time></trkpt><trkpt lat="44.98942075727024" lon="9.98388696434166"><ele>42.285714285714285</ele><time>2026-04-18T05:45:13.999Z</time></trkpt><trkpt lat="44.98936534491928" lon="9.9838180769805"><ele>42.0</ele><time>2026-04-18T05:45:14.999Z</time></trkpt><trkpt lat="44.98930972674385" lon="9.983750966241118"><ele>42.0</ele><time>2026-04-18T05:45:15.999Z</time></trkpt><trkpt lat="44.989252923701535" lon="9.983684963560485"><ele>42.0</ele><time>2026-04-18T05:45:16.999Z</time></trkpt><trkpt lat="44.989195555111245" lon="9.98362230141734"><ele>42.0</ele><time>2026-04-18T05:45:17.999Z</time></trkpt><trkpt lat="44.989136998501586" lon="9.983559515165188"><ele>42.0</ele><time>2026-04-18T05:45:18.999Z</time></trkpt><trkpt lat="44.98908010398675" lon="9.983497126584524"><ele>42.0</ele><time>2026-04-18T05:45:19.999Z</time></trkpt><trkpt lat="44.98902149446966" lon="9.983438067422837"><ele>42.0</ele><time>2026-04-18T05:45:20.999Z</time></trkpt><trkpt lat="44.988959795758745" lon="9.98338378927032"><ele>42.0</ele><time>2026-04-18T05:45:21.999Z</time></trkpt><trkpt lat="44.98889666984495" lon="9.983332141944233"><ele>42.142857142857146</ele><time>2026-04-18T05:45:22.999Z</time></trkpt><trkpt lat="44.98883190795261" lon="9.983280748160833"><ele>42.285714285714285</ele><time>2026-04-18T05:45:23.999Z</time></trkpt><trkpt lat="44.988766180291606" lon="9.983233927317537"><ele>42.42857142857143</ele><time>2026-04-18T05:45:24.999Z</time></trkpt><trkpt lat="44.988700227921456" lon="9.983190462702478"><ele>42.57142857142857</ele><time>2026-04-18T05:45:25.999Z</time></trkpt><trkpt lat="44.988631093016366" lon="9.983151598022179"><ele>42.714285714285715</ele><time>2026-04-18T05:45:26.999Z</time></trkpt><trkpt lat="44.988561053560694" lon="9.98311201035478"><ele>42.85714285714286</ele><time>2026-04-18T05:45:27.999Z</time></trkpt><trkpt lat="44.98849002154728" lon="9.983075858927938"><ele>43.0</ele><time>2026-04-18T05:45:28.999Z</time></trkpt><trkpt lat="44.98842133049882" lon="9.983041658079781"><ele>43.00000000000001</ele><time>2026-04-18T05:45:29.999Z</time></trkpt><trkpt lat="44.988350727767525" lon="9.983003364256717"><ele>43.0</ele><time>2026-04-18T05:45:30.999Z</time></trkpt><trkpt lat="44.988280859620446" lon="9.982969564175768"><ele>43.0</ele><time>2026-04-18T05:45:31.999Z</time></trkpt><trkpt lat="44.98821002565946" lon="9.982933045982131"><ele>43.0</ele><time>2026-04-18T05:45:32.999Z</time></trkpt><trkpt lat="44.98813966078812" lon="9.982895989433874"><ele>43.0</ele><time>2026-04-18T05:45:33.999Z</time></trkpt><trkpt lat="44.98806923440462" lon="9.982860397246688"><ele>43.00000000000001</ele><time>2026-04-18T05:45:34.999Z</time></trkpt><trkpt lat="44.987999179532686" lon="9.98282423972583"><ele>43.0</ele><time>2026-04-18T05:45:35.999Z</time></trkpt><trkpt lat="44.987927697139945" lon="9.982792459788788"><ele>42.833333333333336</ele><time>2026-04-18T05:45:36.999Z</time></trkpt><trkpt lat="44.98785819601475" lon="9.982756988017515"><ele>42.66666666666667</ele><time>2026-04-18T05:45:37.999Z</time></trkpt><trkpt lat="44.98778753919327" lon="9.982711832677415"><ele>42.5</ele><time>2026-04-18T05:45:38.999Z</time></trkpt><trkpt lat="44.987715394818224" lon="9.982675541510382"><ele>42.333333333333336</ele><time>2026-04-18T05:45:39.999Z</time></trkpt><trkpt lat="44.98764514645937" lon="9.982642213426159"><ele>42.166666666666664</ele><time>2026-04-18T05:45:40.999Z</time></trkpt><trkpt lat="44.98757254231056" lon="9.98260523348868"><ele>42.0</ele><time>2026-04-18T05:45:41.999Z</time></trkpt><trkpt lat="44.987501424744885" lon="9.982567780037567"><ele>42.333333333333336</ele><time>2026-04-18T05:45:42.998Z</time></trkpt><trkpt lat="44.987431795294114" lon="9.98253444369479"><ele>42.666666666666664</ele><time>2026-04-18T05:45:43.998Z</time></trkpt><trkpt lat="44.98735924740002" lon="9.982499868124375"><ele>43.0</ele><time>2026-04-18T05:45:44.998Z</time></trkpt><trkpt lat="44.98728965643577" lon="9.982461042128755"><ele>43.33333333333333</ele><time>2026-04-18T05:45:45.998Z</time></trkpt><trkpt lat="44.987219472353004" lon="9.982424303571163"><ele>43.666666666666664</ele><time>2026-04-18T05:45:46.998Z</time></trkpt><trkpt lat="44.987149224897514" lon="9.982385231208971"><ele>44.0</ele><time>2026-04-18T05:45:47.998Z</time></trkpt><trkpt lat="44.987078123795044" lon="9.982348558786438"><ele>44.0</ele><time>2026-04-18T05:45:48.998Z</time></trkpt><trkpt lat="44.98700683336578" lon="9.982311243199819"><ele>44.0</ele><time>2026-04-18T05:45:49.998Z</time></trkpt><trkpt lat="44.986936350719084" lon="9.98227550182865"><ele>44.0</ele><time>2026-04-18T05:45:50.998Z</time></trkpt><trkpt lat="44.98686634484396" lon="9.98223647736238"><ele>44.0</ele><time>2026-04-18T05:45:51.998Z</time></trkpt><trkpt lat="44.986796359945345" lon="9.98220013672147"><ele>44.0</ele><time>2026-04-18T05:45:52.998Z</time></trkpt><trkpt lat="44.986725885776224" lon="9.982163951299096"><ele>44.0</ele><time>2026-04-18T05:45:53.998Z</time></trkpt><trkpt lat="44.98665508462557" lon="9.98212743353686"><ele>44.0</ele><time>2026-04-18T05:45:54.998Z</time></trkpt><trkpt lat="44.98658503536005" lon="9.982090077712233"><ele>44.0</ele><time>2026-04-18T05:45:55.998Z</time></trkpt><trkpt lat="44.98651684342361" lon="9.982051581356844"><ele>44.0</ele><time>2026-04-18T05:45:56.998Z</time></trkpt><trkpt lat="44.986447506041856" lon="9.98201530395524"><ele>44.0</ele><time>2026-04-18T05:45:57.998Z</time></trkpt><trkpt lat="44.98637829262328" lon="9.98198001019685"><ele>44.0</ele><time>2026-04-18T05:45:58.998Z</time></trkpt><trkpt lat="44.986308375551474" lon="9.981942904269062"><ele>44.0</ele><time>2026-04-18T05:45:59.998Z</time></trkpt><trkpt lat="44.98623860130771" lon="9.98190616599584"><ele>44.0</ele><time>2026-04-18T05:46:00.998Z</time></trkpt><trkpt lat="44.98616790231696" lon="9.981872785895552"><ele>44.0</ele><time>2026-04-18T05:46:01.998Z</time></trkpt><trkpt lat="44.98609845446703" lon="9.98183917292852"><ele>44.0</ele><time>2026-04-18T05:46:02.998Z</time></trkpt><trkpt lat="44.98602918351903" lon="9.98180322109999"><ele>44.0</ele><time>2026-04-18T05:46:03.998Z</time></trkpt><trkpt lat="44.985960659771784" lon="9.981766025156919"><ele>44.0</ele><time>2026-04-18T05:46:04.998Z</time></trkpt><trkpt lat="44.98589155579358" lon="9.981730433679607"><ele>44.0</ele><time>2026-04-18T05:46:05.998Z</time></trkpt><trkpt lat="44.98582229874134" lon="9.981698060954649"><ele>44.0</ele><time>2026-04-18T05:46:06.998Z</time></trkpt><trkpt lat="44.985751773133494" lon="9.981666605881935"><ele>44.0</ele><time>2026-04-18T05:46:07.998Z</time></trkpt><trkpt lat="44.98568399168625" lon="9.981631047323148"><ele>44.142857142857146</ele><time>2026-04-18T05:46:08.998Z</time></trkpt><trkpt lat="44.98561709258475" lon="9.981597362245697"><ele>44.285714285714285</ele><time>2026-04-18T05:46:09.998Z</time></trkpt><trkpt lat="44.98554670726131" lon="9.981558722977187"><ele>44.42857142857143</ele><time>2026-04-18T05:46:10.998Z</time></trkpt><trkpt lat="44.98547787459448" lon="9.98152680811323"><ele>44.57142857142857</ele><time>2026-04-18T05:46:11.998Z</time></trkpt><trkpt lat="44.985407599777105" lon="9.981490861039479"><ele>44.714285714285715</ele><time>2026-04-18T05:46:12.998Z</time></trkpt><trkpt lat="44.98533649908875" lon="9.98145742054121"><ele>44.857142857142854</ele><time>2026-04-18T05:46:13.998Z</time></trkpt><trkpt lat="44.98526610764239" lon="9.98142137037252"><ele>45.0</ele><time>2026-04-18T05:46:14.998Z</time></trkpt><trkpt lat="44.98519676026268" lon="9.981385189145698"><ele>45.0</ele><time>2026-04-18T05:46:16Z</time></trkpt><trkpt lat="44.985127817825926" lon="9.981351675338999"><ele>45.0</ele><time>2026-04-18T05:46:17Z</time></trkpt><trkpt lat="44.985058784747615" lon="9.981317692914594"><ele>45.0</ele><time>2026-04-18T05:46:18Z</time></trkpt><trkpt lat="44.984989348365765" lon="9.981284315515493"><ele>45.0</ele><time>2026-04-18T05:46:19Z</time></trkpt><trkpt lat="44.9849189962444" lon="9.981251775484962"><ele>45.0</ele><time>2026-04-18T05:46:20Z</time></trkpt><trkpt lat="44.98485114043061" lon="9.981215819823646"><ele>45.0</ele><time>2026-04-18T05:46:21Z</time></trkpt><trkpt lat="44.9847831023435" lon="9.98118040694256"><ele>45.0</ele><time>2026-04-18T05:46:22Z</time></trkpt><trkpt lat="44.984714156648465" lon="9.981147267855665"><ele>45.285714285714285</ele><time>2026-04-18T05:46:23Z</time></trkpt><trkpt lat="44.9846440754258" lon="9.981115314965422"><ele>45.57142857142858</ele><time>2026-04-18T05:46:24Z</time></trkpt><trkpt lat="44.9845748780375" lon="9.981088399370794"><ele>45.85714285714286</ele><time>2026-04-18T05:46:25Z</time></trkpt><trkpt lat="44.98451259993473" lon="9.981033859552385"><ele>46.14285714285714</ele><time>2026-04-18T05:46:26Z</time></trkpt><trkpt lat="44.984445231522656" lon="9.98099978732362"><ele>46.42857142857143</ele><time>2026-04-18T05:46:27Z</time></trkpt><trkpt lat="44.984374183990205" lon="9.980987985661935"><ele>46.714285714285715</ele><time>2026-04-18T05:46:28Z</time></trkpt><trkpt lat="44.98431250174732" lon="9.980953711060783"><ele>47.0</ele><time>2026-04-18T05:46:29Z</time></trkpt><trkpt lat="44.984253319985044" lon="9.98091909149263"><ele>47.0</ele><time>2026-04-18T05:46:30Z</time></trkpt><trkpt lat="44.984159932617146" lon="9.98086225087334"><ele>47.0</ele><time>2026-04-18T05:46:32Z</time></trkpt><trkpt lat="44.98407938981767" lon="9.980795846774903"><ele>47.0</ele><time>2026-04-18T05:46:34Z</time></trkpt><trkpt lat="44.98401227026644" lon="9.980723363172748"><ele>47.0</ele><time>2026-04-18T05:46:36Z</time></trkpt><trkpt lat="44.9838747721562" lon="9.980879412107491"><ele>47.0</ele><time>2026-04-18T05:46:38Z</time></trkpt><trkpt lat="44.983848759623214" lon="9.981043296049926"><ele>47.0</ele><time>2026-04-18T05:46:40Z</time></trkpt><trkpt lat="44.983822498943745" lon="9.981198882237127"><ele>47.0</ele><time>2026-04-18T05:46:42Z</time></trkpt><trkpt lat="44.983796855440204" lon="9.981344434388351"><ele>47.0</ele><time>2026-04-18T05:46:44Z</time></trkpt><trkpt lat="44.98377258510874" lon="9.981482192399394"><ele>47.0</ele><time>2026-04-18T05:46:46Z</time></trkpt><trkpt lat="44.98374745533022" lon="9.981627489140953"><ele>47.33333333333333</ele><time>2026-04-18T05:46:47.999Z</time></trkpt><trkpt lat="44.983721835332304" lon="9.981778508313946"><ele>47.666666666666664</ele><time>2026-04-18T05:46:49.999Z</time></trkpt><trkpt lat="44.98369272289063" lon="9.981950113972703"><ele>48.0</ele><time>2026-04-18T05:46:51.999Z</time></trkpt><trkpt lat="44.983691656986245" lon="9.982045102863621"><ele>48.33333333333333</ele><time>2026-04-18T05:46:52.999Z</time></trkpt><trkpt lat="44.983672850966165" lon="9.982138325714951"><ele>48.666666666666664</ele><time>2026-04-18T05:46:53.999Z</time></trkpt><trkpt lat="44.98366023936863" lon="9.982229714273599"><ele>49.0</ele><time>2026-04-18T05:46:54.999Z</time></trkpt><trkpt lat="44.983643948769256" lon="9.982329176536592"><ele>49.0</ele><time>2026-04-18T05:46:55.999Z</time></trkpt><trkpt lat="44.98362731349306" lon="9.982419481662701"><ele>49.0</ele><time>2026-04-18T05:46:56.999Z</time></trkpt><trkpt lat="44.983613539511595" lon="9.98250860668867"><ele>49.0</ele><time>2026-04-18T05:46:57.999Z</time></trkpt><trkpt lat="44.98359876455471" lon="9.982601655235706"><ele>49.0</ele><time>2026-04-18T05:46:58.999Z</time></trkpt><trkpt lat="44.983577848592084" lon="9.98270648231297"><ele>49.0</ele><time>2026-04-18T05:46:59.999Z</time></trkpt><trkpt lat="44.98356408656561" lon="9.98280780056723"><ele>49.0</ele><time>2026-04-18T05:47:00.999Z</time></trkpt><trkpt lat="44.983545326170855" lon="9.98291536522409"><ele>49.0</ele><time>2026-04-18T05:47:01.999Z</time></trkpt><trkpt lat="44.98353215573947" lon="9.983014150753519"><ele>48.666666666666664</ele><time>2026-04-18T05:47:02.999Z</time></trkpt><trkpt lat="44.9835113727673" lon="9.983120544905239"><ele>48.33333333333333</ele><time>2026-04-18T05:47:03.999Z</time></trkpt><trkpt lat="44.983495108468325" lon="9.983221820158674"><ele>48.0</ele><time>2026-04-18T05:47:04.999Z</time></trkpt><trkpt lat="44.9834782217703" lon="9.983325909045016"><ele>47.666666666666664</ele><time>2026-04-18T05:47:05.999Z</time></trkpt><trkpt lat="44.983461115131306" lon="9.983429884692955"><ele>47.33333333333333</ele><time>2026-04-18T05:47:06.999Z</time></trkpt><trkpt lat="44.98344320038245" lon="9.983532928079681"><ele>47.0</ele><time>2026-04-18T05:47:07.999Z</time></trkpt><trkpt lat="44.98342458117376" lon="9.983638798657143"><ele>46.83333333333333</ele><time>2026-04-18T05:47:08.999Z</time></trkpt><trkpt lat="44.983405650392" lon="9.98374491937122"><ele>46.666666666666664</ele><time>2026-04-18T05:47:09.999Z</time></trkpt><trkpt lat="44.98338706307801" lon="9.983855548358791"><ele>46.5</ele><time>2026-04-18T05:47:10.999Z</time></trkpt><trkpt lat="44.98336981199447" lon="9.983964720468524"><ele>46.333333333333336</ele><time>2026-04-18T05:47:11.999Z</time></trkpt><trkpt lat="44.983349870465865" lon="9.98407326257315"><ele>46.16666666666667</ele><time>2026-04-18T05:47:12.999Z</time></trkpt><trkpt lat="44.98333027928323" lon="9.98418379159081"><ele>46.0</ele><time>2026-04-18T05:47:13.999Z</time></trkpt><trkpt lat="44.983312005853485" lon="9.984290399434427"><ele>45.66666666666667</ele><time>2026-04-18T05:47:14.999Z</time></trkpt><trkpt lat="44.98329442611959" lon="9.984397223520808"><ele>45.333333333333336</ele><time>2026-04-18T05:47:15.999Z</time></trkpt><trkpt lat="44.983275802175314" lon="9.984503733453797"><ele>45.0</ele><time>2026-04-18T05:47:16.999Z</time></trkpt><trkpt lat="44.98325779345141" lon="9.984612458579747"><ele>44.666666666666664</ele><time>2026-04-18T05:47:17.999Z</time></trkpt><trkpt lat="44.98323998099167" lon="9.984721109031511"><ele>44.33333333333333</ele><time>2026-04-18T05:47:18.999Z</time></trkpt><trkpt lat="44.98322025874343" lon="9.984830530499664"><ele>44.0</ele><time>2026-04-18T05:47:19.999Z</time></trkpt><trkpt lat="44.983201416480746" lon="9.984941849697783"><ele>44.0</ele><time>2026-04-18T05:47:20.999Z</time></trkpt><trkpt lat="44.983181792306006" lon="9.985051722999039"><ele>44.0</ele><time>2026-04-18T05:47:21.999Z</time></trkpt><trkpt lat="44.98316397336498" lon="9.985160835843457"><ele>44.0</ele><time>2026-04-18T05:47:22.999Z</time></trkpt><trkpt lat="44.983145932923705" lon="9.98527040038647"><ele>44.0</ele><time>2026-04-18T05:47:23.999Z</time></trkpt><trkpt lat="44.983125237623064" lon="9.98538047952183"><ele>44.0</ele><time>2026-04-18T05:47:24.999Z</time></trkpt><trkpt lat="44.9831081218578" lon="9.985489243827107"><ele>44.0</ele><time>2026-04-18T05:47:25.999Z</time></trkpt><trkpt lat="44.98309072265371" lon="9.985599478059159"><ele>44.0</ele><time>2026-04-18T05:47:26.999Z</time></trkpt><trkpt lat="44.98307222189504" lon="9.985708159750683"><ele>44.0</ele><time>2026-04-18T05:47:27.999Z</time></trkpt><trkpt lat="44.983053613282856" lon="9.98581754683762"><ele>44.0</ele><time>2026-04-18T05:47:28.999Z</time></trkpt><trkpt lat="44.983036975340816" lon="9.985927082040863"><ele>44.0</ele><time>2026-04-18T05:47:29.999Z</time></trkpt><trkpt lat="44.98301895588629" lon="9.98603840298019"><ele>44.0</ele><time>2026-04-18T05:47:30.999Z</time></trkpt><trkpt lat="44.98300090305445" lon="9.986147262210716"><ele>44.0</ele><time>2026-04-18T05:47:31.999Z</time></trkpt><trkpt lat="44.98298391588442" lon="9.986256611867582"><ele>44.0</ele><time>2026-04-18T05:47:32.999Z</time></trkpt><trkpt lat="44.98296628592545" lon="9.986364851645261"><ele>44.0</ele><time>2026-04-18T05:47:33.999Z</time></trkpt><trkpt lat="44.9829467752432" lon="9.986474331522443"><ele>44.0</ele><time>2026-04-18T05:47:34.999Z</time></trkpt><trkpt lat="44.98292693146663" lon="9.986583178849202"><ele>44.0</ele><time>2026-04-18T05:47:35.999Z</time></trkpt><trkpt lat="44.98290940701708" lon="9.986692625803752"><ele>44.0</ele><time>2026-04-18T05:47:36.999Z</time></trkpt><trkpt lat="44.98289057525715" lon="9.986803124021431"><ele>44.0</ele><time>2026-04-18T05:47:37.999Z</time></trkpt><trkpt lat="44.98287188567679" lon="9.98691338260571"><ele>44.33333333333333</ele><time>2026-04-18T05:47:38.999Z</time></trkpt><trkpt lat="44.98285325341567" lon="9.987023694166057"><ele>44.666666666666664</ele><time>2026-04-18T05:47:39.999Z</time></trkpt><trkpt lat="44.98283684574865" lon="9.987134322808155"><ele>45.0</ele><time>2026-04-18T05:47:40.999Z</time></trkpt><trkpt lat="44.98281965728998" lon="9.98724262034693"><ele>45.333333333333336</ele><time>2026-04-18T05:47:41.999Z</time></trkpt><trkpt lat="44.98280250626537" lon="9.987348318842642"><ele>45.66666666666667</ele><time>2026-04-18T05:47:42.999Z</time></trkpt><trkpt lat="44.98277031314978" lon="9.987445209038775"><ele>46.0</ele><time>2026-04-18T05:47:43.999Z</time></trkpt><trkpt lat="44.98275099812" lon="9.987543900038135"><ele>46.0</ele><time>2026-04-18T05:47:44.998Z</time></trkpt><trkpt lat="44.98273941400522" lon="9.987641438278507"><ele>46.0</ele><time>2026-04-18T05:47:45.998Z</time></trkpt><trkpt lat="44.98269661332083" lon="9.9877190523931"><ele>46.0</ele><time>2026-04-18T05:47:46.998Z</time></trkpt><trkpt lat="44.98262142907861" lon="9.987750404112855"><ele>46.0</ele><time>2026-04-18T05:47:47.998Z</time></trkpt><trkpt lat="44.98255333190849" lon="9.987779304081633"><ele>46.0</ele><time>2026-04-18T05:47:48.998Z</time></trkpt><trkpt lat="44.98248185377869" lon="9.987704058408413"><ele>46.0</ele><time>2026-04-18T05:47:49.998Z</time></trkpt><trkpt lat="44.98240880897903" lon="9.987661961255057"><ele>46.0</ele><time>2026-04-18T05:47:50.998Z</time></trkpt><trkpt lat="44.98233482385397" lon="9.987620215401884"><ele>46.0</ele><time>2026-04-18T05:47:51.998Z</time></trkpt><trkpt lat="44.982261173179936" lon="9.987578658146557"><ele>46.0</ele><time>2026-04-18T05:47:52.998Z</time></trkpt><trkpt lat="44.98218595975549" lon="9.987536219240107"><ele>46.0</ele><time>2026-04-18T05:47:53.998Z</time></trkpt><trkpt lat="44.98211146856524" lon="9.987494187770366"><ele>46.0</ele><time>2026-04-18T05:47:54.998Z</time></trkpt><trkpt lat="44.98203809016574" lon="9.98745278417622"><ele>46.0</ele><time>2026-04-18T05:47:55.998Z</time></trkpt><trkpt lat="44.98196407176974" lon="9.987415587443417"><ele>46.0</ele><time>2026-04-18T05:47:56.998Z</time></trkpt><trkpt lat="44.98188645581658" lon="9.987391925172679"><ele>46.0</ele><time>2026-04-18T05:47:57.998Z</time></trkpt><trkpt lat="44.981801710043676" lon="9.987414764005434"><ele>46.0</ele><time>2026-04-18T05:47:58.998Z</time></trkpt><trkpt lat="44.981726479313764" lon="9.987487666727564"><ele>46.0</ele><time>2026-04-18T05:47:59.998Z</time></trkpt><trkpt lat="44.98170483595631" lon="9.987638869677594"><ele>46.0</ele><time>2026-04-18T05:48:00.998Z</time></trkpt><trkpt lat="44.98168077902442" lon="9.987751477914365"><ele>46.0</ele><time>2026-04-18T05:48:01.998Z</time></trkpt><trkpt lat="44.981635676761094" lon="9.987849833091119"><ele>45.66666666666667</ele><time>2026-04-18T05:48:02.998Z</time></trkpt><trkpt lat="44.98160408446603" lon="9.987956510330893"><ele>45.333333333333336</ele><time>2026-04-18T05:48:03.998Z</time></trkpt><trkpt lat="44.98157058461314" lon="9.988068660140375"><ele>45.0</ele><time>2026-04-18T05:48:04.998Z</time></trkpt><trkpt lat="44.98153703626832" lon="9.988180535594466"><ele>44.666666666666664</ele><time>2026-04-18T05:48:05.998Z</time></trkpt><trkpt lat="44.981503860136804" lon="9.988290980817714"><ele>44.33333333333333</ele><time>2026-04-18T05:48:06.998Z</time></trkpt><trkpt lat="44.98147031061756" lon="9.98840266907801"><ele>44.0</ele><time>2026-04-18T05:48:07.998Z</time></trkpt><trkpt lat="44.98143721629702" lon="9.98851284196299"><ele>43.666666666666664</ele><time>2026-04-18T05:48:08.998Z</time></trkpt><trkpt lat="44.98140410700665" lon="9.988623064714572"><ele>43.33333333333333</ele><time>2026-04-18T05:48:09.998Z</time></trkpt><trkpt lat="44.98137149284809" lon="9.988732249691896"><ele>43.0</ele><time>2026-04-18T05:48:10.998Z</time></trkpt><trkpt lat="44.98133937159716" lon="9.988841235796281"><ele>42.666666666666664</ele><time>2026-04-18T05:48:11.998Z</time></trkpt><trkpt lat="44.981307003862746" lon="9.988951058232013"><ele>42.333333333333336</ele><time>2026-04-18T05:48:12.998Z</time></trkpt><trkpt lat="44.981274543615264" lon="9.989061194539714"><ele>42.0</ele><time>2026-04-18T05:48:13.998Z</time></trkpt><trkpt lat="44.98124176537472" lon="9.989172409798568"><ele>42.166666666666664</ele><time>2026-04-18T05:48:14.998Z</time></trkpt><trkpt lat="44.98120967804902" lon="9.989281280742684"><ele>42.333333333333336</ele><time>2026-04-18T05:48:15.998Z</time></trkpt><trkpt lat="44.9811775385422" lon="9.989390328805616"><ele>42.5</ele><time>2026-04-18T05:48:16.998Z</time></trkpt><trkpt lat="44.98114595466803" lon="9.989497491593335"><ele>42.66666666666667</ele><time>2026-04-18T05:48:17.998Z</time></trkpt><trkpt lat="44.98111568612264" lon="9.989600191489005"><ele>42.833333333333336</ele><time>2026-04-18T05:48:18.998Z</time></trkpt><trkpt lat="44.98109851742777" lon="9.98971343284287"><ele>43.0</ele><time>2026-04-18T05:48:19.998Z</time></trkpt><trkpt lat="44.98106568080768" lon="9.989817653341621"><ele>43.0</ele><time>2026-04-18T05:48:20.998Z</time></trkpt><trkpt lat="44.9810361763082" lon="9.98992621013554"><ele>43.0</ele><time>2026-04-18T05:48:22Z</time></trkpt><trkpt lat="44.98100509915231" lon="9.990034802438966"><ele>43.0</ele><time>2026-04-18T05:48:23Z</time></trkpt><trkpt lat="44.9809581393937" lon="9.990134741269015"><ele>43.0</ele><time>2026-04-18T05:48:24Z</time></trkpt><trkpt lat="44.98092627212549" lon="9.990242865597482"><ele>43.0</ele><time>2026-04-18T05:48:25Z</time></trkpt><trkpt lat="44.98089498775908" lon="9.990349012904515"><ele>43.0</ele><time>2026-04-18T05:48:26Z</time></trkpt><trkpt lat="44.98086343280235" lon="9.990455287472198"><ele>43.0</ele><time>2026-04-18T05:48:27Z</time></trkpt><trkpt lat="44.98083150521745" lon="9.990562746607942"><ele>43.0</ele><time>2026-04-18T05:48:28Z</time></trkpt><trkpt lat="44.98079938637092" lon="9.990670849570039"><ele>43.0</ele><time>2026-04-18T05:48:29Z</time></trkpt><trkpt lat="44.98076771662333" lon="9.990777440988534"><ele>43.0</ele><time>2026-04-18T05:48:30Z</time></trkpt><trkpt lat="44.980735664481955" lon="9.990885319379943"><ele>43.0</ele><time>2026-04-18T05:48:31Z</time></trkpt><trkpt lat="44.98070362387428" lon="9.990993158988738"><ele>43.0</ele><time>2026-04-18T05:48:32Z</time></trkpt><trkpt lat="44.98067181321809" lon="9.991100224647308"><ele>43.0</ele><time>2026-04-18T05:48:33Z</time></trkpt><trkpt lat="44.98063988413672" lon="9.991207688867828"><ele>43.0</ele><time>2026-04-18T05:48:34Z</time></trkpt><trkpt lat="44.98060858782791" lon="9.99131382984072"><ele>43.0</ele><time>2026-04-18T05:48:35Z</time></trkpt><trkpt lat="44.98057813948665" lon="9.99141773458491"><ele>43.0</ele><time>2026-04-18T05:48:36Z</time></trkpt><trkpt lat="44.980547441102686" lon="9.991522492640238"><ele>43.0</ele><time>2026-04-18T05:48:37Z</time></trkpt><trkpt lat="44.98051690593778" lon="9.991626693537995"><ele>43.0</ele><time>2026-04-18T05:48:38Z</time></trkpt><trkpt lat="44.98048681565487" lon="9.991729376401617"><ele>43.333333333333336</ele><time>2026-04-18T05:48:39Z</time></trkpt><trkpt lat="44.98047062540209" lon="9.991841443754355"><ele>43.66666666666667</ele><time>2026-04-18T05:48:40Z</time></trkpt><trkpt lat="44.980438279784835" lon="9.991943738652175"><ele>44.0</ele><time>2026-04-18T05:48:41Z</time></trkpt><trkpt lat="44.980409935818756" lon="9.992046066581423"><ele>44.333333333333336</ele><time>2026-04-18T05:48:42Z</time></trkpt><trkpt lat="44.98038031716835" lon="9.992145185472987"><ele>44.666666666666664</ele><time>2026-04-18T05:48:43Z</time></trkpt><trkpt lat="44.980350606713" lon="9.992251180745859"><ele>45.0</ele><time>2026-04-18T05:48:44Z</time></trkpt><trkpt lat="44.98032228483502" lon="9.992354360353607"><ele>45.0</ele><time>2026-04-18T05:48:45Z</time></trkpt><trkpt lat="44.98029040383861" lon="9.992457674886541"><ele>45.0</ele><time>2026-04-18T05:48:46Z</time></trkpt><trkpt lat="44.98026039998327" lon="9.992560088064902"><ele>45.0</ele><time>2026-04-18T05:48:47Z</time></trkpt><trkpt lat="44.98022963715523" lon="9.992665249352472"><ele>45.0</ele><time>2026-04-18T05:48:48Z</time></trkpt><trkpt lat="44.980199719397795" lon="9.992770830308578"><ele>45.0</ele><time>2026-04-18T05:48:49Z</time></trkpt><trkpt lat="44.98016900387612" lon="9.99287493171782"><ele>45.0</ele><time>2026-04-18T05:48:50Z</time></trkpt><trkpt lat="44.98013768364381" lon="9.99297972401095"><ele>44.666666666666664</ele><time>2026-04-18T05:48:51Z</time></trkpt><trkpt lat="44.98010658470111" lon="9.993084491292365"><ele>44.333333333333336</ele><time>2026-04-18T05:48:52Z</time></trkpt><trkpt lat="44.980075293452614" lon="9.993189979932044"><ele>44.0</ele><time>2026-04-18T05:48:53Z</time></trkpt><trkpt lat="44.98004399519625" lon="9.9932959501629"><ele>43.66666666666667</ele><time>2026-04-18T05:48:53.999Z</time></trkpt><trkpt lat="44.98001539060323" lon="9.99340204728322"><ele>43.333333333333336</ele><time>2026-04-18T05:48:54.999Z</time></trkpt><trkpt lat="44.97998736304304" lon="9.993507587074836"><ele>43.0</ele><time>2026-04-18T05:48:55.999Z</time></trkpt><trkpt lat="44.97994366318518" lon="9.993605090542312"><ele>43.00000000000001</ele><time>2026-04-18T05:48:56.999Z</time></trkpt><trkpt lat="44.97993985979249" lon="9.993715973803813"><ele>43.0</ele><time>2026-04-18T05:48:57.999Z</time></trkpt><trkpt lat="44.979918329588685" lon="9.993816252417961"><ele>43.0</ele><time>2026-04-18T05:48:58.999Z</time></trkpt><trkpt lat="44.979886115531045" lon="9.993904248465538"><ele>43.0</ele><time>2026-04-18T05:48:59.999Z</time></trkpt><trkpt lat="44.97983142058989" lon="9.993970254184866"><ele>43.0</ele><time>2026-04-18T05:49:00.999Z</time></trkpt><trkpt lat="44.97976940250768" lon="9.994004831578637"><ele>43.00000000000001</ele><time>2026-04-18T05:49:01.999Z</time></trkpt><trkpt lat="44.97969190447465" lon="9.993968297102185"><ele>43.0</ele><time>2026-04-18T05:49:02.999Z</time></trkpt><trkpt lat="44.979625139611755" lon="9.993916890796275"><ele>43.0</ele><time>2026-04-18T05:49:03.999Z</time></trkpt><trkpt lat="44.97956356248283" lon="9.993860160425994"><ele>43.0</ele><time>2026-04-18T05:49:04.999Z</time></trkpt><trkpt lat="44.97949885920446" lon="9.99381042401116"><ele>43.0</ele><time>2026-04-18T05:49:05.999Z</time></trkpt><trkpt lat="44.979429292959864" lon="9.99377001439875"><ele>43.0</ele><time>2026-04-18T05:49:06.999Z</time></trkpt><trkpt lat="44.97936075533361" lon="9.993727958540916"><ele>43.0</ele><time>2026-04-18T05:49:07.999Z</time></trkpt><trkpt lat="44.97928857929197" lon="9.993684680626851"><ele>43.0</ele><time>2026-04-18T05:49:08.999Z</time></trkpt><trkpt lat="44.97921785793962" lon="9.993643009832574"><ele>43.0</ele><time>2026-04-18T05:49:09.999Z</time></trkpt><trkpt lat="44.97914602540204" lon="9.993603196882743"><ele>43.0</ele><time>2026-04-18T05:49:10.999Z</time></trkpt><trkpt lat="44.979074280421926" lon="9.99356253656826"><ele>43.0</ele><time>2026-04-18T05:49:11.999Z</time></trkpt><trkpt lat="44.97900301894899" lon="9.993520946629523"><ele>43.0</ele><time>2026-04-18T05:49:12.999Z</time></trkpt><trkpt lat="44.97893212980193" lon="9.993481313517554"><ele>43.0</ele><time>2026-04-18T05:49:13.999Z</time></trkpt><trkpt lat="44.9788602304249" lon="9.993437963821918"><ele>43.0</ele><time>2026-04-18T05:49:14.999Z</time></trkpt><trkpt lat="44.978795726794495" lon="9.993374051410324"><ele>43.0</ele><time>2026-04-18T05:49:15.999Z</time></trkpt><trkpt lat="44.97872271944472" lon="9.993330387322462"><ele>43.0</ele><time>2026-04-18T05:49:16.999Z</time></trkpt><trkpt lat="44.97864865243765" lon="9.993286089543425"><ele>43.0</ele><time>2026-04-18T05:49:17.999Z</time></trkpt><trkpt lat="44.97856959389574" lon="9.993264040107496"><ele>43.0</ele><time>2026-04-18T05:49:18.999Z</time></trkpt><trkpt lat="44.9785053472179" lon="9.993200381683172"><ele>43.0</ele><time>2026-04-18T05:49:19.999Z</time></trkpt><trkpt lat="44.97842912229235" lon="9.99317916612281"><ele>43.0</ele><time>2026-04-18T05:49:20.999Z</time></trkpt><trkpt lat="44.978360798493554" lon="9.993136905137279"><ele>42.85714285714286</ele><time>2026-04-18T05:49:21.999Z</time></trkpt><trkpt lat="44.97829463299701" lon="9.993093038345721"><ele>42.714285714285715</ele><time>2026-04-18T05:49:22.999Z</time></trkpt><trkpt lat="44.97822975894987" lon="9.993053322762174"><ele>42.57142857142857</ele><time>2026-04-18T05:49:23.999Z</time></trkpt><trkpt lat="44.97816467343411" lon="9.99301502675517"><ele>42.42857142857143</ele><time>2026-04-18T05:49:24.999Z</time></trkpt><trkpt lat="44.978099186521675" lon="9.992977963404476"><ele>42.285714285714285</ele><time>2026-04-18T05:49:25.999Z</time></trkpt><trkpt lat="44.978027582434834" lon="9.992944554771677"><ele>42.142857142857146</ele><time>2026-04-18T05:49:26.999Z</time></trkpt><trkpt lat="44.97795897612168" lon="9.99288919419859"><ele>42.0</ele><time>2026-04-18T05:49:27.999Z</time></trkpt><trkpt lat="44.97788386371757" lon="9.992862417649217"><ele>42.0</ele><time>2026-04-18T05:49:28.999Z</time></trkpt><trkpt lat="44.97780820432203" lon="9.99284467140066"><ele>42.0</ele><time>2026-04-18T05:49:29.999Z</time></trkpt><trkpt lat="44.97772677404106" lon="9.992851502898569"><ele>42.0</ele><time>2026-04-18T05:49:30.999Z</time></trkpt><trkpt lat="44.97764991723203" lon="9.99282541645707"><ele>42.0</ele><time>2026-04-18T05:49:31.999Z</time></trkpt><trkpt lat="44.97757849097628" lon="9.992775500415087"><ele>42.0</ele><time>2026-04-18T05:49:32.999Z</time></trkpt><trkpt lat="44.977500710036125" lon="9.992738734226094"><ele>42.0</ele><time>2026-04-18T05:49:33.999Z</time></trkpt><trkpt lat="44.97742366941379" lon="9.992702318872078"><ele>42.166666666666664</ele><time>2026-04-18T05:49:34.999Z</time></trkpt><trkpt lat="44.97734831656512" lon="9.992666701210581"><ele>42.333333333333336</ele><time>2026-04-18T05:49:35.999Z</time></trkpt><trkpt lat="44.97726870753426" lon="9.992648706173112"><ele>42.5</ele><time>2026-04-18T05:49:36.999Z</time></trkpt><trkpt lat="44.97719781339101" lon="9.992612142638881"><ele>42.66666666666667</ele><time>2026-04-18T05:49:37.999Z</time></trkpt><trkpt lat="44.97712778685506" lon="9.992575264588508"><ele>42.833333333333336</ele><time>2026-04-18T05:49:38.999Z</time></trkpt><trkpt lat="44.977052125917375" lon="9.992542488904538"><ele>43.0</ele><time>2026-04-18T05:49:39.999Z</time></trkpt><trkpt lat="44.97697720970641" lon="9.992510369714921"><ele>43.16666666666667</ele><time>2026-04-18T05:49:40.999Z</time></trkpt><trkpt lat="44.976903371463976" lon="9.992474701634446"><ele>43.333333333333336</ele><time>2026-04-18T05:49:41.999Z</time></trkpt><trkpt lat="44.9768272304851" lon="9.99244042354437"><ele>43.5</ele><time>2026-04-18T05:49:42.999Z</time></trkpt><trkpt lat="44.97675407320652" lon="9.992405185583067"><ele>43.666666666666664</ele><time>2026-04-18T05:49:43.999Z</time></trkpt><trkpt lat="44.97667902401295" lon="9.992366569922272"><ele>43.83333333333333</ele><time>2026-04-18T05:49:44.999Z</time></trkpt><trkpt lat="44.97660973908123" lon="9.99231058746956"><ele>44.0</ele><time>2026-04-18T05:49:45.999Z</time></trkpt><trkpt lat="44.976534786680304" lon="9.992271687362294"><ele>44.0</ele><time>2026-04-18T05:49:46.999Z</time></trkpt><trkpt lat="44.97646358478685" lon="9.99223309246585"><ele>44.0</ele><time>2026-04-18T05:49:47.999Z</time></trkpt><trkpt lat="44.97639406673692" lon="9.992193826312086"><ele>44.0</ele><time>2026-04-18T05:49:48.999Z</time></trkpt><trkpt lat="44.97632500366799" lon="9.992152855697059"><ele>44.0</ele><time>2026-04-18T05:49:49.999Z</time></trkpt><trkpt lat="44.97625723570194" lon="9.992111882242519"><ele>44.0</ele><time>2026-04-18T05:49:50.998Z</time></trkpt><trkpt lat="44.976189189640635" lon="9.992070740633066"><ele>44.0</ele><time>2026-04-18T05:49:51.998Z</time></trkpt><trkpt lat="44.97611428861647" lon="9.992045892630724"><ele>44.0</ele><time>2026-04-18T05:49:52.998Z</time></trkpt><trkpt lat="44.97604480009626" lon="9.992000509629143"><ele>44.0</ele><time>2026-04-18T05:49:53.998Z</time></trkpt><trkpt lat="44.975972299546044" lon="9.991960742171333"><ele>44.0</ele><time>2026-04-18T05:49:54.998Z</time></trkpt><trkpt lat="44.9759006900383" lon="9.991915291452361"><ele>44.0</ele><time>2026-04-18T05:49:55.998Z</time></trkpt><trkpt lat="44.97583123229002" lon="9.991864697614776"><ele>44.0</ele><time>2026-04-18T05:49:56.998Z</time></trkpt><trkpt lat="44.97576169804519" lon="9.991820896106868"><ele>44.0</ele><time>2026-04-18T05:49:57.998Z</time></trkpt><trkpt lat="44.97569263435778" lon="9.991768144390512"><ele>43.666666666666664</ele><time>2026-04-18T05:49:58.998Z</time></trkpt><trkpt lat="44.975621562844275" lon="9.991725513422626"><ele>43.33333333333333</ele><time>2026-04-18T05:49:59.998Z</time></trkpt><trkpt lat="44.97554889081914" lon="9.99167880023257"><ele>43.0</ele><time>2026-04-18T05:50:00.998Z</time></trkpt><trkpt lat="44.97548047537163" lon="9.991631786254217"><ele>42.666666666666664</ele><time>2026-04-18T05:50:01.998Z</time></trkpt><trkpt lat="44.97541316076854" lon="9.99158186358664"><ele>42.333333333333336</ele><time>2026-04-18T05:50:02.998Z</time></trkpt><trkpt lat="44.975349889784425" lon="9.991526770509797"><ele>42.0</ele><time>2026-04-18T05:50:03.998Z</time></trkpt><trkpt lat="44.97528702942794" lon="9.991475860342645"><ele>42.0</ele><time>2026-04-18T05:50:04.998Z</time></trkpt><trkpt lat="44.97522107953815" lon="9.991436067855416"><ele>42.0</ele><time>2026-04-18T05:50:05.998Z</time></trkpt><trkpt lat="44.97515056353787" lon="9.991392806478517"><ele>42.0</ele><time>2026-04-18T05:50:06.998Z</time></trkpt><trkpt lat="44.97507939056566" lon="9.99134684089742"><ele>42.0</ele><time>2026-04-18T05:50:07.998Z</time></trkpt><trkpt lat="44.97500673583673" lon="9.991299086459758"><ele>42.0</ele><time>2026-04-18T05:50:08.998Z</time></trkpt><trkpt lat="44.97493539117847" lon="9.991256979531089"><ele>42.0</ele><time>2026-04-18T05:50:09.998Z</time></trkpt><trkpt lat="44.974864448709845" lon="9.99120793476313"><ele>42.0</ele><time>2026-04-18T05:50:10.998Z</time></trkpt><trkpt lat="44.974793319826276" lon="9.991155987575008"><ele>42.0</ele><time>2026-04-18T05:50:11.998Z</time></trkpt><trkpt lat="44.974720137853794" lon="9.991112532189966"><ele>42.0</ele><time>2026-04-18T05:50:12.998Z</time></trkpt><trkpt lat="44.9746450792777" lon="9.99106966893813"><ele>42.0</ele><time>2026-04-18T05:50:13.998Z</time></trkpt><trkpt lat="44.97456845479394" lon="9.991038717316416"><ele>42.0</ele><time>2026-04-18T05:50:14.998Z</time></trkpt><trkpt lat="44.974499272403534" lon="9.990982661416313"><ele>42.0</ele><time>2026-04-18T05:50:15.998Z</time></trkpt><trkpt lat="44.974416463776095" lon="9.99096048836023"><ele>42.0</ele><time>2026-04-18T05:50:16.998Z</time></trkpt><trkpt lat="44.974343332058375" lon="9.990915458266294"><ele>42.0</ele><time>2026-04-18T05:50:17.998Z</time></trkpt><trkpt lat="44.97426816637623" lon="9.99087320117576"><ele>42.0</ele><time>2026-04-18T05:50:18.998Z</time></trkpt><trkpt lat="44.97419273396652" lon="9.990832900830299"><ele>42.0</ele><time>2026-04-18T05:50:19.998Z</time></trkpt><trkpt lat="44.97411616805345" lon="9.990787416180094"><ele>42.0</ele><time>2026-04-18T05:50:20.998Z</time></trkpt><trkpt lat="44.974038913745815" lon="9.990742850394547"><ele>42.0</ele><time>2026-04-18T05:50:21.998Z</time></trkpt><trkpt lat="44.97396348768977" lon="9.990702474516116"><ele>41.833333333333336</ele><time>2026-04-18T05:50:22.998Z</time></trkpt><trkpt lat="44.973886645393954" lon="9.990663476513278"><ele>41.666666666666664</ele><time>2026-04-18T05:50:23.998Z</time></trkpt><trkpt lat="44.97380699918137" lon="9.990626617999325"><ele>41.5</ele><time>2026-04-18T05:50:24.998Z</time></trkpt><trkpt lat="44.973728985257125" lon="9.990590292662748"><ele>41.33333333333333</ele><time>2026-04-18T05:50:25.998Z</time></trkpt><trkpt lat="44.97365037541775" lon="9.990551612640244"><ele>41.166666666666664</ele><time>2026-04-18T05:50:26.998Z</time></trkpt><trkpt lat="44.973571938083836" lon="9.990513007686395"><ele>41.0</ele><time>2026-04-18T05:50:28Z</time></trkpt><trkpt lat="44.973495719761345" lon="9.990476390880401"><ele>41.0</ele><time>2026-04-18T05:50:29Z</time></trkpt><trkpt lat="44.97341860043502" lon="9.990438684012384"><ele>41.0</ele><time>2026-04-18T05:50:30Z</time></trkpt><trkpt lat="44.97334092858667" lon="9.990401963120911"><ele>41.0</ele><time>2026-04-18T05:50:31Z</time></trkpt><trkpt lat="44.973264052515084" lon="9.990362813972592"><ele>41.0</ele><time>2026-04-18T05:50:32Z</time></trkpt><trkpt lat="44.97318828403064" lon="9.990325653851128"><ele>41.0</ele><time>2026-04-18T05:50:33Z</time></trkpt><trkpt lat="44.97311239326862" lon="9.9902906860468"><ele>41.0</ele><time>2026-04-18T05:50:34Z</time></trkpt><trkpt lat="44.97303562690988" lon="9.990254866828394"><ele>41.0</ele><time>2026-04-18T05:50:35Z</time></trkpt><trkpt lat="44.97296102395588" lon="9.990218204652058"><ele>41.0</ele><time>2026-04-18T05:50:36Z</time></trkpt><trkpt lat="44.97288646705081" lon="9.990180666195295"><ele>41.0</ele><time>2026-04-18T05:50:37Z</time></trkpt><trkpt lat="44.97281338564832" lon="9.990145123342703"><ele>41.0</ele><time>2026-04-18T05:50:38Z</time></trkpt><trkpt lat="44.97274202828124" lon="9.990106956772753"><ele>41.0</ele><time>2026-04-18T05:50:39Z</time></trkpt><trkpt lat="44.972671901042865" lon="9.990062041589628"><ele>41.0</ele><time>2026-04-18T05:50:40Z</time></trkpt><trkpt lat="44.97261277160783" lon="9.989992969632157"><ele>41.0</ele><time>2026-04-18T05:50:41Z</time></trkpt><trkpt lat="44.972546728049196" lon="9.989937245441176"><ele>41.0</ele><time>2026-04-18T05:50:42Z</time></trkpt><trkpt lat="44.97247475431088" lon="9.989900427841508"><ele>41.0</ele><time>2026-04-18T05:50:43Z</time></trkpt><trkpt lat="44.97241036777058" lon="9.989844161198398"><ele>41.0</ele><time>2026-04-18T05:50:44Z</time></trkpt><trkpt lat="44.9723460978323" lon="9.989786344710032"><ele>41.0</ele><time>2026-04-18T05:50:45Z</time></trkpt><trkpt lat="44.9722816847346" lon="9.989725030411266"><ele>41.0</ele><time>2026-04-18T05:50:46Z</time></trkpt><trkpt lat="44.97221705977226" lon="9.989666920607998"><ele>41.666666666666664</ele><time>2026-04-18T05:50:47Z</time></trkpt><trkpt lat="44.97215102770509" lon="9.989610747713867"><ele>42.33333333333333</ele><time>2026-04-18T05:50:48Z</time></trkpt><trkpt lat="44.972085018390324" lon="9.989551784786032"><ele>43.0</ele><time>2026-04-18T05:50:49Z</time></trkpt><trkpt lat="44.972019385253006" lon="9.989492989377137"><ele>43.666666666666664</ele><time>2026-04-18T05:50:50Z</time></trkpt><trkpt lat="44.97195352690866" lon="9.989435795318283"><ele>44.333333333333336</ele><time>2026-04-18T05:50:51Z</time></trkpt><trkpt lat="44.97188796285116" lon="9.989376551291318"><ele>45.0</ele><time>2026-04-18T05:50:52Z</time></trkpt><trkpt lat="44.97182212314548" lon="9.989314966214572"><ele>45.0</ele><time>2026-04-18T05:50:53Z</time></trkpt><trkpt lat="44.97175776527461" lon="9.989258801015104"><ele>45.0</ele><time>2026-04-18T05:50:54Z</time></trkpt><trkpt lat="44.971693110051554" lon="9.98920312359107"><ele>45.0</ele><time>2026-04-18T05:50:55Z</time></trkpt><trkpt lat="44.97162935227421" lon="9.989146013360235"><ele>45.0</ele><time>2026-04-18T05:50:56Z</time></trkpt><trkpt lat="44.97156600714385" lon="9.989086020260498"><ele>45.0</ele><time>2026-04-18T05:50:57Z</time></trkpt><trkpt lat="44.97150271846858" lon="9.989027346519023"><ele>45.0</ele><time>2026-04-18T05:50:58Z</time></trkpt><trkpt lat="44.97143901364734" lon="9.988969018870135"><ele>44.833333333333336</ele><time>2026-04-18T05:50:58.999Z</time></trkpt><trkpt lat="44.97137410245957" lon="9.98891097467823"><ele>44.666666666666664</ele><time>2026-04-18T05:50:59.999Z</time></trkpt><trkpt lat="44.97130999721406" lon="9.988852730029798"><ele>44.5</ele><time>2026-04-18T05:51:00.999Z</time></trkpt><trkpt lat="44.971246010491065" lon="9.98879581708199"><ele>44.33333333333333</ele><time>2026-04-18T05:51:01.999Z</time></trkpt><trkpt lat="44.97119078991202" lon="9.988720603181003"><ele>44.166666666666664</ele><time>2026-04-18T05:51:02.999Z</time></trkpt><trkpt lat="44.971119716553254" lon="9.988683833053118"><ele>44.0</ele><time>2026-04-18T05:51:03.999Z</time></trkpt><trkpt lat="44.971057811355685" lon="9.988625155444359"><ele>44.0</ele><time>2026-04-18T05:51:04.999Z</time></trkpt><trkpt lat="44.97099474900733" lon="9.988565368177582"><ele>44.0</ele><time>2026-04-18T05:51:05.999Z</time></trkpt><trkpt lat="44.97092874277488" lon="9.988509429304825"><ele>44.0</ele><time>2026-04-18T05:51:06.999Z</time></trkpt><trkpt lat="44.97086220664988" lon="9.988456390567729"><ele>44.0</ele><time>2026-04-18T05:51:07.999Z</time></trkpt><trkpt lat="44.97079574470906" lon="9.988398456257165"><ele>44.0</ele><time>2026-04-18T05:51:08.999Z</time></trkpt><trkpt lat="44.97073006584416" lon="9.988341433516403"><ele>44.0</ele><time>2026-04-18T05:51:09.999Z</time></trkpt><trkpt lat="44.9706607699512" lon="9.988289584677613"><ele>44.0</ele><time>2026-04-18T05:51:10.999Z</time></trkpt><trkpt lat="44.970587345163935" lon="9.988245698235568"><ele>44.0</ele><time>2026-04-18T05:51:11.999Z</time></trkpt><trkpt lat="44.970511944494675" lon="9.988209840050123"><ele>44.0</ele><time>2026-04-18T05:51:12.999Z</time></trkpt><trkpt lat="44.97043522571678" lon="9.988183294089701"><ele>44.0</ele><time>2026-04-18T05:51:13.999Z</time></trkpt><trkpt lat="44.97035773937059" lon="9.988156498586461"><ele>44.0</ele><time>2026-04-18T05:51:14.999Z</time></trkpt><trkpt lat="44.970279953634034" lon="9.988134728341034"><ele>44.0</ele><time>2026-04-18T05:51:15.999Z</time></trkpt><trkpt lat="44.9702014376962" lon="9.98811132620234"><ele>44.0</ele><time>2026-04-18T05:51:16.999Z</time></trkpt><trkpt lat="44.970125640381845" lon="9.988090441629511"><ele>44.0</ele><time>2026-04-18T05:51:17.999Z</time></trkpt><trkpt lat="44.97005075574055" lon="9.988050884529208"><ele>44.0</ele><time>2026-04-18T05:51:18.999Z</time></trkpt><trkpt lat="44.969969317498936" lon="9.988052402362396"><ele>44.0</ele><time>2026-04-18T05:51:19.999Z</time></trkpt><trkpt lat="44.96988933578899" lon="9.988034240265272"><ele>44.0</ele><time>2026-04-18T05:51:20.999Z</time></trkpt><trkpt lat="44.96981008540433" lon="9.988018938481389"><ele>44.0</ele><time>2026-04-18T05:51:21.999Z</time></trkpt><trkpt lat="44.96972950114453" lon="9.988012970598175"><ele>44.33333333333333</ele><time>2026-04-18T05:51:22.999Z</time></trkpt><trkpt lat="44.96964942583696" lon="9.98801472529749"><ele>44.666666666666664</ele><time>2026-04-18T05:51:23.999Z</time></trkpt><trkpt lat="44.96957135081436" lon="9.988020777206573"><ele>45.0</ele><time>2026-04-18T05:51:24.999Z</time></trkpt><trkpt lat="44.96949206827984" lon="9.988035493177975"><ele>45.333333333333336</ele><time>2026-04-18T05:51:25.999Z</time></trkpt><trkpt lat="44.96941400849037" lon="9.988054272811091"><ele>45.66666666666667</ele><time>2026-04-18T05:51:26.999Z</time></trkpt><trkpt lat="44.96933592216215" lon="9.988048762074762"><ele>46.0</ele><time>2026-04-18T05:51:27.999Z</time></trkpt><trkpt lat="44.9692602523397" lon="9.98808760936769"><ele>46.0</ele><time>2026-04-18T05:51:28.999Z</time></trkpt><trkpt lat="44.96918186680722" lon="9.988084547075758"><ele>46.0</ele><time>2026-04-18T05:51:29.999Z</time></trkpt><trkpt lat="44.96910982521076" lon="9.98812444275192"><ele>46.0</ele><time>2026-04-18T05:51:30.999Z</time></trkpt><trkpt lat="44.96903306203349" lon="9.988143803413472"><ele>46.0</ele><time>2026-04-18T05:51:31.999Z</time></trkpt><trkpt lat="44.96895672678158" lon="9.988162972774127"><ele>46.0</ele><time>2026-04-18T05:51:32.999Z</time></trkpt><trkpt lat="44.9688766011951" lon="9.988160202836841"><ele>46.0</ele><time>2026-04-18T05:51:33.999Z</time></trkpt><trkpt lat="44.96880020409246" lon="9.9881793491809"><ele>46.0</ele><time>2026-04-18T05:51:34.999Z</time></trkpt><trkpt lat="44.968723729751325" lon="9.988198514951955"><ele>46.0</ele><time>2026-04-18T05:51:35.999Z</time></trkpt><trkpt lat="44.96865217718337" lon="9.988239606192339"><ele>46.0</ele><time>2026-04-18T05:51:36.999Z</time></trkpt><trkpt lat="44.96857412744855" lon="9.988236007806487"><ele>46.0</ele><time>2026-04-18T05:51:37.999Z</time></trkpt><trkpt lat="44.96850027131941" lon="9.988277528772993"><ele>46.0</ele><time>2026-04-18T05:51:38.999Z</time></trkpt><trkpt lat="44.96842566121228" lon="9.9882944751338"><ele>46.0</ele><time>2026-04-18T05:51:39.999Z</time></trkpt><trkpt lat="44.96835334877402" lon="9.988312570511948"><ele>45.833333333333336</ele><time>2026-04-18T05:51:40.999Z</time></trkpt><trkpt lat="44.96828222181867" lon="9.988327914904056"><ele>45.66666666666667</ele><time>2026-04-18T05:51:41.999Z</time></trkpt><trkpt lat="44.96821119062461" lon="9.988346008895805"><ele>45.5</ele><time>2026-04-18T05:51:42.999Z</time></trkpt><trkpt lat="44.968136896028724" lon="9.98836535344395"><ele>45.333333333333336</ele><time>2026-04-18T05:51:43.999Z</time></trkpt><trkpt lat="44.96806015226485" lon="9.988382086249672"><ele>45.166666666666664</ele><time>2026-04-18T05:51:44.999Z</time></trkpt><trkpt lat="44.96798234376093" lon="9.98839661494201"><ele>45.0</ele><time>2026-04-18T05:51:45.999Z</time></trkpt><trkpt lat="44.96790379276103" lon="9.98841249014345"><ele>44.833333333333336</ele><time>2026-04-18T05:51:46.999Z</time></trkpt><trkpt lat="44.967828712798955" lon="9.988433257134396"><ele>44.666666666666664</ele><time>2026-04-18T05:51:47.999Z</time></trkpt><trkpt lat="44.967754244868324" lon="9.988456969767695"><ele>44.5</ele><time>2026-04-18T05:51:48.999Z</time></trkpt><trkpt lat="44.96767567570175" lon="9.988477354212247"><ele>44.33333333333333</ele><time>2026-04-18T05:51:49.999Z</time></trkpt><trkpt lat="44.96759907725437" lon="9.988496766791545"><ele>44.166666666666664</ele><time>2026-04-18T05:51:50.999Z</time></trkpt><trkpt lat="44.9675193256161" lon="9.988515028098982"><ele>44.0</ele><time>2026-04-18T05:51:51.999Z</time></trkpt><trkpt lat="44.96744130969138" lon="9.988537365831025"><ele>44.33333333333333</ele><time>2026-04-18T05:51:52.999Z</time></trkpt><trkpt lat="44.96736181655789" lon="9.988557928818853"><ele>44.666666666666664</ele><time>2026-04-18T05:51:53.999Z</time></trkpt><trkpt lat="44.96728347863121" lon="9.988578120846247"><ele>45.0</ele><time>2026-04-18T05:51:54.998Z</time></trkpt><trkpt lat="44.96720439020894" lon="9.988600780819423"><ele>45.333333333333336</ele><time>2026-04-18T05:51:55.998Z</time></trkpt><trkpt lat="44.96712205833404" lon="9.988598042783023"><ele>45.66666666666667</ele><time>2026-04-18T05:51:56.998Z</time></trkpt><trkpt lat="44.96704815735462" lon="9.98863959644532"><ele>46.0</ele><time>2026-04-18T05:51:57.998Z</time></trkpt><trkpt lat="44.9669682361408" lon="9.9886575612665"><ele>46.0</ele><time>2026-04-18T05:51:58.998Z</time></trkpt><trkpt lat="44.96689345626656" lon="9.988676426656928"><ele>46.0</ele><time>2026-04-18T05:51:59.998Z</time></trkpt><trkpt lat="44.96681595528461" lon="9.988696753696113"><ele>46.0</ele><time>2026-04-18T05:52:00.998Z</time></trkpt><trkpt lat="44.9667346528929" lon="9.98869354707875"><ele>46.0</ele><time>2026-04-18T05:52:01.998Z</time></trkpt><trkpt lat="44.96666084674259" lon="9.988733953257109"><ele>46.0</ele><time>2026-04-18T05:52:02.998Z</time></trkpt><trkpt lat="44.96658216321927" lon="9.988751584360859"><ele>46.0</ele><time>2026-04-18T05:52:03.998Z</time></trkpt><trkpt lat="44.966503696972595" lon="9.988768653151366"><ele>46.0</ele><time>2026-04-18T05:52:04.998Z</time></trkpt><trkpt lat="44.966426710878245" lon="9.988787927450812"><ele>46.0</ele><time>2026-04-18T05:52:05.998Z</time></trkpt><trkpt lat="44.966348655651174" lon="9.988809041829258"><ele>46.0</ele><time>2026-04-18T05:52:06.998Z</time></trkpt><trkpt lat="44.96626935514438" lon="9.988827131201926"><ele>46.0</ele><time>2026-04-18T05:52:07.998Z</time></trkpt><trkpt lat="44.9661919159916" lon="9.988846262085655"><ele>46.0</ele><time>2026-04-18T05:52:08.998Z</time></trkpt><trkpt lat="44.96611262803463" lon="9.988862496070924"><ele>46.0</ele><time>2026-04-18T05:52:09.998Z</time></trkpt><trkpt lat="44.96603278486245" lon="9.98888249370658"><ele>46.0</ele><time>2026-04-18T05:52:10.998Z</time></trkpt><trkpt lat="44.96595268509269" lon="9.988905636309697"><ele>46.0</ele><time>2026-04-18T05:52:11.998Z</time></trkpt><trkpt lat="44.965871993613405" lon="9.98890334706601"><ele>46.0</ele><time>2026-04-18T05:52:12.998Z</time></trkpt><trkpt lat="44.965793365521066" lon="9.988921253724019"><ele>46.0</ele><time>2026-04-18T05:52:13.998Z</time></trkpt><trkpt lat="44.96571596393184" lon="9.988938881057418"><ele>46.0</ele><time>2026-04-18T05:52:14.998Z</time></trkpt><trkpt lat="44.96563769601803" lon="9.988956826941083"><ele>46.0</ele><time>2026-04-18T05:52:15.998Z</time></trkpt><trkpt lat="44.96556178750283" lon="9.988975693324848"><ele>46.285714285714285</ele><time>2026-04-18T05:52:16.998Z</time></trkpt><trkpt lat="44.96548824666177" lon="9.988993971234109"><ele>46.57142857142857</ele><time>2026-04-18T05:52:17.998Z</time></trkpt><trkpt lat="44.9654162174753" lon="9.989011873441752"><ele>46.857142857142854</ele><time>2026-04-18T05:52:18.998Z</time></trkpt><trkpt lat="44.96534568275836" lon="9.989029404164219"><ele>47.14285714285714</ele><time>2026-04-18T05:52:19.998Z</time></trkpt><trkpt lat="44.96527602446854" lon="9.989043834755194"><ele>47.42857142857143</ele><time>2026-04-18T05:52:20.998Z</time></trkpt><trkpt lat="44.965207813091276" lon="9.9890582110524"><ele>47.71428571428571</ele><time>2026-04-18T05:52:21.998Z</time></trkpt><trkpt lat="44.9651366495337" lon="9.989086404371472"><ele>48.0</ele><time>2026-04-18T05:52:22.998Z</time></trkpt><trkpt lat="44.965071073379136" lon="9.989135742678924"><ele>47.5</ele><time>2026-04-18T05:52:23.998Z</time></trkpt><trkpt lat="44.965036051904725" lon="9.989243311410194"><ele>47.0</ele><time>2026-04-18T05:52:24.998Z</time></trkpt><trkpt lat="44.96498430832798" lon="9.989327603813528"><ele>46.5</ele><time>2026-04-18T05:52:25.998Z</time></trkpt><trkpt lat="44.96494618320897" lon="9.989427749752545"><ele>46.0</ele><time>2026-04-18T05:52:26.998Z</time></trkpt><trkpt lat="44.964911978365265" lon="9.989523046092055"><ele>45.5</ele><time>2026-04-18T05:52:27.998Z</time></trkpt><trkpt lat="44.9648768792454" lon="9.989620833910026"><ele>45.0</ele><time>2026-04-18T05:52:28.998Z</time></trkpt><trkpt lat="44.964855508519484" lon="9.989727357941364"><ele>45.0</ele><time>2026-04-18T05:52:29.998Z</time></trkpt><trkpt lat="44.96481959715291" lon="9.989825865282139"><ele>45.0</ele><time>2026-04-18T05:52:30.998Z</time></trkpt><trkpt lat="44.964781995193306" lon="9.98992361428074"><ele>45.0</ele><time>2026-04-18T05:52:31.998Z</time></trkpt><trkpt lat="44.96474744904183" lon="9.990023666908584"><ele>45.0</ele><time>2026-04-18T05:52:32.998Z</time></trkpt><trkpt lat="44.96471501500802" lon="9.990125415324421"><ele>45.0</ele><time>2026-04-18T05:52:34Z</time></trkpt><trkpt lat="44.964680396896696" lon="9.990218439848896"><ele>45.0</ele><time>2026-04-18T05:52:35Z</time></trkpt><trkpt lat="44.964630589219276" lon="9.990294942381015"><ele>45.0</ele><time>2026-04-18T05:52:36Z</time></trkpt><trkpt lat="44.96456791225428" lon="9.990346851289885"><ele>45.0</ele><time>2026-04-18T05:52:37Z</time></trkpt><trkpt lat="44.964495244432165" lon="9.99034924334494"><ele>45.0</ele><time>2026-04-18T05:52:38Z</time></trkpt><trkpt lat="44.964432838790195" lon="9.990292254002426"><ele>45.0</ele><time>2026-04-18T05:52:39Z</time></trkpt><trkpt lat="44.96436985863278" lon="9.990235392357475"><ele>45.0</ele><time>2026-04-18T05:52:40Z</time></trkpt><trkpt lat="44.96430117015296" lon="9.990198921297365"><ele>45.0</ele><time>2026-04-18T05:52:41Z</time></trkpt><trkpt lat="44.96423777352898" lon="9.99013972345687"><ele>45.0</ele><time>2026-04-18T05:52:42Z</time></trkpt><trkpt lat="44.96417091405155" lon="9.990083976111302"><ele>44.666666666666664</ele><time>2026-04-18T05:52:43Z</time></trkpt><trkpt lat="44.96410477159672" lon="9.990026566141273"><ele>44.333333333333336</ele><time>2026-04-18T05:52:44Z</time></trkpt><trkpt lat="44.964039371004475" lon="9.989968448664994"><ele>44.0</ele><time>2026-04-18T05:52:45Z</time></trkpt><trkpt lat="44.963971548721126" lon="9.9899107922141"><ele>43.66666666666667</ele><time>2026-04-18T05:52:46Z</time></trkpt><trkpt lat="44.963902783067816" lon="9.989854770142527"><ele>43.333333333333336</ele><time>2026-04-18T05:52:47Z</time></trkpt><trkpt lat="44.96383393526739" lon="9.98979686694376"><ele>43.0</ele><time>2026-04-18T05:52:48Z</time></trkpt><trkpt lat="44.963762094413745" lon="9.989739896345382"><ele>43.0</ele><time>2026-04-18T05:52:49Z</time></trkpt><trkpt lat="44.96368911200969" lon="9.989684160047982"><ele>43.0</ele><time>2026-04-18T05:52:50Z</time></trkpt><trkpt lat="44.96361684390498" lon="9.989626464433984"><ele>43.0</ele><time>2026-04-18T05:52:51Z</time></trkpt><trkpt lat="44.96354424167448" lon="9.98956737418338"><ele>43.0</ele><time>2026-04-18T05:52:52Z</time></trkpt><trkpt lat="44.96347045237928" lon="9.989508985239928"><ele>43.0</ele><time>2026-04-18T05:52:53Z</time></trkpt><trkpt lat="44.96339812844376" lon="9.989447139162394"><ele>43.0</ele><time>2026-04-18T05:52:54Z</time></trkpt><trkpt lat="44.963326850198214" lon="9.989385633701751"><ele>43.333333333333336</ele><time>2026-04-18T05:52:55Z</time></trkpt><trkpt lat="44.963254904357086" lon="9.989324805413965"><ele>43.66666666666667</ele><time>2026-04-18T05:52:56Z</time></trkpt><trkpt lat="44.96318093025062" lon="9.98926393364127"><ele>44.0</ele><time>2026-04-18T05:52:57Z</time></trkpt><trkpt lat="44.96310761184679" lon="9.989203690705136"><ele>44.333333333333336</ele><time>2026-04-18T05:52:58Z</time></trkpt><trkpt lat="44.96303379427165" lon="9.989144600945666"><ele>44.666666666666664</ele><time>2026-04-18T05:52:59Z</time></trkpt><trkpt lat="44.96296054065668" lon="9.989085946812171"><ele>45.0</ele><time>2026-04-18T05:53:00Z</time></trkpt><trkpt lat="44.96288941299515" lon="9.989026008661087"><ele>45.0</ele><time>2026-04-18T05:53:01Z</time></trkpt><trkpt lat="44.962819402679145" lon="9.988966803420553"><ele>45.0</ele><time>2026-04-18T05:53:02Z</time></trkpt><trkpt lat="44.96275094316454" lon="9.988908557323752"><ele>45.0</ele><time>2026-04-18T05:53:02.999Z</time></trkpt><trkpt lat="44.96268030717439" lon="9.988851120115742"><ele>45.0</ele><time>2026-04-18T05:53:03.999Z</time></trkpt><trkpt lat="44.96260983246563" lon="9.988794883554853"><ele>45.0</ele><time>2026-04-18T05:53:04.999Z</time></trkpt><trkpt lat="44.96253919674991" lon="9.988739115004694"><ele>45.0</ele><time>2026-04-18T05:53:05.999Z</time></trkpt><trkpt lat="44.96246932462371" lon="9.988678637566865"><ele>45.166666666666664</ele><time>2026-04-18T05:53:06.999Z</time></trkpt><trkpt lat="44.96240250594207" lon="9.988622536595694"><ele>45.333333333333336</ele><time>2026-04-18T05:53:07.999Z</time></trkpt><trkpt lat="44.96233544127746" lon="9.988567759924683"><ele>45.5</ele><time>2026-04-18T05:53:08.999Z</time></trkpt><trkpt lat="44.96227053726195" lon="9.988516269358039"><ele>45.66666666666667</ele><time>2026-04-18T05:53:09.999Z</time></trkpt><trkpt lat="44.96220321639137" lon="9.98846253471589"><ele>45.833333333333336</ele><time>2026-04-18T05:53:10.999Z</time></trkpt><trkpt lat="44.962137227774896" lon="9.988406135640085"><ele>46.0</ele><time>2026-04-18T05:53:11.999Z</time></trkpt><trkpt lat="44.9620690177102" lon="9.9883489695229"><ele>45.833333333333336</ele><time>2026-04-18T05:53:12.999Z</time></trkpt><trkpt lat="44.96200015405842" lon="9.988293623906253"><ele>45.66666666666667</ele><time>2026-04-18T05:53:13.999Z</time></trkpt><trkpt lat="44.96193254038088" lon="9.988236468746523"><ele>45.5</ele><time>2026-04-18T05:53:14.999Z</time></trkpt><trkpt lat="44.96186459566246" lon="9.988177501057756"><ele>45.333333333333336</ele><time>2026-04-18T05:53:15.999Z</time></trkpt><trkpt lat="44.96179606953344" lon="9.988120768039996"><ele>45.166666666666664</ele><time>2026-04-18T05:53:16.999Z</time></trkpt><trkpt lat="44.96172813690157" lon="9.98806405065354"><ele>45.0</ele><time>2026-04-18T05:53:17.999Z</time></trkpt><trkpt lat="44.96165858283096" lon="9.988009970109855"><ele>45.0</ele><time>2026-04-18T05:53:18.999Z</time></trkpt><trkpt lat="44.96159014357576" lon="9.987955166008984"><ele>45.0</ele><time>2026-04-18T05:53:19.999Z</time></trkpt><trkpt lat="44.96152342908264" lon="9.987900252737997"><ele>45.0</ele><time>2026-04-18T05:53:20.999Z</time></trkpt><trkpt lat="44.961454800539435" lon="9.987843903454765"><ele>45.0</ele><time>2026-04-18T05:53:21.999Z</time></trkpt><trkpt lat="44.961385950591385" lon="9.987790838754362"><ele>45.0</ele><time>2026-04-18T05:53:22.999Z</time></trkpt><trkpt lat="44.9613176077321" lon="9.987736075613117"><ele>45.0</ele><time>2026-04-18T05:53:23.999Z</time></trkpt><trkpt lat="44.961250214270834" lon="9.987677989386153"><ele>45.0</ele><time>2026-04-18T05:53:24.999Z</time></trkpt><trkpt lat="44.961181848442976" lon="9.98761917769708"><ele>45.0</ele><time>2026-04-18T05:53:25.999Z</time></trkpt><trkpt lat="44.96111311074901" lon="9.987561971092969"><ele>45.0</ele><time>2026-04-18T05:53:26.999Z</time></trkpt><trkpt lat="44.96104500643008" lon="9.98750593897743"><ele>45.0</ele><time>2026-04-18T05:53:27.999Z</time></trkpt><trkpt lat="44.960973638722265" lon="9.98745068285413"><ele>45.0</ele><time>2026-04-18T05:53:28.999Z</time></trkpt><trkpt lat="44.96090399247976" lon="9.987393019428485"><ele>45.0</ele><time>2026-04-18T05:53:29.999Z</time></trkpt><trkpt lat="44.96083531518272" lon="9.987335417069183"><ele>44.666666666666664</ele><time>2026-04-18T05:53:30.999Z</time></trkpt><trkpt lat="44.960765911984886" lon="9.987279436135442"><ele>44.333333333333336</ele><time>2026-04-18T05:53:31.999Z</time></trkpt><trkpt lat="44.96069708966371" lon="9.987222179555923"><ele>44.0</ele><time>2026-04-18T05:53:32.999Z</time></trkpt><trkpt lat="44.96062782743616" lon="9.987166009907861"><ele>43.66666666666667</ele><time>2026-04-18T05:53:33.999Z</time></trkpt><trkpt lat="44.960558740165716" lon="9.987107696926966"><ele>43.333333333333336</ele><time>2026-04-18T05:53:34.999Z</time></trkpt><trkpt lat="44.96048907511365" lon="9.98705136082561"><ele>43.0</ele><time>2026-04-18T05:53:35.999Z</time></trkpt><trkpt lat="44.96041916052646" lon="9.986996494324552"><ele>43.0</ele><time>2026-04-18T05:53:36.999Z</time></trkpt><trkpt lat="44.960348329449786" lon="9.986937405658733"><ele>43.0</ele><time>2026-04-18T05:53:37.999Z</time></trkpt><trkpt lat="44.960278113657125" lon="9.986881493754035"><ele>43.0</ele><time>2026-04-18T05:53:38.999Z</time></trkpt><trkpt lat="44.960205708515765" lon="9.986822465404646"><ele>43.0</ele><time>2026-04-18T05:53:39.999Z</time></trkpt><trkpt lat="44.960134302576336" lon="9.986764805849832"><ele>43.0</ele><time>2026-04-18T05:53:40.999Z</time></trkpt><trkpt lat="44.96006401917586" lon="9.986707747411332"><ele>43.0</ele><time>2026-04-18T05:53:41.999Z</time></trkpt><trkpt lat="44.95999426760817" lon="9.986651958022398"><ele>43.333333333333336</ele><time>2026-04-18T05:53:42.999Z</time></trkpt><trkpt lat="44.959925002914616" lon="9.986597291008934"><ele>43.66666666666667</ele><time>2026-04-18T05:53:43.999Z</time></trkpt><trkpt lat="44.959858538933894" lon="9.986542015619728"><ele>44.0</ele><time>2026-04-18T05:53:44.999Z</time></trkpt><trkpt lat="44.95979472295751" lon="9.986489021648719"><ele>44.333333333333336</ele><time>2026-04-18T05:53:45.999Z</time></trkpt><trkpt lat="44.95972920316744" lon="9.986437536581532"><ele>44.666666666666664</ele><time>2026-04-18T05:53:46.999Z</time></trkpt><trkpt lat="44.959665734243075" lon="9.986388109535804"><ele>45.0</ele><time>2026-04-18T05:53:47.999Z</time></trkpt><trkpt lat="44.95960353888481" lon="9.986337807552301"><ele>45.0</ele><time>2026-04-18T05:53:48.999Z</time></trkpt><trkpt lat="44.9595402432624" lon="9.986286439927238"><ele>45.0</ele><time>2026-04-18T05:53:49.999Z</time></trkpt><trkpt lat="44.95947258018265" lon="9.986232467417528"><ele>45.0</ele><time>2026-04-18T05:53:50.999Z</time></trkpt><trkpt lat="44.95940457001238" lon="9.986174544161573"><ele>45.0</ele><time>2026-04-18T05:53:51.999Z</time></trkpt><trkpt lat="44.95933311640627" lon="9.986118827778007"><ele>45.0</ele><time>2026-04-18T05:53:52.999Z</time></trkpt><trkpt lat="44.95926232725807" lon="9.98606233665973"><ele>45.0</ele><time>2026-04-18T05:53:53.999Z</time></trkpt><trkpt lat="44.95919431896485" lon="9.986002707387156"><ele>45.166666666666664</ele><time>2026-04-18T05:53:54.999Z</time></trkpt><trkpt lat="44.95912606345598" lon="9.985943147027179"><ele>45.333333333333336</ele><time>2026-04-18T05:53:55.999Z</time></trkpt><trkpt lat="44.95905505181981" lon="9.985888071701599"><ele>45.5</ele><time>2026-04-18T05:53:56.999Z</time></trkpt><trkpt lat="44.958984974339465" lon="9.985831234858633"><ele>45.66666666666667</ele><time>2026-04-18T05:53:57.999Z</time></trkpt><trkpt lat="44.95891261262989" lon="9.985776363611361"><ele>45.833333333333336</ele><time>2026-04-18T05:53:58.998Z</time></trkpt><trkpt lat="44.95884138218935" lon="9.985719205904447"><ele>46.0</ele><time>2026-04-18T05:53:59.998Z</time></trkpt><trkpt lat="44.95877218205921" lon="9.985663313674433"><ele>46.0</ele><time>2026-04-18T05:54:00.998Z</time></trkpt><trkpt lat="44.958703041742496" lon="9.98560458916829"><ele>46.0</ele><time>2026-04-18T05:54:01.998Z</time></trkpt><trkpt lat="44.95863263966653" lon="9.985548627245064"><ele>46.0</ele><time>2026-04-18T05:54:02.998Z</time></trkpt><trkpt lat="44.958562426490566" lon="9.985493221694844"><ele>46.0</ele><time>2026-04-18T05:54:03.998Z</time></trkpt><trkpt lat="44.95849301746588" lon="9.985438064486033"><ele>46.0</ele><time>2026-04-18T05:54:04.998Z</time></trkpt><trkpt lat="44.958424308084304" lon="9.985382377619773"><ele>46.0</ele><time>2026-04-18T05:54:05.998Z</time></trkpt><trkpt lat="44.95835343967805" lon="9.985327124062586"><ele>45.833333333333336</ele><time>2026-04-18T05:54:06.998Z</time></trkpt><trkpt lat="44.958285393297814" lon="9.985271301667394"><ele>45.66666666666667</ele><time>2026-04-18T05:54:07.998Z</time></trkpt><trkpt lat="44.95821614506217" lon="9.985215033265597"><ele>45.5</ele><time>2026-04-18T05:54:08.998Z</time></trkpt><trkpt lat="44.958146327093395" lon="9.985159345972587"><ele>45.333333333333336</ele><time>2026-04-18T05:54:09.998Z</time></trkpt><trkpt lat="44.95807709394466" lon="9.985104988820968"><ele>45.166666666666664</ele><time>2026-04-18T05:54:10.998Z</time></trkpt><trkpt lat="44.9580064900118" lon="9.985049774985383"><ele>45.0</ele><time>2026-04-18T05:54:11.998Z</time></trkpt><trkpt lat="44.95793718066114" lon="9.984995141186772"><ele>45.0</ele><time>2026-04-18T05:54:12.998Z</time></trkpt><trkpt lat="44.957866109161095" lon="9.984937753718295"><ele>45.0</ele><time>2026-04-18T05:54:13.998Z</time></trkpt><trkpt lat="44.9577949359027" lon="9.984882183260595"><ele>45.0</ele><time>2026-04-18T05:54:14.998Z</time></trkpt><trkpt lat="44.95772395660759" lon="9.984826915071478"><ele>45.0</ele><time>2026-04-18T05:54:15.998Z</time></trkpt><trkpt lat="44.957654862141354" lon="9.98476916683005"><ele>45.0</ele><time>2026-04-18T05:54:16.998Z</time></trkpt><trkpt lat="44.957586148593684" lon="9.984713184437378"><ele>45.0</ele><time>2026-04-18T05:54:17.998Z</time></trkpt><trkpt lat="44.957516428293424" lon="9.984657969096109"><ele>45.166666666666664</ele><time>2026-04-18T05:54:18.998Z</time></trkpt><trkpt lat="44.95744684029296" lon="9.984605580448408"><ele>45.333333333333336</ele><time>2026-04-18T05:54:19.998Z</time></trkpt><trkpt lat="44.95737911435337" lon="9.984550052806688"><ele>45.5</ele><time>2026-04-18T05:54:20.998Z</time></trkpt><trkpt lat="44.9573098740226" lon="9.984495374888102"><ele>45.66666666666667</ele><time>2026-04-18T05:54:21.998Z</time></trkpt><trkpt lat="44.957241330643406" lon="9.984439487116514"><ele>45.833333333333336</ele><time>2026-04-18T05:54:22.998Z</time></trkpt><trkpt lat="44.9571718100585" lon="9.98438628568948"><ele>46.0</ele><time>2026-04-18T05:54:23.998Z</time></trkpt><trkpt lat="44.957104292524654" lon="9.984332902514454"><ele>46.0</ele><time>2026-04-18T05:54:24.998Z</time></trkpt><trkpt lat="44.957034650020795" lon="9.9842773069187"><ele>46.0</ele><time>2026-04-18T05:54:25.998Z</time></trkpt><trkpt lat="44.95696563549101" lon="9.984222691583263"><ele>46.0</ele><time>2026-04-18T05:54:26.998Z</time></trkpt><trkpt lat="44.95689678030408" lon="9.984170213575121"><ele>46.0</ele><time>2026-04-18T05:54:27.998Z</time></trkpt><trkpt lat="44.95682784422989" lon="9.984118672239754"><ele>46.0</ele><time>2026-04-18T05:54:28.998Z</time></trkpt><trkpt lat="44.95676104882251" lon="9.984065856466836"><ele>46.0</ele><time>2026-04-18T05:54:29.998Z</time></trkpt><trkpt lat="44.95669370641522" lon="9.984013317116043"><ele>45.66666666666667</ele><time>2026-04-18T05:54:30.998Z</time></trkpt><trkpt lat="44.95662718442375" lon="9.983960846744537"><ele>45.333333333333336</ele><time>2026-04-18T05:54:31.998Z</time></trkpt><trkpt lat="44.956562107585974" lon="9.983905192459336"><ele>45.0</ele><time>2026-04-18T05:54:32.998Z</time></trkpt><trkpt lat="44.95649462477228" lon="9.983848520756545"><ele>44.666666666666664</ele><time>2026-04-18T05:54:33.998Z</time></trkpt><trkpt lat="44.95642541594638" lon="9.983786026994368"><ele>44.33333333333333</ele><time>2026-04-18T05:54:34.998Z</time></trkpt><trkpt lat="44.95635581595659" lon="9.983723412139636"><ele>44.0</ele><time>2026-04-18T05:54:35.998Z</time></trkpt><trkpt lat="44.956285458845066" lon="9.9836605927178"><ele>44.0</ele><time>2026-04-18T05:54:36.998Z</time></trkpt><trkpt lat="44.95621389388474" lon="9.983601499455526"><ele>44.0</ele><time>2026-04-18T05:54:37.998Z</time></trkpt><trkpt lat="44.95614305989131" lon="9.983541527882123"><ele>44.0</ele><time>2026-04-18T05:54:38.998Z</time></trkpt><trkpt lat="44.95607364658966" lon="9.98348171767901"><ele>44.0</ele><time>2026-04-18T05:54:40Z</time></trkpt><trkpt lat="44.95600545251789" lon="9.98342297211941"><ele>44.0</ele><time>2026-04-18T05:54:41Z</time></trkpt><trkpt lat="44.95593688764422" lon="9.983361226124526"><ele>44.0</ele><time>2026-04-18T05:54:42Z</time></trkpt><trkpt lat="44.95586933446294" lon="9.983302601736915"><ele>44.166666666666664</ele><time>2026-04-18T05:54:43Z</time></trkpt><trkpt lat="44.95579937857756" lon="9.983241671610179"><ele>44.33333333333333</ele><time>2026-04-18T05:54:44Z</time></trkpt><trkpt lat="44.955731264106745" lon="9.983186637036914"><ele>44.5</ele><time>2026-04-18T05:54:45Z</time></trkpt><trkpt lat="44.95566131639583" lon="9.983129166220095"><ele>44.666666666666664</ele><time>2026-04-18T05:54:46Z</time></trkpt><trkpt lat="44.955593349963024" lon="9.983071618312376"><ele>44.833333333333336</ele><time>2026-04-18T05:54:47Z</time></trkpt><trkpt lat="44.95552713461608" lon="9.983011457143022"><ele>45.0</ele><time>2026-04-18T05:54:48Z</time></trkpt><trkpt lat="44.95545889589555" lon="9.982953044409395"><ele>45.0</ele><time>2026-04-18T05:54:49Z</time></trkpt><trkpt lat="44.955391010911484" lon="9.98289628230539"><ele>45.0</ele><time>2026-04-18T05:54:50Z</time></trkpt><trkpt lat="44.955324036061654" lon="9.982839971878171"><ele>45.0</ele><time>2026-04-18T05:54:51Z</time></trkpt><trkpt lat="44.95525219195556" lon="9.98278027428961"><ele>45.0</ele><time>2026-04-18T05:54:52Z</time></trkpt><trkpt lat="44.95518295596883" lon="9.982718968703498"><ele>45.0</ele><time>2026-04-18T05:54:53Z</time></trkpt><trkpt lat="44.955115179929166" lon="9.98265814585883"><ele>45.0</ele><time>2026-04-18T05:54:54Z</time></trkpt><trkpt lat="44.95504618404996" lon="9.982599109820072"><ele>45.166666666666664</ele><time>2026-04-18T05:54:55Z</time></trkpt><trkpt lat="44.954975151020626" lon="9.98254299852834"><ele>45.333333333333336</ele><time>2026-04-18T05:54:56Z</time></trkpt><trkpt lat="44.954905144376085" lon="9.982486652482677"><ele>45.5</ele><time>2026-04-18T05:54:57Z</time></trkpt><trkpt lat="44.9548364162641" lon="9.9824273871068"><ele>45.66666666666667</ele><time>2026-04-18T05:54:58Z</time></trkpt><trkpt lat="44.95476628254638" lon="9.982367282334765"><ele>45.833333333333336</ele><time>2026-04-18T05:54:59Z</time></trkpt><trkpt lat="44.95469566410899" lon="9.982310214916682"><ele>46.0</ele><time>2026-04-18T05:55:00Z</time></trkpt><trkpt lat="44.95462485967766" lon="9.982253432833945"><ele>46.16666666666667</ele><time>2026-04-18T05:55:01Z</time></trkpt><trkpt lat="44.95455279842354" lon="9.982198342830669"><ele>46.333333333333336</ele><time>2026-04-18T05:55:02Z</time></trkpt><trkpt lat="44.95448337395749" lon="9.982140234777118"><ele>46.5</ele><time>2026-04-18T05:55:03Z</time></trkpt><trkpt lat="44.954412686968354" lon="9.982083343584911"><ele>46.666666666666664</ele><time>2026-04-18T05:55:04Z</time></trkpt><trkpt lat="44.95434161081257" lon="9.98202658082035"><ele>46.83333333333333</ele><time>2026-04-18T05:55:05Z</time></trkpt><trkpt lat="44.95427119329135" lon="9.98197161807238"><ele>47.0</ele><time>2026-04-18T05:55:06Z</time></trkpt><trkpt lat="44.95419900702685" lon="9.981920648394018"><ele>47.166666666666664</ele><time>2026-04-18T05:55:07Z</time></trkpt><trkpt lat="44.95412754339639" lon="9.981868123381341"><ele>47.33333333333333</ele><time>2026-04-18T05:55:07.999Z</time></trkpt><trkpt lat="44.954054772120074" lon="9.981811059469619"><ele>47.5</ele><time>2026-04-18T05:55:08.999Z</time></trkpt><trkpt lat="44.9539853763192" lon="9.981755894762106"><ele>47.666666666666664</ele><time>2026-04-18T05:55:09.999Z</time></trkpt><trkpt lat="44.953913777922224" lon="9.981700305302782"><ele>47.833333333333336</ele><time>2026-04-18T05:55:10.999Z</time></trkpt><trkpt lat="44.95384289175727" lon="9.981647507536467"><ele>48.0</ele><time>2026-04-18T05:55:11.999Z</time></trkpt><trkpt lat="44.9537713053652" lon="9.981594250062983"><ele>47.666666666666664</ele><time>2026-04-18T05:55:12.999Z</time></trkpt><trkpt lat="44.95370031684069" lon="9.981539386502428"><ele>47.333333333333336</ele><time>2026-04-18T05:55:13.999Z</time></trkpt><trkpt lat="44.95362945564591" lon="9.981485964252625"><ele>47.0</ele><time>2026-04-18T05:55:14.999Z</time></trkpt><trkpt lat="44.953557881497254" lon="9.981430493716088"><ele>46.66666666666667</ele><time>2026-04-18T05:55:15.999Z</time></trkpt><trkpt lat="44.95348534940922" lon="9.981374891417898"><ele>46.333333333333336</ele><time>2026-04-18T05:55:16.999Z</time></trkpt><trkpt lat="44.95341342846493" lon="9.981319733264161"><ele>46.0</ele><time>2026-04-18T05:55:17.999Z</time></trkpt><trkpt lat="44.95334205427556" lon="9.981263729513516"><ele>46.0</ele><time>2026-04-18T05:55:18.999Z</time></trkpt><trkpt lat="44.95327148396668" lon="9.981208334589837"><ele>46.0</ele><time>2026-04-18T05:55:19.999Z</time></trkpt><trkpt lat="44.95320221202696" lon="9.981153096553566"><ele>46.0</ele><time>2026-04-18T05:55:20.999Z</time></trkpt><trkpt lat="44.953131748678494" lon="9.98109770886188"><ele>46.0</ele><time>2026-04-18T05:55:21.999Z</time></trkpt><trkpt lat="44.95306172942706" lon="9.981041020167455"><ele>46.0</ele><time>2026-04-18T05:55:22.999Z</time></trkpt><trkpt lat="44.952992282132115" lon="9.98098575887009"><ele>46.0</ele><time>2026-04-18T05:55:23.999Z</time></trkpt><trkpt lat="44.95292129849489" lon="9.980928213937904"><ele>46.0</ele><time>2026-04-18T05:55:24.999Z</time></trkpt><trkpt lat="44.952851321984866" lon="9.980873497914644"><ele>46.0</ele><time>2026-04-18T05:55:25.999Z</time></trkpt><trkpt lat="44.952780566161145" lon="9.980819604829827"><ele>46.0</ele><time>2026-04-18T05:55:26.999Z</time></trkpt><trkpt lat="44.9527103377366" lon="9.980759108826991"><ele>46.0</ele><time>2026-04-18T05:55:27.999Z</time></trkpt><trkpt lat="44.95263983357349" lon="9.980704275921894"><ele>46.0</ele><time>2026-04-18T05:55:28.999Z</time></trkpt><trkpt lat="44.952569634524764" lon="9.980647518274093"><ele>46.0</ele><time>2026-04-18T05:55:29.999Z</time></trkpt><trkpt lat="44.95250120237146" lon="9.980593587725659"><ele>46.16666666666667</ele><time>2026-04-18T05:55:30.999Z</time></trkpt><trkpt lat="44.95243136010422" lon="9.980537140223243"><ele>46.333333333333336</ele><time>2026-04-18T05:55:31.999Z</time></trkpt><trkpt lat="44.95236078701788" lon="9.98048232190765"><ele>46.5</ele><time>2026-04-18T05:55:32.999Z</time></trkpt><trkpt lat="44.952293163508884" lon="9.980427575904406"><ele>46.666666666666664</ele><time>2026-04-18T05:55:33.999Z</time></trkpt><trkpt lat="44.952223368609936" lon="9.980369179907106"><ele>46.83333333333333</ele><time>2026-04-18T05:55:34.999Z</time></trkpt><trkpt lat="44.95215311986255" lon="9.980314350565072"><ele>47.0</ele><time>2026-04-18T05:55:35.999Z</time></trkpt><trkpt lat="44.9520826928748" lon="9.980261454797997"><ele>47.0</ele><time>2026-04-18T05:55:36.999Z</time></trkpt><trkpt lat="44.95201191449785" lon="9.980206500814893"><ele>47.0</ele><time>2026-04-18T05:55:37.999Z</time></trkpt><trkpt lat="44.95193980778094" lon="9.980150294471638"><ele>47.0</ele><time>2026-04-18T05:55:38.999Z</time></trkpt><trkpt lat="44.951867194347656" lon="9.980094982201143"><ele>47.0</ele><time>2026-04-18T05:55:39.999Z</time></trkpt><trkpt lat="44.951792771541655" lon="9.980038498732796"><ele>47.0</ele><time>2026-04-18T05:55:40.999Z</time></trkpt><trkpt lat="44.95172230273301" lon="9.97998262662087"><ele>47.0</ele><time>2026-04-18T05:55:41.999Z</time></trkpt><trkpt lat="44.951650962400436" lon="9.97992486944108"><ele>46.83333333333333</ele><time>2026-04-18T05:55:42.999Z</time></trkpt><trkpt lat="44.95157980705428" lon="9.979867570694834"><ele>46.666666666666664</ele><time>2026-04-18T05:55:43.999Z</time></trkpt><trkpt lat="44.951510179262755" lon="9.979812372092066"><ele>46.5</ele><time>2026-04-18T05:55:44.999Z</time></trkpt><trkpt lat="44.95143706220753" lon="9.979758351922996"><ele>46.333333333333336</ele><time>2026-04-18T05:55:45.999Z</time></trkpt><trkpt lat="44.95136431614833" lon="9.979710774096242"><ele>46.16666666666667</ele><time>2026-04-18T05:55:46.999Z</time></trkpt><trkpt lat="44.95129003669639" lon="9.979663514814915"><ele>46.0</ele><time>2026-04-18T05:55:47.999Z</time></trkpt><trkpt lat="44.951214248196735" lon="9.979626459059919"><ele>46.0</ele><time>2026-04-18T05:55:48.999Z</time></trkpt><trkpt lat="44.951133101979366" lon="9.979604793731596"><ele>46.0</ele><time>2026-04-18T05:55:49.999Z</time></trkpt><trkpt lat="44.951050664597894" lon="9.979586306009884"><ele>46.0</ele><time>2026-04-18T05:55:50.999Z</time></trkpt><trkpt lat="44.95096916528806" lon="9.979579031016886"><ele>46.0</ele><time>2026-04-18T05:55:51.999Z</time></trkpt><trkpt lat="44.95088551061878" lon="9.97957952733007"><ele>46.0</ele><time>2026-04-18T05:55:52.999Z</time></trkpt><trkpt lat="44.950803812919865" lon="9.979578158892572"><ele>46.0</ele><time>2026-04-18T05:55:53.999Z</time></trkpt><trkpt lat="44.950721597622916" lon="9.979576410327907"><ele>45.66666666666667</ele><time>2026-04-18T05:55:54.999Z</time></trkpt><trkpt lat="44.95063884266553" lon="9.979575222605645"><ele>45.333333333333336</ele><time>2026-04-18T05:55:55.999Z</time></trkpt><trkpt lat="44.95055645319282" lon="9.979574336620816"><ele>45.0</ele><time>2026-04-18T05:55:56.999Z</time></trkpt><trkpt lat="44.950472717207035" lon="9.979573171102802"><ele>44.666666666666664</ele><time>2026-04-18T05:55:57.999Z</time></trkpt><trkpt lat="44.95039071116215" lon="9.979571158223266"><ele>44.33333333333333</ele><time>2026-04-18T05:55:58.999Z</time></trkpt><trkpt lat="44.950308461036805" lon="9.979570980453037"><ele>44.0</ele><time>2026-04-18T05:55:59.999Z</time></trkpt><trkpt lat="44.950228779073555" lon="9.97954662078717"><ele>44.0</ele><time>2026-04-18T05:56:00.999Z</time></trkpt><trkpt lat="44.95014744015223" lon="9.979545114510646"><ele>44.0</ele><time>2026-04-18T05:56:01.999Z</time></trkpt><trkpt lat="44.950066806278286" lon="9.97954362129009"><ele>44.0</ele><time>2026-04-18T05:56:02.999Z</time></trkpt><trkpt lat="44.949985672146774" lon="9.979565346927489"><ele>44.0</ele><time>2026-04-18T05:56:03.998Z</time></trkpt><trkpt lat="44.94990410107331" lon="9.979563648370162"><ele>44.0</ele><time>2026-04-18T05:56:04.998Z</time></trkpt><trkpt lat="44.94982168134324" lon="9.97956054964163"><ele>44.0</ele><time>2026-04-18T05:56:05.998Z</time></trkpt><trkpt lat="44.94973945216453" lon="9.979559304598606"><ele>44.166666666666664</ele><time>2026-04-18T05:56:06.998Z</time></trkpt><trkpt lat="44.94965798084846" lon="9.979556457412645"><ele>44.33333333333333</ele><time>2026-04-18T05:56:07.998Z</time></trkpt><trkpt lat="44.949577405524984" lon="9.979554182660006"><ele>44.5</ele><time>2026-04-18T05:56:08.998Z</time></trkpt><trkpt lat="44.94949515010873" lon="9.979552589205786"><ele>44.666666666666664</ele><time>2026-04-18T05:56:09.998Z</time></trkpt><trkpt lat="44.94941260313579" lon="9.979551401074177"><ele>44.833333333333336</ele><time>2026-04-18T05:56:10.998Z</time></trkpt><trkpt lat="44.94933160590051" lon="9.979548752896067"><ele>45.0</ele><time>2026-04-18T05:56:11.998Z</time></trkpt><trkpt lat="44.94925166404849" lon="9.979550530087987"><ele>45.166666666666664</ele><time>2026-04-18T05:56:12.998Z</time></trkpt><trkpt lat="44.949174574698816" lon="9.979548270978595"><ele>45.333333333333336</ele><time>2026-04-18T05:56:13.998Z</time></trkpt><trkpt lat="44.949101157302266" lon="9.979548345535317"><ele>45.5</ele><time>2026-04-18T05:56:14.998Z</time></trkpt><trkpt lat="44.94902266493712" lon="9.979545526155434"><ele>45.66666666666667</ele><time>2026-04-18T05:56:15.998Z</time></trkpt><trkpt lat="44.94894858304515" lon="9.979541051806972"><ele>45.833333333333336</ele><time>2026-04-18T05:56:16.998Z</time></trkpt><trkpt lat="44.948875858151034" lon="9.979532067597061"><ele>46.0</ele><time>2026-04-18T05:56:17.998Z</time></trkpt><trkpt lat="44.94880214804065" lon="9.979509718810965"><ele>46.0</ele><time>2026-04-18T05:56:18.998Z</time></trkpt><trkpt lat="44.948732868094034" lon="9.979482726688358"><ele>46.0</ele><time>2026-04-18T05:56:19.998Z</time></trkpt><trkpt lat="44.9486608239273" lon="9.979446276538267"><ele>46.0</ele><time>2026-04-18T05:56:20.998Z</time></trkpt><trkpt lat="44.94859107616666" lon="9.97941185170097"><ele>46.0</ele><time>2026-04-18T05:56:21.998Z</time></trkpt><trkpt lat="44.94851752097573" lon="9.97937244085643"><ele>46.0</ele><time>2026-04-18T05:56:22.998Z</time></trkpt><trkpt lat="44.94844327944121" lon="9.979335153418562"><ele>46.0</ele><time>2026-04-18T05:56:23.998Z</time></trkpt><trkpt lat="44.94836895601058" lon="9.979294403248721"><ele>46.16666666666667</ele><time>2026-04-18T05:56:24.998Z</time></trkpt><trkpt lat="44.94829506932891" lon="9.97925395579343"><ele>46.333333333333336</ele><time>2026-04-18T05:56:25.998Z</time></trkpt><trkpt lat="44.948220808551774" lon="9.979214892200932"><ele>46.5</ele><time>2026-04-18T05:56:26.998Z</time></trkpt><trkpt lat="44.9481460299952" lon="9.97917460077447"><ele>46.666666666666664</ele><time>2026-04-18T05:56:27.998Z</time></trkpt><trkpt lat="44.94807198334564" lon="9.979134629574107"><ele>46.83333333333333</ele><time>2026-04-18T05:56:28.998Z</time></trkpt><trkpt lat="44.947997208411614" lon="9.979092033237158"><ele>47.0</ele><time>2026-04-18T05:56:29.998Z</time></trkpt><trkpt lat="44.94792210017474" lon="9.979051250283003"><ele>47.166666666666664</ele><time>2026-04-18T05:56:30.998Z</time></trkpt><trkpt lat="44.947847538939456" lon="9.979011108982794"><ele>47.33333333333333</ele><time>2026-04-18T05:56:31.998Z</time></trkpt><trkpt lat="44.9477721678357" lon="9.978970146649237"><ele>47.5</ele><time>2026-04-18T05:56:32.998Z</time></trkpt><trkpt lat="44.94769686062126" lon="9.97893223605544"><ele>47.666666666666664</ele><time>2026-04-18T05:56:33.998Z</time></trkpt><trkpt lat="44.94762066987117" lon="9.978892026988797"><ele>47.833333333333336</ele><time>2026-04-18T05:56:34.998Z</time></trkpt><trkpt lat="44.94754528834845" lon="9.978851445571927"><ele>48.0</ele><time>2026-04-18T05:56:35.998Z</time></trkpt><trkpt lat="44.9474709076126" lon="9.97881054861228"><ele>48.0</ele><time>2026-04-18T05:56:36.998Z</time></trkpt><trkpt lat="44.94739046056649" lon="9.978767611278846"><ele>48.0</ele><time>2026-04-18T05:56:37.998Z</time></trkpt><trkpt lat="44.94731363990052" lon="9.978724581472976"><ele>48.0</ele><time>2026-04-18T05:56:38.998Z</time></trkpt><trkpt lat="44.947237291374364" lon="9.97868567175409"><ele>48.0</ele><time>2026-04-18T05:56:39.998Z</time></trkpt><trkpt lat="44.94715973047973" lon="9.978644191851268"><ele>48.0</ele><time>2026-04-18T05:56:40.998Z</time></trkpt><trkpt lat="44.94708322230706" lon="9.978600685201851"><ele>48.0</ele><time>2026-04-18T05:56:41.998Z</time></trkpt><trkpt lat="44.947007105687256" lon="9.978560622756095"><ele>48.0</ele><time>2026-04-18T05:56:42.998Z</time></trkpt><trkpt lat="44.94693006949698" lon="9.978519385818363"><ele>48.0</ele><time>2026-04-18T05:56:43.998Z</time></trkpt><trkpt lat="44.946852299456495" lon="9.978477600517692"><ele>48.0</ele><time>2026-04-18T05:56:44.998Z</time></trkpt><trkpt lat="44.94677509624368" lon="9.978436948486339"><ele>48.0</ele><time>2026-04-18T05:56:46Z</time></trkpt><trkpt lat="44.94669827357461" lon="9.978395202853234"><ele>48.0</ele><time>2026-04-18T05:56:47Z</time></trkpt><trkpt lat="44.946622760209046" lon="9.978352668626224"><ele>48.0</ele><time>2026-04-18T05:56:48Z</time></trkpt><trkpt lat="44.946546996989156" lon="9.978312885158468"><ele>48.0</ele><time>2026-04-18T05:56:49Z</time></trkpt><trkpt lat="44.94647072708693" lon="9.978273129668366"><ele>48.0</ele><time>2026-04-18T05:56:50Z</time></trkpt><trkpt lat="44.946395658250374" lon="9.978234137701763"><ele>48.0</ele><time>2026-04-18T05:56:51Z</time></trkpt><trkpt lat="44.94632121504557" lon="9.978193548363679"><ele>48.0</ele><time>2026-04-18T05:56:52Z</time></trkpt><trkpt lat="44.94624628960503" lon="9.978153073520357"><ele>48.0</ele><time>2026-04-18T05:56:53Z</time></trkpt><trkpt lat="44.94617170819922" lon="9.978112844643526"><ele>48.0</ele><time>2026-04-18T05:56:54Z</time></trkpt><trkpt lat="44.94609796306406" lon="9.978071689071761"><ele>48.0</ele><time>2026-04-18T05:56:55Z</time></trkpt><trkpt lat="44.94602190818148" lon="9.978033937630036"><ele>48.0</ele><time>2026-04-18T05:56:56Z</time></trkpt><trkpt lat="44.94594663447082" lon="9.977998299843007"><ele>48.0</ele><time>2026-04-18T05:56:57Z</time></trkpt><trkpt lat="44.945872736261364" lon="9.977955664465076"><ele>48.0</ele><time>2026-04-18T05:56:58Z</time></trkpt><trkpt lat="44.94579865473258" lon="9.977914171761391"><ele>48.0</ele><time>2026-04-18T05:56:59Z</time></trkpt><trkpt lat="44.945725229026756" lon="9.977873699097806"><ele>48.0</ele><time>2026-04-18T05:57:00Z</time></trkpt><trkpt lat="44.94565145100248" lon="9.977834102856551"><ele>48.333333333333336</ele><time>2026-04-18T05:57:01Z</time></trkpt><trkpt lat="44.945576786641965" lon="9.97779407812016"><ele>48.66666666666667</ele><time>2026-04-18T05:57:02Z</time></trkpt><trkpt lat="44.94550366513867" lon="9.97775535640276"><ele>49.0</ele><time>2026-04-18T05:57:03Z</time></trkpt><trkpt lat="44.94542782455098" lon="9.977716100770714"><ele>49.333333333333336</ele><time>2026-04-18T05:57:04Z</time></trkpt><trkpt lat="44.94535192563534" lon="9.977679125083739"><ele>49.66666666666667</ele><time>2026-04-18T05:57:05Z</time></trkpt><trkpt lat="44.945277580835985" lon="9.97763904089728"><ele>50.0</ele><time>2026-04-18T05:57:06Z</time></trkpt><trkpt lat="44.94520250063761" lon="9.977596124623211"><ele>50.00000000000001</ele><time>2026-04-18T05:57:07Z</time></trkpt><trkpt lat="44.945127751847544" lon="9.977556173418177"><ele>50.0</ele><time>2026-04-18T05:57:08Z</time></trkpt><trkpt lat="44.9450520770989" lon="9.977515735643786"><ele>50.0</ele><time>2026-04-18T05:57:09Z</time></trkpt><trkpt lat="44.94497697867957" lon="9.977475969102397"><ele>50.0</ele><time>2026-04-18T05:57:10Z</time></trkpt><trkpt lat="44.94490157982048" lon="9.977437365994287"><ele>50.00000000000001</ele><time>2026-04-18T05:57:11Z</time></trkpt><trkpt lat="44.94482535854962" lon="9.977396913948759"><ele>50.0</ele><time>2026-04-18T05:57:12Z</time></trkpt><trkpt lat="44.94475104207205" lon="9.97735612950496"><ele>50.00000000000001</ele><time>2026-04-18T05:57:12.999Z</time></trkpt><trkpt lat="44.944674934010564" lon="9.977315509584459"><ele>50.0</ele><time>2026-04-18T05:57:13.999Z</time></trkpt><trkpt lat="44.94460011281833" lon="9.977276008601063"><ele>50.0</ele><time>2026-04-18T05:57:14.999Z</time></trkpt><trkpt lat="44.94452527949871" lon="9.977237343206346"><ele>50.0</ele><time>2026-04-18T05:57:15.999Z</time></trkpt><trkpt lat="44.94444968465246" lon="9.977198990673335"><ele>50.00000000000001</ele><time>2026-04-18T05:57:16.999Z</time></trkpt><trkpt lat="44.94437503870012" lon="9.977157386524825"><ele>50.0</ele><time>2026-04-18T05:57:17.999Z</time></trkpt><trkpt lat="44.9443008079426" lon="9.977117485980589"><ele>50.00000000000001</ele><time>2026-04-18T05:57:18.999Z</time></trkpt><trkpt lat="44.9442249453138" lon="9.977075611740366"><ele>50.0</ele><time>2026-04-18T05:57:19.999Z</time></trkpt><trkpt lat="44.944148342066086" lon="9.977036917601847"><ele>50.0</ele><time>2026-04-18T05:57:20.999Z</time></trkpt><trkpt lat="44.94407268634396" lon="9.976998372943267"><ele>50.0</ele><time>2026-04-18T05:57:21.999Z</time></trkpt><trkpt lat="44.94399538565289" lon="9.976957264880491"><ele>50.00000000000001</ele><time>2026-04-18T05:57:22.999Z</time></trkpt><trkpt lat="44.94391982874428" lon="9.976914131052196"><ele>50.0</ele><time>2026-04-18T05:57:23.999Z</time></trkpt><trkpt lat="44.94384394014299" lon="9.976871408101701"><ele>50.00000000000001</ele><time>2026-04-18T05:57:24.999Z</time></trkpt><trkpt lat="44.94376791300625" lon="9.976832477213042"><ele>50.0</ele><time>2026-04-18T05:57:25.999Z</time></trkpt><trkpt lat="44.94368963394619" lon="9.97679429267325"><ele>50.0</ele><time>2026-04-18T05:57:26.999Z</time></trkpt><trkpt lat="44.94361250150014" lon="9.976755320893322"><ele>50.0</ele><time>2026-04-18T05:57:27.999Z</time></trkpt><trkpt lat="44.943536660192855" lon="9.976713490143494"><ele>50.00000000000001</ele><time>2026-04-18T05:57:28.999Z</time></trkpt><trkpt lat="44.943460797877435" lon="9.97667403328852"><ele>50.0</ele><time>2026-04-18T05:57:29.999Z</time></trkpt><trkpt lat="44.94338499532094" lon="9.976637058144865"><ele>49.50000000000001</ele><time>2026-04-18T05:57:30.999Z</time></trkpt><trkpt lat="44.9433097061079" lon="9.97659786499847"><ele>49.0</ele><time>2026-04-18T05:57:31.999Z</time></trkpt><trkpt lat="44.94323626943085" lon="9.97655739211751"><ele>48.5</ele><time>2026-04-18T05:57:32.999Z</time></trkpt><trkpt lat="44.943160950989906" lon="9.97651796445459"><ele>48.0</ele><time>2026-04-18T05:57:33.999Z</time></trkpt><trkpt lat="44.9430870785344" lon="9.976478643379108"><ele>47.5</ele><time>2026-04-18T05:57:34.999Z</time></trkpt><trkpt lat="44.94301166141117" lon="9.976440328996361"><ele>47.0</ele><time>2026-04-18T05:57:35.999Z</time></trkpt><trkpt lat="44.94293686755853" lon="9.976398477327926"><ele>47.0</ele><time>2026-04-18T05:57:36.999Z</time></trkpt><trkpt lat="44.942861387151225" lon="9.976357867430865"><ele>47.0</ele><time>2026-04-18T05:57:37.999Z</time></trkpt><trkpt lat="44.94278537859058" lon="9.976319010104145"><ele>47.0</ele><time>2026-04-18T05:57:38.999Z</time></trkpt><trkpt lat="44.94270988945024" lon="9.976279584212236"><ele>47.0</ele><time>2026-04-18T05:57:39.999Z</time></trkpt><trkpt lat="44.942634081324975" lon="9.976240268322838"><ele>47.0</ele><time>2026-04-18T05:57:40.999Z</time></trkpt><trkpt lat="44.942558044970866" lon="9.976201343692205"><ele>47.0</ele><time>2026-04-18T05:57:41.999Z</time></trkpt><trkpt lat="44.94248159243728" lon="9.9761593093975"><ele>46.83333333333333</ele><time>2026-04-18T05:57:42.999Z</time></trkpt><trkpt lat="44.94240649432991" lon="9.976121803629356"><ele>46.666666666666664</ele><time>2026-04-18T05:57:43.999Z</time></trkpt><trkpt lat="44.94233003726786" lon="9.976081349254814"><ele>46.5</ele><time>2026-04-18T05:57:44.999Z</time></trkpt><trkpt lat="44.94225471338174" lon="9.976038745700377"><ele>46.333333333333336</ele><time>2026-04-18T05:57:45.999Z</time></trkpt><trkpt lat="44.94218023736676" lon="9.976003184722405"><ele>46.16666666666667</ele><time>2026-04-18T05:57:46.999Z</time></trkpt><trkpt lat="44.94210181580532" lon="9.975962820004012"><ele>46.0</ele><time>2026-04-18T05:57:47.999Z</time></trkpt><trkpt lat="44.942025478668754" lon="9.975923032730828"><ele>46.0</ele><time>2026-04-18T05:57:48.999Z</time></trkpt><trkpt lat="44.94194946778685" lon="9.975880749835415"><ele>46.0</ele><time>2026-04-18T05:57:49.999Z</time></trkpt><trkpt lat="44.94187443162476" lon="9.97584060024885"><ele>46.0</ele><time>2026-04-18T05:57:50.999Z</time></trkpt><trkpt lat="44.94179882818561" lon="9.97580235231689"><ele>46.0</ele><time>2026-04-18T05:57:51.999Z</time></trkpt><trkpt lat="44.941721881305476" lon="9.975761296325066"><ele>46.0</ele><time>2026-04-18T05:57:52.999Z</time></trkpt><trkpt lat="44.941646044548335" lon="9.97572009619751"><ele>46.0</ele><time>2026-04-18T05:57:53.999Z</time></trkpt><trkpt lat="44.94157102764554" lon="9.9756810194661"><ele>45.833333333333336</ele><time>2026-04-18T05:57:54.999Z</time></trkpt><trkpt lat="44.941494986533925" lon="9.975643765199303"><ele>45.66666666666667</ele><time>2026-04-18T05:57:55.999Z</time></trkpt><trkpt lat="44.941419708125046" lon="9.975604098703027"><ele>45.5</ele><time>2026-04-18T05:57:56.999Z</time></trkpt><trkpt lat="44.94134475270511" lon="9.97556372952851"><ele>45.333333333333336</ele><time>2026-04-18T05:57:57.999Z</time></trkpt><trkpt lat="44.941269674429456" lon="9.975523278274535"><ele>45.166666666666664</ele><time>2026-04-18T05:57:58.999Z</time></trkpt><trkpt lat="44.94119504499722" lon="9.975485310548539"><ele>45.0</ele><time>2026-04-18T05:57:59.999Z</time></trkpt><trkpt lat="44.94112016477492" lon="9.975446309861374"><ele>45.0</ele><time>2026-04-18T05:58:00.999Z</time></trkpt><trkpt lat="44.941045347964625" lon="9.975408146299921"><ele>45.0</ele><time>2026-04-18T05:58:01.999Z</time></trkpt><trkpt lat="44.94097027271056" lon="9.975372962731411"><ele>45.0</ele><time>2026-04-18T05:58:02.999Z</time></trkpt><trkpt lat="44.94089612379839" lon="9.975332932747593"><ele>45.0</ele><time>2026-04-18T05:58:03.999Z</time></trkpt><trkpt lat="44.94082112563852" lon="9.975292867133009"><ele>45.0</ele><time>2026-04-18T05:58:04.999Z</time></trkpt><trkpt lat="44.940747633079" lon="9.975252882338685"><ele>45.0</ele><time>2026-04-18T05:58:05.999Z</time></trkpt><trkpt lat="44.94067251546555" lon="9.975215807996074"><ele>45.5</ele><time>2026-04-18T05:58:06.999Z</time></trkpt><trkpt lat="44.94059699408221" lon="9.975183327978671"><ele>46.0</ele><time>2026-04-18T05:58:07.998Z</time></trkpt><trkpt lat="44.94052235541849" lon="9.975143940918551"><ele>46.5</ele><time>2026-04-18T05:58:08.998Z</time></trkpt><trkpt lat="44.940447516883644" lon="9.97510411669975"><ele>47.0</ele><time>2026-04-18T05:58:09.998Z</time></trkpt><trkpt lat="44.94037078148872" lon="9.97506686659318"><ele>47.5</ele><time>2026-04-18T05:58:10.998Z</time></trkpt><trkpt lat="44.94029536668812" lon="9.975024830916047"><ele>48.0</ele><time>2026-04-18T05:58:11.998Z</time></trkpt><trkpt lat="44.94022007958892" lon="9.974987279294774"><ele>48.0</ele><time>2026-04-18T05:58:12.998Z</time></trkpt><trkpt lat="44.94014442521776" lon="9.974947281903685"><ele>48.0</ele><time>2026-04-18T05:58:13.998Z</time></trkpt><trkpt lat="44.94006926008315" lon="9.974912211060415"><ele>48.0</ele><time>2026-04-18T05:58:14.998Z</time></trkpt><trkpt lat="44.93999592761471" lon="9.974875892236772"><ele>48.0</ele><time>2026-04-18T05:58:15.998Z</time></trkpt><trkpt lat="44.93992068790457" lon="9.97484144184015"><ele>48.0</ele><time>2026-04-18T05:58:16.998Z</time></trkpt><trkpt lat="44.93984622447352" lon="9.97480568258195"><ele>48.0</ele><time>2026-04-18T05:58:17.998Z</time></trkpt><trkpt lat="44.93977310719502" lon="9.974768135108953"><ele>47.833333333333336</ele><time>2026-04-18T05:58:18.998Z</time></trkpt><trkpt lat="44.93970402213857" lon="9.974709563509114"><ele>47.666666666666664</ele><time>2026-04-18T05:58:19.998Z</time></trkpt><trkpt lat="44.939629060402744" lon="9.974672893875981"><ele>47.5</ele><time>2026-04-18T05:58:20.998Z</time></trkpt><trkpt lat="44.939547685142685" lon="9.974657683533689"><ele>47.33333333333333</ele><time>2026-04-18T05:58:21.998Z</time></trkpt><trkpt lat="44.93947272254042" lon="9.974622292155718"><ele>47.166666666666664</ele><time>2026-04-18T05:58:22.998Z</time></trkpt><trkpt lat="44.93939978307743" lon="9.974578988479538"><ele>47.0</ele><time>2026-04-18T05:58:23.998Z</time></trkpt><trkpt lat="44.939320164489715" lon="9.974539727309546"><ele>47.0</ele><time>2026-04-18T05:58:24.998Z</time></trkpt><trkpt lat="44.93924336823827" lon="9.97450365201752"><ele>47.0</ele><time>2026-04-18T05:58:25.998Z</time></trkpt><trkpt lat="44.939165450157816" lon="9.9744695769787"><ele>47.0</ele><time>2026-04-18T05:58:26.998Z</time></trkpt><trkpt lat="44.93908888494948" lon="9.974435466773263"><ele>47.0</ele><time>2026-04-18T05:58:27.998Z</time></trkpt><trkpt lat="44.93901269532533" lon="9.97439554594392"><ele>47.0</ele><time>2026-04-18T05:58:28.998Z</time></trkpt><trkpt lat="44.93893575476847" lon="9.974357969198685"><ele>47.0</ele><time>2026-04-18T05:58:29.998Z</time></trkpt><trkpt lat="44.93885947465843" lon="9.974320562825996"><ele>47.166666666666664</ele><time>2026-04-18T05:58:30.998Z</time></trkpt><trkpt lat="44.93878415840052" lon="9.974282568404227"><ele>47.33333333333333</ele><time>2026-04-18T05:58:31.998Z</time></trkpt><trkpt lat="44.93871143586598" lon="9.974239968637383"><ele>47.5</ele><time>2026-04-18T05:58:32.998Z</time></trkpt><trkpt lat="44.938635703634056" lon="9.974201986317798"><ele>47.666666666666664</ele><time>2026-04-18T05:58:33.998Z</time></trkpt><trkpt lat="44.93855939505214" lon="9.974162916916613"><ele>47.833333333333336</ele><time>2026-04-18T05:58:34.998Z</time></trkpt><trkpt lat="44.93848427471093" lon="9.974122989841158"><ele>48.0</ele><time>2026-04-18T05:58:35.998Z</time></trkpt><trkpt lat="44.93841070462538" lon="9.9740800079403"><ele>48.0</ele><time>2026-04-18T05:58:36.998Z</time></trkpt><trkpt lat="44.938334516301964" lon="9.974036386471964"><ele>48.0</ele><time>2026-04-18T05:58:37.998Z</time></trkpt><trkpt lat="44.93826051108719" lon="9.973999429503202"><ele>48.0</ele><time>2026-04-18T05:58:38.998Z</time></trkpt><trkpt lat="44.938186725919486" lon="9.973959220169421"><ele>48.0</ele><time>2026-04-18T05:58:39.998Z</time></trkpt><trkpt lat="44.93811435626543" lon="9.973921017472934"><ele>48.0</ele><time>2026-04-18T05:58:40.998Z</time></trkpt><trkpt lat="44.938040086697235" lon="9.973879861645818"><ele>48.0</ele><time>2026-04-18T05:58:41.998Z</time></trkpt><trkpt lat="44.93796612813639" lon="9.973838691315152"><ele>48.0</ele><time>2026-04-18T05:58:42.998Z</time></trkpt><trkpt lat="44.93788702104643" lon="9.973794344269077"><ele>48.0</ele><time>2026-04-18T05:58:43.998Z</time></trkpt><trkpt lat="44.93781008741211" lon="9.973751899542922"><ele>48.0</ele><time>2026-04-18T05:58:44.998Z</time></trkpt><trkpt lat="44.93773616654919" lon="9.973706977482214"><ele>48.0</ele><time>2026-04-18T05:58:45.998Z</time></trkpt><trkpt lat="44.93766443214838" lon="9.973662155794983"><ele>48.0</ele><time>2026-04-18T05:58:46.998Z</time></trkpt><trkpt lat="44.93759239232013" lon="9.973617435650793"><ele>48.0</ele><time>2026-04-18T05:58:47.998Z</time></trkpt><trkpt lat="44.93752164465909" lon="9.973574290940624"><ele>48.0</ele><time>2026-04-18T05:58:48.998Z</time></trkpt><trkpt lat="44.93745187938294" lon="9.973529588935111"><ele>48.0</ele><time>2026-04-18T05:58:49.998Z</time></trkpt><trkpt lat="44.93738056508387" lon="9.973481817166093"><ele>48.0</ele><time>2026-04-18T05:58:50.998Z</time></trkpt><trkpt lat="44.937310444297225" lon="9.973436887297844"><ele>48.0</ele><time>2026-04-18T05:58:52Z</time></trkpt><trkpt lat="44.937239426651416" lon="9.97339560004887"><ele>48.0</ele><time>2026-04-18T05:58:53Z</time></trkpt><trkpt lat="44.937168848211826" lon="9.973353998356421"><ele>48.0</ele><time>2026-04-18T05:58:54Z</time></trkpt><trkpt lat="44.93709977922605" lon="9.97330933140951"><ele>48.0</ele><time>2026-04-18T05:58:55Z</time></trkpt><trkpt lat="44.937028386018646" lon="9.973265200752454"><ele>48.0</ele><time>2026-04-18T05:58:56Z</time></trkpt><trkpt lat="44.93696015926022" lon="9.973220051900874"><ele>48.0</ele><time>2026-04-18T05:58:57Z</time></trkpt><trkpt lat="44.936890981683106" lon="9.973175411074555"><ele>48.0</ele><time>2026-04-18T05:58:58Z</time></trkpt><trkpt lat="44.93682351089387" lon="9.973132552231226"><ele>48.0</ele><time>2026-04-18T05:58:59Z</time></trkpt><trkpt lat="44.93675654518324" lon="9.973088456620925"><ele>48.0</ele><time>2026-04-18T05:59:00Z</time></trkpt><trkpt lat="44.936689329676504" lon="9.973045044733137"><ele>47.99999999999999</ele><time>2026-04-18T05:59:01Z</time></trkpt><trkpt lat="44.93662319152436" lon="9.973004589566177"><ele>48.0</ele><time>2026-04-18T05:59:02Z</time></trkpt><trkpt lat="44.93655675912771" lon="9.972960814342095"><ele>48.0</ele><time>2026-04-18T05:59:03Z</time></trkpt><trkpt lat="44.93649405310926" lon="9.972918116189659"><ele>48.0</ele><time>2026-04-18T05:59:04Z</time></trkpt><trkpt lat="44.93643048914248" lon="9.972878025218792"><ele>48.0</ele><time>2026-04-18T05:59:05Z</time></trkpt><trkpt lat="44.93636848742045" lon="9.972836180228516"><ele>47.99999999999999</ele><time>2026-04-18T05:59:06Z</time></trkpt><trkpt lat="44.936305164566726" lon="9.972794418239113"><ele>48.0</ele><time>2026-04-18T05:59:07Z</time></trkpt><trkpt lat="44.936240341198314" lon="9.97275595265164"><ele>47.99999999999999</ele><time>2026-04-18T05:59:08Z</time></trkpt><trkpt lat="44.93617828597562" lon="9.972720248555923"><ele>48.0</ele><time>2026-04-18T05:59:09Z</time></trkpt><trkpt lat="44.936118227867524" lon="9.972680634705009"><ele>48.0</ele><time>2026-04-18T05:59:10Z</time></trkpt><trkpt lat="44.9360599403827" lon="9.972639699294357"><ele>48.0</ele><time>2026-04-18T05:59:11Z</time></trkpt><trkpt lat="44.935997977864105" lon="9.972602386538012"><ele>48.0</ele><time>2026-04-18T05:59:12Z</time></trkpt><trkpt lat="44.93593974454468" lon="9.972562110298352"><ele>47.99999999999999</ele><time>2026-04-18T05:59:13Z</time></trkpt><trkpt lat="44.93587849349554" lon="9.9725253802586"><ele>48.0</ele><time>2026-04-18T05:59:14Z</time></trkpt><trkpt lat="44.93582139059887" lon="9.972487371644542"><ele>47.8</ele><time>2026-04-18T05:59:15Z</time></trkpt><trkpt lat="44.93576081189735" lon="9.972448927236263"><ele>47.599999999999994</ele><time>2026-04-18T05:59:16Z</time></trkpt><trkpt lat="44.93564608040375" lon="9.972375614779404"><ele>47.400000000000006</ele><time>2026-04-18T05:59:17.999Z</time></trkpt><trkpt lat="44.93553187504335" lon="9.972303919638449"><ele>47.2</ele><time>2026-04-18T05:59:19.999Z</time></trkpt><trkpt lat="44.93541850887898" lon="9.972230720665861"><ele>47.0</ele><time>2026-04-18T05:59:21.999Z</time></trkpt><trkpt lat="44.93535898587585" lon="9.972200085692263"><ele>47.0</ele><time>2026-04-18T05:59:22.999Z</time></trkpt><trkpt lat="44.93524189609647" lon="9.972135212382396"><ele>47.0</ele><time>2026-04-18T05:59:24.999Z</time></trkpt><trkpt lat="44.935124646953305" lon="9.972081746819237"><ele>47.0</ele><time>2026-04-18T05:59:26.999Z</time></trkpt><trkpt lat="44.93506409571651" lon="9.972054176331339"><ele>47.0</ele><time>2026-04-18T05:59:27.999Z</time></trkpt><trkpt lat="44.93500126113976" lon="9.972026031151442"><ele>47.0</ele><time>2026-04-18T05:59:28.999Z</time></trkpt><trkpt lat="44.93488033958692" lon="9.971982368788575"><ele>47.0</ele><time>2026-04-18T05:59:30.999Z</time></trkpt><trkpt lat="44.93481571106974" lon="9.971962798250088"><ele>47.0</ele><time>2026-04-18T05:59:31.999Z</time></trkpt><trkpt lat="44.93469307791074" lon="9.971919258914758"><ele>47.0</ele><time>2026-04-18T05:59:33.999Z</time></trkpt><trkpt lat="44.93457247870821" lon="9.971884163210468"><ele>47.0</ele><time>2026-04-18T05:59:35.999Z</time></trkpt><trkpt lat="44.934509108142734" lon="9.971870913040812"><ele>47.0</ele><time>2026-04-18T05:59:36.999Z</time></trkpt><trkpt lat="44.93438505976695" lon="9.971845688087837"><ele>47.0</ele><time>2026-04-18T05:59:38.999Z</time></trkpt><trkpt lat="44.93432063636559" lon="9.971832433943348"><ele>47.0</ele><time>2026-04-18T05:59:39.999Z</time></trkpt><trkpt lat="44.93419425151825" lon="9.971817079862854"><ele>47.0</ele><time>2026-04-18T05:59:41.999Z</time></trkpt><trkpt lat="44.934127369507394" lon="9.971807201673103"><ele>47.0</ele><time>2026-04-18T05:59:42.999Z</time></trkpt><trkpt lat="44.9340608903302" lon="9.97179782551358"><ele>47.0</ele><time>2026-04-18T05:59:43.999Z</time></trkpt><trkpt lat="44.93399327296839" lon="9.971789719545233"><ele>47.0</ele><time>2026-04-18T05:59:44.999Z</time></trkpt><trkpt lat="44.93392412606129" lon="9.97178381923339"><ele>47.14285714285714</ele><time>2026-04-18T05:59:45.999Z</time></trkpt><trkpt lat="44.93385582423153" lon="9.971778150546763"><ele>47.285714285714285</ele><time>2026-04-18T05:59:46.999Z</time></trkpt><trkpt lat="44.93378599325829" lon="9.971769621566882"><ele>47.42857142857143</ele><time>2026-04-18T05:59:47.999Z</time></trkpt><trkpt lat="44.93371782677006" lon="9.971764546256622"><ele>47.57142857142857</ele><time>2026-04-18T05:59:48.999Z</time></trkpt><trkpt lat="44.93364832815946" lon="9.97175817205759"><ele>47.714285714285715</ele><time>2026-04-18T05:59:49.999Z</time></trkpt><trkpt lat="44.933576857113145" lon="9.97175197261535"><ele>47.857142857142854</ele><time>2026-04-18T05:59:50.999Z</time></trkpt><trkpt lat="44.93350750576969" lon="9.971745354017038"><ele>48.0</ele><time>2026-04-18T05:59:51.999Z</time></trkpt><trkpt lat="44.93343567671785" lon="9.97174056716284"><ele>47.833333333333336</ele><time>2026-04-18T05:59:52.999Z</time></trkpt><trkpt lat="44.933364709701344" lon="9.971731495954133"><ele>47.666666666666664</ele><time>2026-04-18T05:59:53.999Z</time></trkpt><trkpt lat="44.93329312577111" lon="9.971723978213314"><ele>47.5</ele><time>2026-04-18T05:59:54.999Z</time></trkpt><trkpt lat="44.93321890858315" lon="9.97171838235736"><ele>47.33333333333333</ele><time>2026-04-18T05:59:55.999Z</time></trkpt><trkpt lat="44.93314298383017" lon="9.971712354884675"><ele>47.166666666666664</ele><time>2026-04-18T05:59:56.999Z</time></trkpt><trkpt lat="44.93306590813136" lon="9.971705822898937"><ele>47.0</ele><time>2026-04-18T05:59:57.999Z</time></trkpt><trkpt lat="44.93298673812364" lon="9.971697473051195"><ele>47.0</ele><time>2026-04-18T05:59:58.999Z</time></trkpt><trkpt lat="44.93290578398014" lon="9.971690732586842"><ele>47.0</ele><time>2026-04-18T05:59:59.999Z</time></trkpt><trkpt lat="44.932821068472954" lon="9.971680051118136"><ele>47.0</ele><time>2026-04-18T06:00:00.999Z</time></trkpt><trkpt lat="44.93273712311976" lon="9.971669785926537"><ele>47.0</ele><time>2026-04-18T06:00:01.999Z</time></trkpt><trkpt lat="44.93265213138329" lon="9.971659332881508"><ele>47.0</ele><time>2026-04-18T06:00:02.999Z</time></trkpt><trkpt lat="44.93256301209853" lon="9.971653050943942"><ele>47.0</ele><time>2026-04-18T06:00:03.999Z</time></trkpt><trkpt lat="44.932474102342304" lon="9.97164774753343"><ele>47.400000000000006</ele><time>2026-04-18T06:00:04.999Z</time></trkpt><trkpt lat="44.932383387706835" lon="9.971636016541224"><ele>47.800000000000004</ele><time>2026-04-18T06:00:05.999Z</time></trkpt><trkpt lat="44.93228836940874" lon="9.971627717123376"><ele>48.2</ele><time>2026-04-18T06:00:06.999Z</time></trkpt><trkpt lat="44.93219248765785" lon="9.971616707256256"><ele>48.6</ele><time>2026-04-18T06:00:07.999Z</time></trkpt><trkpt lat="44.932099637450975" lon="9.971605962303764"><ele>49.0</ele><time>2026-04-18T06:00:08.999Z</time></trkpt><trkpt lat="44.932002415848046" lon="9.971594314976135"><ele>49.0</ele><time>2026-04-18T06:00:09.999Z</time></trkpt><trkpt lat="44.93190265484154" lon="9.97158413481193"><ele>49.0</ele><time>2026-04-18T06:00:10.999Z</time></trkpt><trkpt lat="44.93180282797848" lon="9.971574883051842"><ele>49.0</ele><time>2026-04-18T06:00:11.999Z</time></trkpt><trkpt lat="44.93170341595248" lon="9.971566603817104"><ele>49.0</ele><time>2026-04-18T06:00:12.998Z</time></trkpt><trkpt lat="44.93160449424711" lon="9.97155843903644"><ele>49.0</ele><time>2026-04-18T06:00:13.998Z</time></trkpt><trkpt lat="44.93150707328682" lon="9.971547443487458"><ele>49.0</ele><time>2026-04-18T06:00:14.998Z</time></trkpt><trkpt lat="44.931406496057896" lon="9.971536824349084"><ele>49.0</ele><time>2026-04-18T06:00:15.998Z</time></trkpt><trkpt lat="44.931306564027835" lon="9.971526565909283"><ele>49.0</ele><time>2026-04-18T06:00:16.998Z</time></trkpt><trkpt lat="44.931209756023264" lon="9.97151553244187"><ele>49.0</ele><time>2026-04-18T06:00:17.998Z</time></trkpt><trkpt lat="44.93111121115703" lon="9.971504987552866"><ele>49.0</ele><time>2026-04-18T06:00:18.998Z</time></trkpt><trkpt lat="44.931016015128094" lon="9.971493780103497"><ele>49.0</ele><time>2026-04-18T06:00:19.998Z</time></trkpt><trkpt lat="44.93092102966918" lon="9.971477696139454"><ele>49.0</ele><time>2026-04-18T06:00:20.998Z</time></trkpt><trkpt lat="44.930825925073435" lon="9.971464877927712"><ele>49.0</ele><time>2026-04-18T06:00:21.998Z</time></trkpt><trkpt lat="44.930734399521555" lon="9.971452459353612"><ele>49.0</ele><time>2026-04-18T06:00:22.998Z</time></trkpt><trkpt lat="44.93064433749485" lon="9.971435601367897"><ele>49.0</ele><time>2026-04-18T06:00:23.998Z</time></trkpt><trkpt lat="44.93055281897336" lon="9.971416019240582"><ele>49.166666666666664</ele><time>2026-04-18T06:00:24.998Z</time></trkpt><trkpt lat="44.93046295435641" lon="9.97140187871301"><ele>49.33333333333333</ele><time>2026-04-18T06:00:25.998Z</time></trkpt><trkpt lat="44.93037347577672" lon="9.971385516997774"><ele>49.5</ele><time>2026-04-18T06:00:26.998Z</time></trkpt><trkpt lat="44.9302848062473" lon="9.97137078282356"><ele>49.66666666666667</ele><time>2026-04-18T06:00:27.998Z</time></trkpt><trkpt lat="44.93019627156411" lon="9.971356051747211"><ele>49.833333333333336</ele><time>2026-04-18T06:00:28.998Z</time></trkpt><trkpt lat="44.930109992664676" lon="9.971339670012007"><ele>50.0</ele><time>2026-04-18T06:00:29.998Z</time></trkpt><trkpt lat="44.930024168411336" lon="9.971322063183026"><ele>50.16666666666667</ele><time>2026-04-18T06:00:30.998Z</time></trkpt><trkpt lat="44.929938942296516" lon="9.971303960995698"><ele>50.333333333333336</ele><time>2026-04-18T06:00:31.998Z</time></trkpt><trkpt lat="44.92985534328058" lon="9.971286676860842"><ele>50.5</ele><time>2026-04-18T06:00:32.998Z</time></trkpt><trkpt lat="44.929771927094045" lon="9.97127103715904"><ele>50.66666666666667</ele><time>2026-04-18T06:00:33.998Z</time></trkpt><trkpt lat="44.929688562673476" lon="9.971255115530301"><ele>50.833333333333336</ele><time>2026-04-18T06:00:34.998Z</time></trkpt><trkpt lat="44.92960760066269" lon="9.971242308181695"><ele>51.0</ele><time>2026-04-18T06:00:35.998Z</time></trkpt><trkpt lat="44.92952945371693" lon="9.971201062798015"><ele>51.0</ele><time>2026-04-18T06:00:36.998Z</time></trkpt><trkpt lat="44.92944908057629" lon="9.971183266388081"><ele>51.0</ele><time>2026-04-18T06:00:37.998Z</time></trkpt><trkpt lat="44.92936888664842" lon="9.971165509657077"><ele>51.0</ele><time>2026-04-18T06:00:38.998Z</time></trkpt><trkpt lat="44.92928809731422" lon="9.971147621091639"><ele>51.0</ele><time>2026-04-18T06:00:39.998Z</time></trkpt><trkpt lat="44.929207537485574" lon="9.971129783344201"><ele>51.0</ele><time>2026-04-18T06:00:40.998Z</time></trkpt><trkpt lat="44.92912575478524" lon="9.971111674824442"><ele>51.0</ele><time>2026-04-18T06:00:41.998Z</time></trkpt><trkpt lat="44.92904314712332" lon="9.9710933836407"><ele>51.0</ele><time>2026-04-18T06:00:42.998Z</time></trkpt><trkpt lat="44.92895936062717" lon="9.971074831435724"><ele>51.0</ele><time>2026-04-18T06:00:43.998Z</time></trkpt><trkpt lat="44.92887557684408" lon="9.971056279833503"><ele>51.0</ele><time>2026-04-18T06:00:44.998Z</time></trkpt><trkpt lat="44.9287924403211" lon="9.971037871548555"><ele>51.0</ele><time>2026-04-18T06:00:45.998Z</time></trkpt><trkpt lat="44.928709711260076" lon="9.97101955348447"><ele>51.0</ele><time>2026-04-18T06:00:46.998Z</time></trkpt><trkpt lat="44.92862601225507" lon="9.97100102065224"><ele>51.0</ele><time>2026-04-18T06:00:47.998Z</time></trkpt><trkpt lat="44.92854421140622" lon="9.970982909969715"><ele>51.0</ele><time>2026-04-18T06:00:48.998Z</time></trkpt><trkpt lat="44.92846235546998" lon="9.970964785242192"><ele>51.0</ele><time>2026-04-18T06:00:49.998Z</time></trkpt><trkpt lat="44.92838279317023" lon="9.970947168361276"><ele>51.0</ele><time>2026-04-18T06:00:50.998Z</time></trkpt><trkpt lat="44.9283049229075" lon="9.970929926152193"><ele>51.0</ele><time>2026-04-18T06:00:51.998Z</time></trkpt><trkpt lat="44.92822857325648" lon="9.970913020634445"><ele>51.0</ele><time>2026-04-18T06:00:52.998Z</time></trkpt><trkpt lat="44.92815259074581" lon="9.970896196406372"><ele>51.0</ele><time>2026-04-18T06:00:53.998Z</time></trkpt><trkpt lat="44.92807993027177" lon="9.970880107752409"><ele>51.0</ele><time>2026-04-18T06:00:54.998Z</time></trkpt><trkpt lat="44.928008313182616" lon="9.97086425012788"><ele>51.0</ele><time>2026-04-18T06:00:55.998Z</time></trkpt><trkpt lat="44.92793358306766" lon="9.970847755345225"><ele>51.0</ele><time>2026-04-18T06:00:56.998Z</time></trkpt><trkpt lat="44.92785819250054" lon="9.970831164026048"><ele>51.0</ele><time>2026-04-18T06:00:58Z</time></trkpt><trkpt lat="44.92778169447107" lon="9.970814328987666"><ele>51.0</ele><time>2026-04-18T06:00:59Z</time></trkpt><trkpt lat="44.92770610341203" lon="9.970797693549166"><ele>51.0</ele><time>2026-04-18T06:01:00Z</time></trkpt><trkpt lat="44.92762967991081" lon="9.970780874911402"><ele>51.0</ele><time>2026-04-18T06:01:01Z</time></trkpt><trkpt lat="44.927553916006126" lon="9.970764201433349"><ele>51.0</ele><time>2026-04-18T06:01:02Z</time></trkpt><trkpt lat="44.92747770675738" lon="9.97074742994667"><ele>51.0</ele><time>2026-04-18T06:01:03Z</time></trkpt><trkpt lat="44.92739962615711" lon="9.970730246627602"><ele>51.0</ele><time>2026-04-18T06:01:04Z</time></trkpt><trkpt lat="44.92732177638411" lon="9.9707131141098"><ele>51.0</ele><time>2026-04-18T06:01:05Z</time></trkpt><trkpt lat="44.92724225166368" lon="9.97069561298161"><ele>51.0</ele><time>2026-04-18T06:01:06Z</time></trkpt><trkpt lat="44.927163773112355" lon="9.970678342091668"><ele>51.0</ele><time>2026-04-18T06:01:07Z</time></trkpt><trkpt lat="44.927084519766304" lon="9.970660900682983"><ele>51.0</ele><time>2026-04-18T06:01:08Z</time></trkpt><trkpt lat="44.927007316419065" lon="9.970643850227422"><ele>51.0</ele><time>2026-04-18T06:01:09Z</time></trkpt><trkpt lat="44.92692915210364" lon="9.970626318948238"><ele>51.0</ele><time>2026-04-18T06:01:10Z</time></trkpt><trkpt lat="44.926849145417" lon="9.970608374424659"><ele>51.0</ele><time>2026-04-18T06:01:11Z</time></trkpt><trkpt lat="44.9267689368011" lon="9.970590156112697"><ele>51.0</ele><time>2026-04-18T06:01:12Z</time></trkpt><trkpt lat="44.92668829510007" lon="9.970571867312518"><ele>51.0</ele><time>2026-04-18T06:01:13Z</time></trkpt><trkpt lat="44.92660702414163" lon="9.970553435808352"><ele>51.0</ele><time>2026-04-18T06:01:14Z</time></trkpt><trkpt lat="44.92652726083343" lon="9.970535346222858"><ele>51.0</ele><time>2026-04-18T06:01:15Z</time></trkpt><trkpt lat="44.926446162746785" lon="9.97051695391807"><ele>51.0</ele><time>2026-04-18T06:01:16Z</time></trkpt><trkpt lat="44.92636576439075" lon="9.970498720309724"><ele>51.0</ele><time>2026-04-18T06:01:17Z</time></trkpt><trkpt lat="44.92628479004472" lon="9.970480356069567"><ele>51.0</ele><time>2026-04-18T06:01:18Z</time></trkpt><trkpt lat="44.92620444348127" lon="9.970462134207189"><ele>51.0</ele><time>2026-04-18T06:01:19Z</time></trkpt><trkpt lat="44.92612475440804" lon="9.97044406135334"><ele>51.0</ele><time>2026-04-18T06:01:20Z</time></trkpt><trkpt lat="44.92604124801628" lon="9.97044877331572"><ele>51.0</ele><time>2026-04-18T06:01:21Z</time></trkpt><trkpt lat="44.925961556047625" lon="9.970431938815079"><ele>51.0</ele><time>2026-04-18T06:01:21.999Z</time></trkpt><trkpt lat="44.92588110380601" lon="9.97041445718347"><ele>51.0</ele><time>2026-04-18T06:01:22.999Z</time></trkpt><trkpt lat="44.92580481029647" lon="9.970395863489465"><ele>51.0</ele><time>2026-04-18T06:01:23.999Z</time></trkpt><trkpt lat="44.925731691031736" lon="9.970381762735583"><ele>51.42857142857143</ele><time>2026-04-18T06:01:24.999Z</time></trkpt><trkpt lat="44.925657226460004" lon="9.97038503499752"><ele>51.85714285714286</ele><time>2026-04-18T06:01:25.999Z</time></trkpt><trkpt lat="44.925584815527706" lon="9.970418165851465"><ele>52.285714285714285</ele><time>2026-04-18T06:01:26.999Z</time></trkpt><trkpt lat="44.92553528617792" lon="9.970494012724133"><ele>52.714285714285715</ele><time>2026-04-18T06:01:27.999Z</time></trkpt><trkpt lat="44.925511421699426" lon="9.970589348337967"><ele>53.14285714285714</ele><time>2026-04-18T06:01:28.999Z</time></trkpt><trkpt lat="44.925517817423106" lon="9.970690568808752"><ele>53.57142857142857</ele><time>2026-04-18T06:01:29.999Z</time></trkpt><trkpt lat="44.92553332310136" lon="9.970793529899401"><ele>54.0</ele><time>2026-04-18T06:01:30.999Z</time></trkpt><trkpt lat="44.9255498689216" lon="9.970891516956208"><ele>54.285714285714285</ele><time>2026-04-18T06:01:31.999Z</time></trkpt><trkpt lat="44.92556913656561" lon="9.970986070739649"><ele>54.57142857142857</ele><time>2026-04-18T06:01:32.999Z</time></trkpt><trkpt lat="44.925595382203035" lon="9.97107894561541"><ele>54.85714285714286</ele><time>2026-04-18T06:01:33.999Z</time></trkpt><trkpt lat="44.92562314674105" lon="9.971169652521015"><ele>55.14285714285714</ele><time>2026-04-18T06:01:34.999Z</time></trkpt><trkpt lat="44.92564475658167" lon="9.971255166735224"><ele>55.42857142857143</ele><time>2026-04-18T06:01:35.999Z</time></trkpt><trkpt lat="44.92563672277917" lon="9.971345060911377"><ele>55.714285714285715</ele><time>2026-04-18T06:01:36.999Z</time></trkpt><trkpt lat="44.92558902902838" lon="9.97141347656746"><ele>56.0</ele><time>2026-04-18T06:01:37.999Z</time></trkpt><trkpt lat="44.92551996932419" lon="9.971412382554268"><ele>56.0</ele><time>2026-04-18T06:01:38.999Z</time></trkpt><trkpt lat="44.92546218646473" lon="9.971453857691607"><ele>56.0</ele><time>2026-04-18T06:01:39.999Z</time></trkpt><trkpt lat="44.925397034495056" lon="9.971445332437195"><ele>56.0</ele><time>2026-04-18T06:01:40.999Z</time></trkpt><trkpt lat="44.92532944646306" lon="9.971463555397538"><ele>56.0</ele><time>2026-04-18T06:01:41.999Z</time></trkpt><trkpt lat="44.925257911273384" lon="9.971481837940402"><ele>56.0</ele><time>2026-04-18T06:01:42.999Z</time></trkpt><trkpt lat="44.92518469316742" lon="9.97150065972837"><ele>56.0</ele><time>2026-04-18T06:01:43.999Z</time></trkpt><trkpt lat="44.92511245429099" lon="9.97151913811514"><ele>56.0</ele><time>2026-04-18T06:01:44.999Z</time></trkpt><trkpt lat="44.92504114191238" lon="9.971536421922309"><ele>55.833333333333336</ele><time>2026-04-18T06:01:45.999Z</time></trkpt><trkpt lat="44.92496782060782" lon="9.971554192633683"><ele>55.66666666666667</ele><time>2026-04-18T06:01:46.999Z</time></trkpt><trkpt lat="44.924894313942914" lon="9.971569299482521"><ele>55.5</ele><time>2026-04-18T06:01:47.999Z</time></trkpt><trkpt lat="44.92481996950067" lon="9.971607253340512"><ele>55.33333333333333</ele><time>2026-04-18T06:01:48.999Z</time></trkpt><trkpt lat="44.92474390796806" lon="9.971623361050543"><ele>55.166666666666664</ele><time>2026-04-18T06:01:49.999Z</time></trkpt><trkpt lat="44.92466681616671" lon="9.971631041171273"><ele>55.0</ele><time>2026-04-18T06:01:50.999Z</time></trkpt><trkpt lat="44.92459075360738" lon="9.971629326703102"><ele>54.99999999999999</ele><time>2026-04-18T06:01:51.999Z</time></trkpt><trkpt lat="44.92451531855644" lon="9.971616902797098"><ele>55.0</ele><time>2026-04-18T06:01:52.999Z</time></trkpt><trkpt lat="44.9244388893737" lon="9.971604487047918"><ele>55.0</ele><time>2026-04-18T06:01:53.999Z</time></trkpt><trkpt lat="44.92436304467351" lon="9.971588013992477"><ele>55.0</ele><time>2026-04-18T06:01:54.999Z</time></trkpt><trkpt lat="44.92428755562819" lon="9.971575614484266"><ele>54.99999999999999</ele><time>2026-04-18T06:01:55.999Z</time></trkpt><trkpt lat="44.92421309152876" lon="9.971553787723973"><ele>55.0</ele><time>2026-04-18T06:01:56.999Z</time></trkpt><trkpt lat="44.924139340146304" lon="9.97153458461226"><ele>54.71428571428571</ele><time>2026-04-18T06:01:57.999Z</time></trkpt><trkpt lat="44.924064694636236" lon="9.971517466403608"><ele>54.42857142857143</ele><time>2026-04-18T06:01:58.999Z</time></trkpt><trkpt lat="44.92399254376941" lon="9.971501532760838"><ele>54.14285714285714</ele><time>2026-04-18T06:01:59.999Z</time></trkpt><trkpt lat="44.92391864242085" lon="9.971481674593736"><ele>53.857142857142854</ele><time>2026-04-18T06:02:00.999Z</time></trkpt><trkpt lat="44.92384585797453" lon="9.971463104868512"><ele>53.57142857142857</ele><time>2026-04-18T06:02:01.999Z</time></trkpt><trkpt lat="44.92377274149069" lon="9.971443682833675"><ele>53.285714285714285</ele><time>2026-04-18T06:02:02.999Z</time></trkpt><trkpt lat="44.92369888874653" lon="9.971431027008293"><ele>53.0</ele><time>2026-04-18T06:02:03.999Z</time></trkpt><trkpt lat="44.92362607232411" lon="9.971410900532568"><ele>53.00000000000001</ele><time>2026-04-18T06:02:04.999Z</time></trkpt><trkpt lat="44.923553823445516" lon="9.971395279062888"><ele>53.0</ele><time>2026-04-18T06:02:05.999Z</time></trkpt><trkpt lat="44.923480067178915" lon="9.971377660891646"><ele>53.0</ele><time>2026-04-18T06:02:06.999Z</time></trkpt><trkpt lat="44.923408742141945" lon="9.971357955857393"><ele>53.0</ele><time>2026-04-18T06:02:07.999Z</time></trkpt><trkpt lat="44.923332738702996" lon="9.971338946751812"><ele>53.00000000000001</ele><time>2026-04-18T06:02:08.999Z</time></trkpt><trkpt lat="44.92325749939016" lon="9.971325176845609"><ele>53.0</ele><time>2026-04-18T06:02:09.999Z</time></trkpt><trkpt lat="44.92317983895014" lon="9.971309426375193"><ele>53.16666666666667</ele><time>2026-04-18T06:02:10.999Z</time></trkpt><trkpt lat="44.92310151388245" lon="9.97129313070863"><ele>53.333333333333336</ele><time>2026-04-18T06:02:11.999Z</time></trkpt><trkpt lat="44.92302550267502" lon="9.971271750919641"><ele>53.5</ele><time>2026-04-18T06:02:12.999Z</time></trkpt><trkpt lat="44.92294735961225" lon="9.971254310519006"><ele>53.66666666666667</ele><time>2026-04-18T06:02:13.999Z</time></trkpt><trkpt lat="44.92286940131187" lon="9.971239815226888"><ele>53.833333333333336</ele><time>2026-04-18T06:02:14.999Z</time></trkpt><trkpt lat="44.92279037335465" lon="9.971223258263555"><ele>54.0</ele><time>2026-04-18T06:02:15.999Z</time></trkpt><trkpt lat="44.9227114555098" lon="9.971208998165102"><ele>54.0</ele><time>2026-04-18T06:02:16.998Z</time></trkpt><trkpt lat="44.92262779350139" lon="9.971201779832294"><ele>54.0</ele><time>2026-04-18T06:02:17.998Z</time></trkpt><trkpt lat="44.92254950219149" lon="9.971183580097188"><ele>54.0</ele><time>2026-04-18T06:02:18.998Z</time></trkpt><trkpt lat="44.92247010593941" lon="9.971168876079364"><ele>54.0</ele><time>2026-04-18T06:02:19.998Z</time></trkpt><trkpt lat="44.92239207576175" lon="9.971154641044798"><ele>54.0</ele><time>2026-04-18T06:02:20.998Z</time></trkpt><trkpt lat="44.92231412397696" lon="9.971143178808074"><ele>54.0</ele><time>2026-04-18T06:02:21.998Z</time></trkpt><trkpt lat="44.92223420968681" lon="9.971127898357823"><ele>54.0</ele><time>2026-04-18T06:02:22.998Z</time></trkpt><trkpt lat="44.92215547368397" lon="9.971111104928958"><ele>54.0</ele><time>2026-04-18T06:02:23.998Z</time></trkpt><trkpt lat="44.922077415739466" lon="9.97109641923288"><ele>54.0</ele><time>2026-04-18T06:02:24.998Z</time></trkpt><trkpt lat="44.92199775522221" lon="9.971077717686942"><ele>54.0</ele><time>2026-04-18T06:02:25.998Z</time></trkpt><trkpt lat="44.92192251242467" lon="9.971062165168517"><ele>54.0</ele><time>2026-04-18T06:02:26.998Z</time></trkpt><trkpt lat="44.921843816292565" lon="9.971047937497838"><ele>54.0</ele><time>2026-04-18T06:02:27.998Z</time></trkpt><trkpt lat="44.92176406784144" lon="9.971035100160549"><ele>54.0</ele><time>2026-04-18T06:02:28.998Z</time></trkpt><trkpt lat="44.921686164989886" lon="9.971027074971875"><ele>54.0</ele><time>2026-04-18T06:02:29.998Z</time></trkpt><trkpt lat="44.92160920598934" lon="9.971031087770834"><ele>54.0</ele><time>2026-04-18T06:02:30.998Z</time></trkpt><trkpt lat="44.921532169246696" lon="9.971023848243751"><ele>54.0</ele><time>2026-04-18T06:02:31.998Z</time></trkpt><trkpt lat="44.92145947745587" lon="9.971084926294282"><ele>54.0</ele><time>2026-04-18T06:02:32.998Z</time></trkpt><trkpt lat="44.921385296173604" lon="9.971097277431104"><ele>54.0</ele><time>2026-04-18T06:02:33.998Z</time></trkpt><trkpt lat="44.92131324221127" lon="9.971134252486127"><ele>54.0</ele><time>2026-04-18T06:02:34.998Z</time></trkpt><trkpt lat="44.921246193239035" lon="9.971190665100973"><ele>54.0</ele><time>2026-04-18T06:02:35.998Z</time></trkpt><trkpt lat="44.921173870623605" lon="9.971229883112109"><ele>54.0</ele><time>2026-04-18T06:02:36.998Z</time></trkpt><trkpt lat="44.921094288331574" lon="9.971249789937378"><ele>54.0</ele><time>2026-04-18T06:02:37.998Z</time></trkpt><trkpt lat="44.92102346876511" lon="9.971287563831252"><ele>54.0</ele><time>2026-04-18T06:02:38.998Z</time></trkpt><trkpt lat="44.920957691452905" lon="9.971345740639896"><ele>54.0</ele><time>2026-04-18T06:02:39.998Z</time></trkpt><trkpt lat="44.92088293792549" lon="9.97138119357833"><ele>54.5</ele><time>2026-04-18T06:02:40.998Z</time></trkpt><trkpt lat="44.92081203421609" lon="9.97141817942581"><ele>55.0</ele><time>2026-04-18T06:02:41.998Z</time></trkpt><trkpt lat="44.920738097400516" lon="9.97145565889165"><ele>55.5</ele><time>2026-04-18T06:02:42.998Z</time></trkpt><trkpt lat="44.92066621410534" lon="9.971490865080812"><ele>56.0</ele><time>2026-04-18T06:02:43.998Z</time></trkpt><trkpt lat="44.92059371311545" lon="9.97152524093625"><ele>56.5</ele><time>2026-04-18T06:02:44.998Z</time></trkpt><trkpt lat="44.92051963051605" lon="9.971555071694231"><ele>57.0</ele><time>2026-04-18T06:02:45.998Z</time></trkpt><trkpt lat="44.92044638566599" lon="9.971579593300408"><ele>57.0</ele><time>2026-04-18T06:02:46.998Z</time></trkpt><trkpt lat="44.92037140071279" lon="9.971602062217833"><ele>57.0</ele><time>2026-04-18T06:02:47.998Z</time></trkpt><trkpt lat="44.92029640605002" lon="9.971625265148226"><ele>57.0</ele><time>2026-04-18T06:02:48.998Z</time></trkpt><trkpt lat="44.92022368348612" lon="9.971653112951184"><ele>57.0</ele><time>2026-04-18T06:02:49.998Z</time></trkpt><trkpt lat="44.92015009260487" lon="9.971684820701597"><ele>57.0</ele><time>2026-04-18T06:02:50.998Z</time></trkpt><trkpt lat="44.92007503609552" lon="9.97168739627963"><ele>57.0</ele><time>2026-04-18T06:02:51.998Z</time></trkpt><trkpt lat="44.92000076617061" lon="9.971712982139401"><ele>57.166666666666664</ele><time>2026-04-18T06:02:52.998Z</time></trkpt><trkpt lat="44.91992536929975" lon="9.97173956015929"><ele>57.33333333333333</ele><time>2026-04-18T06:02:53.998Z</time></trkpt><trkpt lat="44.9198516810106" lon="9.971765535884222"><ele>57.5</ele><time>2026-04-18T06:02:54.998Z</time></trkpt><trkpt lat="44.919775144144154" lon="9.971792515768442"><ele>57.666666666666664</ele><time>2026-04-18T06:02:55.998Z</time></trkpt><trkpt lat="44.919700203378994" lon="9.971818933005315"><ele>57.83333333333333</ele><time>2026-04-18T06:02:56.998Z</time></trkpt><trkpt lat="44.91962476986306" lon="9.971845523941829"><ele>58.0</ele><time>2026-04-18T06:02:57.998Z</time></trkpt><trkpt lat="44.91955004877029" lon="9.971871863743832"><ele>57.99999999999999</ele><time>2026-04-18T06:02:58.998Z</time></trkpt><trkpt lat="44.91947475380715" lon="9.971898405839953"><ele>58.0</ele><time>2026-04-18T06:02:59.998Z</time></trkpt><trkpt lat="44.91939727253565" lon="9.971925718632384"><ele>58.0</ele><time>2026-04-18T06:03:00.998Z</time></trkpt><trkpt lat="44.919322056541155" lon="9.971953283022248"><ele>58.0</ele><time>2026-04-18T06:03:01.998Z</time></trkpt><trkpt lat="44.91924537875269" lon="9.971982107001716"><ele>57.99999999999999</ele><time>2026-04-18T06:03:03Z</time></trkpt><trkpt lat="44.91917186978588" lon="9.972010153888872"><ele>58.0</ele><time>2026-04-18T06:03:04Z</time></trkpt><trkpt lat="44.919097955735154" lon="9.972039816766747"><ele>57.99999999999999</ele><time>2026-04-18T06:03:05Z</time></trkpt><trkpt lat="44.91902545771528" lon="9.972068911364417"><ele>58.0</ele><time>2026-04-18T06:03:06Z</time></trkpt><trkpt lat="44.9189509290728" lon="9.97210115801285"><ele>58.0</ele><time>2026-04-18T06:03:07Z</time></trkpt><trkpt lat="44.91887781825724" lon="9.972132950793632"><ele>58.0</ele><time>2026-04-18T06:03:08Z</time></trkpt><trkpt lat="44.918802890959775" lon="9.972166825173225"><ele>57.99999999999999</ele><time>2026-04-18T06:03:09Z</time></trkpt><trkpt lat="44.91872821781175" lon="9.972201609838557"><ele>58.0</ele><time>2026-04-18T06:03:10Z</time></trkpt><trkpt lat="44.918653128648224" lon="9.972236588331233"><ele>57.99999999999999</ele><time>2026-04-18T06:03:11Z</time></trkpt><trkpt lat="44.91857920583007" lon="9.972271023530052"><ele>58.0</ele><time>2026-04-18T06:03:12Z</time></trkpt><trkpt lat="44.91850539110472" lon="9.972305408356576"><ele>58.0</ele><time>2026-04-18T06:03:13Z</time></trkpt><trkpt lat="44.9184320032512" lon="9.972339594339815"><ele>58.0</ele><time>2026-04-18T06:03:14Z</time></trkpt><trkpt lat="44.91835693300619" lon="9.972375014825857"><ele>57.99999999999999</ele><time>2026-04-18T06:03:15Z</time></trkpt><trkpt lat="44.918281466318376" lon="9.972409987591409"><ele>58.0</ele><time>2026-04-18T06:03:16Z</time></trkpt><trkpt lat="44.91820630542433" lon="9.972444391446539"><ele>57.49999999999999</ele><time>2026-04-18T06:03:17Z</time></trkpt><trkpt lat="44.918129742332546" lon="9.972479456541883"><ele>57.0</ele><time>2026-04-18T06:03:18Z</time></trkpt><trkpt lat="44.918054962116265" lon="9.972514017332017"><ele>56.5</ele><time>2026-04-18T06:03:19Z</time></trkpt><trkpt lat="44.91797925353511" lon="9.972549007132844"><ele>56.0</ele><time>2026-04-18T06:03:20Z</time></trkpt><trkpt lat="44.91790544635797" lon="9.972583118187178"><ele>55.49999999999999</ele><time>2026-04-18T06:03:21Z</time></trkpt><trkpt lat="44.91783369616764" lon="9.972616278582766"><ele>55.0</ele><time>2026-04-18T06:03:22Z</time></trkpt><trkpt lat="44.91776269600541" lon="9.972649092344595"><ele>54.83333333333333</ele><time>2026-04-18T06:03:23Z</time></trkpt><trkpt lat="44.9176891446512" lon="9.972683085165741"><ele>54.666666666666664</ele><time>2026-04-18T06:03:24Z</time></trkpt><trkpt lat="44.91761499091339" lon="9.972717356388697"><ele>54.5</ele><time>2026-04-18T06:03:24.999Z</time></trkpt><trkpt lat="44.91753999043482" lon="9.972752481306559"><ele>54.33333333333333</ele><time>2026-04-18T06:03:25.999Z</time></trkpt><trkpt lat="44.91746728882143" lon="9.972788121777112"><ele>54.166666666666664</ele><time>2026-04-18T06:03:26.999Z</time></trkpt><trkpt lat="44.91739404764626" lon="9.972826894468266"><ele>54.0</ele><time>2026-04-18T06:03:27.999Z</time></trkpt><trkpt lat="44.91732333195701" lon="9.972866144037528"><ele>54.5</ele><time>2026-04-18T06:03:28.999Z</time></trkpt><trkpt lat="44.917254541383365" lon="9.97293212065687"><ele>55.0</ele><time>2026-04-18T06:03:29.999Z</time></trkpt><trkpt lat="44.91719055267315" lon="9.972998419000321"><ele>55.5</ele><time>2026-04-18T06:03:30.999Z</time></trkpt><trkpt lat="44.91713091303407" lon="9.973071936421228"><ele>56.0</ele><time>2026-04-18T06:03:31.999Z</time></trkpt><trkpt lat="44.91707327876963" lon="9.97314736901212"><ele>56.5</ele><time>2026-04-18T06:03:32.999Z</time></trkpt><trkpt lat="44.91701724108025" lon="9.973226782581735"><ele>57.0</ele><time>2026-04-18T06:03:33.999Z</time></trkpt><trkpt lat="44.91696154523375" lon="9.973304880409902"><ele>56.833333333333336</ele><time>2026-04-18T06:03:34.999Z</time></trkpt><trkpt lat="44.91690652009107" lon="9.973383038939083"><ele>56.66666666666667</ele><time>2026-04-18T06:03:35.999Z</time></trkpt><trkpt lat="44.916850878481114" lon="9.973462073030113"><ele>56.5</ele><time>2026-04-18T06:03:36.999Z</time></trkpt><trkpt lat="44.9167964181813" lon="9.973539429289325"><ele>56.333333333333336</ele><time>2026-04-18T06:03:37.999Z</time></trkpt><trkpt lat="44.91674230818575" lon="9.97361628791758"><ele>56.16666666666667</ele><time>2026-04-18T06:03:38.999Z</time></trkpt><trkpt lat="44.91668755534427" lon="9.973694059677012"><ele>56.0</ele><time>2026-04-18T06:03:39.999Z</time></trkpt><trkpt lat="44.91663369932888" lon="9.973770115876823"><ele>56.16666666666667</ele><time>2026-04-18T06:03:40.999Z</time></trkpt><trkpt lat="44.916578121408754" lon="9.97384768256427"><ele>56.333333333333336</ele><time>2026-04-18T06:03:41.999Z</time></trkpt><trkpt lat="44.9165233033308" lon="9.973924188777126"><ele>56.5</ele><time>2026-04-18T06:03:42.999Z</time></trkpt><trkpt lat="44.91646909598079" lon="9.973999842606295"><ele>56.66666666666667</ele><time>2026-04-18T06:03:43.999Z</time></trkpt><trkpt lat="44.91641497866399" lon="9.974075370871498"><ele>56.833333333333336</ele><time>2026-04-18T06:03:44.999Z</time></trkpt><trkpt lat="44.91635931399395" lon="9.974153058603667"><ele>57.0</ele><time>2026-04-18T06:03:45.999Z</time></trkpt><trkpt lat="44.91630460248973" lon="9.974230218123491"><ele>57.0</ele><time>2026-04-18T06:03:46.999Z</time></trkpt><trkpt lat="44.91625028655761" lon="9.974307704885137"><ele>57.0</ele><time>2026-04-18T06:03:47.999Z</time></trkpt><trkpt lat="44.916196047088356" lon="9.974385082529999"><ele>57.0</ele><time>2026-04-18T06:03:48.999Z</time></trkpt><trkpt lat="44.91614081731611" lon="9.974463743700957"><ele>57.0</ele><time>2026-04-18T06:03:49.999Z</time></trkpt><trkpt lat="44.91608442571929" lon="9.974543396511988"><ele>57.0</ele><time>2026-04-18T06:03:50.999Z</time></trkpt><trkpt lat="44.91602883098094" lon="9.97462192371122"><ele>57.0</ele><time>2026-04-18T06:03:51.999Z</time></trkpt><trkpt lat="44.91597303066844" lon="9.974700741330938"><ele>57.0</ele><time>2026-04-18T06:03:52.999Z</time></trkpt><trkpt lat="44.91591905596344" lon="9.974778115891423"><ele>57.0</ele><time>2026-04-18T06:03:53.999Z</time></trkpt><trkpt lat="44.91586320273932" lon="9.974858713800794"><ele>57.0</ele><time>2026-04-18T06:03:54.999Z</time></trkpt><trkpt lat="44.915809148905694" lon="9.974936715077883"><ele>57.0</ele><time>2026-04-18T06:03:55.999Z</time></trkpt><trkpt lat="44.91575378509928" lon="9.975015851786571"><ele>57.0</ele><time>2026-04-18T06:03:56.999Z</time></trkpt><trkpt lat="44.915698677756936" lon="9.975093965380264"><ele>57.0</ele><time>2026-04-18T06:03:57.999Z</time></trkpt><trkpt lat="44.91564369512613" lon="9.975171902084274"><ele>57.0</ele><time>2026-04-18T06:03:58.999Z</time></trkpt><trkpt lat="44.91558834350614" lon="9.975250361904472"><ele>57.0</ele><time>2026-04-18T06:03:59.999Z</time></trkpt><trkpt lat="44.91553202245585" lon="9.975330332843418"><ele>57.0</ele><time>2026-04-18T06:04:00.999Z</time></trkpt><trkpt lat="44.91547690324063" lon="9.975409884989952"><ele>57.0</ele><time>2026-04-18T06:04:01.999Z</time></trkpt><trkpt lat="44.915423149700395" lon="9.97548746611834"><ele>57.0</ele><time>2026-04-18T06:04:02.999Z</time></trkpt><trkpt lat="44.91536867530769" lon="9.97556615889074"><ele>57.0</ele><time>2026-04-18T06:04:03.999Z</time></trkpt><trkpt lat="44.91531324992508" lon="9.975644456522504"><ele>57.0</ele><time>2026-04-18T06:04:04.999Z</time></trkpt><trkpt lat="44.91525782534465" lon="9.975722752766188"><ele>57.0</ele><time>2026-04-18T06:04:05.999Z</time></trkpt><trkpt lat="44.91520236833203" lon="9.975801094974681"><ele>57.0</ele><time>2026-04-18T06:04:06.999Z</time></trkpt><trkpt lat="44.9151475298117" lon="9.975878563432914"><ele>57.0</ele><time>2026-04-18T06:04:07.999Z</time></trkpt><trkpt lat="44.915092385955234" lon="9.975956463198385"><ele>57.0</ele><time>2026-04-18T06:04:08.999Z</time></trkpt><trkpt lat="44.91503658781403" lon="9.976035762885541"><ele>57.0</ele><time>2026-04-18T06:04:09.999Z</time></trkpt><trkpt lat="44.91498113905027" lon="9.97611463485723"><ele>57.0</ele><time>2026-04-18T06:04:10.999Z</time></trkpt><trkpt lat="44.91492523914442" lon="9.976194148705897"><ele>57.0</ele><time>2026-04-18T06:04:11.999Z</time></trkpt><trkpt lat="44.91486965981299" lon="9.976273206503526"><ele>57.0</ele><time>2026-04-18T06:04:12.999Z</time></trkpt><trkpt lat="44.91481401501743" lon="9.976352357380778"><ele>57.0</ele><time>2026-04-18T06:04:13.999Z</time></trkpt><trkpt lat="44.914759270921884" lon="9.976430227084329"><ele>57.0</ele><time>2026-04-18T06:04:14.999Z</time></trkpt><trkpt lat="44.91470356838483" lon="9.976509460182394"><ele>57.0</ele><time>2026-04-18T06:04:15.999Z</time></trkpt><trkpt lat="44.91464895637229" lon="9.976587079190125"><ele>57.0</ele><time>2026-04-18T06:04:16.999Z</time></trkpt><trkpt lat="44.91459367001295" lon="9.976665639742603"><ele>57.0</ele><time>2026-04-18T06:04:17.999Z</time></trkpt><trkpt lat="44.91453947388693" lon="9.97674265120842"><ele>57.0</ele><time>2026-04-18T06:04:18.999Z</time></trkpt><trkpt lat="44.914484832100015" lon="9.976820295839245"><ele>57.0</ele><time>2026-04-18T06:04:19.998Z</time></trkpt><trkpt lat="44.91442960006255" lon="9.976898779216828"><ele>57.0</ele><time>2026-04-18T06:04:20.998Z</time></trkpt><trkpt lat="44.91437533280779" lon="9.976975891600544"><ele>57.0</ele><time>2026-04-18T06:04:21.998Z</time></trkpt><trkpt lat="44.91432085972532" lon="9.977053296510558"><ele>57.0</ele><time>2026-04-18T06:04:22.998Z</time></trkpt><trkpt lat="44.914266994367" lon="9.97712983786946"><ele>57.0</ele><time>2026-04-18T06:04:23.998Z</time></trkpt><trkpt lat="44.91421310999439" lon="9.977206406247507"><ele>57.0</ele><time>2026-04-18T06:04:24.998Z</time></trkpt><trkpt lat="44.91416026058982" lon="9.977281503946582"><ele>57.0</ele><time>2026-04-18T06:04:25.998Z</time></trkpt><trkpt lat="44.91410634089663" lon="9.977358122448676"><ele>57.0</ele><time>2026-04-18T06:04:26.998Z</time></trkpt><trkpt lat="44.91405292909872" lon="9.977434020644221"><ele>57.0</ele><time>2026-04-18T06:04:27.998Z</time></trkpt><trkpt lat="44.91401148888349" lon="9.97752533058672"><ele>57.0</ele><time>2026-04-18T06:04:28.998Z</time></trkpt><trkpt lat="44.91395814525582" lon="9.977600173478503"><ele>57.0</ele><time>2026-04-18T06:04:29.998Z</time></trkpt><trkpt lat="44.91389332158913" lon="9.977660763085451"><ele>57.0</ele><time>2026-04-18T06:04:30.998Z</time></trkpt><trkpt lat="44.91383922549959" lon="9.977737570294712"><ele>57.0</ele><time>2026-04-18T06:04:31.998Z</time></trkpt><trkpt lat="44.913784551492775" lon="9.97781519775775"><ele>57.0</ele><time>2026-04-18T06:04:32.998Z</time></trkpt><trkpt lat="44.91374168987034" lon="9.977908018451528"><ele>57.0</ele><time>2026-04-18T06:04:33.998Z</time></trkpt><trkpt lat="44.91368576401112" lon="9.977984240814955"><ele>57.0</ele><time>2026-04-18T06:04:34.998Z</time></trkpt><trkpt lat="44.91363082473732" lon="9.978062789389464"><ele>57.0</ele><time>2026-04-18T06:04:35.998Z</time></trkpt><trkpt lat="44.91357633814093" lon="9.978142979521474"><ele>57.0</ele><time>2026-04-18T06:04:36.998Z</time></trkpt><trkpt lat="44.91351993955077" lon="9.978224014885049"><ele>57.0</ele><time>2026-04-18T06:04:37.998Z</time></trkpt><trkpt lat="44.913463146068445" lon="9.978302506502148"><ele>57.0</ele><time>2026-04-18T06:04:38.998Z</time></trkpt><trkpt lat="44.91340672571406" lon="9.97837930018952"><ele>57.0</ele><time>2026-04-18T06:04:39.998Z</time></trkpt><trkpt lat="44.91335207217764" lon="9.97845816253894"><ele>57.166666666666664</ele><time>2026-04-18T06:04:40.998Z</time></trkpt><trkpt lat="44.91329539632382" lon="9.978538934739303"><ele>57.33333333333333</ele><time>2026-04-18T06:04:41.998Z</time></trkpt><trkpt lat="44.91323916068224" lon="9.978618142555236"><ele>57.5</ele><time>2026-04-18T06:04:42.998Z</time></trkpt><trkpt lat="44.913181911610835" lon="9.978695095997223"><ele>57.666666666666664</ele><time>2026-04-18T06:04:43.998Z</time></trkpt><trkpt lat="44.913125358375645" lon="9.978773765548427"><ele>57.83333333333333</ele><time>2026-04-18T06:04:44.998Z</time></trkpt><trkpt lat="44.91307241379762" lon="9.978852216849575"><ele>58.0</ele><time>2026-04-18T06:04:45.998Z</time></trkpt><trkpt lat="44.91301751828885" lon="9.978934167187582"><ele>57.99999999999999</ele><time>2026-04-18T06:04:46.998Z</time></trkpt><trkpt lat="44.91295128443677" lon="9.978994547652551"><ele>58.0</ele><time>2026-04-18T06:04:47.998Z</time></trkpt><trkpt lat="44.912893410329815" lon="9.979075050843722"><ele>58.0</ele><time>2026-04-18T06:04:48.998Z</time></trkpt><trkpt lat="44.91284983570316" lon="9.979170406677465"><ele>58.0</ele><time>2026-04-18T06:04:49.998Z</time></trkpt><trkpt lat="44.912793855309644" lon="9.979247064637034"><ele>57.99999999999999</ele><time>2026-04-18T06:04:50.998Z</time></trkpt><trkpt lat="44.91273754895538" lon="9.979324775744908"><ele>58.0</ele><time>2026-04-18T06:04:51.998Z</time></trkpt><trkpt lat="44.91268219497946" lon="9.979401709780396"><ele>58.166666666666664</ele><time>2026-04-18T06:04:52.998Z</time></trkpt><trkpt lat="44.912626754533754" lon="9.979479091961162"><ele>58.33333333333333</ele><time>2026-04-18T06:04:53.998Z</time></trkpt><trkpt lat="44.91257269543856" lon="9.979554830434145"><ele>58.5</ele><time>2026-04-18T06:04:54.998Z</time></trkpt><trkpt lat="44.91251555912065" lon="9.979632651834626"><ele>58.66666666666667</ele><time>2026-04-18T06:04:55.998Z</time></trkpt><trkpt lat="44.91246231805264" lon="9.979713274418081"><ele>58.833333333333336</ele><time>2026-04-18T06:04:56.998Z</time></trkpt><trkpt lat="44.912408331721146" lon="9.979791300541624"><ele>59.0</ele><time>2026-04-18T06:04:57.998Z</time></trkpt><trkpt lat="44.91235475407692" lon="9.979871110308551"><ele>59.16666666666667</ele><time>2026-04-18T06:04:58.998Z</time></trkpt><trkpt lat="44.91228943323138" lon="9.979934478440125"><ele>59.333333333333336</ele><time>2026-04-18T06:04:59.998Z</time></trkpt><trkpt lat="44.912241358251755" lon="9.980020663595878"><ele>59.5</ele><time>2026-04-18T06:05:00.998Z</time></trkpt><trkpt lat="44.91217323068152" lon="9.980071918142869"><ele>59.66666666666667</ele><time>2026-04-18T06:05:01.998Z</time></trkpt><trkpt lat="44.912093621643095" lon="9.98007127961697"><ele>59.833333333333336</ele><time>2026-04-18T06:05:02.998Z</time></trkpt><trkpt lat="44.91202169996447" lon="9.980061023462829"><ele>60.0</ele><time>2026-04-18T06:05:03.998Z</time></trkpt><trkpt lat="44.911958765783275" lon="9.980016264600273"><ele>60.0</ele><time>2026-04-18T06:05:04.998Z</time></trkpt><trkpt lat="44.91189059779422" lon="9.979968565662436"><ele>60.0</ele><time>2026-04-18T06:05:05.998Z</time></trkpt><trkpt lat="44.91182038373278" lon="9.979919627104897"><ele>60.0</ele><time>2026-04-18T06:05:06.998Z</time></trkpt><trkpt lat="44.91175219359757" lon="9.979871532030463"><ele>60.0</ele><time>2026-04-18T06:05:07.998Z</time></trkpt><trkpt lat="44.91168204295786" lon="9.979822006424973"><ele>60.0</ele><time>2026-04-18T06:05:09Z</time></trkpt><trkpt lat="44.911613042810764" lon="9.979773293080612"><ele>60.0</ele><time>2026-04-18T06:05:10Z</time></trkpt><trkpt lat="44.911546295270576" lon="9.979726170051977"><ele>60.333333333333336</ele><time>2026-04-18T06:05:11Z</time></trkpt><trkpt lat="44.91147879805847" lon="9.979678742959987"><ele>60.66666666666667</ele><time>2026-04-18T06:05:12Z</time></trkpt><trkpt lat="44.911410721062865" lon="9.979630932896256"><ele>61.0</ele><time>2026-04-18T06:05:13Z</time></trkpt><trkpt lat="44.9113414002862" lon="9.979582249308612"><ele>61.333333333333336</ele><time>2026-04-18T06:05:14Z</time></trkpt><trkpt lat="44.911273008666555" lon="9.979534218263803"><ele>61.66666666666667</ele><time>2026-04-18T06:05:15Z</time></trkpt><trkpt lat="44.911204515754555" lon="9.979486116104583"><ele>62.0</ele><time>2026-04-18T06:05:16Z</time></trkpt><trkpt lat="44.911135686161835" lon="9.97943803719222"><ele>62.00000000000001</ele><time>2026-04-18T06:05:17Z</time></trkpt><trkpt lat="44.91106649567455" lon="9.979389981299954"><ele>62.0</ele><time>2026-04-18T06:05:18Z</time></trkpt><trkpt lat="44.91099785462519" lon="9.979342307034356"><ele>62.0</ele><time>2026-04-18T06:05:19Z</time></trkpt><trkpt lat="44.91092263772011" lon="9.979315476843967"><ele>62.0</ele><time>2026-04-18T06:05:20Z</time></trkpt><trkpt lat="44.91086093091672" lon="9.979247207392113"><ele>62.00000000000001</ele><time>2026-04-18T06:05:21Z</time></trkpt><trkpt lat="44.910792353141275" lon="9.979199577062552"><ele>62.0</ele><time>2026-04-18T06:05:22Z</time></trkpt><trkpt lat="44.91072433504179" lon="9.979152335465585"><ele>61.833333333333336</ele><time>2026-04-18T06:05:23Z</time></trkpt><trkpt lat="44.910654786247356" lon="9.979104661954143"><ele>61.66666666666667</ele><time>2026-04-18T06:05:24Z</time></trkpt><trkpt lat="44.91058585480764" lon="9.979057792712542"><ele>61.5</ele><time>2026-04-18T06:05:25Z</time></trkpt><trkpt lat="44.91051773292761" lon="9.979011473948603"><ele>61.33333333333333</ele><time>2026-04-18T06:05:26Z</time></trkpt><trkpt lat="44.91044624946907" lon="9.978962869484516"><ele>61.166666666666664</ele><time>2026-04-18T06:05:27Z</time></trkpt><trkpt lat="44.91037864074598" lon="9.978916899625444"><ele>61.0</ele><time>2026-04-18T06:05:28Z</time></trkpt><trkpt lat="44.91030906861561" lon="9.978868248638959"><ele>60.99999999999999</ele><time>2026-04-18T06:05:29Z</time></trkpt><trkpt lat="44.910241221567496" lon="9.978820527628697"><ele>61.0</ele><time>2026-04-18T06:05:29.999Z</time></trkpt><trkpt lat="44.91017179326268" lon="9.978771694417574"><ele>61.0</ele><time>2026-04-18T06:05:30.999Z</time></trkpt><trkpt lat="44.9101036002116" lon="9.978723730050447"><ele>61.0</ele><time>2026-04-18T06:05:31.999Z</time></trkpt><trkpt lat="44.91003573145336" lon="9.97867652749786"><ele>60.99999999999999</ele><time>2026-04-18T06:05:32.999Z</time></trkpt><trkpt lat="44.909967586423186" lon="9.978628586391656"><ele>61.0</ele><time>2026-04-18T06:05:33.999Z</time></trkpt><trkpt lat="44.909900394276804" lon="9.978581317937918"><ele>60.99999999999999</ele><time>2026-04-18T06:05:34.999Z</time></trkpt><trkpt lat="44.909824194284006" lon="9.978553697799509"><ele>61.0</ele><time>2026-04-18T06:05:35.999Z</time></trkpt><trkpt lat="44.90975685860435" lon="9.978503836644233"><ele>61.0</ele><time>2026-04-18T06:05:36.999Z</time></trkpt><trkpt lat="44.90968720174479" lon="9.978456290863841"><ele>61.0</ele><time>2026-04-18T06:05:37.999Z</time></trkpt><trkpt lat="44.909617117366096" lon="9.978410973857091"><ele>60.99999999999999</ele><time>2026-04-18T06:05:38.999Z</time></trkpt><trkpt lat="44.909554793748846" lon="9.978342057334535"><ele>61.0</ele><time>2026-04-18T06:05:39.999Z</time></trkpt><trkpt lat="44.909485949084676" lon="9.978294696645824"><ele>60.99999999999999</ele><time>2026-04-18T06:05:40.999Z</time></trkpt><trkpt lat="44.909417125400154" lon="9.978247350378725"><ele>61.0</ele><time>2026-04-18T06:05:41.999Z</time></trkpt><trkpt lat="44.90934724894566" lon="9.97819927986671"><ele>61.0</ele><time>2026-04-18T06:05:42.999Z</time></trkpt><trkpt lat="44.909276867428545" lon="9.978150861909082"><ele>61.0</ele><time>2026-04-18T06:05:43.999Z</time></trkpt><trkpt lat="44.90920077790996" lon="9.978124128485335"><ele>60.99999999999999</ele><time>2026-04-18T06:05:44.999Z</time></trkpt><trkpt lat="44.909135355410264" lon="9.978053743575185"><ele>61.0</ele><time>2026-04-18T06:05:45.999Z</time></trkpt><trkpt lat="44.909065320811926" lon="9.97800571361939"><ele>60.99999999999999</ele><time>2026-04-18T06:05:46.999Z</time></trkpt><trkpt lat="44.90899563237235" lon="9.9779579210672"><ele>61.0</ele><time>2026-04-18T06:05:47.999Z</time></trkpt><trkpt lat="44.90892690485158" lon="9.977910787506136"><ele>61.0</ele><time>2026-04-18T06:05:48.999Z</time></trkpt><trkpt lat="44.9088560459311" lon="9.97786219223496"><ele>61.0</ele><time>2026-04-18T06:05:49.999Z</time></trkpt><trkpt lat="44.90878562909925" lon="9.977813900150132"><ele>60.99999999999999</ele><time>2026-04-18T06:05:50.999Z</time></trkpt><trkpt lat="44.908714964717774" lon="9.977765438290698"><ele>61.0</ele><time>2026-04-18T06:05:51.999Z</time></trkpt><trkpt lat="44.9086455215681" lon="9.977717813954804"><ele>60.99999999999999</ele><time>2026-04-18T06:05:52.999Z</time></trkpt><trkpt lat="44.908574621957385" lon="9.977669190774842"><ele>61.0</ele><time>2026-04-18T06:05:53.999Z</time></trkpt><trkpt lat="44.90850560712626" lon="9.977621860189645"><ele>61.0</ele><time>2026-04-18T06:05:54.999Z</time></trkpt><trkpt lat="44.90843639596271" lon="9.977574394950294"><ele>61.0</ele><time>2026-04-18T06:05:55.999Z</time></trkpt><trkpt lat="44.90836860157556" lon="9.977527901340007"><ele>60.99999999999999</ele><time>2026-04-18T06:05:56.999Z</time></trkpt><trkpt lat="44.90829918626785" lon="9.977480296099435"><ele>61.0</ele><time>2026-04-18T06:05:57.999Z</time></trkpt><trkpt lat="44.908229379320645" lon="9.977432422273141"><ele>61.166666666666664</ele><time>2026-04-18T06:05:58.999Z</time></trkpt><trkpt lat="44.90815971451336" lon="9.977384645925863"><ele>61.33333333333333</ele><time>2026-04-18T06:05:59.999Z</time></trkpt><trkpt lat="44.90809065012956" lon="9.977337281352913"><ele>61.5</ele><time>2026-04-18T06:06:00.999Z</time></trkpt><trkpt lat="44.9080206128175" lon="9.977289249537268"><ele>61.66666666666667</ele><time>2026-04-18T06:06:01.999Z</time></trkpt><trkpt lat="44.907950454418504" lon="9.97724113468372"><ele>61.833333333333336</ele><time>2026-04-18T06:06:02.999Z</time></trkpt><trkpt lat="44.9078806860251" lon="9.977193287298652"><ele>62.0</ele><time>2026-04-18T06:06:03.999Z</time></trkpt><trkpt lat="44.907810901377005" lon="9.97714542876387"><ele>62.00000000000001</ele><time>2026-04-18T06:06:04.999Z</time></trkpt><trkpt lat="44.90774102698165" lon="9.977097508680652"><ele>62.0</ele><time>2026-04-18T06:06:05.999Z</time></trkpt><trkpt lat="44.907671452309586" lon="9.977049794148659"><ele>62.0</ele><time>2026-04-18T06:06:06.999Z</time></trkpt><trkpt lat="44.90760273510105" lon="9.977002667668863"><ele>62.0</ele><time>2026-04-18T06:06:07.999Z</time></trkpt><trkpt lat="44.90753350227305" lon="9.976955187571445"><ele>62.00000000000001</ele><time>2026-04-18T06:06:08.999Z</time></trkpt><trkpt lat="44.90746472970188" lon="9.976908023123615"><ele>62.0</ele><time>2026-04-18T06:06:09.999Z</time></trkpt><trkpt lat="44.90739671136613" lon="9.976861375933352"><ele>62.16666666666667</ele><time>2026-04-18T06:06:10.999Z</time></trkpt><trkpt lat="44.907329010735246" lon="9.97681478987982"><ele>62.333333333333336</ele><time>2026-04-18T06:06:11.999Z</time></trkpt><trkpt lat="44.907260385959795" lon="9.976767515442145"><ele>62.5</ele><time>2026-04-18T06:06:12.999Z</time></trkpt><trkpt lat="44.907192377345716" lon="9.976720665468848"><ele>62.66666666666667</ele><time>2026-04-18T06:06:13.999Z</time></trkpt><trkpt lat="44.90712215877951" lon="9.976672293091667"><ele>62.833333333333336</ele><time>2026-04-18T06:06:14.999Z</time></trkpt><trkpt lat="44.90705453338544" lon="9.976625707115096"><ele>63.0</ele><time>2026-04-18T06:06:15.999Z</time></trkpt><trkpt lat="44.90698442131343" lon="9.976577408103402"><ele>63.0</ele><time>2026-04-18T06:06:16.999Z</time></trkpt><trkpt lat="44.906917055486986" lon="9.976531000945792"><ele>63.0</ele><time>2026-04-18T06:06:17.999Z</time></trkpt><trkpt lat="44.906846583773074" lon="9.97648245418313"><ele>63.0</ele><time>2026-04-18T06:06:18.999Z</time></trkpt><trkpt lat="44.90677440925139" lon="9.976432734378449"><ele>63.0</ele><time>2026-04-18T06:06:19.999Z</time></trkpt><trkpt lat="44.90670494301324" lon="9.976384880275244"><ele>63.0</ele><time>2026-04-18T06:06:20.999Z</time></trkpt><trkpt lat="44.90663268083181" lon="9.976335110085586"><ele>63.0</ele><time>2026-04-18T06:06:21.999Z</time></trkpt><trkpt lat="44.9065624873536" lon="9.9762872195768"><ele>63.0</ele><time>2026-04-18T06:06:22.999Z</time></trkpt><trkpt lat="44.90649195355616" lon="9.976239096868957"><ele>63.0</ele><time>2026-04-18T06:06:23.998Z</time></trkpt><trkpt lat="44.906422293919256" lon="9.97619157057462"><ele>63.0</ele><time>2026-04-18T06:06:24.998Z</time></trkpt><trkpt lat="44.90634871566465" lon="9.976141370742003"><ele>63.0</ele><time>2026-04-18T06:06:25.998Z</time></trkpt><trkpt lat="44.906278644390866" lon="9.976093563571327"><ele>63.0</ele><time>2026-04-18T06:06:26.998Z</time></trkpt><trkpt lat="44.90620991283795" lon="9.976046670509579"><ele>63.0</ele><time>2026-04-18T06:06:27.998Z</time></trkpt><trkpt lat="44.90613073616824" lon="9.976017443653772"><ele>63.0</ele><time>2026-04-18T06:06:28.998Z</time></trkpt><trkpt lat="44.906063375859" lon="9.975968810779815"><ele>63.0</ele><time>2026-04-18T06:06:29.998Z</time></trkpt><trkpt lat="44.905993648753174" lon="9.975921296579454"><ele>63.0</ele><time>2026-04-18T06:06:30.998Z</time></trkpt><trkpt lat="44.90592492787248" lon="9.975874860467831"><ele>63.0</ele><time>2026-04-18T06:06:31.998Z</time></trkpt><trkpt lat="44.90585584693927" lon="9.975826711123243"><ele>63.0</ele><time>2026-04-18T06:06:32.998Z</time></trkpt><trkpt lat="44.90578605529543" lon="9.975781899246124"><ele>63.0</ele><time>2026-04-18T06:06:33.998Z</time></trkpt><trkpt lat="44.905716079000726" lon="9.975731887800784"><ele>63.5</ele><time>2026-04-18T06:06:34.998Z</time></trkpt><trkpt lat="44.90564765190458" lon="9.975686474122982"><ele>64.0</ele><time>2026-04-18T06:06:35.998Z</time></trkpt><trkpt lat="44.90557834905235" lon="9.975639032612373"><ele>64.5</ele><time>2026-04-18T06:06:36.998Z</time></trkpt><trkpt lat="44.90551113707641" lon="9.97559197378726"><ele>65.0</ele><time>2026-04-18T06:06:37.998Z</time></trkpt><trkpt lat="44.9054417397475" lon="9.975545047303605"><ele>65.5</ele><time>2026-04-18T06:06:38.998Z</time></trkpt><trkpt lat="44.9053712361574" lon="9.975497238019157"><ele>66.0</ele><time>2026-04-18T06:06:39.998Z</time></trkpt><trkpt lat="44.90530216461863" lon="9.97544823738947"><ele>66.0</ele><time>2026-04-18T06:06:40.998Z</time></trkpt><trkpt lat="44.90523381910223" lon="9.9753971294856"><ele>66.0</ele><time>2026-04-18T06:06:41.998Z</time></trkpt><trkpt lat="44.905162321790066" lon="9.975350730840992"><ele>66.0</ele><time>2026-04-18T06:06:42.998Z</time></trkpt><trkpt lat="44.905090795213404" lon="9.975304531928556"><ele>66.0</ele><time>2026-04-18T06:06:43.998Z</time></trkpt><trkpt lat="44.9050216578898" lon="9.975256431630775"><ele>66.0</ele><time>2026-04-18T06:06:44.998Z</time></trkpt><trkpt lat="44.904949258046294" lon="9.975207472263502"><ele>66.0</ele><time>2026-04-18T06:06:45.998Z</time></trkpt><trkpt lat="44.904878527563945" lon="9.975161041730166"><ele>65.83333333333333</ele><time>2026-04-18T06:06:46.998Z</time></trkpt><trkpt lat="44.904807217584484" lon="9.975111155945136"><ele>65.66666666666667</ele><time>2026-04-18T06:06:47.998Z</time></trkpt><trkpt lat="44.90473560119651" lon="9.975061705595534"><ele>65.5</ele><time>2026-04-18T06:06:48.998Z</time></trkpt><trkpt lat="44.904664630766895" lon="9.975015891212538"><ele>65.33333333333334</ele><time>2026-04-18T06:06:49.998Z</time></trkpt><trkpt lat="44.904599983999525" lon="9.974950443038681"><ele>65.16666666666667</ele><time>2026-04-18T06:06:50.998Z</time></trkpt><trkpt lat="44.90452932765751" lon="9.974902406388393"><ele>65.0</ele><time>2026-04-18T06:06:51.998Z</time></trkpt><trkpt lat="44.90445909371407" lon="9.974854656905855"><ele>65.0</ele><time>2026-04-18T06:06:52.998Z</time></trkpt><trkpt lat="44.90439184383183" lon="9.974808936116736"><ele>65.0</ele><time>2026-04-18T06:06:53.998Z</time></trkpt><trkpt lat="44.90432333410656" lon="9.974762358892496"><ele>65.0</ele><time>2026-04-18T06:06:54.998Z</time></trkpt><trkpt lat="44.904244357513875" lon="9.97473159445206"><ele>65.0</ele><time>2026-04-18T06:06:55.998Z</time></trkpt><trkpt lat="44.904184226426366" lon="9.974667788203133"><ele>65.0</ele><time>2026-04-18T06:06:56.998Z</time></trkpt><trkpt lat="44.90410843074205" lon="9.974640964113402"><ele>65.0</ele><time>2026-04-18T06:06:57.998Z</time></trkpt><trkpt lat="44.904041840691605" lon="9.974591666405388"><ele>65.16666666666667</ele><time>2026-04-18T06:06:58.998Z</time></trkpt><trkpt lat="44.903971722337175" lon="9.974544000438716"><ele>65.33333333333334</ele><time>2026-04-18T06:06:59.998Z</time></trkpt><trkpt lat="44.90390246890501" lon="9.974500127636887"><ele>65.5</ele><time>2026-04-18T06:07:00.998Z</time></trkpt><trkpt lat="44.903841196024004" lon="9.974432895317534"><ele>65.66666666666667</ele><time>2026-04-18T06:07:01.998Z</time></trkpt><trkpt lat="44.90377261539952" lon="9.974385962490627"><ele>65.83333333333333</ele><time>2026-04-18T06:07:02.998Z</time></trkpt><trkpt lat="44.90370412463167" lon="9.974339091179552"><ele>66.0</ele><time>2026-04-18T06:07:03.998Z</time></trkpt><trkpt lat="44.90362833967473" lon="9.974312618406707"><ele>66.0</ele><time>2026-04-18T06:07:04.998Z</time></trkpt><trkpt lat="44.90355866158731" lon="9.974264887279004"><ele>66.0</ele><time>2026-04-18T06:07:05.998Z</time></trkpt><trkpt lat="44.90349137766482" lon="9.974216792921322"><ele>66.0</ele><time>2026-04-18T06:07:06.998Z</time></trkpt><trkpt lat="44.90342358138811" lon="9.974169839788724"><ele>66.0</ele><time>2026-04-18T06:07:07.998Z</time></trkpt><trkpt lat="44.903353906620566" lon="9.974122956234806"><ele>66.0</ele><time>2026-04-18T06:07:08.998Z</time></trkpt><trkpt lat="44.9032853391747" lon="9.974075586468304"><ele>66.0</ele><time>2026-04-18T06:07:09.998Z</time></trkpt><trkpt lat="44.9032170741661" lon="9.974029178050657"><ele>66.16666666666667</ele><time>2026-04-18T06:07:10.998Z</time></trkpt><trkpt lat="44.90314945023481" lon="9.973981395428666"><ele>66.33333333333333</ele><time>2026-04-18T06:07:11.998Z</time></trkpt><trkpt lat="44.90308047465128" lon="9.973936990361903"><ele>66.5</ele><time>2026-04-18T06:07:12.998Z</time></trkpt><trkpt lat="44.90301200979757" lon="9.97389157068976"><ele>66.66666666666666</ele><time>2026-04-18T06:07:13.998Z</time></trkpt><trkpt lat="44.9029451209805" lon="9.973840315202828"><ele>66.83333333333333</ele><time>2026-04-18T06:07:15Z</time></trkpt><trkpt lat="44.90287896298194" lon="9.973785539796372"><ele>67.0</ele><time>2026-04-18T06:07:16Z</time></trkpt><trkpt lat="44.90281195929261" lon="9.973730260630004"><ele>67.0</ele><time>2026-04-18T06:07:17Z</time></trkpt><trkpt lat="44.90274379014623" lon="9.973676931842244"><ele>67.0</ele><time>2026-04-18T06:07:18Z</time></trkpt><trkpt lat="44.90267431450677" lon="9.97362586447089"><ele>67.0</ele><time>2026-04-18T06:07:19Z</time></trkpt><trkpt lat="44.90260110634338" lon="9.97358785649281"><ele>67.0</ele><time>2026-04-18T06:07:20Z</time></trkpt><trkpt lat="44.902526147535866" lon="9.973552429453491"><ele>67.0</ele><time>2026-04-18T06:07:21Z</time></trkpt><trkpt lat="44.902448772014985" lon="9.973525352023211"><ele>67.0</ele><time>2026-04-18T06:07:22Z</time></trkpt><trkpt lat="44.90236682279142" lon="9.973504330642802"><ele>67.2</ele><time>2026-04-18T06:07:23Z</time></trkpt><trkpt lat="44.90227990994951" lon="9.973480211410171"><ele>67.4</ele><time>2026-04-18T06:07:24Z</time></trkpt><trkpt lat="44.90218920167094" lon="9.973455443883301"><ele>67.6</ele><time>2026-04-18T06:07:25Z</time></trkpt><trkpt lat="44.902094082046915" lon="9.973428497543654"><ele>67.8</ele><time>2026-04-18T06:07:26Z</time></trkpt><trkpt lat="44.90199847498037" lon="9.973401734661392"><ele>68.0</ele><time>2026-04-18T06:07:27Z</time></trkpt><trkpt lat="44.90190603667048" lon="9.97333453333592"><ele>68.0</ele><time>2026-04-18T06:07:28Z</time></trkpt><trkpt lat="44.90180719133622" lon="9.973278929147297"><ele>68.0</ele><time>2026-04-18T06:07:29Z</time></trkpt><trkpt lat="44.90170384541232" lon="9.973214149379041"><ele>68.0</ele><time>2026-04-18T06:07:30Z</time></trkpt><trkpt lat="44.90160130336201" lon="9.97317011954013"><ele>68.0</ele><time>2026-04-18T06:07:31Z</time></trkpt><trkpt lat="44.90151021704559" lon="9.973109930173162"><ele>68.0</ele><time>2026-04-18T06:07:32Z</time></trkpt><trkpt lat="44.901418495979335" lon="9.973038725659796"><ele>68.0</ele><time>2026-04-18T06:07:32.999Z</time></trkpt><trkpt lat="44.901335908544354" lon="9.972987939977115"><ele>68.0</ele><time>2026-04-18T06:07:33.999Z</time></trkpt><trkpt lat="44.901245188207305" lon="9.972947687714823"><ele>68.0</ele><time>2026-04-18T06:07:34.999Z</time></trkpt><trkpt lat="44.90117040434471" lon="9.972898551448862"><ele>68.0</ele><time>2026-04-18T06:07:35.999Z</time></trkpt><trkpt lat="44.90109688426272" lon="9.972844245691633"><ele>68.0</ele><time>2026-04-18T06:07:36.999Z</time></trkpt><trkpt lat="44.901032564329206" lon="9.972784835818203"><ele>68.0</ele><time>2026-04-18T06:07:37.999Z</time></trkpt><trkpt lat="44.90096914887481" lon="9.972727258694732"><ele>68.14285714285714</ele><time>2026-04-18T06:07:38.999Z</time></trkpt><trkpt lat="44.900909510217126" lon="9.972662815309171"><ele>68.28571428571428</ele><time>2026-04-18T06:07:39.999Z</time></trkpt><trkpt lat="44.90085297910409" lon="9.972601325188897"><ele>68.42857142857143</ele><time>2026-04-18T06:07:40.999Z</time></trkpt><trkpt lat="44.90079890304655" lon="9.972534742272344"><ele>68.57142857142857</ele><time>2026-04-18T06:07:41.999Z</time></trkpt><trkpt lat="44.900749489441324" lon="9.972469824827947"><ele>68.71428571428572</ele><time>2026-04-18T06:07:42.999Z</time></trkpt><trkpt lat="44.90070334356321" lon="9.972403951987756"><ele>68.85714285714286</ele><time>2026-04-18T06:07:43.999Z</time></trkpt><trkpt lat="44.90066178714093" lon="9.972329446309885"><ele>69.0</ele><time>2026-04-18T06:07:44.999Z</time></trkpt><trkpt lat="44.90061816765627" lon="9.972254285462917"><ele>69.14285714285714</ele><time>2026-04-18T06:07:45.999Z</time></trkpt><trkpt lat="44.900575302066436" lon="9.972176115974303"><ele>69.28571428571429</ele><time>2026-04-18T06:07:46.999Z</time></trkpt><trkpt lat="44.9005361992466" lon="9.972095889683814"><ele>69.42857142857143</ele><time>2026-04-18T06:07:47.999Z</time></trkpt><trkpt lat="44.900493585484874" lon="9.97201385857616"><ele>69.57142857142857</ele><time>2026-04-18T06:07:48.999Z</time></trkpt><trkpt lat="44.90044786312066" lon="9.971937535385393"><ele>69.71428571428572</ele><time>2026-04-18T06:07:49.999Z</time></trkpt><trkpt lat="44.900399604128545" lon="9.971858824969463"><ele>69.85714285714286</ele><time>2026-04-18T06:07:50.999Z</time></trkpt><trkpt lat="44.900348495228805" lon="9.971781449691944"><ele>70.0</ele><time>2026-04-18T06:07:51.999Z</time></trkpt><trkpt lat="44.900296384813295" lon="9.971705810465489"><ele>70.28571428571429</ele><time>2026-04-18T06:07:52.999Z</time></trkpt><trkpt lat="44.90024618178652" lon="9.971638619820519"><ele>70.57142857142857</ele><time>2026-04-18T06:07:53.999Z</time></trkpt><trkpt lat="44.90018630965966" lon="9.971575051627829"><ele>70.85714285714286</ele><time>2026-04-18T06:07:54.999Z</time></trkpt><trkpt lat="44.900127028218364" lon="9.9715114561684"><ele>71.14285714285714</ele><time>2026-04-18T06:07:55.999Z</time></trkpt><trkpt lat="44.90006854714282" lon="9.971449522208783"><ele>71.42857142857143</ele><time>2026-04-18T06:07:56.999Z</time></trkpt><trkpt lat="44.90000667386842" lon="9.97139035929965"><ele>71.71428571428572</ele><time>2026-04-18T06:07:57.999Z</time></trkpt><trkpt lat="44.89994638057128" lon="9.971329858278366"><ele>72.0</ele><time>2026-04-18T06:07:58.999Z</time></trkpt><trkpt lat="44.89988315246117" lon="9.971271172169507"><ele>72.00000000000001</ele><time>2026-04-18T06:07:59.999Z</time></trkpt><trkpt lat="44.89982296056726" lon="9.971217035985434"><ele>72.0</ele><time>2026-04-18T06:08:00.999Z</time></trkpt><trkpt lat="44.89976019541353" lon="9.971161518543099"><ele>72.0</ele><time>2026-04-18T06:08:01.999Z</time></trkpt><trkpt lat="44.89969999668052" lon="9.971104416137816"><ele>72.0</ele><time>2026-04-18T06:08:02.999Z</time></trkpt><trkpt lat="44.89964032383987" lon="9.971046132016008"><ele>72.0</ele><time>2026-04-18T06:08:03.999Z</time></trkpt><trkpt lat="44.89958373931332" lon="9.970990288448771"><ele>72.00000000000001</ele><time>2026-04-18T06:08:04.999Z</time></trkpt><trkpt lat="44.899522519202336" lon="9.970930211025198"><ele>72.0</ele><time>2026-04-18T06:08:05.999Z</time></trkpt><trkpt lat="44.89946016987474" lon="9.97087340039124"><ele>72.28571428571429</ele><time>2026-04-18T06:08:06.999Z</time></trkpt><trkpt lat="44.89939982885602" lon="9.970816028064727"><ele>72.57142857142857</ele><time>2026-04-18T06:08:07.999Z</time></trkpt><trkpt lat="44.89933907703699" lon="9.970765929501033"><ele>72.85714285714286</ele><time>2026-04-18T06:08:08.999Z</time></trkpt><trkpt lat="44.89927987226872" lon="9.970706008127909"><ele>73.14285714285714</ele><time>2026-04-18T06:08:09.999Z</time></trkpt><trkpt lat="44.8992213543914" lon="9.9706425792855"><ele>73.42857142857143</ele><time>2026-04-18T06:08:10.999Z</time></trkpt><trkpt lat="44.89916271469706" lon="9.97058766315977"><ele>73.71428571428572</ele><time>2026-04-18T06:08:11.999Z</time></trkpt><trkpt lat="44.899102257891606" lon="9.97053222101983"><ele>74.0</ele><time>2026-04-18T06:08:12.999Z</time></trkpt><trkpt lat="44.89904019881406" lon="9.970479705430977"><ele>74.0</ele><time>2026-04-18T06:08:13.999Z</time></trkpt><trkpt lat="44.898976269991735" lon="9.970430442475603"><ele>74.0</ele><time>2026-04-18T06:08:14.999Z</time></trkpt><trkpt lat="44.898913642190024" lon="9.970374994979313"><ele>74.0</ele><time>2026-04-18T06:08:15.999Z</time></trkpt><trkpt lat="44.898851354457875" lon="9.97031494942587"><ele>74.0</ele><time>2026-04-18T06:08:16.999Z</time></trkpt><trkpt lat="44.89878942838978" lon="9.970254851665251"><ele>74.0</ele><time>2026-04-18T06:08:17.999Z</time></trkpt><trkpt lat="44.89872699835905" lon="9.970199045248583"><ele>74.0</ele><time>2026-04-18T06:08:18.999Z</time></trkpt><trkpt lat="44.898662163202516" lon="9.970141167343499"><ele>74.0</ele><time>2026-04-18T06:08:19.999Z</time></trkpt><trkpt lat="44.89859772641781" lon="9.970082576902547"><ele>74.0</ele><time>2026-04-18T06:08:20.999Z</time></trkpt><trkpt lat="44.89853606423624" lon="9.97002641781521"><ele>74.0</ele><time>2026-04-18T06:08:21.999Z</time></trkpt><trkpt lat="44.89847399822373" lon="9.969964773171572"><ele>74.0</ele><time>2026-04-18T06:08:22.999Z</time></trkpt><trkpt lat="44.89841314024105" lon="9.969905765732461"><ele>74.0</ele><time>2026-04-18T06:08:23.999Z</time></trkpt><trkpt lat="44.89835251129314" lon="9.969846313823425"><ele>74.0</ele><time>2026-04-18T06:08:24.999Z</time></trkpt><trkpt lat="44.89828945683834" lon="9.969787838208843"><ele>74.0</ele><time>2026-04-18T06:08:25.999Z</time></trkpt><trkpt lat="44.89822885306493" lon="9.969730901689335"><ele>74.0</ele><time>2026-04-18T06:08:26.998Z</time></trkpt><trkpt lat="44.898165589728585" lon="9.969670574558268"><ele>74.14285714285714</ele><time>2026-04-18T06:08:27.998Z</time></trkpt><trkpt lat="44.89810313933878" lon="9.96961488465266"><ele>74.28571428571428</ele><time>2026-04-18T06:08:28.998Z</time></trkpt><trkpt lat="44.898036981347026" lon="9.96955881257152"><ele>74.42857142857142</ele><time>2026-04-18T06:08:29.998Z</time></trkpt><trkpt lat="44.89797628701144" lon="9.969502363654199"><ele>74.57142857142857</ele><time>2026-04-18T06:08:30.998Z</time></trkpt><trkpt lat="44.89791462825171" lon="9.96944577951361"><ele>74.71428571428571</ele><time>2026-04-18T06:08:31.998Z</time></trkpt><trkpt lat="44.89785319097534" lon="9.969391797063055"><ele>74.85714285714285</ele><time>2026-04-18T06:08:32.998Z</time></trkpt><trkpt lat="44.89779191724081" lon="9.969334965017175"><ele>75.0</ele><time>2026-04-18T06:08:33.998Z</time></trkpt><trkpt lat="44.89773350425051" lon="9.96927961641989"><ele>74.99999999999999</ele><time>2026-04-18T06:08:34.998Z</time></trkpt><trkpt lat="44.89767551802033" lon="9.969223487714354"><ele>75.0</ele><time>2026-04-18T06:08:35.998Z</time></trkpt><trkpt lat="44.897618658500896" lon="9.969169648323259"><ele>75.0</ele><time>2026-04-18T06:08:36.998Z</time></trkpt><trkpt lat="44.897560204889004" lon="9.969119497112375"><ele>75.0</ele><time>2026-04-18T06:08:37.998Z</time></trkpt><trkpt lat="44.8975022413611" lon="9.969067006753628"><ele>75.0</ele><time>2026-04-18T06:08:38.998Z</time></trkpt><trkpt lat="44.89744633343331" lon="9.969015231753238"><ele>74.99999999999999</ele><time>2026-04-18T06:08:39.998Z</time></trkpt><trkpt lat="44.8973901990218" lon="9.968956136441273"><ele>75.0</ele><time>2026-04-18T06:08:40.998Z</time></trkpt><trkpt lat="44.89733329424036" lon="9.968905625672333"><ele>75.28571428571428</ele><time>2026-04-18T06:08:41.998Z</time></trkpt><trkpt lat="44.8972771551498" lon="9.968847860249198"><ele>75.57142857142857</ele><time>2026-04-18T06:08:42.998Z</time></trkpt><trkpt lat="44.89722313425543" lon="9.968797106770774"><ele>75.85714285714286</ele><time>2026-04-18T06:08:43.998Z</time></trkpt><trkpt lat="44.89716947489193" lon="9.968747065137078"><ele>76.14285714285714</ele><time>2026-04-18T06:08:44.998Z</time></trkpt><trkpt lat="44.89711387417852" lon="9.968697064009568"><ele>76.42857142857143</ele><time>2026-04-18T06:08:45.998Z</time></trkpt><trkpt lat="44.8970573696905" lon="9.968641941204051"><ele>76.71428571428571</ele><time>2026-04-18T06:08:46.998Z</time></trkpt><trkpt lat="44.896999407769975" lon="9.96858996935359"><ele>77.0</ele><time>2026-04-18T06:08:47.998Z</time></trkpt><trkpt lat="44.89694057938308" lon="9.968540767111781"><ele>77.0</ele><time>2026-04-18T06:08:48.998Z</time></trkpt><trkpt lat="44.89688475252483" lon="9.968491351899397"><ele>77.0</ele><time>2026-04-18T06:08:49.998Z</time></trkpt><trkpt lat="44.896830579236486" lon="9.968435263270353"><ele>77.0</ele><time>2026-04-18T06:08:50.998Z</time></trkpt><trkpt lat="44.89673301982043" lon="9.968329562105218"><ele>77.0</ele><time>2026-04-18T06:08:52.998Z</time></trkpt><trkpt lat="44.896641445203606" lon="9.968227167059768"><ele>77.0</ele><time>2026-04-18T06:08:54.998Z</time></trkpt><trkpt lat="44.896566082879474" lon="9.96811414539037"><ele>77.16666666666667</ele><time>2026-04-18T06:08:56.998Z</time></trkpt><trkpt lat="44.896492010462836" lon="9.968029953342603"><ele>77.33333333333334</ele><time>2026-04-18T06:08:58.998Z</time></trkpt><trkpt lat="44.896424231534105" lon="9.967952914577726"><ele>77.5</ele><time>2026-04-18T06:09:00.998Z</time></trkpt><trkpt lat="44.89636442880761" lon="9.967902034818865"><ele>77.66666666666667</ele><time>2026-04-18T06:09:02.998Z</time></trkpt><trkpt lat="44.89631226632478" lon="9.967851432420755"><ele>77.83333333333333</ele><time>2026-04-18T06:09:06.998Z</time></trkpt><trkpt lat="44.89622679600341" lon="9.96783609993245"><ele>78.0</ele><time>2026-04-18T06:09:10.998Z</time></trkpt><trkpt lat="44.896157027112885" lon="9.9678492653688"><ele>78.0</ele><time>2026-04-18T06:09:12.998Z</time></trkpt><trkpt lat="44.896073410858186" lon="9.96781332923651"><ele>78.0</ele><time>2026-04-18T06:09:14.998Z</time></trkpt><trkpt lat="44.896002072812045" lon="9.967726372991793"><ele>78.0</ele><time>2026-04-18T06:09:16.998Z</time></trkpt><trkpt lat="44.895931234864776" lon="9.967628059616766"><ele>78.0</ele><time>2026-04-18T06:09:18.998Z</time></trkpt><trkpt lat="44.89583943762122" lon="9.967522967728135"><ele>78.0</ele><time>2026-04-18T06:09:21Z</time></trkpt><trkpt lat="44.89574097695207" lon="9.96739554205278"><ele>78.28571428571429</ele><time>2026-04-18T06:09:23Z</time></trkpt><trkpt lat="44.89569039421447" lon="9.967341741267754"><ele>78.57142857142857</ele><time>2026-04-18T06:09:24Z</time></trkpt><trkpt lat="44.89563150198953" lon="9.967284150739204"><ele>78.85714285714286</ele><time>2026-04-18T06:09:25Z</time></trkpt><trkpt lat="44.89557403642623" lon="9.967221978165846"><ele>79.14285714285714</ele><time>2026-04-18T06:09:26Z</time></trkpt><trkpt lat="44.89551701822977" lon="9.967175974381057"><ele>79.42857142857143</ele><time>2026-04-18T06:09:27Z</time></trkpt><trkpt lat="44.8954592264928" lon="9.967112293731473"><ele>79.71428571428571</ele><time>2026-04-18T06:09:28Z</time></trkpt><trkpt lat="44.895394535208375" lon="9.967047325985869"><ele>80.0</ele><time>2026-04-18T06:09:29Z</time></trkpt><trkpt lat="44.895336888798205" lon="9.966987640129528"><ele>80.0</ele><time>2026-04-18T06:09:30Z</time></trkpt><trkpt lat="44.89527980382307" lon="9.966922442876383"><ele>80.0</ele><time>2026-04-18T06:09:31Z</time></trkpt><trkpt lat="44.89522337030718" lon="9.966877176953961"><ele>80.0</ele><time>2026-04-18T06:09:32Z</time></trkpt><trkpt lat="44.895156582495105" lon="9.966812308436259"><ele>80.0</ele><time>2026-04-18T06:09:33Z</time></trkpt><trkpt lat="44.89509283845476" lon="9.966755005503968"><ele>80.0</ele><time>2026-04-18T06:09:34Z</time></trkpt><trkpt lat="44.89502731082289" lon="9.966695555704861"><ele>80.0</ele><time>2026-04-18T06:09:35Z</time></trkpt><trkpt lat="44.89497067662281" lon="9.966644384071538"><ele>80.0</ele><time>2026-04-18T06:09:35.999Z</time></trkpt><trkpt lat="44.89491465227616" lon="9.966579789835682"><ele>79.85714285714286</ele><time>2026-04-18T06:09:36.999Z</time></trkpt><trkpt lat="44.894864699194095" lon="9.96650690713647"><ele>79.71428571428572</ele><time>2026-04-18T06:09:37.999Z</time></trkpt><trkpt lat="44.89481726541333" lon="9.966432914838963"><ele>79.57142857142858</ele><time>2026-04-18T06:09:38.999Z</time></trkpt><trkpt lat="44.89477148059492" lon="9.966359524054925"><ele>79.42857142857143</ele><time>2026-04-18T06:09:39.999Z</time></trkpt><trkpt lat="44.894729780643175" lon="9.966286178488065"><ele>79.28571428571429</ele><time>2026-04-18T06:09:40.999Z</time></trkpt><trkpt lat="44.89469551185985" lon="9.966210140428586"><ele>79.14285714285715</ele><time>2026-04-18T06:09:41.999Z</time></trkpt><trkpt lat="44.894640163043654" lon="9.966085151252637"><ele>79.0</ele><time>2026-04-18T06:09:43.999Z</time></trkpt><trkpt lat="44.894580291419516" lon="9.965971302721329"><ele>79.33333333333333</ele><time>2026-04-18T06:09:45.999Z</time></trkpt><trkpt lat="44.89450803917574" lon="9.965840628988786"><ele>79.66666666666666</ele><time>2026-04-18T06:09:47.999Z</time></trkpt><trkpt lat="44.89443662556629" lon="9.965696737235017"><ele>80.0</ele><time>2026-04-18T06:09:49.999Z</time></trkpt><trkpt lat="44.89440285416949" lon="9.965620080499427"><ele>80.33333333333333</ele><time>2026-04-18T06:09:50.999Z</time></trkpt><trkpt lat="44.89436928075454" lon="9.965539073674766"><ele>80.66666666666667</ele><time>2026-04-18T06:09:51.999Z</time></trkpt><trkpt lat="44.89433043321744" lon="9.965458955522182"><ele>81.0</ele><time>2026-04-18T06:09:52.999Z</time></trkpt><trkpt lat="44.89429583372765" lon="9.965377815829196"><ele>81.0</ele><time>2026-04-18T06:09:53.999Z</time></trkpt><trkpt lat="44.89426315109476" lon="9.965299889960635"><ele>81.0</ele><time>2026-04-18T06:09:54.999Z</time></trkpt><trkpt lat="44.89423365510464" lon="9.965213645714371"><ele>81.0</ele><time>2026-04-18T06:09:55.999Z</time></trkpt><trkpt lat="44.89419929954312" lon="9.965136562617296"><ele>81.0</ele><time>2026-04-18T06:09:56.999Z</time></trkpt><trkpt lat="44.894162823168585" lon="9.965061227994724"><ele>81.0</ele><time>2026-04-18T06:09:57.999Z</time></trkpt><trkpt lat="44.89409367493088" lon="9.964905442919223"><ele>81.0</ele><time>2026-04-18T06:09:59.999Z</time></trkpt><trkpt lat="44.89405928923549" lon="9.964821144455367"><ele>81.28571428571429</ele><time>2026-04-18T06:10:00.999Z</time></trkpt><trkpt lat="44.89402118876353" lon="9.964739826525319"><ele>81.57142857142857</ele><time>2026-04-18T06:10:01.999Z</time></trkpt><trkpt lat="44.89397973372367" lon="9.964659645051688"><ele>81.85714285714286</ele><time>2026-04-18T06:10:02.999Z</time></trkpt><trkpt lat="44.89394026266681" lon="9.964577401904025"><ele>82.14285714285714</ele><time>2026-04-18T06:10:03.999Z</time></trkpt><trkpt lat="44.89390104602341" lon="9.964488534715652"><ele>82.42857142857143</ele><time>2026-04-18T06:10:04.999Z</time></trkpt><trkpt lat="44.893860969003065" lon="9.964402635203154"><ele>82.71428571428571</ele><time>2026-04-18T06:10:05.999Z</time></trkpt><trkpt lat="44.89382871452918" lon="9.964300333659898"><ele>83.0</ele><time>2026-04-18T06:10:06.999Z</time></trkpt><trkpt lat="44.89378255772881" lon="9.964222797643986"><ele>83.0</ele><time>2026-04-18T06:10:07.999Z</time></trkpt><trkpt lat="44.893735836845515" lon="9.964140512822436"><ele>83.0</ele><time>2026-04-18T06:10:08.999Z</time></trkpt><trkpt lat="44.89369303523403" lon="9.964061423557173"><ele>83.0</ele><time>2026-04-18T06:10:09.999Z</time></trkpt><trkpt lat="44.893651897967466" lon="9.963982826941388"><ele>83.0</ele><time>2026-04-18T06:10:10.999Z</time></trkpt><trkpt lat="44.89360676919492" lon="9.963904983171563"><ele>83.0</ele><time>2026-04-18T06:10:11.999Z</time></trkpt><trkpt lat="44.893565717393436" lon="9.963826066925396"><ele>83.0</ele><time>2026-04-18T06:10:12.999Z</time></trkpt><trkpt lat="44.89352274065049" lon="9.963751047126173"><ele>83.0</ele><time>2026-04-18T06:10:13.999Z</time></trkpt><trkpt lat="44.893478826481235" lon="9.96367941812386"><ele>83.0</ele><time>2026-04-18T06:10:14.999Z</time></trkpt><trkpt lat="44.8934276684923" lon="9.963594400033108"><ele>83.0</ele><time>2026-04-18T06:10:15.999Z</time></trkpt><trkpt lat="44.89337766748265" lon="9.963521147883638"><ele>83.0</ele><time>2026-04-18T06:10:16.999Z</time></trkpt><trkpt lat="44.8933274776256" lon="9.963445606255737"><ele>83.0</ele><time>2026-04-18T06:10:17.999Z</time></trkpt><trkpt lat="44.89327755216888" lon="9.963368655857062"><ele>83.0</ele><time>2026-04-18T06:10:18.999Z</time></trkpt><trkpt lat="44.893227595038375" lon="9.963288593255665"><ele>83.0</ele><time>2026-04-18T06:10:19.999Z</time></trkpt><trkpt lat="44.89317959033883" lon="9.963210893509913"><ele>83.0</ele><time>2026-04-18T06:10:20.999Z</time></trkpt><trkpt lat="44.89312986207002" lon="9.963133295775007"><ele>82.71428571428571</ele><time>2026-04-18T06:10:21.999Z</time></trkpt><trkpt lat="44.893079180669496" lon="9.963056990919666"><ele>82.42857142857143</ele><time>2026-04-18T06:10:22.999Z</time></trkpt><trkpt lat="44.8930316809094" lon="9.962976731479083"><ele>82.14285714285714</ele><time>2026-04-18T06:10:23.999Z</time></trkpt><trkpt lat="44.892983679967024" lon="9.962895973984848"><ele>81.85714285714286</ele><time>2026-04-18T06:10:24.999Z</time></trkpt><trkpt lat="44.89293408602799" lon="9.962819002812457"><ele>81.57142857142857</ele><time>2026-04-18T06:10:25.999Z</time></trkpt><trkpt lat="44.89288287989389" lon="9.962740405371411"><ele>81.28571428571429</ele><time>2026-04-18T06:10:26.999Z</time></trkpt><trkpt lat="44.89283197980463" lon="9.962663623564376"><ele>81.0</ele><time>2026-04-18T06:10:27.999Z</time></trkpt><trkpt lat="44.892783188548684" lon="9.962585658465718"><ele>80.85714285714286</ele><time>2026-04-18T06:10:28.999Z</time></trkpt><trkpt lat="44.892735662283464" lon="9.962506869530154"><ele>80.71428571428571</ele><time>2026-04-18T06:10:29.999Z</time></trkpt><trkpt lat="44.89268661503676" lon="9.962429620060755"><ele>80.57142857142857</ele><time>2026-04-18T06:10:30.998Z</time></trkpt><trkpt lat="44.89263770881306" lon="9.962356237575403"><ele>80.42857142857143</ele><time>2026-04-18T06:10:31.998Z</time></trkpt><trkpt lat="44.89258877624812" lon="9.962282276046846"><ele>80.28571428571429</ele><time>2026-04-18T06:10:32.998Z</time></trkpt><trkpt lat="44.89254078380133" lon="9.96220756833973"><ele>80.14285714285714</ele><time>2026-04-18T06:10:33.998Z</time></trkpt><trkpt lat="44.8924922979525" lon="9.962132962290854"><ele>80.0</ele><time>2026-04-18T06:10:34.998Z</time></trkpt><trkpt lat="44.89244567177798" lon="9.962058521656784"><ele>80.42857142857143</ele><time>2026-04-18T06:10:35.998Z</time></trkpt><trkpt lat="44.892397939102274" lon="9.961984732059124"><ele>80.85714285714286</ele><time>2026-04-18T06:10:36.998Z</time></trkpt><trkpt lat="44.89235229059605" lon="9.961913046984845"><ele>81.28571428571428</ele><time>2026-04-18T06:10:37.998Z</time></trkpt><trkpt lat="44.89230471098178" lon="9.961838448636016"><ele>81.71428571428572</ele><time>2026-04-18T06:10:38.998Z</time></trkpt><trkpt lat="44.892258134929804" lon="9.961762914721557"><ele>82.14285714285715</ele><time>2026-04-18T06:10:39.998Z</time></trkpt><trkpt lat="44.892210075332" lon="9.96169065819898"><ele>82.57142857142857</ele><time>2026-04-18T06:10:40.998Z</time></trkpt><trkpt lat="44.892163082825974" lon="9.96161606701597"><ele>83.0</ele><time>2026-04-18T06:10:41.998Z</time></trkpt><trkpt lat="44.89211430131394" lon="9.961543871327542"><ele>83.0</ele><time>2026-04-18T06:10:42.998Z</time></trkpt><trkpt lat="44.89206612206991" lon="9.961468452973001"><ele>83.0</ele><time>2026-04-18T06:10:43.998Z</time></trkpt><trkpt lat="44.89201820297962" lon="9.961395206733814"><ele>83.0</ele><time>2026-04-18T06:10:44.998Z</time></trkpt><trkpt lat="44.89196846938702" lon="9.961320637804267"><ele>83.0</ele><time>2026-04-18T06:10:45.998Z</time></trkpt><trkpt lat="44.89191996327601" lon="9.96124072719896"><ele>83.0</ele><time>2026-04-18T06:10:46.998Z</time></trkpt><trkpt lat="44.89187142744922" lon="9.961163095724878"><ele>83.0</ele><time>2026-04-18T06:10:47.998Z</time></trkpt><trkpt lat="44.89182267975189" lon="9.96108728773259"><ele>83.0</ele><time>2026-04-18T06:10:48.998Z</time></trkpt><trkpt lat="44.891771902958595" lon="9.961011538710572"><ele>83.14285714285714</ele><time>2026-04-18T06:10:49.998Z</time></trkpt><trkpt lat="44.89172331955542" lon="9.960932860599966"><ele>83.28571428571429</ele><time>2026-04-18T06:10:50.998Z</time></trkpt><trkpt lat="44.891673211794675" lon="9.960857262525499"><ele>83.42857142857143</ele><time>2026-04-18T06:10:51.998Z</time></trkpt><trkpt lat="44.89162624495277" lon="9.960780745350284"><ele>83.57142857142857</ele><time>2026-04-18T06:10:52.998Z</time></trkpt><trkpt lat="44.89157830634928" lon="9.960705442911136"><ele>83.71428571428572</ele><time>2026-04-18T06:10:53.998Z</time></trkpt><trkpt lat="44.89153125524383" lon="9.960629959251637"><ele>83.85714285714286</ele><time>2026-04-18T06:10:54.998Z</time></trkpt><trkpt lat="44.89148444581233" lon="9.960557079678578"><ele>84.0</ele><time>2026-04-18T06:10:55.998Z</time></trkpt><trkpt lat="44.89143746546798" lon="9.960480462433361"><ele>84.0</ele><time>2026-04-18T06:10:56.998Z</time></trkpt><trkpt lat="44.891390775392075" lon="9.960405539816014"><ele>84.0</ele><time>2026-04-18T06:10:57.998Z</time></trkpt><trkpt lat="44.89134152483398" lon="9.960331637927471"><ele>84.0</ele><time>2026-04-18T06:10:58.998Z</time></trkpt><trkpt lat="44.891291858931474" lon="9.960260036391862"><ele>84.0</ele><time>2026-04-18T06:10:59.998Z</time></trkpt><trkpt lat="44.89124276190189" lon="9.960185067093487"><ele>84.0</ele><time>2026-04-18T06:11:00.998Z</time></trkpt><trkpt lat="44.89119732698673" lon="9.960103412596071"><ele>84.0</ele><time>2026-04-18T06:11:01.998Z</time></trkpt><trkpt lat="44.8911486340177" lon="9.960026107359031"><ele>84.0</ele><time>2026-04-18T06:11:02.998Z</time></trkpt><trkpt lat="44.89110096011741" lon="9.959948763484086"><ele>84.0</ele><time>2026-04-18T06:11:03.998Z</time></trkpt><trkpt lat="44.89105273386179" lon="9.959869788250137"><ele>84.0</ele><time>2026-04-18T06:11:04.998Z</time></trkpt><trkpt lat="44.891005057128524" lon="9.959798429950085"><ele>84.0</ele><time>2026-04-18T06:11:05.998Z</time></trkpt><trkpt lat="44.89095705690907" lon="9.959721179550119"><ele>84.0</ele><time>2026-04-18T06:11:06.998Z</time></trkpt><trkpt lat="44.89090748672046" lon="9.959645921386661"><ele>84.0</ele><time>2026-04-18T06:11:07.998Z</time></trkpt><trkpt lat="44.89086071307303" lon="9.959571523421145"><ele>84.0</ele><time>2026-04-18T06:11:08.998Z</time></trkpt><trkpt lat="44.89081293375245" lon="9.95949884057821"><ele>84.0</ele><time>2026-04-18T06:11:09.998Z</time></trkpt><trkpt lat="44.89076655267711" lon="9.959425385063408"><ele>84.0</ele><time>2026-04-18T06:11:10.998Z</time></trkpt><trkpt lat="44.89072047283559" lon="9.959351405247954"><ele>84.0</ele><time>2026-04-18T06:11:11.998Z</time></trkpt><trkpt lat="44.890673457735915" lon="9.959275614946902"><ele>84.0</ele><time>2026-04-18T06:11:12.998Z</time></trkpt><trkpt lat="44.89062665101605" lon="9.959200823865698"><ele>84.0</ele><time>2026-04-18T06:11:13.998Z</time></trkpt><trkpt lat="44.890580239623446" lon="9.959122991524906"><ele>84.0</ele><time>2026-04-18T06:11:14.998Z</time></trkpt><trkpt lat="44.890530726117106" lon="9.959050368612585"><ele>84.0</ele><time>2026-04-18T06:11:15.998Z</time></trkpt><trkpt lat="44.89048232514411" lon="9.958977602462369"><ele>84.0</ele><time>2026-04-18T06:11:16.998Z</time></trkpt><trkpt lat="44.89043456297076" lon="9.958905291855725"><ele>84.14285714285714</ele><time>2026-04-18T06:11:17.998Z</time></trkpt><trkpt lat="44.890387715124376" lon="9.95883365867808"><ele>84.28571428571428</ele><time>2026-04-18T06:11:18.998Z</time></trkpt><trkpt lat="44.89034306063522" lon="9.958755725908405"><ele>84.42857142857143</ele><time>2026-04-18T06:11:19.998Z</time></trkpt><trkpt lat="44.89029530587226" lon="9.958677630680889"><ele>84.57142857142857</ele><time>2026-04-18T06:11:20.998Z</time></trkpt><trkpt lat="44.89024696207901" lon="9.958599636575313"><ele>84.71428571428571</ele><time>2026-04-18T06:11:21.998Z</time></trkpt><trkpt lat="44.89019696331572" lon="9.958519134262508"><ele>84.85714285714286</ele><time>2026-04-18T06:11:22.998Z</time></trkpt><trkpt lat="44.890149571547504" lon="9.958443447983841"><ele>85.0</ele><time>2026-04-18T06:11:23.998Z</time></trkpt><trkpt lat="44.89009525784043" lon="9.958363830489072"><ele>85.5</ele><time>2026-04-18T06:11:24.998Z</time></trkpt><trkpt lat="44.89004244873816" lon="9.958279101171245"><ele>86.0</ele><time>2026-04-18T06:11:25.997Z</time></trkpt><trkpt lat="44.88999051746027" lon="9.958199404827024"><ele>86.5</ele><time>2026-04-18T06:11:26.999Z</time></trkpt><trkpt lat="44.88994005304328" lon="9.958119336598854"><ele>87.0</ele><time>2026-04-18T06:11:28Z</time></trkpt><trkpt lat="44.8898908126926" lon="9.958036643915527"><ele>87.5</ele><time>2026-04-18T06:11:28.999Z</time></trkpt><trkpt lat="44.88983969580173" lon="9.95795352161681"><ele>88.0</ele><time>2026-04-18T06:11:29.999Z</time></trkpt><trkpt lat="44.88979344484003" lon="9.957867381308352"><ele>88.0</ele><time>2026-04-18T06:11:31Z</time></trkpt><trkpt lat="44.889749723325444" lon="9.95778034624843"><ele>88.0</ele><time>2026-04-18T06:11:31.999Z</time></trkpt><trkpt lat="44.88970771200838" lon="9.957689613950215"><ele>88.0</ele><time>2026-04-18T06:11:32.999Z</time></trkpt><trkpt lat="44.88966840426097" lon="9.957592315732247"><ele>88.0</ele><time>2026-04-18T06:11:34Z</time></trkpt><trkpt lat="44.8896255783973" lon="9.957497593836768"><ele>88.0</ele><time>2026-04-18T06:11:34.999Z</time></trkpt><trkpt lat="44.88958656600069" lon="9.957403719798325"><ele>88.0</ele><time>2026-04-18T06:11:35.999Z</time></trkpt><trkpt lat="44.88954734923508" lon="9.9573074471451"><ele>87.83333333333333</ele><time>2026-04-18T06:11:37Z</time></trkpt><trkpt lat="44.889507028100574" lon="9.957213440205162"><ele>87.66666666666666</ele><time>2026-04-18T06:11:37.999Z</time></trkpt><trkpt lat="44.88946328723994" lon="9.957121724947207"><ele>87.5</ele><time>2026-04-18T06:11:38.999Z</time></trkpt><trkpt lat="44.8894168997843" lon="9.957035754457626"><ele>87.33333333333333</ele><time>2026-04-18T06:11:40Z</time></trkpt><trkpt lat="44.88936901874635" lon="9.956949898222597"><ele>87.16666666666667</ele><time>2026-04-18T06:11:40.999Z</time></trkpt><trkpt lat="44.889315961478175" lon="9.956867113371114"><ele>87.0</ele><time>2026-04-18T06:11:41.999Z</time></trkpt><trkpt lat="44.889258141553356" lon="9.956788739400823"><ele>87.0</ele><time>2026-04-18T06:11:42.999Z</time></trkpt><trkpt lat="44.88919695034803" lon="9.956716839255943"><ele>87.0</ele><time>2026-04-18T06:11:43.999Z</time></trkpt><trkpt lat="44.8891343073695" lon="9.956644484541089"><ele>87.0</ele><time>2026-04-18T06:11:44.999Z</time></trkpt><trkpt lat="44.8890697031995" lon="9.956575325596097"><ele>87.0</ele><time>2026-04-18T06:11:45.999Z</time></trkpt><trkpt lat="44.88900441292006" lon="9.956514914716664"><ele>87.0</ele><time>2026-04-18T06:11:46.999Z</time></trkpt><trkpt lat="44.88893727635753" lon="9.956459166699927"><ele>87.0</ele><time>2026-04-18T06:11:47.999Z</time></trkpt><trkpt lat="44.88886759707418" lon="9.956402989613265"><ele>87.0</ele><time>2026-04-18T06:11:48.999Z</time></trkpt><trkpt lat="44.88880646447144" lon="9.95633103522108"><ele>87.0</ele><time>2026-04-18T06:11:49.999Z</time></trkpt><trkpt lat="44.88872886182681" lon="9.95630153220122"><ele>87.0</ele><time>2026-04-18T06:11:50.999Z</time></trkpt><trkpt lat="44.88865999450348" lon="9.956252736995038"><ele>87.0</ele><time>2026-04-18T06:11:51.999Z</time></trkpt><trkpt lat="44.88858950755831" lon="9.956208462648853"><ele>87.0</ele><time>2026-04-18T06:11:52.999Z</time></trkpt><trkpt lat="44.88851837494169" lon="9.95616575263608"><ele>87.0</ele><time>2026-04-18T06:11:53.999Z</time></trkpt><trkpt lat="44.888448639237346" lon="9.956120714463255"><ele>87.0</ele><time>2026-04-18T06:11:54.999Z</time></trkpt><trkpt lat="44.88837763213335" lon="9.956078023754767"><ele>87.0</ele><time>2026-04-18T06:11:55.999Z</time></trkpt><trkpt lat="44.888305421965796" lon="9.956037286180356"><ele>87.0</ele><time>2026-04-18T06:11:56.999Z</time></trkpt><trkpt lat="44.88823406835285" lon="9.955996038233227"><ele>87.0</ele><time>2026-04-18T06:11:57.999Z</time></trkpt><trkpt lat="44.88816400533227" lon="9.955953209471586"><ele>87.0</ele><time>2026-04-18T06:11:58.999Z</time></trkpt><trkpt lat="44.888094708505626" lon="9.955912029200153"><ele>87.0</ele><time>2026-04-18T06:11:59.999Z</time></trkpt><trkpt lat="44.88802583832822" lon="9.95586728577726"><ele>86.85714285714286</ele><time>2026-04-18T06:12:00.999Z</time></trkpt><trkpt lat="44.887958258095864" lon="9.955823682358224"><ele>86.71428571428572</ele><time>2026-04-18T06:12:01.999Z</time></trkpt><trkpt lat="44.88789114872945" lon="9.95578137352193"><ele>86.57142857142858</ele><time>2026-04-18T06:12:02.999Z</time></trkpt><trkpt lat="44.887825204652586" lon="9.955737844461614"><ele>86.42857142857143</ele><time>2026-04-18T06:12:03.999Z</time></trkpt><trkpt lat="44.88777109655035" lon="9.95566671939911"><ele>86.28571428571429</ele><time>2026-04-18T06:12:04.999Z</time></trkpt><trkpt lat="44.887713506501875" lon="9.955614189935307"><ele>86.14285714285715</ele><time>2026-04-18T06:12:05.999Z</time></trkpt><trkpt lat="44.887654532453844" lon="9.955557792776931"><ele>86.0</ele><time>2026-04-18T06:12:06.999Z</time></trkpt><trkpt lat="44.887587698797326" lon="9.955515760814624"><ele>86.28571428571429</ele><time>2026-04-18T06:12:07.999Z</time></trkpt><trkpt lat="44.88753176452383" lon="9.95545730516069"><ele>86.57142857142857</ele><time>2026-04-18T06:12:08.999Z</time></trkpt><trkpt lat="44.88748378940979" lon="9.955398136692072"><ele>86.85714285714286</ele><time>2026-04-18T06:12:09.999Z</time></trkpt><trkpt lat="44.887430052637896" lon="9.955334970248568"><ele>87.14285714285714</ele><time>2026-04-18T06:12:10.999Z</time></trkpt><trkpt lat="44.88737582830391" lon="9.955272433213535"><ele>87.42857142857143</ele><time>2026-04-18T06:12:11.999Z</time></trkpt><trkpt lat="44.88732325151677" lon="9.955208001624685"><ele>87.71428571428572</ele><time>2026-04-18T06:12:12.999Z</time></trkpt><trkpt lat="44.88728432710182" lon="9.955130460982305"><ele>88.0</ele><time>2026-04-18T06:12:13.999Z</time></trkpt><trkpt lat="44.88722051154316" lon="9.955075940620373"><ele>88.14285714285714</ele><time>2026-04-18T06:12:14.999Z</time></trkpt><trkpt lat="44.88717284860053" lon="9.955003872460592"><ele>88.28571428571428</ele><time>2026-04-18T06:12:15.999Z</time></trkpt><trkpt lat="44.88712169060111" lon="9.954935108335304"><ele>88.42857142857142</ele><time>2026-04-18T06:12:16.999Z</time></trkpt><trkpt lat="44.88706986702639" lon="9.954864668309833"><ele>88.57142857142857</ele><time>2026-04-18T06:12:17.999Z</time></trkpt><trkpt lat="44.88702222957914" lon="9.954802419808336"><ele>88.71428571428571</ele><time>2026-04-18T06:12:18.999Z</time></trkpt><trkpt lat="44.886975690399424" lon="9.954739080761536"><ele>88.85714285714285</ele><time>2026-04-18T06:12:19.999Z</time></trkpt><trkpt lat="44.8869301606718" lon="9.954675203658207"><ele>89.0</ele><time>2026-04-18T06:12:20.999Z</time></trkpt><trkpt lat="44.88684777353589" lon="9.954555206653584"><ele>89.0</ele><time>2026-04-18T06:12:22.999Z</time></trkpt><trkpt lat="44.886770444016804" lon="9.954445257997888"><ele>89.0</ele><time>2026-04-18T06:12:24.999Z</time></trkpt><trkpt lat="44.886708237960434" lon="9.954334190266136"><ele>89.0</ele><time>2026-04-18T06:12:26.999Z</time></trkpt><trkpt lat="44.886639830470706" lon="9.954244148083387"><ele>89.0</ele><time>2026-04-18T06:12:28.999Z</time></trkpt><trkpt lat="44.88648507894225" lon="9.95438113766004"><ele>89.0</ele><time>2026-04-18T06:12:32.999Z</time></trkpt><trkpt lat="44.88643486432386" lon="9.954528345823427"><ele>89.0</ele><time>2026-04-18T06:12:34.999Z</time></trkpt><trkpt lat="44.88639327084399" lon="9.954682254397017"><ele>89.0</ele><time>2026-04-18T06:12:36.998Z</time></trkpt><trkpt lat="44.886339223014296" lon="9.954847103442221"><ele>89.0</ele><time>2026-04-18T06:12:38.998Z</time></trkpt><trkpt lat="44.8863095194085" lon="9.954930932647203"><ele>89.0</ele><time>2026-04-18T06:12:39.998Z</time></trkpt><trkpt lat="44.88627955160184" lon="9.955015125923397"><ele>88.85714285714285</ele><time>2026-04-18T06:12:40.998Z</time></trkpt><trkpt lat="44.88624760211869" lon="9.955102774984459"><ele>88.71428571428571</ele><time>2026-04-18T06:12:41.998Z</time></trkpt><trkpt lat="44.886215400974265" lon="9.95519111443121"><ele>88.57142857142857</ele><time>2026-04-18T06:12:42.998Z</time></trkpt><trkpt lat="44.88618231497392" lon="9.955281881332853"><ele>88.42857142857142</ele><time>2026-04-18T06:12:43.998Z</time></trkpt><trkpt lat="44.88614792865125" lon="9.955371704362664"><ele>88.28571428571428</ele><time>2026-04-18T06:12:44.998Z</time></trkpt><trkpt lat="44.88611547093587" lon="9.955459366223302"><ele>88.14285714285714</ele><time>2026-04-18T06:12:45.998Z</time></trkpt><trkpt lat="44.88608129793033" lon="9.955551660694221"><ele>88.0</ele><time>2026-04-18T06:12:46.998Z</time></trkpt><trkpt lat="44.88605855497492" lon="9.955658287829875"><ele>88.0</ele><time>2026-04-18T06:12:47.998Z</time></trkpt><trkpt lat="44.8860257309646" lon="9.955751994056307"><ele>88.0</ele><time>2026-04-18T06:12:48.998Z</time></trkpt><trkpt lat="44.88598342841234" lon="9.955852482979092"><ele>88.0</ele><time>2026-04-18T06:12:49.998Z</time></trkpt><trkpt lat="44.885945269861644" lon="9.955955406433265"><ele>88.0</ele><time>2026-04-18T06:12:50.998Z</time></trkpt><trkpt lat="44.88591054091399" lon="9.956061587796059"><ele>88.0</ele><time>2026-04-18T06:12:51.999Z</time></trkpt><trkpt lat="44.885875445820474" lon="9.956166519894003"><ele>88.0</ele><time>2026-04-18T06:12:52.999Z</time></trkpt><trkpt lat="44.885837976928215" lon="9.956271312043153"><ele>88.0</ele><time>2026-04-18T06:12:53.999Z</time></trkpt><trkpt lat="44.885799104521375" lon="9.95637500113128"><ele>88.0</ele><time>2026-04-18T06:12:54.999Z</time></trkpt><trkpt lat="44.88576219402841" lon="9.956478166262773"><ele>88.0</ele><time>2026-04-18T06:12:55.999Z</time></trkpt><trkpt lat="44.88572416370234" lon="9.956580362790817"><ele>88.0</ele><time>2026-04-18T06:12:56.999Z</time></trkpt><trkpt lat="44.885685325202374" lon="9.95668224867058"><ele>88.0</ele><time>2026-04-18T06:12:57.999Z</time></trkpt><trkpt lat="44.88564895798865" lon="9.956782373883877"><ele>88.0</ele><time>2026-04-18T06:12:58.999Z</time></trkpt><trkpt lat="44.88561117970831" lon="9.95687962562542"><ele>87.83333333333333</ele><time>2026-04-18T06:12:59.999Z</time></trkpt><trkpt lat="44.88557561072255" lon="9.956978422195375"><ele>87.66666666666666</ele><time>2026-04-18T06:13:00.999Z</time></trkpt><trkpt lat="44.88554087915645" lon="9.957076636020094"><ele>87.5</ele><time>2026-04-18T06:13:01.999Z</time></trkpt><trkpt lat="44.885504068468" lon="9.95717579269151"><ele>87.33333333333333</ele><time>2026-04-18T06:13:02.999Z</time></trkpt><trkpt lat="44.885467496304194" lon="9.957272811092501"><ele>87.16666666666667</ele><time>2026-04-18T06:13:03.999Z</time></trkpt><trkpt lat="44.885430800672225" lon="9.957369871562191"><ele>87.0</ele><time>2026-04-18T06:13:04.999Z</time></trkpt><trkpt lat="44.885392843065425" lon="9.957465440982338"><ele>87.0</ele><time>2026-04-18T06:13:05.999Z</time></trkpt><trkpt lat="44.88535457490656" lon="9.957561046890353"><ele>87.0</ele><time>2026-04-18T06:13:06.999Z</time></trkpt><trkpt lat="44.88531719902454" lon="9.95765519952998"><ele>87.0</ele><time>2026-04-18T06:13:07.999Z</time></trkpt><trkpt lat="44.885278208582534" lon="9.957750056155383"><ele>87.0</ele><time>2026-04-18T06:13:08.999Z</time></trkpt><trkpt lat="44.88523808704361" lon="9.957845272289493"><ele>87.0</ele><time>2026-04-18T06:13:09.999Z</time></trkpt><trkpt lat="44.885198410643966" lon="9.95793991585965"><ele>87.0</ele><time>2026-04-18T06:13:10.999Z</time></trkpt><trkpt lat="44.88515522981456" lon="9.958031200002404"><ele>87.0</ele><time>2026-04-18T06:13:11.999Z</time></trkpt><trkpt lat="44.88511072988611" lon="9.958122891026544"><ele>87.0</ele><time>2026-04-18T06:13:12.999Z</time></trkpt><trkpt lat="44.885066177369666" lon="9.958213725960144"><ele>87.0</ele><time>2026-04-18T06:13:13.999Z</time></trkpt><trkpt lat="44.88502126171694" lon="9.958301873443776"><ele>87.0</ele><time>2026-04-18T06:13:14.999Z</time></trkpt><trkpt lat="44.884977541682" lon="9.958387357594669"><ele>87.0</ele><time>2026-04-18T06:13:15.999Z</time></trkpt><trkpt lat="44.88493427766052" lon="9.958471488328389"><ele>87.0</ele><time>2026-04-18T06:13:16.999Z</time></trkpt><trkpt lat="44.88489040510299" lon="9.958558199551376"><ele>87.42857142857143</ele><time>2026-04-18T06:13:17.999Z</time></trkpt><trkpt lat="44.88484899869231" lon="9.958643808442853"><ele>87.85714285714286</ele><time>2026-04-18T06:13:18.999Z</time></trkpt><trkpt lat="44.884805504004774" lon="9.958730200864752"><ele>88.28571428571428</ele><time>2026-04-18T06:13:19.999Z</time></trkpt><trkpt lat="44.884762625264095" lon="9.958815990847613"><ele>88.71428571428572</ele><time>2026-04-18T06:13:20.999Z</time></trkpt><trkpt lat="44.88471822469009" lon="9.958901107304392"><ele>89.14285714285715</ele><time>2026-04-18T06:13:21.999Z</time></trkpt><trkpt lat="44.8846760091699" lon="9.958986665119411"><ele>89.57142857142857</ele><time>2026-04-18T06:13:22.999Z</time></trkpt><trkpt lat="44.88462843954832" lon="9.959072103972854"><ele>90.0</ele><time>2026-04-18T06:13:23.999Z</time></trkpt><trkpt lat="44.884581062206195" lon="9.959154235073068"><ele>90.33333333333333</ele><time>2026-04-18T06:13:24.999Z</time></trkpt><trkpt lat="44.8845296862082" lon="9.959234940273749"><ele>90.66666666666667</ele><time>2026-04-18T06:13:25.999Z</time></trkpt><trkpt lat="44.88446500067178" lon="9.959292470898752"><ele>91.0</ele><time>2026-04-18T06:13:26.999Z</time></trkpt><trkpt lat="44.884420297712715" lon="9.959378263865196"><ele>91.33333333333334</ele><time>2026-04-18T06:13:27.999Z</time></trkpt><trkpt lat="44.88435350611218" lon="9.95942476300316"><ele>91.66666666666667</ele><time>2026-04-18T06:13:28.999Z</time></trkpt><trkpt lat="44.88430237303525" lon="9.959505697116649"><ele>92.0</ele><time>2026-04-18T06:13:29.999Z</time></trkpt><trkpt lat="44.88424370893173" lon="9.959568918236144"><ele>92.5</ele><time>2026-04-18T06:13:30.998Z</time></trkpt><trkpt lat="44.88418020521975" lon="9.959629546340363"><ele>93.0</ele><time>2026-04-18T06:13:31.998Z</time></trkpt><trkpt lat="44.884121986637375" lon="9.95969259805648"><ele>93.5</ele><time>2026-04-18T06:13:33Z</time></trkpt><trkpt lat="44.884048533688514" lon="9.959728014235132"><ele>94.0</ele><time>2026-04-18T06:13:34.001Z</time></trkpt><trkpt lat="44.88398502553541" lon="9.959788847739572"><ele>94.5</ele><time>2026-04-18T06:13:35Z</time></trkpt><trkpt lat="44.88392643325052" lon="9.959844972173691"><ele>95.0</ele><time>2026-04-18T06:13:36Z</time></trkpt><trkpt lat="44.88387303414746" lon="9.959922634334038"><ele>95.0</ele><time>2026-04-18T06:13:37Z</time></trkpt><trkpt lat="44.88380876025011" lon="9.959980950608951"><ele>95.0</ele><time>2026-04-18T06:13:38Z</time></trkpt><trkpt lat="44.88374599101765" lon="9.96004025454292"><ele>95.0</ele><time>2026-04-18T06:13:39Z</time></trkpt><trkpt lat="44.88368254290192" lon="9.960101644611909"><ele>95.0</ele><time>2026-04-18T06:13:40Z</time></trkpt><trkpt lat="44.88362011796444" lon="9.960161657503104"><ele>95.0</ele><time>2026-04-18T06:13:41Z</time></trkpt><trkpt lat="44.88355757837294" lon="9.960220037099585"><ele>95.0</ele><time>2026-04-18T06:13:42Z</time></trkpt><trkpt lat="44.88349580515004" lon="9.960278274387926"><ele>94.71428571428572</ele><time>2026-04-18T06:13:43Z</time></trkpt><trkpt lat="44.883441441287644" lon="9.96034829622339"><ele>94.42857142857143</ele><time>2026-04-18T06:13:44Z</time></trkpt><trkpt lat="44.883383936639625" lon="9.960412726270555"><ele>94.14285714285714</ele><time>2026-04-18T06:13:45Z</time></trkpt><trkpt lat="44.88332824916077" lon="9.960483415634206"><ele>93.85714285714286</ele><time>2026-04-18T06:13:46Z</time></trkpt><trkpt lat="44.88327372596263" lon="9.96055425355379"><ele>93.57142857142857</ele><time>2026-04-18T06:13:47Z</time></trkpt><trkpt lat="44.88322104759963" lon="9.96062755071425"><ele>93.28571428571429</ele><time>2026-04-18T06:13:48Z</time></trkpt><trkpt lat="44.88316685608927" lon="9.96070189712047"><ele>93.0</ele><time>2026-04-18T06:13:49Z</time></trkpt><trkpt lat="44.88311070347061" lon="9.96077961744621"><ele>93.5</ele><time>2026-04-18T06:13:50Z</time></trkpt><trkpt lat="44.88305275475978" lon="9.960858266989687"><ele>94.0</ele><time>2026-04-18T06:13:51Z</time></trkpt><trkpt lat="44.882991957093815" lon="9.960939257550335"><ele>94.5</ele><time>2026-04-18T06:13:52Z</time></trkpt><trkpt lat="44.88292980309663" lon="9.96101408210597"><ele>95.0</ele><time>2026-04-18T06:13:53Z</time></trkpt><trkpt lat="44.88285991753263" lon="9.961087598112195"><ele>95.5</ele><time>2026-04-18T06:13:54Z</time></trkpt><trkpt lat="44.88279645852693" lon="9.96117575960108"><ele>96.0</ele><time>2026-04-18T06:13:55Z</time></trkpt><trkpt lat="44.882719917010476" lon="9.961229572170067"><ele>96.0</ele><time>2026-04-18T06:13:56Z</time></trkpt><trkpt lat="44.88264842980832" lon="9.961297842887005"><ele>96.0</ele><time>2026-04-18T06:13:57Z</time></trkpt><trkpt lat="44.88257857800321" lon="9.961367756552002"><ele>96.0</ele><time>2026-04-18T06:13:58Z</time></trkpt><trkpt lat="44.882506612415156" lon="9.961433250669932"><ele>96.0</ele><time>2026-04-18T06:13:59Z</time></trkpt><trkpt lat="44.88243420736139" lon="9.961502129275884"><ele>96.0</ele><time>2026-04-18T06:14:00Z</time></trkpt><trkpt lat="44.88236130233682" lon="9.96156922604944"><ele>96.0</ele><time>2026-04-18T06:14:01Z</time></trkpt><trkpt lat="44.88228742220799" lon="9.961637753382515"><ele>94.66666666666667</ele><time>2026-04-18T06:14:02Z</time></trkpt><trkpt lat="44.882213482654585" lon="9.961705298615954"><ele>93.33333333333333</ele><time>2026-04-18T06:14:03Z</time></trkpt><trkpt lat="44.882137558814215" lon="9.961772399819203"><ele>92.0</ele><time>2026-04-18T06:14:04Z</time></trkpt><trkpt lat="44.882063478319246" lon="9.961840739862375"><ele>90.66666666666666</ele><time>2026-04-18T06:14:05Z</time></trkpt><trkpt lat="44.881989794221894" lon="9.961907608896988"><ele>89.33333333333333</ele><time>2026-04-18T06:14:06Z</time></trkpt><trkpt lat="44.88191872543449" lon="9.961973485562131"><ele>88.0</ele><time>2026-04-18T06:14:07Z</time></trkpt><trkpt lat="44.88185023843385" lon="9.962038039233551"><ele>88.0</ele><time>2026-04-18T06:14:08Z</time></trkpt><trkpt lat="44.88178084210115" lon="9.962099646300528"><ele>88.0</ele><time>2026-04-18T06:14:09Z</time></trkpt><trkpt lat="44.881713197916035" lon="9.962161391409172"><ele>88.0</ele><time>2026-04-18T06:14:10Z</time></trkpt><trkpt lat="44.88164719510052" lon="9.962222462774058"><ele>88.0</ele><time>2026-04-18T06:14:11Z</time></trkpt><trkpt lat="44.881584842283324" lon="9.962285235428096"><ele>88.0</ele><time>2026-04-18T06:14:12Z</time></trkpt><trkpt lat="44.88152439991248" lon="9.96234833671043"><ele>88.0</ele><time>2026-04-18T06:14:13Z</time></trkpt><trkpt lat="44.88146306550305" lon="9.962411199011141"><ele>88.57142857142857</ele><time>2026-04-18T06:14:14Z</time></trkpt><trkpt lat="44.881410091792645" lon="9.96247458280326"><ele>89.14285714285714</ele><time>2026-04-18T06:14:15Z</time></trkpt><trkpt lat="44.88134617752739" lon="9.962530639347447"><ele>89.71428571428572</ele><time>2026-04-18T06:14:16Z</time></trkpt><trkpt lat="44.88129504062904" lon="9.962603791823254"><ele>90.28571428571428</ele><time>2026-04-18T06:14:17Z</time></trkpt><trkpt lat="44.88124536410942" lon="9.962678624525097"><ele>90.85714285714285</ele><time>2026-04-18T06:14:18Z</time></trkpt><trkpt lat="44.881211422393356" lon="9.962768140175914"><ele>91.42857142857143</ele><time>2026-04-18T06:14:19Z</time></trkpt><trkpt lat="44.8811558179193" lon="9.962832688293668"><ele>92.0</ele><time>2026-04-18T06:14:20Z</time></trkpt><trkpt lat="44.881115494132835" lon="9.96291082818939"><ele>92.28571428571429</ele><time>2026-04-18T06:14:21Z</time></trkpt><trkpt lat="44.88108982771566" lon="9.963006948063699"><ele>92.57142857142857</ele><time>2026-04-18T06:14:22Z</time></trkpt><trkpt lat="44.88105209368524" lon="9.96308657861913"><ele>92.85714285714286</ele><time>2026-04-18T06:14:23Z</time></trkpt><trkpt lat="44.8810137140184" lon="9.963174358075724"><ele>93.14285714285714</ele><time>2026-04-18T06:14:24Z</time></trkpt><trkpt lat="44.88097953295022" lon="9.963257023194945"><ele>93.42857142857142</ele><time>2026-04-18T06:14:25Z</time></trkpt><trkpt lat="44.880939777692944" lon="9.963341052952597"><ele>93.71428571428571</ele><time>2026-04-18T06:14:26Z</time></trkpt><trkpt lat="44.88090642333833" lon="9.963425013572865"><ele>94.0</ele><time>2026-04-18T06:14:27Z</time></trkpt><trkpt lat="44.88086741688924" lon="9.963506782422444"><ele>94.57142857142857</ele><time>2026-04-18T06:14:28Z</time></trkpt><trkpt lat="44.88083087958697" lon="9.963591361471396"><ele>95.14285714285714</ele><time>2026-04-18T06:14:29Z</time></trkpt><trkpt lat="44.88079082875549" lon="9.96367856358893"><ele>95.71428571428572</ele><time>2026-04-18T06:14:30Z</time></trkpt><trkpt lat="44.880753759714175" lon="9.963767608837294"><ele>96.28571428571428</ele><time>2026-04-18T06:14:31Z</time></trkpt><trkpt lat="44.88071575042373" lon="9.963859273825246"><ele>96.85714285714286</ele><time>2026-04-18T06:14:32Z</time></trkpt><trkpt lat="44.880675067144324" lon="9.96395312359758"><ele>97.42857142857143</ele><time>2026-04-18T06:14:33Z</time></trkpt><trkpt lat="44.88063138441001" lon="9.964046304460496"><ele>98.0</ele><time>2026-04-18T06:14:34Z</time></trkpt><trkpt lat="44.880593318575" lon="9.964141658020862"><ele>97.33333333333333</ele><time>2026-04-18T06:14:35Z</time></trkpt><trkpt lat="44.880553213380075" lon="9.964237595468893"><ele>96.66666666666666</ele><time>2026-04-18T06:14:36Z</time></trkpt><trkpt lat="44.8805179275469" lon="9.964336635358443"><ele>96.0</ele><time>2026-04-18T06:14:37Z</time></trkpt><trkpt lat="44.88047046680523" lon="9.964442417489659"><ele>95.33333333333333</ele><time>2026-04-18T06:14:38Z</time></trkpt><trkpt lat="44.8804181643788" lon="9.964549302536767"><ele>94.66666666666666</ele><time>2026-04-18T06:14:39Z</time></trkpt><trkpt lat="44.880371064298934" lon="9.964658270213125"><ele>94.0</ele><time>2026-04-18T06:14:40Z</time></trkpt><trkpt lat="44.88032234683492" lon="9.964766504344366"><ele>94.0</ele><time>2026-04-18T06:14:40.999Z</time></trkpt><trkpt lat="44.88027398226496" lon="9.964870900114216"><ele>94.0</ele><time>2026-04-18T06:14:41.999Z</time></trkpt><trkpt lat="44.880222923493015" lon="9.964979536449654"><ele>94.0</ele><time>2026-04-18T06:14:42.999Z</time></trkpt><trkpt lat="44.88017266001196" lon="9.965086754150729"><ele>94.0</ele><time>2026-04-18T06:14:43.999Z</time></trkpt><trkpt lat="44.88012391363188" lon="9.96519931876718"><ele>94.0</ele><time>2026-04-18T06:14:44.999Z</time></trkpt><trkpt lat="44.88007524890235" lon="9.965308725342911"><ele>93.4</ele><time>2026-04-18T06:14:45.999Z</time></trkpt><trkpt lat="44.880028015091575" lon="9.965419078379949"><ele>92.80000000000001</ele><time>2026-04-18T06:14:46.999Z</time></trkpt><trkpt lat="44.87998318531052" lon="9.965531767657383"><ele>92.19999999999999</ele><time>2026-04-18T06:14:47.999Z</time></trkpt><trkpt lat="44.87993762948187" lon="9.965640515903925"><ele>91.6</ele><time>2026-04-18T06:14:48.999Z</time></trkpt><trkpt lat="44.87989457060254" lon="9.965751957405855"><ele>91.0</ele><time>2026-04-18T06:14:49.999Z</time></trkpt><trkpt lat="44.87985275708343" lon="9.965863591914628"><ele>90.83333333333333</ele><time>2026-04-18T06:14:50.999Z</time></trkpt><trkpt lat="44.87978336726398" lon="9.965952998933188"><ele>90.66666666666666</ele><time>2026-04-18T06:14:51.999Z</time></trkpt><trkpt lat="44.87974369241194" lon="9.966062274079242"><ele>90.5</ele><time>2026-04-18T06:14:52.999Z</time></trkpt><trkpt lat="44.87970545498058" lon="9.966167590935845"><ele>90.33333333333333</ele><time>2026-04-18T06:14:53.999Z</time></trkpt><trkpt lat="44.87966626151769" lon="9.966275540088581"><ele>90.16666666666667</ele><time>2026-04-18T06:14:54.999Z</time></trkpt><trkpt lat="44.879626273243346" lon="9.966385678350578"><ele>90.0</ele><time>2026-04-18T06:14:55.999Z</time></trkpt><trkpt lat="44.879587236705426" lon="9.966492048673233"><ele>90.0</ele><time>2026-04-18T06:14:56.999Z</time></trkpt><trkpt lat="44.87954712133326" lon="9.966600843228433"><ele>90.0</ele><time>2026-04-18T06:14:57.999Z</time></trkpt><trkpt lat="44.879508333838935" lon="9.966706036419632"><ele>90.0</ele><time>2026-04-18T06:14:58.999Z</time></trkpt><trkpt lat="44.87946884019408" lon="9.96681314506253"><ele>90.0</ele><time>2026-04-18T06:14:59.999Z</time></trkpt><trkpt lat="44.879429775317426" lon="9.966919090409355"><ele>90.0</ele><time>2026-04-18T06:15:00.999Z</time></trkpt><trkpt lat="44.879390340620304" lon="9.96702603838846"><ele>90.0</ele><time>2026-04-18T06:15:01.999Z</time></trkpt><trkpt lat="44.87935161189555" lon="9.967131073016695"><ele>89.66666666666667</ele><time>2026-04-18T06:15:02.999Z</time></trkpt><trkpt lat="44.87931174934223" lon="9.967239181421368"><ele>89.33333333333333</ele><time>2026-04-18T06:15:03.999Z</time></trkpt><trkpt lat="44.87927275649731" lon="9.967344932208368"><ele>89.0</ele><time>2026-04-18T06:15:04.999Z</time></trkpt><trkpt lat="44.879234420446714" lon="9.967448901034498"><ele>88.66666666666666</ele><time>2026-04-18T06:15:05.999Z</time></trkpt><trkpt lat="44.87919511412212" lon="9.967555380649912"><ele>88.33333333333333</ele><time>2026-04-18T06:15:06.999Z</time></trkpt><trkpt lat="44.8791554810554" lon="9.967662603905547"><ele>88.0</ele><time>2026-04-18T06:15:07.999Z</time></trkpt><trkpt lat="44.87911626647755" lon="9.96776869561453"><ele>87.83333333333333</ele><time>2026-04-18T06:15:08.999Z</time></trkpt><trkpt lat="44.87907741063508" lon="9.967873816431307"><ele>87.66666666666666</ele><time>2026-04-18T06:15:09.999Z</time></trkpt><trkpt lat="44.87903813305076" lon="9.967980078362087"><ele>87.5</ele><time>2026-04-18T06:15:10.999Z</time></trkpt><trkpt lat="44.878999027563566" lon="9.968085874747633"><ele>87.33333333333333</ele><time>2026-04-18T06:15:11.999Z</time></trkpt><trkpt lat="44.87896012546741" lon="9.96819112063238"><ele>87.16666666666667</ele><time>2026-04-18T06:15:12.999Z</time></trkpt><trkpt lat="44.87892116852442" lon="9.968296514972801"><ele>87.0</ele><time>2026-04-18T06:15:13.999Z</time></trkpt><trkpt lat="44.878881743901815" lon="9.968403174614732"><ele>87.0</ele><time>2026-04-18T06:15:14.999Z</time></trkpt><trkpt lat="44.878841806118096" lon="9.968511222685997"><ele>87.0</ele><time>2026-04-18T06:15:15.999Z</time></trkpt><trkpt lat="44.8788025402135" lon="9.96861745265866"><ele>87.0</ele><time>2026-04-18T06:15:16.999Z</time></trkpt><trkpt lat="44.8787635438261" lon="9.968723070032457"><ele>87.0</ele><time>2026-04-18T06:15:17.999Z</time></trkpt><trkpt lat="44.87872514595752" lon="9.968828045135753"><ele>87.0</ele><time>2026-04-18T06:15:18.999Z</time></trkpt><trkpt lat="44.8786864142883" lon="9.968933933182784"><ele>87.0</ele><time>2026-04-18T06:15:19.999Z</time></trkpt><trkpt lat="44.87864810666304" lon="9.969038661530583"><ele>87.0</ele><time>2026-04-18T06:15:20.999Z</time></trkpt><trkpt lat="44.878610005755405" lon="9.969142825177489"><ele>87.0</ele><time>2026-04-18T06:15:21.999Z</time></trkpt><trkpt lat="44.87857283042374" lon="9.969245982363"><ele>87.0</ele><time>2026-04-18T06:15:22.999Z</time></trkpt><trkpt lat="44.878536387658066" lon="9.969349818151596"><ele>87.0</ele><time>2026-04-18T06:15:23.999Z</time></trkpt><trkpt lat="44.878508554785924" lon="9.969440993072398"><ele>87.0</ele><time>2026-04-18T06:15:24.999Z</time></trkpt><trkpt lat="44.87847217734991" lon="9.969529186183285"><ele>87.0</ele><time>2026-04-18T06:15:25.999Z</time></trkpt><trkpt lat="44.87841052885031" lon="9.96958457094929"><ele>87.33333333333333</ele><time>2026-04-18T06:15:26.999Z</time></trkpt><trkpt lat="44.87834856058122" lon="9.969650862892752"><ele>87.66666666666667</ele><time>2026-04-18T06:15:27.999Z</time></trkpt><trkpt lat="44.87828045951245" lon="9.969672693370594"><ele>88.0</ele><time>2026-04-18T06:15:28.999Z</time></trkpt><trkpt lat="44.878145571723415" lon="9.969536939870608"><ele>88.33333333333334</ele><time>2026-04-18T06:15:30.999Z</time></trkpt><trkpt lat="44.878096301765034" lon="9.969472684554177"><ele>88.66666666666667</ele><time>2026-04-18T06:15:31.999Z</time></trkpt><trkpt lat="44.87804993419789" lon="9.969402611366508"><ele>89.0</ele><time>2026-04-18T06:15:32.999Z</time></trkpt><trkpt lat="44.87800155823542" lon="9.96933574457931"><ele>89.0</ele><time>2026-04-18T06:15:33.999Z</time></trkpt><trkpt lat="44.8779540548451" lon="9.969272056026977"><ele>89.0</ele><time>2026-04-18T06:15:34.999Z</time></trkpt><trkpt lat="44.877907535203136" lon="9.969208484330387"><ele>89.0</ele><time>2026-04-18T06:15:35.998Z</time></trkpt><trkpt lat="44.87785930751426" lon="9.969147733852358"><ele>89.0</ele><time>2026-04-18T06:15:36.998Z</time></trkpt><trkpt lat="44.87780225151345" lon="9.969109867963775"><ele>89.0</ele><time>2026-04-18T06:15:38Z</time></trkpt><trkpt lat="44.87769191341132" lon="9.969071416072854"><ele>89.0</ele><time>2026-04-18T06:15:40Z</time></trkpt><trkpt lat="44.877616482928445" lon="9.969199630996458"><ele>89.0</ele><time>2026-04-18T06:15:41Z</time></trkpt><trkpt lat="44.87760737596806" lon="9.96932104894882"><ele>89.0</ele><time>2026-04-18T06:15:42Z</time></trkpt><trkpt lat="44.87758410126583" lon="9.969417584958087"><ele>89.0</ele><time>2026-04-18T06:15:43Z</time></trkpt><trkpt lat="44.87755784040506" lon="9.96951795702588"><ele>89.0</ele><time>2026-04-18T06:15:44Z</time></trkpt><trkpt lat="44.87752177499082" lon="9.969612985137667"><ele>89.0</ele><time>2026-04-18T06:15:45Z</time></trkpt><trkpt lat="44.87744442148597" lon="9.969666748047478"><ele>89.0</ele><time>2026-04-18T06:15:46Z</time></trkpt><trkpt lat="44.87739964348375" lon="9.96975134567202"><ele>89.16666666666667</ele><time>2026-04-18T06:15:47Z</time></trkpt><trkpt lat="44.8773532394604" lon="9.969839015149658"><ele>89.33333333333334</ele><time>2026-04-18T06:15:48Z</time></trkpt><trkpt lat="44.87730540814368" lon="9.969929381255445"><ele>89.5</ele><time>2026-04-18T06:15:49Z</time></trkpt><trkpt lat="44.87725785050609" lon="9.970019230264183"><ele>89.66666666666667</ele><time>2026-04-18T06:15:50Z</time></trkpt><trkpt lat="44.877210090244546" lon="9.97010964220544"><ele>89.83333333333333</ele><time>2026-04-18T06:15:51Z</time></trkpt><trkpt lat="44.87716244888092" lon="9.970200632109634"><ele>90.0</ele><time>2026-04-18T06:15:52Z</time></trkpt><trkpt lat="44.877114742017305" lon="9.970291747097692"><ele>90.0</ele><time>2026-04-18T06:15:53Z</time></trkpt><trkpt lat="44.87706720964193" lon="9.970382528850335"><ele>90.0</ele><time>2026-04-18T06:15:54Z</time></trkpt><trkpt lat="44.87702065797504" lon="9.97047522017055"><ele>90.0</ele><time>2026-04-18T06:15:55Z</time></trkpt><trkpt lat="44.87697418344634" lon="9.97056845206326"><ele>90.0</ele><time>2026-04-18T06:15:56Z</time></trkpt><trkpt lat="44.876929052038236" lon="9.970657565413255"><ele>90.0</ele><time>2026-04-18T06:15:57Z</time></trkpt><trkpt lat="44.87688218780691" lon="9.970747387034079"><ele>90.0</ele><time>2026-04-18T06:15:58Z</time></trkpt><trkpt lat="44.87683464441788" lon="9.970838510297655"><ele>90.0</ele><time>2026-04-18T06:15:59Z</time></trkpt><trkpt lat="44.87678832316909" lon="9.97092729113841"><ele>90.0</ele><time>2026-04-18T06:16:00Z</time></trkpt><trkpt lat="44.87674228012332" lon="9.97101553880977"><ele>90.0</ele><time>2026-04-18T06:16:01Z</time></trkpt><trkpt lat="44.87669679700206" lon="9.97110271326756"><ele>90.0</ele><time>2026-04-18T06:16:02Z</time></trkpt><trkpt lat="44.876649640893525" lon="9.971192637046112"><ele>90.0</ele><time>2026-04-18T06:16:03Z</time></trkpt><trkpt lat="44.87660336299871" lon="9.971280848850666"><ele>90.0</ele><time>2026-04-18T06:16:04Z</time></trkpt><trkpt lat="44.87655806876667" lon="9.971367185702123"><ele>90.0</ele><time>2026-04-18T06:16:05Z</time></trkpt><trkpt lat="44.876513894144566" lon="9.97145138852033"><ele>90.0</ele><time>2026-04-18T06:16:06Z</time></trkpt><trkpt lat="44.87647108431156" lon="9.971532989727223"><ele>90.0</ele><time>2026-04-18T06:16:07Z</time></trkpt><trkpt lat="44.87642930406979" lon="9.971612628558983"><ele>90.0</ele><time>2026-04-18T06:16:08Z</time></trkpt><trkpt lat="44.876386640806125" lon="9.971693950413629"><ele>90.0</ele><time>2026-04-18T06:16:09Z</time></trkpt><trkpt lat="44.87634283073644" lon="9.971777458285445"><ele>90.0</ele><time>2026-04-18T06:16:10Z</time></trkpt><trkpt lat="44.87629906110768" lon="9.971860889066011"><ele>90.0</ele><time>2026-04-18T06:16:11Z</time></trkpt><trkpt lat="44.876255136708316" lon="9.97194461486348"><ele>89.85714285714285</ele><time>2026-04-18T06:16:12Z</time></trkpt><trkpt lat="44.87621291261755" lon="9.972025468699862"><ele>89.71428571428572</ele><time>2026-04-18T06:16:13Z</time></trkpt><trkpt lat="44.87617118068507" lon="9.972105710020678"><ele>89.57142857142857</ele><time>2026-04-18T06:16:14Z</time></trkpt><trkpt lat="44.87612799961866" lon="9.972188737705023"><ele>89.42857142857142</ele><time>2026-04-18T06:16:15Z</time></trkpt><trkpt lat="44.876084944616174" lon="9.97227152302161"><ele>89.28571428571428</ele><time>2026-04-18T06:16:16Z</time></trkpt><trkpt lat="44.876042123476324" lon="9.972353858632914"><ele>89.14285714285714</ele><time>2026-04-18T06:16:17Z</time></trkpt><trkpt lat="44.87599921158528" lon="9.972441190968226"><ele>89.0</ele><time>2026-04-18T06:16:18Z</time></trkpt><trkpt lat="44.87595889534641" lon="9.97253152494113"><ele>90.14285714285714</ele><time>2026-04-18T06:16:19Z</time></trkpt><trkpt lat="44.87592354350446" lon="9.972625258644044"><ele>91.28571428571428</ele><time>2026-04-18T06:16:20Z</time></trkpt><trkpt lat="44.875892193090124" lon="9.972719428858396"><ele>92.42857142857142</ele><time>2026-04-18T06:16:21Z</time></trkpt><trkpt lat="44.8758639565038" lon="9.972813674415987"><ele>93.57142857142857</ele><time>2026-04-18T06:16:22Z</time></trkpt><trkpt lat="44.8758378619358" lon="9.97290702139583"><ele>94.71428571428572</ele><time>2026-04-18T06:16:23Z</time></trkpt><trkpt lat="44.87581345114172" lon="9.97299748676411"><ele>95.85714285714285</ele><time>2026-04-18T06:16:24Z</time></trkpt><trkpt lat="44.87578820862263" lon="9.973091034285405"><ele>97.0</ele><time>2026-04-18T06:16:25Z</time></trkpt><trkpt lat="44.87576324449391" lon="9.973183551874088"><ele>97.00000000000001</ele><time>2026-04-18T06:16:26Z</time></trkpt><trkpt lat="44.87573795875376" lon="9.973277262729248"><ele>97.0</ele><time>2026-04-18T06:16:27Z</time></trkpt><trkpt lat="44.875713623867284" lon="9.973363869437808"><ele>97.0</ele><time>2026-04-18T06:16:28Z</time></trkpt><trkpt lat="44.87569095716639" lon="9.973451448933787"><ele>97.0</ele><time>2026-04-18T06:16:29Z</time></trkpt><trkpt lat="44.87565116414436" lon="9.973607225013788"><ele>97.00000000000001</ele><time>2026-04-18T06:16:31Z</time></trkpt><trkpt lat="44.87564677501121" lon="9.973753241458873"><ele>97.0</ele><time>2026-04-18T06:16:33Z</time></trkpt><trkpt lat="44.87562056687021" lon="9.973887503020993"><ele>99.00000000000001</ele><time>2026-04-18T06:16:35Z</time></trkpt><trkpt lat="44.875596209163064" lon="9.9740186859182"><ele>101.0</ele><time>2026-04-18T06:16:37Z</time></trkpt><trkpt lat="44.875573392429196" lon="9.97414084723875"><ele>103.0</ele><time>2026-04-18T06:16:39Z</time></trkpt><trkpt lat="44.875552600994055" lon="9.974257743012535"><ele>105.0</ele><time>2026-04-18T06:16:41Z</time></trkpt><trkpt lat="44.87553421064854" lon="9.974378010847627"><ele>107.00000000000001</ele><time>2026-04-18T06:16:43Z</time></trkpt><trkpt lat="44.875512348450954" lon="9.974488372781266"><ele>109.0</ele><time>2026-04-18T06:16:44.999Z</time></trkpt><trkpt lat="44.875487636308016" lon="9.974591171985923"><ele>109.00000000000001</ele><time>2026-04-18T06:16:46.999Z</time></trkpt><trkpt lat="44.87546699999011" lon="9.974697274111108"><ele>109.0</ele><time>2026-04-18T06:16:48.999Z</time></trkpt><trkpt lat="44.875427987839004" lon="9.974789617870924"><ele>109.0</ele><time>2026-04-18T06:16:50.999Z</time></trkpt><trkpt lat="44.87534675255369" lon="9.974796674434364"><ele>109.0</ele><time>2026-04-18T06:16:52.999Z</time></trkpt><trkpt lat="44.87525682063097" lon="9.974765229052904"><ele>109.00000000000001</ele><time>2026-04-18T06:16:54.999Z</time></trkpt><trkpt lat="44.875170337359044" lon="9.974748503555888"><ele>109.0</ele><time>2026-04-18T06:16:56.999Z</time></trkpt><trkpt lat="44.875082707686" lon="9.974734033676512"><ele>108.4</ele><time>2026-04-18T06:16:58.999Z</time></trkpt><trkpt lat="44.8749924996656" lon="9.97472271152984"><ele>107.80000000000001</ele><time>2026-04-18T06:17:00.999Z</time></trkpt><trkpt lat="44.87490119316369" lon="9.974711514189496"><ele>107.19999999999999</ele><time>2026-04-18T06:17:02.999Z</time></trkpt><trkpt lat="44.87480890676196" lon="9.974700178378628"><ele>106.6</ele><time>2026-04-18T06:17:04.999Z</time></trkpt><trkpt lat="44.874720682875214" lon="9.974694660052217"><ele>106.0</ele><time>2026-04-18T06:17:06.999Z</time></trkpt><trkpt lat="44.874629797106344" lon="9.974682489459322"><ele>106.0</ele><time>2026-04-18T06:17:08.999Z</time></trkpt><trkpt lat="44.87454000510951" lon="9.974667218114709"><ele>106.0</ele><time>2026-04-18T06:17:10.999Z</time></trkpt><trkpt lat="44.87444865152652" lon="9.974660763038878"><ele>106.0</ele><time>2026-04-18T06:17:12.999Z</time></trkpt><trkpt lat="44.87436079653127" lon="9.974649954168168"><ele>106.0</ele><time>2026-04-18T06:17:14.999Z</time></trkpt><trkpt lat="44.87427075539473" lon="9.97463748403327"><ele>106.0</ele><time>2026-04-18T06:17:16.999Z</time></trkpt><trkpt lat="44.87417563412149" lon="9.974625872430659"><ele>106.6</ele><time>2026-04-18T06:17:18.999Z</time></trkpt><trkpt lat="44.87407764959506" lon="9.97461473167186"><ele>107.19999999999999</ele><time>2026-04-18T06:17:20.999Z</time></trkpt><trkpt lat="44.87397974227593" lon="9.974603887404959"><ele>107.80000000000001</ele><time>2026-04-18T06:17:22.999Z</time></trkpt><trkpt lat="44.87388162389396" lon="9.9745949372429"><ele>108.4</ele><time>2026-04-18T06:17:24.999Z</time></trkpt><trkpt lat="44.873783991516646" lon="9.97458071071111"><ele>109.0</ele><time>2026-04-18T06:17:26.999Z</time></trkpt><trkpt lat="44.87368407149555" lon="9.974568338901149"><ele>109.0</ele><time>2026-04-18T06:17:28.999Z</time></trkpt><trkpt lat="44.87358408312289" lon="9.974555094640895"><ele>109.0</ele><time>2026-04-18T06:17:30.999Z</time></trkpt><trkpt lat="44.873484308516886" lon="9.974544619623295"><ele>109.0</ele><time>2026-04-18T06:17:32.999Z</time></trkpt><trkpt lat="44.87338703685407" lon="9.974537014511071"><ele>109.0</ele><time>2026-04-18T06:17:34.999Z</time></trkpt><trkpt lat="44.873283495077985" lon="9.974517833048028"><ele>109.0</ele><time>2026-04-18T06:17:36.999Z</time></trkpt><trkpt lat="44.87318102502538" lon="9.974506499204093"><ele>109.4</ele><time>2026-04-18T06:17:38.998Z</time></trkpt><trkpt lat="44.87307938603976" lon="9.974494108800275"><ele>109.80000000000001</ele><time>2026-04-18T06:17:40.998Z</time></trkpt><trkpt lat="44.87297427375761" lon="9.97448024163608"><ele>110.19999999999999</ele><time>2026-04-18T06:17:42.998Z</time></trkpt><trkpt lat="44.87286905468426" lon="9.974468368509783"><ele>110.6</ele><time>2026-04-18T06:17:45Z</time></trkpt><trkpt lat="44.87276690816315" lon="9.974461575573468"><ele>111.0</ele><time>2026-04-18T06:17:47Z</time></trkpt><trkpt lat="44.872662890656756" lon="9.97444878358252"><ele>111.8</ele><time>2026-04-18T06:17:49Z</time></trkpt><trkpt lat="44.87255774143503" lon="9.974436370983677"><ele>112.6</ele><time>2026-04-18T06:17:51Z</time></trkpt><trkpt lat="44.87245787230264" lon="9.974425767080136"><ele>113.4</ele><time>2026-04-18T06:17:53Z</time></trkpt><trkpt lat="44.87235237404716" lon="9.974413171785004"><ele>114.2</ele><time>2026-04-18T06:17:55Z</time></trkpt><trkpt lat="44.872247658564795" lon="9.974388654473028"><ele>115.0</ele><time>2026-04-18T06:17:57Z</time></trkpt><trkpt lat="44.87213968407928" lon="9.974365019196716"><ele>115.0</ele><time>2026-04-18T06:17:59Z</time></trkpt><trkpt lat="44.872036596193276" lon="9.974358246800687"><ele>115.0</ele><time>2026-04-18T06:18:01Z</time></trkpt><trkpt lat="44.87193147583662" lon="9.974331614028308"><ele>115.0</ele><time>2026-04-18T06:18:03Z</time></trkpt><trkpt lat="44.871830036227216" lon="9.974303989387922"><ele>115.0</ele><time>2026-04-18T06:18:05Z</time></trkpt><trkpt lat="44.87172758257684" lon="9.974272699810578"><ele>115.0</ele><time>2026-04-18T06:18:07Z</time></trkpt><trkpt lat="44.87162476272022" lon="9.974251098945748"><ele>115.4</ele><time>2026-04-18T06:18:09Z</time></trkpt><trkpt lat="44.8715213958187" lon="9.974221127752989"><ele>115.8</ele><time>2026-04-18T06:18:11Z</time></trkpt><trkpt lat="44.87141847380268" lon="9.974189641700994"><ele>116.19999999999999</ele><time>2026-04-18T06:18:13Z</time></trkpt><trkpt lat="44.871316532078325" lon="9.974163799124097"><ele>116.6</ele><time>2026-04-18T06:18:15Z</time></trkpt><trkpt lat="44.871212124305316" lon="9.974138358776178"><ele>117.0</ele><time>2026-04-18T06:18:17Z</time></trkpt><trkpt lat="44.87110827302459" lon="9.974115295521427"><ele>117.39999999999999</ele><time>2026-04-18T06:18:19Z</time></trkpt><trkpt lat="44.87100330288084" lon="9.974099848601623"><ele>117.79999999999998</ele><time>2026-04-18T06:18:21Z</time></trkpt><trkpt lat="44.87089602927105" lon="9.974082870321407"><ele>118.2</ele><time>2026-04-18T06:18:23Z</time></trkpt><trkpt lat="44.87078916278147" lon="9.974073144556835"><ele>118.6</ele><time>2026-04-18T06:18:25Z</time></trkpt><trkpt lat="44.87067960984871" lon="9.974054890008542"><ele>119.0</ele><time>2026-04-18T06:18:27Z</time></trkpt><trkpt lat="44.87056300251977" lon="9.9740418011141"><ele>119.0</ele><time>2026-04-18T06:18:29Z</time></trkpt><trkpt lat="44.87045174952637" lon="9.97402647250223"><ele>119.0</ele><time>2026-04-18T06:18:31Z</time></trkpt><trkpt lat="44.87033628770023" lon="9.974016654106805"><ele>119.0</ele><time>2026-04-18T06:18:33Z</time></trkpt><trkpt lat="44.87022512827495" lon="9.974001966418383"><ele>119.0</ele><time>2026-04-18T06:18:35Z</time></trkpt><trkpt lat="44.8701146935285" lon="9.973990309503952"><ele>119.2</ele><time>2026-04-18T06:18:37Z</time></trkpt><trkpt lat="44.87000409770597" lon="9.973979074327811"><ele>119.4</ele><time>2026-04-18T06:18:39Z</time></trkpt><trkpt lat="44.869893219726535" lon="9.973961905285568"><ele>119.6</ele><time>2026-04-18T06:18:41Z</time></trkpt><trkpt lat="44.86978465961025" lon="9.973948082783256"><ele>119.8</ele><time>2026-04-18T06:18:43Z</time></trkpt><trkpt lat="44.86967475156544" lon="9.973938403150655"><ele>120.0</ele><time>2026-04-18T06:18:45Z</time></trkpt><trkpt lat="44.86956864143621" lon="9.973919275405615"><ele>120.0</ele><time>2026-04-18T06:18:47Z</time></trkpt><trkpt lat="44.8694565062274" lon="9.973901958757228"><ele>120.0</ele><time>2026-04-18T06:18:49Z</time></trkpt><trkpt lat="44.8693514989293" lon="9.973892551836467"><ele>120.0</ele><time>2026-04-18T06:18:50.999Z</time></trkpt><trkpt lat="44.86924682462886" lon="9.973883568062867"><ele>120.0</ele><time>2026-04-18T06:18:52.999Z</time></trkpt><trkpt lat="44.86913979119312" lon="9.973873010923299"><ele>120.0</ele><time>2026-04-18T06:18:54.999Z</time></trkpt><trkpt lat="44.86903075568365" lon="9.973860220908868"><ele>120.4</ele><time>2026-04-18T06:18:56.999Z</time></trkpt><trkpt lat="44.86892083242348" lon="9.973856386588613"><ele>120.8</ele><time>2026-04-18T06:18:58.999Z</time></trkpt><trkpt lat="44.86880867580184" lon="9.973860226183136"><ele>121.19999999999999</ele><time>2026-04-18T06:19:00.999Z</time></trkpt><trkpt lat="44.86869759498758" lon="9.973870712292655"><ele>121.6</ele><time>2026-04-18T06:19:02.999Z</time></trkpt><trkpt lat="44.86858644948351" lon="9.973884835446542"><ele>122.0</ele><time>2026-04-18T06:19:04.999Z</time></trkpt><trkpt lat="44.86847749900145" lon="9.973903214319074"><ele>122.75</ele><time>2026-04-18T06:19:06.999Z</time></trkpt><trkpt lat="44.86836265629154" lon="9.97392170081113"><ele>123.5</ele><time>2026-04-18T06:19:08.999Z</time></trkpt><trkpt lat="44.86825165418" lon="9.973944688865654"><ele>124.25</ele><time>2026-04-18T06:19:10.999Z</time></trkpt><trkpt lat="44.86814170689597" lon="9.973967537375584"><ele>125.0</ele><time>2026-04-18T06:19:12.999Z</time></trkpt><trkpt lat="44.8680315796893" lon="9.973990597787944"><ele>125.0</ele><time>2026-04-18T06:19:14.999Z</time></trkpt><trkpt lat="44.86792259931072" lon="9.974016729766431"><ele>125.0</ele><time>2026-04-18T06:19:16.999Z</time></trkpt><trkpt lat="44.867807977438794" lon="9.97403313898459"><ele>125.0</ele><time>2026-04-18T06:19:18.999Z</time></trkpt><trkpt lat="44.86769446029939" lon="9.974039805153243"><ele>125.0</ele><time>2026-04-18T06:19:20.999Z</time></trkpt><trkpt lat="44.867581801651426" lon="9.974039650986478"><ele>125.8</ele><time>2026-04-18T06:19:22.999Z</time></trkpt><trkpt lat="44.86746915335432" lon="9.974024621664851"><ele>126.6</ele><time>2026-04-18T06:19:24.999Z</time></trkpt><trkpt lat="44.86735806121548" lon="9.974007551277651"><ele>127.4</ele><time>2026-04-18T06:19:26.999Z</time></trkpt><trkpt lat="44.86725144341715" lon="9.973973540788073"><ele>128.2</ele><time>2026-04-18T06:19:28.999Z</time></trkpt><trkpt lat="44.867145218795635" lon="9.973942198411802"><ele>129.0</ele><time>2026-04-18T06:19:30.999Z</time></trkpt><trkpt lat="44.86704043094418" lon="9.973917605926985"><ele>129.0</ele><time>2026-04-18T06:19:32.999Z</time></trkpt><trkpt lat="44.86693385278731" lon="9.973893983729951"><ele>129.0</ele><time>2026-04-18T06:19:34.999Z</time></trkpt><trkpt lat="44.86682743432604" lon="9.973867637235719"><ele>129.0</ele><time>2026-04-18T06:19:36.999Z</time></trkpt><trkpt lat="44.86671974425586" lon="9.973838430129291"><ele>129.0</ele><time>2026-04-18T06:19:38.999Z</time></trkpt><trkpt lat="44.86661149544395" lon="9.97381240961896"><ele>129.0</ele><time>2026-04-18T06:19:40.999Z</time></trkpt><trkpt lat="44.86650294213246" lon="9.973785343485012"><ele>128.8</ele><time>2026-04-18T06:19:42.999Z</time></trkpt><trkpt lat="44.86639398255338" lon="9.973755609270407"><ele>128.60000000000002</ele><time>2026-04-18T06:19:44.998Z</time></trkpt><trkpt lat="44.866287284652564" lon="9.973729763692372"><ele>128.4</ele><time>2026-04-18T06:19:46.998Z</time></trkpt><trkpt lat="44.86617837108278" lon="9.973701222273807"><ele>128.20000000000002</ele><time>2026-04-18T06:19:48.998Z</time></trkpt><trkpt lat="44.86606980194579" lon="9.973674752567707"><ele>128.0</ele><time>2026-04-18T06:19:51Z</time></trkpt><trkpt lat="44.86596108671107" lon="9.973649547219031"><ele>128.4</ele><time>2026-04-18T06:19:53Z</time></trkpt><trkpt lat="44.865854370352224" lon="9.973621470170709"><ele>128.8</ele><time>2026-04-18T06:19:55Z</time></trkpt><trkpt lat="44.865743625189246" lon="9.973596800954594"><ele>129.2</ele><time>2026-04-18T06:19:57Z</time></trkpt><trkpt lat="44.86563674152376" lon="9.973570776978566"><ele>129.6</ele><time>2026-04-18T06:19:59Z</time></trkpt><trkpt lat="44.86552589061762" lon="9.97354853016841"><ele>130.0</ele><time>2026-04-18T06:20:01Z</time></trkpt><trkpt lat="44.86541363620597" lon="9.97352663600788"><ele>130.0</ele><time>2026-04-18T06:20:03Z</time></trkpt><trkpt lat="44.86530431480012" lon="9.97351315053169"><ele>130.0</ele><time>2026-04-18T06:20:05Z</time></trkpt><trkpt lat="44.865191179475225" lon="9.973503434362893"><ele>130.0</ele><time>2026-04-18T06:20:07Z</time></trkpt><trkpt lat="44.86507844947048" lon="9.973500407627837"><ele>130.0</ele><time>2026-04-18T06:20:09Z</time></trkpt><trkpt lat="44.86496623988218" lon="9.973500825569566"><ele>130.0</ele><time>2026-04-18T06:20:11Z</time></trkpt><trkpt lat="44.86485182638646" lon="9.973507414594435"><ele>130.75</ele><time>2026-04-18T06:20:13Z</time></trkpt><trkpt lat="44.864736661243846" lon="9.973521383673322"><ele>131.5</ele><time>2026-04-18T06:20:15Z</time></trkpt><trkpt lat="44.86462330899798" lon="9.9735325146971"><ele>132.25</ele><time>2026-04-18T06:20:17Z</time></trkpt><trkpt lat="44.864507171445716" lon="9.973546617278533"><ele>133.0</ele><time>2026-04-18T06:20:19Z</time></trkpt><trkpt lat="44.864390429406754" lon="9.973556047813497"><ele>133.5</ele><time>2026-04-18T06:20:21Z</time></trkpt><trkpt lat="44.86427383297406" lon="9.9735664007706"><ele>134.0</ele><time>2026-04-18T06:20:23Z</time></trkpt><trkpt lat="44.86415649019347" lon="9.973576297262712"><ele>134.5</ele><time>2026-04-18T06:20:25Z</time></trkpt><trkpt lat="44.86404136339933" lon="9.9735854498852"><ele>135.0</ele><time>2026-04-18T06:20:27Z</time></trkpt><trkpt lat="44.86391990169608" lon="9.973595273911736"><ele>135.0</ele><time>2026-04-18T06:20:29Z</time></trkpt><trkpt lat="44.86379864356447" lon="9.973610593469541"><ele>135.0</ele><time>2026-04-18T06:20:31Z</time></trkpt><trkpt lat="44.86367873284686" lon="9.973623009880393"><ele>135.0</ele><time>2026-04-18T06:20:33Z</time></trkpt><trkpt lat="44.8635584057159" lon="9.973630121183227"><ele>135.0</ele><time>2026-04-18T06:20:35Z</time></trkpt><trkpt lat="44.86343915437046" lon="9.973639840191282"><ele>135.25</ele><time>2026-04-18T06:20:37Z</time></trkpt><trkpt lat="44.863320330617036" lon="9.973651778951144"><ele>135.5</ele><time>2026-04-18T06:20:39Z</time></trkpt><trkpt lat="44.86319849335836" lon="9.973659769224529"><ele>135.75</ele><time>2026-04-18T06:20:41Z</time></trkpt><trkpt lat="44.86307523828881" lon="9.973668800987104"><ele>136.0</ele><time>2026-04-18T06:20:43Z</time></trkpt><trkpt lat="44.862950483196514" lon="9.973680432428512"><ele>136.0</ele><time>2026-04-18T06:20:45Z</time></trkpt><trkpt lat="44.862887194419386" lon="9.973686164237481"><ele>136.0</ele><time>2026-04-18T06:20:46Z</time></trkpt><trkpt lat="44.86282215361383" lon="9.97368911976848"><ele>136.0</ele><time>2026-04-18T06:20:47Z</time></trkpt><trkpt lat="44.862758498586196" lon="9.973693693824233"><ele>136.0</ele><time>2026-04-18T06:20:48Z</time></trkpt><trkpt lat="44.862695406439215" lon="9.973700138454095"><ele>136.0</ele><time>2026-04-18T06:20:49Z</time></trkpt><trkpt lat="44.86263214501545" lon="9.97370528775338"><ele>136.0</ele><time>2026-04-18T06:20:50Z</time></trkpt><trkpt lat="44.862568008975984" lon="9.97371049095538"><ele>136.0</ele><time>2026-04-18T06:20:51Z</time></trkpt><trkpt lat="44.86250333893688" lon="9.973715800753059"><ele>136.0</ele><time>2026-04-18T06:20:52Z</time></trkpt><trkpt lat="44.86243802684064" lon="9.97371691866677"><ele>136.14285714285714</ele><time>2026-04-18T06:20:53Z</time></trkpt><trkpt lat="44.862371942700115" lon="9.973717068406826"><ele>136.28571428571428</ele><time>2026-04-18T06:20:53.999Z</time></trkpt><trkpt lat="44.86230503930374" lon="9.97371635813602"><ele>136.42857142857144</ele><time>2026-04-18T06:20:54.999Z</time></trkpt><trkpt lat="44.86224008782789" lon="9.973719787989642"><ele>136.57142857142856</ele><time>2026-04-18T06:20:55.999Z</time></trkpt><trkpt lat="44.86217407111966" lon="9.973720794998943"><ele>136.71428571428572</ele><time>2026-04-18T06:20:56.999Z</time></trkpt><trkpt lat="44.86210883509824" lon="9.97371668074776"><ele>136.85714285714286</ele><time>2026-04-18T06:20:57.999Z</time></trkpt><trkpt lat="44.86204362583116" lon="9.97371830708915"><ele>137.0</ele><time>2026-04-18T06:20:58.999Z</time></trkpt><trkpt lat="44.861976506674765" lon="9.97372812042559"><ele>137.0</ele><time>2026-04-18T06:20:59.999Z</time></trkpt><trkpt lat="44.86191257321444" lon="9.973733777764304"><ele>137.0</ele><time>2026-04-18T06:21:00.999Z</time></trkpt><trkpt lat="44.86178450469129" lon="9.973728156948214"><ele>137.0</ele><time>2026-04-18T06:21:02.999Z</time></trkpt><trkpt lat="44.8617212766822" lon="9.973724317780343"><ele>137.0</ele><time>2026-04-18T06:21:03.999Z</time></trkpt><trkpt lat="44.86165594674537" lon="9.973717455708629"><ele>137.0</ele><time>2026-04-18T06:21:04.999Z</time></trkpt><trkpt lat="44.86159209134146" lon="9.973712640689946"><ele>137.0</ele><time>2026-04-18T06:21:05.999Z</time></trkpt><trkpt lat="44.8615265163338" lon="9.973709982928948"><ele>137.6</ele><time>2026-04-18T06:21:06.999Z</time></trkpt><trkpt lat="44.8614619355776" lon="9.973705712262806"><ele>138.2</ele><time>2026-04-18T06:21:07.999Z</time></trkpt><trkpt lat="44.86139712377872" lon="9.973701168558554"><ele>138.8</ele><time>2026-04-18T06:21:08.999Z</time></trkpt><trkpt lat="44.86133184638502" lon="9.973690876800253"><ele>139.4</ele><time>2026-04-18T06:21:09.999Z</time></trkpt><trkpt lat="44.86120354103543" lon="9.973682443089404"><ele>140.0</ele><time>2026-04-18T06:21:11.999Z</time></trkpt><trkpt lat="44.86107759945755" lon="9.973677825532086"><ele>140.0</ele><time>2026-04-18T06:21:13.999Z</time></trkpt><trkpt lat="44.860955610718236" lon="9.973671809306378"><ele>140.0</ele><time>2026-04-18T06:21:15.999Z</time></trkpt><trkpt lat="44.860837683143764" lon="9.973669441644324"><ele>140.0</ele><time>2026-04-18T06:21:17.999Z</time></trkpt><trkpt lat="44.86071691249935" lon="9.973664459087704"><ele>140.0</ele><time>2026-04-18T06:21:19.999Z</time></trkpt><trkpt lat="44.860595391690374" lon="9.973656565919681"><ele>141.0</ele><time>2026-04-18T06:21:21.999Z</time></trkpt><trkpt lat="44.8604701071094" lon="9.973651490273568"><ele>142.0</ele><time>2026-04-18T06:21:23.999Z</time></trkpt><trkpt lat="44.86035249896872" lon="9.973652651914703"><ele>143.0</ele><time>2026-04-18T06:21:25.999Z</time></trkpt><trkpt lat="44.860242352616424" lon="9.973632907856558"><ele>144.0</ele><time>2026-04-18T06:21:27.999Z</time></trkpt><trkpt lat="44.86012679655179" lon="9.973587303831222"><ele>144.0</ele><time>2026-04-18T06:21:29.999Z</time></trkpt><trkpt lat="44.86001335166227" lon="9.97353918642787"><ele>144.0</ele><time>2026-04-18T06:21:31.999Z</time></trkpt><trkpt lat="44.85990139044306" lon="9.973478018364382"><ele>144.0</ele><time>2026-04-18T06:21:33.999Z</time></trkpt><trkpt lat="44.85979206254052" lon="9.973403081081544"><ele>144.0</ele><time>2026-04-18T06:21:35.999Z</time></trkpt><trkpt lat="44.85968545086465" lon="9.973323956767425"><ele>144.0</ele><time>2026-04-18T06:21:37.999Z</time></trkpt><trkpt lat="44.859582291970455" lon="9.973230306396067"><ele>144.0</ele><time>2026-04-18T06:21:39.999Z</time></trkpt><trkpt lat="44.85947969463709" lon="9.973130595158109"><ele>144.0</ele><time>2026-04-18T06:21:41.999Z</time></trkpt><trkpt lat="44.859374949205886" lon="9.973030757374051"><ele>144.0</ele><time>2026-04-18T06:21:43.999Z</time></trkpt><trkpt lat="44.85932202139393" lon="9.972979576717284"><ele>144.0</ele><time>2026-04-18T06:21:44.999Z</time></trkpt><trkpt lat="44.85921664155767" lon="9.972881153573068"><ele>144.66666666666666</ele><time>2026-04-18T06:21:46.999Z</time></trkpt><trkpt lat="44.8591612249447" lon="9.972836056143494"><ele>145.33333333333334</ele><time>2026-04-18T06:21:47.998Z</time></trkpt><trkpt lat="44.85905275700995" lon="9.972748283954221"><ele>146.0</ele><time>2026-04-18T06:21:49.998Z</time></trkpt><trkpt lat="44.858942233726154" lon="9.972670509927788"><ele>146.66666666666669</ele><time>2026-04-18T06:21:51.998Z</time></trkpt><trkpt lat="44.85888319627021" lon="9.972638711681258"><ele>147.33333333333334</ele><time>2026-04-18T06:21:52.998Z</time></trkpt><trkpt lat="44.85882240954767" lon="9.972610723525655"><ele>148.0</ele><time>2026-04-18T06:21:53.998Z</time></trkpt><trkpt lat="44.85870222109128" lon="9.9725632649341"><ele>148.0</ele><time>2026-04-18T06:21:56Z</time></trkpt><trkpt lat="44.858640765349705" lon="9.972537815213009"><ele>148.0</ele><time>2026-04-18T06:21:57Z</time></trkpt><trkpt lat="44.85857822186367" lon="9.972516639491394"><ele>148.0</ele><time>2026-04-18T06:21:58Z</time></trkpt><trkpt lat="44.858515458906965" lon="9.972501330630804"><ele>148.0</ele><time>2026-04-18T06:21:59Z</time></trkpt><trkpt lat="44.858452612398416" lon="9.972493391326465"><ele>148.0</ele><time>2026-04-18T06:22:00Z</time></trkpt><trkpt lat="44.85838761155855" lon="9.972488693024216"><ele>148.0</ele><time>2026-04-18T06:22:01Z</time></trkpt><trkpt lat="44.858322283508286" lon="9.972485148894375"><ele>148.0</ele><time>2026-04-18T06:22:02Z</time></trkpt><trkpt lat="44.858258184853" lon="9.972482314381171"><ele>148.0</ele><time>2026-04-18T06:22:03Z</time></trkpt><trkpt lat="44.85819377124829" lon="9.972480990975225"><ele>148.0</ele><time>2026-04-18T06:22:04Z</time></trkpt><trkpt lat="44.85813028938566" lon="9.972484080595043"><ele>148.0</ele><time>2026-04-18T06:22:05Z</time></trkpt><trkpt lat="44.85806652939889" lon="9.972493981490661"><ele>148.0</ele><time>2026-04-18T06:22:06Z</time></trkpt><trkpt lat="44.85794383600066" lon="9.972520041840129"><ele>148.0</ele><time>2026-04-18T06:22:08Z</time></trkpt><trkpt lat="44.857881641661" lon="9.972536566605735"><ele>148.0</ele><time>2026-04-18T06:22:09Z</time></trkpt><trkpt lat="44.8577609479462" lon="9.972574913070963"><ele>148.0</ele><time>2026-04-18T06:22:11Z</time></trkpt><trkpt lat="44.857697631627296" lon="9.972596625972677"><ele>148.0</ele><time>2026-04-18T06:22:12Z</time></trkpt><trkpt lat="44.85757767304507" lon="9.972634870493847"><ele>148.0</ele><time>2026-04-18T06:22:14Z</time></trkpt><trkpt lat="44.857455172189454" lon="9.972681847974922"><ele>148.0</ele><time>2026-04-18T06:22:16Z</time></trkpt><trkpt lat="44.85739136661555" lon="9.972699088314803"><ele>148.0</ele><time>2026-04-18T06:22:17Z</time></trkpt><trkpt lat="44.85727490115756" lon="9.972742270571231"><ele>148.20000000000002</ele><time>2026-04-18T06:22:19Z</time></trkpt><trkpt lat="44.857211918218425" lon="9.972756676516052"><ele>148.4</ele><time>2026-04-18T06:22:20Z</time></trkpt><trkpt lat="44.85709638788221" lon="9.972796706220862"><ele>148.60000000000002</ele><time>2026-04-18T06:22:22Z</time></trkpt><trkpt lat="44.85703498228585" lon="9.97281658314349"><ele>148.8</ele><time>2026-04-18T06:22:23Z</time></trkpt><trkpt lat="44.856914749808" lon="9.972860511914671"><ele>149.0</ele><time>2026-04-18T06:22:25Z</time></trkpt><trkpt lat="44.856793701574595" lon="9.972881724271403"><ele>149.33333333333331</ele><time>2026-04-18T06:22:27Z</time></trkpt><trkpt lat="44.8567286934199" lon="9.972890377434378"><ele>149.66666666666666</ele><time>2026-04-18T06:22:28Z</time></trkpt><trkpt lat="44.856664346910435" lon="9.972893175205805"><ele>150.0</ele><time>2026-04-18T06:22:29Z</time></trkpt><trkpt lat="44.85653534664453" lon="9.972902141275105"><ele>150.33333333333334</ele><time>2026-04-18T06:22:31Z</time></trkpt><trkpt lat="44.856414038193485" lon="9.972890385387734"><ele>150.66666666666669</ele><time>2026-04-18T06:22:33Z</time></trkpt><trkpt lat="44.85634831370485" lon="9.972895382250536"><ele>151.0</ele><time>2026-04-18T06:22:34Z</time></trkpt><trkpt lat="44.856283978644484" lon="9.972891147584699"><ele>151.0</ele><time>2026-04-18T06:22:35Z</time></trkpt><trkpt lat="44.8561649745047" lon="9.97287638980065"><ele>151.0</ele><time>2026-04-18T06:22:37Z</time></trkpt><trkpt lat="44.856101017334495" lon="9.972868723594678"><ele>151.0</ele><time>2026-04-18T06:22:38Z</time></trkpt><trkpt lat="44.85598670669503" lon="9.972848384683024"><ele>151.0</ele><time>2026-04-18T06:22:40Z</time></trkpt><trkpt lat="44.855867099288446" lon="9.972832123644347"><ele>151.0</ele><time>2026-04-18T06:22:42Z</time></trkpt><trkpt lat="44.85574713101658" lon="9.97281293952198"><ele>151.4</ele><time>2026-04-18T06:22:44Z</time></trkpt><trkpt lat="44.85568359570372" lon="9.972801072553706"><ele>151.8</ele><time>2026-04-18T06:22:45Z</time></trkpt><trkpt lat="44.85556457913502" lon="9.972784219712453"><ele>152.20000000000002</ele><time>2026-04-18T06:22:47Z</time></trkpt><trkpt lat="44.855441392194045" lon="9.972764382024991"><ele>152.6</ele><time>2026-04-18T06:22:49Z</time></trkpt><trkpt lat="44.85532286158591" lon="9.972748158895941"><ele>153.0</ele><time>2026-04-18T06:22:51Z</time></trkpt><trkpt lat="44.85520115068433" lon="9.972730107982674"><ele>152.8</ele><time>2026-04-18T06:22:53Z</time></trkpt><trkpt lat="44.85507948782197" lon="9.972715510558906"><ele>152.60000000000002</ele><time>2026-04-18T06:22:55Z</time></trkpt><trkpt lat="44.8550166900133" lon="9.97270702281595"><ele>152.39999999999998</ele><time>2026-04-18T06:22:56Z</time></trkpt><trkpt lat="44.854892391864475" lon="9.972686433591926"><ele>152.2</ele><time>2026-04-18T06:22:58Z</time></trkpt><trkpt lat="44.85482795746686" lon="9.972678234257454"><ele>152.0</ele><time>2026-04-18T06:22:58.999Z</time></trkpt><trkpt lat="44.85470365480982" lon="9.97265881158772"><ele>152.0</ele><time>2026-04-18T06:23:00.999Z</time></trkpt><trkpt lat="44.854640570926875" lon="9.972650223644855"><ele>152.0</ele><time>2026-04-18T06:23:01.999Z</time></trkpt><trkpt lat="44.85457759732667" lon="9.972642163721344"><ele>152.0</ele><time>2026-04-18T06:23:02.999Z</time></trkpt><trkpt lat="44.854514311030556" lon="9.972635060841087"><ele>152.0</ele><time>2026-04-18T06:23:03.999Z</time></trkpt><trkpt lat="44.85445149988921" lon="9.972626994284289"><ele>152.0</ele><time>2026-04-18T06:23:04.999Z</time></trkpt><trkpt lat="44.85438629139042" lon="9.972617936478171"><ele>152.0</ele><time>2026-04-18T06:23:05.999Z</time></trkpt><trkpt lat="44.854321956004924" lon="9.972606128383735"><ele>152.0</ele><time>2026-04-18T06:23:06.999Z</time></trkpt><trkpt lat="44.85425533849599" lon="9.97259550046778"><ele>152.0</ele><time>2026-04-18T06:23:07.999Z</time></trkpt><trkpt lat="44.85418818911375" lon="9.97258644771255"><ele>152.0</ele><time>2026-04-18T06:23:08.999Z</time></trkpt><trkpt lat="44.85412121736211" lon="9.972578765755845"><ele>152.0</ele><time>2026-04-18T06:23:09.999Z</time></trkpt><trkpt lat="44.85405294900091" lon="9.972569957638585"><ele>152.0</ele><time>2026-04-18T06:23:10.999Z</time></trkpt><trkpt lat="44.85398438228691" lon="9.97255825342235"><ele>152.0</ele><time>2026-04-18T06:23:11.999Z</time></trkpt><trkpt lat="44.853914946360156" lon="9.972544540318365"><ele>152.0</ele><time>2026-04-18T06:23:12.999Z</time></trkpt><trkpt lat="44.853844804590146" lon="9.97253424773232"><ele>152.0</ele><time>2026-04-18T06:23:13.999Z</time></trkpt><trkpt lat="44.85377567014365" lon="9.972525067955653"><ele>152.28571428571428</ele><time>2026-04-18T06:23:14.999Z</time></trkpt><trkpt lat="44.85370722615227" lon="9.972514650591851"><ele>152.57142857142858</ele><time>2026-04-18T06:23:15.999Z</time></trkpt><trkpt lat="44.85363700426195" lon="9.972502738866076"><ele>152.85714285714286</ele><time>2026-04-18T06:23:16.999Z</time></trkpt><trkpt lat="44.85356897354015" lon="9.972488352679736"><ele>153.14285714285714</ele><time>2026-04-18T06:23:17.999Z</time></trkpt><trkpt lat="44.85349810271635" lon="9.97248018152564"><ele>153.42857142857144</ele><time>2026-04-18T06:23:18.999Z</time></trkpt><trkpt lat="44.85342849016594" lon="9.972474588695817"><ele>153.71428571428572</ele><time>2026-04-18T06:23:19.999Z</time></trkpt><trkpt lat="44.853357308664776" lon="9.972463046158817"><ele>154.0</ele><time>2026-04-18T06:23:20.999Z</time></trkpt><trkpt lat="44.85328597739646" lon="9.97245066508201"><ele>154.0</ele><time>2026-04-18T06:23:21.999Z</time></trkpt><trkpt lat="44.853213730559" lon="9.972439728454072"><ele>154.0</ele><time>2026-04-18T06:23:22.999Z</time></trkpt><trkpt lat="44.85314431871503" lon="9.972428188718926"><ele>154.0</ele><time>2026-04-18T06:23:23.999Z</time></trkpt><trkpt lat="44.85307416921589" lon="9.972420588310968"><ele>154.0</ele><time>2026-04-18T06:23:24.999Z</time></trkpt><trkpt lat="44.85300231280706" lon="9.97241380690991"><ele>154.0</ele><time>2026-04-18T06:23:25.999Z</time></trkpt><trkpt lat="44.85293409053609" lon="9.97240192097558"><ele>154.0</ele><time>2026-04-18T06:23:26.999Z</time></trkpt><trkpt lat="44.85286312194972" lon="9.97238848036636"><ele>154.0</ele><time>2026-04-18T06:23:27.999Z</time></trkpt><trkpt lat="44.85278785385218" lon="9.972378212177428"><ele>154.0</ele><time>2026-04-18T06:23:28.999Z</time></trkpt><trkpt lat="44.852709941733885" lon="9.972367279860457"><ele>154.0</ele><time>2026-04-18T06:23:29.999Z</time></trkpt><trkpt lat="44.85263042106095" lon="9.972358339291377"><ele>154.0</ele><time>2026-04-18T06:23:30.999Z</time></trkpt><trkpt lat="44.852553203891965" lon="9.972348803445778"><ele>154.0</ele><time>2026-04-18T06:23:31.999Z</time></trkpt><trkpt lat="44.85247287408285" lon="9.972337353353373"><ele>154.0</ele><time>2026-04-18T06:23:32.999Z</time></trkpt><trkpt lat="44.85239139683661" lon="9.972327040588226"><ele>154.0</ele><time>2026-04-18T06:23:33.999Z</time></trkpt><trkpt lat="44.85230723661012" lon="9.972320401549824"><ele>153.66666666666669</ele><time>2026-04-18T06:23:34.999Z</time></trkpt><trkpt lat="44.85222594320088" lon="9.972306033451062"><ele>153.33333333333334</ele><time>2026-04-18T06:23:35.999Z</time></trkpt><trkpt lat="44.852142767131305" lon="9.972295793395881"><ele>153.0</ele><time>2026-04-18T06:23:36.999Z</time></trkpt><trkpt lat="44.85205973435351" lon="9.972287053512543"><ele>152.66666666666666</ele><time>2026-04-18T06:23:37.999Z</time></trkpt><trkpt lat="44.85197573335493" lon="9.97227619947738"><ele>152.33333333333331</ele><time>2026-04-18T06:23:38.999Z</time></trkpt><trkpt lat="44.85189151034756" lon="9.972265177978672"><ele>152.0</ele><time>2026-04-18T06:23:39.999Z</time></trkpt><trkpt lat="44.851809034110154" lon="9.972255473202017"><ele>152.0</ele><time>2026-04-18T06:23:40.999Z</time></trkpt><trkpt lat="44.85172602426235" lon="9.972246842480663"><ele>152.0</ele><time>2026-04-18T06:23:41.999Z</time></trkpt><trkpt lat="44.85164520828635" lon="9.972233544383894"><ele>152.0</ele><time>2026-04-18T06:23:42.999Z</time></trkpt><trkpt lat="44.851565250708795" lon="9.972223277821758"><ele>152.0</ele><time>2026-04-18T06:23:43.999Z</time></trkpt><trkpt lat="44.85148246626831" lon="9.972211092708466"><ele>152.0</ele><time>2026-04-18T06:23:44.999Z</time></trkpt><trkpt lat="44.85140206320111" lon="9.972201368117396"><ele>152.0</ele><time>2026-04-18T06:23:45.999Z</time></trkpt><trkpt lat="44.851320401311376" lon="9.97219164421069"><ele>152.0</ele><time>2026-04-18T06:23:46.999Z</time></trkpt><trkpt lat="44.85124074819559" lon="9.972182222301141"><ele>152.0</ele><time>2026-04-18T06:23:47.999Z</time></trkpt><trkpt lat="44.85116069758908" lon="9.9721705435052"><ele>152.0</ele><time>2026-04-18T06:23:48.999Z</time></trkpt><trkpt lat="44.85107982922903" lon="9.972161447978806"><ele>152.0</ele><time>2026-04-18T06:23:49.999Z</time></trkpt><trkpt lat="44.85099956183806" lon="9.972151587894098"><ele>152.0</ele><time>2026-04-18T06:23:50.999Z</time></trkpt><trkpt lat="44.85092059619299" lon="9.972143075787729"><ele>152.0</ele><time>2026-04-18T06:23:51.999Z</time></trkpt><trkpt lat="44.850841839542554" lon="9.972134106218958"><ele>151.66666666666666</ele><time>2026-04-18T06:23:52.998Z</time></trkpt><trkpt lat="44.85076430477686" lon="9.972122446989557"><ele>151.33333333333331</ele><time>2026-04-18T06:23:53.998Z</time></trkpt><trkpt lat="44.85068292479764" lon="9.972109419270861"><ele>151.0</ele><time>2026-04-18T06:23:54.998Z</time></trkpt><trkpt lat="44.85060070117169" lon="9.972100236157155"><ele>150.66666666666666</ele><time>2026-04-18T06:23:55.998Z</time></trkpt><trkpt lat="44.85051734231763" lon="9.972092517173031"><ele>150.33333333333334</ele><time>2026-04-18T06:23:56.998Z</time></trkpt><trkpt lat="44.850432434947216" lon="9.972079858383298"><ele>150.0</ele><time>2026-04-18T06:23:57.998Z</time></trkpt><trkpt lat="44.850350183195" lon="9.972069471581808"><ele>150.0</ele><time>2026-04-18T06:23:58.998Z</time></trkpt><trkpt lat="44.850267152661466" lon="9.97205987889227"><ele>150.0</ele><time>2026-04-18T06:23:59.998Z</time></trkpt><trkpt lat="44.85018538404894" lon="9.972049640854657"><ele>150.0</ele><time>2026-04-18T06:24:01Z</time></trkpt><trkpt lat="44.85010457786654" lon="9.972039969631041"><ele>150.0</ele><time>2026-04-18T06:24:02Z</time></trkpt><trkpt lat="44.8500250411136" lon="9.972031547593865"><ele>150.0</ele><time>2026-04-18T06:24:03Z</time></trkpt><trkpt lat="44.84994738442648" lon="9.97201869861949"><ele>150.0</ele><time>2026-04-18T06:24:04Z</time></trkpt><trkpt lat="44.84986865801956" lon="9.972006793650346"><ele>149.66666666666666</ele><time>2026-04-18T06:24:05Z</time></trkpt><trkpt lat="44.84978964261469" lon="9.971997722868004"><ele>149.33333333333334</ele><time>2026-04-18T06:24:06Z</time></trkpt><trkpt lat="44.84970585516977" lon="9.971987623223798"><ele>149.0</ele><time>2026-04-18T06:24:07Z</time></trkpt><trkpt lat="44.849622841045885" lon="9.971977683979398"><ele>148.66666666666669</ele><time>2026-04-18T06:24:08Z</time></trkpt><trkpt lat="44.849536711714975" lon="9.971968284377748"><ele>148.33333333333334</ele><time>2026-04-18T06:24:09Z</time></trkpt><trkpt lat="44.8494525331608" lon="9.971958793567753"><ele>148.0</ele><time>2026-04-18T06:24:10Z</time></trkpt><trkpt lat="44.849371103874915" lon="9.971946390131405"><ele>147.66666666666669</ele><time>2026-04-18T06:24:11Z</time></trkpt><trkpt lat="44.849286157990726" lon="9.971938162504852"><ele>147.33333333333334</ele><time>2026-04-18T06:24:12Z</time></trkpt><trkpt lat="44.849207104935665" lon="9.971928941645741"><ele>147.0</ele><time>2026-04-18T06:24:13Z</time></trkpt><trkpt lat="44.84912856448533" lon="9.97192095152612"><ele>146.66666666666666</ele><time>2026-04-18T06:24:14Z</time></trkpt><trkpt lat="44.84904686932559" lon="9.971910917706976"><ele>146.33333333333331</ele><time>2026-04-18T06:24:15Z</time></trkpt><trkpt lat="44.84896922009293" lon="9.97189609349874"><ele>146.0</ele><time>2026-04-18T06:24:16Z</time></trkpt><trkpt lat="44.84889278288077" lon="9.971883055288584"><ele>146.0</ele><time>2026-04-18T06:24:17Z</time></trkpt><trkpt lat="44.84881649241195" lon="9.97187549574051"><ele>146.0</ele><time>2026-04-18T06:24:18Z</time></trkpt><trkpt lat="44.84874159466995" lon="9.971860165495555"><ele>146.0</ele><time>2026-04-18T06:24:19Z</time></trkpt><trkpt lat="44.84866653263781" lon="9.971846582566819"><ele>146.0</ele><time>2026-04-18T06:24:20Z</time></trkpt><trkpt lat="44.84859351517822" lon="9.971834543604297"><ele>146.0</ele><time>2026-04-18T06:24:21Z</time></trkpt><trkpt lat="44.84851992417695" lon="9.971819834358548"><ele>146.0</ele><time>2026-04-18T06:24:22Z</time></trkpt><trkpt lat="44.84844715588741" lon="9.971806769155105"><ele>146.0</ele><time>2026-04-18T06:24:23Z</time></trkpt><trkpt lat="44.84837335686015" lon="9.9717924521113"><ele>146.33333333333331</ele><time>2026-04-18T06:24:24Z</time></trkpt><trkpt lat="44.848301365512555" lon="9.971776803147556"><ele>146.66666666666666</ele><time>2026-04-18T06:24:25Z</time></trkpt><trkpt lat="44.84822977534558" lon="9.971753994245148"><ele>147.0</ele><time>2026-04-18T06:24:26Z</time></trkpt><trkpt lat="44.84815383122873" lon="9.971726233007121"><ele>147.33333333333334</ele><time>2026-04-18T06:24:27Z</time></trkpt><trkpt lat="44.84807104715605" lon="9.971697353160353"><ele>147.66666666666669</ele><time>2026-04-18T06:24:28Z</time></trkpt><trkpt lat="44.84799047421284" lon="9.971665834233137"><ele>148.0</ele><time>2026-04-18T06:24:29Z</time></trkpt><trkpt lat="44.847915764984464" lon="9.971630089883146"><ele>148.0</ele><time>2026-04-18T06:24:30Z</time></trkpt><trkpt lat="44.84783639331668" lon="9.971600425496655"><ele>148.0</ele><time>2026-04-18T06:24:31Z</time></trkpt><trkpt lat="44.84775822272362" lon="9.971567867695226"><ele>148.0</ele><time>2026-04-18T06:24:32Z</time></trkpt><trkpt lat="44.84768080423713" lon="9.971523948439675"><ele>148.0</ele><time>2026-04-18T06:24:33Z</time></trkpt><trkpt lat="44.84760084740359" lon="9.971480245030168"><ele>148.0</ele><time>2026-04-18T06:24:34Z</time></trkpt><trkpt lat="44.847519314206515" lon="9.971421534762413"><ele>148.0</ele><time>2026-04-18T06:24:35Z</time></trkpt><trkpt lat="44.847435884568384" lon="9.97136837989516"><ele>148.0</ele><time>2026-04-18T06:24:36Z</time></trkpt><trkpt lat="44.84735710469512" lon="9.97131175113606"><ele>148.0</ele><time>2026-04-18T06:24:37Z</time></trkpt><trkpt lat="44.8472770847549" lon="9.971250200814323"><ele>148.0</ele><time>2026-04-18T06:24:38Z</time></trkpt><trkpt lat="44.84719118063814" lon="9.971193434692678"><ele>148.0</ele><time>2026-04-18T06:24:39Z</time></trkpt><trkpt lat="44.847101648340605" lon="9.97112585310131"><ele>148.0</ele><time>2026-04-18T06:24:40Z</time></trkpt><trkpt lat="44.84701637181544" lon="9.971068565932017"><ele>148.0</ele><time>2026-04-18T06:24:41Z</time></trkpt><trkpt lat="44.84692781424244" lon="9.971005752971898"><ele>148.0</ele><time>2026-04-18T06:24:42Z</time></trkpt><trkpt lat="44.846837667648806" lon="9.970948945335024"><ele>148.0</ele><time>2026-04-18T06:24:43Z</time></trkpt><trkpt lat="44.84674782166824" lon="9.970883529644338"><ele>148.0</ele><time>2026-04-18T06:24:44Z</time></trkpt><trkpt lat="44.84665468473664" lon="9.970817949255107"><ele>148.0</ele><time>2026-04-18T06:24:45Z</time></trkpt><trkpt lat="44.84656500716629" lon="9.97075148073445"><ele>147.0</ele><time>2026-04-18T06:24:46Z</time></trkpt><trkpt lat="44.84647095841569" lon="9.970685509703886"><ele>146.0</ele><time>2026-04-18T06:24:47Z</time></trkpt><trkpt lat="44.846375587710405" lon="9.970618131985463"><ele>145.0</ele><time>2026-04-18T06:24:48Z</time></trkpt><trkpt lat="44.846279673505485" lon="9.97054958576505"><ele>144.0</ele><time>2026-04-18T06:24:49Z</time></trkpt><trkpt lat="44.84618182415186" lon="9.970481716283965"><ele>143.0</ele><time>2026-04-18T06:24:50Z</time></trkpt><trkpt lat="44.84608224203172" lon="9.970414215905894"><ele>143.0</ele><time>2026-04-18T06:24:51Z</time></trkpt><trkpt lat="44.84598192174925" lon="9.970344216001799"><ele>143.0</ele><time>2026-04-18T06:24:52Z</time></trkpt><trkpt lat="44.8458818735859" lon="9.970273915402098"><ele>143.0</ele><time>2026-04-18T06:24:53Z</time></trkpt><trkpt lat="44.84577947505402" lon="9.970202777316139"><ele>143.0</ele><time>2026-04-18T06:24:54Z</time></trkpt><trkpt lat="44.845679258274984" lon="9.970130744522573"><ele>141.75</ele><time>2026-04-18T06:24:55Z</time></trkpt><trkpt lat="44.84557797587533" lon="9.970056637863994"><ele>140.5</ele><time>2026-04-18T06:24:56Z</time></trkpt><trkpt lat="44.84547461268615" lon="9.969985794433992"><ele>139.25</ele><time>2026-04-18T06:24:57Z</time></trkpt><trkpt lat="44.845370743999794" lon="9.969917901871215"><ele>138.0</ele><time>2026-04-18T06:24:58Z</time></trkpt><trkpt lat="44.84527094344005" lon="9.969846098368784"><ele>138.0</ele><time>2026-04-18T06:24:59Z</time></trkpt><trkpt lat="44.84517107643683" lon="9.969777267320818"><ele>138.0</ele><time>2026-04-18T06:25:00Z</time></trkpt><trkpt lat="44.84507192182121" lon="9.96971366971042"><ele>138.0</ele><time>2026-04-18T06:25:01Z</time></trkpt><trkpt lat="44.84497551533014" lon="9.969646359008618"><ele>138.0</ele><time>2026-04-18T06:25:01.999Z</time></trkpt><trkpt lat="44.84488060173373" lon="9.969579913728204"><ele>138.0</ele><time>2026-04-18T06:25:02.999Z</time></trkpt><trkpt lat="44.84478673944039" lon="9.969515569718087"><ele>136.6</ele><time>2026-04-18T06:25:03.999Z</time></trkpt><trkpt lat="44.84469461731818" lon="9.969453244292747"><ele>135.20000000000002</ele><time>2026-04-18T06:25:04.999Z</time></trkpt><trkpt lat="44.84460460993452" lon="9.969388969615913"><ele>133.8</ele><time>2026-04-18T06:25:05.999Z</time></trkpt><trkpt lat="44.844515985576194" lon="9.96932714376294"><ele>132.4</ele><time>2026-04-18T06:25:06.999Z</time></trkpt><trkpt lat="44.84442724268729" lon="9.969268966182247"><ele>131.0</ele><time>2026-04-18T06:25:07.999Z</time></trkpt><trkpt lat="44.844339847650744" lon="9.969211767341251"><ele>131.4</ele><time>2026-04-18T06:25:08.999Z</time></trkpt><trkpt lat="44.84425228291002" lon="9.969157363538644"><ele>131.8</ele><time>2026-04-18T06:25:09.999Z</time></trkpt><trkpt lat="44.84416580726708" lon="9.969104111272705"><ele>132.20000000000002</ele><time>2026-04-18T06:25:10.999Z</time></trkpt><trkpt lat="44.844078824402644" lon="9.969056813154316"><ele>132.6</ele><time>2026-04-18T06:25:11.999Z</time></trkpt><trkpt lat="44.84399308333178" lon="9.969012423576332"><ele>133.0</ele><time>2026-04-18T06:25:12.999Z</time></trkpt><trkpt lat="44.84390750770448" lon="9.968971537961199"><ele>133.0</ele><time>2026-04-18T06:25:13.999Z</time></trkpt><trkpt lat="44.843820776712526" lon="9.968935254240414"><ele>133.0</ele><time>2026-04-18T06:25:14.999Z</time></trkpt><trkpt lat="44.843735904691805" lon="9.968900864170816"><ele>133.0</ele><time>2026-04-18T06:25:15.999Z</time></trkpt><trkpt lat="44.84365078907512" lon="9.968867726641268"><ele>133.0</ele><time>2026-04-18T06:25:16.999Z</time></trkpt><trkpt lat="44.84356721800318" lon="9.968833798868893"><ele>133.0</ele><time>2026-04-18T06:25:17.999Z</time></trkpt><trkpt lat="44.84348419333093" lon="9.968805309391618"><ele>133.0</ele><time>2026-04-18T06:25:18.999Z</time></trkpt><trkpt lat="44.84340011799414" lon="9.968775223957921"><ele>132.5</ele><time>2026-04-18T06:25:19.999Z</time></trkpt><trkpt lat="44.843315258269016" lon="9.968743853705227"><ele>132.0</ele><time>2026-04-18T06:25:20.999Z</time></trkpt><trkpt lat="44.8432295654918" lon="9.968710126557957"><ele>131.5</ele><time>2026-04-18T06:25:21.999Z</time></trkpt><trkpt lat="44.843142992684875" lon="9.968676286595809"><ele>131.0</ele><time>2026-04-18T06:25:22.999Z</time></trkpt><trkpt lat="44.84305604087199" lon="9.968645084234963"><ele>130.5</ele><time>2026-04-18T06:25:23.999Z</time></trkpt><trkpt lat="44.8429697534173" lon="9.968611071640957"><ele>130.0</ele><time>2026-04-18T06:25:24.999Z</time></trkpt><trkpt lat="44.84288362048284" lon="9.96857797852646"><ele>130.0</ele><time>2026-04-18T06:25:25.999Z</time></trkpt><trkpt lat="44.842796013768215" lon="9.968546721344536"><ele>130.0</ele><time>2026-04-18T06:25:26.999Z</time></trkpt><trkpt lat="44.842708796019764" lon="9.968513123920664"><ele>130.0</ele><time>2026-04-18T06:25:27.999Z</time></trkpt><trkpt lat="44.84262201983104" lon="9.968477442732219"><ele>130.0</ele><time>2026-04-18T06:25:28.999Z</time></trkpt><trkpt lat="44.84253521253448" lon="9.968441942017893"><ele>130.0</ele><time>2026-04-18T06:25:29.999Z</time></trkpt><trkpt lat="44.84244854339859" lon="9.968404895273443"><ele>129.83333333333334</ele><time>2026-04-18T06:25:30.999Z</time></trkpt><trkpt lat="44.8423620362404" lon="9.96836817138218"><ele>129.66666666666669</ele><time>2026-04-18T06:25:31.999Z</time></trkpt><trkpt lat="44.84227755431798" lon="9.968326596807007"><ele>129.5</ele><time>2026-04-18T06:25:32.999Z</time></trkpt><trkpt lat="44.84219331970334" lon="9.968283037577507"><ele>129.33333333333334</ele><time>2026-04-18T06:25:33.999Z</time></trkpt><trkpt lat="44.842108682046465" lon="9.96824163231163"><ele>129.16666666666666</ele><time>2026-04-18T06:25:34.999Z</time></trkpt><trkpt lat="44.84202653476023" lon="9.968195264948417"><ele>129.0</ele><time>2026-04-18T06:25:35.999Z</time></trkpt><trkpt lat="44.84194410220785" lon="9.968151279705085"><ele>129.16666666666666</ele><time>2026-04-18T06:25:36.999Z</time></trkpt><trkpt lat="44.84186372911771" lon="9.968108785218167"><ele>129.33333333333334</ele><time>2026-04-18T06:25:37.999Z</time></trkpt><trkpt lat="44.84178219197591" lon="9.96806540896897"><ele>129.5</ele><time>2026-04-18T06:25:38.999Z</time></trkpt><trkpt lat="44.84170029359297" lon="9.968019771405324"><ele>129.66666666666669</ele><time>2026-04-18T06:25:39.999Z</time></trkpt><trkpt lat="44.8416193139323" lon="9.967975248659922"><ele>129.83333333333334</ele><time>2026-04-18T06:25:40.999Z</time></trkpt><trkpt lat="44.84153813968317" lon="9.967932315993087"><ele>130.0</ele><time>2026-04-18T06:25:41.999Z</time></trkpt><trkpt lat="44.841457593782415" lon="9.967887093117696"><ele>130.0</ele><time>2026-04-18T06:25:42.999Z</time></trkpt><trkpt lat="44.84137663724435" lon="9.967843747545139"><ele>130.0</ele><time>2026-04-18T06:25:43.999Z</time></trkpt><trkpt lat="44.841296251126145" lon="9.967801751674846"><ele>130.0</ele><time>2026-04-18T06:25:44.999Z</time></trkpt><trkpt lat="44.84121725821202" lon="9.967758914368993"><ele>130.0</ele><time>2026-04-18T06:25:45.999Z</time></trkpt><trkpt lat="44.841137265651874" lon="9.967715984866482"><ele>130.0</ele><time>2026-04-18T06:25:46.999Z</time></trkpt><trkpt lat="44.841057643291144" lon="9.967673920195478"><ele>130.0</ele><time>2026-04-18T06:25:47.999Z</time></trkpt><trkpt lat="44.840978320582195" lon="9.967631045864536"><ele>130.0</ele><time>2026-04-18T06:25:48.999Z</time></trkpt><trkpt lat="44.84089907174424" lon="9.967588213490902"><ele>130.0</ele><time>2026-04-18T06:25:49.999Z</time></trkpt><trkpt lat="44.84082102100554" lon="9.96754530422977"><ele>130.0</ele><time>2026-04-18T06:25:50.999Z</time></trkpt><trkpt lat="44.84074250131499" lon="9.967503358235156"><ele>130.0</ele><time>2026-04-18T06:25:51.999Z</time></trkpt><trkpt lat="44.84066460220527" lon="9.967463400232154"><ele>130.0</ele><time>2026-04-18T06:25:52.999Z</time></trkpt><trkpt lat="44.84058609249575" lon="9.967423397981053"><ele>130.0</ele><time>2026-04-18T06:25:53.999Z</time></trkpt><trkpt lat="44.8405084245482" lon="9.96738254612003"><ele>130.0</ele><time>2026-04-18T06:25:54.998Z</time></trkpt><trkpt lat="44.840429877391095" lon="9.967339257435965"><ele>130.0</ele><time>2026-04-18T06:25:55.998Z</time></trkpt><trkpt lat="44.84035397589398" lon="9.967297309450412"><ele>130.0</ele><time>2026-04-18T06:25:56.998Z</time></trkpt><trkpt lat="44.84027733876807" lon="9.967255303422068"><ele>130.0</ele><time>2026-04-18T06:25:57.998Z</time></trkpt><trkpt lat="44.840201557923265" lon="9.967214265046442"><ele>130.0</ele><time>2026-04-18T06:25:58.998Z</time></trkpt><trkpt lat="44.84012617746362" lon="9.967173671015107"><ele>130.0</ele><time>2026-04-18T06:25:59.998Z</time></trkpt><trkpt lat="44.84004925275785" lon="9.967134198898941"><ele>130.16666666666669</ele><time>2026-04-18T06:26:00.998Z</time></trkpt><trkpt lat="44.83997413143882" lon="9.967098317287236"><ele>130.33333333333334</ele><time>2026-04-18T06:26:01.998Z</time></trkpt><trkpt lat="44.83989907048808" lon="9.967059303413398"><ele>130.5</ele><time>2026-04-18T06:26:02.998Z</time></trkpt><trkpt lat="44.839825398145976" lon="9.96701649916705"><ele>130.66666666666666</ele><time>2026-04-18T06:26:03.998Z</time></trkpt><trkpt lat="44.83975155361813" lon="9.966968854625573"><ele>130.83333333333331</ele><time>2026-04-18T06:26:04.998Z</time></trkpt><trkpt lat="44.83967855093694" lon="9.966920090005113"><ele>131.0</ele><time>2026-04-18T06:26:05.998Z</time></trkpt><trkpt lat="44.8396083644409" lon="9.966865961246848"><ele>131.0</ele><time>2026-04-18T06:26:07Z</time></trkpt><trkpt lat="44.83953961365856" lon="9.966809547258617"><ele>131.0</ele><time>2026-04-18T06:26:08Z</time></trkpt><trkpt lat="44.839472306498976" lon="9.966750782847114"><ele>131.0</ele><time>2026-04-18T06:26:09Z</time></trkpt><trkpt lat="44.839407378582194" lon="9.9666886401494"><ele>131.0</ele><time>2026-04-18T06:26:10Z</time></trkpt><trkpt lat="44.83934532314622" lon="9.96662241017631"><ele>131.0</ele><time>2026-04-18T06:26:11Z</time></trkpt><trkpt lat="44.839285755106985" lon="9.966550908294169"><ele>131.0</ele><time>2026-04-18T06:26:12Z</time></trkpt><trkpt lat="44.83922910002303" lon="9.96647734806057"><ele>131.16666666666666</ele><time>2026-04-18T06:26:13Z</time></trkpt><trkpt lat="44.83917288338077" lon="9.966402114556029"><ele>131.33333333333331</ele><time>2026-04-18T06:26:14Z</time></trkpt><trkpt lat="44.83911947416181" lon="9.96632422990119"><ele>131.5</ele><time>2026-04-18T06:26:15Z</time></trkpt><trkpt lat="44.839067239565196" lon="9.96624704807467"><ele>131.66666666666666</ele><time>2026-04-18T06:26:16Z</time></trkpt><trkpt lat="44.839013434994605" lon="9.966171591191635"><ele>131.83333333333334</ele><time>2026-04-18T06:26:17Z</time></trkpt><trkpt lat="44.83895982403834" lon="9.966095641637402"><ele>132.0</ele><time>2026-04-18T06:26:18Z</time></trkpt><trkpt lat="44.83890670945678" lon="9.96601919274558"><ele>132.0</ele><time>2026-04-18T06:26:19Z</time></trkpt><trkpt lat="44.83885300786413" lon="9.965942951737542"><ele>132.0</ele><time>2026-04-18T06:26:20Z</time></trkpt><trkpt lat="44.8388008145853" lon="9.96586546866771"><ele>132.0</ele><time>2026-04-18T06:26:21Z</time></trkpt><trkpt lat="44.83874788064654" lon="9.965790318760508"><ele>132.0</ele><time>2026-04-18T06:26:22Z</time></trkpt><trkpt lat="44.838694669548" lon="9.965711985248635"><ele>132.0</ele><time>2026-04-18T06:26:23Z</time></trkpt><trkpt lat="44.83863948170659" lon="9.96563453887633"><ele>132.0</ele><time>2026-04-18T06:26:24Z</time></trkpt><trkpt lat="44.838584400135076" lon="9.965556879304794"><ele>132.0</ele><time>2026-04-18T06:26:25Z</time></trkpt><trkpt lat="44.83852989192318" lon="9.965478880176654"><ele>132.0</ele><time>2026-04-18T06:26:26Z</time></trkpt><trkpt lat="44.838476474172026" lon="9.965400218021141"><ele>132.0</ele><time>2026-04-18T06:26:27Z</time></trkpt><trkpt lat="44.83842112783685" lon="9.965322550125396"><ele>132.0</ele><time>2026-04-18T06:26:28Z</time></trkpt><trkpt lat="44.83836653912609" lon="9.965248320512295"><ele>132.0</ele><time>2026-04-18T06:26:29Z</time></trkpt><trkpt lat="44.838310780935004" lon="9.965175270576262"><ele>132.0</ele><time>2026-04-18T06:26:30Z</time></trkpt><trkpt lat="44.8382533331507" lon="9.965110389742392"><ele>132.0</ele><time>2026-04-18T06:26:31Z</time></trkpt><trkpt lat="44.83819284401354" lon="9.965040276776358"><ele>132.0</ele><time>2026-04-18T06:26:32Z</time></trkpt><trkpt lat="44.8381313912742" lon="9.964979483455801"><ele>132.0</ele><time>2026-04-18T06:26:33Z</time></trkpt><trkpt lat="44.83806814356549" lon="9.964921927898915"><ele>132.0</ele><time>2026-04-18T06:26:34Z</time></trkpt><trkpt lat="44.83800530777519" lon="9.964870191682563"><ele>132.0</ele><time>2026-04-18T06:26:35Z</time></trkpt><trkpt lat="44.83793962347923" lon="9.964813042234997"><ele>132.0</ele><time>2026-04-18T06:26:36Z</time></trkpt><trkpt lat="44.837873179108726" lon="9.96476344224365"><ele>132.0</ele><time>2026-04-18T06:26:37Z</time></trkpt><trkpt lat="44.8378049653999" lon="9.964723368847121"><ele>132.0</ele><time>2026-04-18T06:26:38Z</time></trkpt><trkpt lat="44.837731908375794" lon="9.964685171893413"><ele>132.0</ele><time>2026-04-18T06:26:39Z</time></trkpt><trkpt lat="44.83766001284429" lon="9.964651994617311"><ele>132.0</ele><time>2026-04-18T06:26:40Z</time></trkpt><trkpt lat="44.837588170672525" lon="9.964621730107217"><ele>132.0</ele><time>2026-04-18T06:26:41Z</time></trkpt><trkpt lat="44.83751425985702" lon="9.964598565305183"><ele>132.0</ele><time>2026-04-18T06:26:42Z</time></trkpt><trkpt lat="44.837440434213775" lon="9.964576188875771"><ele>132.0</ele><time>2026-04-18T06:26:43Z</time></trkpt><trkpt lat="44.8373678115707" lon="9.964557164794805"><ele>132.0</ele><time>2026-04-18T06:26:44Z</time></trkpt><trkpt lat="44.83729499563062" lon="9.964542560890495"><ele>132.0</ele><time>2026-04-18T06:26:45Z</time></trkpt><trkpt lat="44.83722116641975" lon="9.964534318791447"><ele>132.0</ele><time>2026-04-18T06:26:46Z</time></trkpt><trkpt lat="44.83714650280581" lon="9.964530748893115"><ele>132.0</ele><time>2026-04-18T06:26:47Z</time></trkpt><trkpt lat="44.837070809900304" lon="9.964527663752055"><ele>132.0</ele><time>2026-04-18T06:26:48Z</time></trkpt><trkpt lat="44.836998438804116" lon="9.964532895274411"><ele>132.0</ele><time>2026-04-18T06:26:49Z</time></trkpt><trkpt lat="44.836923552166745" lon="9.964541248407333"><ele>132.0</ele><time>2026-04-18T06:26:50Z</time></trkpt><trkpt lat="44.836850068286196" lon="9.964547422043573"><ele>132.0</ele><time>2026-04-18T06:26:51Z</time></trkpt><trkpt lat="44.8367770212868" lon="9.964555028148256"><ele>132.0</ele><time>2026-04-18T06:26:52Z</time></trkpt><trkpt lat="44.83670304749341" lon="9.964563995390284"><ele>132.0</ele><time>2026-04-18T06:26:53Z</time></trkpt><trkpt lat="44.836631136174674" lon="9.964571924366968"><ele>132.0</ele><time>2026-04-18T06:26:54Z</time></trkpt><trkpt lat="44.83655734917108" lon="9.964580359638218"><ele>132.0</ele><time>2026-04-18T06:26:55Z</time></trkpt><trkpt lat="44.83648977539437" lon="9.964585717079387"><ele>132.0</ele><time>2026-04-18T06:26:56Z</time></trkpt><trkpt lat="44.836418635447856" lon="9.964602977637101"><ele>131.85714285714286</ele><time>2026-04-18T06:26:57Z</time></trkpt><trkpt lat="44.83634769127851" lon="9.964606956879487"><ele>131.71428571428572</ele><time>2026-04-18T06:26:58Z</time></trkpt><trkpt lat="44.83627338131362" lon="9.96461399744283"><ele>131.57142857142858</ele><time>2026-04-18T06:26:59Z</time></trkpt><trkpt lat="44.83620376849693" lon="9.964622457121973"><ele>131.42857142857144</ele><time>2026-04-18T06:27:00Z</time></trkpt><trkpt lat="44.83612933873848" lon="9.964631365248385"><ele>131.2857142857143</ele><time>2026-04-18T06:27:01Z</time></trkpt><trkpt lat="44.83605634531814" lon="9.96463776849852"><ele>131.14285714285714</ele><time>2026-04-18T06:27:02Z</time></trkpt><trkpt lat="44.835982707192706" lon="9.964641642152348"><ele>131.0</ele><time>2026-04-18T06:27:03Z</time></trkpt><trkpt lat="44.835907018251724" lon="9.964641808583023"><ele>131.83333333333331</ele><time>2026-04-18T06:27:03.999Z</time></trkpt><trkpt lat="44.83583070151315" lon="9.9646160059961"><ele>132.66666666666666</ele><time>2026-04-18T06:27:04.999Z</time></trkpt><trkpt lat="44.835764196137966" lon="9.964569866118783"><ele>133.5</ele><time>2026-04-18T06:27:05.999Z</time></trkpt><trkpt lat="44.83570361872017" lon="9.964508188836547"><ele>134.33333333333334</ele><time>2026-04-18T06:27:06.999Z</time></trkpt><trkpt lat="44.83565367769713" lon="9.964423830123698"><ele>135.16666666666669</ele><time>2026-04-18T06:27:07.999Z</time></trkpt><trkpt lat="44.835610812603626" lon="9.964333156368811"><ele>136.0</ele><time>2026-04-18T06:27:08.999Z</time></trkpt><trkpt lat="44.83557797136336" lon="9.964238011847304"><ele>136.28571428571428</ele><time>2026-04-18T06:27:09.999Z</time></trkpt><trkpt lat="44.83554735817425" lon="9.964146971392227"><ele>136.57142857142856</ele><time>2026-04-18T06:27:10.999Z</time></trkpt><trkpt lat="44.83551608823441" lon="9.964062913786162"><ele>136.85714285714286</ele><time>2026-04-18T06:27:11.999Z</time></trkpt><trkpt lat="44.83547993107445" lon="9.963985556980736"><ele>137.14285714285714</ele><time>2026-04-18T06:27:12.999Z</time></trkpt><trkpt lat="44.83544596710465" lon="9.963907095274946"><ele>137.42857142857144</ele><time>2026-04-18T06:27:13.999Z</time></trkpt><trkpt lat="44.83541292831849" lon="9.963830138201137"><ele>137.71428571428572</ele><time>2026-04-18T06:27:14.999Z</time></trkpt><trkpt lat="44.83538193571736" lon="9.963751222372522"><ele>138.0</ele><time>2026-04-18T06:27:15.999Z</time></trkpt><trkpt lat="44.835326235559094" lon="9.963601166856094"><ele>138.0</ele><time>2026-04-18T06:27:17.999Z</time></trkpt><trkpt lat="44.835264103598846" lon="9.963446475254221"><ele>138.0</ele><time>2026-04-18T06:27:19.999Z</time></trkpt><trkpt lat="44.83523390750162" lon="9.96336463075998"><ele>138.0</ele><time>2026-04-18T06:27:20.999Z</time></trkpt><trkpt lat="44.83518037706911" lon="9.963216828955748"><ele>138.0</ele><time>2026-04-18T06:27:22.999Z</time></trkpt><trkpt lat="44.83515210096445" lon="9.963123760215012"><ele>138.0</ele><time>2026-04-18T06:27:23.999Z</time></trkpt><trkpt lat="44.83512989901514" lon="9.963035863436977"><ele>138.0</ele><time>2026-04-18T06:27:24.999Z</time></trkpt><trkpt lat="44.83510813117944" lon="9.962947947093253"><ele>138.57142857142858</ele><time>2026-04-18T06:27:25.999Z</time></trkpt><trkpt lat="44.83508923355019" lon="9.962856315250837"><ele>139.14285714285717</ele><time>2026-04-18T06:27:26.999Z</time></trkpt><trkpt lat="44.83506865203704" lon="9.962765729720536"><ele>139.71428571428572</ele><time>2026-04-18T06:27:27.999Z</time></trkpt><trkpt lat="44.83504971597455" lon="9.962675665962943"><ele>140.28571428571428</ele><time>2026-04-18T06:27:28.999Z</time></trkpt><trkpt lat="44.83503578729013" lon="9.962582362884572"><ele>140.85714285714283</ele><time>2026-04-18T06:27:29.999Z</time></trkpt><trkpt lat="44.83502041619422" lon="9.962488291893118"><ele>141.42857142857142</ele><time>2026-04-18T06:27:30.999Z</time></trkpt><trkpt lat="44.835009155365825" lon="9.962393253248445"><ele>142.0</ele><time>2026-04-18T06:27:31.999Z</time></trkpt><trkpt lat="44.83499319812772" lon="9.962297461892435"><ele>142.28571428571428</ele><time>2026-04-18T06:27:32.999Z</time></trkpt><trkpt lat="44.83496982437274" lon="9.962210056206372"><ele>142.57142857142856</ele><time>2026-04-18T06:27:33.999Z</time></trkpt><trkpt lat="44.834946185818204" lon="9.96212339820184"><ele>142.85714285714286</ele><time>2026-04-18T06:27:34.999Z</time></trkpt><trkpt lat="44.83491448972726" lon="9.962042610250657"><ele>143.14285714285714</ele><time>2026-04-18T06:27:35.999Z</time></trkpt><trkpt lat="44.83487976308551" lon="9.961962303606851"><ele>143.42857142857144</ele><time>2026-04-18T06:27:36.999Z</time></trkpt><trkpt lat="44.83484318106753" lon="9.961884896763863"><ele>143.71428571428572</ele><time>2026-04-18T06:27:37.999Z</time></trkpt><trkpt lat="44.83480514844684" lon="9.96180944811167"><ele>144.0</ele><time>2026-04-18T06:27:38.999Z</time></trkpt><trkpt lat="44.834763726269784" lon="9.961733360977588"><ele>144.42857142857144</ele><time>2026-04-18T06:27:39.999Z</time></trkpt><trkpt lat="44.83472448109483" lon="9.9616551322235"><ele>144.85714285714286</ele><time>2026-04-18T06:27:40.999Z</time></trkpt><trkpt lat="44.8346881273938" lon="9.961578052530273"><ele>145.28571428571428</ele><time>2026-04-18T06:27:41.999Z</time></trkpt><trkpt lat="44.83465334051576" lon="9.96149236493197"><ele>145.71428571428572</ele><time>2026-04-18T06:27:42.999Z</time></trkpt><trkpt lat="44.83462112050869" lon="9.96140924766117"><ele>146.14285714285714</ele><time>2026-04-18T06:27:43.999Z</time></trkpt><trkpt lat="44.834590238806136" lon="9.961322748410673"><ele>146.57142857142858</ele><time>2026-04-18T06:27:44.999Z</time></trkpt><trkpt lat="44.83455760060278" lon="9.96123434766177"><ele>147.0</ele><time>2026-04-18T06:27:45.999Z</time></trkpt><trkpt lat="44.83452864252411" lon="9.961147348912613"><ele>147.0</ele><time>2026-04-18T06:27:46.999Z</time></trkpt><trkpt lat="44.83450703768858" lon="9.961058595937928"><ele>147.0</ele><time>2026-04-18T06:27:47.999Z</time></trkpt><trkpt lat="44.834483967665854" lon="9.960963476755028"><ele>147.0</ele><time>2026-04-18T06:27:48.999Z</time></trkpt><trkpt lat="44.83446214878738" lon="9.960875259246635"><ele>147.0</ele><time>2026-04-18T06:27:49.999Z</time></trkpt><trkpt lat="44.834439364354104" lon="9.96078789995714"><ele>147.0</ele><time>2026-04-18T06:27:50.999Z</time></trkpt><trkpt lat="44.83442146748896" lon="9.960701394392725"><ele>147.0</ele><time>2026-04-18T06:27:51.999Z</time></trkpt><trkpt lat="44.83438763060165" lon="9.960529213019205"><ele>147.0</ele><time>2026-04-18T06:27:53.999Z</time></trkpt><trkpt lat="44.83435143305998" lon="9.960361593231411"><ele>147.0</ele><time>2026-04-18T06:27:55.999Z</time></trkpt><trkpt lat="44.83430538249807" lon="9.960196762497027"><ele>147.0</ele><time>2026-04-18T06:27:57.998Z</time></trkpt><trkpt lat="44.83428763222969" lon="9.960111124026726"><ele>147.0</ele><time>2026-04-18T06:27:58.998Z</time></trkpt><trkpt lat="44.83427027754517" lon="9.960024954218312"><ele>147.0</ele><time>2026-04-18T06:27:59.998Z</time></trkpt><trkpt lat="44.834230353810455" lon="9.959861868136695"><ele>147.0</ele><time>2026-04-18T06:28:01.998Z</time></trkpt><trkpt lat="44.83418402407227" lon="9.95979229074592"><ele>147.0</ele><time>2026-04-18T06:28:02.998Z</time></trkpt><trkpt lat="44.83419416304654" lon="9.95970083554937"><ele>147.0</ele><time>2026-04-18T06:28:03.998Z</time></trkpt><trkpt lat="44.83414669471507" lon="9.95954709030272"><ele>147.0</ele><time>2026-04-18T06:28:05.998Z</time></trkpt><trkpt lat="44.83409060746262" lon="9.959398667902375"><ele>147.0</ele><time>2026-04-18T06:28:07.998Z</time></trkpt><trkpt lat="44.834020835036455" lon="9.959264064862886"><ele>147.33333333333334</ele><time>2026-04-18T06:28:09.998Z</time></trkpt><trkpt lat="44.833935132718835" lon="9.959143036875183"><ele>147.66666666666666</ele><time>2026-04-18T06:28:12Z</time></trkpt><trkpt lat="44.833888060851294" lon="9.959082950709615"><ele>148.0</ele><time>2026-04-18T06:28:13Z</time></trkpt><trkpt lat="44.83384030176077" lon="9.959023028298871"><ele>148.33333333333331</ele><time>2026-04-18T06:28:14Z</time></trkpt><trkpt lat="44.83379081488092" lon="9.958964025716297"><ele>148.66666666666666</ele><time>2026-04-18T06:28:15Z</time></trkpt><trkpt lat="44.8337386357196" lon="9.958902358334752"><ele>149.0</ele><time>2026-04-18T06:28:16Z</time></trkpt><trkpt lat="44.83363840026399" lon="9.958788001850126"><ele>149.0</ele><time>2026-04-18T06:28:18Z</time></trkpt><trkpt lat="44.833589453489566" lon="9.958730577998901"><ele>149.0</ele><time>2026-04-18T06:28:19Z</time></trkpt><trkpt lat="44.83353340059486" lon="9.958679124218488"><ele>149.0</ele><time>2026-04-18T06:28:20Z</time></trkpt><trkpt lat="44.83348183193096" lon="9.958620438937535"><ele>149.0</ele><time>2026-04-18T06:28:21Z</time></trkpt><trkpt lat="44.833380014951594" lon="9.958509531722912"><ele>149.0</ele><time>2026-04-18T06:28:23Z</time></trkpt><trkpt lat="44.83333040309373" lon="9.958451186192397"><ele>149.0</ele><time>2026-04-18T06:28:24Z</time></trkpt><trkpt lat="44.8332790070294" lon="9.958395029085"><ele>149.57142857142856</ele><time>2026-04-18T06:28:25Z</time></trkpt><trkpt lat="44.83322617791045" lon="9.958337037759245"><ele>150.14285714285714</ele><time>2026-04-18T06:28:26Z</time></trkpt><trkpt lat="44.833173734944026" lon="9.958282135755107"><ele>150.71428571428572</ele><time>2026-04-18T06:28:27Z</time></trkpt><trkpt lat="44.833123134242726" lon="9.958226321724087"><ele>151.28571428571428</ele><time>2026-04-18T06:28:28Z</time></trkpt><trkpt lat="44.83307082909314" lon="9.958166782953588"><ele>151.85714285714286</ele><time>2026-04-18T06:28:29Z</time></trkpt><trkpt lat="44.83302026292268" lon="9.958110786799038"><ele>152.42857142857142</ele><time>2026-04-18T06:28:30Z</time></trkpt><trkpt lat="44.8329672298566" lon="9.958053656212115"><ele>153.0</ele><time>2026-04-18T06:28:31Z</time></trkpt><trkpt lat="44.83291420533385" lon="9.957991312488325"><ele>153.0</ele><time>2026-04-18T06:28:32Z</time></trkpt><trkpt lat="44.83281166424168" lon="9.957882252918376"><ele>153.0</ele><time>2026-04-18T06:28:34Z</time></trkpt><trkpt lat="44.832715230816696" lon="9.957774541028877"><ele>153.0</ele><time>2026-04-18T06:28:36Z</time></trkpt><trkpt lat="44.83261546599617" lon="9.957663909823737"><ele>153.0</ele><time>2026-04-18T06:28:38Z</time></trkpt><trkpt lat="44.83251569434233" lon="9.957553016451884"><ele>153.4</ele><time>2026-04-18T06:28:40Z</time></trkpt><trkpt lat="44.83246402543104" lon="9.957497556567462"><ele>153.8</ele><time>2026-04-18T06:28:41Z</time></trkpt><trkpt lat="44.83236585644159" lon="9.95739657754141"><ele>154.2</ele><time>2026-04-18T06:28:43Z</time></trkpt><trkpt lat="44.83227077320364" lon="9.957293708402101"><ele>154.6</ele><time>2026-04-18T06:28:45Z</time></trkpt><trkpt lat="44.83217924031958" lon="9.957195117078014"><ele>155.0</ele><time>2026-04-18T06:28:47Z</time></trkpt><trkpt lat="44.8320884739147" lon="9.957092155002114"><ele>155.0</ele><time>2026-04-18T06:28:49Z</time></trkpt><trkpt lat="44.831999146232825" lon="9.956991669874752"><ele>155.0</ele><time>2026-04-18T06:28:51Z</time></trkpt><trkpt lat="44.8319111176713" lon="9.956909817515395"><ele>155.0</ele><time>2026-04-18T06:28:53Z</time></trkpt><trkpt lat="44.8318278769022" lon="9.956821304837273"><ele>155.0</ele><time>2026-04-18T06:28:55Z</time></trkpt><trkpt lat="44.83174204248006" lon="9.956738703550153"><ele>155.0</ele><time>2026-04-18T06:28:57Z</time></trkpt><trkpt lat="44.83165851430853" lon="9.95667661048894"><ele>155.16666666666666</ele><time>2026-04-18T06:28:59Z</time></trkpt><trkpt lat="44.83157455030523" lon="9.956628033519019"><ele>155.33333333333331</ele><time>2026-04-18T06:29:01Z</time></trkpt><trkpt lat="44.83148588890025" lon="9.956581164039655"><ele>155.5</ele><time>2026-04-18T06:29:03Z</time></trkpt><trkpt lat="44.831398070991156" lon="9.956613929389427"><ele>155.66666666666666</ele><time>2026-04-18T06:29:05Z</time></trkpt><trkpt lat="44.83131212469365" lon="9.956698695319334"><ele>155.83333333333334</ele><time>2026-04-18T06:29:07Z</time></trkpt><trkpt lat="44.83129583616841" lon="9.956787296951404"><ele>156.0</ele><time>2026-04-18T06:29:08Z</time></trkpt><trkpt lat="44.83127440535599" lon="9.95692523101734"><ele>156.0</ele><time>2026-04-18T06:29:09.999Z</time></trkpt><trkpt lat="44.83121469081271" lon="9.957039122871521"><ele>156.0</ele><time>2026-04-18T06:29:11.999Z</time></trkpt><trkpt lat="44.83117752206135" lon="9.957173113652951"><ele>156.0</ele><time>2026-04-18T06:29:13.999Z</time></trkpt><trkpt lat="44.831181357990054" lon="9.957347205521764"><ele>156.0</ele><time>2026-04-18T06:29:16.999Z</time></trkpt><trkpt lat="44.83119748427647" lon="9.95745306329799"><ele>156.0</ele><time>2026-04-18T06:29:19.999Z</time></trkpt><trkpt lat="44.83130370124985" lon="9.957664619962996"><ele>156.0</ele><time>2026-04-18T06:29:21.999Z</time></trkpt><trkpt lat="44.83129897717535" lon="9.957791524992826"><ele>156.0</ele><time>2026-04-18T06:29:23.999Z</time></trkpt><trkpt lat="44.83124534723748" lon="9.957863235004618"><ele>156.0</ele><time>2026-04-18T06:29:25.999Z</time></trkpt><trkpt lat="44.83116420204503" lon="9.957875093763272"><ele>156.0</ele><time>2026-04-18T06:29:27.999Z</time></trkpt><trkpt lat="44.83108280294818" lon="9.957813911688168"><ele>156.0</ele><time>2026-04-18T06:29:29.999Z</time></trkpt><trkpt lat="44.83099790186369" lon="9.95776376780497"><ele>156.0</ele><time>2026-04-18T06:29:31.999Z</time></trkpt><trkpt lat="44.83091850555909" lon="9.957727143648581"><ele>156.5</ele><time>2026-04-18T06:29:33.999Z</time></trkpt><trkpt lat="44.830840295580956" lon="9.957685832160315"><ele>157.0</ele><time>2026-04-18T06:29:35.999Z</time></trkpt><trkpt lat="44.83075664813221" lon="9.9576388769526"><ele>157.5</ele><time>2026-04-18T06:29:37.999Z</time></trkpt><trkpt lat="44.83067448535225" lon="9.957591675984741"><ele>158.0</ele><time>2026-04-18T06:29:39.999Z</time></trkpt><trkpt lat="44.830594037516065" lon="9.95760204656369"><ele>158.5</ele><time>2026-04-18T06:29:40.999Z</time></trkpt><trkpt lat="44.83051495331041" lon="9.957550289248868"><ele>159.0</ele><time>2026-04-18T06:29:42.999Z</time></trkpt><trkpt lat="44.83044773242691" lon="9.957480899847399"><ele>159.0</ele><time>2026-04-18T06:29:44.999Z</time></trkpt><trkpt lat="44.830380618179404" lon="9.957404189274339"><ele>159.0</ele><time>2026-04-18T06:29:46.999Z</time></trkpt><trkpt lat="44.83031206622293" lon="9.957320798993823"><ele>159.0</ele><time>2026-04-18T06:29:48.999Z</time></trkpt><trkpt lat="44.830253233216865" lon="9.95723269766972"><ele>159.0</ele><time>2026-04-18T06:29:50.999Z</time></trkpt><trkpt lat="44.8301884851271" lon="9.957144981929702"><ele>159.0</ele><time>2026-04-18T06:29:52.999Z</time></trkpt><trkpt lat="44.83012312487612" lon="9.95706379842578"><ele>159.0</ele><time>2026-04-18T06:29:54.999Z</time></trkpt><trkpt lat="44.83005550102549" lon="9.956979303472044"><ele>162.0</ele><time>2026-04-18T06:29:56.999Z</time></trkpt><trkpt lat="44.829977669605576" lon="9.956909888663018"><ele>165.0</ele><time>2026-04-18T06:29:58.999Z</time></trkpt><trkpt lat="44.82989682857127" lon="9.956860129736306"><ele>168.0</ele><time>2026-04-18T06:30:00.999Z</time></trkpt><trkpt lat="44.82980937550152" lon="9.956829742679608"><ele>171.0</ele><time>2026-04-18T06:30:02.998Z</time></trkpt><trkpt lat="44.82971930288136" lon="9.956825859465889"><ele>174.0</ele><time>2026-04-18T06:30:04.998Z</time></trkpt><trkpt lat="44.829630646148374" lon="9.956846906661601"><ele>174.0</ele><time>2026-04-18T06:30:06.998Z</time></trkpt><trkpt lat="44.82954670004329" lon="9.956872317187523"><ele>174.0</ele><time>2026-04-18T06:30:08.998Z</time></trkpt><trkpt lat="44.82946036241538" lon="9.956905031039343"><ele>174.0</ele><time>2026-04-18T06:30:10.998Z</time></trkpt><trkpt lat="44.829378132258284" lon="9.956938014560054"><ele>174.0</ele><time>2026-04-18T06:30:12.998Z</time></trkpt><trkpt lat="44.82929724846421" lon="9.95697544490209"><ele>174.0</ele><time>2026-04-18T06:30:14.998Z</time></trkpt><trkpt lat="44.8292172341018" lon="9.95701042085521"><ele>174.0</ele><time>2026-04-18T06:30:17Z</time></trkpt><trkpt lat="44.82914203244825" lon="9.957053091824772"><ele>174.5</ele><time>2026-04-18T06:30:19Z</time></trkpt><trkpt lat="44.8290668713779" lon="9.957095523736573"><ele>175.0</ele><time>2026-04-18T06:30:21Z</time></trkpt><trkpt lat="44.828990723123646" lon="9.95713857515755"><ele>175.5</ele><time>2026-04-18T06:30:23Z</time></trkpt><trkpt lat="44.82892428611234" lon="9.957205244518317"><ele>176.0</ele><time>2026-04-18T06:30:25Z</time></trkpt><trkpt lat="44.82886231782102" lon="9.957273028421705"><ele>176.5</ele><time>2026-04-18T06:30:27Z</time></trkpt><trkpt lat="44.828799507368096" lon="9.957344501884846"><ele>177.0</ele><time>2026-04-18T06:30:29Z</time></trkpt><trkpt lat="44.82874597176091" lon="9.957426502443338"><ele>177.0</ele><time>2026-04-18T06:30:31Z</time></trkpt><trkpt lat="44.828705829364" lon="9.957516919125398"><ele>177.0</ele><time>2026-04-18T06:30:33Z</time></trkpt><trkpt lat="44.8286710399277" lon="9.957606862683718"><ele>177.0</ele><time>2026-04-18T06:30:35Z</time></trkpt><trkpt lat="44.82863308742577" lon="9.957696554677616"><ele>177.0</ele><time>2026-04-18T06:30:37Z</time></trkpt><trkpt lat="44.8286020259446" lon="9.957786613539621"><ele>177.0</ele><time>2026-04-18T06:30:39Z</time></trkpt><trkpt lat="44.82857354193815" lon="9.957882877651313"><ele>177.0</ele><time>2026-04-18T06:30:41Z</time></trkpt><trkpt lat="44.82854661291911" lon="9.957964034235001"><ele>177.0</ele><time>2026-04-18T06:30:43Z</time></trkpt><trkpt lat="44.82851922835139" lon="9.958090564512716"><ele>178.57142857142858</ele><time>2026-04-18T06:30:46Z</time></trkpt><trkpt lat="44.82852379233095" lon="9.958186340879022"><ele>180.14285714285714</ele><time>2026-04-18T06:30:48Z</time></trkpt><trkpt lat="44.82856215616006" lon="9.958274595183209"><ele>181.71428571428572</ele><time>2026-04-18T06:30:50Z</time></trkpt><trkpt lat="44.828618326876395" lon="9.958322790613908"><ele>183.28571428571428</ele><time>2026-04-18T06:30:52Z</time></trkpt><trkpt lat="44.82869785859926" lon="9.958308240554153"><ele>184.85714285714283</ele><time>2026-04-18T06:30:55Z</time></trkpt><trkpt lat="44.82875481451696" lon="9.958261928818342"><ele>186.42857142857142</ele><time>2026-04-18T06:30:57Z</time></trkpt><trkpt lat="44.82881943076933" lon="9.958214621987123"><ele>188.0</ele><time>2026-04-18T06:30:59Z</time></trkpt><trkpt lat="44.82887283927922" lon="9.958163243432669"><ele>188.0</ele><time>2026-04-18T06:31:00Z</time></trkpt><trkpt lat="44.82894419286906" lon="9.958090019671868"><ele>188.0</ele><time>2026-04-18T06:31:03Z</time></trkpt><trkpt lat="44.82908153155335" lon="9.957945426620837"><ele>188.0</ele><time>2026-04-18T06:31:05Z</time></trkpt><trkpt lat="44.82913849874496" lon="9.957879266862008"><ele>188.0</ele><time>2026-04-18T06:31:07Z</time></trkpt><trkpt lat="44.82919674849762" lon="9.957818904143691"><ele>188.0</ele><time>2026-04-18T06:31:09Z</time></trkpt><trkpt lat="44.829256084063054" lon="9.95775480692857"><ele>188.16666666666666</ele><time>2026-04-18T06:31:10.999Z</time></trkpt><trkpt lat="44.82932464432358" lon="9.957707700803276"><ele>188.33333333333331</ele><time>2026-04-18T06:31:12.999Z</time></trkpt><trkpt lat="44.82940160897136" lon="9.957701187273674"><ele>188.5</ele><time>2026-04-18T06:31:14.999Z</time></trkpt><trkpt lat="44.829473861660986" lon="9.957746983745785"><ele>188.66666666666666</ele><time>2026-04-18T06:31:16.999Z</time></trkpt><trkpt lat="44.82946465084054" lon="9.957848375772942"><ele>188.83333333333334</ele><time>2026-04-18T06:31:18.999Z</time></trkpt><trkpt lat="44.829460833466996" lon="9.95795781435312"><ele>189.0</ele><time>2026-04-18T06:31:20.999Z</time></trkpt><trkpt lat="44.82942031486676" lon="9.958069851052803"><ele>189.0</ele><time>2026-04-18T06:31:23.999Z</time></trkpt><trkpt lat="44.829367242184624" lon="9.958176797707765"><ele>189.0</ele><time>2026-04-18T06:31:26.999Z</time></trkpt><trkpt lat="44.82931919355311" lon="9.95825291755786"><ele>189.0</ele><time>2026-04-18T06:31:27.999Z</time></trkpt><trkpt lat="44.82926540302727" lon="9.95831465982263"><ele>189.0</ele><time>2026-04-18T06:31:29.999Z</time></trkpt><trkpt lat="44.82921740726289" lon="9.958397232086346"><ele>189.0</ele><time>2026-04-18T06:31:31.999Z</time></trkpt><trkpt lat="44.829165245932764" lon="9.95847858630724"><ele>189.0</ele><time>2026-04-18T06:31:33.999Z</time></trkpt><trkpt lat="44.829108851749666" lon="9.958562907973574"><ele>191.5</ele><time>2026-04-18T06:31:35.999Z</time></trkpt><trkpt lat="44.82905096988964" lon="9.958642295241749"><ele>194.0</ele><time>2026-04-18T06:31:37.999Z</time></trkpt><trkpt lat="44.828988692887066" lon="9.958711417620615"><ele>196.5</ele><time>2026-04-18T06:31:39.999Z</time></trkpt><trkpt lat="44.8288893839444" lon="9.958819110852362"><ele>199.0</ele><time>2026-04-18T06:31:42.999Z</time></trkpt><trkpt lat="44.82882576405796" lon="9.958871034414637"><ele>201.5</ele><time>2026-04-18T06:31:45.999Z</time></trkpt><trkpt lat="44.82876291783123" lon="9.958926062818154"><ele>204.0</ele><time>2026-04-18T06:31:46.999Z</time></trkpt><trkpt lat="44.82868485615057" lon="9.95900353814506"><ele>204.0</ele><time>2026-04-18T06:31:49.999Z</time></trkpt><trkpt lat="44.828611142540076" lon="9.959057904699423"><ele>204.0</ele><time>2026-04-18T06:31:51.999Z</time></trkpt><trkpt lat="44.828534603623645" lon="9.959115057104855"><ele>204.0</ele><time>2026-04-18T06:31:53.999Z</time></trkpt><trkpt lat="44.82845961870539" lon="9.959169397435753"><ele>204.0</ele><time>2026-04-18T06:31:55.999Z</time></trkpt><trkpt lat="44.828381861465836" lon="9.959226537187073"><ele>204.0</ele><time>2026-04-18T06:31:57.999Z</time></trkpt><trkpt lat="44.82830209918638" lon="9.959284019480158"><ele>204.0</ele><time>2026-04-18T06:31:59.999Z</time></trkpt><trkpt lat="44.82822637868627" lon="9.959341998842742"><ele>204.6</ele><time>2026-04-18T06:32:01.999Z</time></trkpt><trkpt lat="44.82814269499576" lon="9.959396907213161"><ele>205.2</ele><time>2026-04-18T06:32:03.998Z</time></trkpt><trkpt lat="44.8280646781264" lon="9.959453121222102"><ele>205.79999999999998</ele><time>2026-04-18T06:32:05.998Z</time></trkpt><trkpt lat="44.82796791106821" lon="9.95953953408727"><ele>206.39999999999998</ele><time>2026-04-18T06:32:06.998Z</time></trkpt><trkpt lat="44.82788485776888" lon="9.959592641403258"><ele>207.0</ele><time>2026-04-18T06:32:08.998Z</time></trkpt><trkpt lat="44.82781829283986" lon="9.95966228605296"><ele>207.0</ele><time>2026-04-18T06:32:10.998Z</time></trkpt><trkpt lat="44.82772074797613" lon="9.959720387165204"><ele>207.0</ele><time>2026-04-18T06:32:13.998Z</time></trkpt><trkpt lat="44.8276382484219" lon="9.959773954509446"><ele>207.0</ele><time>2026-04-18T06:32:15.998Z</time></trkpt><trkpt lat="44.827562071570625" lon="9.95983249554959"><ele>207.0</ele><time>2026-04-18T06:32:17.998Z</time></trkpt><trkpt lat="44.82750506143605" lon="9.959872672449677"><ele>207.0</ele><time>2026-04-18T06:32:19.998Z</time></trkpt><trkpt lat="44.827415675049494" lon="9.959942801290667"><ele>207.0</ele><time>2026-04-18T06:32:22Z</time></trkpt><trkpt lat="44.82733363888137" lon="9.959996258730412"><ele>206.66666666666666</ele><time>2026-04-18T06:32:24Z</time></trkpt><trkpt lat="44.82725567593786" lon="9.960053911235752"><ele>206.33333333333331</ele><time>2026-04-18T06:32:26Z</time></trkpt><trkpt lat="44.827181929833685" lon="9.960113901615253"><ele>206.0</ele><time>2026-04-18T06:32:28Z</time></trkpt><trkpt lat="44.82710737101671" lon="9.960165243363734"><ele>205.66666666666666</ele><time>2026-04-18T06:32:30Z</time></trkpt><trkpt lat="44.82703774717301" lon="9.960220569049053"><ele>205.33333333333331</ele><time>2026-04-18T06:32:32Z</time></trkpt><trkpt lat="44.826966530022105" lon="9.960280341560898"><ele>205.0</ele><time>2026-04-18T06:32:34Z</time></trkpt><trkpt lat="44.826895300562434" lon="9.960342578278597"><ele>204.99999999999997</ele><time>2026-04-18T06:32:36Z</time></trkpt><trkpt lat="44.82682874988374" lon="9.96041510960692"><ele>205.0</ele><time>2026-04-18T06:32:38Z</time></trkpt><trkpt lat="44.8267693395028" lon="9.960498644386337"><ele>205.0</ele><time>2026-04-18T06:32:40Z</time></trkpt><trkpt lat="44.826709409825945" lon="9.96058801971154"><ele>205.0</ele><time>2026-04-18T06:32:42Z</time></trkpt><trkpt lat="44.82665122027307" lon="9.960674711086407"><ele>204.99999999999997</ele><time>2026-04-18T06:32:44Z</time></trkpt><trkpt lat="44.82659714533398" lon="9.960762263051846"><ele>205.0</ele><time>2026-04-18T06:32:46Z</time></trkpt><trkpt lat="44.82653613131632" lon="9.960844186529535"><ele>206.33333333333331</ele><time>2026-04-18T06:32:48Z</time></trkpt><trkpt lat="44.826478601073845" lon="9.96092941015193"><ele>207.66666666666666</ele><time>2026-04-18T06:32:50Z</time></trkpt><trkpt lat="44.82642376859252" lon="9.961018263369795"><ele>209.0</ele><time>2026-04-18T06:32:52Z</time></trkpt><trkpt lat="44.826367976824216" lon="9.961108742641168"><ele>210.33333333333331</ele><time>2026-04-18T06:32:54Z</time></trkpt><trkpt lat="44.826309301090795" lon="9.961195796812625"><ele>211.66666666666666</ele><time>2026-04-18T06:32:56Z</time></trkpt><trkpt lat="44.82624707310797" lon="9.961288103399736"><ele>213.0</ele><time>2026-04-18T06:32:59Z</time></trkpt><trkpt lat="44.8261814853917" lon="9.96137833255285"><ele>213.0</ele><time>2026-04-18T06:33:02Z</time></trkpt><trkpt lat="44.8261171298638" lon="9.961455223884938"><ele>213.0</ele><time>2026-04-18T06:33:04Z</time></trkpt><trkpt lat="44.8260505976579" lon="9.961523761787985"><ele>213.0</ele><time>2026-04-18T06:33:06Z</time></trkpt><trkpt lat="44.82598385011336" lon="9.961587289554778"><ele>213.0</ele><time>2026-04-18T06:33:08Z</time></trkpt><trkpt lat="44.82591501256055" lon="9.961646642053037"><ele>213.0</ele><time>2026-04-18T06:33:10Z</time></trkpt><trkpt lat="44.82584306774089" lon="9.961711282721916"><ele>213.0</ele><time>2026-04-18T06:33:12Z</time></trkpt><trkpt lat="44.825770054470624" lon="9.961766450439173"><ele>214.60000000000002</ele><time>2026-04-18T06:33:13.999Z</time></trkpt><trkpt lat="44.82569464332139" lon="9.961816144381372"><ele>216.20000000000002</ele><time>2026-04-18T06:33:15.999Z</time></trkpt><trkpt lat="44.825614002071696" lon="9.96185559202395"><ele>217.8</ele><time>2026-04-18T06:33:17.999Z</time></trkpt><trkpt lat="44.82553232288745" lon="9.961878785813969"><ele>219.4</ele><time>2026-04-18T06:33:19.999Z</time></trkpt><trkpt lat="44.825395368993306" lon="9.961940089382752"><ele>221.0</ele><time>2026-04-18T06:33:21.999Z</time></trkpt><trkpt lat="44.825322290137976" lon="9.961936796077676"><ele>221.00000000000003</ele><time>2026-04-18T06:33:23.999Z</time></trkpt><trkpt lat="44.82525270212492" lon="9.961908371629205"><ele>221.0</ele><time>2026-04-18T06:33:25.999Z</time></trkpt><trkpt lat="44.82518392139886" lon="9.961879149693377"><ele>221.0</ele><time>2026-04-18T06:33:27.999Z</time></trkpt><trkpt lat="44.82511133067126" lon="9.9618405895986"><ele>221.0</ele><time>2026-04-18T06:33:29.999Z</time></trkpt><trkpt lat="44.825040385848865" lon="9.961814812486718"><ele>221.0</ele><time>2026-04-18T06:33:31.999Z</time></trkpt><trkpt lat="44.82497430657592" lon="9.961778007237607"><ele>221.00000000000003</ele><time>2026-04-18T06:33:33.999Z</time></trkpt><trkpt lat="44.82490016987112" lon="9.961745285713093"><ele>221.0</ele><time>2026-04-18T06:33:35.999Z</time></trkpt><trkpt lat="44.82482831407901" lon="9.961712676844476"><ele>219.50000000000003</ele><time>2026-04-18T06:33:37.999Z</time></trkpt><trkpt lat="44.824751831028706" lon="9.961674664873907"><ele>218.0</ele><time>2026-04-18T06:33:39.999Z</time></trkpt><trkpt lat="44.8246761853283" lon="9.9616364644335"><ele>216.5</ele><time>2026-04-18T06:33:41.999Z</time></trkpt><trkpt lat="44.82460317914483" lon="9.961595660008214"><ele>215.0</ele><time>2026-04-18T06:33:43.999Z</time></trkpt><trkpt lat="44.824530166113064" lon="9.961559618863749"><ele>213.50000000000003</ele><time>2026-04-18T06:33:45.999Z</time></trkpt><trkpt lat="44.824459339311545" lon="9.961517163926036"><ele>212.0</ele><time>2026-04-18T06:33:47.999Z</time></trkpt><trkpt lat="44.82439501246174" lon="9.96146870649527"><ele>212.0</ele><time>2026-04-18T06:33:49.999Z</time></trkpt><trkpt lat="44.824332879731976" lon="9.961418935028645"><ele>212.0</ele><time>2026-04-18T06:33:51.999Z</time></trkpt><trkpt lat="44.82426988268838" lon="9.961366675250401"><ele>212.0</ele><time>2026-04-18T06:33:53.999Z</time></trkpt><trkpt lat="44.82421100893182" lon="9.961313537474524"><ele>212.0</ele><time>2026-04-18T06:33:55.999Z</time></trkpt><trkpt lat="44.82414857409643" lon="9.961255709864334"><ele>212.0</ele><time>2026-04-18T06:33:57.999Z</time></trkpt><trkpt lat="44.82407886113291" lon="9.961200368262098"><ele>212.0</ele><time>2026-04-18T06:34:00.999Z</time></trkpt><trkpt lat="44.824011073919245" lon="9.961164002516382"><ele>212.0</ele><time>2026-04-18T06:34:02.999Z</time></trkpt><trkpt lat="44.82392670429915" lon="9.961120717638085"><ele>213.33333333333334</ele><time>2026-04-18T06:34:04.999Z</time></trkpt><trkpt lat="44.8238610581872" lon="9.961105511265806"><ele>214.66666666666669</ele><time>2026-04-18T06:34:06.998Z</time></trkpt><trkpt lat="44.82378108196203" lon="9.9610983608073"><ele>216.0</ele><time>2026-04-18T06:34:10.998Z</time></trkpt><trkpt lat="44.82369101493275" lon="9.961106642998368"><ele>217.33333333333331</ele><time>2026-04-18T06:34:11.998Z</time></trkpt><trkpt lat="44.823617411823165" lon="9.961110072932735"><ele>218.66666666666666</ele><time>2026-04-18T06:34:13.998Z</time></trkpt><trkpt lat="44.82351161220246" lon="9.961131811870747"><ele>220.0</ele><time>2026-04-18T06:34:16.998Z</time></trkpt><trkpt lat="44.823431724373954" lon="9.961148911990016"><ele>221.33333333333331</ele><time>2026-04-18T06:34:18.998Z</time></trkpt><trkpt lat="44.823347201078114" lon="9.961095630281795"><ele>222.66666666666666</ele><time>2026-04-18T06:34:19.998Z</time></trkpt><trkpt lat="44.82326609727297" lon="9.961113798793685"><ele>224.0</ele><time>2026-04-18T06:34:21.998Z</time></trkpt><trkpt lat="44.82318889912533" lon="9.961128128052763"><ele>225.33333333333331</ele><time>2026-04-18T06:34:23.998Z</time></trkpt><trkpt lat="44.82311003290418" lon="9.961144848758286"><ele>226.66666666666666</ele><time>2026-04-18T06:34:25.998Z</time></trkpt><trkpt lat="44.82303028698174" lon="9.96115997235034"><ele>228.0</ele><time>2026-04-18T06:34:28Z</time></trkpt><trkpt lat="44.822947055651376" lon="9.961166115984158"><ele>228.0</ele><time>2026-04-18T06:34:30Z</time></trkpt><trkpt lat="44.822865422356706" lon="9.961169239684104"><ele>228.0</ele><time>2026-04-18T06:34:32Z</time></trkpt><trkpt lat="44.82278130106473" lon="9.961156866712615"><ele>228.0</ele><time>2026-04-18T06:34:34Z</time></trkpt><trkpt lat="44.822697102705305" lon="9.96114666486597"><ele>228.0</ele><time>2026-04-18T06:34:36Z</time></trkpt><trkpt lat="44.82262068296685" lon="9.961129755066036"><ele>228.0</ele><time>2026-04-18T06:34:38Z</time></trkpt><trkpt lat="44.82249519942713" lon="9.961159282601063"><ele>228.33333333333334</ele><time>2026-04-18T06:34:40Z</time></trkpt><trkpt lat="44.82240686012891" lon="9.961137283627973"><ele>228.66666666666669</ele><time>2026-04-18T06:34:43Z</time></trkpt><trkpt lat="44.82233708595532" lon="9.961105769980263"><ele>229.0</ele><time>2026-04-18T06:34:45Z</time></trkpt><trkpt lat="44.82226818706318" lon="9.961078387440029"><ele>229.33333333333334</ele><time>2026-04-18T06:34:47Z</time></trkpt><trkpt lat="44.8221984246861" lon="9.961050219569634"><ele>229.66666666666669</ele><time>2026-04-18T06:34:49Z</time></trkpt><trkpt lat="44.822122635837246" lon="9.961016182909749"><ele>230.0</ele><time>2026-04-18T06:34:51Z</time></trkpt><trkpt lat="44.822053259706614" lon="9.96099841328006"><ele>230.00000000000003</ele><time>2026-04-18T06:34:53Z</time></trkpt><trkpt lat="44.82197734628659" lon="9.960973401904596"><ele>230.0</ele><time>2026-04-18T06:34:55Z</time></trkpt><trkpt lat="44.82190162580995" lon="9.960964726427937"><ele>230.0</ele><time>2026-04-18T06:34:57Z</time></trkpt><trkpt lat="44.82182618028547" lon="9.960942053721698"><ele>230.0</ele><time>2026-04-18T06:34:59Z</time></trkpt><trkpt lat="44.82175123840441" lon="9.960930214933091"><ele>230.00000000000003</ele><time>2026-04-18T06:35:01Z</time></trkpt><trkpt lat="44.82167446393784" lon="9.960915776658231"><ele>230.0</ele><time>2026-04-18T06:35:03Z</time></trkpt><trkpt lat="44.82159638793694" lon="9.960911426010766"><ele>229.33333333333334</ele><time>2026-04-18T06:35:05Z</time></trkpt><trkpt lat="44.821513930848354" lon="9.960901671722755"><ele>228.66666666666669</ele><time>2026-04-18T06:35:07Z</time></trkpt><trkpt lat="44.821436224533414" lon="9.96089442046835"><ele>228.0</ele><time>2026-04-18T06:35:09Z</time></trkpt><trkpt lat="44.82135613665264" lon="9.960897891718432"><ele>227.33333333333331</ele><time>2026-04-18T06:35:11Z</time></trkpt><trkpt lat="44.82127936176867" lon="9.960891030695068"><ele>226.66666666666666</ele><time>2026-04-18T06:35:13Z</time></trkpt><trkpt lat="44.821200077268905" lon="9.96088647683384"><ele>226.0</ele><time>2026-04-18T06:35:15Z</time></trkpt><trkpt lat="44.82112298552702" lon="9.96087272882769"><ele>225.99999999999997</ele><time>2026-04-18T06:35:16.999Z</time></trkpt><trkpt lat="44.82104357011837" lon="9.960870196790394"><ele>226.0</ele><time>2026-04-18T06:35:18.999Z</time></trkpt><trkpt lat="44.82096754618216" lon="9.960858117387435"><ele>226.0</ele><time>2026-04-18T06:35:20.999Z</time></trkpt><trkpt lat="44.820892597215156" lon="9.960850229541219"><ele>226.0</ele><time>2026-04-18T06:35:22.999Z</time></trkpt><trkpt lat="44.82081239336841" lon="9.960837291520178"><ele>225.99999999999997</ele><time>2026-04-18T06:35:24.999Z</time></trkpt><trkpt lat="44.82073009979221" lon="9.96083294585629"><ele>226.0</ele><time>2026-04-18T06:35:26.999Z</time></trkpt><trkpt lat="44.820644319571706" lon="9.960829671688408"><ele>226.66666666666666</ele><time>2026-04-18T06:35:28.999Z</time></trkpt><trkpt lat="44.82057937201011" lon="9.960813563543828"><ele>227.33333333333331</ele><time>2026-04-18T06:35:30.999Z</time></trkpt><trkpt lat="44.82051364891568" lon="9.960821489104251"><ele>228.0</ele><time>2026-04-18T06:35:32.999Z</time></trkpt><trkpt lat="44.82040046551557" lon="9.960767374716305"><ele>228.66666666666669</ele><time>2026-04-18T06:35:33.999Z</time></trkpt><trkpt lat="44.82031475028496" lon="9.960760790780284"><ele>229.33333333333334</ele><time>2026-04-18T06:35:35.999Z</time></trkpt><trkpt lat="44.82023238680512" lon="9.960755436757285"><ele>230.0</ele><time>2026-04-18T06:35:37.999Z</time></trkpt><trkpt lat="44.820150344843775" lon="9.96075207542023"><ele>230.66666666666669</ele><time>2026-04-18T06:35:39.999Z</time></trkpt><trkpt lat="44.82007408305091" lon="9.960743601637454"><ele>231.33333333333334</ele><time>2026-04-18T06:35:41.999Z</time></trkpt><trkpt lat="44.82000102357371" lon="9.960743265125615"><ele>232.0</ele><time>2026-04-18T06:35:43.999Z</time></trkpt><trkpt lat="44.819926188844434" lon="9.960739935135017"><ele>232.66666666666669</ele><time>2026-04-18T06:35:45.999Z</time></trkpt><trkpt lat="44.819846378471" lon="9.96074307404024"><ele>233.33333333333334</ele><time>2026-04-18T06:35:47.999Z</time></trkpt><trkpt lat="44.81976888240087" lon="9.960752396143517"><ele>234.0</ele><time>2026-04-18T06:35:49.999Z</time></trkpt><trkpt lat="44.81969203783815" lon="9.960766920407846"><ele>234.0</ele><time>2026-04-18T06:35:51.999Z</time></trkpt><trkpt lat="44.81956423376801" lon="9.960858720832121"><ele>234.0</ele><time>2026-04-18T06:35:52.999Z</time></trkpt><trkpt lat="44.81948797290709" lon="9.960893722390095"><ele>234.0</ele><time>2026-04-18T06:35:55.999Z</time></trkpt><trkpt lat="44.8194124314717" lon="9.960925282769091"><ele>234.0</ele><time>2026-04-18T06:35:58.999Z</time></trkpt><trkpt lat="44.81934166823354" lon="9.96092654790716"><ele>234.0</ele><time>2026-04-18T06:36:01.999Z</time></trkpt><trkpt lat="44.81932599091018" lon="9.961028424346637"><ele>234.0</ele><time>2026-04-18T06:40:07.999Z</time></trkpt><trkpt lat="44.8192820151503" lon="9.961093343557327"><ele>233.6</ele><time>2026-04-18T06:40:09.999Z</time></trkpt><trkpt lat="44.81922741687019" lon="9.961154946951407"><ele>233.2</ele><time>2026-04-18T06:40:11.999Z</time></trkpt><trkpt lat="44.819173333605946" lon="9.961243301476133"><ele>232.79999999999998</ele><time>2026-04-18T06:40:13.999Z</time></trkpt><trkpt lat="44.81912514840579" lon="9.961350318678585"><ele>232.39999999999998</ele><time>2026-04-18T06:40:15.999Z</time></trkpt><trkpt lat="44.81905880935781" lon="9.961459988327194"><ele>232.0</ele><time>2026-04-18T06:40:17.998Z</time></trkpt><trkpt lat="44.81899819974858" lon="9.961586655726652"><ele>231.2</ele><time>2026-04-18T06:40:19.998Z</time></trkpt><trkpt lat="44.8189046370717" lon="9.961700687953819"><ele>230.39999999999998</ele><time>2026-04-18T06:40:21.998Z</time></trkpt><trkpt lat="44.818837036177676" lon="9.961862369859645"><ele>229.60000000000002</ele><time>2026-04-18T06:40:23.998Z</time></trkpt><trkpt lat="44.81880483509152" lon="9.961956024756867"><ele>228.8</ele><time>2026-04-18T06:40:24.998Z</time></trkpt><trkpt lat="44.81877529818293" lon="9.962056506343847"><ele>228.0</ele><time>2026-04-18T06:40:25.998Z</time></trkpt><trkpt lat="44.8187479842617" lon="9.962160168126923"><ele>228.0</ele><time>2026-04-18T06:40:26.998Z</time></trkpt><trkpt lat="44.81872347078845" lon="9.96226736999947"><ele>228.0</ele><time>2026-04-18T06:40:27.998Z</time></trkpt><trkpt lat="44.81870247213844" lon="9.962384403443247"><ele>228.0</ele><time>2026-04-18T06:40:28.998Z</time></trkpt><trkpt lat="44.81869717734214" lon="9.962514942281098"><ele>228.0</ele><time>2026-04-18T06:40:29.998Z</time></trkpt><trkpt lat="44.81869805318724" lon="9.962643877666824"><ele>228.0</ele><time>2026-04-18T06:40:30.998Z</time></trkpt><trkpt lat="44.81870964499832" lon="9.962775906918905"><ele>228.0</ele><time>2026-04-18T06:40:31.998Z</time></trkpt><trkpt lat="44.818718254563244" lon="9.962905758705912"><ele>227.4</ele><time>2026-04-18T06:40:32.998Z</time></trkpt><trkpt lat="44.81872642752651" lon="9.963037902648438"><ele>226.8</ele><time>2026-04-18T06:40:33.998Z</time></trkpt><trkpt lat="44.81873466431145" lon="9.963172969042349"><ele>226.2</ele><time>2026-04-18T06:40:34.998Z</time></trkpt><trkpt lat="44.81874162920063" lon="9.963314129538754"><ele>225.6</ele><time>2026-04-18T06:40:35.998Z</time></trkpt><trkpt lat="44.81874541623829" lon="9.963454905555297"><ele>225.0</ele><time>2026-04-18T06:40:36.998Z</time></trkpt><trkpt lat="44.818746553174485" lon="9.963594266889956"><ele>224.4</ele><time>2026-04-18T06:40:37.998Z</time></trkpt><trkpt lat="44.81874655317293" lon="9.9637346826825"><ele>223.8</ele><time>2026-04-18T06:40:38.998Z</time></trkpt><trkpt lat="44.81874479945268" lon="9.963882483699432"><ele>223.2</ele><time>2026-04-18T06:40:39.998Z</time></trkpt><trkpt lat="44.81873791286732" lon="9.96403490382618"><ele>222.6</ele><time>2026-04-18T06:40:40.998Z</time></trkpt><trkpt lat="44.81872687253452" lon="9.964179435755032"><ele>222.0</ele><time>2026-04-18T06:40:41.998Z</time></trkpt><trkpt lat="44.818710955739434" lon="9.96432977899961"><ele>221.39999999999998</ele><time>2026-04-18T06:40:42.998Z</time></trkpt><trkpt lat="44.81868934423045" lon="9.964479481387613"><ele>220.79999999999998</ele><time>2026-04-18T06:40:43.998Z</time></trkpt><trkpt lat="44.818660939601514" lon="9.964623478599844"><ele>220.2</ele><time>2026-04-18T06:40:45Z</time></trkpt><trkpt lat="44.81863093212958" lon="9.964766604320445"><ele>219.6</ele><time>2026-04-18T06:40:46Z</time></trkpt><trkpt lat="44.81859491578062" lon="9.964907606449934"><ele>219.0</ele><time>2026-04-18T06:40:47Z</time></trkpt><trkpt lat="44.81856094403617" lon="9.965042294370853"><ele>218.79999999999998</ele><time>2026-04-18T06:40:48Z</time></trkpt><trkpt lat="44.818526834665775" lon="9.965177528033191"><ele>218.59999999999997</ele><time>2026-04-18T06:40:49Z</time></trkpt><trkpt lat="44.81849347115295" lon="9.965310940616279"><ele>218.4</ele><time>2026-04-18T06:40:50Z</time></trkpt><trkpt lat="44.81846461498253" lon="9.965434028340189"><ele>218.2</ele><time>2026-04-18T06:40:51Z</time></trkpt><trkpt lat="44.81844384190647" lon="9.965555241601356"><ele>218.0</ele><time>2026-04-18T06:40:52Z</time></trkpt><trkpt lat="44.81842760753218" lon="9.965666526570772"><ele>218.00000000000003</ele><time>2026-04-18T06:40:53Z</time></trkpt><trkpt lat="44.818417034778676" lon="9.965770704180505"><ele>218.0</ele><time>2026-04-18T06:40:54Z</time></trkpt><trkpt lat="44.81841458459191" lon="9.965869810314148"><ele>218.0</ele><time>2026-04-18T06:40:55Z</time></trkpt><trkpt lat="44.81841781310826" lon="9.965960960967402"><ele>218.0</ele><time>2026-04-18T06:40:56Z</time></trkpt><trkpt lat="44.818421785107645" lon="9.966102028875733"><ele>218.00000000000003</ele><time>2026-04-18T06:40:58Z</time></trkpt><trkpt lat="44.818435776326844" lon="9.966196331552641"><ele>218.0</ele><time>2026-04-18T06:41:00Z</time></trkpt><trkpt lat="44.818371246345706" lon="9.966243335916316"><ele>217.50000000000003</ele><time>2026-04-18T06:41:02Z</time></trkpt><trkpt lat="44.8183698767033" lon="9.96635235363551"><ele>217.0</ele><time>2026-04-18T06:41:06Z</time></trkpt><trkpt lat="44.818379370295226" lon="9.966442854526777"><ele>216.5</ele><time>2026-04-18T06:41:08Z</time></trkpt><trkpt lat="44.81842521689039" lon="9.966537159123249"><ele>216.0</ele><time>2026-04-18T06:41:10Z</time></trkpt><trkpt lat="44.81846073128324" lon="9.966706753170696"><ele>215.50000000000003</ele><time>2026-04-18T06:41:12Z</time></trkpt><trkpt lat="44.81848289125782" lon="9.9668113425813"><ele>215.0</ele><time>2026-04-18T06:41:13Z</time></trkpt><trkpt lat="44.81850615083767" lon="9.966922891532375"><ele>214.0</ele><time>2026-04-18T06:41:14Z</time></trkpt><trkpt lat="44.81852959407118" lon="9.967043431027136"><ele>213.0</ele><time>2026-04-18T06:41:15Z</time></trkpt><trkpt lat="44.81855215276052" lon="9.967161772198459"><ele>212.0</ele><time>2026-04-18T06:41:16Z</time></trkpt><trkpt lat="44.81857555303996" lon="9.967284528412964"><ele>211.0</ele><time>2026-04-18T06:41:17Z</time></trkpt><trkpt lat="44.81859847717723" lon="9.967404784875525"><ele>210.0</ele><time>2026-04-18T06:41:18Z</time></trkpt><trkpt lat="44.81862154726606" lon="9.967536036258576"><ele>208.8</ele><time>2026-04-18T06:41:19Z</time></trkpt><trkpt lat="44.818644891584356" lon="9.96768690963471"><ele>207.6</ele><time>2026-04-18T06:41:20Z</time></trkpt><trkpt lat="44.818665468945525" lon="9.967841262715863"><ele>206.39999999999998</ele><time>2026-04-18T06:41:21Z</time></trkpt><trkpt lat="44.81868300788779" lon="9.968006481428459"><ele>205.2</ele><time>2026-04-18T06:41:22Z</time></trkpt><trkpt lat="44.81869500011203" lon="9.968144145804784"><ele>204.0</ele><time>2026-04-18T06:41:23Z</time></trkpt><trkpt lat="44.818704902054996" lon="9.96829257261783"><ele>202.0</ele><time>2026-04-18T06:41:24Z</time></trkpt><trkpt lat="44.818387074312255" lon="9.968467429611245"><ele>200.0</ele><time>2026-04-18T06:41:25Z</time></trkpt><trkpt lat="44.81840937465623" lon="9.968598346076787"><ele>198.0</ele><time>2026-04-18T06:41:26Z</time></trkpt><trkpt lat="44.818431931331084" lon="9.968727280192734"><ele>198.0</ele><time>2026-04-18T06:41:27Z</time></trkpt><trkpt lat="44.818451308998455" lon="9.968858625804957"><ele>198.0</ele><time>2026-04-18T06:41:28Z</time></trkpt><trkpt lat="44.818468522174854" lon="9.968985338122147"><ele>198.0</ele><time>2026-04-18T06:41:29Z</time></trkpt><trkpt lat="44.818741613749374" lon="9.969086549755472"><ele>198.0</ele><time>2026-04-18T06:41:30Z</time></trkpt><trkpt lat="44.818744266590826" lon="9.969188613119753"><ele>198.0</ele><time>2026-04-18T06:41:30.999Z</time></trkpt><trkpt lat="44.81874280338924" lon="9.969297368440925"><ele>198.0</ele><time>2026-04-18T06:41:31.999Z</time></trkpt><trkpt lat="44.81874097153046" lon="9.96942380946033"><ele>198.0</ele><time>2026-04-18T06:41:33.999Z</time></trkpt><trkpt lat="44.8183758297643" lon="9.969318852681413"><ele>198.0</ele><time>2026-04-18T06:41:38.999Z</time></trkpt><trkpt lat="44.81834539841426" lon="9.969190294880677"><ele>198.0</ele><time>2026-04-18T06:41:40.999Z</time></trkpt><trkpt lat="44.81829112136779" lon="9.969043932623185"><ele>198.0</ele><time>2026-04-18T06:41:42.999Z</time></trkpt><trkpt lat="44.81826388325023" lon="9.96896229815048"><ele>198.0</ele><time>2026-04-18T06:41:43.999Z</time></trkpt><trkpt lat="44.818236844762666" lon="9.968877229378759"><ele>198.0</ele><time>2026-04-18T06:41:44.999Z</time></trkpt><trkpt lat="44.81820455963765" lon="9.968791495217937"><ele>198.0</ele><time>2026-04-18T06:41:45.999Z</time></trkpt><trkpt lat="44.81817689315108" lon="9.968703329318359"><ele>198.0</ele><time>2026-04-18T06:41:46.999Z</time></trkpt><trkpt lat="44.818148914269074" lon="9.968619338105148"><ele>198.0</ele><time>2026-04-18T06:41:47.999Z</time></trkpt><trkpt lat="44.8181002373832" lon="9.968473104372064"><ele>198.0</ele><time>2026-04-18T06:41:49.999Z</time></trkpt><trkpt lat="44.818026566599045" lon="9.968390677851357"><ele>198.0</ele><time>2026-04-18T06:41:51.999Z</time></trkpt><trkpt lat="44.81792443751171" lon="9.968451507057383"><ele>198.0</ele><time>2026-04-18T06:41:53.999Z</time></trkpt><trkpt lat="44.81790165609921" lon="9.968540011412436"><ele>198.0</ele><time>2026-04-18T06:41:54.999Z</time></trkpt><trkpt lat="44.81789593163961" lon="9.96863981002394"><ele>198.0</ele><time>2026-04-18T06:41:55.999Z</time></trkpt><trkpt lat="44.817895420929" lon="9.968737468602306"><ele>198.0</ele><time>2026-04-18T06:41:56.999Z</time></trkpt><trkpt lat="44.81789165406769" lon="9.968837942603418"><ele>198.0</ele><time>2026-04-18T06:41:57.999Z</time></trkpt><trkpt lat="44.81788131314797" lon="9.968941923747323"><ele>198.0</ele><time>2026-04-18T06:41:58.999Z</time></trkpt><trkpt lat="44.817873045302505" lon="9.969048547665825"><ele>198.0</ele><time>2026-04-18T06:41:59.999Z</time></trkpt><trkpt lat="44.8178636492901" lon="9.969159695934735"><ele>198.0</ele><time>2026-04-18T06:42:00.999Z</time></trkpt><trkpt lat="44.817856777922316" lon="9.969277868073076"><ele>198.0</ele><time>2026-04-18T06:42:01.999Z</time></trkpt><trkpt lat="44.817850247477026" lon="9.96939837656814"><ele>198.0</ele><time>2026-04-18T06:42:02.999Z</time></trkpt><trkpt lat="44.81784575315719" lon="9.969520533719066"><ele>198.0</ele><time>2026-04-18T06:42:03.999Z</time></trkpt><trkpt lat="44.81784016442808" lon="9.969649011992525"><ele>198.0</ele><time>2026-04-18T06:42:04.999Z</time></trkpt><trkpt lat="44.81782578801173" lon="9.969778853389757"><ele>198.0</ele><time>2026-04-18T06:42:05.999Z</time></trkpt><trkpt lat="44.81781579729371" lon="9.969911177014689"><ele>197.60000000000002</ele><time>2026-04-18T06:42:06.999Z</time></trkpt><trkpt lat="44.81780896182265" lon="9.970049402261072"><ele>197.20000000000002</ele><time>2026-04-18T06:42:07.999Z</time></trkpt><trkpt lat="44.81779938884499" lon="9.970173861049618"><ele>196.8</ele><time>2026-04-18T06:42:08.999Z</time></trkpt><trkpt lat="44.817794249144136" lon="9.970304472073023"><ele>196.4</ele><time>2026-04-18T06:42:09.999Z</time></trkpt><trkpt lat="44.817707300254014" lon="9.970430502408114"><ele>196.0</ele><time>2026-04-18T06:42:10.999Z</time></trkpt><trkpt lat="44.81769860115382" lon="9.970564956887818"><ele>196.0</ele><time>2026-04-18T06:42:11.999Z</time></trkpt><trkpt lat="44.81768974682846" lon="9.970704081406474"><ele>196.0</ele><time>2026-04-18T06:42:12.999Z</time></trkpt><trkpt lat="44.817681450620476" lon="9.970834829446988"><ele>196.0</ele><time>2026-04-18T06:42:13.999Z</time></trkpt><trkpt lat="44.81767273252486" lon="9.970959271397192"><ele>196.0</ele><time>2026-04-18T06:42:14.999Z</time></trkpt><trkpt lat="44.81766020942505" lon="9.971082345887437"><ele>196.0</ele><time>2026-04-18T06:42:15.999Z</time></trkpt><trkpt lat="44.81764444358572" lon="9.971208887464154"><ele>192.4</ele><time>2026-04-18T06:42:16.999Z</time></trkpt><trkpt lat="44.817620219604365" lon="9.971335390924448"><ele>188.8</ele><time>2026-04-18T06:42:17.999Z</time></trkpt><trkpt lat="44.81758867314713" lon="9.97145867928899"><ele>185.20000000000002</ele><time>2026-04-18T06:42:18.999Z</time></trkpt><trkpt lat="44.817555416153105" lon="9.971578150097534"><ele>181.60000000000002</ele><time>2026-04-18T06:42:19.999Z</time></trkpt><trkpt lat="44.817522716301596" lon="9.971695227767164"><ele>178.0</ele><time>2026-04-18T06:42:20.999Z</time></trkpt><trkpt lat="44.81749092763803" lon="9.97180904288309"><ele>177.99999999999997</ele><time>2026-04-18T06:42:21.999Z</time></trkpt><trkpt lat="44.81746277930049" lon="9.971909824312855"><ele>178.0</ele><time>2026-04-18T06:42:22.999Z</time></trkpt><trkpt lat="44.817438454386256" lon="9.971996916382253"><ele>178.0</ele><time>2026-04-18T06:42:23.999Z</time></trkpt><trkpt lat="44.817410460892994" lon="9.972097144706229"><ele>178.0</ele><time>2026-04-18T06:42:24.998Z</time></trkpt><trkpt lat="44.817382963920124" lon="9.972195608799181"><ele>178.0</ele><time>2026-04-18T06:42:25.998Z</time></trkpt><trkpt lat="44.81735481610107" lon="9.972296403501458"><ele>177.99999999999997</ele><time>2026-04-18T06:42:26.998Z</time></trkpt><trkpt lat="44.81732950755185" lon="9.972387029296058"><ele>178.0</ele><time>2026-04-18T06:42:27.998Z</time></trkpt><trkpt lat="44.81730353984987" lon="9.972489591854771"><ele>178.0</ele><time>2026-04-18T06:42:28.998Z</time></trkpt><trkpt lat="44.81727648230402" lon="9.972591743878398"><ele>178.0</ele><time>2026-04-18T06:42:29.998Z</time></trkpt><trkpt lat="44.81724829600224" lon="9.97269803859691"><ele>178.0</ele><time>2026-04-18T06:42:30.998Z</time></trkpt><trkpt lat="44.81721754855104" lon="9.972813991793123"><ele>178.0</ele><time>2026-04-18T06:42:31.998Z</time></trkpt><trkpt lat="44.81718432889536" lon="9.972939267979344"><ele>178.0</ele><time>2026-04-18T06:42:32.998Z</time></trkpt><trkpt lat="44.817150020159374" lon="9.973068651387418"><ele>178.0</ele><time>2026-04-18T06:42:33.998Z</time></trkpt><trkpt lat="44.817116971768804" lon="9.973193281832755"><ele>178.0</ele><time>2026-04-18T06:42:34.998Z</time></trkpt><trkpt lat="44.817084307254554" lon="9.973316048972064"><ele>178.0</ele><time>2026-04-18T06:42:35.998Z</time></trkpt><trkpt lat="44.817050302230086" lon="9.973441468552794"><ele>178.0</ele><time>2026-04-18T06:42:36.998Z</time></trkpt><trkpt lat="44.81701581146459" lon="9.973568678348405"><ele>178.0</ele><time>2026-04-18T06:42:37.998Z</time></trkpt><trkpt lat="44.81698186462227" lon="9.973694471992179"><ele>178.0</ele><time>2026-04-18T06:42:38.998Z</time></trkpt><trkpt lat="44.81694660518495" lon="9.973824929235207"><ele>178.0</ele><time>2026-04-18T06:42:39.998Z</time></trkpt><trkpt lat="44.81691053343591" lon="9.973958391950772"><ele>178.0</ele><time>2026-04-18T06:42:40.998Z</time></trkpt><trkpt lat="44.81687650708278" lon="9.974082102074775"><ele>178.0</ele><time>2026-04-18T06:42:41.998Z</time></trkpt><trkpt lat="44.8168417173067" lon="9.974207581190495"><ele>178.0</ele><time>2026-04-18T06:42:42.998Z</time></trkpt><trkpt lat="44.81680760173926" lon="9.974330628204477"><ele>178.0</ele><time>2026-04-18T06:42:43.998Z</time></trkpt><trkpt lat="44.81677478866903" lon="9.974446605968376"><ele>176.60000000000002</ele><time>2026-04-18T06:42:44.998Z</time></trkpt><trkpt lat="44.816741430403866" lon="9.974564766787099"><ele>175.20000000000002</ele><time>2026-04-18T06:42:45.998Z</time></trkpt><trkpt lat="44.81670874821391" lon="9.974680532830524"><ele>173.8</ele><time>2026-04-18T06:42:46.998Z</time></trkpt><trkpt lat="44.81667545576621" lon="9.974798460527731"><ele>172.4</ele><time>2026-04-18T06:42:47.998Z</time></trkpt><trkpt lat="44.81664209606314" lon="9.974916534435442"><ele>171.0</ele><time>2026-04-18T06:42:48.998Z</time></trkpt><trkpt lat="44.816607853572435" lon="9.975037287053611"><ele>170.33333333333334</ele><time>2026-04-18T06:42:49.998Z</time></trkpt><trkpt lat="44.81657523752205" lon="9.97515230424759"><ele>169.66666666666666</ele><time>2026-04-18T06:42:51Z</time></trkpt><trkpt lat="44.81654473070526" lon="9.975259883335731"><ele>169.0</ele><time>2026-04-18T06:42:52Z</time></trkpt><trkpt lat="44.81651660024271" lon="9.975359082550286"><ele>168.33333333333331</ele><time>2026-04-18T06:42:53Z</time></trkpt><trkpt lat="44.81649096059778" lon="9.97544949811579"><ele>167.66666666666666</ele><time>2026-04-18T06:42:54Z</time></trkpt><trkpt lat="44.81645032622184" lon="9.97559307706575"><ele>167.0</ele><time>2026-04-18T06:42:56Z</time></trkpt><trkpt lat="44.816426155355316" lon="9.975680576443777"><ele>167.0</ele><time>2026-04-18T06:42:58Z</time></trkpt><trkpt lat="44.81636008913035" lon="9.97568414895222"><ele>167.0</ele><time>2026-04-18T06:43:01Z</time></trkpt><trkpt lat="44.81628534926524" lon="9.975698297729977"><ele>167.0</ele><time>2026-04-18T06:43:02Z</time></trkpt><trkpt lat="44.816203588061384" lon="9.975649580578402"><ele>167.0</ele><time>2026-04-18T06:43:04Z</time></trkpt><trkpt lat="44.81613425334437" lon="9.975555437169083"><ele>167.0</ele><time>2026-04-18T06:43:06Z</time></trkpt><trkpt lat="44.81605510574204" lon="9.975510870481411"><ele>167.0</ele><time>2026-04-18T06:43:08Z</time></trkpt><trkpt lat="44.815996916898605" lon="9.975470632914277"><ele>167.0</ele><time>2026-04-18T06:43:11Z</time></trkpt><trkpt lat="44.81592395437544" lon="9.975488157465996"><ele>167.0</ele><time>2026-04-18T06:43:14Z</time></trkpt><trkpt lat="44.81582426153014" lon="9.975653379574492"><ele>167.0</ele><time>2026-04-18T06:43:17Z</time></trkpt><trkpt lat="44.81581848835511" lon="9.975766632503065"><ele>167.0</ele><time>2026-04-18T06:43:19Z</time></trkpt><trkpt lat="44.81580840660006" lon="9.975894434408513"><ele>167.0</ele><time>2026-04-18T06:43:21Z</time></trkpt><trkpt lat="44.815795768874295" lon="9.976033086520173"><ele>167.16666666666666</ele><time>2026-04-18T06:43:23Z</time></trkpt><trkpt lat="44.815783361846925" lon="9.97616166890739"><ele>167.33333333333331</ele><time>2026-04-18T06:43:25Z</time></trkpt><trkpt lat="44.81576939271134" lon="9.976300382709208"><ele>167.5</ele><time>2026-04-18T06:43:27Z</time></trkpt><trkpt lat="44.81575593806537" lon="9.976433987470335"><ele>167.66666666666666</ele><time>2026-04-18T06:43:29Z</time></trkpt><trkpt lat="44.81574700204017" lon="9.97652272247686"><ele>167.83333333333334</ele><time>2026-04-18T06:43:30Z</time></trkpt><trkpt lat="44.815732908741374" lon="9.976660258221592"><ele>168.0</ele><time>2026-04-18T06:43:32Z</time></trkpt><trkpt lat="44.81572247799751" lon="9.976756484175574"><ele>168.0</ele><time>2026-04-18T06:43:34Z</time></trkpt><trkpt lat="44.81564242269841" lon="9.976683481817949"><ele>168.0</ele><time>2026-04-18T06:43:48.999Z</time></trkpt><trkpt lat="44.81565602592248" lon="9.976570241955447"><ele>168.0</ele><time>2026-04-18T06:43:51.999Z</time></trkpt><trkpt lat="44.81569982289821" lon="9.97645482642904"><ele>168.0</ele><time>2026-04-18T06:43:54.999Z</time></trkpt><trkpt lat="44.815702006483065" lon="9.976347471773602"><ele>168.0</ele><time>2026-04-18T06:43:56.999Z</time></trkpt><trkpt lat="44.8157450529494" lon="9.976254375142918"><ele>168.0</ele><time>2026-04-18T06:43:58.999Z</time></trkpt><trkpt lat="44.81573857197234" lon="9.976164910612617"><ele>168.0</ele><time>2026-04-18T06:44:01.999Z</time></trkpt><trkpt lat="44.81572132896593" lon="9.9760309128567"><ele>168.0</ele><time>2026-04-18T06:44:03.999Z</time></trkpt><trkpt lat="44.815699338181055" lon="9.975908970001582"><ele>168.0</ele><time>2026-04-18T06:44:06.999Z</time></trkpt><trkpt lat="44.81564302458348" lon="9.975846227578165"><ele>168.0</ele><time>2026-04-18T06:44:09.999Z</time></trkpt><trkpt lat="44.81556464404258" lon="9.975824384267446"><ele>168.0</ele><time>2026-04-18T06:44:12.999Z</time></trkpt><trkpt lat="44.815491092775446" lon="9.975850298486025"><ele>168.0</ele><time>2026-04-18T06:44:15.999Z</time></trkpt><trkpt lat="44.81544379740757" lon="9.975930422072766"><ele>168.0</ele><time>2026-04-18T06:44:18.999Z</time></trkpt><trkpt lat="44.815409107165586" lon="9.976008621198114"><ele>168.0</ele><time>2026-04-18T06:44:21.999Z</time></trkpt><trkpt lat="44.815359168603194" lon="9.976068837982357"><ele>168.0</ele><time>2026-04-18T06:44:24.999Z</time></trkpt><trkpt lat="44.815323880186305" lon="9.976155282325985"><ele>168.0</ele><time>2026-04-18T06:44:28.999Z</time></trkpt><trkpt lat="44.81529991922797" lon="9.976238431102374"><ele>168.0</ele><time>2026-04-18T06:44:31.998Z</time></trkpt><trkpt lat="44.81530388904122" lon="9.976332332722658"><ele>168.0</ele><time>2026-04-18T06:44:34.998Z</time></trkpt><trkpt lat="44.815293058794815" lon="9.976426042963196"><ele>168.0</ele><time>2026-04-18T06:44:37.998Z</time></trkpt><trkpt lat="44.815269800126124" lon="9.976524052077252"><ele>168.0</ele><time>2026-04-18T06:44:40.998Z</time></trkpt><trkpt lat="44.815227446310445" lon="9.976609103727196"><ele>168.0</ele><time>2026-04-18T06:44:43.998Z</time></trkpt><trkpt lat="44.8151788814419" lon="9.976698680398265"><ele>168.0</ele><time>2026-04-18T06:44:46.998Z</time></trkpt><trkpt lat="44.81512906957563" lon="9.976786479833608"><ele>168.0</ele><time>2026-04-18T06:44:49.998Z</time></trkpt><trkpt lat="44.81507092785191" lon="9.976876987956308"><ele>168.0</ele><time>2026-04-18T06:44:52.998Z</time></trkpt><trkpt lat="44.815007747038734" lon="9.976969710631113"><ele>168.0</ele><time>2026-04-18T06:44:55.998Z</time></trkpt><trkpt lat="44.81495281265619" lon="9.977057366821189"><ele>168.83333333333334</ele><time>2026-04-18T06:44:59Z</time></trkpt><trkpt lat="44.81492207857614" lon="9.977147453377928"><ele>169.66666666666666</ele><time>2026-04-18T06:45:01Z</time></trkpt><trkpt lat="44.8149081609395" lon="9.977237855189362"><ele>170.5</ele><time>2026-04-18T06:45:03Z</time></trkpt><trkpt lat="44.81488705984111" lon="9.977331739560766"><ele>171.33333333333331</ele><time>2026-04-18T06:45:05Z</time></trkpt><trkpt lat="44.81490075976469" lon="9.977499578399081"><ele>172.16666666666666</ele><time>2026-04-18T06:45:07Z</time></trkpt><trkpt lat="44.81490543949035" lon="9.977594786941362"><ele>173.0</ele><time>2026-04-18T06:45:08Z</time></trkpt><trkpt lat="44.81490209779647" lon="9.977689615204392"><ele>173.0</ele><time>2026-04-18T06:45:10Z</time></trkpt><trkpt lat="44.81491633907412" lon="9.97777850077675"><ele>173.0</ele><time>2026-04-18T06:45:11Z</time></trkpt><trkpt lat="44.81492605805642" lon="9.97791926997043"><ele>173.0</ele><time>2026-04-18T06:45:12Z</time></trkpt><trkpt lat="44.81492557916011" lon="9.978049978611594"><ele>173.0</ele><time>2026-04-18T06:45:13Z</time></trkpt><trkpt lat="44.814925275150195" lon="9.97817462167807"><ele>173.0</ele><time>2026-04-18T06:45:14Z</time></trkpt><trkpt lat="44.81491401625949" lon="9.97827424525952"><ele>173.0</ele><time>2026-04-18T06:45:15Z</time></trkpt><trkpt lat="44.81489865623824" lon="9.978370183197809"><ele>172.2</ele><time>2026-04-18T06:45:16Z</time></trkpt><trkpt lat="44.81487597251074" lon="9.978509086869202"><ele>171.4</ele><time>2026-04-18T06:45:17Z</time></trkpt><trkpt lat="44.81484172503734" lon="9.97862116160775"><ele>170.6</ele><time>2026-04-18T06:45:18Z</time></trkpt><trkpt lat="44.814802350772254" lon="9.978731720176434"><ele>169.79999999999998</ele><time>2026-04-18T06:45:19Z</time></trkpt><trkpt lat="44.81476412652004" lon="9.978852838610264"><ele>169.0</ele><time>2026-04-18T06:45:20Z</time></trkpt><trkpt lat="44.81457293259534" lon="9.978888928876497"><ele>169.0</ele><time>2026-04-18T06:45:21Z</time></trkpt><trkpt lat="44.814553525353816" lon="9.978982081564277"><ele>169.0</ele><time>2026-04-18T06:45:22Z</time></trkpt><trkpt lat="44.81452633099372" lon="9.979113747848766"><ele>169.0</ele><time>2026-04-18T06:45:23Z</time></trkpt><trkpt lat="44.81449908766797" lon="9.979221713040614"><ele>169.0</ele><time>2026-04-18T06:45:24Z</time></trkpt><trkpt lat="44.814452996654126" lon="9.97936256841281"><ele>169.0</ele><time>2026-04-18T06:45:25Z</time></trkpt><trkpt lat="44.81440623985266" lon="9.979465726865968"><ele>169.0</ele><time>2026-04-18T06:45:26Z</time></trkpt><trkpt lat="44.81436889153585" lon="9.97958810177383"><ele>169.39999999999998</ele><time>2026-04-18T06:45:27Z</time></trkpt><trkpt lat="44.81432700879335" lon="9.979710030107771"><ele>169.8</ele><time>2026-04-18T06:45:28Z</time></trkpt><trkpt lat="44.81428228383382" lon="9.979838654002824"><ele>170.2</ele><time>2026-04-18T06:45:29Z</time></trkpt><trkpt lat="44.814234052915786" lon="9.979955800296551"><ele>170.60000000000002</ele><time>2026-04-18T06:45:30Z</time></trkpt><trkpt lat="44.81412257805179" lon="9.98001347530306"><ele>171.0</ele><time>2026-04-18T06:45:31Z</time></trkpt><trkpt lat="44.814078511570514" lon="9.980094864419211"><ele>170.16666666666666</ele><time>2026-04-18T06:45:32Z</time></trkpt><trkpt lat="44.81402882490053" lon="9.980185268116792"><ele>169.33333333333334</ele><time>2026-04-18T06:45:33Z</time></trkpt><trkpt lat="44.81397216724808" lon="9.980284903324472"><ele>168.5</ele><time>2026-04-18T06:45:35Z</time></trkpt><trkpt lat="44.81391911170155" lon="9.980365648378658"><ele>167.66666666666669</ele><time>2026-04-18T06:45:37Z</time></trkpt><trkpt lat="44.81386242158365" lon="9.98043124931323"><ele>166.83333333333334</ele><time>2026-04-18T06:45:40Z</time></trkpt><trkpt lat="44.81377476896309" lon="9.98052201782674"><ele>166.0</ele><time>2026-04-18T06:45:41.999Z</time></trkpt><trkpt lat="44.81372455950108" lon="9.980583076410618"><ele>166.0</ele><time>2026-04-18T06:45:42.999Z</time></trkpt><trkpt lat="44.81367197480687" lon="9.98066487993139"><ele>166.0</ele><time>2026-04-18T06:45:45.999Z</time></trkpt><trkpt lat="44.813609521783654" lon="9.980740546614612"><ele>166.0</ele><time>2026-04-18T06:45:48.999Z</time></trkpt><trkpt lat="44.81350874856217" lon="9.980777144518864"><ele>166.0</ele><time>2026-04-18T06:45:50.999Z</time></trkpt><trkpt lat="44.81340314093157" lon="9.981057706770759"><ele>166.25</ele><time>2026-04-18T06:45:52.999Z</time></trkpt><trkpt lat="44.8133246280747" lon="9.981054693818509"><ele>166.5</ele><time>2026-04-18T06:45:54.999Z</time></trkpt><trkpt lat="44.81322482843682" lon="9.98077972133839"><ele>166.75</ele><time>2026-04-18T06:45:56.999Z</time></trkpt><trkpt lat="44.813131351457734" lon="9.980789126768636"><ele>167.0</ele><time>2026-04-18T06:45:58.999Z</time></trkpt><trkpt lat="44.813052015332005" lon="9.980818788964925"><ele>167.2</ele><time>2026-04-18T06:46:00.999Z</time></trkpt><trkpt lat="44.812956083437086" lon="9.980803167523476"><ele>167.39999999999998</ele><time>2026-04-18T06:46:02.999Z</time></trkpt><trkpt lat="44.81286595257642" lon="9.980791714989115"><ele>167.60000000000002</ele><time>2026-04-18T06:46:04.999Z</time></trkpt><trkpt lat="44.81276360809232" lon="9.980778008952582"><ele>167.8</ele><time>2026-04-18T06:46:06.999Z</time></trkpt><trkpt lat="44.81266813255465" lon="9.98080217834049"><ele>168.0</ele><time>2026-04-18T06:46:08.999Z</time></trkpt><trkpt lat="44.812572563392685" lon="9.980807641432541"><ele>168.4</ele><time>2026-04-18T06:46:10.999Z</time></trkpt><trkpt lat="44.81247055482441" lon="9.980804718182975"><ele>168.8</ele><time>2026-04-18T06:46:12.999Z</time></trkpt><trkpt lat="44.812368607008786" lon="9.980811409953276"><ele>169.2</ele><time>2026-04-18T06:46:14.999Z</time></trkpt><trkpt lat="44.812272999619" lon="9.98081198321155"><ele>169.6</ele><time>2026-04-18T06:46:16.999Z</time></trkpt><trkpt lat="44.81220571800973" lon="9.980826139116145"><ele>170.0</ele><time>2026-04-18T06:46:18.999Z</time></trkpt><trkpt lat="44.81211206464117" lon="9.980828259067739"><ele>170.0</ele><time>2026-04-18T06:46:20.999Z</time></trkpt><trkpt lat="44.81203697297792" lon="9.9808073266952"><ele>170.0</ele><time>2026-04-18T06:46:22.999Z</time></trkpt><trkpt lat="44.81195441953431" lon="9.98081733573744"><ele>170.0</ele><time>2026-04-18T06:46:24.999Z</time></trkpt><trkpt lat="44.81189278412033" lon="9.980765344600714"><ele>170.0</ele><time>2026-04-18T06:46:27.999Z</time></trkpt><trkpt lat="44.81179681157535" lon="9.980753799297045"><ele>170.0</ele><time>2026-04-18T06:46:30.999Z</time></trkpt><trkpt lat="44.81171086232827" lon="9.98073294302539"><ele>170.0</ele><time>2026-04-18T06:46:32.999Z</time></trkpt><trkpt lat="44.811610978013896" lon="9.980736466220202"><ele>169.33333333333331</ele><time>2026-04-18T06:46:33.998Z</time></trkpt><trkpt lat="44.811532895648284" lon="9.9807459227676"><ele>168.66666666666666</ele><time>2026-04-18T06:46:34.998Z</time></trkpt><trkpt lat="44.81141488945527" lon="9.981117728095034"><ele>168.0</ele><time>2026-04-18T06:46:36.998Z</time></trkpt><trkpt lat="44.811298247657476" lon="9.981121737361422"><ele>168.0</ele><time>2026-04-18T06:46:38.998Z</time></trkpt><trkpt lat="44.811177012141705" lon="9.981119006392776"><ele>168.0</ele><time>2026-04-18T06:46:40.998Z</time></trkpt><trkpt lat="44.811061040047136" lon="9.981119006393728"><ele>168.0</ele><time>2026-04-18T06:46:42.998Z</time></trkpt><trkpt lat="44.81094173557283" lon="9.981119803638387"><ele>168.0</ele><time>2026-04-18T06:46:44.998Z</time></trkpt><trkpt lat="44.81088671258777" lon="9.980804471587454"><ele>168.0</ele><time>2026-04-18T06:46:45.998Z</time></trkpt><trkpt lat="44.810773537881595" lon="9.980801489912313"><ele>168.0</ele><time>2026-04-18T06:46:47.998Z</time></trkpt><trkpt lat="44.81070958169047" lon="9.980807622161487"><ele>168.0</ele><time>2026-04-18T06:46:48.998Z</time></trkpt><trkpt lat="44.8106603524653" lon="9.981124974585605"><ele>168.0</ele><time>2026-04-18T06:46:49.998Z</time></trkpt><trkpt lat="44.810554668178" lon="9.98105798780286"><ele>168.0</ele><time>2026-04-18T06:46:51.998Z</time></trkpt><trkpt lat="44.81045809070704" lon="9.981060791525152"><ele>168.0</ele><time>2026-04-18T06:46:53.998Z</time></trkpt><trkpt lat="44.81036035114986" lon="9.981063628977871"><ele>168.0</ele><time>2026-04-18T06:46:55.998Z</time></trkpt><trkpt lat="44.81026087903536" lon="9.98084007689789"><ele>168.0</ele><time>2026-04-18T06:46:57.998Z</time></trkpt><trkpt lat="44.81017607119995" lon="9.980840282235043"><ele>167.8</ele><time>2026-04-18T06:46:59.998Z</time></trkpt><trkpt lat="44.81009005897224" lon="9.9808522594782"><ele>167.60000000000002</ele><time>2026-04-18T06:47:02Z</time></trkpt><trkpt lat="44.80999972733662" lon="9.980862437423362"><ele>167.39999999999998</ele><time>2026-04-18T06:47:04Z</time></trkpt><trkpt lat="44.80991379326455" lon="9.980870163903813"><ele>167.2</ele><time>2026-04-18T06:47:06Z</time></trkpt><trkpt lat="44.809806825512304" lon="9.980894395369372"><ele>167.0</ele><time>2026-04-18T06:47:08Z</time></trkpt><trkpt lat="44.80970400000215" lon="9.980924237848283"><ele>167.0</ele><time>2026-04-18T06:47:10Z</time></trkpt><trkpt lat="44.80960087618524" lon="9.980926909977597"><ele>167.0</ele><time>2026-04-18T06:47:12Z</time></trkpt><trkpt lat="44.8094974060002" lon="9.980938285932186"><ele>167.0</ele><time>2026-04-18T06:47:14Z</time></trkpt><trkpt lat="44.809431506446984" lon="9.980936576667713"><ele>167.0</ele><time>2026-04-18T06:47:16Z</time></trkpt><trkpt lat="44.8093602056951" lon="9.980952020024805"><ele>167.0</ele><time>2026-04-18T06:47:19Z</time></trkpt><trkpt lat="44.8092708800344" lon="9.980954161105231"><ele>167.0</ele><time>2026-04-18T06:47:22Z</time></trkpt><trkpt lat="44.809111577383426" lon="9.980869680397037"><ele>167.8</ele><time>2026-04-18T06:47:23Z</time></trkpt><trkpt lat="44.80902372535425" lon="9.980871438158653"><ele>168.6</ele><time>2026-04-18T06:47:25Z</time></trkpt><trkpt lat="44.8089358673872" lon="9.980878704460498"><ele>169.4</ele><time>2026-04-18T06:47:27Z</time></trkpt><trkpt lat="44.80884715686945" lon="9.980874849747874"><ele>170.20000000000002</ele><time>2026-04-18T06:47:29Z</time></trkpt><trkpt lat="44.80875422456577" lon="9.98087126627426"><ele>171.0</ele><time>2026-04-18T06:47:31Z</time></trkpt><trkpt lat="44.80866015283718" lon="9.980861413178111"><ele>171.0</ele><time>2026-04-18T06:47:33Z</time></trkpt><trkpt lat="44.80856116528826" lon="9.980849078024042"><ele>171.0</ele><time>2026-04-18T06:47:35Z</time></trkpt><trkpt lat="44.8084994000324" lon="9.980880238420271"><ele>171.0</ele><time>2026-04-18T06:47:36Z</time></trkpt><trkpt lat="44.80839018647628" lon="9.980898180846452"><ele>171.0</ele><time>2026-04-18T06:47:38Z</time></trkpt><trkpt lat="44.80829000984966" lon="9.980891048138517"><ele>171.0</ele><time>2026-04-18T06:47:40Z</time></trkpt><trkpt lat="44.808193508973446" lon="9.980890555718046"><ele>171.0</ele><time>2026-04-18T06:47:42Z</time></trkpt><trkpt lat="44.808014925777066" lon="9.981058484572"><ele>171.0</ele><time>2026-04-18T06:47:43Z</time></trkpt><trkpt lat="44.80791028526175" lon="9.981062915404708"><ele>171.0</ele><time>2026-04-18T06:47:44.999Z</time></trkpt><trkpt lat="44.80780984034121" lon="9.981054573887148"><ele>171.0</ele><time>2026-04-18T06:47:46.999Z</time></trkpt><trkpt lat="44.80772300735956" lon="9.981051335816641"><ele>171.0</ele><time>2026-04-18T06:47:48.999Z</time></trkpt><trkpt lat="44.807625561385386" lon="9.981047495159512"><ele>171.0</ele><time>2026-04-18T06:47:50.999Z</time></trkpt><trkpt lat="44.80753469319182" lon="9.981019546007852"><ele>171.0</ele><time>2026-04-18T06:47:52.999Z</time></trkpt><trkpt lat="44.80744566748797" lon="9.981015033953433"><ele>171.0</ele><time>2026-04-18T06:47:54.999Z</time></trkpt><trkpt lat="44.80736012956088" lon="9.981005721182258"><ele>171.0</ele><time>2026-04-18T06:47:56.999Z</time></trkpt><trkpt lat="44.807259616749796" lon="9.981011894263718"><ele>171.0</ele><time>2026-04-18T06:47:58.999Z</time></trkpt><trkpt lat="44.807156760541254" lon="9.981036065573516"><ele>171.0</ele><time>2026-04-18T06:48:00.999Z</time></trkpt><trkpt lat="44.80705561824572" lon="9.981067162837862"><ele>171.0</ele><time>2026-04-18T06:48:02.999Z</time></trkpt><trkpt lat="44.80694682547314" lon="9.981110048436637"><ele>171.0</ele><time>2026-04-18T06:48:04.999Z</time></trkpt><trkpt lat="44.80683888088587" lon="9.98114361445518"><ele>171.0</ele><time>2026-04-18T06:48:06.999Z</time></trkpt><trkpt lat="44.80677971570658" lon="9.981178138304536"><ele>172.20000000000002</ele><time>2026-04-18T06:48:07.999Z</time></trkpt><trkpt lat="44.806682579951904" lon="9.981221089242112"><ele>173.4</ele><time>2026-04-18T06:48:09.999Z</time></trkpt><trkpt lat="44.806588709551406" lon="9.981294271566055"><ele>174.6</ele><time>2026-04-18T06:48:11.999Z</time></trkpt><trkpt lat="44.806482235172055" lon="9.981340288608786"><ele>175.8</ele><time>2026-04-18T06:48:13.999Z</time></trkpt><trkpt lat="44.80637559546992" lon="9.981404315010868"><ele>177.0</ele><time>2026-04-18T06:48:15.999Z</time></trkpt><trkpt lat="44.80631302066366" lon="9.98143611014907"><ele>177.0</ele><time>2026-04-18T06:48:16.999Z</time></trkpt><trkpt lat="44.806186243716105" lon="9.981488355015765"><ele>177.0</ele><time>2026-04-18T06:48:18.999Z</time></trkpt><trkpt lat="44.80612524056142" lon="9.981522290709371"><ele>177.0</ele><time>2026-04-18T06:48:19.999Z</time></trkpt><trkpt lat="44.806054863011056" lon="9.981573235777692"><ele>177.0</ele><time>2026-04-18T06:48:20.999Z</time></trkpt><trkpt lat="44.80598798616485" lon="9.981603684598626"><ele>177.0</ele><time>2026-04-18T06:48:21.999Z</time></trkpt><trkpt lat="44.8058665128315" lon="9.981670628217268"><ele>176.39999999999998</ele><time>2026-04-18T06:48:23.999Z</time></trkpt><trkpt lat="44.80580543685412" lon="9.981707713730119"><ele>175.79999999999998</ele><time>2026-04-18T06:48:24.999Z</time></trkpt><trkpt lat="44.80569331512513" lon="9.981776926014835"><ele>175.2</ele><time>2026-04-18T06:48:26.999Z</time></trkpt><trkpt lat="44.80557715873382" lon="9.981845716504205"><ele>174.6</ele><time>2026-04-18T06:48:28.999Z</time></trkpt><trkpt lat="44.80551508515069" lon="9.981879464010579"><ele>174.0</ele><time>2026-04-18T06:48:29.999Z</time></trkpt><trkpt lat="44.80544838472237" lon="9.98190557122318"><ele>174.0</ele><time>2026-04-18T06:48:30.999Z</time></trkpt><trkpt lat="44.80538434198729" lon="9.981936935275755"><ele>174.0</ele><time>2026-04-18T06:48:31.999Z</time></trkpt><trkpt lat="44.80531881393479" lon="9.981970369923888"><ele>174.0</ele><time>2026-04-18T06:48:32.999Z</time></trkpt><trkpt lat="44.805252125190805" lon="9.982008024406227"><ele>174.0</ele><time>2026-04-18T06:48:33.999Z</time></trkpt><trkpt lat="44.80519005713469" lon="9.982043277073005"><ele>174.0</ele><time>2026-04-18T06:48:34.999Z</time></trkpt><trkpt lat="44.80512580538333" lon="9.98207566501913"><ele>174.0</ele><time>2026-04-18T06:48:35.999Z</time></trkpt><trkpt lat="44.80506080113072" lon="9.982104733869976"><ele>174.0</ele><time>2026-04-18T06:48:36.999Z</time></trkpt><trkpt lat="44.804992572721204" lon="9.982137172677042"><ele>174.16666666666666</ele><time>2026-04-18T06:48:37.999Z</time></trkpt><trkpt lat="44.80492896367141" lon="9.982165051753318"><ele>174.33333333333334</ele><time>2026-04-18T06:48:38.998Z</time></trkpt><trkpt lat="44.80480909218027" lon="9.98223553639155"><ele>174.5</ele><time>2026-04-18T06:48:40.998Z</time></trkpt><trkpt lat="44.80474793451761" lon="9.98226959688115"><ele>174.66666666666669</ele><time>2026-04-18T06:48:41.998Z</time></trkpt><trkpt lat="44.804684759708294" lon="9.982302071489116"><ele>174.83333333333334</ele><time>2026-04-18T06:48:42.998Z</time></trkpt><trkpt lat="44.80462238291696" lon="9.982330795605499"><ele>175.0</ele><time>2026-04-18T06:48:43.998Z</time></trkpt><trkpt lat="44.80456079493427" lon="9.98236063503819"><ele>175.0</ele><time>2026-04-18T06:48:44.998Z</time></trkpt><trkpt lat="44.80449986002895" lon="9.982394449476274"><ele>175.0</ele><time>2026-04-18T06:48:45.998Z</time></trkpt><trkpt lat="44.80443982055219" lon="9.982426144307334"><ele>175.0</ele><time>2026-04-18T06:48:46.998Z</time></trkpt><trkpt lat="44.80437966651053" lon="9.982458618928709"><ele>175.0</ele><time>2026-04-18T06:48:47.998Z</time></trkpt><trkpt lat="44.80431851487888" lon="9.982491416582764"><ele>175.0</ele><time>2026-04-18T06:48:48.998Z</time></trkpt><trkpt lat="44.804211835483244" lon="9.982547295024814"><ele>175.0</ele><time>2026-04-18T06:48:50.998Z</time></trkpt><trkpt lat="44.80413308148614" lon="9.982567597343374"><ele>175.0</ele><time>2026-04-18T06:48:51.998Z</time></trkpt><trkpt lat="44.80406953247981" lon="9.982586368475346"><ele>175.0</ele><time>2026-04-18T06:48:52.998Z</time></trkpt><trkpt lat="44.804006915572366" lon="9.982596564696934"><ele>175.0</ele><time>2026-04-18T06:48:53.998Z</time></trkpt><trkpt lat="44.80394354630232" lon="9.982601239913373"><ele>175.0</ele><time>2026-04-18T06:48:54.998Z</time></trkpt><trkpt lat="44.80388054773419" lon="9.98260279384996"><ele>175.0</ele><time>2026-04-18T06:48:55.998Z</time></trkpt><trkpt lat="44.80375253607679" lon="9.982615880390698"><ele>175.0</ele><time>2026-04-18T06:48:57.998Z</time></trkpt><trkpt lat="44.803630655925545" lon="9.982599698501673"><ele>175.0</ele><time>2026-04-18T06:48:59.998Z</time></trkpt><trkpt lat="44.80356637054662" lon="9.982556529720721"><ele>175.0</ele><time>2026-04-18T06:49:00.998Z</time></trkpt><trkpt lat="44.80350569638137" lon="9.982516638602135"><ele>175.0</ele><time>2026-04-18T06:49:01.998Z</time></trkpt><trkpt lat="44.803397383603404" lon="9.982457131033554"><ele>175.0</ele><time>2026-04-18T06:49:03.998Z</time></trkpt><trkpt lat="44.8032898496152" lon="9.982400911771517"><ele>175.0</ele><time>2026-04-18T06:49:05.998Z</time></trkpt><trkpt lat="44.80318445447071" lon="9.982328755558273"><ele>176.25</ele><time>2026-04-18T06:49:08Z</time></trkpt><trkpt lat="44.803076173779154" lon="9.98226285428222"><ele>177.5</ele><time>2026-04-18T06:49:10Z</time></trkpt><trkpt lat="44.80296699319332" lon="9.982196405152369"><ele>178.75</ele><time>2026-04-18T06:49:12Z</time></trkpt><trkpt lat="44.802868918269" lon="9.982102330633243"><ele>180.0</ele><time>2026-04-18T06:49:14Z</time></trkpt><trkpt lat="44.802761197058814" lon="9.982032652709618"><ele>178.75</ele><time>2026-04-18T06:49:16Z</time></trkpt><trkpt lat="44.80265485031137" lon="9.981974599990977"><ele>177.5</ele><time>2026-04-18T06:49:18Z</time></trkpt><trkpt lat="44.80255033428281" lon="9.981915293108543"><ele>176.25</ele><time>2026-04-18T06:49:20Z</time></trkpt><trkpt lat="44.802445239767856" lon="9.98184894475724"><ele>175.0</ele><time>2026-04-18T06:49:22Z</time></trkpt><trkpt lat="44.80234040863871" lon="9.981788831807812"><ele>175.0</ele><time>2026-04-18T06:49:24Z</time></trkpt><trkpt lat="44.802239384036326" lon="9.981729289425665"><ele>175.0</ele><time>2026-04-18T06:49:26Z</time></trkpt><trkpt lat="44.802131313600455" lon="9.981684785878079"><ele>175.0</ele><time>2026-04-18T06:49:28Z</time></trkpt><trkpt lat="44.802023412149516" lon="9.981648267451178"><ele>175.0</ele><time>2026-04-18T06:49:30Z</time></trkpt><trkpt lat="44.801915147485225" lon="9.981619763651041"><ele>175.0</ele><time>2026-04-18T06:49:32Z</time></trkpt><trkpt lat="44.80180470644851" lon="9.981592771845605"><ele>177.0</ele><time>2026-04-18T06:49:34Z</time></trkpt><trkpt lat="44.80169586131296" lon="9.981563522939295"><ele>179.0</ele><time>2026-04-18T06:49:36Z</time></trkpt><trkpt lat="44.801587501534414" lon="9.981541087043897"><ele>181.0</ele><time>2026-04-18T06:49:38Z</time></trkpt><trkpt lat="44.801519660039666" lon="9.981525782600077"><ele>183.0</ele><time>2026-04-18T06:49:39Z</time></trkpt><trkpt lat="44.801407348585684" lon="9.981498199084374"><ele>185.0</ele><time>2026-04-18T06:49:41Z</time></trkpt><trkpt lat="44.80134560646253" lon="9.981478835025992"><ele>185.0</ele><time>2026-04-18T06:49:42Z</time></trkpt><trkpt lat="44.80123860804723" lon="9.981424446863178"><ele>185.0</ele><time>2026-04-18T06:49:44Z</time></trkpt><trkpt lat="44.80112850514562" lon="9.981375837398737"><ele>185.0</ele><time>2026-04-18T06:49:46Z</time></trkpt><trkpt lat="44.801023635779224" lon="9.98131359923192"><ele>185.0</ele><time>2026-04-18T06:49:48Z</time></trkpt><trkpt lat="44.80091530149034" lon="9.98126799492861"><ele>184.25</ele><time>2026-04-18T06:49:49.999Z</time></trkpt><trkpt lat="44.80081946152976" lon="9.981189985485052"><ele>183.5</ele><time>2026-04-18T06:49:51.999Z</time></trkpt><trkpt lat="44.80072215226553" lon="9.981096881555562"><ele>182.75</ele><time>2026-04-18T06:49:53.999Z</time></trkpt><trkpt lat="44.8006293576848" lon="9.981001877301333"><ele>182.0</ele><time>2026-04-18T06:49:55.999Z</time></trkpt><trkpt lat="44.80054042276532" lon="9.98091153618455"><ele>182.0</ele><time>2026-04-18T06:49:57.999Z</time></trkpt><trkpt lat="44.80045124557696" lon="9.980822354197846"><ele>182.0</ele><time>2026-04-18T06:49:59.999Z</time></trkpt><trkpt lat="44.80036401264867" lon="9.980734282372245"><ele>182.0</ele><time>2026-04-18T06:50:01.999Z</time></trkpt><trkpt lat="44.80027993960848" lon="9.980648445407628"><ele>182.0</ele><time>2026-04-18T06:50:03.999Z</time></trkpt><trkpt lat="44.80019376776949" lon="9.98056381622368"><ele>182.0</ele><time>2026-04-18T06:50:05.999Z</time></trkpt><trkpt lat="44.80010404229797" lon="9.980493563040035"><ele>182.0</ele><time>2026-04-18T06:50:07.999Z</time></trkpt><trkpt lat="44.8000148671101" lon="9.980420543521408"><ele>182.0</ele><time>2026-04-18T06:50:09.999Z</time></trkpt><trkpt lat="44.799922443373056" lon="9.98036073181984"><ele>182.0</ele><time>2026-04-18T06:50:11.999Z</time></trkpt><trkpt lat="44.799830833075966" lon="9.980301797819955"><ele>182.0</ele><time>2026-04-18T06:50:13.999Z</time></trkpt><trkpt lat="44.79973654904742" lon="9.980243890010838"><ele>182.0</ele><time>2026-04-18T06:50:15.999Z</time></trkpt><trkpt lat="44.79964427062249" lon="9.980194615954792"><ele>182.0</ele><time>2026-04-18T06:50:17.999Z</time></trkpt><trkpt lat="44.79955777257102" lon="9.980139898774379"><ele>182.0</ele><time>2026-04-18T06:50:19.999Z</time></trkpt><trkpt lat="44.799471826717486" lon="9.980085625769556"><ele>182.0</ele><time>2026-04-18T06:50:21.999Z</time></trkpt><trkpt lat="44.7993838731494" lon="9.980034722869789"><ele>182.0</ele><time>2026-04-18T06:50:23.999Z</time></trkpt><trkpt lat="44.7992928436574" lon="9.979985779130446"><ele>182.0</ele><time>2026-04-18T06:50:25.999Z</time></trkpt><trkpt lat="44.79921222754059" lon="9.979922505395775"><ele>184.0</ele><time>2026-04-18T06:50:27.999Z</time></trkpt><trkpt lat="44.79912895436755" lon="9.97986213094515"><ele>186.0</ele><time>2026-04-18T06:50:29.999Z</time></trkpt><trkpt lat="44.79905297203246" lon="9.979785236453889"><ele>188.0</ele><time>2026-04-18T06:50:31.999Z</time></trkpt><trkpt lat="44.798984326398134" lon="9.979694603797782"><ele>190.0</ele><time>2026-04-18T06:50:33.999Z</time></trkpt><trkpt lat="44.79891515444275" lon="9.979592331867865"><ele>192.0</ele><time>2026-04-18T06:50:35.999Z</time></trkpt><trkpt lat="44.79885052272501" lon="9.9794965070741"><ele>192.0</ele><time>2026-04-18T06:50:37.999Z</time></trkpt><trkpt lat="44.79878558286413" lon="9.979394599471027"><ele>192.0</ele><time>2026-04-18T06:50:39.999Z</time></trkpt><trkpt lat="44.79871731730007" lon="9.979297392572182"><ele>192.0</ele><time>2026-04-18T06:50:41.999Z</time></trkpt><trkpt lat="44.798649756331265" lon="9.97919783415541"><ele>192.0</ele><time>2026-04-18T06:50:43.998Z</time></trkpt><trkpt lat="44.798584568992965" lon="9.979099797795561"><ele>192.0</ele><time>2026-04-18T06:50:45.998Z</time></trkpt><trkpt lat="44.79851996208759" lon="9.979001617030251"><ele>192.2</ele><time>2026-04-18T06:50:47.998Z</time></trkpt><trkpt lat="44.798457314005184" lon="9.97890172404403"><ele>192.39999999999998</ele><time>2026-04-18T06:50:49.998Z</time></trkpt><trkpt lat="44.798379918788875" lon="9.97884124265662"><ele>192.60000000000002</ele><time>2026-04-18T06:50:51.998Z</time></trkpt><trkpt lat="44.79832382668697" lon="9.978738726611097"><ele>192.8</ele><time>2026-04-18T06:50:53.998Z</time></trkpt><trkpt lat="44.79826262484218" lon="9.978647831843146"><ele>193.0</ele><time>2026-04-18T06:50:55.998Z</time></trkpt><trkpt lat="44.79820731064373" lon="9.978551860441844"><ele>193.0</ele><time>2026-04-18T06:50:57.998Z</time></trkpt><trkpt lat="44.79815384277979" lon="9.978443118514281"><ele>193.0</ele><time>2026-04-18T06:50:59.998Z</time></trkpt><trkpt lat="44.798106005247675" lon="9.978333747382553"><ele>193.0</ele><time>2026-04-18T06:51:01.998Z</time></trkpt><trkpt lat="44.79804885071535" lon="9.978231878987815"><ele>193.0</ele><time>2026-04-18T06:51:03.998Z</time></trkpt><trkpt lat="44.7979864707021" lon="9.9781365049969"><ele>193.0</ele><time>2026-04-18T06:51:05.998Z</time></trkpt><trkpt lat="44.797920763902866" lon="9.978056018737231"><ele>193.8</ele><time>2026-04-18T06:51:07.998Z</time></trkpt><trkpt lat="44.7978513528226" lon="9.977970822080092"><ele>194.60000000000002</ele><time>2026-04-18T06:51:09.998Z</time></trkpt><trkpt lat="44.79777271873277" lon="9.97790065626653"><ele>195.39999999999998</ele><time>2026-04-18T06:51:11.998Z</time></trkpt><trkpt lat="44.79769693614389" lon="9.977825133589635"><ele>196.2</ele><time>2026-04-18T06:51:14Z</time></trkpt><trkpt lat="44.797623265341684" lon="9.977758229212956"><ele>197.0</ele><time>2026-04-18T06:51:16Z</time></trkpt><trkpt lat="44.79754992178496" lon="9.977680974221473"><ele>197.00000000000003</ele><time>2026-04-18T06:51:18Z</time></trkpt><trkpt lat="44.7974795902524" lon="9.977606760000647"><ele>197.0</ele><time>2026-04-18T06:51:20Z</time></trkpt><trkpt lat="44.79740700313012" lon="9.977532539691168"><ele>197.0</ele><time>2026-04-18T06:51:22Z</time></trkpt><trkpt lat="44.79734518281539" lon="9.977447363344334"><ele>197.0</ele><time>2026-04-18T06:51:24Z</time></trkpt><trkpt lat="44.7972812108061" lon="9.97736981026089"><ele>197.00000000000003</ele><time>2026-04-18T06:51:26Z</time></trkpt><trkpt lat="44.7972249413682" lon="9.977265556959985"><ele>197.0</ele><time>2026-04-18T06:51:28Z</time></trkpt><trkpt lat="44.797172674794254" lon="9.977163179489796"><ele>198.66666666666669</ele><time>2026-04-18T06:51:30Z</time></trkpt><trkpt lat="44.79712147826676" lon="9.977065529715407"><ele>200.33333333333334</ele><time>2026-04-18T06:51:32Z</time></trkpt><trkpt lat="44.79706900681768" lon="9.976961541128954"><ele>202.0</ele><time>2026-04-18T06:51:34Z</time></trkpt><trkpt lat="44.797021553806054" lon="9.976852991288416"><ele>203.66666666666669</ele><time>2026-04-18T06:51:36Z</time></trkpt><trkpt lat="44.79695980861335" lon="9.976760856098842"><ele>205.33333333333334</ele><time>2026-04-18T06:51:38Z</time></trkpt><trkpt lat="44.796887402037704" lon="9.976683713911736"><ele>207.0</ele><time>2026-04-18T06:51:40Z</time></trkpt><trkpt lat="44.79681686849848" lon="9.976598161851086"><ele>207.0</ele><time>2026-04-18T06:51:42Z</time></trkpt><trkpt lat="44.79672992226854" lon="9.9765356565762"><ele>207.0</ele><time>2026-04-18T06:51:44Z</time></trkpt><trkpt lat="44.796640399863094" lon="9.976476122852622"><ele>207.0</ele><time>2026-04-18T06:51:46Z</time></trkpt><trkpt lat="44.79655357799532" lon="9.976405498092168"><ele>207.0</ele><time>2026-04-18T06:51:48Z</time></trkpt><trkpt lat="44.79646755240704" lon="9.976356755553844"><ele>207.0</ele><time>2026-04-18T06:51:50Z</time></trkpt><trkpt lat="44.796376101032614" lon="9.976290605884605"><ele>207.0</ele><time>2026-04-18T06:51:52Z</time></trkpt><trkpt lat="44.79629132128732" lon="9.976228302060235"><ele>207.0</ele><time>2026-04-18T06:51:53.999Z</time></trkpt><trkpt lat="44.796200835778016" lon="9.976163498562462"><ele>207.0</ele><time>2026-04-18T06:51:55.999Z</time></trkpt><trkpt lat="44.79610812546449" lon="9.976099219606349"><ele>207.0</ele><time>2026-04-18T06:51:57.999Z</time></trkpt><trkpt lat="44.79601420757585" lon="9.97604427599825"><ele>207.0</ele><time>2026-04-18T06:51:59.999Z</time></trkpt><trkpt lat="44.79591615268924" lon="9.975971790390298"><ele>208.2</ele><time>2026-04-18T06:52:01.999Z</time></trkpt><trkpt lat="44.79581112545398" lon="9.975902407879236"><ele>209.39999999999998</ele><time>2026-04-18T06:52:03.999Z</time></trkpt><trkpt lat="44.79570422368467" lon="9.975836697169905"><ele>210.60000000000002</ele><time>2026-04-18T06:52:05.999Z</time></trkpt><trkpt lat="44.795600237476535" lon="9.975739844349361"><ele>211.8</ele><time>2026-04-18T06:52:07.999Z</time></trkpt><trkpt lat="44.795544478761876" lon="9.97569685606751"><ele>213.0</ele><time>2026-04-18T06:52:08.999Z</time></trkpt><trkpt lat="44.79548723219363" lon="9.975655603208319"><ele>212.99999999999997</ele><time>2026-04-18T06:52:09.999Z</time></trkpt><trkpt lat="44.79541815701711" lon="9.975641619175297"><ele>213.0</ele><time>2026-04-18T06:52:10.999Z</time></trkpt><trkpt lat="44.795360247423275" lon="9.975599534655743"><ele>213.0</ele><time>2026-04-18T06:52:11.999Z</time></trkpt><trkpt lat="44.79530009448818" lon="9.975555819628955"><ele>213.0</ele><time>2026-04-18T06:52:12.999Z</time></trkpt><trkpt lat="44.79524082821327" lon="9.97551274053571"><ele>213.0</ele><time>2026-04-18T06:52:13.999Z</time></trkpt><trkpt lat="44.79518236336721" lon="9.975469907295038"><ele>212.99999999999997</ele><time>2026-04-18T06:52:14.999Z</time></trkpt><trkpt lat="44.79512152064426" lon="9.975425936682027"><ele>213.0</ele><time>2026-04-18T06:52:15.999Z</time></trkpt><trkpt lat="44.7950615562689" lon="9.97538260098892"><ele>212.28571428571428</ele><time>2026-04-18T06:52:16.999Z</time></trkpt><trkpt lat="44.795000707473655" lon="9.975336428510536"><ele>211.57142857142856</ele><time>2026-04-18T06:52:17.999Z</time></trkpt><trkpt lat="44.79493679262131" lon="9.975284484029604"><ele>210.85714285714283</ele><time>2026-04-18T06:52:18.999Z</time></trkpt><trkpt lat="44.79487527152854" lon="9.975229377140979"><ele>210.14285714285714</ele><time>2026-04-18T06:52:19.999Z</time></trkpt><trkpt lat="44.79481906907118" lon="9.975174227136545"><ele>209.42857142857144</ele><time>2026-04-18T06:52:20.999Z</time></trkpt><trkpt lat="44.794765291939804" lon="9.975121467726336"><ele>208.7142857142857</ele><time>2026-04-18T06:52:21.999Z</time></trkpt><trkpt lat="44.79471359628329" lon="9.975048909298359"><ele>208.0</ele><time>2026-04-18T06:52:22.999Z</time></trkpt><trkpt lat="44.79466488534111" lon="9.974987664348912"><ele>208.0</ele><time>2026-04-18T06:52:23.999Z</time></trkpt><trkpt lat="44.7946160708989" lon="9.974926289254048"><ele>208.0</ele><time>2026-04-18T06:52:24.999Z</time></trkpt><trkpt lat="44.79456630295964" lon="9.974863715336179"><ele>208.0</ele><time>2026-04-18T06:52:25.999Z</time></trkpt><trkpt lat="44.794516921374644" lon="9.974801627190468"><ele>208.0</ele><time>2026-04-18T06:52:26.999Z</time></trkpt><trkpt lat="44.79446541238032" lon="9.974736864236604"><ele>208.0</ele><time>2026-04-18T06:52:27.999Z</time></trkpt><trkpt lat="44.794414767381696" lon="9.97467422085695"><ele>208.0</ele><time>2026-04-18T06:52:28.999Z</time></trkpt><trkpt lat="44.794362858987384" lon="9.974610908320448"><ele>208.0</ele><time>2026-04-18T06:52:29.999Z</time></trkpt><trkpt lat="44.794306650038585" lon="9.974546085363551"><ele>206.0</ele><time>2026-04-18T06:52:30.999Z</time></trkpt><trkpt lat="44.79420500524325" lon="9.974446553400526"><ele>204.0</ele><time>2026-04-18T06:52:32.999Z</time></trkpt><trkpt lat="44.794140763206386" lon="9.974424924981712"><ele>202.0</ele><time>2026-04-18T06:52:33.999Z</time></trkpt><trkpt lat="44.794079266742294" lon="9.974403799444337"><ele>200.0</ele><time>2026-04-18T06:52:34.999Z</time></trkpt><trkpt lat="44.79396043593155" lon="9.974356011147325"><ele>198.0</ele><time>2026-04-18T06:52:36.999Z</time></trkpt><trkpt lat="44.79385186417336" lon="9.974309783111849"><ele>198.0</ele><time>2026-04-18T06:52:38.999Z</time></trkpt><trkpt lat="44.793745286243556" lon="9.974271869076402"><ele>198.0</ele><time>2026-04-18T06:52:40.999Z</time></trkpt><trkpt lat="44.793633419211424" lon="9.974241313370358"><ele>198.0</ele><time>2026-04-18T06:52:42.999Z</time></trkpt><trkpt lat="44.79353090879822" lon="9.97419864591262"><ele>198.0</ele><time>2026-04-18T06:52:44.999Z</time></trkpt><trkpt lat="44.79343827850296" lon="9.974134413456992"><ele>198.0</ele><time>2026-04-18T06:52:46.998Z</time></trkpt><trkpt lat="44.79333208239896" lon="9.974104352399031"><ele>200.4</ele><time>2026-04-18T06:52:48.998Z</time></trkpt><trkpt lat="44.793247142666836" lon="9.974036192585846"><ele>202.8</ele><time>2026-04-18T06:52:50.998Z</time></trkpt><trkpt lat="44.79314940094103" lon="9.973994873701976"><ele>205.2</ele><time>2026-04-18T06:52:52.998Z</time></trkpt><trkpt lat="44.793052655123965" lon="9.973952947064884"><ele>207.6</ele><time>2026-04-18T06:52:54.998Z</time></trkpt><trkpt lat="44.792967386381356" lon="9.973895287188228"><ele>210.0</ele><time>2026-04-18T06:52:56.998Z</time></trkpt><trkpt lat="44.792872326613" lon="9.973848896841647"><ele>210.0</ele><time>2026-04-18T06:52:58.998Z</time></trkpt><trkpt lat="44.792782085045545" lon="9.973803253165553"><ele>210.0</ele><time>2026-04-18T06:53:00.998Z</time></trkpt><trkpt lat="44.79269848647054" lon="9.97373401411404"><ele>210.0</ele><time>2026-04-18T06:53:02.998Z</time></trkpt><trkpt lat="44.792601422259" lon="9.973686132383094"><ele>210.0</ele><time>2026-04-18T06:53:04.998Z</time></trkpt><trkpt lat="44.79249961322031" lon="9.973636896356355"><ele>210.0</ele><time>2026-04-18T06:53:06.998Z</time></trkpt><trkpt lat="44.792405205596886" lon="9.9735838747443"><ele>209.6</ele><time>2026-04-18T06:53:08.998Z</time></trkpt><trkpt lat="44.792307734774695" lon="9.97352769419814"><ele>209.2</ele><time>2026-04-18T06:53:10.998Z</time></trkpt><trkpt lat="44.792218343836595" lon="9.973467758078609"><ele>208.8</ele><time>2026-04-18T06:53:12.998Z</time></trkpt><trkpt lat="44.792128659598774" lon="9.973405690366517"><ele>208.4</ele><time>2026-04-18T06:53:14.998Z</time></trkpt><trkpt lat="44.79203227613746" lon="9.973335624291598"><ele>208.0</ele><time>2026-04-18T06:53:16.998Z</time></trkpt><trkpt lat="44.791937064035295" lon="9.973252361130752"><ele>208.0</ele><time>2026-04-18T06:53:19Z</time></trkpt><trkpt lat="44.791835644622225" lon="9.973175829600452"><ele>208.0</ele><time>2026-04-18T06:53:21Z</time></trkpt><trkpt lat="44.79173702373559" lon="9.973089091386152"><ele>208.0</ele><time>2026-04-18T06:53:23Z</time></trkpt><trkpt lat="44.791638936307876" lon="9.973000721230166"><ele>208.0</ele><time>2026-04-18T06:53:25Z</time></trkpt><trkpt lat="44.791528973013286" lon="9.972919146428909"><ele>208.0</ele><time>2026-04-18T06:53:27Z</time></trkpt><trkpt lat="44.79147041310346" lon="9.972878800522677"><ele>208.0</ele><time>2026-04-18T06:53:28Z</time></trkpt><trkpt lat="44.79141033093144" lon="9.972846173743529"><ele>208.0</ele><time>2026-04-18T06:53:29Z</time></trkpt><trkpt lat="44.79134664984763" lon="9.972819105711828"><ele>208.0</ele><time>2026-04-18T06:53:30Z</time></trkpt><trkpt lat="44.791279707208886" lon="9.9727952519529"><ele>208.0</ele><time>2026-04-18T06:53:31Z</time></trkpt><trkpt lat="44.79121353203336" lon="9.972777185339012"><ele>208.0</ele><time>2026-04-18T06:53:32Z</time></trkpt><trkpt lat="44.79114931070724" lon="9.97275079647705"><ele>208.0</ele><time>2026-04-18T06:53:33Z</time></trkpt><trkpt lat="44.79107994128565" lon="9.972728391263272"><ele>208.0</ele><time>2026-04-18T06:53:34Z</time></trkpt><trkpt lat="44.791012723775204" lon="9.97270205437416"><ele>208.0</ele><time>2026-04-18T06:53:35Z</time></trkpt><trkpt lat="44.790945707972284" lon="9.97267839395189"><ele>208.0</ele><time>2026-04-18T06:53:36Z</time></trkpt><trkpt lat="44.790878251090476" lon="9.972657686156417"><ele>208.0</ele><time>2026-04-18T06:53:37Z</time></trkpt><trkpt lat="44.79081005707506" lon="9.972633988402816"><ele>208.0</ele><time>2026-04-18T06:53:38Z</time></trkpt><trkpt lat="44.79074083146979" lon="9.97261091746986"><ele>208.0</ele><time>2026-04-18T06:53:39Z</time></trkpt><trkpt lat="44.79067035394673" lon="9.972586655512305"><ele>208.0</ele><time>2026-04-18T06:53:40Z</time></trkpt><trkpt lat="44.790600440714485" lon="9.972562525016698"><ele>208.0</ele><time>2026-04-18T06:53:41Z</time></trkpt><trkpt lat="44.79053406731989" lon="9.972536698587225"><ele>208.0</ele><time>2026-04-18T06:53:42Z</time></trkpt><trkpt lat="44.79046645125661" lon="9.972514073185017"><ele>208.0</ele><time>2026-04-18T06:53:43Z</time></trkpt><trkpt lat="44.79039974068897" lon="9.972488025494433"><ele>208.0</ele><time>2026-04-18T06:53:44Z</time></trkpt><trkpt lat="44.79033641559849" lon="9.972464475639784"><ele>208.0</ele><time>2026-04-18T06:53:45Z</time></trkpt><trkpt lat="44.7902699610681" lon="9.972440512372483"><ele>208.0</ele><time>2026-04-18T06:53:46Z</time></trkpt><trkpt lat="44.790207101964775" lon="9.972418902873864"><ele>208.0</ele><time>2026-04-18T06:53:47Z</time></trkpt><trkpt lat="44.79014447473718" lon="9.972399289890292"><ele>207.60000000000002</ele><time>2026-04-18T06:53:48Z</time></trkpt><trkpt lat="44.790080937343234" lon="9.97237994981998"><ele>207.20000000000002</ele><time>2026-04-18T06:53:49Z</time></trkpt><trkpt lat="44.78996307931732" lon="9.972339065267688"><ele>206.8</ele><time>2026-04-18T06:53:51Z</time></trkpt><trkpt lat="44.78985034360014" lon="9.972299478886383"><ele>206.4</ele><time>2026-04-18T06:53:53Z</time></trkpt><trkpt lat="44.78974175155231" lon="9.972262917812143"><ele>206.0</ele><time>2026-04-18T06:53:54.999Z</time></trkpt><trkpt lat="44.78963772787212" lon="9.97222206142688"><ele>206.0</ele><time>2026-04-18T06:53:56.999Z</time></trkpt><trkpt lat="44.7895356244662" lon="9.972181745283168"><ele>206.0</ele><time>2026-04-18T06:53:58.999Z</time></trkpt><trkpt lat="44.78943629932387" lon="9.97214808022961"><ele>206.0</ele><time>2026-04-18T06:54:00.999Z</time></trkpt><trkpt lat="44.78933597355833" lon="9.972101079850308"><ele>206.0</ele><time>2026-04-18T06:54:02.999Z</time></trkpt><trkpt lat="44.78923714311698" lon="9.972055686238638"><ele>206.0</ele><time>2026-04-18T06:54:04.999Z</time></trkpt><trkpt lat="44.78914116093584" lon="9.972005365996845"><ele>205.8</ele><time>2026-04-18T06:54:06.999Z</time></trkpt><trkpt lat="44.78904968377443" lon="9.971954484479548"><ele>205.60000000000002</ele><time>2026-04-18T06:54:08.999Z</time></trkpt><trkpt lat="44.78895894580829" lon="9.971910620215143"><ele>205.4</ele><time>2026-04-18T06:54:10.999Z</time></trkpt><trkpt lat="44.78886689744241" lon="9.97185978437323"><ele>205.2</ele><time>2026-04-18T06:54:12.999Z</time></trkpt><trkpt lat="44.788774021954424" lon="9.971806537236663"><ele>205.0</ele><time>2026-04-18T06:54:14.999Z</time></trkpt><trkpt lat="44.788687195277205" lon="9.97175898846351"><ele>205.0</ele><time>2026-04-18T06:54:16.999Z</time></trkpt><trkpt lat="44.7885971218187" lon="9.971707433626227"><ele>205.0</ele><time>2026-04-18T06:54:18.999Z</time></trkpt><trkpt lat="44.788509292636476" lon="9.971656286940878"><ele>205.0</ele><time>2026-04-18T06:54:20.999Z</time></trkpt><trkpt lat="44.788420431955835" lon="9.971610959421568"><ele>205.0</ele><time>2026-04-18T06:54:22.999Z</time></trkpt><trkpt lat="44.78833220196092" lon="9.971556597791578"><ele>205.0</ele><time>2026-04-18T06:54:24.999Z</time></trkpt><trkpt lat="44.788248594044305" lon="9.971506057499287"><ele>207.0</ele><time>2026-04-18T06:54:26.999Z</time></trkpt><trkpt lat="44.78816121033788" lon="9.971446253716666"><ele>209.0</ele><time>2026-04-18T06:54:28.999Z</time></trkpt><trkpt lat="44.78807648536632" lon="9.97138654285295"><ele>211.0</ele><time>2026-04-18T06:54:30.999Z</time></trkpt><trkpt lat="44.78799338136943" lon="9.971317377405555"><ele>213.0</ele><time>2026-04-18T06:54:32.999Z</time></trkpt><trkpt lat="44.78791214749961" lon="9.97123855310617"><ele>215.0</ele><time>2026-04-18T06:54:34.999Z</time></trkpt><trkpt lat="44.78782529592188" lon="9.971171579910846"><ele>215.0</ele><time>2026-04-18T06:54:36.999Z</time></trkpt><trkpt lat="44.78774084374446" lon="9.971100271691284"><ele>215.0</ele><time>2026-04-18T06:54:38.999Z</time></trkpt><trkpt lat="44.78765924007615" lon="9.971026696754667"><ele>215.0</ele><time>2026-04-18T06:54:40.999Z</time></trkpt><trkpt lat="44.78757691238471" lon="9.970951327866947"><ele>215.0</ele><time>2026-04-18T06:54:42.999Z</time></trkpt><trkpt lat="44.787492427928704" lon="9.970881981755584"><ele>215.0</ele><time>2026-04-18T06:54:44.999Z</time></trkpt><trkpt lat="44.78740786787102" lon="9.970810030385087"><ele>216.4</ele><time>2026-04-18T06:54:46.999Z</time></trkpt><trkpt lat="44.78732412332069" lon="9.970736491900873"><ele>217.8</ele><time>2026-04-18T06:54:48.998Z</time></trkpt><trkpt lat="44.78723899260212" lon="9.970662406207474"><ele>219.2</ele><time>2026-04-18T06:54:50.998Z</time></trkpt><trkpt lat="44.78715478722832" lon="9.970587110724507"><ele>220.6</ele><time>2026-04-18T06:54:52.998Z</time></trkpt><trkpt lat="44.78707480858199" lon="9.97051194648495"><ele>222.0</ele><time>2026-04-18T06:54:54.998Z</time></trkpt><trkpt lat="44.78699646108559" lon="9.97043218442889"><ele>222.0</ele><time>2026-04-18T06:54:56.998Z</time></trkpt><trkpt lat="44.78691905786574" lon="9.970348448182989"><ele>222.0</ele><time>2026-04-18T06:54:58.998Z</time></trkpt><trkpt lat="44.7868448565528" lon="9.970259620156119"><ele>222.0</ele><time>2026-04-18T06:55:00.998Z</time></trkpt><trkpt lat="44.786769291863244" lon="9.970173473807744"><ele>222.0</ele><time>2026-04-18T06:55:02.998Z</time></trkpt><trkpt lat="44.78669155802179" lon="9.970092864568423"><ele>222.0</ele><time>2026-04-18T06:55:04.998Z</time></trkpt><trkpt lat="44.78661077021562" lon="9.970015215046589"><ele>222.39999999999998</ele><time>2026-04-18T06:55:06.998Z</time></trkpt><trkpt lat="44.78652825057342" lon="9.969942555177765"><ele>222.79999999999998</ele><time>2026-04-18T06:55:08.998Z</time></trkpt><trkpt lat="44.7864390024333" lon="9.969879706770165"><ele>223.2</ele><time>2026-04-18T06:55:10.998Z</time></trkpt><trkpt lat="44.78635042515691" lon="9.969823296884982"><ele>223.6</ele><time>2026-04-18T06:55:12.998Z</time></trkpt><trkpt lat="44.786254453012944" lon="9.969770543336262"><ele>224.0</ele><time>2026-04-18T06:55:14.998Z</time></trkpt><trkpt lat="44.78616228378074" lon="9.96971159472773"><ele>224.0</ele><time>2026-04-18T06:55:16.998Z</time></trkpt><trkpt lat="44.78606283306114" lon="9.969657049572024"><ele>223.99999999999997</ele><time>2026-04-18T06:55:18.998Z</time></trkpt><trkpt lat="44.785968524991425" lon="9.96959802859212"><ele>223.99999999999997</ele><time>2026-04-18T06:55:20.998Z</time></trkpt><trkpt lat="44.78587027091757" lon="9.969536746968808"><ele>224.0</ele><time>2026-04-18T06:55:22.998Z</time></trkpt><trkpt lat="44.78577639121458" lon="9.969476119206131"><ele>224.0</ele><time>2026-04-18T06:55:25Z</time></trkpt><trkpt lat="44.78567794323784" lon="9.969417149921734"><ele>222.6</ele><time>2026-04-18T06:55:27Z</time></trkpt><trkpt lat="44.78558295846395" lon="9.969356683603877"><ele>221.2</ele><time>2026-04-18T06:55:29Z</time></trkpt><trkpt lat="44.78548722504737" lon="9.969291192039053"><ele>219.79999999999998</ele><time>2026-04-18T06:55:31Z</time></trkpt><trkpt lat="44.78538932150899" lon="9.969215603141757"><ele>218.39999999999998</ele><time>2026-04-18T06:55:33Z</time></trkpt><trkpt lat="44.78528530239742" lon="9.969115103272246"><ele>217.0</ele><time>2026-04-18T06:55:35Z</time></trkpt><trkpt lat="44.78518770128197" lon="9.969007571397045"><ele>218.25</ele><time>2026-04-18T06:55:37Z</time></trkpt><trkpt lat="44.7850886479944" lon="9.968914859797788"><ele>219.5</ele><time>2026-04-18T06:55:39Z</time></trkpt><trkpt lat="44.78499087129499" lon="9.96882255143899"><ele>220.75</ele><time>2026-04-18T06:55:41Z</time></trkpt><trkpt lat="44.78489459457366" lon="9.96872953609608"><ele>222.0</ele><time>2026-04-18T06:55:43Z</time></trkpt><trkpt lat="44.78479625788274" lon="9.968639129836589"><ele>222.0</ele><time>2026-04-18T06:55:45Z</time></trkpt><trkpt lat="44.784698933577246" lon="9.968548516254062"><ele>222.0</ele><time>2026-04-18T06:55:47Z</time></trkpt><trkpt lat="44.78458329614738" lon="9.968489030460692"><ele>222.0</ele><time>2026-04-18T06:55:49Z</time></trkpt><trkpt lat="44.784488390034255" lon="9.968398618632449"><ele>222.0</ele><time>2026-04-18T06:55:51Z</time></trkpt><trkpt lat="44.78439338326019" lon="9.968308110915299"><ele>222.39999999999998</ele><time>2026-04-18T06:55:53Z</time></trkpt><trkpt lat="44.78429716966136" lon="9.968215094632999"><ele>222.79999999999998</ele><time>2026-04-18T06:55:55Z</time></trkpt><trkpt lat="44.78420666343978" lon="9.968125724319608"><ele>223.2</ele><time>2026-04-18T06:55:57Z</time></trkpt><trkpt lat="44.7841241421037" lon="9.968029030262189"><ele>223.6</ele><time>2026-04-18T06:55:59Z</time></trkpt><trkpt lat="44.784054209526815" lon="9.96793167412304"><ele>224.0</ele><time>2026-04-18T06:56:00.999Z</time></trkpt><trkpt lat="44.78398761430095" lon="9.967838067736555"><ele>224.0</ele><time>2026-04-18T06:56:02.999Z</time></trkpt><trkpt lat="44.78392037729501" lon="9.967736803299708"><ele>223.99999999999997</ele><time>2026-04-18T06:56:04.999Z</time></trkpt><trkpt lat="44.78384799271967" lon="9.967630939787043"><ele>223.99999999999997</ele><time>2026-04-18T06:56:06.999Z</time></trkpt><trkpt lat="44.78377390474613" lon="9.967522585061019"><ele>224.0</ele><time>2026-04-18T06:56:08.999Z</time></trkpt><trkpt lat="44.78369863168665" lon="9.967412497115756"><ele>224.0</ele><time>2026-04-18T06:56:10.999Z</time></trkpt><trkpt lat="44.78362586563491" lon="9.96730607568977"><ele>224.39999999999998</ele><time>2026-04-18T06:56:12.999Z</time></trkpt><trkpt lat="44.78355049191618" lon="9.967195840554798"><ele>224.79999999999998</ele><time>2026-04-18T06:56:14.999Z</time></trkpt><trkpt lat="44.78347436988617" lon="9.967085355884576"><ele>225.20000000000002</ele><time>2026-04-18T06:56:16.999Z</time></trkpt><trkpt lat="44.78340021849845" lon="9.966975936165944"><ele>225.60000000000002</ele><time>2026-04-18T06:56:18.999Z</time></trkpt><trkpt lat="44.78332703601477" lon="9.96686326518849"><ele>226.0</ele><time>2026-04-18T06:56:20.999Z</time></trkpt><trkpt lat="44.78332932962887" lon="9.966766390454445"><ele>226.4</ele><time>2026-04-18T06:56:21.999Z</time></trkpt><trkpt lat="44.78329927400163" lon="9.966623764616761"><ele>226.8</ele><time>2026-04-18T06:56:23.999Z</time></trkpt><trkpt lat="44.78330099970258" lon="9.966477829610199"><ele>227.20000000000002</ele><time>2026-04-18T06:56:25.999Z</time></trkpt><trkpt lat="44.78332089035979" lon="9.966340178890066"><ele>227.60000000000002</ele><time>2026-04-18T06:56:27.999Z</time></trkpt><trkpt lat="44.78333606747335" lon="9.966202724449913"><ele>228.0</ele><time>2026-04-18T06:56:29.999Z</time></trkpt><trkpt lat="44.78334988836616" lon="9.966064229222102"><ele>228.0</ele><time>2026-04-18T06:56:31.999Z</time></trkpt><trkpt lat="44.7833656672942" lon="9.965922355551823"><ele>228.0</ele><time>2026-04-18T06:56:33.999Z</time></trkpt><trkpt lat="44.78337768815919" lon="9.9657782209168"><ele>228.0</ele><time>2026-04-18T06:56:35.999Z</time></trkpt><trkpt lat="44.78338489040754" lon="9.96563882509619"><ele>228.0</ele><time>2026-04-18T06:56:37.999Z</time></trkpt><trkpt lat="44.78337166693935" lon="9.965500416816035"><ele>228.0</ele><time>2026-04-18T06:56:39.999Z</time></trkpt><trkpt lat="44.78334902299862" lon="9.965369146669952"><ele>229.0</ele><time>2026-04-18T06:56:41.999Z</time></trkpt><trkpt lat="44.78333306264412" lon="9.965235084189109"><ele>230.0</ele><time>2026-04-18T06:56:43.999Z</time></trkpt><trkpt lat="44.78330932679129" lon="9.965103204169994"><ele>231.0</ele><time>2026-04-18T06:56:45.999Z</time></trkpt><trkpt lat="44.78328143639259" lon="9.96497267470338"><ele>232.0</ele><time>2026-04-18T06:56:47.999Z</time></trkpt><trkpt lat="44.783240393209226" lon="9.96484362594363"><ele>233.0</ele><time>2026-04-18T06:56:49.999Z</time></trkpt><trkpt lat="44.78319107108968" lon="9.964715537868068"><ele>233.2</ele><time>2026-04-18T06:56:51.999Z</time></trkpt><trkpt lat="44.78312154842014" lon="9.964605332683913"><ele>233.4</ele><time>2026-04-18T06:56:53.998Z</time></trkpt><trkpt lat="44.783039239853764" lon="9.964500141802766"><ele>233.59999999999997</ele><time>2026-04-18T06:56:55.998Z</time></trkpt><trkpt lat="44.78294045759071" lon="9.964411012183287"><ele>233.79999999999998</ele><time>2026-04-18T06:56:57.998Z</time></trkpt><trkpt lat="44.78286184716747" lon="9.964296102204305"><ele>234.0</ele><time>2026-04-18T06:56:59.998Z</time></trkpt><trkpt lat="44.78278414937002" lon="9.96418166137761"><ele>234.5</ele><time>2026-04-18T06:57:01.998Z</time></trkpt><trkpt lat="44.782705266954984" lon="9.964065475734293"><ele>235.0</ele><time>2026-04-18T06:57:03.998Z</time></trkpt><trkpt lat="44.782625805572984" lon="9.963948437323449"><ele>235.5</ele><time>2026-04-18T06:57:05.998Z</time></trkpt><trkpt lat="44.782548422757216" lon="9.963834460444321"><ele>236.0</ele><time>2026-04-18T06:57:07.998Z</time></trkpt><trkpt lat="44.78246886490985" lon="9.963717279286206"><ele>236.25</ele><time>2026-04-18T06:57:09.998Z</time></trkpt><trkpt lat="44.78238988455091" lon="9.96360386851185"><ele>236.5</ele><time>2026-04-18T06:57:11.998Z</time></trkpt><trkpt lat="44.78230994366269" lon="9.963487601768927"><ele>236.75</ele><time>2026-04-18T06:57:13.998Z</time></trkpt><trkpt lat="44.78223072843831" lon="9.963370661147168"><ele>237.0</ele><time>2026-04-18T06:57:15.998Z</time></trkpt><trkpt lat="44.78214828466492" lon="9.963247135173194"><ele>237.0</ele><time>2026-04-18T06:57:17.998Z</time></trkpt><trkpt lat="44.78206954558259" lon="9.96312141723113"><ele>237.0</ele><time>2026-04-18T06:57:19.998Z</time></trkpt><trkpt lat="44.78202914380563" lon="9.963050360271676"><ele>237.0</ele><time>2026-04-18T06:57:20.998Z</time></trkpt><trkpt lat="44.78199213872947" lon="9.962976348645256"><ele>237.0</ele><time>2026-04-18T06:57:21.998Z</time></trkpt><trkpt lat="44.78196305037822" lon="9.962890542704875"><ele>237.0</ele><time>2026-04-18T06:57:22.998Z</time></trkpt><trkpt lat="44.781951739813" lon="9.962790807825266"><ele>237.0</ele><time>2026-04-18T06:57:23.998Z</time></trkpt><trkpt lat="44.78198796205287" lon="9.962605541361077"><ele>238.25</ele><time>2026-04-18T06:57:25.998Z</time></trkpt><trkpt lat="44.782002713339004" lon="9.96243919240237"><ele>239.5</ele><time>2026-04-18T06:57:27.998Z</time></trkpt><trkpt lat="44.782028352963614" lon="9.962277725017024"><ele>240.75</ele><time>2026-04-18T06:57:30Z</time></trkpt><trkpt lat="44.782046977129276" lon="9.96211314764768"><ele>242.0</ele><time>2026-04-18T06:57:32Z</time></trkpt><trkpt lat="44.78202774796884" lon="9.96195805248975"><ele>242.0</ele><time>2026-04-18T06:57:34Z</time></trkpt><trkpt lat="44.78197573139502" lon="9.961819264949737"><ele>242.0</ele><time>2026-04-18T06:57:36Z</time></trkpt><trkpt lat="44.78190425938308" lon="9.961689082526787"><ele>242.0</ele><time>2026-04-18T06:57:38Z</time></trkpt><trkpt lat="44.78182306013358" lon="9.961564173718877"><ele>242.0</ele><time>2026-04-18T06:57:40Z</time></trkpt><trkpt lat="44.78173964209598" lon="9.96144345813955"><ele>240.0</ele><time>2026-04-18T06:57:42Z</time></trkpt><trkpt lat="44.78166336766634" lon="9.961310460751971"><ele>238.0</ele><time>2026-04-18T06:57:44Z</time></trkpt><trkpt lat="44.78156267195029" lon="9.961218201699028"><ele>236.0</ele><time>2026-04-18T06:57:46Z</time></trkpt><trkpt lat="44.781449314605936" lon="9.961160704060505"><ele>234.0</ele><time>2026-04-18T06:57:48Z</time></trkpt><trkpt lat="44.78133372098227" lon="9.961131666902059"><ele>234.0</ele><time>2026-04-18T06:57:50Z</time></trkpt><trkpt lat="44.78122008579001" lon="9.961106607302321"><ele>233.99999999999997</ele><time>2026-04-18T06:57:52Z</time></trkpt><trkpt lat="44.781111544084204" lon="9.961066753739159"><ele>233.99999999999997</ele><time>2026-04-18T06:57:54Z</time></trkpt><trkpt lat="44.78101772006925" lon="9.960996146926616"><ele>234.0</ele><time>2026-04-18T06:57:56Z</time></trkpt><trkpt lat="44.78094597546182" lon="9.960889377122378"><ele>234.0</ele><time>2026-04-18T06:57:58Z</time></trkpt><trkpt lat="44.780871371404814" lon="9.960795760409292"><ele>234.6</ele><time>2026-04-18T06:58:00Z</time></trkpt><trkpt lat="44.780801867457264" lon="9.960699258946232"><ele>235.2</ele><time>2026-04-18T06:58:02Z</time></trkpt><trkpt lat="44.780732109625944" lon="9.960596352592104"><ele>235.79999999999998</ele><time>2026-04-18T06:58:04Z</time></trkpt><trkpt lat="44.78066421259129" lon="9.960486445899635"><ele>236.39999999999998</ele><time>2026-04-18T06:58:05.999Z</time></trkpt><trkpt lat="44.78061358419659" lon="9.960377647721227"><ele>237.0</ele><time>2026-04-18T06:58:07.999Z</time></trkpt><trkpt lat="44.78060650317595" lon="9.960241412690394"><ele>237.0</ele><time>2026-04-18T06:58:09.999Z</time></trkpt><trkpt lat="44.7806142882326" lon="9.960126023504614"><ele>237.0</ele><time>2026-04-18T06:58:11.999Z</time></trkpt><trkpt lat="44.78062614846025" lon="9.960014401808003"><ele>237.0</ele><time>2026-04-18T06:58:13.999Z</time></trkpt><trkpt lat="44.78064303722319" lon="9.959893957865395"><ele>237.0</ele><time>2026-04-18T06:58:15.999Z</time></trkpt><trkpt lat="44.78065308974228" lon="9.959779296159414"><ele>237.0</ele><time>2026-04-18T06:58:17.999Z</time></trkpt><trkpt lat="44.780645658880246" lon="9.959651900158292"><ele>237.0</ele><time>2026-04-18T06:58:19.999Z</time></trkpt><trkpt lat="44.78062843007239" lon="9.959556518145455"><ele>238.0</ele><time>2026-04-18T06:58:21.999Z</time></trkpt><trkpt lat="44.780602672318416" lon="9.959445112261655"><ele>239.0</ele><time>2026-04-18T06:58:23.999Z</time></trkpt><trkpt lat="44.78055838933771" lon="9.959313392940512"><ele>240.0</ele><time>2026-04-18T06:58:25.999Z</time></trkpt><trkpt lat="44.78051330697796" lon="9.959190914792927"><ele>241.0</ele><time>2026-04-18T06:58:27.999Z</time></trkpt><trkpt lat="44.78047465902053" lon="9.959067080477176"><ele>242.0</ele><time>2026-04-18T06:58:29.999Z</time></trkpt><trkpt lat="44.780434253904446" lon="9.958940549553994"><ele>242.6</ele><time>2026-04-18T06:58:31.999Z</time></trkpt><trkpt lat="44.780395026983356" lon="9.958814014163963"><ele>243.2</ele><time>2026-04-18T06:58:33.999Z</time></trkpt><trkpt lat="44.78034594625529" lon="9.958675854203296"><ele>243.8</ele><time>2026-04-18T06:58:35.999Z</time></trkpt><trkpt lat="44.780297703332245" lon="9.958538901400523"><ele>244.4</ele><time>2026-04-18T06:58:37.999Z</time></trkpt><trkpt lat="44.780253973698194" lon="9.958414911460213"><ele>245.0</ele><time>2026-04-18T06:58:39.999Z</time></trkpt><trkpt lat="44.78020963546206" lon="9.958290613760528"><ele>244.8</ele><time>2026-04-18T06:58:41.999Z</time></trkpt><trkpt lat="44.78016745760004" lon="9.958173266441376"><ele>244.6</ele><time>2026-04-18T06:58:43.999Z</time></trkpt><trkpt lat="44.78015275065362" lon="9.958046746260175"><ele>244.39999999999998</ele><time>2026-04-18T06:58:45.999Z</time></trkpt><trkpt lat="44.780142912701415" lon="9.957911320275633"><ele>244.2</ele><time>2026-04-18T06:58:47.999Z</time></trkpt><trkpt lat="44.78016449108566" lon="9.957785386924174"><ele>244.0</ele><time>2026-04-18T06:58:49.999Z</time></trkpt><trkpt lat="44.78018463676348" lon="9.957660375890605"><ele>244.99999999999997</ele><time>2026-04-18T06:58:51.999Z</time></trkpt><trkpt lat="44.780212935451665" lon="9.957536988086323"><ele>246.0</ele><time>2026-04-18T06:58:53.999Z</time></trkpt><trkpt lat="44.78024111726654" lon="9.957417722132133"><ele>247.0</ele><time>2026-04-18T06:58:55.999Z</time></trkpt><trkpt lat="44.78026801040326" lon="9.957296999021187"><ele>248.0</ele><time>2026-04-18T06:58:57.998Z</time></trkpt><trkpt lat="44.7802914683584" lon="9.957179047221196"><ele>248.99999999999997</ele><time>2026-04-18T06:58:59.998Z</time></trkpt><trkpt lat="44.78031903260743" lon="9.957060889465584"><ele>250.0</ele><time>2026-04-18T06:59:01.998Z</time></trkpt><trkpt lat="44.780340421679114" lon="9.956942787294034"><ele>250.33333333333331</ele><time>2026-04-18T06:59:03.998Z</time></trkpt><trkpt lat="44.78034841639909" lon="9.956820747968784"><ele>250.66666666666666</ele><time>2026-04-18T06:59:05.998Z</time></trkpt><trkpt lat="44.78032761038361" lon="9.956710513902937"><ele>251.0</ele><time>2026-04-18T06:59:07.998Z</time></trkpt><trkpt lat="44.78029699566111" lon="9.956598776956712"><ele>251.33333333333331</ele><time>2026-04-18T06:59:09.998Z</time></trkpt><trkpt lat="44.780261448187716" lon="9.956494649285055"><ele>251.66666666666666</ele><time>2026-04-18T06:59:11.998Z</time></trkpt><trkpt lat="44.780212453434736" lon="9.956391906598338"><ele>252.0</ele><time>2026-04-18T06:59:13.998Z</time></trkpt><trkpt lat="44.78017627961594" lon="9.956286036695182"><ele>252.33333333333334</ele><time>2026-04-18T06:59:15.998Z</time></trkpt><trkpt lat="44.78013795023473" lon="9.95617538137963"><ele>252.66666666666669</ele><time>2026-04-18T06:59:17.998Z</time></trkpt><trkpt lat="44.78009951157665" lon="9.956063748605951"><ele>253.0</ele><time>2026-04-18T06:59:19.998Z</time></trkpt><trkpt lat="44.78005481385827" lon="9.95595932353889"><ele>253.33333333333334</ele><time>2026-04-18T06:59:21.998Z</time></trkpt><trkpt lat="44.78000840820973" lon="9.955848691169349"><ele>253.66666666666669</ele><time>2026-04-18T06:59:23.998Z</time></trkpt><trkpt lat="44.77996405479926" lon="9.955747181204961"><ele>254.0</ele><time>2026-04-18T06:59:25.998Z</time></trkpt><trkpt lat="44.77992362153665" lon="9.955638443666485"><ele>254.00000000000003</ele><time>2026-04-18T06:59:27.998Z</time></trkpt><trkpt lat="44.779884170006106" lon="9.955529005064351"><ele>254.0</ele><time>2026-04-18T06:59:29.998Z</time></trkpt><trkpt lat="44.77984191184468" lon="9.95542350179343"><ele>254.0</ele><time>2026-04-18T06:59:31.998Z</time></trkpt><trkpt lat="44.779802969330206" lon="9.955314428804384"><ele>254.0</ele><time>2026-04-18T06:59:33.998Z</time></trkpt><trkpt lat="44.77976208139177" lon="9.955207919108899"><ele>254.00000000000003</ele><time>2026-04-18T06:59:36Z</time></trkpt><trkpt lat="44.77972988945978" lon="9.955094373787595"><ele>254.0</ele><time>2026-04-18T06:59:38Z</time></trkpt><trkpt lat="44.77970763131333" lon="9.95497967275592"><ele>255.66666666666669</ele><time>2026-04-18T06:59:40Z</time></trkpt><trkpt lat="44.77969119758842" lon="9.954858246002987"><ele>257.33333333333337</ele><time>2026-04-18T06:59:42Z</time></trkpt><trkpt lat="44.779686779118215" lon="9.954743867696637"><ele>259.0</ele><time>2026-04-18T06:59:44Z</time></trkpt><trkpt lat="44.779690901738" lon="9.95462152289337"><ele>260.6666666666667</ele><time>2026-04-18T06:59:46Z</time></trkpt><trkpt lat="44.77970064342333" lon="9.954503612704865"><ele>262.3333333333333</ele><time>2026-04-18T06:59:48Z</time></trkpt><trkpt lat="44.77970494336153" lon="9.954376814458795"><ele>264.0</ele><time>2026-04-18T06:59:50Z</time></trkpt><trkpt lat="44.77970881702174" lon="9.954271103388725"><ele>264.5</ele><time>2026-04-18T06:59:52Z</time></trkpt><trkpt lat="44.779716679058154" lon="9.954155923715936"><ele>265.0</ele><time>2026-04-18T06:59:54Z</time></trkpt><trkpt lat="44.78000840820973" lon="9.955848691169349"><ele>263.16666666666663</ele><time>2026-04-18T06:59:23.998Z</time></trkpt><trkpt lat="44.77996405479926" lon="9.955747181204961"><ele>261.3333333333333</ele><time>2026-04-18T06:59:25.998Z</time></trkpt><trkpt lat="44.77992362153665" lon="9.955638443666485"><ele>259.5</ele><time>2026-04-18T06:59:27.998Z</time></trkpt><trkpt lat="44.779884170006106" lon="9.955529005064351"><ele>257.6666666666667</ele><time>2026-04-18T06:59:29.998Z</time></trkpt><trkpt lat="44.77984191184468" lon="9.95542350179343"><ele>255.83333333333334</ele><time>2026-04-18T06:59:31.998Z</time></trkpt><trkpt lat="44.779802969330206" lon="9.955314428804384"><ele>254.0</ele><time>2026-04-18T06:59:33.998Z</time></trkpt><trkpt lat="44.77976208139177" lon="9.955207919108899"><ele>254.00000000000003</ele><time>2026-04-18T06:59:36Z</time></trkpt><trkpt lat="44.77972988945978" lon="9.955094373787595"><ele>254.0</ele><time>2026-04-18T06:59:38Z</time></trkpt><trkpt lat="44.77970763131333" lon="9.95497967275592"><ele>254.0</ele><time>2026-04-18T06:59:40Z</time></trkpt><trkpt lat="44.77969119758842" lon="9.954858246002987"><ele>254.0</ele><time>2026-04-18T06:59:42Z</time></trkpt><trkpt lat="44.779686779118215" lon="9.954743867696637"><ele>254.00000000000003</ele><time>2026-04-18T06:59:44Z</time></trkpt><trkpt lat="44.779690901738" lon="9.95462152289337"><ele>254.0</ele><time>2026-04-18T06:59:46Z</time></trkpt><trkpt lat="44.77970064342333" lon="9.954503612704865"><ele>255.66666666666669</ele><time>2026-04-18T06:59:48Z</time></trkpt><trkpt lat="44.77970494336153" lon="9.954376814458795"><ele>257.33333333333337</ele><time>2026-04-18T06:59:50Z</time></trkpt><trkpt lat="44.77970881702174" lon="9.954271103388725"><ele>259.0</ele><time>2026-04-18T06:59:52Z</time></trkpt><trkpt lat="44.779716679058154" lon="9.954155923715936"><ele>260.6666666666667</ele><time>2026-04-18T06:59:54Z</time></trkpt><trkpt lat="44.77972010929838" lon="9.954043418118111"><ele>262.3333333333333</ele><time>2026-04-18T06:59:56Z</time></trkpt><trkpt lat="44.77972515401156" lon="9.953932401027972"><ele>264.0</ele><time>2026-04-18T06:59:58Z</time></trkpt><trkpt lat="44.77973555794957" lon="9.953820934835706"><ele>264.1666666666667</ele><time>2026-04-18T07:00:00Z</time></trkpt><trkpt lat="44.77973674078068" lon="9.953706320058961"><ele>264.3333333333333</ele><time>2026-04-18T07:00:02Z</time></trkpt><trkpt lat="44.77972907977333" lon="9.953593445748607"><ele>264.5</ele><time>2026-04-18T07:00:04Z</time></trkpt><trkpt lat="44.77971582675617" lon="9.95348107182474"><ele>264.66666666666663</ele><time>2026-04-18T07:00:06Z</time></trkpt><trkpt lat="44.77970405467777" lon="9.95337347525435"><ele>264.8333333333333</ele><time>2026-04-18T07:00:08Z</time></trkpt><trkpt lat="44.77968475835716" lon="9.95326416960311"><ele>265.0</ele><time>2026-04-18T07:00:09.999Z</time></trkpt><trkpt lat="44.779649030854856" lon="9.95318121062536"><ele>264.5</ele><time>2026-04-18T07:00:11.999Z</time></trkpt><trkpt lat="44.77964084962188" lon="9.953064568743232"><ele>264.0</ele><time>2026-04-18T07:00:13.999Z</time></trkpt><trkpt lat="44.779624560013374" lon="9.9529604823616"><ele>263.5</ele><time>2026-04-18T07:00:15.999Z</time></trkpt><trkpt lat="44.779583767525" lon="9.952864007137885"><ele>263.0</ele><time>2026-04-18T07:00:17.999Z</time></trkpt><trkpt lat="44.77954864151815" lon="9.952770175970455"><ele>262.5</ele><time>2026-04-18T07:00:19.999Z</time></trkpt><trkpt lat="44.779511786552035" lon="9.95267852729924"><ele>262.0</ele><time>2026-04-18T07:00:21.999Z</time></trkpt><trkpt lat="44.7794693338165" lon="9.952592767224042"><ele>262.2</ele><time>2026-04-18T07:00:23.999Z</time></trkpt><trkpt lat="44.77942767403702" lon="9.95250446940933"><ele>262.4</ele><time>2026-04-18T07:00:25.999Z</time></trkpt><trkpt lat="44.77937174675894" lon="9.952391894350527"><ele>262.6</ele><time>2026-04-18T07:00:28.999Z</time></trkpt><trkpt lat="44.77931619873427" lon="9.952277934835752"><ele>262.8</ele><time>2026-04-18T07:00:31.999Z</time></trkpt><trkpt lat="44.77927594005652" lon="9.952164433738213"><ele>263.0</ele><time>2026-04-18T07:00:34.999Z</time></trkpt><trkpt lat="44.7792464820797" lon="9.951972358764085"><ele>263.0</ele><time>2026-04-18T07:00:36.999Z</time></trkpt><trkpt lat="44.779231209304655" lon="9.95187505364291"><ele>263.0</ele><time>2026-04-18T07:00:38.999Z</time></trkpt><trkpt lat="44.77923525593047" lon="9.95177995875649"><ele>263.0</ele><time>2026-04-18T07:00:40.999Z</time></trkpt><trkpt lat="44.77924772863943" lon="9.951685409561163"><ele>263.0</ele><time>2026-04-18T07:00:42.999Z</time></trkpt><trkpt lat="44.779268609019766" lon="9.951584824813256"><ele>263.0</ele><time>2026-04-18T07:00:44.999Z</time></trkpt><trkpt lat="44.779288085403365" lon="9.951481779350088"><ele>263.0</ele><time>2026-04-18T07:00:46.999Z</time></trkpt><trkpt lat="44.7793060941757" lon="9.951380337274175"><ele>263.0</ele><time>2026-04-18T07:00:48.999Z</time></trkpt><trkpt lat="44.77932310444936" lon="9.95127838781412"><ele>264.2</ele><time>2026-04-18T07:00:50.999Z</time></trkpt><trkpt lat="44.779335723683225" lon="9.951175450325838"><ele>265.4</ele><time>2026-04-18T07:00:52.999Z</time></trkpt><trkpt lat="44.77935168673236" lon="9.951071663664438"><ele>266.59999999999997</ele><time>2026-04-18T07:00:54.999Z</time></trkpt><trkpt lat="44.779387630587536" lon="9.950867526534617"><ele>267.8</ele><time>2026-04-18T07:00:58.999Z</time></trkpt><trkpt lat="44.77940852232097" lon="9.950761212447103"><ele>269.0</ele><time>2026-04-18T07:01:00.999Z</time></trkpt><trkpt lat="44.77942728818247" lon="9.950655628077138"><ele>271.83333333333337</ele><time>2026-04-18T07:01:02.998Z</time></trkpt><trkpt lat="44.77945269918958" lon="9.950546242205041"><ele>274.6666666666667</ele><time>2026-04-18T07:01:04.998Z</time></trkpt><trkpt lat="44.77947541322047" lon="9.950445403216358"><ele>277.5</ele><time>2026-04-18T07:01:06.998Z</time></trkpt><trkpt lat="44.77948778168164" lon="9.950342145920137"><ele>280.3333333333333</ele><time>2026-04-18T07:01:08.998Z</time></trkpt><trkpt lat="44.77951802704901" lon="9.950237011815977"><ele>283.16666666666663</ele><time>2026-04-18T07:01:10.998Z</time></trkpt><trkpt lat="44.779533336444" lon="9.950108076787306"><ele>286.0</ele><time>2026-04-18T07:01:12.998Z</time></trkpt><trkpt lat="44.77952570811457" lon="9.949987842986324"><ele>286.16666666666663</ele><time>2026-04-18T07:01:14.998Z</time></trkpt><trkpt lat="44.77951310312156" lon="9.949866099367346"><ele>286.3333333333333</ele><time>2026-04-18T07:01:16.998Z</time></trkpt><trkpt lat="44.779502188831906" lon="9.949773250741718"><ele>286.5</ele><time>2026-04-18T07:01:18.998Z</time></trkpt><trkpt lat="44.7794415857222" lon="9.949636464775102"><ele>286.6666666666667</ele><time>2026-04-18T07:01:20.998Z</time></trkpt><trkpt lat="44.77939048509972" lon="9.949535836516418"><ele>286.83333333333337</ele><time>2026-04-18T07:01:22.998Z</time></trkpt><trkpt lat="44.779326529406475" lon="9.949509367023522"><ele>287.0</ele><time>2026-04-18T07:01:24.998Z</time></trkpt><trkpt lat="44.77927620051515" lon="9.949455387534533"><ele>286.6666666666667</ele><time>2026-04-18T07:01:26.998Z</time></trkpt><trkpt lat="44.77922782812208" lon="9.949348799309524"><ele>286.33333333333337</ele><time>2026-04-18T07:01:28.998Z</time></trkpt><trkpt lat="44.779169866990095" lon="9.949281478427535"><ele>286.0</ele><time>2026-04-18T07:01:30.998Z</time></trkpt><trkpt lat="44.779116555894056" lon="9.949198669714761"><ele>285.6666666666667</ele><time>2026-04-18T07:01:32.998Z</time></trkpt><trkpt lat="44.779069417001544" lon="9.94909635911671"><ele>285.3333333333333</ele><time>2026-04-18T07:01:35.998Z</time></trkpt><trkpt lat="44.779039259479426" lon="9.94901181962183"><ele>285.0</ele><time>2026-04-18T07:01:37.998Z</time></trkpt><trkpt lat="44.77899425309647" lon="9.948934471509114"><ele>285.0</ele><time>2026-04-18T07:01:39.998Z</time></trkpt><trkpt lat="44.77898066192529" lon="9.948828570995927"><ele>285.0</ele><time>2026-04-18T07:01:42Z</time></trkpt><trkpt lat="44.77898785979542" lon="9.948725286235481"><ele>285.0</ele><time>2026-04-18T07:01:44Z</time></trkpt><trkpt lat="44.77901504428984" lon="9.948558275909102"><ele>285.0</ele><time>2026-04-18T07:01:47Z</time></trkpt><trkpt lat="44.77903517788931" lon="9.94847072748919"><ele>285.0</ele><time>2026-04-18T07:01:49Z</time></trkpt><trkpt lat="44.77905568207525" lon="9.948354275616964"><ele>285.0</ele><time>2026-04-18T07:01:52Z</time></trkpt><trkpt lat="44.7790879318962" lon="9.948276184265408"><ele>287.0</ele><time>2026-04-18T07:01:53Z</time></trkpt><trkpt lat="44.779098160085155" lon="9.948159192140707"><ele>289.0</ele><time>2026-04-18T07:01:55Z</time></trkpt><trkpt lat="44.77910182803455" lon="9.94803475247761"><ele>291.0</ele><time>2026-04-18T07:01:57Z</time></trkpt><trkpt lat="44.77909727074984" lon="9.94792497722517"><ele>293.0</ele><time>2026-04-18T07:01:59Z</time></trkpt><trkpt lat="44.779073030154294" lon="9.947792423837933"><ele>295.0</ele><time>2026-04-18T07:02:02Z</time></trkpt><trkpt lat="44.77909352032295" lon="9.947609667421633"><ele>295.0</ele><time>2026-04-18T07:02:03Z</time></trkpt><trkpt lat="44.779036000421044" lon="9.94765597662083"><ele>295.0</ele><time>2026-04-18T07:02:05Z</time></trkpt><trkpt lat="44.77901277710412" lon="9.947569735096756"><ele>295.0</ele><time>2026-04-18T07:02:07Z</time></trkpt><trkpt lat="44.77898181335608" lon="9.94744905002009"><ele>295.0</ele><time>2026-04-18T07:02:10Z</time></trkpt><trkpt lat="44.7790105193627" lon="9.947125698471105"><ele>294.7142857142857</ele><time>2026-04-18T07:02:12Z</time></trkpt><trkpt lat="44.77899534915099" lon="9.947032159618155"><ele>294.42857142857144</ele><time>2026-04-18T07:02:13.999Z</time></trkpt><trkpt lat="44.77897972481697" lon="9.946939783432782"><ele>294.1428571428571</ele><time>2026-04-18T07:02:15.999Z</time></trkpt><trkpt lat="44.778963030173706" lon="9.946845024085118"><ele>293.8571428571429</ele><time>2026-04-18T07:02:17.999Z</time></trkpt><trkpt lat="44.778949168229204" lon="9.946754290638946"><ele>293.57142857142856</ele><time>2026-04-18T07:02:19.999Z</time></trkpt><trkpt lat="44.77893914160889" lon="9.946660302352916"><ele>293.2857142857143</ele><time>2026-04-18T07:02:21.999Z</time></trkpt><trkpt lat="44.778924845291534" lon="9.946569721807192"><ele>293.0</ele><time>2026-04-18T07:02:23.999Z</time></trkpt><trkpt lat="44.778909153663264" lon="9.946480388366231"><ele>293.0</ele><time>2026-04-18T07:02:25.999Z</time></trkpt><trkpt lat="44.77889179935369" lon="9.94638968979476"><ele>293.0</ele><time>2026-04-18T07:02:27.999Z</time></trkpt><trkpt lat="44.778875674613644" lon="9.946302891201372"><ele>293.0</ele><time>2026-04-18T07:02:29.999Z</time></trkpt><trkpt lat="44.77881490555255" lon="9.94626470356041"><ele>293.0</ele><time>2026-04-18T07:02:30.999Z</time></trkpt><trkpt lat="44.77880374785569" lon="9.946165052482659"><ele>293.0</ele><time>2026-04-18T07:02:33.999Z</time></trkpt><trkpt lat="44.77876517857303" lon="9.946072212291536"><ele>293.0</ele><time>2026-04-18T07:02:36.999Z</time></trkpt><trkpt lat="44.77875751344744" lon="9.94589577669575"><ele>292.85714285714283</ele><time>2026-04-18T07:02:38.999Z</time></trkpt><trkpt lat="44.77871494641809" lon="9.945816899363097"><ele>292.7142857142857</ele><time>2026-04-18T07:02:40.999Z</time></trkpt><trkpt lat="44.7786633180476" lon="9.945749910418591"><ele>292.57142857142856</ele><time>2026-04-18T07:02:42.999Z</time></trkpt><trkpt lat="44.778608375386725" lon="9.945691594599444"><ele>292.42857142857144</ele><time>2026-04-18T07:02:44.999Z</time></trkpt><trkpt lat="44.778551745159646" lon="9.945636318513976"><ele>292.2857142857143</ele><time>2026-04-18T07:02:46.999Z</time></trkpt><trkpt lat="44.77849304308735" lon="9.945584387839645"><ele>292.1428571428571</ele><time>2026-04-18T07:02:48.999Z</time></trkpt><trkpt lat="44.7784332274578" lon="9.945534561529312"><ele>292.0</ele><time>2026-04-18T07:02:50.999Z</time></trkpt><trkpt lat="44.77835351028371" lon="9.945483438560679"><ele>292.0</ele><time>2026-04-18T07:02:52.999Z</time></trkpt><trkpt lat="44.77828034833762" lon="9.945430161036443"><ele>292.0</ele><time>2026-04-18T07:02:54.999Z</time></trkpt><trkpt lat="44.778212077377965" lon="9.945382070658216"><ele>292.0</ele><time>2026-04-18T07:02:56.999Z</time></trkpt><trkpt lat="44.77812172688772" lon="9.945363745580833"><ele>292.0</ele><time>2026-04-18T07:03:00.999Z</time></trkpt><trkpt lat="44.778067404943364" lon="9.945315680370557"><ele>292.0</ele><time>2026-04-18T07:03:02.999Z</time></trkpt><trkpt lat="44.777982353806685" lon="9.945228297514364"><ele>292.0</ele><time>2026-04-18T07:03:05.998Z</time></trkpt><trkpt lat="44.7779163402892" lon="9.945153773225266"><ele>292.0</ele><time>2026-04-18T07:03:07.998Z</time></trkpt><trkpt lat="44.777860823076765" lon="9.945073982763132"><ele>292.0</ele><time>2026-04-18T07:03:10.998Z</time></trkpt><trkpt lat="44.77781448529673" lon="9.94500447495072"><ele>292.0</ele><time>2026-04-18T07:03:13.998Z</time></trkpt><trkpt lat="44.77772560425243" lon="9.944844137383836"><ele>292.0</ele><time>2026-04-18T07:03:14.998Z</time></trkpt><trkpt lat="44.777684063133464" lon="9.944770871898005"><ele>292.0</ele><time>2026-04-18T07:03:16.998Z</time></trkpt><trkpt lat="44.777642291009506" lon="9.944697535343673"><ele>292.0</ele><time>2026-04-18T07:03:18.998Z</time></trkpt><trkpt lat="44.77760989915474" lon="9.9446088588925"><ele>293.4</ele><time>2026-04-18T07:03:20.998Z</time></trkpt><trkpt lat="44.777575248191056" lon="9.944527930511605"><ele>294.79999999999995</ele><time>2026-04-18T07:03:22.998Z</time></trkpt><trkpt lat="44.777539050068874" lon="9.944446370450875"><ele>296.2</ele><time>2026-04-18T07:03:24.998Z</time></trkpt><trkpt lat="44.77750094615447" lon="9.944367141450309"><ele>297.59999999999997</ele><time>2026-04-18T07:03:26.998Z</time></trkpt><trkpt lat="44.777464834311125" lon="9.944271328388597"><ele>299.0</ele><time>2026-04-18T07:03:31.998Z</time></trkpt><trkpt lat="44.777361305305114" lon="9.944075413432316"><ele>300.6666666666667</ele><time>2026-04-18T07:03:34.998Z</time></trkpt><trkpt lat="44.777309873980215" lon="9.944018187952304"><ele>302.33333333333337</ele><time>2026-04-18T07:03:36.998Z</time></trkpt><trkpt lat="44.77725174632624" lon="9.943967283358592"><ele>304.0</ele><time>2026-04-18T07:03:38.998Z</time></trkpt><trkpt lat="44.777175463383756" lon="9.944002490198752"><ele>305.6666666666667</ele><time>2026-04-18T07:03:41.998Z</time></trkpt><trkpt lat="44.77708985547859" lon="9.943973585480132"><ele>307.3333333333333</ele><time>2026-04-18T07:03:44.998Z</time></trkpt><trkpt lat="44.776994786415685" lon="9.943943622495285"><ele>309.0</ele><time>2026-04-18T07:03:48Z</time></trkpt><trkpt lat="44.776903208595975" lon="9.943920669695398"><ele>309.0</ele><time>2026-04-18T07:03:50Z</time></trkpt><trkpt lat="44.776826935850345" lon="9.943903003116286"><ele>309.0</ele><time>2026-04-18T07:03:53Z</time></trkpt><trkpt lat="44.77668749630102" lon="9.943802085324082"><ele>309.0</ele><time>2026-04-18T07:03:55Z</time></trkpt><trkpt lat="44.77661090195681" lon="9.943802451445036"><ele>309.0</ele><time>2026-04-18T07:03:57Z</time></trkpt><trkpt lat="44.77652967219772" lon="9.943824659268245"><ele>309.0</ele><time>2026-04-18T07:03:59Z</time></trkpt><trkpt lat="44.7764405200028" lon="9.943869896477965"><ele>309.0</ele><time>2026-04-18T07:04:01Z</time></trkpt><trkpt lat="44.776332005116075" lon="9.943918420179982"><ele>309.0</ele><time>2026-04-18T07:04:03Z</time></trkpt><trkpt lat="44.77622912014772" lon="9.943936164155598"><ele>309.0</ele><time>2026-04-18T07:04:05Z</time></trkpt><trkpt lat="44.77612650314167" lon="9.943956855573024"><ele>309.0</ele><time>2026-04-18T07:04:07Z</time></trkpt><trkpt lat="44.776024392279695" lon="9.943973357963387"><ele>309.0</ele><time>2026-04-18T07:04:09Z</time></trkpt><trkpt lat="44.77594143119296" lon="9.944001171247223"><ele>309.1666666666667</ele><time>2026-04-18T07:04:11Z</time></trkpt><trkpt lat="44.775852794959945" lon="9.944006277594042"><ele>309.3333333333333</ele><time>2026-04-18T07:04:13Z</time></trkpt><trkpt lat="44.775764811256344" lon="9.944004040881811"><ele>309.5</ele><time>2026-04-18T07:04:14.999Z</time></trkpt><trkpt lat="44.77567570370102" lon="9.943978120955583"><ele>309.66666666666663</ele><time>2026-04-18T07:04:16.999Z</time></trkpt><trkpt lat="44.77558899673911" lon="9.943944220065566"><ele>309.8333333333333</ele><time>2026-04-18T07:04:18.999Z</time></trkpt><trkpt lat="44.77551732376894" lon="9.943896413916656"><ele>310.0</ele><time>2026-04-18T07:04:20.999Z</time></trkpt><trkpt lat="44.77546291103931" lon="9.943838262264812"><ele>310.0</ele><time>2026-04-18T07:04:22.999Z</time></trkpt><trkpt lat="44.775403789567356" lon="9.943796580951675"><ele>310.0</ele><time>2026-04-18T07:04:24.999Z</time></trkpt><trkpt lat="44.77533578070249" lon="9.943758984327118"><ele>310.0</ele><time>2026-04-18T07:04:26.999Z</time></trkpt><trkpt lat="44.77526896399087" lon="9.943711682334097"><ele>310.0</ele><time>2026-04-18T07:04:28.999Z</time></trkpt><trkpt lat="44.77520337734085" lon="9.943675305777349"><ele>310.0</ele><time>2026-04-18T07:04:30.999Z</time></trkpt><trkpt lat="44.77514247043023" lon="9.943633332341324"><ele>310.0</ele><time>2026-04-18T07:04:32.999Z</time></trkpt><trkpt lat="44.77508421765827" lon="9.94359003336633"><ele>310.0</ele><time>2026-04-18T07:04:34.999Z</time></trkpt><trkpt lat="44.77503041708857" lon="9.943541796393141"><ele>310.8333333333333</ele><time>2026-04-18T07:04:36.999Z</time></trkpt><trkpt lat="44.77493965884287" lon="9.943479218466468"><ele>311.66666666666663</ele><time>2026-04-18T07:04:39.999Z</time></trkpt><trkpt lat="44.77487937435289" lon="9.943433465735867"><ele>312.5</ele><time>2026-04-18T07:04:41.999Z</time></trkpt><trkpt lat="44.77482105525091" lon="9.943379982224242"><ele>313.3333333333333</ele><time>2026-04-18T07:04:43.999Z</time></trkpt><trkpt lat="44.774762240378564" lon="9.943327006199771"><ele>314.1666666666667</ele><time>2026-04-18T07:04:45.999Z</time></trkpt><trkpt lat="44.77469873728453" lon="9.943266547492984"><ele>315.0</ele><time>2026-04-18T07:04:47.999Z</time></trkpt><trkpt lat="44.774646828178284" lon="9.943199173576915"><ele>315.1666666666667</ele><time>2026-04-18T07:04:49.999Z</time></trkpt><trkpt lat="44.77459563539916" lon="9.943126092309962"><ele>315.3333333333333</ele><time>2026-04-18T07:04:51.999Z</time></trkpt><trkpt lat="44.774545744635475" lon="9.94305043712496"><ele>315.5</ele><time>2026-04-18T07:04:53.999Z</time></trkpt><trkpt lat="44.774498853826344" lon="9.942965467030383"><ele>315.66666666666663</ele><time>2026-04-18T07:04:55.999Z</time></trkpt><trkpt lat="44.77443722831701" lon="9.942873267847261"><ele>315.8333333333333</ele><time>2026-04-18T07:04:57.999Z</time></trkpt><trkpt lat="44.77437978511235" lon="9.94277676547025"><ele>316.0</ele><time>2026-04-18T07:04:59.999Z</time></trkpt><trkpt lat="44.77432374104593" lon="9.942683628378228"><ele>316.0</ele><time>2026-04-18T07:05:01.999Z</time></trkpt><trkpt lat="44.774259980361705" lon="9.942588863255576"><ele>316.0</ele><time>2026-04-18T07:05:03.999Z</time></trkpt><trkpt lat="44.774189584349735" lon="9.942499194509553"><ele>316.0</ele><time>2026-04-18T07:05:05.999Z</time></trkpt><trkpt lat="44.77413475919122" lon="9.94240257579521"><ele>316.0</ele><time>2026-04-18T07:05:07.998Z</time></trkpt><trkpt lat="44.77408052641513" lon="9.94230697016709"><ele>316.0</ele><time>2026-04-18T07:05:09.998Z</time></trkpt><trkpt lat="44.7740248005242" lon="9.94222301149838"><ele>316.0</ele><time>2026-04-18T07:05:11.998Z</time></trkpt><trkpt lat="44.773976605881145" lon="9.942127780408526"><ele>316.8333333333333</ele><time>2026-04-18T07:05:13.998Z</time></trkpt><trkpt lat="44.77392906364955" lon="9.942022794527208"><ele>317.66666666666663</ele><time>2026-04-18T07:05:15.998Z</time></trkpt><trkpt lat="44.77389822486995" lon="9.941901243009424"><ele>318.5</ele><time>2026-04-18T07:05:17.998Z</time></trkpt><trkpt lat="44.773882268449135" lon="9.941776429593997"><ele>319.3333333333333</ele><time>2026-04-18T07:05:19.998Z</time></trkpt><trkpt lat="44.773871951499125" lon="9.941651307632439"><ele>320.1666666666667</ele><time>2026-04-18T07:05:21.998Z</time></trkpt><trkpt lat="44.773866405910354" lon="9.94154641846553"><ele>321.0</ele><time>2026-04-18T07:05:24.998Z</time></trkpt><trkpt lat="44.77383851875599" lon="9.94138098175971"><ele>321.6666666666667</ele><time>2026-04-18T07:05:25.998Z</time></trkpt><trkpt lat="44.77382874127473" lon="9.94126667148287"><ele>322.3333333333333</ele><time>2026-04-18T07:05:27.998Z</time></trkpt><trkpt lat="44.77382402660842" lon="9.941157776146824"><ele>323.0</ele><time>2026-04-18T07:05:29.998Z</time></trkpt><trkpt lat="44.773823045038085" lon="9.94104244119828"><ele>323.66666666666663</ele><time>2026-04-18T07:05:31.998Z</time></trkpt><trkpt lat="44.77381723708628" lon="9.94092293364713"><ele>324.3333333333333</ele><time>2026-04-18T07:05:33.998Z</time></trkpt><trkpt lat="44.7738043514651" lon="9.940802637086637"><ele>325.0</ele><time>2026-04-18T07:05:35.998Z</time></trkpt><trkpt lat="44.77379818828577" lon="9.940688928906821"><ele>325.16666666666663</ele><time>2026-04-18T07:05:37.998Z</time></trkpt><trkpt lat="44.77378651421731" lon="9.940578784332727"><ele>325.3333333333333</ele><time>2026-04-18T07:05:39.998Z</time></trkpt><trkpt lat="44.77378302507508" lon="9.940462731804574"><ele>325.5</ele><time>2026-04-18T07:05:41.998Z</time></trkpt><trkpt lat="44.773771438151236" lon="9.940351434297094"><ele>325.6666666666667</ele><time>2026-04-18T07:05:43.998Z</time></trkpt><trkpt lat="44.773772891377384" lon="9.940259728303971"><ele>325.83333333333337</ele><time>2026-04-18T07:05:45.998Z</time></trkpt><trkpt lat="44.77375543150664" lon="9.940108087941038"><ele>326.0</ele><time>2026-04-18T07:05:48.998Z</time></trkpt><trkpt lat="44.773741726712615" lon="9.939994184013198"><ele>326.5</ele><time>2026-04-18T07:05:51Z</time></trkpt><trkpt lat="44.77372945683918" lon="9.939889564610223"><ele>327.0</ele><time>2026-04-18T07:05:53Z</time></trkpt><trkpt lat="44.77371954942222" lon="9.939785471897121"><ele>327.5</ele><time>2026-04-18T07:05:55Z</time></trkpt><trkpt lat="44.77370699329737" lon="9.939681320421503"><ele>328.0</ele><time>2026-04-18T07:05:57Z</time></trkpt><trkpt lat="44.77369133743749" lon="9.939577810661374"><ele>328.5</ele><time>2026-04-18T07:05:59Z</time></trkpt><trkpt lat="44.77369053411612" lon="9.939455558262571"><ele>329.0</ele><time>2026-04-18T07:06:01Z</time></trkpt><trkpt lat="44.773680342795316" lon="9.93933327520139"><ele>329.79999999999995</ele><time>2026-04-18T07:06:03Z</time></trkpt><trkpt lat="44.77369552206336" lon="9.939073224046913"><ele>330.59999999999997</ele><time>2026-04-18T07:06:06Z</time></trkpt><trkpt lat="44.77371587358888" lon="9.938958432925096"><ele>331.4</ele><time>2026-04-18T07:06:08Z</time></trkpt><trkpt lat="44.773741578375514" lon="9.938841936101777"><ele>332.2</ele><time>2026-04-18T07:06:10Z</time></trkpt><trkpt lat="44.77376924165599" lon="9.938723638625138"><ele>333.0</ele><time>2026-04-18T07:06:12Z</time></trkpt><trkpt lat="44.773788384090416" lon="9.938612378700727"><ele>333.0</ele><time>2026-04-18T07:06:14Z</time></trkpt><trkpt lat="44.77380529617719" lon="9.938493426427328"><ele>333.0</ele><time>2026-04-18T07:06:16Z</time></trkpt><trkpt lat="44.77383468140319" lon="9.938382590197271"><ele>333.0</ele><time>2026-04-18T07:06:17.999Z</time></trkpt><trkpt lat="44.77385028064155" lon="9.938255053382747"><ele>333.0</ele><time>2026-04-18T07:06:19.999Z</time></trkpt><trkpt lat="44.7738786033508" lon="9.938135379735652"><ele>333.0</ele><time>2026-04-18T07:06:21.999Z</time></trkpt><trkpt lat="44.77385754951872" lon="9.938021604844113"><ele>333.0</ele><time>2026-04-18T07:06:25.999Z</time></trkpt><trkpt lat="44.77387257397443" lon="9.937914242828569"><ele>333.5</ele><time>2026-04-18T07:06:27.999Z</time></trkpt><trkpt lat="44.77387378281333" lon="9.937568288544218"><ele>334.0</ele><time>2026-04-18T07:06:30.999Z</time></trkpt><trkpt lat="44.77381117737357" lon="9.937500349524493"><ele>334.5</ele><time>2026-04-18T07:06:32.999Z</time></trkpt><trkpt lat="44.77371931737317" lon="9.937445573986817"><ele>335.0</ele><time>2026-04-18T07:06:34.999Z</time></trkpt><trkpt lat="44.77363314507986" lon="9.937390049733589"><ele>335.0</ele><time>2026-04-18T07:06:36.999Z</time></trkpt><trkpt lat="44.77356130903037" lon="9.937361657591351"><ele>335.0</ele><time>2026-04-18T07:06:37.999Z</time></trkpt><trkpt lat="44.77345267998187" lon="9.937317072161157"><ele>335.0</ele><time>2026-04-18T07:06:39.999Z</time></trkpt><trkpt lat="44.77335990764469" lon="9.937271904315349"><ele>335.0</ele><time>2026-04-18T07:06:41.999Z</time></trkpt><trkpt lat="44.77327462397186" lon="9.937234324538931"><ele>335.0</ele><time>2026-04-18T07:06:43.999Z</time></trkpt><trkpt lat="44.773198378723265" lon="9.937206309502638"><ele>335.1666666666667</ele><time>2026-04-18T07:06:45.999Z</time></trkpt><trkpt lat="44.77312700335475" lon="9.937164689625565"><ele>335.33333333333337</ele><time>2026-04-18T07:06:48.999Z</time></trkpt><trkpt lat="44.77306196226507" lon="9.937135458955359"><ele>335.5</ele><time>2026-04-18T07:06:50.999Z</time></trkpt><trkpt lat="44.77300015917068" lon="9.937108948371819"><ele>335.6666666666667</ele><time>2026-04-18T07:06:52.999Z</time></trkpt><trkpt lat="44.77291644550594" lon="9.937044521480349"><ele>335.8333333333333</ele><time>2026-04-18T07:06:55.999Z</time></trkpt><trkpt lat="44.772834757819744" lon="9.93699141797498"><ele>336.0</ele><time>2026-04-18T07:06:58.999Z</time></trkpt><trkpt lat="44.77275580596783" lon="9.936956700622328"><ele>336.0</ele><time>2026-04-18T07:07:02.999Z</time></trkpt><trkpt lat="44.77269040327413" lon="9.936949651164609"><ele>336.0</ele><time>2026-04-18T07:07:05.999Z</time></trkpt><trkpt lat="44.77263302652854" lon="9.937016276573688"><ele>336.0</ele><time>2026-04-18T07:07:08.999Z</time></trkpt><trkpt lat="44.77264811355933" lon="9.937130056808094"><ele>336.0</ele><time>2026-04-18T07:07:11.998Z</time></trkpt><trkpt lat="44.77269570793937" lon="9.937201400813946"><ele>336.0</ele><time>2026-04-18T07:07:14.998Z</time></trkpt><trkpt lat="44.77275474237896" lon="9.937297017213009"><ele>336.0</ele><time>2026-04-18T07:07:17.998Z</time></trkpt><trkpt lat="44.772824503251236" lon="9.93738678686014"><ele>336.0</ele><time>2026-04-18T07:07:20.998Z</time></trkpt><trkpt lat="44.77286232876713" lon="9.937458849128578"><ele>336.0</ele><time>2026-04-18T07:07:22.998Z</time></trkpt><trkpt lat="44.77284877846914" lon="9.937567610649044"><ele>336.0</ele><time>2026-04-18T07:07:25.998Z</time></trkpt><trkpt lat="44.77277425888607" lon="9.93759475683241"><ele>336.0</ele><time>2026-04-18T07:07:28.998Z</time></trkpt><trkpt lat="44.77270248806842" lon="9.937563456248505"><ele>336.0</ele><time>2026-04-18T07:07:31.998Z</time></trkpt><trkpt lat="44.7726340870974" lon="9.937536969990427"><ele>336.0</ele><time>2026-04-18T07:07:34.998Z</time></trkpt><trkpt lat="44.77254806052987" lon="9.937495227321525"><ele>338.14285714285717</ele><time>2026-04-18T07:07:38.998Z</time></trkpt><trkpt lat="44.77247884680461" lon="9.937467295683467"><ele>340.2857142857143</ele><time>2026-04-18T07:07:41.998Z</time></trkpt><trkpt lat="44.77241245556879" lon="9.937441211366139"><ele>342.42857142857144</ele><time>2026-04-18T07:07:44.998Z</time></trkpt><trkpt lat="44.77234197701517" lon="9.937417815326794"><ele>344.57142857142856</ele><time>2026-04-18T07:07:47.998Z</time></trkpt><trkpt lat="44.77227336101206" lon="9.937406767324914"><ele>346.7142857142857</ele><time>2026-04-18T07:07:50.998Z</time></trkpt><trkpt lat="44.77220752246592" lon="9.937386344210218"><ele>348.8571428571429</ele><time>2026-04-18T07:07:53.998Z</time></trkpt><trkpt lat="44.77213514249602" lon="9.937360514688967"><ele>351.0</ele><time>2026-04-18T07:07:57Z</time></trkpt><trkpt lat="44.772065175702494" lon="9.937334679437116"><ele>351.00000000000006</ele><time>2026-04-18T07:08:01Z</time></trkpt><trkpt lat="44.77198927935237" lon="9.937317044880881"><ele>351.0</ele><time>2026-04-18T07:08:04Z</time></trkpt><trkpt lat="44.771924201716445" lon="9.937289113648895"><ele>351.0</ele><time>2026-04-18T07:08:07Z</time></trkpt><trkpt lat="44.7718578989041" lon="9.93727721965547"><ele>351.0</ele><time>2026-04-18T07:08:10Z</time></trkpt><trkpt lat="44.77179202847691" lon="9.937266020537242"><ele>351.0</ele><time>2026-04-18T07:08:13Z</time></trkpt><trkpt lat="44.77172448000776" lon="9.937246267372897"><ele>351.00000000000006</ele><time>2026-04-18T07:08:16Z</time></trkpt><trkpt lat="44.77165842274692" lon="9.937232540464315"><ele>351.0</ele><time>2026-04-18T07:08:20Z</time></trkpt><trkpt lat="44.77158835340852" lon="9.937219948273754"><ele>352.28571428571433</ele><time>2026-04-18T07:08:22.999Z</time></trkpt><trkpt lat="44.771507551443705" lon="9.937192438648882"><ele>353.57142857142856</ele><time>2026-04-18T07:08:25.999Z</time></trkpt><trkpt lat="44.77144061549711" lon="9.937179461483915"><ele>354.8571428571429</ele><time>2026-04-18T07:08:28.999Z</time></trkpt><trkpt lat="44.77137203134739" lon="9.937158215844574"><ele>356.14285714285717</ele><time>2026-04-18T07:08:31.999Z</time></trkpt><trkpt lat="44.7713033158344" lon="9.937150065471712"><ele>357.42857142857144</ele><time>2026-04-18T07:08:34.999Z</time></trkpt><trkpt lat="44.77123551747199" lon="9.937166061606613"><ele>358.7142857142857</ele><time>2026-04-18T07:08:37.999Z</time></trkpt><trkpt lat="44.77117825962889" lon="9.93723561537943"><ele>360.0</ele><time>2026-04-18T07:08:40.999Z</time></trkpt><trkpt lat="44.77117684680815" lon="9.937334536749994"><ele>360.0</ele><time>2026-04-18T07:08:43.999Z</time></trkpt><trkpt lat="44.77125496074379" lon="9.93740232730716"><ele>360.0</ele><time>2026-04-18T07:08:46.999Z</time></trkpt><trkpt lat="44.77132697692397" lon="9.937419398393319"><ele>360.0</ele><time>2026-04-18T07:08:49.999Z</time></trkpt><trkpt lat="44.771389115142824" lon="9.937445441765957"><ele>360.0</ele><time>2026-04-18T07:08:51.999Z</time></trkpt><trkpt lat="44.771471289683475" lon="9.937477399251394"><ele>360.0</ele><time>2026-04-18T07:08:55.999Z</time></trkpt><trkpt lat="44.77157169495122" lon="9.937506369079305"><ele>360.0</ele><time>2026-04-18T07:08:58.999Z</time></trkpt><trkpt lat="44.77163541745505" lon="9.937547659709878"><ele>362.57142857142856</ele><time>2026-04-18T07:09:01.999Z</time></trkpt><trkpt lat="44.77166691693138" lon="9.937629730946183"><ele>365.14285714285717</ele><time>2026-04-18T07:09:04.999Z</time></trkpt><trkpt lat="44.77160095035293" lon="9.937675449626807"><ele>367.7142857142857</ele><time>2026-04-18T07:09:08.999Z</time></trkpt><trkpt lat="44.77153293895121" lon="9.937643806520638"><ele>370.2857142857143</ele><time>2026-04-18T07:09:11.999Z</time></trkpt><trkpt lat="44.77145594467733" lon="9.937631342527226"><ele>372.8571428571429</ele><time>2026-04-18T07:09:14.999Z</time></trkpt><trkpt lat="44.77138064041181" lon="9.93761929900015"><ele>375.42857142857144</ele><time>2026-04-18T07:09:17.998Z</time></trkpt><trkpt lat="44.77131356390168" lon="9.937623600489143"><ele>378.0</ele><time>2026-04-18T07:09:19.998Z</time></trkpt><trkpt lat="44.7712452469549" lon="9.937660356477933"><ele>378.0</ele><time>2026-04-18T07:09:22.998Z</time></trkpt><trkpt lat="44.771184367589996" lon="9.9377113950528"><ele>378.0</ele><time>2026-04-18T07:09:25.998Z</time></trkpt><trkpt lat="44.77113018277742" lon="9.937769326835376"><ele>378.0</ele><time>2026-04-18T07:09:27.998Z</time></trkpt><trkpt lat="44.771080932496176" lon="9.937839817953268"><ele>378.0</ele><time>2026-04-18T07:09:30.998Z</time></trkpt><trkpt lat="44.77102490225418" lon="9.937904062707858"><ele>378.0</ele><time>2026-04-18T07:09:32.998Z</time></trkpt><trkpt lat="44.770957177855394" lon="9.937967767359298"><ele>378.0</ele><time>2026-04-18T07:09:35.998Z</time></trkpt><trkpt lat="44.77088558510081" lon="9.938021099566981"><ele>378.0</ele><time>2026-04-18T07:09:37.998Z</time></trkpt><trkpt lat="44.77081913594981" lon="9.938024518102935"><ele>378.1666666666667</ele><time>2026-04-18T07:09:40.998Z</time></trkpt><trkpt lat="44.77074546409765" lon="9.937997415501544"><ele>378.3333333333333</ele><time>2026-04-18T07:09:42.998Z</time></trkpt><trkpt lat="44.7706869071422" lon="9.937920630677368"><ele>378.5</ele><time>2026-04-18T07:09:45.998Z</time></trkpt><trkpt lat="44.770642799691025" lon="9.937832375015619"><ele>378.66666666666663</ele><time>2026-04-18T07:09:48.998Z</time></trkpt><trkpt lat="44.77060386403324" lon="9.937752087422599"><ele>378.8333333333333</ele><time>2026-04-18T07:09:50.998Z</time></trkpt><trkpt lat="44.7705469110922" lon="9.937677172937455"><ele>379.0</ele><time>2026-04-18T07:09:53.998Z</time></trkpt><trkpt lat="44.77048038659922" lon="9.937624154174683"><ele>379.0</ele><time>2026-04-18T07:09:55.998Z</time></trkpt><trkpt lat="44.77037891756037" lon="9.937608801764782"><ele>379.0</ele><time>2026-04-18T07:09:58.998Z</time></trkpt><trkpt lat="44.77029599124178" lon="9.937633405979067"><ele>379.0</ele><time>2026-04-18T07:10:00.998Z</time></trkpt><trkpt lat="44.77024021752355" lon="9.93767915836652"><ele>379.0</ele><time>2026-04-18T07:10:03Z</time></trkpt><trkpt lat="44.77018619987669" lon="9.937727550751257"><ele>379.0</ele><time>2026-04-18T07:10:05Z</time></trkpt><trkpt lat="44.770163052712824" lon="9.937813806306346"><ele>379.0</ele><time>2026-04-18T07:10:07Z</time></trkpt><trkpt lat="44.77015345341467" lon="9.93792518224632"><ele>379.0</ele><time>2026-04-18T07:10:09Z</time></trkpt><trkpt lat="44.77017049555497" lon="9.93804957565173"><ele>379.0</ele><time>2026-04-18T07:10:11Z</time></trkpt><trkpt lat="44.77021581679742" lon="9.938138171881048"><ele>379.0</ele><time>2026-04-18T07:10:14Z</time></trkpt><trkpt lat="44.770263075990066" lon="9.938212823858468"><ele>379.0</ele><time>2026-04-18T07:10:15Z</time></trkpt><trkpt lat="44.77032355731403" lon="9.93826374642768"><ele>379.0</ele><time>2026-04-18T07:10:18Z</time></trkpt><trkpt lat="44.77038026488925" lon="9.938323348660397"><ele>379.0</ele><time>2026-04-18T07:10:20Z</time></trkpt><trkpt lat="44.770448767348014" lon="9.938393104408933"><ele>380.8333333333333</ele><time>2026-04-18T07:10:23Z</time></trkpt><trkpt lat="44.7705142087299" lon="9.938462500374829"><ele>382.66666666666663</ele><time>2026-04-18T07:10:25.999Z</time></trkpt><trkpt lat="44.77059726410686" lon="9.938549305824708"><ele>384.5</ele><time>2026-04-18T07:10:28.999Z</time></trkpt><trkpt lat="44.770656389827124" lon="9.938599095740953"><ele>386.3333333333333</ele><time>2026-04-18T07:10:31.999Z</time></trkpt><trkpt lat="44.770722786010914" lon="9.938649537891006"><ele>388.1666666666667</ele><time>2026-04-18T07:10:34.999Z</time></trkpt><trkpt lat="44.77078998422963" lon="9.938701324549275"><ele>390.0</ele><time>2026-04-18T07:10:37.999Z</time></trkpt><trkpt lat="44.77085693834817" lon="9.938712063298327"><ele>390.0</ele><time>2026-04-18T07:10:39.999Z</time></trkpt><trkpt lat="44.77093099513469" lon="9.93871655489576"><ele>390.0</ele><time>2026-04-18T07:10:42.999Z</time></trkpt><trkpt lat="44.77100418903127" lon="9.938694412664226"><ele>390.0</ele><time>2026-04-18T07:10:45.999Z</time></trkpt><trkpt lat="44.77107315951035" lon="9.93867256443081"><ele>390.0</ele><time>2026-04-18T07:10:48.999Z</time></trkpt><trkpt lat="44.771137892869305" lon="9.938645966098388"><ele>390.0</ele><time>2026-04-18T07:10:51.999Z</time></trkpt><trkpt lat="44.771212617350976" lon="9.938623991867946"><ele>390.0</ele><time>2026-04-18T07:10:54.999Z</time></trkpt><trkpt lat="44.77129506365797" lon="9.938605613587958"><ele>390.0</ele><time>2026-04-18T07:10:57.999Z</time></trkpt><trkpt lat="44.77136093758413" lon="9.938641933361266"><ele>390.1666666666667</ele><time>2026-04-18T07:11:00.999Z</time></trkpt><trkpt lat="44.77143135251179" lon="9.938707933924695"><ele>390.33333333333337</ele><time>2026-04-18T07:11:03.999Z</time></trkpt><trkpt lat="44.77149262028508" lon="9.938796638248329"><ele>390.5</ele><time>2026-04-18T07:11:06.999Z</time></trkpt><trkpt lat="44.77153759131063" lon="9.938889414134474"><ele>390.6666666666667</ele><time>2026-04-18T07:11:09.999Z</time></trkpt><trkpt lat="44.77156957067702" lon="9.939008441723503"><ele>390.83333333333337</ele><time>2026-04-18T07:11:12.999Z</time></trkpt><trkpt lat="44.771592612513665" lon="9.939128260642468"><ele>391.0</ele><time>2026-04-18T07:11:16.999Z</time></trkpt><trkpt lat="44.77159875901281" lon="9.939253838096082"><ele>388.83333333333337</ele><time>2026-04-18T07:11:19.998Z</time></trkpt><trkpt lat="44.77158028675786" lon="9.939395282505794"><ele>386.6666666666667</ele><time>2026-04-18T07:11:22.998Z</time></trkpt><trkpt lat="44.771571834203726" lon="9.939517545059504"><ele>384.5</ele><time>2026-04-18T07:11:26.998Z</time></trkpt><trkpt lat="44.77155138974729" lon="9.939609769854274"><ele>382.33333333333337</ele><time>2026-04-18T07:11:29.998Z</time></trkpt><trkpt lat="44.771488504919176" lon="9.939666095604114"><ele>380.1666666666667</ele><time>2026-04-18T07:11:32.998Z</time></trkpt><trkpt lat="44.77142212844606" lon="9.939723573539176"><ele>378.0</ele><time>2026-04-18T07:11:35.998Z</time></trkpt><trkpt lat="44.771347193380194" lon="9.93976798012295"><ele>378.0</ele><time>2026-04-18T07:11:39.998Z</time></trkpt><trkpt lat="44.7712740938098" lon="9.939809254613047"><ele>378.0</ele><time>2026-04-18T07:11:42.998Z</time></trkpt><trkpt lat="44.77118088057892" lon="9.939865489967422"><ele>378.0</ele><time>2026-04-18T07:11:45.998Z</time></trkpt><trkpt lat="44.77112090064439" lon="9.939904152717236"><ele>378.0</ele><time>2026-04-18T07:11:48.998Z</time></trkpt><trkpt lat="44.771053238061675" lon="9.939937160812473"><ele>378.0</ele><time>2026-04-18T07:11:50.998Z</time></trkpt><trkpt lat="44.77098736061914" lon="9.93999306268944"><ele>378.0</ele><time>2026-04-18T07:11:53.998Z</time></trkpt><trkpt lat="44.77091515861884" lon="9.940055521777662"><ele>380.14285714285717</ele><time>2026-04-18T07:11:56.998Z</time></trkpt><trkpt lat="44.77085921269134" lon="9.940104401532667"><ele>382.2857142857143</ele><time>2026-04-18T07:11:58.998Z</time></trkpt><trkpt lat="44.77079964591237" lon="9.940152853091417"><ele>384.42857142857144</ele><time>2026-04-18T07:12:00.998Z</time></trkpt><trkpt lat="44.77074091421274" lon="9.940196952647117"><ele>386.57142857142856</ele><time>2026-04-18T07:12:03.998Z</time></trkpt><trkpt lat="44.77066718741408" lon="9.940240399903438"><ele>388.7142857142857</ele><time>2026-04-18T07:12:06.998Z</time></trkpt><trkpt lat="44.770597319784805" lon="9.940269651754612"><ele>390.8571428571429</ele><time>2026-04-18T07:12:10Z</time></trkpt><trkpt lat="44.7705303124054" lon="9.940293162152237"><ele>393.0</ele><time>2026-04-18T07:12:12Z</time></trkpt><trkpt lat="44.77045944103973" lon="9.940313351023486"><ele>393.00000000000006</ele><time>2026-04-18T07:12:15Z</time></trkpt><trkpt lat="44.770388224682314" lon="9.940359128307316"><ele>393.0</ele><time>2026-04-18T07:12:18Z</time></trkpt><trkpt lat="44.770330186107095" lon="9.940406744038333"><ele>393.0</ele><time>2026-04-18T07:12:20Z</time></trkpt><trkpt lat="44.77027117238875" lon="9.940477019575711"><ele>393.0</ele><time>2026-04-18T07:12:23Z</time></trkpt><trkpt lat="44.77022033873971" lon="9.940560105128755"><ele>393.0</ele><time>2026-04-18T07:12:26Z</time></trkpt><trkpt lat="44.77017712446883" lon="9.94065355756465"><ele>393.00000000000006</ele><time>2026-04-18T07:12:29Z</time></trkpt><trkpt lat="44.770147992793376" lon="9.940737061930694"><ele>393.0</ele><time>2026-04-18T07:12:30.999Z</time></trkpt><trkpt lat="44.77011437335018" lon="9.940843845603538"><ele>396.1666666666667</ele><time>2026-04-18T07:12:33.999Z</time></trkpt><trkpt lat="44.77007137742922" lon="9.940947700243157"><ele>399.33333333333337</ele><time>2026-04-18T07:12:36.999Z</time></trkpt><trkpt lat="44.770028632779294" lon="9.94105885053417"><ele>402.5</ele><time>2026-04-18T07:12:39.999Z</time></trkpt><trkpt lat="44.76999525245376" lon="9.941145516160876"><ele>405.6666666666667</ele><time>2026-04-18T07:12:41.999Z</time></trkpt><trkpt lat="44.76995656989993" lon="9.941231546204289"><ele>408.83333333333337</ele><time>2026-04-18T07:12:44.999Z</time></trkpt><trkpt lat="44.769905984691285" lon="9.941316968778663"><ele>412.0</ele><time>2026-04-18T07:12:47.999Z</time></trkpt><trkpt lat="44.76985162187885" lon="9.941399219197526"><ele>411.99999999999994</ele><time>2026-04-18T07:12:50.999Z</time></trkpt><trkpt lat="44.76980289154511" lon="9.941455918626135"><ele>412.0</ele><time>2026-04-18T07:12:52.999Z</time></trkpt><trkpt lat="44.76974229689994" lon="9.941520240740312"><ele>412.0</ele><time>2026-04-18T07:12:54.999Z</time></trkpt><trkpt lat="44.7696762344842" lon="9.941574472750906"><ele>412.0</ele><time>2026-04-18T07:12:57.999Z</time></trkpt><trkpt lat="44.76960367414136" lon="9.941629950601822"><ele>412.0</ele><time>2026-04-18T07:13:00.999Z</time></trkpt><trkpt lat="44.769535723953595" lon="9.941663501704475"><ele>411.99999999999994</ele><time>2026-04-18T07:13:02.999Z</time></trkpt><trkpt lat="44.76946212779907" lon="9.94169236796956"><ele>412.0</ele><time>2026-04-18T07:13:05.999Z</time></trkpt><trkpt lat="44.76936902713483" lon="9.941707669221522"><ele>412.50000000000006</ele><time>2026-04-18T07:13:08.999Z</time></trkpt><trkpt lat="44.76928181495542" lon="9.941703841166772"><ele>413.0</ele><time>2026-04-18T07:13:11.999Z</time></trkpt><trkpt lat="44.76919300244045" lon="9.941688335105336"><ele>413.5</ele><time>2026-04-18T07:13:14.999Z</time></trkpt><trkpt lat="44.769124655262836" lon="9.941670164243732"><ele>414.0</ele><time>2026-04-18T07:13:17.999Z</time></trkpt><trkpt lat="44.76905620974185" lon="9.9416421406651"><ele>414.50000000000006</ele><time>2026-04-18T07:13:19.999Z</time></trkpt><trkpt lat="44.76898081344049" lon="9.941606554619744"><ele>415.0</ele><time>2026-04-18T07:13:22.999Z</time></trkpt><trkpt lat="44.76891258140216" lon="9.94157051658706"><ele>415.0</ele><time>2026-04-18T07:13:25.998Z</time></trkpt><trkpt lat="44.76884214563385" lon="9.941521282019481"><ele>415.0</ele><time>2026-04-18T07:13:28.998Z</time></trkpt><trkpt lat="44.76878161699471" lon="9.941464954180782"><ele>415.0</ele><time>2026-04-18T07:13:30.998Z</time></trkpt><trkpt lat="44.76872062933683" lon="9.94138314818524"><ele>415.0</ele><time>2026-04-18T07:13:33.998Z</time></trkpt><trkpt lat="44.76868015728882" lon="9.941298066000229"><ele>415.0</ele><time>2026-04-18T07:13:36.998Z</time></trkpt><trkpt lat="44.76866786495713" lon="9.941202312828935"><ele>415.0</ele><time>2026-04-18T07:13:38.998Z</time></trkpt><trkpt lat="44.76864405563325" lon="9.941118928926302"><ele>415.0</ele><time>2026-04-18T07:13:41.998Z</time></trkpt><trkpt lat="44.768625225097914" lon="9.940986471602294"><ele>415.00000000000006</ele><time>2026-04-18T07:13:44.998Z</time></trkpt><trkpt lat="44.768591653223325" lon="9.940883381528943"><ele>415.0</ele><time>2026-04-18T07:13:47.998Z</time></trkpt><trkpt lat="44.76855827574958" lon="9.940775906407653"><ele>415.0</ele><time>2026-04-18T07:13:50.998Z</time></trkpt><trkpt lat="44.76850014561173" lon="9.940695504301893"><ele>415.0</ele><time>2026-04-18T07:13:53.998Z</time></trkpt><trkpt lat="44.768441261969855" lon="9.940628173949031"><ele>415.00000000000006</ele><time>2026-04-18T07:13:55.998Z</time></trkpt><trkpt lat="44.768368034213005" lon="9.940563256613405"><ele>415.0</ele><time>2026-04-18T07:13:58.998Z</time></trkpt><trkpt lat="44.7683033033424" lon="9.94050368326075"><ele>416.6666666666667</ele><time>2026-04-18T07:14:01.998Z</time></trkpt><trkpt lat="44.768237757235774" lon="9.940458489388723"><ele>418.33333333333337</ele><time>2026-04-18T07:14:03.998Z</time></trkpt><trkpt lat="44.76816594635141" lon="9.940414509136053"><ele>420.0</ele><time>2026-04-18T07:14:06.998Z</time></trkpt><trkpt lat="44.7680943674087" lon="9.940372634420907"><ele>421.66666666666663</ele><time>2026-04-18T07:14:08.998Z</time></trkpt><trkpt lat="44.76801257411931" lon="9.94034013977382"><ele>423.3333333333333</ele><time>2026-04-18T07:14:11.998Z</time></trkpt><trkpt lat="44.767930433688" lon="9.940322763199584"><ele>425.0</ele><time>2026-04-18T07:14:15Z</time></trkpt><trkpt lat="44.76783436837789" lon="9.94031661170498"><ele>424.99999999999994</ele><time>2026-04-18T07:14:18Z</time></trkpt><trkpt lat="44.76774587476923" lon="9.940323331749045"><ele>425.0</ele><time>2026-04-18T07:14:21Z</time></trkpt><trkpt lat="44.767667231714285" lon="9.940334570032803"><ele>425.0</ele><time>2026-04-18T07:14:23Z</time></trkpt><trkpt lat="44.76757298572956" lon="9.940347175721262"><ele>425.0</ele><time>2026-04-18T07:14:26Z</time></trkpt><trkpt lat="44.76748410509677" lon="9.940362315602965"><ele>424.99999999999994</ele><time>2026-04-18T07:14:29Z</time></trkpt><trkpt lat="44.767406598549826" lon="9.940372358814772"><ele>425.0</ele><time>2026-04-18T07:14:32Z</time></trkpt><trkpt lat="44.76731600997543" lon="9.940399449161335"><ele>425.66666666666663</ele><time>2026-04-18T07:14:34.999Z</time></trkpt><trkpt lat="44.76723413377243" lon="9.94040780304248"><ele>426.3333333333333</ele><time>2026-04-18T07:14:37.999Z</time></trkpt><trkpt lat="44.76715466645847" lon="9.940417969378062"><ele>427.0</ele><time>2026-04-18T07:14:40.999Z</time></trkpt><trkpt lat="44.767080181666486" lon="9.940436833701893"><ele>427.66666666666663</ele><time>2026-04-18T07:14:42.999Z</time></trkpt><trkpt lat="44.767003455622955" lon="9.94045301607933"><ele>428.3333333333333</ele><time>2026-04-18T07:14:45.999Z</time></trkpt><trkpt lat="44.766926483478144" lon="9.940472096290987"><ele>429.0</ele><time>2026-04-18T07:14:48.999Z</time></trkpt><trkpt lat="44.76685851593937" lon="9.94048977331818"><ele>429.5</ele><time>2026-04-18T07:14:50.999Z</time></trkpt><trkpt lat="44.76678377137757" lon="9.940513952639241"><ele>430.0</ele><time>2026-04-18T07:14:53.999Z</time></trkpt><trkpt lat="44.76670508721747" lon="9.940544485206868"><ele>430.5</ele><time>2026-04-18T07:14:56.999Z</time></trkpt><trkpt lat="44.76663775536537" lon="9.940574596447654"><ele>431.0</ele><time>2026-04-18T07:14:58.999Z</time></trkpt><trkpt lat="44.766561461996076" lon="9.940613128633661"><ele>431.5</ele><time>2026-04-18T07:15:01.999Z</time></trkpt><trkpt lat="44.76649265155064" lon="9.940641960950137"><ele>432.0</ele><time>2026-04-18T07:15:03.999Z</time></trkpt><trkpt lat="44.76641604569423" lon="9.940672758844038"><ele>432.0</ele><time>2026-04-18T07:15:06.999Z</time></trkpt><trkpt lat="44.76633524220129" lon="9.940705636406902"><ele>432.0</ele><time>2026-04-18T07:15:09.999Z</time></trkpt><trkpt lat="44.76626685245654" lon="9.940735798612472"><ele>432.0</ele><time>2026-04-18T07:15:11.999Z</time></trkpt><trkpt lat="44.76619355243987" lon="9.940763406136561"><ele>432.0</ele><time>2026-04-18T07:15:14.999Z</time></trkpt><trkpt lat="44.76612639422467" lon="9.94079223011132"><ele>432.0</ele><time>2026-04-18T07:15:16.999Z</time></trkpt><trkpt lat="44.766051793696356" lon="9.94082380201913"><ele>432.0</ele><time>2026-04-18T07:15:19.999Z</time></trkpt><trkpt lat="44.76596733588816" lon="9.940860727617265"><ele>432.0</ele><time>2026-04-18T07:15:22.999Z</time></trkpt><trkpt lat="44.76589049102477" lon="9.940893450169995"><ele>432.0</ele><time>2026-04-18T07:15:25.999Z</time></trkpt><trkpt lat="44.765823174632125" lon="9.940929199270768"><ele>432.0</ele><time>2026-04-18T07:15:27.999Z</time></trkpt><trkpt lat="44.76575280016157" lon="9.94097008229335"><ele>432.0</ele><time>2026-04-18T07:15:30.998Z</time></trkpt><trkpt lat="44.76569260179463" lon="9.941013932796379"><ele>432.0</ele><time>2026-04-18T07:15:32.998Z</time></trkpt><trkpt lat="44.76561303293462" lon="9.941057774084257"><ele>432.0</ele><time>2026-04-18T07:15:35.998Z</time></trkpt><trkpt lat="44.76554509926702" lon="9.941107630672361"><ele>432.0</ele><time>2026-04-18T07:15:38.998Z</time></trkpt><trkpt lat="44.7654708903349" lon="9.941167319744409"><ele>432.0</ele><time>2026-04-18T07:15:41.998Z</time></trkpt><trkpt lat="44.76539811044402" lon="9.941215075180269"><ele>432.0</ele><time>2026-04-18T07:15:44.998Z</time></trkpt><trkpt lat="44.7653375676197" lon="9.941258443886749"><ele>432.0</ele><time>2026-04-18T07:15:46.998Z</time></trkpt><trkpt lat="44.765262510781746" lon="9.94130608314479"><ele>432.0</ele><time>2026-04-18T07:15:49.998Z</time></trkpt><trkpt lat="44.76519363023071" lon="9.941359176058452"><ele>432.0</ele><time>2026-04-18T07:15:52.998Z</time></trkpt><trkpt lat="44.76512594818629" lon="9.941413189780322"><ele>433.0</ele><time>2026-04-18T07:15:55.998Z</time></trkpt><trkpt lat="44.76505783562191" lon="9.941458601180551"><ele>434.0</ele><time>2026-04-18T07:15:58.998Z</time></trkpt><trkpt lat="44.764984996518464" lon="9.941502779757027"><ele>435.0</ele><time>2026-04-18T07:16:01.998Z</time></trkpt><trkpt lat="44.764914050683934" lon="9.941553698176646"><ele>436.0</ele><time>2026-04-18T07:16:04.998Z</time></trkpt><trkpt lat="44.764847334411996" lon="9.941619569801105"><ele>437.0</ele><time>2026-04-18T07:16:07.998Z</time></trkpt><trkpt lat="44.76477827803397" lon="9.941673557804128"><ele>438.0</ele><time>2026-04-18T07:16:10.998Z</time></trkpt><trkpt lat="44.76469528527615" lon="9.941729734846323"><ele>438.0</ele><time>2026-04-18T07:16:13.998Z</time></trkpt><trkpt lat="44.76463124771904" lon="9.941775059680669"><ele>438.0</ele><time>2026-04-18T07:16:16.998Z</time></trkpt><trkpt lat="44.76456923183229" lon="9.941824157297507"><ele>438.0</ele><time>2026-04-18T07:16:20Z</time></trkpt><trkpt lat="44.76451514926108" lon="9.941870825767976"><ele>438.0</ele><time>2026-04-18T07:16:22Z</time></trkpt><trkpt lat="44.76444838580289" lon="9.941914174651187"><ele>438.0</ele><time>2026-04-18T07:16:25Z</time></trkpt><trkpt lat="44.76437954157898" lon="9.941959590996259"><ele>438.0</ele><time>2026-04-18T07:16:28Z</time></trkpt><trkpt lat="44.76431729401684" lon="9.941999077872488"><ele>438.0</ele><time>2026-04-18T07:16:30Z</time></trkpt><trkpt lat="44.76425881348257" lon="9.942047418722836"><ele>440.8333333333333</ele><time>2026-04-18T07:16:33Z</time></trkpt><trkpt lat="44.76419871688547" lon="9.942094452538186"><ele>443.66666666666663</ele><time>2026-04-18T07:16:36Z</time></trkpt><trkpt lat="44.76414472065988" lon="9.942149168528339"><ele>446.5</ele><time>2026-04-18T07:16:38.999Z</time></trkpt><trkpt lat="44.764083283168866" lon="9.942214958599884"><ele>449.3333333333333</ele><time>2026-04-18T07:16:41.999Z</time></trkpt><trkpt lat="44.7640169146543" lon="9.942282476197024"><ele>452.16666666666663</ele><time>2026-04-18T07:16:44.999Z</time></trkpt><trkpt lat="44.76394630258823" lon="9.942360066249949"><ele>455.0</ele><time>2026-04-18T07:16:47.999Z</time></trkpt><trkpt lat="44.76388809618882" lon="9.942414778825713"><ele>455.0</ele><time>2026-04-18T07:16:50.999Z</time></trkpt><trkpt lat="44.7638277199161" lon="9.942474883604172"><ele>455.0</ele><time>2026-04-18T07:16:53.999Z</time></trkpt><trkpt lat="44.76377272509112" lon="9.942519380945713"><ele>455.0</ele><time>2026-04-18T07:16:55.999Z</time></trkpt><trkpt lat="44.763707156581" lon="9.942555828317488"><ele>455.0</ele><time>2026-04-18T07:16:58.999Z</time></trkpt><trkpt lat="44.7636453038194" lon="9.942586388526312"><ele>455.0</ele><time>2026-04-18T07:17:01.999Z</time></trkpt><trkpt lat="44.76358112583029" lon="9.94261719370776"><ele>455.0</ele><time>2026-04-18T07:17:04.999Z</time></trkpt><trkpt lat="44.76351452013616" lon="9.942645193030232"><ele>455.0</ele><time>2026-04-18T07:17:07.999Z</time></trkpt><trkpt lat="44.763446387684766" lon="9.942664601699358"><ele>456.2857142857143</ele><time>2026-04-18T07:17:10.999Z</time></trkpt><trkpt lat="44.76337572556847" lon="9.942678159035616"><ele>457.57142857142856</ele><time>2026-04-18T07:17:13.999Z</time></trkpt><trkpt lat="44.76330354902395" lon="9.942670302786606"><ele>458.8571428571429</ele><time>2026-04-18T07:17:16.999Z</time></trkpt><trkpt lat="44.76324547469593" lon="9.94260670707303"><ele>460.14285714285717</ele><time>2026-04-18T07:17:19.999Z</time></trkpt><trkpt lat="44.76323340881956" lon="9.942500275580558"><ele>461.42857142857144</ele><time>2026-04-18T07:17:23.999Z</time></trkpt><trkpt lat="44.76324642277953" lon="9.942405539949116"><ele>462.7142857142858</ele><time>2026-04-18T07:17:26.999Z</time></trkpt><trkpt lat="44.76327482682734" lon="9.942302077739155"><ele>464.00000000000006</ele><time>2026-04-18T07:17:29.999Z</time></trkpt><trkpt lat="44.763301775044965" lon="9.942209015608944"><ele>464.28571428571433</ele><time>2026-04-18T07:17:33.998Z</time></trkpt><trkpt lat="44.76332930960752" lon="9.94212254169506"><ele>464.57142857142856</ele><time>2026-04-18T07:17:36.998Z</time></trkpt><trkpt lat="44.76336237834932" lon="9.942042225419515"><ele>464.8571428571429</ele><time>2026-04-18T07:17:39.998Z</time></trkpt><trkpt lat="44.763400481643735" lon="9.941957684316387"><ele>465.14285714285717</ele><time>2026-04-18T07:17:42.998Z</time></trkpt><trkpt lat="44.76344594879353" lon="9.941870250762138"><ele>465.42857142857144</ele><time>2026-04-18T07:17:45.998Z</time></trkpt><trkpt lat="44.76348626282229" lon="9.941774722397295"><ele>465.7142857142857</ele><time>2026-04-18T07:17:49.998Z</time></trkpt><trkpt lat="44.76352597174613" lon="9.941694791722568"><ele>466.0</ele><time>2026-04-18T07:17:52.998Z</time></trkpt><trkpt lat="44.76357487502985" lon="9.941597795291345"><ele>465.1666666666667</ele><time>2026-04-18T07:17:55.998Z</time></trkpt><trkpt lat="44.76362040294416" lon="9.941510677967079"><ele>464.33333333333337</ele><time>2026-04-18T07:17:59.998Z</time></trkpt><trkpt lat="44.76365693687728" lon="9.941421513631505"><ele>463.5</ele><time>2026-04-18T07:18:02.998Z</time></trkpt><trkpt lat="44.76370957925303" lon="9.941321674103506"><ele>462.66666666666663</ele><time>2026-04-18T07:18:05.998Z</time></trkpt><trkpt lat="44.76375648745805" lon="9.941234310145411"><ele>461.8333333333333</ele><time>2026-04-18T07:18:09.998Z</time></trkpt><trkpt lat="44.763804268190555" lon="9.941152057818291"><ele>461.0</ele><time>2026-04-18T07:18:12.998Z</time></trkpt><trkpt lat="44.76385076526392" lon="9.941069126108209"><ele>460.99999999999994</ele><time>2026-04-18T07:18:15.998Z</time></trkpt><trkpt lat="44.763904364324574" lon="9.940983076946674"><ele>461.0</ele><time>2026-04-18T07:18:18.998Z</time></trkpt><trkpt lat="44.76394644035725" lon="9.940888176446528"><ele>461.0</ele><time>2026-04-18T07:18:21.998Z</time></trkpt><trkpt lat="44.76397773516981" lon="9.940783114535476"><ele>461.0</ele><time>2026-04-18T07:18:24.998Z</time></trkpt><trkpt lat="44.764000156641764" lon="9.9406890685434"><ele>460.99999999999994</ele><time>2026-04-18T07:18:28Z</time></trkpt><trkpt lat="44.764003678778344" lon="9.940583609532103"><ele>461.0</ele><time>2026-04-18T07:18:31Z</time></trkpt><trkpt lat="44.76397346732965" lon="9.940487653472552"><ele>460.99999999999994</ele><time>2026-04-18T07:18:34Z</time></trkpt><trkpt lat="44.76389723673761" lon="9.940471270581655"><ele>461.0</ele><time>2026-04-18T07:18:37Z</time></trkpt><trkpt lat="44.76383207378275" lon="9.940548829940012"><ele>461.0</ele><time>2026-04-18T07:18:40Z</time></trkpt><trkpt lat="44.76377485387485" lon="9.940654074420664"><ele>461.0</ele><time>2026-04-18T07:18:43Z</time></trkpt><trkpt lat="44.763728320978196" lon="9.940736260278614"><ele>460.99999999999994</ele><time>2026-04-18T07:18:45.999Z</time></trkpt><trkpt lat="44.76367551603766" lon="9.940813762865155"><ele>461.0</ele><time>2026-04-18T07:18:48.999Z</time></trkpt><trkpt lat="44.763610628259336" lon="9.940884979978641"><ele>460.99999999999994</ele><time>2026-04-18T07:18:51.999Z</time></trkpt><trkpt lat="44.76353325851847" lon="9.940934446519053"><ele>461.0</ele><time>2026-04-18T07:18:54.999Z</time></trkpt><trkpt lat="44.76346601371046" lon="9.940982945462864"><ele>461.0</ele><time>2026-04-18T07:18:57.999Z</time></trkpt><trkpt lat="44.763406480012954" lon="9.9410162161929"><ele>461.0</ele><time>2026-04-18T07:18:59.999Z</time></trkpt><trkpt lat="44.76333109889222" lon="9.941062972010174"><ele>460.99999999999994</ele><time>2026-04-18T07:19:02.999Z</time></trkpt><trkpt lat="44.76325570458943" lon="9.941107149524166"><ele>461.0</ele><time>2026-04-18T07:19:05.999Z</time></trkpt><trkpt lat="44.76317856046556" lon="9.941132865735522"><ele>463.8333333333333</ele><time>2026-04-18T07:19:08.999Z</time></trkpt><trkpt lat="44.76309306558721" lon="9.941132117910827"><ele>466.66666666666663</ele><time>2026-04-18T07:19:11.999Z</time></trkpt><trkpt lat="44.76302503150112" lon="9.941114847760868"><ele>469.5</ele><time>2026-04-18T07:19:13.999Z</time></trkpt><trkpt lat="44.762947021786836" lon="9.941078791734842"><ele>472.33333333333337</ele><time>2026-04-18T07:19:16.999Z</time></trkpt><trkpt lat="44.76286848192326" lon="9.941040057396394"><ele>475.1666666666667</ele><time>2026-04-18T07:19:19.999Z</time></trkpt><trkpt lat="44.762797743206406" lon="9.94101824285425"><ele>478.0</ele><time>2026-04-18T07:19:21.999Z</time></trkpt><trkpt lat="44.76270683504371" lon="9.941023258432143"><ele>480.1666666666667</ele><time>2026-04-18T07:19:24.999Z</time></trkpt><trkpt lat="44.76263445205865" lon="9.941083447366223"><ele>482.33333333333337</ele><time>2026-04-18T07:19:27.999Z</time></trkpt><trkpt lat="44.76256915776938" lon="9.941156049116813"><ele>484.5</ele><time>2026-04-18T07:19:30.999Z</time></trkpt><trkpt lat="44.762508724618634" lon="9.941231440540745"><ele>486.66666666666663</ele><time>2026-04-18T07:19:33.999Z</time></trkpt><trkpt lat="44.76245033881458" lon="9.941311295406189"><ele>488.8333333333333</ele><time>2026-04-18T07:19:36.999Z</time></trkpt><trkpt lat="44.762395574469245" lon="9.941376607642278"><ele>491.0</ele><time>2026-04-18T07:19:39.998Z</time></trkpt><trkpt lat="44.76235456205022" lon="9.941462632746545"><ele>491.0</ele><time>2026-04-18T07:19:42.998Z</time></trkpt><trkpt lat="44.7622943365462" lon="9.941526113183713"><ele>490.99999999999994</ele><time>2026-04-18T07:19:45.998Z</time></trkpt><trkpt lat="44.76222818153083" lon="9.941557271163795"><ele>491.0</ele><time>2026-04-18T07:19:47.998Z</time></trkpt><trkpt lat="44.76216133426604" lon="9.94157447971606"><ele>491.0</ele><time>2026-04-18T07:19:49.998Z</time></trkpt><trkpt lat="44.76209771740523" lon="9.941572852135987"><ele>490.99999999999994</ele><time>2026-04-18T07:19:51.998Z</time></trkpt><trkpt lat="44.76203161288541" lon="9.941581269347626"><ele>491.0</ele><time>2026-04-18T07:19:53.998Z</time></trkpt><trkpt lat="44.761966015129886" lon="9.94157470119736"><ele>491.0</ele><time>2026-04-18T07:19:55.998Z</time></trkpt><trkpt lat="44.761898960310184" lon="9.941584338341466"><ele>491.57142857142856</ele><time>2026-04-18T07:19:57.998Z</time></trkpt><trkpt lat="44.76182903547748" lon="9.941598743241249"><ele>492.1428571428571</ele><time>2026-04-18T07:19:59.998Z</time></trkpt><trkpt lat="44.76176476015126" lon="9.941605879234407"><ele>492.71428571428567</ele><time>2026-04-18T07:20:01.998Z</time></trkpt><trkpt lat="44.76169952640428" lon="9.941633649675573"><ele>493.2857142857142</ele><time>2026-04-18T07:20:03.998Z</time></trkpt><trkpt lat="44.76163978345832" lon="9.9416666913792"><ele>493.85714285714283</ele><time>2026-04-18T07:20:05.998Z</time></trkpt><trkpt lat="44.76156102955266" lon="9.941714628831622"><ele>494.42857142857133</ele><time>2026-04-18T07:20:08.998Z</time></trkpt><trkpt lat="44.761485386783576" lon="9.941786575990267"><ele>494.99999999999994</ele><time>2026-04-18T07:20:11.998Z</time></trkpt><trkpt lat="44.76142999993661" lon="9.941860708900835"><ele>495.0</ele><time>2026-04-18T07:20:14.998Z</time></trkpt><trkpt lat="44.761377718113216" lon="9.941929430097494"><ele>495.0</ele><time>2026-04-18T07:20:16.998Z</time></trkpt><trkpt lat="44.76132002200693" lon="9.942009171089461"><ele>495.0</ele><time>2026-04-18T07:20:19.998Z</time></trkpt><trkpt lat="44.76126601767269" lon="9.942097612537"><ele>495.0</ele><time>2026-04-18T07:20:22.998Z</time></trkpt><trkpt lat="44.76121388954821" lon="9.942196447416737"><ele>495.0</ele><time>2026-04-18T07:20:25.998Z</time></trkpt><trkpt lat="44.761166664276764" lon="9.942294132418356"><ele>495.0</ele><time>2026-04-18T07:20:28.998Z</time></trkpt><trkpt lat="44.76112151847327" lon="9.942391364013025"><ele>494.99999999999994</ele><time>2026-04-18T07:20:32Z</time></trkpt><trkpt lat="44.7610828982055" lon="9.942476810128488"><ele>495.0</ele><time>2026-04-18T07:20:34Z</time></trkpt><trkpt lat="44.76104879138607" lon="9.942565641309873"><ele>494.99999999999994</ele><time>2026-04-18T07:20:37Z</time></trkpt><trkpt lat="44.761012346722325" lon="9.94266342117761"><ele>494.99999999999994</ele><time>2026-04-18T07:20:40Z</time></trkpt><trkpt lat="44.76100688334531" lon="9.94276538554182"><ele>495.0</ele><time>2026-04-18T07:20:43Z</time></trkpt><trkpt lat="44.76100889166732" lon="9.942860876598548"><ele>494.99999999999994</ele><time>2026-04-18T07:20:45Z</time></trkpt><trkpt lat="44.761029761101554" lon="9.942970137815085"><ele>494.99999999999994</ele><time>2026-04-18T07:20:48Z</time></trkpt><trkpt lat="44.76105813244331" lon="9.9430828158209"><ele>494.8333333333333</ele><time>2026-04-18T07:20:50.999Z</time></trkpt><trkpt lat="44.76108307107845" lon="9.943168199435235"><ele>494.66666666666663</ele><time>2026-04-18T07:20:52.999Z</time></trkpt><trkpt lat="44.76109840391036" lon="9.94328054758926"><ele>494.5</ele><time>2026-04-18T07:20:55.999Z</time></trkpt><trkpt lat="44.761096085405626" lon="9.943398944875337"><ele>494.3333333333333</ele><time>2026-04-18T07:20:58.999Z</time></trkpt><trkpt lat="44.76106698303489" lon="9.943534153686418"><ele>494.16666666666663</ele><time>2026-04-18T07:21:01.999Z</time></trkpt><trkpt lat="44.761045636451" lon="9.943660972575245"><ele>494.0</ele><time>2026-04-18T07:21:04.999Z</time></trkpt><trkpt lat="44.761022521234295" lon="9.943775193896174"><ele>496.66666666666663</ele><time>2026-04-18T07:21:07.999Z</time></trkpt><trkpt lat="44.76099025661459" lon="9.943879828738542"><ele>499.3333333333333</ele><time>2026-04-18T07:21:10.999Z</time></trkpt><trkpt lat="44.76092229807663" lon="9.943952346914159"><ele>502.0</ele><time>2026-04-18T07:21:13.999Z</time></trkpt><trkpt lat="44.7608509484369" lon="9.943925835473115"><ele>504.66666666666663</ele><time>2026-04-18T07:21:16.999Z</time></trkpt><trkpt lat="44.76080536212527" lon="9.943862156363364"><ele>507.3333333333333</ele><time>2026-04-18T07:21:18.999Z</time></trkpt><trkpt lat="44.76076737688595" lon="9.943765588646471"><ele>510.0</ele><time>2026-04-18T07:21:21.999Z</time></trkpt><trkpt lat="44.760730388699" lon="9.943666238936231"><ele>510.0</ele><time>2026-04-18T07:21:24.999Z</time></trkpt><trkpt lat="44.760693475603446" lon="9.94356954499983"><ele>510.0</ele><time>2026-04-18T07:21:27.999Z</time></trkpt><trkpt lat="44.760664990604894" lon="9.943461859949643"><ele>510.0</ele><time>2026-04-18T07:21:30.999Z</time></trkpt><trkpt lat="44.76063540049666" lon="9.94335649088986"><ele>510.0</ele><time>2026-04-18T07:21:33.999Z</time></trkpt><trkpt lat="44.76060940805518" lon="9.943270836611664"><ele>510.0</ele><time>2026-04-18T07:21:35.999Z</time></trkpt><trkpt lat="44.76056957508202" lon="9.943146423114394"><ele>510.0</ele><time>2026-04-18T07:21:38.999Z</time></trkpt><trkpt lat="44.76053248052636" lon="9.94305235608806"><ele>510.5</ele><time>2026-04-18T07:21:40.999Z</time></trkpt><trkpt lat="44.76047554933478" lon="9.942938116138738"><ele>511.0</ele><time>2026-04-18T07:21:43.998Z</time></trkpt><trkpt lat="44.76042217150753" lon="9.94283993657113"><ele>511.5</ele><time>2026-04-18T07:21:45.998Z</time></trkpt><trkpt lat="44.760383276613794" lon="9.942756063286966"><ele>512.0</ele><time>2026-04-18T07:21:47.998Z</time></trkpt><trkpt lat="44.760349374584386" lon="9.942677649773575"><ele>512.5</ele><time>2026-04-18T07:21:49.998Z</time></trkpt><trkpt lat="44.76032349612999" lon="9.942586169195442"><ele>513.0</ele><time>2026-04-18T07:21:51.998Z</time></trkpt><trkpt lat="44.76032031728387" lon="9.942486578624228"><ele>513.0000000000001</ele><time>2026-04-18T07:21:53.998Z</time></trkpt><trkpt lat="44.76032529820435" lon="9.94238185948249"><ele>513.0</ele><time>2026-04-18T07:21:55.998Z</time></trkpt><trkpt lat="44.76033860414813" lon="9.942281622870984"><ele>513.0</ele><time>2026-04-18T07:21:57.998Z</time></trkpt><trkpt lat="44.760351753562276" lon="9.942180631836516"><ele>513.0</ele><time>2026-04-18T07:21:59.998Z</time></trkpt><trkpt lat="44.760365400393816" lon="9.94208114321445"><ele>513.0</ele><time>2026-04-18T07:22:01.998Z</time></trkpt><trkpt lat="44.760378674169694" lon="9.941985631438556"><ele>513.0000000000001</ele><time>2026-04-18T07:22:03.998Z</time></trkpt><trkpt lat="44.76039478090392" lon="9.941890252084487"><ele>513.0</ele><time>2026-04-18T07:22:05.998Z</time></trkpt><trkpt lat="44.76041506730284" lon="9.941797297896759"><ele>513.2857142857143</ele><time>2026-04-18T07:22:07.998Z</time></trkpt><trkpt lat="44.760437545894796" lon="9.941709887028303"><ele>513.5714285714286</ele><time>2026-04-18T07:22:09.998Z</time></trkpt><trkpt lat="44.760456000591006" lon="9.941621343629665"><ele>513.8571428571429</ele><time>2026-04-18T07:22:11.998Z</time></trkpt><trkpt lat="44.76047027346202" lon="9.941531981766829"><ele>514.1428571428571</ele><time>2026-04-18T07:22:13.998Z</time></trkpt><trkpt lat="44.76048939889491" lon="9.941438702697226"><ele>514.4285714285714</ele><time>2026-04-18T07:22:15.998Z</time></trkpt><trkpt lat="44.760514719897856" lon="9.941346869662453"><ele>514.7142857142858</ele><time>2026-04-18T07:22:17.998Z</time></trkpt><trkpt lat="44.76053314094308" lon="9.941256930564807"><ele>515.0</ele><time>2026-04-18T07:22:19.998Z</time></trkpt><trkpt lat="44.76055994303695" lon="9.941169719161023"><ele>515.0</ele><time>2026-04-18T07:22:21.998Z</time></trkpt><trkpt lat="44.76059067893907" lon="9.941083549508098"><ele>515.0</ele><time>2026-04-18T07:22:23.998Z</time></trkpt><trkpt lat="44.760622082410336" lon="9.941001617183288"><ele>515.0</ele><time>2026-04-18T07:22:25.998Z</time></trkpt><trkpt lat="44.760670652241735" lon="9.940891222549341"><ele>515.0</ele><time>2026-04-18T07:22:28.998Z</time></trkpt><trkpt lat="44.76071092042209" lon="9.940818113422482"><ele>515.0</ele><time>2026-04-18T07:22:30.998Z</time></trkpt><trkpt lat="44.76076647613985" lon="9.940712506548063"><ele>515.0</ele><time>2026-04-18T07:22:33.998Z</time></trkpt><trkpt lat="44.76082472844028" lon="9.940613927605568"><ele>514.8333333333333</ele><time>2026-04-18T07:22:37Z</time></trkpt><trkpt lat="44.76087209994853" lon="9.940552323967736"><ele>514.6666666666666</ele><time>2026-04-18T07:22:39Z</time></trkpt><trkpt lat="44.76092630456012" lon="9.94045929000847"><ele>514.5</ele><time>2026-04-18T07:22:42Z</time></trkpt><trkpt lat="44.76098448741891" lon="9.940360247084824"><ele>514.3333333333334</ele><time>2026-04-18T07:22:45Z</time></trkpt><trkpt lat="44.76102751888378" lon="9.94024693208607"><ele>514.1666666666667</ele><time>2026-04-18T07:22:48Z</time></trkpt><trkpt lat="44.76103570731555" lon="9.940122234571355"><ele>514.0</ele><time>2026-04-18T07:22:51Z</time></trkpt><trkpt lat="44.76097262484953" lon="9.940037055179573"><ele>516.0</ele><time>2026-04-18T07:22:53.999Z</time></trkpt><trkpt lat="44.76090828716626" lon="9.940034432329494"><ele>518.0</ele><time>2026-04-18T07:22:55.999Z</time></trkpt><trkpt lat="44.76084051300915" lon="9.940053645628629"><ele>520.0</ele><time>2026-04-18T07:22:57.999Z</time></trkpt><trkpt lat="44.76077638804274" lon="9.94008073407475"><ele>522.0</ele><time>2026-04-18T07:22:59.999Z</time></trkpt><trkpt lat="44.76068612572451" lon="9.940123882405702"><ele>524.0</ele><time>2026-04-18T07:23:02.999Z</time></trkpt><trkpt lat="44.760623769251175" lon="9.940153753967316"><ele>526.0</ele><time>2026-04-18T07:23:04.999Z</time></trkpt><trkpt lat="44.760532730750036" lon="9.940190263377524"><ele>526.0</ele><time>2026-04-18T07:23:07.999Z</time></trkpt><trkpt lat="44.76045461064038" lon="9.940216855046808"><ele>526.0</ele><time>2026-04-18T07:23:10.999Z</time></trkpt><trkpt lat="44.76037654045144" lon="9.9402494776692"><ele>526.0</ele><time>2026-04-18T07:23:13.999Z</time></trkpt><trkpt lat="44.76030559075324" lon="9.940284342858801"><ele>526.0</ele><time>2026-04-18T07:23:15.999Z</time></trkpt><trkpt lat="44.760246621908614" lon="9.940317958335935"><ele>526.0</ele><time>2026-04-18T07:23:17.999Z</time></trkpt><trkpt lat="44.76018712680306" lon="9.940361280308744"><ele>526.0</ele><time>2026-04-18T07:23:19.999Z</time></trkpt><trkpt lat="44.76013572802896" lon="9.940414089807648"><ele>526.0</ele><time>2026-04-18T07:23:21.999Z</time></trkpt><trkpt lat="44.76008805682037" lon="9.94047414631066"><ele>526.8571428571429</ele><time>2026-04-18T07:23:23.999Z</time></trkpt><trkpt lat="44.76003332503089" lon="9.940549624232386"><ele>527.7142857142857</ele><time>2026-04-18T07:23:25.999Z</time></trkpt><trkpt lat="44.75999017657915" lon="9.940616152326253"><ele>528.5714285714286</ele><time>2026-04-18T07:23:27.999Z</time></trkpt><trkpt lat="44.75994756866535" lon="9.940684065704426"><ele>529.4285714285714</ele><time>2026-04-18T07:23:29.999Z</time></trkpt><trkpt lat="44.759903123947744" lon="9.94075205669338"><ele>530.2857142857142</ele><time>2026-04-18T07:23:31.999Z</time></trkpt><trkpt lat="44.759854777648115" lon="9.94081864949507"><ele>531.1428571428571</ele><time>2026-04-18T07:23:33.999Z</time></trkpt><trkpt lat="44.759801973509894" lon="9.940902858782708"><ele>532.0</ele><time>2026-04-18T07:23:36.999Z</time></trkpt><trkpt lat="44.75976569987613" lon="9.940975945061815"><ele>532.0</ele><time>2026-04-18T07:23:38.999Z</time></trkpt><trkpt lat="44.759720096289286" lon="9.941043980222602"><ele>532.0</ele><time>2026-04-18T07:23:40.999Z</time></trkpt><trkpt lat="44.75967225612969" lon="9.941120329087237"><ele>532.0</ele><time>2026-04-18T07:23:42.999Z</time></trkpt><trkpt lat="44.75961434062598" lon="9.941223215751108"><ele>532.0</ele><time>2026-04-18T07:23:45.999Z</time></trkpt><trkpt lat="44.75956039157529" lon="9.941325718281533"><ele>532.0</ele><time>2026-04-18T07:23:48.998Z</time></trkpt><trkpt lat="44.759523977187925" lon="9.941428411083296"><ele>532.0</ele><time>2026-04-18T07:23:51.998Z</time></trkpt><trkpt lat="44.75948313670684" lon="9.941499570843815"><ele>532.0</ele><time>2026-04-18T07:23:53.998Z</time></trkpt><trkpt lat="44.759447423412816" lon="9.941574967964995"><ele>532.0</ele><time>2026-04-18T07:23:55.998Z</time></trkpt><trkpt lat="44.75938988698901" lon="9.94169306266189"><ele>532.0</ele><time>2026-04-18T07:23:58.998Z</time></trkpt><trkpt lat="44.759331026285174" lon="9.941791355403355"><ele>532.0</ele><time>2026-04-18T07:24:01.998Z</time></trkpt><trkpt lat="44.759283672391916" lon="9.941899279110297"><ele>532.0</ele><time>2026-04-18T07:24:04.998Z</time></trkpt><trkpt lat="44.75924971270692" lon="9.941977169519015"><ele>532.0</ele><time>2026-04-18T07:24:06.998Z</time></trkpt><trkpt lat="44.75920486418976" lon="9.942053321595198"><ele>533.8571428571429</ele><time>2026-04-18T07:24:08.998Z</time></trkpt><trkpt lat="44.759172713342025" lon="9.942134808366395"><ele>535.7142857142858</ele><time>2026-04-18T07:24:10.998Z</time></trkpt><trkpt lat="44.75914955437903" lon="9.942221807216113"><ele>537.5714285714286</ele><time>2026-04-18T07:24:12.998Z</time></trkpt><trkpt lat="44.75913265610949" lon="9.942314169598703"><ele>539.4285714285714</ele><time>2026-04-18T07:24:14.998Z</time></trkpt><trkpt lat="44.759117871731" lon="9.942401663245315"><ele>541.2857142857143</ele><time>2026-04-18T07:24:16.998Z</time></trkpt><trkpt lat="44.75910446214942" lon="9.942495856286163"><ele>543.1428571428571</ele><time>2026-04-18T07:24:18.998Z</time></trkpt><trkpt lat="44.759100015820906" lon="9.942623612193294"><ele>545.0</ele><time>2026-04-18T07:24:21.998Z</time></trkpt><trkpt lat="44.75910910112963" lon="9.94274467119134"><ele>545.0</ele><time>2026-04-18T07:24:24.998Z</time></trkpt><trkpt lat="44.75910657413659" lon="9.942835283152167"><ele>545.0</ele><time>2026-04-18T07:24:26.998Z</time></trkpt><trkpt lat="44.75910055154296" lon="9.94295737633481"><ele>545.0</ele><time>2026-04-18T07:24:29.998Z</time></trkpt><trkpt lat="44.75903130734307" lon="9.943003543957063"><ele>545.0</ele><time>2026-04-18T07:24:32.998Z</time></trkpt><trkpt lat="44.758983089732666" lon="9.942903834568918"><ele>545.0</ele><time>2026-04-18T07:24:35.998Z</time></trkpt><trkpt lat="44.7589662471453" lon="9.942795524652315"><ele>545.0</ele><time>2026-04-18T07:24:38.998Z</time></trkpt><trkpt lat="44.75895165316455" lon="9.942684334321104"><ele>545.0</ele><time>2026-04-18T07:24:41.997Z</time></trkpt><trkpt lat="44.75893361332795" lon="9.942569963941699"><ele>545.0</ele><time>2026-04-18T07:24:45Z</time></trkpt><trkpt lat="44.75892067167869" lon="9.942451906749818"><ele>545.0</ele><time>2026-04-18T07:24:48Z</time></trkpt><trkpt lat="44.75891100208092" lon="9.942333024137557"><ele>545.0</ele><time>2026-04-18T07:24:51Z</time></trkpt><trkpt lat="44.75891137534487" lon="9.942217095852316"><ele>545.0</ele><time>2026-04-18T07:24:54Z</time></trkpt><trkpt lat="44.75891593946182" lon="9.942107570129"><ele>545.0</ele><time>2026-04-18T07:24:57Z</time></trkpt><trkpt lat="44.7589227610638" lon="9.942015235790462"><ele>545.5</ele><time>2026-04-18T07:24:59.999Z</time></trkpt><trkpt lat="44.75893724618927" lon="9.941869483254662"><ele>546.0</ele><time>2026-04-18T07:25:02.999Z</time></trkpt><trkpt lat="44.75895999521597" lon="9.941755910861138"><ele>546.5</ele><time>2026-04-18T07:25:05.999Z</time></trkpt><trkpt lat="44.758974865982545" lon="9.941638926025309"><ele>547.0</ele><time>2026-04-18T07:25:09Z</time></trkpt><trkpt lat="44.758999551355586" lon="9.94152855414782"><ele>547.5</ele><time>2026-04-18T07:25:12Z</time></trkpt><trkpt lat="44.7590173342246" lon="9.941415152922056"><ele>548.0</ele><time>2026-04-18T07:25:15Z</time></trkpt><trkpt lat="44.75903397862657" lon="9.941299314968504"><ele>549.3333333333333</ele><time>2026-04-18T07:25:18Z</time></trkpt><trkpt lat="44.759053259645405" lon="9.941184321027206"><ele>550.6666666666666</ele><time>2026-04-18T07:25:21Z</time></trkpt><trkpt lat="44.7590745111614" lon="9.94106784406582"><ele>552.0</ele><time>2026-04-18T07:25:24Z</time></trkpt><trkpt lat="44.75908347259011" lon="9.940951927000787"><ele>553.3333333333334</ele><time>2026-04-18T07:25:27Z</time></trkpt><trkpt lat="44.75909303247722" lon="9.940832291389388"><ele>554.6666666666667</ele><time>2026-04-18T07:25:30Z</time></trkpt><trkpt lat="44.759087508740905" lon="9.940708581173824"><ele>556.0</ele><time>2026-04-18T07:25:33Z</time></trkpt><trkpt lat="44.759070640821015" lon="9.940585560320208"><ele>557.8</ele><time>2026-04-18T07:25:36Z</time></trkpt><trkpt lat="44.759040038125214" lon="9.940464630814722"><ele>559.6</ele><time>2026-04-18T07:25:39Z</time></trkpt><trkpt lat="44.75902386857137" lon="9.940335984036961"><ele>561.4</ele><time>2026-04-18T07:25:42Z</time></trkpt><trkpt lat="44.75904128959933" lon="9.940211536322424"><ele>563.2</ele><time>2026-04-18T07:25:45Z</time></trkpt><trkpt lat="44.75907931422345" lon="9.940098201578243"><ele>565.0</ele><time>2026-04-18T07:25:48Z</time></trkpt><trkpt lat="44.75912624682737" lon="9.93998634594716"><ele>565.7142857142857</ele><time>2026-04-18T07:25:51Z</time></trkpt><trkpt lat="44.75916145327979" lon="9.939909602624711"><ele>566.4285714285714</ele><time>2026-04-18T07:25:52.999Z</time></trkpt><trkpt lat="44.759202582566445" lon="9.939792411101742"><ele>567.1428571428571</ele><time>2026-04-18T07:25:55.999Z</time></trkpt><trkpt lat="44.759225716392564" lon="9.93966749145613"><ele>567.8571428571429</ele><time>2026-04-18T07:25:58.999Z</time></trkpt><trkpt lat="44.759219362924675" lon="9.93957761490316"><ele>568.5714285714286</ele><time>2026-04-18T07:26:00.999Z</time></trkpt><trkpt lat="44.75921354430446" lon="9.9394883826298"><ele>569.2857142857142</ele><time>2026-04-18T07:26:02.999Z</time></trkpt><trkpt lat="44.75919677205316" lon="9.939402141523342"><ele>570.0</ele><time>2026-04-18T07:26:04.999Z</time></trkpt><trkpt lat="44.75916796806395" lon="9.939281198898193"><ele>569.8333333333334</ele><time>2026-04-18T07:26:07.999Z</time></trkpt><trkpt lat="44.75913417985608" lon="9.939163087794316"><ele>569.6666666666666</ele><time>2026-04-18T07:26:10.999Z</time></trkpt><trkpt lat="44.759083987170875" lon="9.939055440880782"><ele>569.5</ele><time>2026-04-18T07:26:13.999Z</time></trkpt><trkpt lat="44.75902101008622" lon="9.938961278818695"><ele>569.3333333333333</ele><time>2026-04-18T07:26:16.999Z</time></trkpt><trkpt lat="44.75896918005281" lon="9.93890869716827"><ele>569.1666666666666</ele><time>2026-04-18T07:26:18.999Z</time></trkpt><trkpt lat="44.75888062234868" lon="9.938863133930823"><ele>569.0</ele><time>2026-04-18T07:26:21.999Z</time></trkpt><trkpt lat="44.75878753724519" lon="9.938852081000826"><ele>569.0000000000001</ele><time>2026-04-18T07:26:24.999Z</time></trkpt><trkpt lat="44.75872440409771" lon="9.938841687555389"><ele>569.0</ele><time>2026-04-18T07:26:26.999Z</time></trkpt><trkpt lat="44.75866040969095" lon="9.938834862623343"><ele>569.0</ele><time>2026-04-18T07:26:28.999Z</time></trkpt><trkpt lat="44.75858538519413" lon="9.938836870362907"><ele>569.0</ele><time>2026-04-18T07:26:31.999Z</time></trkpt><trkpt lat="44.7585013804269" lon="9.938828998745901"><ele>569.0</ele><time>2026-04-18T07:26:34.999Z</time></trkpt><trkpt lat="44.75843729310556" lon="9.938804348418312"><ele>569.0000000000001</ele><time>2026-04-18T07:26:36.999Z</time></trkpt><trkpt lat="44.758369289003305" lon="9.938730709887299"><ele>569.0</ele><time>2026-04-18T07:26:39.999Z</time></trkpt><trkpt lat="44.75833949322301" lon="9.938637742004639"><ele>571.2857142857143</ele><time>2026-04-18T07:26:42.999Z</time></trkpt><trkpt lat="44.758310411887855" lon="9.938527423121919"><ele>573.5714285714286</ele><time>2026-04-18T07:26:44.999Z</time></trkpt><trkpt lat="44.75830081620556" lon="9.938423852810354"><ele>575.8571428571429</ele><time>2026-04-18T07:26:46.998Z</time></trkpt><trkpt lat="44.75829038479562" lon="9.93832421285273"><ele>578.1428571428571</ele><time>2026-04-18T07:26:49.001Z</time></trkpt><trkpt lat="44.75827596669199" lon="9.938228266602687"><ele>580.4285714285714</ele><time>2026-04-18T07:26:51.001Z</time></trkpt><trkpt lat="44.75824917211667" lon="9.938135673624343"><ele>582.7142857142858</ele><time>2026-04-18T07:26:53.001Z</time></trkpt><trkpt lat="44.758213356447165" lon="9.938059185256089"><ele>585.0</ele><time>2026-04-18T07:26:55.001Z</time></trkpt><trkpt lat="44.758169893259655" lon="9.937992050351246"><ele>585.0</ele><time>2026-04-18T07:26:57.001Z</time></trkpt><trkpt lat="44.75812553658719" lon="9.937922843606307"><ele>585.0</ele><time>2026-04-18T07:26:59Z</time></trkpt><trkpt lat="44.75808279817122" lon="9.937853037938119"><ele>585.0</ele><time>2026-04-18T07:27:01.001Z</time></trkpt><trkpt lat="44.758029507975756" lon="9.937743793725987"><ele>585.0</ele><time>2026-04-18T07:27:04Z</time></trkpt><trkpt lat="44.75799472061308" lon="9.9376215868723"><ele>585.0</ele><time>2026-04-18T07:27:07Z</time></trkpt><trkpt lat="44.75797466296714" lon="9.937537404609522"><ele>585.0</ele><time>2026-04-18T07:27:09Z</time></trkpt><trkpt lat="44.757962001235654" lon="9.937408924507269"><ele>584.5</ele><time>2026-04-18T07:27:12Z</time></trkpt><trkpt lat="44.75796276606422" lon="9.937319877068028"><ele>584.0</ele><time>2026-04-18T07:27:14Z</time></trkpt><trkpt lat="44.757965054561986" lon="9.937188331875351"><ele>583.5</ele><time>2026-04-18T07:27:17Z</time></trkpt><trkpt lat="44.757975666348024" lon="9.937055874344832"><ele>583.0</ele><time>2026-04-18T07:27:20Z</time></trkpt><trkpt lat="44.75800261168913" lon="9.936932333507592"><ele>582.5</ele><time>2026-04-18T07:27:23Z</time></trkpt><trkpt lat="44.75803253397783" lon="9.936843523536307"><ele>582.0</ele><time>2026-04-18T07:27:26Z</time></trkpt><trkpt lat="44.75806835639988" lon="9.936748699100951"><ele>583.0</ele><time>2026-04-18T07:27:29Z</time></trkpt><trkpt lat="44.75810640168555" lon="9.936673612453337"><ele>584.0</ele><time>2026-04-18T07:27:32Z</time></trkpt><trkpt lat="44.758158785849936" lon="9.936606951539236"><ele>585.0</ele><time>2026-04-18T07:27:35Z</time></trkpt><trkpt lat="44.75821477087809" lon="9.936539168329878"><ele>586.0</ele><time>2026-04-18T07:27:38Z</time></trkpt><trkpt lat="44.758270547854494" lon="9.936465025604937"><ele>587.0</ele><time>2026-04-18T07:27:41Z</time></trkpt><trkpt lat="44.75831044345526" lon="9.936363397115972"><ele>588.0</ele><time>2026-04-18T07:27:44Z</time></trkpt><trkpt lat="44.75831990964604" lon="9.936244739745588"><ele>588.0</ele><time>2026-04-18T07:27:46Z</time></trkpt><trkpt lat="44.758253649448484" lon="9.936184534372451"><ele>588.0</ele><time>2026-04-18T07:27:49Z</time></trkpt><trkpt lat="44.758199294626756" lon="9.936135254513982"><ele>588.0</ele><time>2026-04-18T07:27:51Z</time></trkpt><trkpt lat="44.75813945330999" lon="9.936100243893867"><ele>588.0</ele><time>2026-04-18T07:27:53.999Z</time></trkpt><trkpt lat="44.75804468968865" lon="9.93606640853254"><ele>588.0</ele><time>2026-04-18T07:27:56.999Z</time></trkpt><trkpt lat="44.75795991762947" lon="9.936047392413371"><ele>588.0</ele><time>2026-04-18T07:27:59.999Z</time></trkpt><trkpt lat="44.757883355877055" lon="9.936066180882868"><ele>588.0</ele><time>2026-04-18T07:28:02.999Z</time></trkpt><trkpt lat="44.75781305760684" lon="9.93612118632945"><ele>588.0</ele><time>2026-04-18T07:28:05.999Z</time></trkpt><trkpt lat="44.75776499508481" lon="9.936195690390889"><ele>588.0</ele><time>2026-04-18T07:28:08.999Z</time></trkpt><trkpt lat="44.757717723931286" lon="9.936268852000497"><ele>588.0</ele><time>2026-04-18T07:28:11.999Z</time></trkpt><trkpt lat="44.7576630519258" lon="9.93633554054994"><ele>588.0</ele><time>2026-04-18T07:28:13.999Z</time></trkpt><trkpt lat="44.757623101729436" lon="9.936425096338263"><ele>588.0</ele><time>2026-04-18T07:28:16.999Z</time></trkpt><trkpt lat="44.75758497244476" lon="9.936519166939116"><ele>588.0</ele><time>2026-04-18T07:28:19.999Z</time></trkpt><trkpt lat="44.757546794841375" lon="9.93661538439815"><ele>591.1666666666666</ele><time>2026-04-18T07:28:22.999Z</time></trkpt><trkpt lat="44.75751779977769" lon="9.936704454187582"><ele>594.3333333333334</ele><time>2026-04-18T07:28:25.999Z</time></trkpt><trkpt lat="44.75747960480734" lon="9.936810339791114"><ele>597.5</ele><time>2026-04-18T07:28:28.999Z</time></trkpt><trkpt lat="44.75743520103426" lon="9.936924149663367"><ele>600.6666666666667</ele><time>2026-04-18T07:28:31.999Z</time></trkpt><trkpt lat="44.757396430578844" lon="9.93704162101212"><ele>603.8333333333334</ele><time>2026-04-18T07:28:34.999Z</time></trkpt><trkpt lat="44.75736021084627" lon="9.937155483324709"><ele>607.0</ele><time>2026-04-18T07:28:37.999Z</time></trkpt><trkpt lat="44.75732666233407" lon="9.937260151541604"><ele>607.0</ele><time>2026-04-18T07:28:40.999Z</time></trkpt><trkpt lat="44.75729186592947" lon="9.937378472406232"><ele>607.0</ele><time>2026-04-18T07:28:43.999Z</time></trkpt><trkpt lat="44.757268007179675" lon="9.937498391606029"><ele>607.0</ele><time>2026-04-18T07:28:46.998Z</time></trkpt><trkpt lat="44.75725862557282" lon="9.93761287935301"><ele>607.0</ele><time>2026-04-18T07:28:49.998Z</time></trkpt><trkpt lat="44.75726718285467" lon="9.93771224801211"><ele>607.0</ele><time>2026-04-18T07:28:51.998Z</time></trkpt><trkpt lat="44.75728513760301" lon="9.937834861963754"><ele>607.0</ele><time>2026-04-18T07:28:55Z</time></trkpt><trkpt lat="44.75731089844788" lon="9.937930667300828"><ele>607.5714285714286</ele><time>2026-04-18T07:28:57Z</time></trkpt><trkpt lat="44.757353754278014" lon="9.938011234835"><ele>608.1428571428571</ele><time>2026-04-18T07:28:59Z</time></trkpt><trkpt lat="44.75740533223707" lon="9.938079195173797"><ele>608.7142857142858</ele><time>2026-04-18T07:29:01Z</time></trkpt><trkpt lat="44.7574531431093" lon="9.9381440550953"><ele>609.2857142857142</ele><time>2026-04-18T07:29:03Z</time></trkpt><trkpt lat="44.75749841235489" lon="9.938217176679583"><ele>609.8571428571429</ele><time>2026-04-18T07:29:05Z</time></trkpt><trkpt lat="44.75754987757025" lon="9.938289097514675"><ele>610.4285714285714</ele><time>2026-04-18T07:29:07Z</time></trkpt><trkpt lat="44.75759149538642" lon="9.938362369028109"><ele>611.0</ele><time>2026-04-18T07:29:09Z</time></trkpt><trkpt lat="44.757638284598585" lon="9.938435361534445"><ele>611.0000000000001</ele><time>2026-04-18T07:29:11Z</time></trkpt><trkpt lat="44.75766442714577" lon="9.93852162684551"><ele>611.0</ele><time>2026-04-18T07:29:13Z</time></trkpt><trkpt lat="44.75767114526549" lon="9.938617478519307"><ele>611.0</ele><time>2026-04-18T07:29:15Z</time></trkpt><trkpt lat="44.75766398687098" lon="9.938709098424061"><ele>611.0</ele><time>2026-04-18T07:29:17Z</time></trkpt><trkpt lat="44.757632763887564" lon="9.938790557572467"><ele>611.0</ele><time>2026-04-18T07:29:19Z</time></trkpt><trkpt lat="44.75759766996549" lon="9.938870029842956"><ele>611.0000000000001</ele><time>2026-04-18T07:29:21Z</time></trkpt><trkpt lat="44.75754718357376" lon="9.938929133279695"><ele>611.0</ele><time>2026-04-18T07:29:23Z</time></trkpt><trkpt lat="44.75748919117148" lon="9.938972923596749"><ele>611.0</ele><time>2026-04-18T07:29:25Z</time></trkpt><trkpt lat="44.75742610460184" lon="9.938992076245684"><ele>611.0</ele><time>2026-04-18T07:29:27Z</time></trkpt><trkpt lat="44.757359441301254" lon="9.9389954877412"><ele>611.0</ele><time>2026-04-18T07:29:29Z</time></trkpt><trkpt lat="44.75728115453567" lon="9.938970917258844"><ele>611.0</ele><time>2026-04-18T07:29:32Z</time></trkpt><trkpt lat="44.757203827850134" lon="9.938914303089655"><ele>611.0</ele><time>2026-04-18T07:29:35Z</time></trkpt><trkpt lat="44.75713702198614" lon="9.938836630126447"><ele>611.0</ele><time>2026-04-18T07:29:38Z</time></trkpt><trkpt lat="44.75709000490056" lon="9.938738406689218"><ele>611.0</ele><time>2026-04-18T07:29:41Z</time></trkpt><trkpt lat="44.75706024070819" lon="9.938630701923291"><ele>611.0</ele><time>2026-04-18T07:29:44Z</time></trkpt><trkpt lat="44.75703614562457" lon="9.93851399468417"><ele>611.0</ele><time>2026-04-18T07:29:47Z</time></trkpt><trkpt lat="44.75702233237178" lon="9.938414002608024"><ele>611.0</ele><time>2026-04-18T07:29:49Z</time></trkpt><trkpt lat="44.757002159425994" lon="9.938306419376557"><ele>611.0</ele><time>2026-04-18T07:29:52Z</time></trkpt><trkpt lat="44.756988036749966" lon="9.938184642181634"><ele>611.0</ele><time>2026-04-18T07:29:55Z</time></trkpt><trkpt lat="44.75697079790425" lon="9.938069325021809"><ele>611.2857142857143</ele><time>2026-04-18T07:29:58Z</time></trkpt><trkpt lat="44.756954882930735" lon="9.937973356390014"><ele>611.5714285714286</ele><time>2026-04-18T07:29:59.999Z</time></trkpt><trkpt lat="44.75694071543351" lon="9.937886519488677"><ele>611.8571428571429</ele><time>2026-04-18T07:30:01.999Z</time></trkpt><trkpt lat="44.75692561431303" lon="9.937798805679503"><ele>612.1428571428571</ele><time>2026-04-18T07:30:03.999Z</time></trkpt><trkpt lat="44.75690365914643" lon="9.937679646204437"><ele>612.4285714285714</ele><time>2026-04-18T07:30:06.999Z</time></trkpt><trkpt lat="44.756879677375814" lon="9.93756160675265"><ele>612.7142857142858</ele><time>2026-04-18T07:30:09.999Z</time></trkpt><trkpt lat="44.75686373005794" lon="9.937472675782363"><ele>613.0</ele><time>2026-04-18T07:30:11.999Z</time></trkpt><trkpt lat="44.75685211778772" lon="9.937351012456975"><ele>612.0</ele><time>2026-04-18T07:30:14.999Z</time></trkpt><trkpt lat="44.75684744234316" lon="9.937227693424154"><ele>611.0</ele><time>2026-04-18T07:30:17.999Z</time></trkpt><trkpt lat="44.75685168059672" lon="9.937099882987813"><ele>610.0</ele><time>2026-04-18T07:30:20.999Z</time></trkpt><trkpt lat="44.756866607043655" lon="9.937004439177509"><ele>609.0</ele><time>2026-04-18T07:30:23.999Z</time></trkpt><trkpt lat="44.75687739277575" lon="9.936904320394373"><ele>608.0</ele><time>2026-04-18T07:30:27.999Z</time></trkpt><trkpt lat="44.75681354628794" lon="9.93684688580334"><ele>607.0</ele><time>2026-04-18T07:35:26Z</time></trkpt><trkpt lat="44.756756935598844" lon="9.936805384042634"><ele>609.1666666666667</ele><time>2026-04-18T07:35:55Z</time></trkpt><trkpt lat="44.75669445626099" lon="9.936794369357626"><ele>611.3333333333334</ele><time>2026-04-18T07:35:59Z</time></trkpt><trkpt lat="44.75662583780502" lon="9.936756657555552"><ele>613.5</ele><time>2026-04-18T07:36:03Z</time></trkpt><trkpt lat="44.75656001739625" lon="9.936719120288949"><ele>615.6666666666666</ele><time>2026-04-18T07:36:06Z</time></trkpt><trkpt lat="44.75647741682397" lon="9.936683271256314"><ele>617.8333333333333</ele><time>2026-04-18T07:36:09Z</time></trkpt><trkpt lat="44.75641490225376" lon="9.936669816364901"><ele>620.0</ele><time>2026-04-18T07:36:10.999Z</time></trkpt><trkpt lat="44.75631997218663" lon="9.936651522131784"><ele>621.6666666666666</ele><time>2026-04-18T07:36:13.999Z</time></trkpt><trkpt lat="44.75624518394256" lon="9.936645902117931"><ele>623.3333333333333</ele><time>2026-04-18T07:36:15.999Z</time></trkpt><trkpt lat="44.75615509197565" lon="9.93664870508929"><ele>625.0</ele><time>2026-04-18T07:36:18.999Z</time></trkpt><trkpt lat="44.756081509028476" lon="9.936642190449923"><ele>626.6666666666666</ele><time>2026-04-18T07:36:20.999Z</time></trkpt><trkpt lat="44.75600491062386" lon="9.93662143075501"><ele>628.3333333333334</ele><time>2026-04-18T07:36:22.999Z</time></trkpt><trkpt lat="44.75592452709991" lon="9.936606707794805"><ele>630.0</ele><time>2026-04-18T07:36:24.999Z</time></trkpt><trkpt lat="44.755839629549726" lon="9.936600596048505"><ele>631.0</ele><time>2026-04-18T07:36:26.999Z</time></trkpt><trkpt lat="44.75574673150513" lon="9.93658804792111"><ele>632.0</ele><time>2026-04-18T07:36:28.999Z</time></trkpt><trkpt lat="44.75568162204709" lon="9.936591324762594"><ele>633.0</ele><time>2026-04-18T07:36:30.999Z</time></trkpt><trkpt lat="44.75558988217305" lon="9.936587762648255"><ele>634.0</ele><time>2026-04-18T07:36:33.999Z</time></trkpt><trkpt lat="44.75550931285089" lon="9.936599919265541"><ele>635.0</ele><time>2026-04-18T07:36:36.999Z</time></trkpt><trkpt lat="44.75543109881134" lon="9.936619185162693"><ele>636.0</ele><time>2026-04-18T07:36:39.999Z</time></trkpt><trkpt lat="44.755351713231285" lon="9.93665482263007"><ele>636.0</ele><time>2026-04-18T07:36:42.999Z</time></trkpt><trkpt lat="44.755268505200505" lon="9.936712089364194"><ele>636.0</ele><time>2026-04-18T07:36:45.999Z</time></trkpt><trkpt lat="44.75518600858652" lon="9.936770582421012"><ele>636.0</ele><time>2026-04-18T07:36:48.999Z</time></trkpt><trkpt lat="44.75512364139495" lon="9.936818445841197"><ele>636.0</ele><time>2026-04-18T07:36:50.999Z</time></trkpt><trkpt lat="44.75505811294237" lon="9.93687041318406"><ele>636.0</ele><time>2026-04-18T07:36:52.999Z</time></trkpt><trkpt lat="44.75498576159795" lon="9.936937165127576"><ele>636.0</ele><time>2026-04-18T07:36:54.999Z</time></trkpt><trkpt lat="44.75490862932762" lon="9.937015663891529"><ele>634.6</ele><time>2026-04-18T07:36:56.999Z</time></trkpt><trkpt lat="44.754820476430965" lon="9.937104485208641"><ele>633.2</ele><time>2026-04-18T07:36:58.999Z</time></trkpt><trkpt lat="44.75472374817299" lon="9.937203002522295"><ele>631.8</ele><time>2026-04-18T07:37:00.999Z</time></trkpt><trkpt lat="44.75461376268257" lon="9.937315371864768"><ele>630.4</ele><time>2026-04-18T07:37:02.998Z</time></trkpt><trkpt lat="44.75455839813756" lon="9.937382819613003"><ele>629.0</ele><time>2026-04-18T07:37:03.998Z</time></trkpt><trkpt lat="44.754495075652954" lon="9.937447950367483"><ele>629.0</ele><time>2026-04-18T07:37:04.998Z</time></trkpt><trkpt lat="44.75443157903987" lon="9.937512088845466"><ele>629.0</ele><time>2026-04-18T07:37:05.998Z</time></trkpt><trkpt lat="44.75436548265742" lon="9.937571004009422"><ele>629.0</ele><time>2026-04-18T07:37:06.998Z</time></trkpt><trkpt lat="44.75428028151378" lon="9.937587847241103"><ele>629.0</ele><time>2026-04-18T07:37:07.998Z</time></trkpt><trkpt lat="44.75421573783421" lon="9.937635269344279"><ele>629.0</ele><time>2026-04-18T07:37:08.998Z</time></trkpt><trkpt lat="44.75415130128088" lon="9.937671277236113"><ele>629.0</ele><time>2026-04-18T07:37:09.998Z</time></trkpt><trkpt lat="44.75408417083164" lon="9.937707581864709"><ele>628.5</ele><time>2026-04-18T07:37:10.998Z</time></trkpt><trkpt lat="44.75402169927566" lon="9.93773722861501"><ele>628.0</ele><time>2026-04-18T07:37:11.998Z</time></trkpt><trkpt lat="44.75395234350728" lon="9.937766907676526"><ele>627.5</ele><time>2026-04-18T07:37:12.998Z</time></trkpt><trkpt lat="44.75389134204662" lon="9.937789625964294"><ele>627.0</ele><time>2026-04-18T07:37:13.998Z</time></trkpt><trkpt lat="44.75377075357971" lon="9.937830932015112"><ele>626.5</ele><time>2026-04-18T07:37:15.998Z</time></trkpt><trkpt lat="44.75365540264172" lon="9.937868679298235"><ele>626.0</ele><time>2026-04-18T07:37:18Z</time></trkpt><trkpt lat="44.7535355323708" lon="9.937906765811466"><ele>625.8333333333333</ele><time>2026-04-18T07:37:20Z</time></trkpt><trkpt lat="44.7534713114151" lon="9.937926954919018"><ele>625.6666666666666</ele><time>2026-04-18T07:37:21Z</time></trkpt><trkpt lat="44.75340315966485" lon="9.937947338392252"><ele>625.5</ele><time>2026-04-18T07:37:22Z</time></trkpt><trkpt lat="44.75333054142108" lon="9.937968117561022"><ele>625.3333333333334</ele><time>2026-04-18T07:37:23Z</time></trkpt><trkpt lat="44.75325190062366" lon="9.937985941891855"><ele>625.1666666666667</ele><time>2026-04-18T07:37:24Z</time></trkpt><trkpt lat="44.75316787203724" lon="9.938020343259922"><ele>625.0</ele><time>2026-04-18T07:37:25Z</time></trkpt><trkpt lat="44.753071413966495" lon="9.93801618092706"><ele>625.0</ele><time>2026-04-18T07:37:26Z</time></trkpt><trkpt lat="44.75297326720389" lon="9.93803713686439"><ele>625.0</ele><time>2026-04-18T07:37:27Z</time></trkpt><trkpt lat="44.75286712842534" lon="9.938088506124211"><ele>625.0</ele><time>2026-04-18T07:37:28Z</time></trkpt><trkpt lat="44.75277101094438" lon="9.938171430079016"><ele>625.0</ele><time>2026-04-18T07:37:29Z</time></trkpt><trkpt lat="44.75268790333739" lon="9.93829224217047"><ele>625.0</ele><time>2026-04-18T07:37:30Z</time></trkpt><trkpt lat="44.7526190501627" lon="9.938430035715157"><ele>621.25</ele><time>2026-04-18T07:37:31Z</time></trkpt><trkpt lat="44.752561110909" lon="9.93858669575874"><ele>617.5</ele><time>2026-04-18T07:37:32Z</time></trkpt><trkpt lat="44.75250010621391" lon="9.938727673138347"><ele>613.75</ele><time>2026-04-18T07:37:33Z</time></trkpt><trkpt lat="44.752423248772814" lon="9.938855665378865"><ele>610.0</ele><time>2026-04-18T07:37:34Z</time></trkpt><trkpt lat="44.75233508091696" lon="9.938969394971771"><ele>610.0</ele><time>2026-04-18T07:37:35Z</time></trkpt><trkpt lat="44.752235121836655" lon="9.939045892634613"><ele>610.0</ele><time>2026-04-18T07:37:36Z</time></trkpt><trkpt lat="44.75212333259678" lon="9.939103158233435"><ele>610.0</ele><time>2026-04-18T07:37:37Z</time></trkpt><trkpt lat="44.75200636706285" lon="9.93914033324855"><ele>610.0</ele><time>2026-04-18T07:37:38Z</time></trkpt><trkpt lat="44.751887079685154" lon="9.939181445315796"><ele>608.5</ele><time>2026-04-18T07:37:39Z</time></trkpt><trkpt lat="44.75176804255731" lon="9.93923285555967"><ele>607.0</ele><time>2026-04-18T07:37:40Z</time></trkpt><trkpt lat="44.75165408889142" lon="9.939288574545238"><ele>605.5</ele><time>2026-04-18T07:37:41Z</time></trkpt><trkpt lat="44.7515491455848" lon="9.939367766804228"><ele>604.0</ele><time>2026-04-18T07:37:42Z</time></trkpt><trkpt lat="44.751439944179474" lon="9.939420259657187"><ele>604.0</ele><time>2026-04-18T07:37:43Z</time></trkpt><trkpt lat="44.75133407988362" lon="9.939483966874379"><ele>604.0</ele><time>2026-04-18T07:37:44Z</time></trkpt><trkpt lat="44.751222002012966" lon="9.93953450850585"><ele>604.0</ele><time>2026-04-18T07:37:45Z</time></trkpt><trkpt lat="44.751121806293185" lon="9.939600208535284"><ele>604.0</ele><time>2026-04-18T07:37:46Z</time></trkpt><trkpt lat="44.75103554073123" lon="9.939687375987667"><ele>604.0</ele><time>2026-04-18T07:37:47Z</time></trkpt><trkpt lat="44.7509478110859" lon="9.93976350199613"><ele>604.3333333333334</ele><time>2026-04-18T07:37:48Z</time></trkpt><trkpt lat="44.75087532881137" lon="9.939836909922366"><ele>604.6666666666667</ele><time>2026-04-18T07:37:49Z</time></trkpt><trkpt lat="44.750809235812476" lon="9.939903649957705"><ele>605.0</ele><time>2026-04-18T07:37:50Z</time></trkpt><trkpt lat="44.750749747778094" lon="9.939960557850686"><ele>605.3333333333334</ele><time>2026-04-18T07:37:51Z</time></trkpt><trkpt lat="44.75070062625569" lon="9.940031223168663"><ele>605.6666666666666</ele><time>2026-04-18T07:37:52Z</time></trkpt><trkpt lat="44.750592033139604" lon="9.940112318544069"><ele>606.0</ele><time>2026-04-18T07:37:54Z</time></trkpt><trkpt lat="44.75048005324076" lon="9.940158818925061"><ele>606.0</ele><time>2026-04-18T07:37:56Z</time></trkpt><trkpt lat="44.75037994403323" lon="9.940190289253623"><ele>606.0</ele><time>2026-04-18T07:37:58Z</time></trkpt><trkpt lat="44.750288526193536" lon="9.940215613962515"><ele>606.0</ele><time>2026-04-18T07:38:00Z</time></trkpt><trkpt lat="44.75019323707748" lon="9.940235149207904"><ele>606.0</ele><time>2026-04-18T07:38:02Z</time></trkpt><trkpt lat="44.75010167218775" lon="9.940299009961976"><ele>606.0</ele><time>2026-04-18T07:38:04Z</time></trkpt><trkpt lat="44.75000647178724" lon="9.940376347771613"><ele>607.4</ele><time>2026-04-18T07:38:06Z</time></trkpt><trkpt lat="44.74991282626524" lon="9.940455763631608"><ele>608.8</ele><time>2026-04-18T07:38:08Z</time></trkpt><trkpt lat="44.749838376420975" lon="9.940568004095166"><ele>610.1999999999999</ele><time>2026-04-18T07:38:10Z</time></trkpt><trkpt lat="44.74977136542416" lon="9.94057125123027"><ele>611.6</ele><time>2026-04-18T07:38:11Z</time></trkpt><trkpt lat="44.74967319332254" lon="9.940650339158172"><ele>613.0</ele><time>2026-04-18T07:38:13Z</time></trkpt><trkpt lat="44.74957072388483" lon="9.940729079743061"><ele>613.0</ele><time>2026-04-18T07:38:15Z</time></trkpt><trkpt lat="44.7494638987386" lon="9.940810156117955"><ele>613.0</ele><time>2026-04-18T07:38:16.999Z</time></trkpt><trkpt lat="44.74935345241544" lon="9.940894540377851"><ele>613.0</ele><time>2026-04-18T07:38:18.999Z</time></trkpt><trkpt lat="44.749263457937836" lon="9.9410152964604"><ele>613.0</ele><time>2026-04-18T07:38:20.999Z</time></trkpt><trkpt lat="44.74916006013778" lon="9.941101058267556"><ele>612.3333333333334</ele><time>2026-04-18T07:38:22.999Z</time></trkpt><trkpt lat="44.74908992921144" lon="9.941106782018457"><ele>611.6666666666667</ele><time>2026-04-18T07:38:23.999Z</time></trkpt><trkpt lat="44.749035193592455" lon="9.94115148514827"><ele>611.0</ele><time>2026-04-18T07:38:24.999Z</time></trkpt><trkpt lat="44.7489789162603" lon="9.94120761098223"><ele>610.3333333333334</ele><time>2026-04-18T07:38:25.999Z</time></trkpt><trkpt lat="44.74892203704358" lon="9.941264023232872"><ele>609.6666666666666</ele><time>2026-04-18T07:38:26.999Z</time></trkpt><trkpt lat="44.748828324738824" lon="9.941366761398859"><ele>609.0</ele><time>2026-04-18T07:38:28.999Z</time></trkpt><trkpt lat="44.74874611399472" lon="9.941462680117361"><ele>609.0</ele><time>2026-04-18T07:38:30.999Z</time></trkpt><trkpt lat="44.74867109470263" lon="9.941554144628258"><ele>609.0</ele><time>2026-04-18T07:38:32.999Z</time></trkpt><trkpt lat="44.748599206678804" lon="9.941643271416794"><ele>609.0</ele><time>2026-04-18T07:38:34.999Z</time></trkpt><trkpt lat="44.74853277016725" lon="9.941724787358167"><ele>609.0</ele><time>2026-04-18T07:38:36.999Z</time></trkpt><trkpt lat="44.748484213010535" lon="9.94183384347085"><ele>609.0</ele><time>2026-04-18T07:38:38.999Z</time></trkpt><trkpt lat="44.74841869684624" lon="9.941915872783168"><ele>611.0</ele><time>2026-04-18T07:38:40.999Z</time></trkpt><trkpt lat="44.74836202212681" lon="9.94199405093387"><ele>613.0</ele><time>2026-04-18T07:38:42.999Z</time></trkpt><trkpt lat="44.748307732524665" lon="9.942070623928466"><ele>615.0</ele><time>2026-04-18T07:38:44.999Z</time></trkpt><trkpt lat="44.74825430571702" lon="9.942146850647827"><ele>617.0</ele><time>2026-04-18T07:38:46.999Z</time></trkpt><trkpt lat="44.74820711960465" lon="9.94221943771436"><ele>619.0</ele><time>2026-04-18T07:38:48.999Z</time></trkpt><trkpt lat="44.74816093039982" lon="9.942300692150589"><ele>621.0</ele><time>2026-04-18T07:38:50.999Z</time></trkpt><trkpt lat="44.74810727999701" lon="9.942369981685195"><ele>623.0</ele><time>2026-04-18T07:38:52.999Z</time></trkpt><trkpt lat="44.748053211679625" lon="9.942459493737609"><ele>620.8</ele><time>2026-04-18T07:38:54.999Z</time></trkpt><trkpt lat="44.74800316999335" lon="9.942549124261358"><ele>618.5999999999999</ele><time>2026-04-18T07:38:56.999Z</time></trkpt><trkpt lat="44.74794989077426" lon="9.942649075572477"><ele>616.4000000000001</ele><time>2026-04-18T07:38:58.999Z</time></trkpt><trkpt lat="44.747892379215884" lon="9.942751675775304"><ele>614.2</ele><time>2026-04-18T07:39:00.999Z</time></trkpt><trkpt lat="44.74782933857055" lon="9.942868878495423"><ele>612.0</ele><time>2026-04-18T07:39:02.999Z</time></trkpt><trkpt lat="44.74777325812162" lon="9.942991524953808"><ele>612.0</ele><time>2026-04-18T07:39:04.999Z</time></trkpt><trkpt lat="44.747712051806786" lon="9.943115924859347"><ele>612.0</ele><time>2026-04-18T07:39:06.999Z</time></trkpt><trkpt lat="44.747647761582044" lon="9.94323304820517"><ele>612.0</ele><time>2026-04-18T07:39:08.999Z</time></trkpt><trkpt lat="44.747583241876406" lon="9.9433612627074"><ele>612.0</ele><time>2026-04-18T07:39:10.998Z</time></trkpt><trkpt lat="44.7475259418661" lon="9.943496366107082"><ele>612.0</ele><time>2026-04-18T07:39:12.998Z</time></trkpt><trkpt lat="44.74747217652611" lon="9.94363035279864"><ele>612.0</ele><time>2026-04-18T07:39:14.998Z</time></trkpt><trkpt lat="44.74742465240591" lon="9.94376729405971"><ele>612.0</ele><time>2026-04-18T07:39:16.998Z</time></trkpt><trkpt lat="44.74738108222776" lon="9.943919429251215"><ele>612.0</ele><time>2026-04-18T07:39:18.998Z</time></trkpt><trkpt lat="44.74733452808388" lon="9.944086691752345"><ele>612.0</ele><time>2026-04-18T07:39:20.998Z</time></trkpt><trkpt lat="44.74725847251447" lon="9.944156816671244"><ele>612.0</ele><time>2026-04-18T07:39:21.998Z</time></trkpt><trkpt lat="44.74721312010175" lon="9.944246111837518"><ele>612.0</ele><time>2026-04-18T07:39:22.998Z</time></trkpt><trkpt lat="44.74715678724305" lon="9.94433080440421"><ele>612.0</ele><time>2026-04-18T07:39:24Z</time></trkpt><trkpt lat="44.74709703494152" lon="9.944411154363237"><ele>612.0</ele><time>2026-04-18T07:39:25Z</time></trkpt><trkpt lat="44.74702760241952" lon="9.94448414573922"><ele>612.0</ele><time>2026-04-18T07:39:26Z</time></trkpt><trkpt lat="44.746953470300596" lon="9.94456232466428"><ele>612.0</ele><time>2026-04-18T07:39:27Z</time></trkpt><trkpt lat="44.74687826109002" lon="9.944641450260432"><ele>612.0</ele><time>2026-04-18T07:39:28Z</time></trkpt><trkpt lat="44.74679989094129" lon="9.944721219890264"><ele>612.6</ele><time>2026-04-18T07:39:29Z</time></trkpt><trkpt lat="44.74671765292741" lon="9.944807115225808"><ele>613.2</ele><time>2026-04-18T07:39:30Z</time></trkpt><trkpt lat="44.746638633871484" lon="9.944891018062947"><ele>613.8</ele><time>2026-04-18T07:39:31Z</time></trkpt><trkpt lat="44.746556901570024" lon="9.944973451384598"><ele>614.4</ele><time>2026-04-18T07:39:32Z</time></trkpt><trkpt lat="44.746471065566766" lon="9.94505686340279"><ele>615.0</ele><time>2026-04-18T07:39:33Z</time></trkpt><trkpt lat="44.74638452237555" lon="9.945140721623094"><ele>613.4</ele><time>2026-04-18T07:39:34Z</time></trkpt><trkpt lat="44.74629594792875" lon="9.945228833740343"><ele>611.8</ele><time>2026-04-18T07:39:35Z</time></trkpt><trkpt lat="44.74621842480089" lon="9.945323247735034"><ele>610.2</ele><time>2026-04-18T07:39:36Z</time></trkpt><trkpt lat="44.74614378606385" lon="9.945440036920838"><ele>608.6</ele><time>2026-04-18T07:39:37Z</time></trkpt><trkpt lat="44.74608650121001" lon="9.94556580987747"><ele>607.0</ele><time>2026-04-18T07:39:38Z</time></trkpt><trkpt lat="44.74603702413985" lon="9.945686503926192"><ele>607.0</ele><time>2026-04-18T07:39:39Z</time></trkpt><trkpt lat="44.74598937876647" lon="9.945801116533481"><ele>607.0</ele><time>2026-04-18T07:39:40Z</time></trkpt><trkpt lat="44.74593033805773" lon="9.945908097230197"><ele>607.0</ele><time>2026-04-18T07:39:41Z</time></trkpt><trkpt lat="44.745863190515564" lon="9.946010453666807"><ele>607.0</ele><time>2026-04-18T07:39:42Z</time></trkpt><trkpt lat="44.74579344435792" lon="9.946104645611547"><ele>607.0</ele><time>2026-04-18T07:39:43Z</time></trkpt><trkpt lat="44.74571159588757" lon="9.94618169370059"><ele>605.25</ele><time>2026-04-18T07:39:44Z</time></trkpt><trkpt lat="44.745619678275965" lon="9.946252569544585"><ele>603.5</ele><time>2026-04-18T07:39:45Z</time></trkpt><trkpt lat="44.74551805996679" lon="9.946309235628918"><ele>601.75</ele><time>2026-04-18T07:39:46Z</time></trkpt><trkpt lat="44.74540285296273" lon="9.946359218069128"><ele>600.0</ele><time>2026-04-18T07:39:47Z</time></trkpt><trkpt lat="44.74528221557348" lon="9.946408311804115"><ele>598.75</ele><time>2026-04-18T07:39:48Z</time></trkpt><trkpt lat="44.74516047931089" lon="9.946457852733326"><ele>597.5</ele><time>2026-04-18T07:39:49Z</time></trkpt><trkpt lat="44.745031798186275" lon="9.946514942406354"><ele>596.25</ele><time>2026-04-18T07:39:50Z</time></trkpt><trkpt lat="44.74490567700305" lon="9.946576028314716"><ele>595.0</ele><time>2026-04-18T07:39:51Z</time></trkpt><trkpt lat="44.744781226603365" lon="9.946636514296145"><ele>595.0</ele><time>2026-04-18T07:39:52Z</time></trkpt><trkpt lat="44.74465701268565" lon="9.946697239668222"><ele>595.0</ele><time>2026-04-18T07:39:53Z</time></trkpt><trkpt lat="44.74453662242786" lon="9.946758849139007"><ele>595.0</ele><time>2026-04-18T07:39:54Z</time></trkpt><trkpt lat="44.74441712477627" lon="9.946822657083414"><ele>595.0</ele><time>2026-04-18T07:39:55Z</time></trkpt><trkpt lat="44.744302610301965" lon="9.946887129301713"><ele>593.75</ele><time>2026-04-18T07:39:56Z</time></trkpt><trkpt lat="44.744195290957954" lon="9.946946850042707"><ele>592.5</ele><time>2026-04-18T07:39:57Z</time></trkpt><trkpt lat="44.74408935330472" lon="9.947003418406249"><ele>591.25</ele><time>2026-04-18T07:39:58Z</time></trkpt><trkpt lat="44.74398496293333" lon="9.947072085035588"><ele>590.0</ele><time>2026-04-18T07:39:59Z</time></trkpt><trkpt lat="44.743871908311334" lon="9.947120828928046"><ele>590.0</ele><time>2026-04-18T07:40:00Z</time></trkpt><trkpt lat="44.74376013369511" lon="9.947170741731599"><ele>590.0</ele><time>2026-04-18T07:40:01Z</time></trkpt><trkpt lat="44.743640766475906" lon="9.947179117742921"><ele>590.0</ele><time>2026-04-18T07:40:02Z</time></trkpt><trkpt lat="44.743520270776216" lon="9.947191269298532"><ele>590.0</ele><time>2026-04-18T07:40:03Z</time></trkpt><trkpt lat="44.743399822786415" lon="9.94719509641153"><ele>588.5</ele><time>2026-04-18T07:40:04Z</time></trkpt><trkpt lat="44.743280562862886" lon="9.947190015685514"><ele>587.0</ele><time>2026-04-18T07:40:05Z</time></trkpt><trkpt lat="44.7431639821739" lon="9.947185852088841"><ele>585.5</ele><time>2026-04-18T07:40:06Z</time></trkpt><trkpt lat="44.743047904729856" lon="9.947181706464828"><ele>584.0</ele><time>2026-04-18T07:40:07Z</time></trkpt><trkpt lat="44.74293765128579" lon="9.947177768844238"><ele>584.0</ele><time>2026-04-18T07:40:08Z</time></trkpt><trkpt lat="44.74282945923066" lon="9.947173904843158"><ele>584.0</ele><time>2026-04-18T07:40:09Z</time></trkpt><trkpt lat="44.7427287036392" lon="9.947170437619885"><ele>584.0</ele><time>2026-04-18T07:40:10Z</time></trkpt><trkpt lat="44.74263451144442" lon="9.947168369127821"><ele>584.0</ele><time>2026-04-18T07:40:11Z</time></trkpt><trkpt lat="44.742545706313535" lon="9.947166418936575"><ele>584.0</ele><time>2026-04-18T07:40:12Z</time></trkpt><trkpt lat="44.74246476975857" lon="9.947166969868837"><ele>584.1666666666666</ele><time>2026-04-18T07:40:13Z</time></trkpt><trkpt lat="44.742385812392634" lon="9.947188034960671"><ele>584.3333333333333</ele><time>2026-04-18T07:40:14Z</time></trkpt><trkpt lat="44.742306769461706" lon="9.947190878277807"><ele>584.5</ele><time>2026-04-18T07:40:15Z</time></trkpt><trkpt lat="44.74222314589453" lon="9.947181151894181"><ele>584.6666666666666</ele><time>2026-04-18T07:40:16Z</time></trkpt><trkpt lat="44.74214350568824" lon="9.947193105733081"><ele>584.8333333333334</ele><time>2026-04-18T07:40:17Z</time></trkpt><trkpt lat="44.7420572018149" lon="9.947209778821477"><ele>585.0</ele><time>2026-04-18T07:40:18Z</time></trkpt><trkpt lat="44.74197294038218" lon="9.947233142564205"><ele>585.0</ele><time>2026-04-18T07:40:19Z</time></trkpt><trkpt lat="44.741882511248036" lon="9.94725993538514"><ele>585.0</ele><time>2026-04-18T07:40:19.999Z</time></trkpt><trkpt lat="44.741793220075735" lon="9.94728488527673"><ele>585.0</ele><time>2026-04-18T07:40:20.999Z</time></trkpt><trkpt lat="44.74170030586273" lon="9.947316017837911"><ele>585.0</ele><time>2026-04-18T07:40:21.999Z</time></trkpt><trkpt lat="44.74160378286596" lon="9.947340462008658"><ele>585.0</ele><time>2026-04-18T07:40:22.999Z</time></trkpt><trkpt lat="44.74150858369544" lon="9.947359332585403"><ele>585.0</ele><time>2026-04-18T07:40:23.999Z</time></trkpt><trkpt lat="44.74140819728276" lon="9.947363364726503"><ele>585.0</ele><time>2026-04-18T07:40:24.999Z</time></trkpt><trkpt lat="44.74131455103171" lon="9.947409728678178"><ele>585.0</ele><time>2026-04-18T07:40:25.999Z</time></trkpt><trkpt lat="44.74121454217445" lon="9.94743761297771"><ele>585.0</ele><time>2026-04-18T07:40:26.999Z</time></trkpt><trkpt lat="44.74111368401638" lon="9.94746037659743"><ele>585.0</ele><time>2026-04-18T07:40:27.999Z</time></trkpt><trkpt lat="44.74100324495271" lon="9.947515589024832"><ele>584.6666666666666</ele><time>2026-04-18T07:40:29.999Z</time></trkpt><trkpt lat="44.7409153685545" lon="9.947526408542497"><ele>584.3333333333334</ele><time>2026-04-18T07:40:30.999Z</time></trkpt><trkpt lat="44.740827908715424" lon="9.947547369028308"><ele>584.0</ele><time>2026-04-18T07:40:31.999Z</time></trkpt><trkpt lat="44.74074352750236" lon="9.947565028863407"><ele>583.6666666666667</ele><time>2026-04-18T07:40:32.999Z</time></trkpt><trkpt lat="44.740667016320415" lon="9.947577268125729"><ele>583.3333333333334</ele><time>2026-04-18T07:40:33.999Z</time></trkpt><trkpt lat="44.74058639045453" lon="9.947588320804115"><ele>583.0</ele><time>2026-04-18T07:40:34.999Z</time></trkpt><trkpt lat="44.74050667375279" lon="9.947597137727954"><ele>581.6666666666667</ele><time>2026-04-18T07:40:35.999Z</time></trkpt><trkpt lat="44.74043799037043" lon="9.947612276025515"><ele>580.3333333333334</ele><time>2026-04-18T07:40:36.999Z</time></trkpt><trkpt lat="44.74035898057721" lon="9.947622995437982"><ele>579.0</ele><time>2026-04-18T07:40:37.999Z</time></trkpt><trkpt lat="44.74028216758744" lon="9.947639953608915"><ele>577.6666666666666</ele><time>2026-04-18T07:40:38.999Z</time></trkpt><trkpt lat="44.74020232786293" lon="9.947641696954904"><ele>576.3333333333333</ele><time>2026-04-18T07:40:39.999Z</time></trkpt><trkpt lat="44.74011764486609" lon="9.947665232121606"><ele>575.0</ele><time>2026-04-18T07:40:40.999Z</time></trkpt><trkpt lat="44.74003301563785" lon="9.947665147623193"><ele>575.0</ele><time>2026-04-18T07:40:41.999Z</time></trkpt><trkpt lat="44.73994327024053" lon="9.947685418176302"><ele>575.0</ele><time>2026-04-18T07:40:42.999Z</time></trkpt><trkpt lat="44.73985862682861" lon="9.947709116360357"><ele>575.0</ele><time>2026-04-18T07:40:43.999Z</time></trkpt><trkpt lat="44.73976498685045" lon="9.947740245007868"><ele>575.0</ele><time>2026-04-18T07:40:44.999Z</time></trkpt><trkpt lat="44.73967646409107" lon="9.947785387960264"><ele>575.0</ele><time>2026-04-18T07:40:45.999Z</time></trkpt><trkpt lat="44.739591638807575" lon="9.947835500231424"><ele>575.0</ele><time>2026-04-18T07:40:46.999Z</time></trkpt><trkpt lat="44.739500375838226" lon="9.947897067920547"><ele>575.0</ele><time>2026-04-18T07:40:47.999Z</time></trkpt><trkpt lat="44.739419890013224" lon="9.947960592362676"><ele>575.0</ele><time>2026-04-18T07:40:48.999Z</time></trkpt><trkpt lat="44.739335688164026" lon="9.948026848086046"><ele>575.0</ele><time>2026-04-18T07:40:49.999Z</time></trkpt><trkpt lat="44.73923511927188" lon="9.948108659857688"><ele>575.0</ele><time>2026-04-18T07:40:50.999Z</time></trkpt><trkpt lat="44.739139094496856" lon="9.948188219820148"><ele>575.25</ele><time>2026-04-18T07:40:51.999Z</time></trkpt><trkpt lat="44.7390448033324" lon="9.948267601958388"><ele>575.5</ele><time>2026-04-18T07:40:52.999Z</time></trkpt><trkpt lat="44.73894512065154" lon="9.94834769455759"><ele>575.75</ele><time>2026-04-18T07:40:53.999Z</time></trkpt><trkpt lat="44.738841430810375" lon="9.94842356819997"><ele>576.0</ele><time>2026-04-18T07:40:54.999Z</time></trkpt><trkpt lat="44.738733816265196" lon="9.94850068037936"><ele>575.0</ele><time>2026-04-18T07:40:55.999Z</time></trkpt><trkpt lat="44.73863911737911" lon="9.948596305208067"><ele>574.0</ele><time>2026-04-18T07:40:56.999Z</time></trkpt><trkpt lat="44.73852952054507" lon="9.948658445186974"><ele>573.0</ele><time>2026-04-18T07:40:57.999Z</time></trkpt><trkpt lat="44.73843217314355" lon="9.948741467602371"><ele>572.0</ele><time>2026-04-18T07:40:58.999Z</time></trkpt><trkpt lat="44.73834296809587" lon="9.94884976767221"><ele>571.0</ele><time>2026-04-18T07:40:59.999Z</time></trkpt><trkpt lat="44.738268297908" lon="9.948972149131505"><ele>570.0</ele><time>2026-04-18T07:41:00.999Z</time></trkpt><trkpt lat="44.73820375831434" lon="9.949112909168878"><ele>569.0</ele><time>2026-04-18T07:41:01.999Z</time></trkpt><trkpt lat="44.73813990305031" lon="9.949253544435388"><ele>568.0</ele><time>2026-04-18T07:41:02.999Z</time></trkpt><trkpt lat="44.738073625022544" lon="9.94939237714869"><ele>566.25</ele><time>2026-04-18T07:41:03.999Z</time></trkpt><trkpt lat="44.73800042165904" lon="9.949523438778451"><ele>564.5</ele><time>2026-04-18T07:41:04.999Z</time></trkpt><trkpt lat="44.73791415069901" lon="9.949647292324077"><ele>562.75</ele><time>2026-04-18T07:41:05.999Z</time></trkpt><trkpt lat="44.7378195290555" lon="9.949756510949317"><ele>561.0</ele><time>2026-04-18T07:41:06.999Z</time></trkpt><trkpt lat="44.73772475276286" lon="9.949850792277054"><ele>560.4</ele><time>2026-04-18T07:41:07.999Z</time></trkpt><trkpt lat="44.73762215925064" lon="9.949930664400785"><ele>559.8</ele><time>2026-04-18T07:41:08.999Z</time></trkpt><trkpt lat="44.737519268337785" lon="9.949985467256198"><ele>559.1999999999999</ele><time>2026-04-18T07:41:09.999Z</time></trkpt><trkpt lat="44.73741460253535" lon="9.950010893444977"><ele>558.6</ele><time>2026-04-18T07:41:10.999Z</time></trkpt><trkpt lat="44.73731272218653" lon="9.950015816125317"><ele>558.0</ele><time>2026-04-18T07:41:11.999Z</time></trkpt><trkpt lat="44.73721442017996" lon="9.95003330237214"><ele>558.0</ele><time>2026-04-18T07:41:12.998Z</time></trkpt><trkpt lat="44.73712386544078" lon="9.950027975323257"><ele>558.0</ele><time>2026-04-18T07:41:13.998Z</time></trkpt><trkpt lat="44.7370368166122" lon="9.95002625483881"><ele>558.0</ele><time>2026-04-18T07:41:14.998Z</time></trkpt><trkpt lat="44.73696276387791" lon="9.95002195805835"><ele>558.0</ele><time>2026-04-18T07:41:15.998Z</time></trkpt><trkpt lat="44.736896276731954" lon="9.950032188746926"><ele>558.0</ele><time>2026-04-18T07:41:16.998Z</time></trkpt><trkpt lat="44.73679025755732" lon="9.950036654763995"><ele>558.0</ele><time>2026-04-18T07:41:18.998Z</time></trkpt><trkpt lat="44.7366933679922" lon="9.950039229204195"><ele>559.5</ele><time>2026-04-18T07:41:20.998Z</time></trkpt><trkpt lat="44.73661362128854" lon="9.95005502415214"><ele>561.0</ele><time>2026-04-18T07:41:22.998Z</time></trkpt><trkpt lat="44.73653440323522" lon="9.95005695912026"><ele>562.5</ele><time>2026-04-18T07:41:24.998Z</time></trkpt><trkpt lat="44.736466636698566" lon="9.95010659601107"><ele>564.0</ele><time>2026-04-18T07:41:26.998Z</time></trkpt><trkpt lat="44.73640398967357" lon="9.950158632138306"><ele>565.5</ele><time>2026-04-18T07:41:28.998Z</time></trkpt><trkpt lat="44.73634429103946" lon="9.95022230233185"><ele>567.0</ele><time>2026-04-18T07:41:31Z</time></trkpt><trkpt lat="44.73629126252869" lon="9.9502855135268"><ele>567.0</ele><time>2026-04-18T07:41:33Z</time></trkpt><trkpt lat="44.73624306597122" lon="9.950342902665597"><ele>567.0</ele><time>2026-04-18T07:41:35Z</time></trkpt><trkpt lat="44.73619614852058" lon="9.950409180927748"><ele>567.0</ele><time>2026-04-18T07:41:37Z</time></trkpt><trkpt lat="44.736138360754" lon="9.950450131604757"><ele>567.0</ele><time>2026-04-18T07:41:40Z</time></trkpt><trkpt lat="44.736078306108475" lon="9.950497419152304"><ele>567.0</ele><time>2026-04-18T07:41:43Z</time></trkpt><trkpt lat="44.73601998300617" lon="9.950569428683078"><ele>567.0</ele><time>2026-04-18T07:41:46Z</time></trkpt><trkpt lat="44.735970166824444" lon="9.950628498617787"><ele>567.0</ele><time>2026-04-18T07:41:48Z</time></trkpt><trkpt lat="44.735906282838755" lon="9.950705249046852"><ele>569.1428571428571</ele><time>2026-04-18T07:41:51Z</time></trkpt><trkpt lat="44.735852460296535" lon="9.950759155561984"><ele>571.2857142857142</ele><time>2026-04-18T07:41:53Z</time></trkpt><trkpt lat="44.73579538175411" lon="9.950811292732585"><ele>573.4285714285714</ele><time>2026-04-18T07:41:55Z</time></trkpt><trkpt lat="44.73574476129692" lon="9.950872934400406"><ele>575.5714285714286</ele><time>2026-04-18T07:41:57Z</time></trkpt><trkpt lat="44.73568310539651" lon="9.950946314816072"><ele>577.7142857142857</ele><time>2026-04-18T07:42:01Z</time></trkpt><trkpt lat="44.735615507746644" lon="9.951018440375607"><ele>579.8571428571429</ele><time>2026-04-18T07:42:02Z</time></trkpt><trkpt lat="44.73554880448317" lon="9.951063310483658"><ele>582.0</ele><time>2026-04-18T07:42:04Z</time></trkpt><trkpt lat="44.735509269350175" lon="9.951135112558159"><ele>582.2</ele><time>2026-04-18T07:42:05Z</time></trkpt><trkpt lat="44.73545049824857" lon="9.951257038609137"><ele>582.4000000000001</ele><time>2026-04-18T07:42:07Z</time></trkpt><trkpt lat="44.735380223984194" lon="9.951371705779914"><ele>582.5999999999999</ele><time>2026-04-18T07:42:09Z</time></trkpt><trkpt lat="44.73530907832109" lon="9.951485377277947"><ele>582.8</ele><time>2026-04-18T07:42:11Z</time></trkpt><trkpt lat="44.73524036218089" lon="9.951582995541033"><ele>583.0</ele><time>2026-04-18T07:42:13Z</time></trkpt><trkpt lat="44.73516702922285" lon="9.951697047998186"><ele>584.5</ele><time>2026-04-18T07:42:15Z</time></trkpt><trkpt lat="44.735093983971986" lon="9.951814049988561"><ele>586.0</ele><time>2026-04-18T07:42:17Z</time></trkpt><trkpt lat="44.735033492611834" lon="9.951899812629504"><ele>587.5</ele><time>2026-04-18T07:42:19Z</time></trkpt><trkpt lat="44.73498715420659" lon="9.951988718375016"><ele>589.0</ele><time>2026-04-18T07:42:21Z</time></trkpt><trkpt lat="44.73494115089191" lon="9.952081866306699"><ele>590.5</ele><time>2026-04-18T07:42:23Z</time></trkpt><trkpt lat="44.73489803048092" lon="9.95218026457289"><ele>592.0</ele><time>2026-04-18T07:42:24.999Z</time></trkpt><trkpt lat="44.734858634933346" lon="9.952284523378902"><ele>592.0</ele><time>2026-04-18T07:42:26.999Z</time></trkpt><trkpt lat="44.734823717952416" lon="9.95239155247643"><ele>592.0</ele><time>2026-04-18T07:42:28.999Z</time></trkpt><trkpt lat="44.734777669923524" lon="9.952506824388378"><ele>592.0</ele><time>2026-04-18T07:42:30.999Z</time></trkpt><trkpt lat="44.734734418318446" lon="9.952634045260499"><ele>592.0</ele><time>2026-04-18T07:42:32.999Z</time></trkpt><trkpt lat="44.7346906004119" lon="9.952755869720454"><ele>592.0</ele><time>2026-04-18T07:42:34.999Z</time></trkpt><trkpt lat="44.734636038743425" lon="9.952886843983917"><ele>591.8000000000001</ele><time>2026-04-18T07:42:36.999Z</time></trkpt><trkpt lat="44.73457016661721" lon="9.952993336242761"><ele>591.6</ele><time>2026-04-18T07:42:38.999Z</time></trkpt><trkpt lat="44.734534953620965" lon="9.953072120505613"><ele>591.4000000000001</ele><time>2026-04-18T07:42:39.999Z</time></trkpt><trkpt lat="44.73446897323245" lon="9.953201073518992"><ele>591.2</ele><time>2026-04-18T07:42:41.999Z</time></trkpt><trkpt lat="44.73439509954411" lon="9.953322709347031"><ele>591.0</ele><time>2026-04-18T07:42:43.999Z</time></trkpt><trkpt lat="44.73431840971981" lon="9.953434691707871"><ele>591.0</ele><time>2026-04-18T07:42:45.999Z</time></trkpt><trkpt lat="44.73424283931382" lon="9.95353779064842"><ele>591.0</ele><time>2026-04-18T07:42:47.999Z</time></trkpt><trkpt lat="44.73416365164955" lon="9.95365071089806"><ele>591.0</ele><time>2026-04-18T07:42:49.999Z</time></trkpt><trkpt lat="44.73408044255185" lon="9.953769763815085"><ele>591.0</ele><time>2026-04-18T07:42:51.999Z</time></trkpt><trkpt lat="44.73400338236975" lon="9.953901489612472"><ele>591.0</ele><time>2026-04-18T07:42:53.999Z</time></trkpt><trkpt lat="44.73392408521115" lon="9.95402915471955"><ele>591.0</ele><time>2026-04-18T07:42:55.999Z</time></trkpt><trkpt lat="44.7338847491808" lon="9.954099895092043"><ele>591.0</ele><time>2026-04-18T07:42:56.999Z</time></trkpt><trkpt lat="44.73375670098206" lon="9.954138351976436"><ele>591.0</ele><time>2026-04-18T07:42:58.999Z</time></trkpt><trkpt lat="44.733667928097354" lon="9.954213906822217"><ele>591.0</ele><time>2026-04-18T07:43:00.999Z</time></trkpt><trkpt lat="44.733569699266845" lon="9.954295142709956"><ele>591.2</ele><time>2026-04-18T07:43:02.999Z</time></trkpt><trkpt lat="44.73350835530683" lon="9.954264333203751"><ele>591.4000000000001</ele><time>2026-04-18T07:43:03.999Z</time></trkpt><trkpt lat="44.73339826860309" lon="9.954272249095435"><ele>591.6</ele><time>2026-04-18T07:43:05.999Z</time></trkpt><trkpt lat="44.7332965854263" lon="9.95419804416446"><ele>591.8000000000001</ele><time>2026-04-18T07:43:07.999Z</time></trkpt><trkpt lat="44.73321159997189" lon="9.95409712302029"><ele>592.0</ele><time>2026-04-18T07:43:09.999Z</time></trkpt><trkpt lat="44.73313802733615" lon="9.95398889217786"><ele>592.0</ele><time>2026-04-18T07:43:11.999Z</time></trkpt><trkpt lat="44.73306315458732" lon="9.953874171840715"><ele>592.0</ele><time>2026-04-18T07:43:13.999Z</time></trkpt><trkpt lat="44.7329878904958" lon="9.953780996423612"><ele>592.0</ele><time>2026-04-18T07:43:15.999Z</time></trkpt><trkpt lat="44.732915272119655" lon="9.95368557713661"><ele>592.0</ele><time>2026-04-18T07:43:17.998Z</time></trkpt><trkpt lat="44.73283738126242" lon="9.953583508102309"><ele>592.0</ele><time>2026-04-18T07:43:19.998Z</time></trkpt><trkpt lat="44.73276077645313" lon="9.953490364070403"><ele>592.25</ele><time>2026-04-18T07:43:21.998Z</time></trkpt><trkpt lat="44.73268020951868" lon="9.953407477273341"><ele>592.5</ele><time>2026-04-18T07:43:23.998Z</time></trkpt><trkpt lat="44.73259107222577" lon="9.953316202255495"><ele>592.75</ele><time>2026-04-18T07:43:25.998Z</time></trkpt><trkpt lat="44.73249031723187" lon="9.953227046572778"><ele>593.0</ele><time>2026-04-18T07:43:27.998Z</time></trkpt><trkpt lat="44.732382503187566" lon="9.953148129941065"><ele>593.0</ele><time>2026-04-18T07:43:29.998Z</time></trkpt><trkpt lat="44.73227706377034" lon="9.95309291330237"><ele>593.0</ele><time>2026-04-18T07:43:31.998Z</time></trkpt><trkpt lat="44.73217251989284" lon="9.953006791622943"><ele>593.0</ele><time>2026-04-18T07:43:33.998Z</time></trkpt><trkpt lat="44.732066662120026" lon="9.952936118555376"><ele>593.0</ele><time>2026-04-18T07:43:36Z</time></trkpt><trkpt lat="44.731951852389855" lon="9.952868370945902"><ele>596.0</ele><time>2026-04-18T07:43:38Z</time></trkpt><trkpt lat="44.73184483580791" lon="9.952796486113602"><ele>599.0</ele><time>2026-04-18T07:43:40Z</time></trkpt><trkpt lat="44.73173772411403" lon="9.952739469990782"><ele>602.0</ele><time>2026-04-18T07:43:42Z</time></trkpt><trkpt lat="44.731630415270196" lon="9.952653988445459"><ele>605.0</ele><time>2026-04-18T07:43:44Z</time></trkpt><trkpt lat="44.73153235400937" lon="9.952601134210571"><ele>602.4</ele><time>2026-04-18T07:43:46Z</time></trkpt><trkpt lat="44.731438222117994" lon="9.952517833789859"><ele>599.8</ele><time>2026-04-18T07:43:48Z</time></trkpt><trkpt lat="44.73134597264504" lon="9.952439399588851"><ele>597.2</ele><time>2026-04-18T07:43:50Z</time></trkpt><trkpt lat="44.73125505705613" lon="9.952382618949036"><ele>594.6</ele><time>2026-04-18T07:43:52Z</time></trkpt><trkpt lat="44.731149643030214" lon="9.952343827386477"><ele>592.0</ele><time>2026-04-18T07:43:54Z</time></trkpt><trkpt lat="44.731037815582326" lon="9.952355035677975"><ele>592.0</ele><time>2026-04-18T07:43:56Z</time></trkpt><trkpt lat="44.73097580245368" lon="9.95237332171562"><ele>592.0</ele><time>2026-04-18T07:43:57Z</time></trkpt><trkpt lat="44.730914225900875" lon="9.952401658495173"><ele>592.0</ele><time>2026-04-18T07:43:58Z</time></trkpt><trkpt lat="44.730847007050485" lon="9.952435071058213"><ele>592.0</ele><time>2026-04-18T07:43:59Z</time></trkpt><trkpt lat="44.73077509884347" lon="9.952465631864646"><ele>592.0</ele><time>2026-04-18T07:44:00Z</time></trkpt><trkpt lat="44.73069903799811" lon="9.952501707324231"><ele>592.0</ele><time>2026-04-18T07:44:01Z</time></trkpt><trkpt lat="44.73061621658458" lon="9.952542344160815"><ele>592.0</ele><time>2026-04-18T07:44:02Z</time></trkpt><trkpt lat="44.73053250826156" lon="9.952575067041039"><ele>591.8333333333334</ele><time>2026-04-18T07:44:03Z</time></trkpt><trkpt lat="44.73044598623652" lon="9.952596081721467"><ele>591.6666666666667</ele><time>2026-04-18T07:44:04Z</time></trkpt><trkpt lat="44.73035886792218" lon="9.952611390994013"><ele>591.5</ele><time>2026-04-18T07:44:05Z</time></trkpt><trkpt lat="44.73027486131308" lon="9.952627658471714"><ele>591.3333333333334</ele><time>2026-04-18T07:44:06Z</time></trkpt><trkpt lat="44.730187316126255" lon="9.952626470502766"><ele>591.1666666666666</ele><time>2026-04-18T07:44:07Z</time></trkpt><trkpt lat="44.730102166995714" lon="9.952625497758493"><ele>591.0</ele><time>2026-04-18T07:44:08Z</time></trkpt><trkpt lat="44.73002231655794" lon="9.952633442090457"><ele>591.0</ele><time>2026-04-18T07:44:09Z</time></trkpt><trkpt lat="44.72994787414164" lon="9.952650946356071"><ele>591.0</ele><time>2026-04-18T07:44:10Z</time></trkpt><trkpt lat="44.729874248291495" lon="9.952686026862093"><ele>591.0</ele><time>2026-04-18T07:44:11Z</time></trkpt><trkpt lat="44.72977258695852" lon="9.952675068903055"><ele>591.0</ele><time>2026-04-18T07:44:12Z</time></trkpt><trkpt lat="44.72970847561859" lon="9.952801863522138"><ele>591.0</ele><time>2026-04-18T07:44:13Z</time></trkpt><trkpt lat="44.72969311687677" lon="9.95298438078088"><ele>591.0</ele><time>2026-04-18T07:44:14Z</time></trkpt><trkpt lat="44.72969120303603" lon="9.95312618377557"><ele>591.0</ele><time>2026-04-18T07:44:15Z</time></trkpt><trkpt lat="44.72971249951012" lon="9.953274939132772"><ele>591.0</ele><time>2026-04-18T07:44:16Z</time></trkpt><trkpt lat="44.72972729150119" lon="9.953395878518867"><ele>591.0</ele><time>2026-04-18T07:44:17Z</time></trkpt><trkpt lat="44.72973672815082" lon="9.953508323067904"><ele>591.0</ele><time>2026-04-18T07:44:18Z</time></trkpt><trkpt lat="44.72974522721634" lon="9.95362511666771"><ele>590.8333333333334</ele><time>2026-04-18T07:44:19Z</time></trkpt><trkpt lat="44.72975179825884" lon="9.953737173897803"><ele>590.6666666666666</ele><time>2026-04-18T07:44:20Z</time></trkpt><trkpt lat="44.72975727470177" lon="9.953845382764584"><ele>590.5</ele><time>2026-04-18T07:44:21Z</time></trkpt><trkpt lat="44.72976235194679" lon="9.953952568913483"><ele>590.3333333333333</ele><time>2026-04-18T07:44:22Z</time></trkpt><trkpt lat="44.729770413805" lon="9.954055072604328"><ele>590.1666666666666</ele><time>2026-04-18T07:44:23Z</time></trkpt><trkpt lat="44.72978161385893" lon="9.954156077335682"><ele>590.0</ele><time>2026-04-18T07:44:24Z</time></trkpt><trkpt lat="44.72979361196687" lon="9.954256055501931"><ele>590.0000000000001</ele><time>2026-04-18T07:44:25Z</time></trkpt><trkpt lat="44.72980763868448" lon="9.954362819664926"><ele>590.0</ele><time>2026-04-18T07:44:26Z</time></trkpt><trkpt lat="44.72981974208661" lon="9.954454944543015"><ele>590.0</ele><time>2026-04-18T07:44:27Z</time></trkpt><trkpt lat="44.729831915715955" lon="9.95455437205539"><ele>590.0</ele><time>2026-04-18T07:44:27.999Z</time></trkpt><trkpt lat="44.72984427748136" lon="9.954653867656846"><ele>590.0</ele><time>2026-04-18T07:44:28.999Z</time></trkpt><trkpt lat="44.72985886423177" lon="9.954753586281203"><ele>590.0000000000001</ele><time>2026-04-18T07:44:29.999Z</time></trkpt><trkpt lat="44.72987470003086" lon="9.95485020846242"><ele>590.0</ele><time>2026-04-18T07:44:30.999Z</time></trkpt><trkpt lat="44.729892747780305" lon="9.954948582214543"><ele>590.1666666666666</ele><time>2026-04-18T07:44:31.999Z</time></trkpt><trkpt lat="44.729912756866455" lon="9.955054084228385"><ele>590.3333333333333</ele><time>2026-04-18T07:44:32.999Z</time></trkpt><trkpt lat="44.72993388180323" lon="9.955157171057412"><ele>590.5</ele><time>2026-04-18T07:44:33.999Z</time></trkpt><trkpt lat="44.72995468555754" lon="9.955258690563474"><ele>590.6666666666666</ele><time>2026-04-18T07:44:34.999Z</time></trkpt><trkpt lat="44.729982430593736" lon="9.955363486340493"><ele>590.8333333333334</ele><time>2026-04-18T07:44:35.999Z</time></trkpt><trkpt lat="44.7299853978307" lon="9.955472516567973"><ele>591.0</ele><time>2026-04-18T07:44:36.999Z</time></trkpt><trkpt lat="44.72998023452531" lon="9.95558275744505"><ele>591.0</ele><time>2026-04-18T07:44:37.999Z</time></trkpt><trkpt lat="44.72995885591314" lon="9.955690298302633"><ele>591.0</ele><time>2026-04-18T07:44:38.999Z</time></trkpt><trkpt lat="44.72993133022632" lon="9.95579846726949"><ele>591.0</ele><time>2026-04-18T07:44:39.999Z</time></trkpt><trkpt lat="44.72990679326942" lon="9.955893689383322"><ele>591.0</ele><time>2026-04-18T07:44:40.999Z</time></trkpt><trkpt lat="44.729882309003386" lon="9.955996371527679"><ele>591.0</ele><time>2026-04-18T07:44:41.999Z</time></trkpt><trkpt lat="44.729863684245174" lon="9.956096714613695"><ele>591.0</ele><time>2026-04-18T07:44:42.999Z</time></trkpt><trkpt lat="44.72986174996666" lon="9.95620419275936"><ele>591.8571428571429</ele><time>2026-04-18T07:44:43.999Z</time></trkpt><trkpt lat="44.72984103518626" lon="9.956312124340746"><ele>592.7142857142858</ele><time>2026-04-18T07:44:44.999Z</time></trkpt><trkpt lat="44.729833551129666" lon="9.95642636076759"><ele>593.5714285714287</ele><time>2026-04-18T07:44:45.999Z</time></trkpt><trkpt lat="44.729826416095875" lon="9.956528606391945"><ele>594.4285714285714</ele><time>2026-04-18T07:44:46.999Z</time></trkpt><trkpt lat="44.729812649560785" lon="9.956631267611934"><ele>595.2857142857143</ele><time>2026-04-18T07:44:47.999Z</time></trkpt><trkpt lat="44.72977459346972" lon="9.9567172315017"><ele>596.1428571428572</ele><time>2026-04-18T07:44:48.999Z</time></trkpt><trkpt lat="44.72973499332271" lon="9.95679139089097"><ele>597.0</ele><time>2026-04-18T07:44:49.999Z</time></trkpt><trkpt lat="44.72968996385704" lon="9.956860443609727"><ele>598.6666666666666</ele><time>2026-04-18T07:44:50.999Z</time></trkpt><trkpt lat="44.72959229737709" lon="9.956957857761344"><ele>600.3333333333334</ele><time>2026-04-18T07:44:52.999Z</time></trkpt><trkpt lat="44.729510542281126" lon="9.957018402549949"><ele>602.0</ele><time>2026-04-18T07:44:53.999Z</time></trkpt><trkpt lat="44.729447085900254" lon="9.957075033855453"><ele>603.6666666666667</ele><time>2026-04-18T07:44:54.999Z</time></trkpt><trkpt lat="44.72938600983993" lon="9.957133860506922"><ele>605.3333333333334</ele><time>2026-04-18T07:44:55.999Z</time></trkpt><trkpt lat="44.72932373116632" lon="9.957197772702724"><ele>607.0</ele><time>2026-04-18T07:44:56.999Z</time></trkpt><trkpt lat="44.729257488444006" lon="9.957269388024415"><ele>603.6</ele><time>2026-04-18T07:44:57.999Z</time></trkpt><trkpt lat="44.72919405065514" lon="9.957341308127724"><ele>600.2</ele><time>2026-04-18T07:44:58.999Z</time></trkpt><trkpt lat="44.72912247656037" lon="9.957422452446446"><ele>596.8</ele><time>2026-04-18T07:44:59.999Z</time></trkpt><trkpt lat="44.72904554904507" lon="9.957509665994994"><ele>593.4</ele><time>2026-04-18T07:45:00.999Z</time></trkpt><trkpt lat="44.72896195201768" lon="9.957599382522599"><ele>590.0</ele><time>2026-04-18T07:45:01.999Z</time></trkpt><trkpt lat="44.72887243759557" lon="9.95769451211082"><ele>590.0</ele><time>2026-04-18T07:45:02.999Z</time></trkpt><trkpt lat="44.72878358590881" lon="9.957788937393465"><ele>590.0</ele><time>2026-04-18T07:45:03.999Z</time></trkpt><trkpt lat="44.72870497265666" lon="9.957899430613416"><ele>590.0</ele><time>2026-04-18T07:45:04.999Z</time></trkpt><trkpt lat="44.728603849451126" lon="9.957970414743537"><ele>590.0</ele><time>2026-04-18T07:45:05.999Z</time></trkpt><trkpt lat="44.728524050198686" lon="9.958083086025269"><ele>590.0</ele><time>2026-04-18T07:45:06.999Z</time></trkpt><trkpt lat="44.72844544201438" lon="9.958191549501382"><ele>584.5</ele><time>2026-04-18T07:45:07.999Z</time></trkpt><trkpt lat="44.72839035674699" lon="9.958326876305344"><ele>579.0</ele><time>2026-04-18T07:45:08.999Z</time></trkpt><trkpt lat="44.72834078022526" lon="9.958470010586685"><ele>573.5</ele><time>2026-04-18T07:45:09.999Z</time></trkpt><trkpt lat="44.728310523957575" lon="9.958623529517187"><ele>568.0</ele><time>2026-04-18T07:45:10.999Z</time></trkpt><trkpt lat="44.72829567273088" lon="9.958782028305162"><ele>568.0</ele><time>2026-04-18T07:45:11.999Z</time></trkpt><trkpt lat="44.72827272203784" lon="9.95893722184445"><ele>568.0</ele><time>2026-04-18T07:45:12.999Z</time></trkpt><trkpt lat="44.728264019366776" lon="9.9590968402484"><ele>568.0</ele><time>2026-04-18T07:45:13.999Z</time></trkpt><trkpt lat="44.72825896653283" lon="9.959258071486104"><ele>568.0</ele><time>2026-04-18T07:45:14.999Z</time></trkpt><trkpt lat="44.728255940190934" lon="9.959427796519796"><ele>567.0</ele><time>2026-04-18T07:45:15.999Z</time></trkpt><trkpt lat="44.728253610585135" lon="9.959599442460444"><ele>566.0</ele><time>2026-04-18T07:45:16.999Z</time></trkpt><trkpt lat="44.7282684819785" lon="9.959776797054829"><ele>565.0</ele><time>2026-04-18T07:45:17.999Z</time></trkpt><trkpt lat="44.72826990606521" lon="9.959959985479585"><ele>564.0</ele><time>2026-04-18T07:45:18.999Z</time></trkpt><trkpt lat="44.72825557675278" lon="9.960149218729576"><ele>562.5</ele><time>2026-04-18T07:45:19.999Z</time></trkpt><trkpt lat="44.728256053775155" lon="9.960341649828267"><ele>561.0</ele><time>2026-04-18T07:45:20.998Z</time></trkpt><trkpt lat="44.72825599026716" lon="9.960531636651906"><ele>559.5</ele><time>2026-04-18T07:45:21.998Z</time></trkpt><trkpt lat="44.72825317956909" lon="9.960719443780517"><ele>558.0</ele><time>2026-04-18T07:45:22.998Z</time></trkpt><trkpt lat="44.72824900480554" lon="9.96090879121767"><ele>557.25</ele><time>2026-04-18T07:45:23.998Z</time></trkpt><trkpt lat="44.72826314306977" lon="9.961097811355149"><ele>556.5</ele><time>2026-04-18T07:45:24.998Z</time></trkpt><trkpt lat="44.72826006182075" lon="9.96128622384194"><ele>555.75</ele><time>2026-04-18T07:45:25.998Z</time></trkpt><trkpt lat="44.72826092427934" lon="9.96147621738329"><ele>555.0</ele><time>2026-04-18T07:45:26.998Z</time></trkpt><trkpt lat="44.72824294254388" lon="9.961667579947209"><ele>555.5</ele><time>2026-04-18T07:45:27.998Z</time></trkpt><trkpt lat="44.728240222533046" lon="9.961863420618489"><ele>556.0</ele><time>2026-04-18T07:45:28.998Z</time></trkpt><trkpt lat="44.72824968802467" lon="9.96205632693909"><ele>556.5</ele><time>2026-04-18T07:45:29.998Z</time></trkpt><trkpt lat="44.72824423259308" lon="9.962239203616416"><ele>557.0</ele><time>2026-04-18T07:45:30.998Z</time></trkpt><trkpt lat="44.72823547814665" lon="9.962419625306296"><ele>556.5</ele><time>2026-04-18T07:45:31.998Z</time></trkpt><trkpt lat="44.72822530760628" lon="9.962595441314829"><ele>556.0</ele><time>2026-04-18T07:45:32.998Z</time></trkpt><trkpt lat="44.72822091642449" lon="9.962765281714661"><ele>555.5</ele><time>2026-04-18T07:45:33.998Z</time></trkpt><trkpt lat="44.728208659121016" lon="9.96293218653435"><ele>555.0</ele><time>2026-04-18T07:45:34.998Z</time></trkpt><trkpt lat="44.728195060056606" lon="9.963082886363333"><ele>555.0</ele><time>2026-04-18T07:45:35.998Z</time></trkpt><trkpt lat="44.7281828609068" lon="9.963236703716381"><ele>555.0</ele><time>2026-04-18T07:45:36.998Z</time></trkpt><trkpt lat="44.72817288439267" lon="9.963385043438828"><ele>555.0</ele><time>2026-04-18T07:45:37.998Z</time></trkpt><trkpt lat="44.728163983053" lon="9.963529892892149"><ele>555.0</ele><time>2026-04-18T07:45:38.998Z</time></trkpt><trkpt lat="44.72815097817583" lon="9.96367246102925"><ele>555.0</ele><time>2026-04-18T07:45:39.998Z</time></trkpt><trkpt lat="44.728142442093215" lon="9.963803690335823"><ele>554.2</ele><time>2026-04-18T07:45:40.998Z</time></trkpt><trkpt lat="44.728136885193805" lon="9.96393741813169"><ele>553.4</ele><time>2026-04-18T07:45:42Z</time></trkpt><trkpt lat="44.72814960933962" lon="9.964065135071905"><ele>552.6</ele><time>2026-04-18T07:45:43Z</time></trkpt><trkpt lat="44.72817636450111" lon="9.964186395586475"><ele>551.8</ele><time>2026-04-18T07:45:44Z</time></trkpt><trkpt lat="44.72821090423384" lon="9.964300244650323"><ele>551.0</ele><time>2026-04-18T07:45:45Z</time></trkpt><trkpt lat="44.72826141803235" lon="9.964409957680036"><ele>549.8333333333333</ele><time>2026-04-18T07:45:46Z</time></trkpt><trkpt lat="44.7283160534656" lon="9.964512941294661"><ele>548.6666666666666</ele><time>2026-04-18T07:45:47Z</time></trkpt><trkpt lat="44.72837215832577" lon="9.964609237387174"><ele>547.5</ele><time>2026-04-18T07:45:48Z</time></trkpt><trkpt lat="44.728429668251536" lon="9.964697258415455"><ele>546.3333333333334</ele><time>2026-04-18T07:45:49Z</time></trkpt><trkpt lat="44.728489492007334" lon="9.964786448474827"><ele>545.1666666666667</ele><time>2026-04-18T07:45:50Z</time></trkpt><trkpt lat="44.7285468208911" lon="9.964872139326967"><ele>544.0</ele><time>2026-04-18T07:45:51Z</time></trkpt><trkpt lat="44.72860191750383" lon="9.964966422313708"><ele>546.0</ele><time>2026-04-18T07:45:52Z</time></trkpt><trkpt lat="44.72864831138705" lon="9.96506122358203"><ele>548.0</ele><time>2026-04-18T07:45:53Z</time></trkpt><trkpt lat="44.72868693071658" lon="9.96516230384499"><ele>550.0</ele><time>2026-04-18T07:45:54Z</time></trkpt><trkpt lat="44.72871175603928" lon="9.965269600521637"><ele>552.0</ele><time>2026-04-18T07:45:55Z</time></trkpt><trkpt lat="44.72872796607784" lon="9.965381005993533"><ele>554.0</ele><time>2026-04-18T07:45:56Z</time></trkpt><trkpt lat="44.728738229762634" lon="9.965487333749785"><ele>556.0</ele><time>2026-04-18T07:45:57Z</time></trkpt><trkpt lat="44.728742514388266" lon="9.965589929421936"><ele>556.0</ele><time>2026-04-18T07:45:58Z</time></trkpt><trkpt lat="44.72874927080021" lon="9.965685177687174"><ele>556.0</ele><time>2026-04-18T07:45:59Z</time></trkpt><trkpt lat="44.7287364119674" lon="9.965773079684968"><ele>556.0</ele><time>2026-04-18T07:46:00Z</time></trkpt><trkpt lat="44.7287338730856" lon="9.96594336585766"><ele>556.0</ele><time>2026-04-18T07:46:02Z</time></trkpt><trkpt lat="44.7287498676997" lon="9.966102875213268"><ele>556.0</ele><time>2026-04-18T07:46:04Z</time></trkpt><trkpt lat="44.72875077354487" lon="9.96626035999754"><ele>556.0</ele><time>2026-04-18T07:46:06Z</time></trkpt><trkpt lat="44.72876352011216" lon="9.966419533008906"><ele>556.0</ele><time>2026-04-18T07:46:08Z</time></trkpt><trkpt lat="44.7287860821035" lon="9.966583734023992"><ele>556.0</ele><time>2026-04-18T07:46:10Z</time></trkpt><trkpt lat="44.72880939520478" lon="9.966764355308701"><ele>556.0</ele><time>2026-04-18T07:46:12Z</time></trkpt><trkpt lat="44.72881358366125" lon="9.96685713131316"><ele>556.0</ele><time>2026-04-18T07:46:13Z</time></trkpt><trkpt lat="44.72880815282132" lon="9.966958146180716"><ele>555.2</ele><time>2026-04-18T07:46:14Z</time></trkpt><trkpt lat="44.72879553959296" lon="9.967071555980956"><ele>554.4000000000001</ele><time>2026-04-18T07:46:15Z</time></trkpt><trkpt lat="44.72877905449857" lon="9.967200731252486"><ele>553.6</ele><time>2026-04-18T07:46:16Z</time></trkpt><trkpt lat="44.72876426905478" lon="9.967334400740064"><ele>552.8000000000001</ele><time>2026-04-18T07:46:17Z</time></trkpt><trkpt lat="44.72875363936138" lon="9.96747586926605"><ele>552.0</ele><time>2026-04-18T07:46:18Z</time></trkpt><trkpt lat="44.72872175146485" lon="9.967618530017543"><ele>551.6666666666666</ele><time>2026-04-18T07:46:19Z</time></trkpt><trkpt lat="44.7287060951464" lon="9.96775835324014"><ele>551.3333333333334</ele><time>2026-04-18T07:46:20Z</time></trkpt><trkpt lat="44.728689317599084" lon="9.967894639905154"><ele>551.0</ele><time>2026-04-18T07:46:21Z</time></trkpt><trkpt lat="44.72867462677981" lon="9.968009205488958"><ele>550.6666666666667</ele><time>2026-04-18T07:46:22Z</time></trkpt><trkpt lat="44.72865253791814" lon="9.968120855373357"><ele>550.3333333333334</ele><time>2026-04-18T07:46:23Z</time></trkpt><trkpt lat="44.728595908391064" lon="9.968206422300838"><ele>550.0</ele><time>2026-04-18T07:46:24Z</time></trkpt><trkpt lat="44.728600983622144" lon="9.968361906128463"><ele>550.5714285714286</ele><time>2026-04-18T07:46:25Z</time></trkpt><trkpt lat="44.728568992998284" lon="9.96847269492128"><ele>551.1428571428571</ele><time>2026-04-18T07:46:26Z</time></trkpt><trkpt lat="44.72854829218782" lon="9.96857773292069"><ele>551.7142857142857</ele><time>2026-04-18T07:46:27Z</time></trkpt><trkpt lat="44.72852174418417" lon="9.968672769012107"><ele>552.2857142857142</ele><time>2026-04-18T07:46:28Z</time></trkpt><trkpt lat="44.72849514016728" lon="9.968766625456682"><ele>552.8571428571428</ele><time>2026-04-18T07:46:29Z</time></trkpt><trkpt lat="44.72845597552653" lon="9.968848667606718"><ele>553.4285714285714</ele><time>2026-04-18T07:46:30Z</time></trkpt><trkpt lat="44.72843994947609" lon="9.968942808432418"><ele>554.0</ele><time>2026-04-18T07:46:30.999Z</time></trkpt><trkpt lat="44.72840630770377" lon="9.969019177092239"><ele>550.6</ele><time>2026-04-18T07:46:31.999Z</time></trkpt><trkpt lat="44.72833140139591" lon="9.969161841034259"><ele>547.2</ele><time>2026-04-18T07:46:33.999Z</time></trkpt><trkpt lat="44.72830751044799" lon="9.969247570561626"><ele>543.8000000000001</ele><time>2026-04-18T07:46:34.999Z</time></trkpt><trkpt lat="44.72828565869872" lon="9.96940493277449"><ele>540.4</ele><time>2026-04-18T07:46:36.999Z</time></trkpt><trkpt lat="44.728289498328984" lon="9.969541386192573"><ele>537.0</ele><time>2026-04-18T07:46:38.999Z</time></trkpt><trkpt lat="44.72833737041638" lon="9.969665757607103"><ele>536.75</ele><time>2026-04-18T07:46:40.999Z</time></trkpt><trkpt lat="44.72838602455737" lon="9.969732107985795"><ele>536.5</ele><time>2026-04-18T07:46:42.999Z</time></trkpt><trkpt lat="44.72845059699135" lon="9.969824050370155"><ele>536.25</ele><time>2026-04-18T07:46:45.999Z</time></trkpt><trkpt lat="44.72862009108123" lon="9.970004598644426"><ele>536.0</ele><time>2026-04-18T07:46:48.999Z</time></trkpt><trkpt lat="44.72869778093412" lon="9.97009200584794"><ele>537.8</ele><time>2026-04-18T07:46:50.999Z</time></trkpt><trkpt lat="44.72876828159298" lon="9.970191530026767"><ele>539.6</ele><time>2026-04-18T07:46:52.999Z</time></trkpt><trkpt lat="44.728822103836535" lon="9.970296232930112"><ele>541.4</ele><time>2026-04-18T07:46:54.999Z</time></trkpt><trkpt lat="44.72886073140946" lon="9.97042033441049"><ele>543.2</ele><time>2026-04-18T07:46:56.999Z</time></trkpt><trkpt lat="44.72889298410413" lon="9.970558126564757"><ele>545.0</ele><time>2026-04-18T07:46:58.999Z</time></trkpt><trkpt lat="44.72894518594401" lon="9.970704978303775"><ele>545.0</ele><time>2026-04-18T07:47:00.999Z</time></trkpt><trkpt lat="44.72902970102319" lon="9.970826883633075"><ele>545.0</ele><time>2026-04-18T07:47:02.999Z</time></trkpt><trkpt lat="44.729082477400404" lon="9.97088225276046"><ele>545.0</ele><time>2026-04-18T07:47:03.999Z</time></trkpt><trkpt lat="44.729141984041576" lon="9.970930632945151"><ele>545.0</ele><time>2026-04-18T07:47:04.999Z</time></trkpt><trkpt lat="44.729200986042024" lon="9.970973033335493"><ele>545.0</ele><time>2026-04-18T07:47:05.999Z</time></trkpt><trkpt lat="44.729258914204344" lon="9.971014748976547"><ele>545.0</ele><time>2026-04-18T07:47:06.999Z</time></trkpt><trkpt lat="44.72930338268341" lon="9.971103744359256"><ele>544.6666666666666</ele><time>2026-04-18T07:47:07.999Z</time></trkpt><trkpt lat="44.72936665312672" lon="9.971148668839588"><ele>544.3333333333333</ele><time>2026-04-18T07:47:08.999Z</time></trkpt><trkpt lat="44.729429917768535" lon="9.971191296060478"><ele>544.0</ele><time>2026-04-18T07:47:09.999Z</time></trkpt><trkpt lat="44.72954084235334" lon="9.971280590409714"><ele>543.6666666666666</ele><time>2026-04-18T07:47:11.999Z</time></trkpt><trkpt lat="44.72959480881087" lon="9.971363080958964"><ele>543.3333333333334</ele><time>2026-04-18T07:47:12.999Z</time></trkpt><trkpt lat="44.729633440047984" lon="9.971453918111296"><ele>543.0</ele><time>2026-04-18T07:47:13.999Z</time></trkpt><trkpt lat="44.72964789306188" lon="9.971565053278567"><ele>543.0</ele><time>2026-04-18T07:47:14.999Z</time></trkpt><trkpt lat="44.72964485335859" lon="9.971681237183846"><ele>543.0</ele><time>2026-04-18T07:47:15.999Z</time></trkpt><trkpt lat="44.72963074327994" lon="9.97179666882086"><ele>543.0</ele><time>2026-04-18T07:47:16.999Z</time></trkpt><trkpt lat="44.729622753990796" lon="9.971910355099272"><ele>543.0</ele><time>2026-04-18T07:47:17.999Z</time></trkpt><trkpt lat="44.72961509677026" lon="9.972017024503641"><ele>543.0</ele><time>2026-04-18T07:47:18.999Z</time></trkpt><trkpt lat="44.72960104483242" lon="9.972128205172742"><ele>543.0</ele><time>2026-04-18T07:47:19.999Z</time></trkpt><trkpt lat="44.729585309512856" lon="9.972242890657084"><ele>541.0</ele><time>2026-04-18T07:47:20.999Z</time></trkpt><trkpt lat="44.72956605925345" lon="9.972365266204836"><ele>539.0</ele><time>2026-04-18T07:47:21.999Z</time></trkpt><trkpt lat="44.72954227872174" lon="9.97247972614073"><ele>537.0</ele><time>2026-04-18T07:47:22.999Z</time></trkpt><trkpt lat="44.729511853345564" lon="9.972598502161395"><ele>535.0</ele><time>2026-04-18T07:47:23.998Z</time></trkpt><trkpt lat="44.729475720736424" lon="9.972709875372155"><ele>533.0</ele><time>2026-04-18T07:47:24.998Z</time></trkpt><trkpt lat="44.729440667101485" lon="9.972835199126665"><ele>531.0</ele><time>2026-04-18T07:47:25.998Z</time></trkpt><trkpt lat="44.729410610656146" lon="9.97294912600908"><ele>531.0</ele><time>2026-04-18T07:47:26.998Z</time></trkpt><trkpt lat="44.72937571526743" lon="9.973062399254339"><ele>531.0</ele><time>2026-04-18T07:47:27.998Z</time></trkpt><trkpt lat="44.72932922721226" lon="9.97317695572625"><ele>531.0</ele><time>2026-04-18T07:47:28.998Z</time></trkpt><trkpt lat="44.72926946576063" lon="9.973283751322056"><ele>531.0</ele><time>2026-04-18T07:47:29.998Z</time></trkpt><trkpt lat="44.72917979680015" lon="9.97335207930274"><ele>531.0</ele><time>2026-04-18T07:47:30.998Z</time></trkpt><trkpt lat="44.72910618791047" lon="9.973444644627346"><ele>530.6</ele><time>2026-04-18T07:47:31.998Z</time></trkpt><trkpt lat="44.72902302661016" lon="9.973524561145574"><ele>530.2</ele><time>2026-04-18T07:47:32.998Z</time></trkpt><trkpt lat="44.72895243703886" lon="9.97363430105371"><ele>529.8</ele><time>2026-04-18T07:47:33.998Z</time></trkpt><trkpt lat="44.728897577002535" lon="9.973768489617585"><ele>529.4</ele><time>2026-04-18T07:47:34.998Z</time></trkpt><trkpt lat="44.728912835719235" lon="9.973948503057045"><ele>529.0</ele><time>2026-04-18T07:47:35.998Z</time></trkpt><trkpt lat="44.72891731399219" lon="9.974110715296405"><ele>527.6</ele><time>2026-04-18T07:47:36.998Z</time></trkpt><trkpt lat="44.72891019754164" lon="9.974248140753865"><ele>526.2</ele><time>2026-04-18T07:47:37.998Z</time></trkpt><trkpt lat="44.728871348769275" lon="9.974388870323539"><ele>524.8000000000001</ele><time>2026-04-18T07:47:38.998Z</time></trkpt><trkpt lat="44.72877942011988" lon="9.974489571014487"><ele>523.4</ele><time>2026-04-18T07:47:39.998Z</time></trkpt><trkpt lat="44.728699811879366" lon="9.974596052980338"><ele>522.0</ele><time>2026-04-18T07:47:40.998Z</time></trkpt><trkpt lat="44.72861701896524" lon="9.97471111737315"><ele>523.25</ele><time>2026-04-18T07:47:41.998Z</time></trkpt><trkpt lat="44.72854513511481" lon="9.974840336477138"><ele>524.5</ele><time>2026-04-18T07:47:42.998Z</time></trkpt><trkpt lat="44.728496868633954" lon="9.974996098266539"><ele>525.75</ele><time>2026-04-18T07:47:43.998Z</time></trkpt><trkpt lat="44.72843185079857" lon="9.97513240737274"><ele>527.0</ele><time>2026-04-18T07:47:44.998Z</time></trkpt><trkpt lat="44.728380413042174" lon="9.97528231827615"><ele>527.0</ele><time>2026-04-18T07:47:45.998Z</time></trkpt><trkpt lat="44.728334302674924" lon="9.975435967141399"><ele>527.0</ele><time>2026-04-18T07:47:46.998Z</time></trkpt><trkpt lat="44.72829197068493" lon="9.97560316139884"><ele>527.0</ele><time>2026-04-18T07:47:48Z</time></trkpt><trkpt lat="44.72826442988066" lon="9.975771970798386"><ele>527.0</ele><time>2026-04-18T07:47:49Z</time></trkpt><trkpt lat="44.72825205530369" lon="9.975942617710883"><ele>525.75</ele><time>2026-04-18T07:47:50Z</time></trkpt><trkpt lat="44.728245401840184" lon="9.976118794475903"><ele>524.5</ele><time>2026-04-18T07:47:51Z</time></trkpt><trkpt lat="44.72823379281279" lon="9.976284407095278"><ele>523.25</ele><time>2026-04-18T07:47:52Z</time></trkpt><trkpt lat="44.728235652953344" lon="9.976450866819494"><ele>522.0</ele><time>2026-04-18T07:47:53Z</time></trkpt><trkpt lat="44.72826477470897" lon="9.976614020477037"><ele>520.6</ele><time>2026-04-18T07:47:54Z</time></trkpt><trkpt lat="44.728319852747745" lon="9.976761651307545"><ele>519.2</ele><time>2026-04-18T07:47:55Z</time></trkpt><trkpt lat="44.728363797837964" lon="9.976908128484792"><ele>517.8</ele><time>2026-04-18T07:47:56Z</time></trkpt><trkpt lat="44.72836493664002" lon="9.977046569166989"><ele>516.4</ele><time>2026-04-18T07:47:57Z</time></trkpt><trkpt lat="44.72833554652827" lon="9.97717981429892"><ele>515.0</ele><time>2026-04-18T07:47:58Z</time></trkpt><trkpt lat="44.72826024552018" lon="9.977278555445183"><ele>515.0</ele><time>2026-04-18T07:47:59Z</time></trkpt><trkpt lat="44.7281656954153" lon="9.977333387267981"><ele>515.0</ele><time>2026-04-18T07:48:00Z</time></trkpt><trkpt lat="44.72806619330452" lon="9.97739029729934"><ele>515.0</ele><time>2026-04-18T07:48:01Z</time></trkpt><trkpt lat="44.72795053844818" lon="9.9774595216325"><ele>515.0</ele><time>2026-04-18T07:48:02Z</time></trkpt><trkpt lat="44.72784056020779" lon="9.97752473322505"><ele>514.2</ele><time>2026-04-18T07:48:03Z</time></trkpt><trkpt lat="44.7277308261241" lon="9.977575483252789"><ele>513.4</ele><time>2026-04-18T07:48:04Z</time></trkpt><trkpt lat="44.72762741051669" lon="9.977587162943843"><ele>512.6</ele><time>2026-04-18T07:48:05Z</time></trkpt><trkpt lat="44.727521883909375" lon="9.977559206343892"><ele>511.8</ele><time>2026-04-18T07:48:06Z</time></trkpt><trkpt lat="44.72743773575095" lon="9.977445902039452"><ele>511.0</ele><time>2026-04-18T07:48:07Z</time></trkpt><trkpt lat="44.72733760707046" lon="9.97737444599774"><ele>511.0</ele><time>2026-04-18T07:48:08Z</time></trkpt><trkpt lat="44.72723958050722" lon="9.977286405379958"><ele>511.0</ele><time>2026-04-18T07:48:09Z</time></trkpt><trkpt lat="44.72713104171165" lon="9.977237175098105"><ele>511.0</ele><time>2026-04-18T07:48:10Z</time></trkpt><trkpt lat="44.72702472534403" lon="9.977191854903012"><ele>511.0</ele><time>2026-04-18T07:48:11Z</time></trkpt><trkpt lat="44.72691127902884" lon="9.977166847818218"><ele>508.75</ele><time>2026-04-18T07:48:12Z</time></trkpt><trkpt lat="44.72679409436907" lon="9.977140069380969"><ele>506.5</ele><time>2026-04-18T07:48:13Z</time></trkpt><trkpt lat="44.726678657789456" lon="9.977119457844747"><ele>504.25</ele><time>2026-04-18T07:48:14Z</time></trkpt><trkpt lat="44.72655817598088" lon="9.977114473607118"><ele>502.0</ele><time>2026-04-18T07:48:15Z</time></trkpt><trkpt lat="44.72643302015174" lon="9.97712612747615"><ele>502.0</ele><time>2026-04-18T07:48:16Z</time></trkpt><trkpt lat="44.726313865884116" lon="9.977144438006057"><ele>502.00000000000006</ele><time>2026-04-18T07:48:17Z</time></trkpt><trkpt lat="44.726199280508894" lon="9.977160567848557"><ele>502.00000000000006</ele><time>2026-04-18T07:48:18Z</time></trkpt><trkpt lat="44.72609326870648" lon="9.977161022145998"><ele>502.0</ele><time>2026-04-18T07:48:19Z</time></trkpt><trkpt lat="44.72599485052651" lon="9.977134871416668"><ele>502.0</ele><time>2026-04-18T07:48:20Z</time></trkpt><trkpt lat="44.72590032959534" lon="9.977087147036201"><ele>501.75</ele><time>2026-04-18T07:48:21Z</time></trkpt><trkpt lat="44.72581128263185" lon="9.976984260150918"><ele>501.5</ele><time>2026-04-18T07:48:22Z</time></trkpt><trkpt lat="44.725702013624215" lon="9.97685769625299"><ele>501.25</ele><time>2026-04-18T07:48:23Z</time></trkpt><trkpt lat="44.72561258940903" lon="9.976747581138357"><ele>501.0</ele><time>2026-04-18T07:48:24Z</time></trkpt><trkpt lat="44.72551277665379" lon="9.97664271754405"><ele>501.0</ele><time>2026-04-18T07:48:25Z</time></trkpt><trkpt lat="44.72540160213878" lon="9.976563957348985"><ele>501.0</ele><time>2026-04-18T07:48:26Z</time></trkpt><trkpt lat="44.725281330992686" lon="9.97653475563244"><ele>501.0</ele><time>2026-04-18T07:48:27Z</time></trkpt><trkpt lat="44.72512761767584" lon="9.976648607317054"><ele>501.0</ele><time>2026-04-18T07:48:28Z</time></trkpt><trkpt lat="44.72503628566616" lon="9.97677457729675"><ele>497.75</ele><time>2026-04-18T07:48:29Z</time></trkpt><trkpt lat="44.72502763970964" lon="9.97707769357854"><ele>494.5</ele><time>2026-04-18T07:48:30Z</time></trkpt><trkpt lat="44.724997995624214" lon="9.977232575630895"><ele>491.25</ele><time>2026-04-18T07:48:31Z</time></trkpt><trkpt lat="44.72497107868661" lon="9.977380605472549"><ele>488.0</ele><time>2026-04-18T07:48:32Z</time></trkpt><trkpt lat="44.72494634296006" lon="9.977516768484444"><ele>487.59999999999997</ele><time>2026-04-18T07:48:33Z</time></trkpt><trkpt lat="44.72491933611605" lon="9.97766345103347"><ele>487.19999999999993</ele><time>2026-04-18T07:48:34Z</time></trkpt><trkpt lat="44.72488707048206" lon="9.9778116381983"><ele>486.8</ele><time>2026-04-18T07:48:35Z</time></trkpt><trkpt lat="44.72484527436048" lon="9.977948648262153"><ele>486.4</ele><time>2026-04-18T07:48:35.999Z</time></trkpt><trkpt lat="44.72478738409464" lon="9.978077900309382"><ele>486.0</ele><time>2026-04-18T07:48:36.999Z</time></trkpt><trkpt lat="44.72471585312693" lon="9.978199215076673"><ele>486.0</ele><time>2026-04-18T07:48:37.999Z</time></trkpt><trkpt lat="44.72463383366646" lon="9.978305412119028"><ele>486.0</ele><time>2026-04-18T07:48:38.999Z</time></trkpt><trkpt lat="44.724546621037845" lon="9.978410260387077"><ele>486.0</ele><time>2026-04-18T07:48:39.999Z</time></trkpt><trkpt lat="44.7244581595113" lon="9.978511418080105"><ele>486.0</ele><time>2026-04-18T07:48:40.999Z</time></trkpt><trkpt lat="44.72436697577477" lon="9.978616048056491"><ele>483.75</ele><time>2026-04-18T07:48:41.999Z</time></trkpt><trkpt lat="44.72427660512529" lon="9.978721993745577"><ele>481.5</ele><time>2026-04-18T07:48:42.999Z</time></trkpt><trkpt lat="44.72418976485891" lon="9.978830918948251"><ele>479.25</ele><time>2026-04-18T07:48:43.999Z</time></trkpt><trkpt lat="44.7241081392039" lon="9.978942163359577"><ele>477.0</ele><time>2026-04-18T07:48:44.999Z</time></trkpt><trkpt lat="44.724030998891074" lon="9.979054470841076"><ele>477.0</ele><time>2026-04-18T07:48:45.999Z</time></trkpt><trkpt lat="44.72395732341593" lon="9.979161970067961"><ele>477.00000000000006</ele><time>2026-04-18T07:48:46.999Z</time></trkpt><trkpt lat="44.72388482500814" lon="9.979268973906672"><ele>477.00000000000006</ele><time>2026-04-18T07:48:47.999Z</time></trkpt><trkpt lat="44.72381324915554" lon="9.979375899878322"><ele>477.0</ele><time>2026-04-18T07:48:48.999Z</time></trkpt><trkpt lat="44.723745433147435" lon="9.979478537391232"><ele>477.0</ele><time>2026-04-18T07:48:49.999Z</time></trkpt><trkpt lat="44.72367655369268" lon="9.97958278445064"><ele>477.20000000000005</ele><time>2026-04-18T07:48:50.999Z</time></trkpt><trkpt lat="44.72360842272019" lon="9.979685898692512"><ele>477.40000000000003</ele><time>2026-04-18T07:48:51.999Z</time></trkpt><trkpt lat="44.72354346042695" lon="9.979784217203497"><ele>477.59999999999997</ele><time>2026-04-18T07:48:52.999Z</time></trkpt><trkpt lat="44.72347737952837" lon="9.979885236185059"><ele>477.79999999999995</ele><time>2026-04-18T07:48:53.999Z</time></trkpt><trkpt lat="44.72341642491202" lon="9.979976177732878"><ele>478.0</ele><time>2026-04-18T07:48:54.999Z</time></trkpt><trkpt lat="44.723350505817955" lon="9.98006655862708"><ele>475.6666666666667</ele><time>2026-04-18T07:48:55.999Z</time></trkpt><trkpt lat="44.72328428685094" lon="9.980151134622472"><ele>473.33333333333337</ele><time>2026-04-18T07:48:56.999Z</time></trkpt><trkpt lat="44.72321023989583" lon="9.980210037724056"><ele>471.0</ele><time>2026-04-18T07:48:57.999Z</time></trkpt><trkpt lat="44.72312886129193" lon="9.980242418177108"><ele>468.66666666666663</ele><time>2026-04-18T07:48:58.999Z</time></trkpt><trkpt lat="44.72305100658468" lon="9.980242249576547"><ele>466.3333333333333</ele><time>2026-04-18T07:48:59.999Z</time></trkpt><trkpt lat="44.72296611457863" lon="9.980223119381012"><ele>464.0</ele><time>2026-04-18T07:49:00.999Z</time></trkpt><trkpt lat="44.72287703702104" lon="9.980195431676217"><ele>464.0</ele><time>2026-04-18T07:49:01.999Z</time></trkpt><trkpt lat="44.72278880415997" lon="9.9801672308371"><ele>464.0</ele><time>2026-04-18T07:49:02.999Z</time></trkpt><trkpt lat="44.72269683095922" lon="9.980142101737089"><ele>464.0</ele><time>2026-04-18T07:49:03.999Z</time></trkpt><trkpt lat="44.72260455419264" lon="9.980131874080868"><ele>464.0</ele><time>2026-04-18T07:49:04.999Z</time></trkpt><trkpt lat="44.72250941967425" lon="9.980142428143328"><ele>464.0</ele><time>2026-04-18T07:49:05.999Z</time></trkpt><trkpt lat="44.722415458266816" lon="9.980176773984196"><ele>464.4</ele><time>2026-04-18T07:49:06.999Z</time></trkpt><trkpt lat="44.72232517133417" lon="9.980231192967635"><ele>464.79999999999995</ele><time>2026-04-18T07:49:07.999Z</time></trkpt><trkpt lat="44.722244044625015" lon="9.980302054016688"><ele>465.20000000000005</ele><time>2026-04-18T07:49:08.999Z</time></trkpt><trkpt lat="44.722172544778545" lon="9.980383423720939"><ele>465.6</ele><time>2026-04-18T07:49:09.999Z</time></trkpt><trkpt lat="44.72211154849182" lon="9.980470856867006"><ele>466.0</ele><time>2026-04-18T07:49:10.999Z</time></trkpt><trkpt lat="44.722049968110774" lon="9.980550052572285"><ele>466.00000000000006</ele><time>2026-04-18T07:49:11.999Z</time></trkpt><trkpt lat="44.721990726349865" lon="9.980610846097575"><ele>466.0</ele><time>2026-04-18T07:49:12.999Z</time></trkpt><trkpt lat="44.72191778782655" lon="9.980671626132276"><ele>466.0</ele><time>2026-04-18T07:49:13.999Z</time></trkpt><trkpt lat="44.72184200605368" lon="9.980716552546795"><ele>466.0</ele><time>2026-04-18T07:49:14.999Z</time></trkpt><trkpt lat="44.721771466716135" lon="9.98072129516323"><ele>466.00000000000006</ele><time>2026-04-18T07:49:15.999Z</time></trkpt><trkpt lat="44.721682088362996" lon="9.980741645420492"><ele>466.0</ele><time>2026-04-18T07:49:16.999Z</time></trkpt><trkpt lat="44.721592148591675" lon="9.980759474071379"><ele>467.20000000000005</ele><time>2026-04-18T07:49:17.999Z</time></trkpt><trkpt lat="44.721507417948665" lon="9.980775842300048"><ele>468.40000000000003</ele><time>2026-04-18T07:49:18.999Z</time></trkpt><trkpt lat="44.72141713027019" lon="9.980790832891323"><ele>469.6</ele><time>2026-04-18T07:49:19.999Z</time></trkpt><trkpt lat="44.72133000575005" lon="9.980805298165514"><ele>470.8</ele><time>2026-04-18T07:49:20.999Z</time></trkpt><trkpt lat="44.72123813780212" lon="9.980817806002982"><ele>472.0</ele><time>2026-04-18T07:49:21.999Z</time></trkpt><trkpt lat="44.721143737311145" lon="9.980829945257389"><ele>472.40000000000003</ele><time>2026-04-18T07:49:22.999Z</time></trkpt><trkpt lat="44.721048294723346" lon="9.980840062338979"><ele>472.80000000000007</ele><time>2026-04-18T07:49:23.999Z</time></trkpt><trkpt lat="44.720951853474254" lon="9.980849278565058"><ele>473.2</ele><time>2026-04-18T07:49:24.999Z</time></trkpt><trkpt lat="44.720850443553736" lon="9.980858969608276"><ele>473.6</ele><time>2026-04-18T07:49:25.999Z</time></trkpt><trkpt lat="44.72074737069721" lon="9.980869096151254"><ele>474.0</ele><time>2026-04-18T07:49:26.999Z</time></trkpt><trkpt lat="44.720635858883874" lon="9.980882737681537"><ele>472.25</ele><time>2026-04-18T07:49:27.999Z</time></trkpt><trkpt lat="44.72051802935649" lon="9.980914554637767"><ele>470.5</ele><time>2026-04-18T07:49:28.998Z</time></trkpt><trkpt lat="44.72040270811335" lon="9.980984881602119"><ele>468.75</ele><time>2026-04-18T07:49:29.998Z</time></trkpt><trkpt lat="44.72030095265924" lon="9.98110619303791"><ele>467.0</ele><time>2026-04-18T07:49:30.998Z</time></trkpt><trkpt lat="44.7202238739541" lon="9.981255408786945"><ele>467.0</ele><time>2026-04-18T07:49:31.998Z</time></trkpt><trkpt lat="44.72015471939618" lon="9.981397499820632"><ele>467.0</ele><time>2026-04-18T07:49:32.998Z</time></trkpt><trkpt lat="44.72007870270304" lon="9.981531957612141"><ele>467.0</ele><time>2026-04-18T07:49:33.998Z</time></trkpt><trkpt lat="44.719996154485955" lon="9.981639893034945"><ele>467.0</ele><time>2026-04-18T07:49:34.998Z</time></trkpt><trkpt lat="44.71990041909226" lon="9.981708788112543"><ele>462.8</ele><time>2026-04-18T07:49:35.998Z</time></trkpt><trkpt lat="44.71980460206218" lon="9.98177850914162"><ele>458.6</ele><time>2026-04-18T07:49:36.998Z</time></trkpt><trkpt lat="44.719707292954666" lon="9.981849125733435"><ele>454.40000000000003</ele><time>2026-04-18T07:49:37.998Z</time></trkpt><trkpt lat="44.719611282856334" lon="9.981918799615894"><ele>450.20000000000005</ele><time>2026-04-18T07:49:38.998Z</time></trkpt><trkpt lat="44.71951412714701" lon="9.981984711450496"><ele>446.0</ele><time>2026-04-18T07:49:39.998Z</time></trkpt><trkpt lat="44.71941092606537" lon="9.982025507637006"><ele>445.8</ele><time>2026-04-18T07:49:40.998Z</time></trkpt><trkpt lat="44.71930593934405" lon="9.98200465614555"><ele>445.6</ele><time>2026-04-18T07:49:41.998Z</time></trkpt><trkpt lat="44.719213039383526" lon="9.981935456717402"><ele>445.4</ele><time>2026-04-18T07:49:42.998Z</time></trkpt><trkpt lat="44.7191111612598" lon="9.981842957768537"><ele>445.2</ele><time>2026-04-18T07:49:43.998Z</time></trkpt><trkpt lat="44.71902760465971" lon="9.98177895080199"><ele>445.0</ele><time>2026-04-18T07:49:44.998Z</time></trkpt><trkpt lat="44.718927099471394" lon="9.981725134793647"><ele>450.5</ele><time>2026-04-18T07:49:45.998Z</time></trkpt><trkpt lat="44.71882785034608" lon="9.981681585880766"><ele>456.0</ele><time>2026-04-18T07:49:46.998Z</time></trkpt><trkpt lat="44.71871673712941" lon="9.981642732997635"><ele>461.5</ele><time>2026-04-18T07:49:47.998Z</time></trkpt><trkpt lat="44.71860002193361" lon="9.981622774529994"><ele>467.0</ele><time>2026-04-18T07:49:48.998Z</time></trkpt><trkpt lat="44.71845584921208" lon="9.981620288376373"><ele>467.0</ele><time>2026-04-18T07:49:49.998Z</time></trkpt><trkpt lat="44.71833875119589" lon="9.981627333363205"><ele>467.0</ele><time>2026-04-18T07:49:50.998Z</time></trkpt><trkpt lat="44.71820729525768" lon="9.981651381527865"><ele>467.0</ele><time>2026-04-18T07:49:51.998Z</time></trkpt><trkpt lat="44.71807243436594" lon="9.981703737553268"><ele>467.0</ele><time>2026-04-18T07:49:52.998Z</time></trkpt><trkpt lat="44.71794279892809" lon="9.98177911643337"><ele>459.0</ele><time>2026-04-18T07:49:54Z</time></trkpt><trkpt lat="44.71782818485801" lon="9.981867893186951"><ele>451.0</ele><time>2026-04-18T07:49:55Z</time></trkpt><trkpt lat="44.71773356594852" lon="9.981940035066934"><ele>443.0</ele><time>2026-04-18T07:49:56Z</time></trkpt><trkpt lat="44.71764523309254" lon="9.981991142648551"><ele>435.0</ele><time>2026-04-18T07:49:57Z</time></trkpt><trkpt lat="44.71749392041472" lon="9.981961892352588"><ele>435.0</ele><time>2026-04-18T07:49:59Z</time></trkpt><trkpt lat="44.71735711509358" lon="9.981934951367307"><ele>435.0</ele><time>2026-04-18T07:50:00Z</time></trkpt><trkpt lat="44.71720219967741" lon="9.981958214739725"><ele>435.0</ele><time>2026-04-18T07:50:01Z</time></trkpt><trkpt lat="44.71707523452569" lon="9.982012504360839"><ele>435.0</ele><time>2026-04-18T07:50:02Z</time></trkpt><trkpt lat="44.71694764330463" lon="9.982069248229978"><ele>436.5</ele><time>2026-04-18T07:50:03Z</time></trkpt><trkpt lat="44.7168164858943" lon="9.982144237652358"><ele>438.0</ele><time>2026-04-18T07:50:04Z</time></trkpt><trkpt lat="44.71668816235991" lon="9.982261628921334"><ele>439.5</ele><time>2026-04-18T07:50:05Z</time></trkpt><trkpt lat="44.716598305788885" lon="9.982380279659722"><ele>441.0</ele><time>2026-04-18T07:50:06Z</time></trkpt><trkpt lat="44.716518485898895" lon="9.982458327117465"><ele>441.0</ele><time>2026-04-18T07:50:07Z</time></trkpt><trkpt lat="44.716434569104266" lon="9.982512861517748"><ele>441.0</ele><time>2026-04-18T07:50:08Z</time></trkpt><trkpt lat="44.7163351708069" lon="9.982564508833693"><ele>441.0</ele><time>2026-04-18T07:50:09Z</time></trkpt><trkpt lat="44.716236901046294" lon="9.982592464246174"><ele>441.0</ele><time>2026-04-18T07:50:10Z</time></trkpt><trkpt lat="44.716151133575636" lon="9.982583998446598"><ele>441.0</ele><time>2026-04-18T07:50:11Z</time></trkpt><trkpt lat="44.716052802645144" lon="9.982559500374311"><ele>440.20000000000005</ele><time>2026-04-18T07:50:12Z</time></trkpt><trkpt lat="44.715962885303" lon="9.982523107132907"><ele>439.40000000000003</ele><time>2026-04-18T07:50:13Z</time></trkpt><trkpt lat="44.715862113217014" lon="9.982444758190386"><ele>438.6</ele><time>2026-04-18T07:50:15Z</time></trkpt><trkpt lat="44.71585164605895" lon="9.982282396114584"><ele>437.8</ele><time>2026-04-18T07:50:17Z</time></trkpt><trkpt lat="44.715849859546765" lon="9.982139149087288"><ele>437.0</ele><time>2026-04-18T07:50:18Z</time></trkpt><trkpt lat="44.7158328642502" lon="9.98203689438743"><ele>437.0</ele><time>2026-04-18T07:50:19Z</time></trkpt><trkpt lat="44.715815383623834" lon="9.981939924958388"><ele>437.00000000000006</ele><time>2026-04-18T07:50:20Z</time></trkpt><trkpt lat="44.7158302777129" lon="9.981772129461667"><ele>437.00000000000006</ele><time>2026-04-18T07:50:21Z</time></trkpt><trkpt lat="44.715800721162786" lon="9.981690307494036"><ele>437.0</ele><time>2026-04-18T07:50:22Z</time></trkpt><trkpt lat="44.71575557213226" lon="9.981591620605613"><ele>437.0</ele><time>2026-04-18T07:50:23Z</time></trkpt><trkpt lat="44.71567363681471" lon="9.981446911466612"><ele>442.3333333333333</ele><time>2026-04-18T07:50:24Z</time></trkpt><trkpt lat="44.715553283526404" lon="9.98129811198935"><ele>447.66666666666663</ele><time>2026-04-18T07:50:25Z</time></trkpt><trkpt lat="44.71538225374657" lon="9.981185978085374"><ele>453.0</ele><time>2026-04-18T07:50:26Z</time></trkpt><trkpt lat="44.715256078218765" lon="9.981149169544027"><ele>448.6666666666667</ele><time>2026-04-18T07:50:27Z</time></trkpt><trkpt lat="44.71516107312019" lon="9.981131152728945"><ele>444.33333333333337</ele><time>2026-04-18T07:50:28Z</time></trkpt><trkpt lat="44.715070408085246" lon="9.981113958976502"><ele>440.0</ele><time>2026-04-18T07:50:29Z</time></trkpt><trkpt lat="44.71500372474684" lon="9.981115447214345"><ele>435.6666666666667</ele><time>2026-04-18T07:50:31Z</time></trkpt><trkpt lat="44.714921983346166" lon="9.981097733607626"><ele>431.33333333333337</ele><time>2026-04-18T07:50:33Z</time></trkpt><trkpt lat="44.71486640319242" lon="9.981045238621128"><ele>427.0</ele><time>2026-04-18T07:50:34Z</time></trkpt><trkpt lat="44.714815384327785" lon="9.98095502708288"><ele>427.0</ele><time>2026-04-18T07:50:35Z</time></trkpt><trkpt lat="44.714765741003234" lon="9.980867247450435"><ele>427.00000000000006</ele><time>2026-04-18T07:50:36Z</time></trkpt><trkpt lat="44.71474016418128" lon="9.980717522012478"><ele>427.00000000000006</ele><time>2026-04-18T07:50:37Z</time></trkpt><trkpt lat="44.714672174577125" lon="9.980582628830645"><ele>427.0</ele><time>2026-04-18T07:50:38Z</time></trkpt><trkpt lat="44.714620223184305" lon="9.980495503435664"><ele>427.0</ele><time>2026-04-18T07:50:39Z</time></trkpt><trkpt lat="44.714547900788375" lon="9.98041056921255"><ele>426.25</ele><time>2026-04-18T07:50:40Z</time></trkpt><trkpt lat="44.71448065484829" lon="9.98033159657495"><ele>425.5</ele><time>2026-04-18T07:50:41Z</time></trkpt><trkpt lat="44.71425598829509" lon="9.980490553514672"><ele>424.75</ele><time>2026-04-18T07:50:41.999Z</time></trkpt><trkpt lat="44.71419532024493" lon="9.980363681569887"><ele>424.0</ele><time>2026-04-18T07:50:42.999Z</time></trkpt><trkpt lat="44.714134119933064" lon="9.98024065442999"><ele>429.25</ele><time>2026-04-18T07:50:43.999Z</time></trkpt><trkpt lat="44.71418194472753" lon="9.97999348082086"><ele>434.5</ele><time>2026-04-18T07:50:44.999Z</time></trkpt><trkpt lat="44.71411066968776" lon="9.979886859080276"><ele>439.75</ele><time>2026-04-18T07:50:45.999Z</time></trkpt><trkpt lat="44.71405344576025" lon="9.979788090606064"><ele>445.0</ele><time>2026-04-18T07:50:46.999Z</time></trkpt><trkpt lat="44.71396768450671" lon="9.979602361506839"><ele>445.0</ele><time>2026-04-18T07:50:47.999Z</time></trkpt><trkpt lat="44.71390968419132" lon="9.979460897970151"><ele>445.0</ele><time>2026-04-18T07:50:48.999Z</time></trkpt><trkpt lat="44.713854602376486" lon="9.97933196249607"><ele>445.0</ele><time>2026-04-18T07:50:49.999Z</time></trkpt><trkpt lat="44.71379617014328" lon="9.97920281195467"><ele>445.0</ele><time>2026-04-18T07:50:50.999Z</time></trkpt><trkpt lat="44.71364657570263" lon="9.979165443293455"><ele>439.75</ele><time>2026-04-18T07:50:51.999Z</time></trkpt><trkpt lat="44.71355559391568" lon="9.979058742152725"><ele>434.5</ele><time>2026-04-18T07:50:52.999Z</time></trkpt><trkpt lat="44.71345620172711" lon="9.97897725510975"><ele>429.25</ele><time>2026-04-18T07:50:53.999Z</time></trkpt><trkpt lat="44.713345101320684" lon="9.978922338276519"><ele>424.0</ele><time>2026-04-18T07:50:54.999Z</time></trkpt><trkpt lat="44.713232279597605" lon="9.97889199491753"><ele>424.0</ele><time>2026-04-18T07:50:55.999Z</time></trkpt><trkpt lat="44.713125199299384" lon="9.978876886524874"><ele>424.0</ele><time>2026-04-18T07:50:56.999Z</time></trkpt><trkpt lat="44.71301840122956" lon="9.97885652279409"><ele>424.0</ele><time>2026-04-18T07:50:57.999Z</time></trkpt><trkpt lat="44.71296114387733" lon="9.978538389346678"><ele>424.0</ele><time>2026-04-18T07:50:58.999Z</time></trkpt><trkpt lat="44.71285866385847" lon="9.978501741044258"><ele>424.0</ele><time>2026-04-18T07:50:59.999Z</time></trkpt><trkpt lat="44.712758905976514" lon="9.978455590202977"><ele>424.0</ele><time>2026-04-18T07:51:00.999Z</time></trkpt><trkpt lat="44.7126659972644" lon="9.978408360304549"><ele>424.0</ele><time>2026-04-18T07:51:01.999Z</time></trkpt><trkpt lat="44.71258161571527" lon="9.978352447331043"><ele>424.0</ele><time>2026-04-18T07:51:02.999Z</time></trkpt><trkpt lat="44.712506413650914" lon="9.9782751349222"><ele>424.0</ele><time>2026-04-18T07:51:03.999Z</time></trkpt><trkpt lat="44.71243177864518" lon="9.978169387507466"><ele>423.0</ele><time>2026-04-18T07:51:04.999Z</time></trkpt><trkpt lat="44.712371660125946" lon="9.978058334830958"><ele>422.0</ele><time>2026-04-18T07:51:05.999Z</time></trkpt><trkpt lat="44.71230653043131" lon="9.977916246840476"><ele>421.0</ele><time>2026-04-18T07:51:06.999Z</time></trkpt><trkpt lat="44.712233715208264" lon="9.977762164438012"><ele>420.0</ele><time>2026-04-18T07:51:07.999Z</time></trkpt><trkpt lat="44.71206068128765" lon="9.977611754783492"><ele>419.66666666666663</ele><time>2026-04-18T07:51:08.999Z</time></trkpt><trkpt lat="44.711843915001324" lon="9.977709616267411"><ele>419.3333333333333</ele><time>2026-04-18T07:51:09.999Z</time></trkpt><trkpt lat="44.71173774888222" lon="9.977872474349367"><ele>419.0</ele><time>2026-04-18T07:51:10.999Z</time></trkpt><trkpt lat="44.71167384532653" lon="9.97796938426293"><ele>418.99999999999994</ele><time>2026-04-18T07:51:11.999Z</time></trkpt><trkpt lat="44.711614515442584" lon="9.978058167739745"><ele>419.0</ele><time>2026-04-18T07:51:12.999Z</time></trkpt><trkpt lat="44.71156041615908" lon="9.978119003236893"><ele>419.0</ele><time>2026-04-18T07:51:13.999Z</time></trkpt><trkpt lat="44.711494155869815" lon="9.978177505343497"><ele>419.0</ele><time>2026-04-18T07:51:14.999Z</time></trkpt><trkpt lat="44.7114158345493" lon="9.978224023974581"><ele>418.99999999999994</ele><time>2026-04-18T07:51:15.999Z</time></trkpt><trkpt lat="44.711337028366486" lon="9.978253024710426"><ele>419.0</ele><time>2026-04-18T07:51:16.999Z</time></trkpt><trkpt lat="44.71127339695469" lon="9.978238933021176"><ele>418.99999999999994</ele><time>2026-04-18T07:51:17.999Z</time></trkpt><trkpt lat="44.7111917429742" lon="9.97822131418185"><ele>419.0</ele><time>2026-04-18T07:51:18.999Z</time></trkpt><trkpt lat="44.711112146851065" lon="9.978163109688623"><ele>419.0</ele><time>2026-04-18T07:51:19.999Z</time></trkpt><trkpt lat="44.711057978741756" lon="9.978102349643098"><ele>419.0</ele><time>2026-04-18T07:51:20.999Z</time></trkpt><trkpt lat="44.710995931708204" lon="9.97800393903509"><ele>418.99999999999994</ele><time>2026-04-18T07:51:21.999Z</time></trkpt><trkpt lat="44.71094928622772" lon="9.977897648044149"><ele>419.0</ele><time>2026-04-18T07:51:22.999Z</time></trkpt><trkpt lat="44.71093959096053" lon="9.977769063418172"><ele>418.79999999999995</ele><time>2026-04-18T07:51:23.999Z</time></trkpt><trkpt lat="44.71093525471433" lon="9.977624263935782"><ele>418.59999999999997</ele><time>2026-04-18T07:51:24.999Z</time></trkpt><trkpt lat="44.710921254408966" lon="9.977490973067612"><ele>418.4</ele><time>2026-04-18T07:51:25.999Z</time></trkpt><trkpt lat="44.71088441045636" lon="9.977344605911714"><ele>418.2</ele><time>2026-04-18T07:51:26.999Z</time></trkpt><trkpt lat="44.71087031368478" lon="9.977198914484365"><ele>418.0</ele><time>2026-04-18T07:51:27.999Z</time></trkpt><trkpt lat="44.71081556313801" lon="9.977062060571267"><ele>417.4</ele><time>2026-04-18T07:51:28.999Z</time></trkpt><trkpt lat="44.710749858617866" lon="9.976940245750274"><ele>416.79999999999995</ele><time>2026-04-18T07:51:29.999Z</time></trkpt><trkpt lat="44.71068354969263" lon="9.976835368460454"><ele>416.2</ele><time>2026-04-18T07:51:30.999Z</time></trkpt><trkpt lat="44.710615379233055" lon="9.976728552516711"><ele>415.6</ele><time>2026-04-18T07:51:31.999Z</time></trkpt><trkpt lat="44.71053676487268" lon="9.976618912905003"><ele>415.0</ele><time>2026-04-18T07:51:32.999Z</time></trkpt><trkpt lat="44.710442098246496" lon="9.976522328546439"><ele>414.0</ele><time>2026-04-18T07:51:33.999Z</time></trkpt><trkpt lat="44.7103371263264" lon="9.976455136825155"><ele>413.0</ele><time>2026-04-18T07:51:34.999Z</time></trkpt><trkpt lat="44.710226665129184" lon="9.976417482327363"><ele>412.0</ele><time>2026-04-18T07:51:35.998Z</time></trkpt><trkpt lat="44.71010427246682" lon="9.976400855153154"><ele>411.0</ele><time>2026-04-18T07:51:36.998Z</time></trkpt><trkpt lat="44.709973359520575" lon="9.976428922665333"><ele>411.0</ele><time>2026-04-18T07:51:37.998Z</time></trkpt><trkpt lat="44.70984409563825" lon="9.97651556999097"><ele>411.0</ele><time>2026-04-18T07:51:38.998Z</time></trkpt><trkpt lat="44.709746675965" lon="9.976611975701186"><ele>411.0</ele><time>2026-04-18T07:51:39.998Z</time></trkpt><trkpt lat="44.70967211015339" lon="9.976816259283394"><ele>411.0</ele><time>2026-04-18T07:51:40.998Z</time></trkpt><trkpt lat="44.70970027659073" lon="9.977055071562212"><ele>411.20000000000005</ele><time>2026-04-18T07:51:41.998Z</time></trkpt><trkpt lat="44.70972978934838" lon="9.977210493734514"><ele>411.40000000000003</ele><time>2026-04-18T07:51:42.998Z</time></trkpt><trkpt lat="44.70977231526492" lon="9.977350110361783"><ele>411.6</ele><time>2026-04-18T07:51:43.998Z</time></trkpt><trkpt lat="44.70980875398055" lon="9.97747957180163"><ele>411.8</ele><time>2026-04-18T07:51:44.998Z</time></trkpt><trkpt lat="44.70985967727413" lon="9.977601157192542"><ele>412.0</ele><time>2026-04-18T07:51:45.998Z</time></trkpt><trkpt lat="44.70991446242047" lon="9.977730602698145"><ele>410.40000000000003</ele><time>2026-04-18T07:51:46.998Z</time></trkpt><trkpt lat="44.709916664386796" lon="9.97787775331554"><ele>408.8</ele><time>2026-04-18T07:51:47.998Z</time></trkpt><trkpt lat="44.70991286219924" lon="9.978031736795842"><ele>407.2</ele><time>2026-04-18T07:51:48.998Z</time></trkpt><trkpt lat="44.70991155330764" lon="9.978188232373157"><ele>405.6</ele><time>2026-04-18T07:51:49.998Z</time></trkpt><trkpt lat="44.709911553306014" lon="9.97834608068359"><ele>404.0</ele><time>2026-04-18T07:51:50.998Z</time></trkpt><trkpt lat="44.70992223579416" lon="9.978507947668751"><ele>402.6</ele><time>2026-04-18T07:51:51.998Z</time></trkpt><trkpt lat="44.70995398202701" lon="9.978659468201439"><ele>401.2</ele><time>2026-04-18T07:51:52.998Z</time></trkpt><trkpt lat="44.7099930552454" lon="9.97880709861883"><ele>399.8</ele><time>2026-04-18T07:51:53.998Z</time></trkpt><trkpt lat="44.71004293090451" lon="9.978942661176847"><ele>398.40000000000003</ele><time>2026-04-18T07:51:54.998Z</time></trkpt><trkpt lat="44.7100902704283" lon="9.979081744760188"><ele>397.0</ele><time>2026-04-18T07:51:55.998Z</time></trkpt><trkpt lat="44.71012213141909" lon="9.979230968480417"><ele>396.0</ele><time>2026-04-18T07:51:56.998Z</time></trkpt><trkpt lat="44.710118490688714" lon="9.979389714016836"><ele>395.0</ele><time>2026-04-18T07:51:57.998Z</time></trkpt><trkpt lat="44.710141543912876" lon="9.979545786866048"><ele>394.0</ele><time>2026-04-18T07:51:58.998Z</time></trkpt><trkpt lat="44.71017201686222" lon="9.979695981364607"><ele>393.0</ele><time>2026-04-18T07:52:00Z</time></trkpt><trkpt lat="44.710250067586045" lon="9.979813645686571"><ele>393.0</ele><time>2026-04-18T07:52:01Z</time></trkpt><trkpt lat="44.71036114739944" lon="9.979880199969095"><ele>393.0</ele><time>2026-04-18T07:52:02Z</time></trkpt><trkpt lat="44.71047569611176" lon="9.979916379557626"><ele>393.0</ele><time>2026-04-18T07:52:03Z</time></trkpt><trkpt lat="44.71059280090094" lon="9.979956064057983"><ele>393.0</ele><time>2026-04-18T07:52:04Z</time></trkpt><trkpt lat="44.71071109336289" lon="9.980020243575947"><ele>391.25</ele><time>2026-04-18T07:52:05Z</time></trkpt><trkpt lat="44.710819849082434" lon="9.980106473453384"><ele>389.5</ele><time>2026-04-18T07:52:06Z</time></trkpt><trkpt lat="44.710911821348674" lon="9.980217541694216"><ele>387.75</ele><time>2026-04-18T07:52:07Z</time></trkpt><trkpt lat="44.71099422819228" lon="9.980335497811168"><ele>386.0</ele><time>2026-04-18T07:52:08Z</time></trkpt><trkpt lat="44.71107531892555" lon="9.980462089016672"><ele>385.4</ele><time>2026-04-18T07:52:09Z</time></trkpt><trkpt lat="44.711154007485234" lon="9.980588704616807"><ele>384.8</ele><time>2026-04-18T07:52:10Z</time></trkpt><trkpt lat="44.711229185362676" lon="9.980697843430839"><ele>384.2</ele><time>2026-04-18T07:52:11Z</time></trkpt><trkpt lat="44.71127904807909" lon="9.980827587898254"><ele>383.59999999999997</ele><time>2026-04-18T07:52:12Z</time></trkpt><trkpt lat="44.71129741440759" lon="9.9809778091745"><ele>383.0</ele><time>2026-04-18T07:52:13Z</time></trkpt><trkpt lat="44.71127105892228" lon="9.981118601356247"><ele>382.79999999999995</ele><time>2026-04-18T07:52:14Z</time></trkpt><trkpt lat="44.71116990505019" lon="9.981194907004534"><ele>382.6</ele><time>2026-04-18T07:52:15Z</time></trkpt><trkpt lat="44.71108988445492" lon="9.98127665087101"><ele>382.4</ele><time>2026-04-18T07:52:16Z</time></trkpt><trkpt lat="44.71100348296599" lon="9.981361442992496"><ele>382.20000000000005</ele><time>2026-04-18T07:52:17Z</time></trkpt><trkpt lat="44.71091893858754" lon="9.981440454195473"><ele>382.0</ele><time>2026-04-18T07:52:18Z</time></trkpt><trkpt lat="44.710832795130074" lon="9.981517656204913"><ele>382.0</ele><time>2026-04-18T07:52:19Z</time></trkpt><trkpt lat="44.71074352584853" lon="9.98158576170104"><ele>382.0</ele><time>2026-04-18T07:52:20Z</time></trkpt><trkpt lat="44.71065244519245" lon="9.981631783850965"><ele>382.0</ele><time>2026-04-18T07:52:21Z</time></trkpt><trkpt lat="44.71055412461713" lon="9.981636739288923"><ele>382.0</ele><time>2026-04-18T07:52:22Z</time></trkpt><trkpt lat="44.71045738612459" lon="9.98161033145112"><ele>382.0</ele><time>2026-04-18T07:52:23Z</time></trkpt><trkpt lat="44.71037167650619" lon="9.981546375640788"><ele>382.0</ele><time>2026-04-18T07:52:24Z</time></trkpt><trkpt lat="44.710294637215" lon="9.981443071994208"><ele>382.0</ele><time>2026-04-18T07:52:25Z</time></trkpt><trkpt lat="44.710218889777416" lon="9.981327569889228"><ele>382.0</ele><time>2026-04-18T07:52:26Z</time></trkpt><trkpt lat="44.71014083644727" lon="9.981209574690467"><ele>382.0</ele><time>2026-04-18T07:52:27Z</time></trkpt><trkpt lat="44.710056206395535" lon="9.981106072180154"><ele>382.0</ele><time>2026-04-18T07:52:28Z</time></trkpt><trkpt lat="44.709978644142296" lon="9.980990577107871"><ele>380.5</ele><time>2026-04-18T07:52:29Z</time></trkpt><trkpt lat="44.70989829026172" lon="9.98087048904004"><ele>379.0</ele><time>2026-04-18T07:52:30Z</time></trkpt><trkpt lat="44.70981419292271" lon="9.98074364033759"><ele>377.5</ele><time>2026-04-18T07:52:31Z</time></trkpt><trkpt lat="44.70972803587848" lon="9.980622192823883"><ele>376.0</ele><time>2026-04-18T07:52:32Z</time></trkpt><trkpt lat="44.70959841721169" lon="9.980560115782401"><ele>376.0</ele><time>2026-04-18T07:52:33Z</time></trkpt><trkpt lat="44.70945047116392" lon="9.98061925543341"><ele>376.0</ele><time>2026-04-18T07:52:34Z</time></trkpt><trkpt lat="44.70935232929118" lon="9.980777509473764"><ele>376.0</ele><time>2026-04-18T07:52:35Z</time></trkpt><trkpt lat="44.70927963464211" lon="9.980914681174802"><ele>376.0</ele><time>2026-04-18T07:52:36Z</time></trkpt><trkpt lat="44.70920967930196" lon="9.981038772368942"><ele>372.75</ele><time>2026-04-18T07:52:37Z</time></trkpt><trkpt lat="44.70913909628584" lon="9.981163342165562"><ele>369.5</ele><time>2026-04-18T07:52:38Z</time></trkpt><trkpt lat="44.709066279063556" lon="9.98129185493839"><ele>366.25</ele><time>2026-04-18T07:52:39Z</time></trkpt><trkpt lat="44.708992980623705" lon="9.98142121688163"><ele>363.0</ele><time>2026-04-18T07:52:40Z</time></trkpt><trkpt lat="44.70891849519953" lon="9.981551373168113"><ele>363.0</ele><time>2026-04-18T07:52:41Z</time></trkpt><trkpt lat="44.70884357679349" lon="9.981679989296799"><ele>363.0</ele><time>2026-04-18T07:52:42Z</time></trkpt><trkpt lat="44.70876422385882" lon="9.981802661139778"><ele>363.0</ele><time>2026-04-18T07:52:43Z</time></trkpt><trkpt lat="44.70868035427149" lon="9.981914895440017"><ele>363.0</ele><time>2026-04-18T07:52:44Z</time></trkpt><trkpt lat="44.70858732273398" lon="9.981998278022981"><ele>363.4</ele><time>2026-04-18T07:52:45Z</time></trkpt><trkpt lat="44.708487139392254" lon="9.98206629894317"><ele>363.79999999999995</ele><time>2026-04-18T07:52:46Z</time></trkpt><trkpt lat="44.708389807677555" lon="9.982094833678836"><ele>364.2</ele><time>2026-04-18T07:52:46.999Z</time></trkpt><trkpt lat="44.70829042180058" lon="9.982112358717249"><ele>364.6</ele><time>2026-04-18T07:52:47.999Z</time></trkpt><trkpt lat="44.7081912854098" lon="9.98213062123985"><ele>365.0</ele><time>2026-04-18T07:52:48.999Z</time></trkpt><trkpt lat="44.7080938136799" lon="9.982147631470811"><ele>365.0</ele><time>2026-04-18T07:52:49.999Z</time></trkpt><trkpt lat="44.70799914090292" lon="9.982164153286835"><ele>365.0</ele><time>2026-04-18T07:52:50.999Z</time></trkpt><trkpt lat="44.707906065566725" lon="9.982180396289227"><ele>365.0</ele><time>2026-04-18T07:52:51.999Z</time></trkpt><trkpt lat="44.7078137965844" lon="9.98219649857721"><ele>365.0</ele><time>2026-04-18T07:52:52.999Z</time></trkpt><trkpt lat="44.70772122273538" lon="9.982212654065439"><ele>365.0</ele><time>2026-04-18T07:52:53.999Z</time></trkpt><trkpt lat="44.70763020872442" lon="9.982228418038808"><ele>364.8</ele><time>2026-04-18T07:52:54.999Z</time></trkpt><trkpt lat="44.70753987136943" lon="9.982244282809274"><ele>364.6</ele><time>2026-04-18T07:52:55.999Z</time></trkpt><trkpt lat="44.70745263621975" lon="9.982259602784005"><ele>364.4</ele><time>2026-04-18T07:52:56.999Z</time></trkpt><trkpt lat="44.70736419034556" lon="9.982275135392692"><ele>364.2</ele><time>2026-04-18T07:52:57.999Z</time></trkpt><trkpt lat="44.70727352243823" lon="9.982291058229704"><ele>364.0</ele><time>2026-04-18T07:52:58.999Z</time></trkpt><trkpt lat="44.7071832106414" lon="9.982306918522934"><ele>364.0</ele><time>2026-04-18T07:52:59.999Z</time></trkpt><trkpt lat="44.70709321838763" lon="9.982322722697704"><ele>364.0</ele><time>2026-04-18T07:53:00.999Z</time></trkpt><trkpt lat="44.707002542768635" lon="9.982338646885243"><ele>364.0</ele><time>2026-04-18T07:53:01.999Z</time></trkpt><trkpt lat="44.70691100664919" lon="9.98235472411114"><ele>364.0</ele><time>2026-04-18T07:53:02.999Z</time></trkpt><trkpt lat="44.70682158810048" lon="9.98237042754419"><ele>364.0</ele><time>2026-04-18T07:53:03.999Z</time></trkpt><trkpt lat="44.70673152295806" lon="9.982386244513586"><ele>363.5</ele><time>2026-04-18T07:53:04.999Z</time></trkpt><trkpt lat="44.706643161443914" lon="9.982401762311007"><ele>363.0</ele><time>2026-04-18T07:53:05.999Z</time></trkpt><trkpt lat="44.70655537726636" lon="9.98241717870928"><ele>362.5</ele><time>2026-04-18T07:53:06.999Z</time></trkpt><trkpt lat="44.706470432742094" lon="9.982432213484259"><ele>362.0</ele><time>2026-04-18T07:53:07.999Z</time></trkpt><trkpt lat="44.706388486496444" lon="9.98244599782333"><ele>361.5</ele><time>2026-04-18T07:53:08.999Z</time></trkpt><trkpt lat="44.7063084493405" lon="9.982487133291961"><ele>361.0</ele><time>2026-04-18T07:53:09.999Z</time></trkpt><trkpt lat="44.70622498716714" lon="9.982494012944661"><ele>361.0</ele><time>2026-04-18T07:53:10.999Z</time></trkpt><trkpt lat="44.70614328821787" lon="9.982491403891506"><ele>361.0</ele><time>2026-04-18T07:53:11.999Z</time></trkpt><trkpt lat="44.70606543426748" lon="9.982478197304514"><ele>361.0</ele><time>2026-04-18T07:53:12.999Z</time></trkpt><trkpt lat="44.70598973425534" lon="9.982456383729911"><ele>361.0</ele><time>2026-04-18T07:53:13.999Z</time></trkpt><trkpt lat="44.70591749674034" lon="9.982419909183806"><ele>361.0</ele><time>2026-04-18T07:53:14.999Z</time></trkpt><trkpt lat="44.70584582656618" lon="9.982378746573405"><ele>361.0</ele><time>2026-04-18T07:53:15.999Z</time></trkpt><trkpt lat="44.70577734019776" lon="9.982336429922459"><ele>361.8571428571429</ele><time>2026-04-18T07:53:16.999Z</time></trkpt><trkpt lat="44.70571068587638" lon="9.982288243779486"><ele>362.71428571428567</ele><time>2026-04-18T07:53:17.999Z</time></trkpt><trkpt lat="44.70564449540435" lon="9.982233428263715"><ele>363.57142857142856</ele><time>2026-04-18T07:53:18.999Z</time></trkpt><trkpt lat="44.70558008613876" lon="9.982179620494934"><ele>364.42857142857144</ele><time>2026-04-18T07:53:19.999Z</time></trkpt><trkpt lat="44.705515815923754" lon="9.98212956218419"><ele>365.28571428571433</ele><time>2026-04-18T07:53:20.999Z</time></trkpt><trkpt lat="44.7054529752469" lon="9.982081089200092"><ele>366.1428571428571</ele><time>2026-04-18T07:53:21.999Z</time></trkpt><trkpt lat="44.70538873264361" lon="9.982038169342506"><ele>367.0</ele><time>2026-04-18T07:53:22.999Z</time></trkpt><trkpt lat="44.70532121548889" lon="9.982003865456637"><ele>367.0</ele><time>2026-04-18T07:53:23.999Z</time></trkpt><trkpt lat="44.705247786701214" lon="9.981991899263594"><ele>367.0</ele><time>2026-04-18T07:53:24.999Z</time></trkpt><trkpt lat="44.70516839075776" lon="9.982010331768107"><ele>367.0</ele><time>2026-04-18T07:53:25.999Z</time></trkpt><trkpt lat="44.70509758043003" lon="9.982067336321888"><ele>367.0</ele><time>2026-04-18T07:53:26.999Z</time></trkpt><trkpt lat="44.705033813836216" lon="9.982144590444364"><ele>367.0</ele><time>2026-04-18T07:53:27.999Z</time></trkpt><trkpt lat="44.70498007680478" lon="9.982233025184962"><ele>367.0</ele><time>2026-04-18T07:53:28.999Z</time></trkpt><trkpt lat="44.70492861389957" lon="9.982322671676993"><ele>367.5</ele><time>2026-04-18T07:53:29.999Z</time></trkpt><trkpt lat="44.70487980057859" lon="9.98241361912014"><ele>368.0</ele><time>2026-04-18T07:53:30.999Z</time></trkpt><trkpt lat="44.704828476523566" lon="9.982506643799653"><ele>368.5</ele><time>2026-04-18T07:53:31.999Z</time></trkpt><trkpt lat="44.7047760156941" lon="9.98259965457495"><ele>369.0</ele><time>2026-04-18T07:53:32.999Z</time></trkpt><trkpt lat="44.7047220863774" lon="9.982692430699116"><ele>369.5</ele><time>2026-04-18T07:53:33.999Z</time></trkpt><trkpt lat="44.70466520756136" lon="9.982785220559279"><ele>370.0</ele><time>2026-04-18T07:53:34.999Z</time></trkpt><trkpt lat="44.70460460587344" lon="9.982871602612411"><ele>369.8</ele><time>2026-04-18T07:53:35.999Z</time></trkpt><trkpt lat="44.704543066007574" lon="9.982957373005531"><ele>369.6</ele><time>2026-04-18T07:53:36.999Z</time></trkpt><trkpt lat="44.704475759938475" lon="9.983036931692945"><ele>369.4</ele><time>2026-04-18T07:53:37.999Z</time></trkpt><trkpt lat="44.70439552818987" lon="9.983095430541075"><ele>369.2</ele><time>2026-04-18T07:53:38.999Z</time></trkpt><trkpt lat="44.70430151510818" lon="9.983126825375173"><ele>369.0</ele><time>2026-04-18T07:53:39.999Z</time></trkpt><trkpt lat="44.704205567754045" lon="9.983125904497413"><ele>369.0</ele><time>2026-04-18T07:53:40.998Z</time></trkpt><trkpt lat="44.70411358388235" lon="9.983095123957876"><ele>369.0</ele><time>2026-04-18T07:53:41.998Z</time></trkpt><trkpt lat="44.70402752741425" lon="9.98304288359035"><ele>369.0</ele><time>2026-04-18T07:53:42.998Z</time></trkpt><trkpt lat="44.70394329316523" lon="9.982987547628584"><ele>369.0</ele><time>2026-04-18T07:53:43.998Z</time></trkpt><trkpt lat="44.70385661896987" lon="9.98293562759421"><ele>369.0</ele><time>2026-04-18T07:53:44.998Z</time></trkpt><trkpt lat="44.703766535373276" lon="9.982899045989187"><ele>369.0</ele><time>2026-04-18T07:53:45.998Z</time></trkpt><trkpt lat="44.703678849468616" lon="9.982831843739515"><ele>369.0</ele><time>2026-04-18T07:53:46.998Z</time></trkpt><trkpt lat="44.703580413240154" lon="9.982812451758445"><ele>369.0</ele><time>2026-04-18T07:53:47.998Z</time></trkpt><trkpt lat="44.70347585858515" lon="9.982832654450558"><ele>369.0</ele><time>2026-04-18T07:53:48.998Z</time></trkpt><trkpt lat="44.703384093143455" lon="9.982886048944252"><ele>369.0</ele><time>2026-04-18T07:53:49.998Z</time></trkpt><trkpt lat="44.70329359148494" lon="9.982916972615122"><ele>369.2</ele><time>2026-04-18T07:53:50.998Z</time></trkpt><trkpt lat="44.70320436704891" lon="9.982926095871301"><ele>369.4</ele><time>2026-04-18T07:53:51.998Z</time></trkpt><trkpt lat="44.70311175445248" lon="9.982889975875404"><ele>369.6</ele><time>2026-04-18T07:53:52.998Z</time></trkpt><trkpt lat="44.70302238527647" lon="9.98283984282499"><ele>369.8</ele><time>2026-04-18T07:53:53.998Z</time></trkpt><trkpt lat="44.702957251566424" lon="9.982743106990224"><ele>370.0</ele><time>2026-04-18T07:53:54.998Z</time></trkpt><trkpt lat="44.70289272327936" lon="9.98263558385537"><ele>370.0</ele><time>2026-04-18T07:53:55.998Z</time></trkpt><trkpt lat="44.70281793252868" lon="9.982535230975044"><ele>370.0</ele><time>2026-04-18T07:53:56.998Z</time></trkpt><trkpt lat="44.70274245377381" lon="9.982424063478236"><ele>370.0</ele><time>2026-04-18T07:53:57.998Z</time></trkpt><trkpt lat="44.70263883828911" lon="9.982357506143348"><ele>370.0</ele><time>2026-04-18T07:53:58.998Z</time></trkpt><trkpt lat="44.702516927535484" lon="9.98236190845627"><ele>370.0</ele><time>2026-04-18T07:53:59.998Z</time></trkpt><trkpt lat="44.7024146991719" lon="9.982386652347126"><ele>367.2</ele><time>2026-04-18T07:54:00.998Z</time></trkpt><trkpt lat="44.70232006140832" lon="9.982408320987814"><ele>364.4</ele><time>2026-04-18T07:54:01.998Z</time></trkpt><trkpt lat="44.70222736058226" lon="9.982425902282905"><ele>361.6</ele><time>2026-04-18T07:54:02.998Z</time></trkpt><trkpt lat="44.70213349030815" lon="9.982429787661088"><ele>358.8</ele><time>2026-04-18T07:54:03.998Z</time></trkpt><trkpt lat="44.70203890387327" lon="9.982410047904638"><ele>356.0</ele><time>2026-04-18T07:54:04.998Z</time></trkpt><trkpt lat="44.70194260824378" lon="9.982382195156534"><ele>356.6</ele><time>2026-04-18T07:54:06Z</time></trkpt><trkpt lat="44.701844250960285" lon="9.982357127414147"><ele>357.20000000000005</ele><time>2026-04-18T07:54:07Z</time></trkpt><trkpt lat="44.701740834685474" lon="9.98234675885494"><ele>357.79999999999995</ele><time>2026-04-18T07:54:08Z</time></trkpt><trkpt lat="44.70162628173643" lon="9.982387828775039"><ele>358.4</ele><time>2026-04-18T07:54:09Z</time></trkpt><trkpt lat="44.70152779064888" lon="9.982447086323376"><ele>359.0</ele><time>2026-04-18T07:54:10Z</time></trkpt><trkpt lat="44.70143456270839" lon="9.982505128105586"><ele>363.4</ele><time>2026-04-18T07:54:11Z</time></trkpt><trkpt lat="44.70134187924924" lon="9.982562830892658"><ele>367.79999999999995</ele><time>2026-04-18T07:54:12Z</time></trkpt><trkpt lat="44.70124877307207" lon="9.98261990945543"><ele>372.20000000000005</ele><time>2026-04-18T07:54:13Z</time></trkpt><trkpt lat="44.70115524551134" lon="9.982676438041931"><ele>376.6</ele><time>2026-04-18T07:54:14Z</time></trkpt><trkpt lat="44.701057798848694" lon="9.982730574598982"><ele>381.0</ele><time>2026-04-18T07:54:15Z</time></trkpt><trkpt lat="44.7009483470016" lon="9.982715100478831"><ele>381.0</ele><time>2026-04-18T07:54:16Z</time></trkpt><trkpt lat="44.700856682337836" lon="9.982638200408044"><ele>381.0</ele><time>2026-04-18T07:54:17Z</time></trkpt><trkpt lat="44.70078886654761" lon="9.982519936897335"><ele>381.0</ele><time>2026-04-18T07:54:18Z</time></trkpt><trkpt lat="44.70073458227648" lon="9.982401116723603"><ele>381.0</ele><time>2026-04-18T07:54:19Z</time></trkpt><trkpt lat="44.70068182414368" lon="9.982293924013474"><ele>381.0</ele><time>2026-04-18T07:54:20Z</time></trkpt><trkpt lat="44.70061010490824" lon="9.98220944635141"><ele>377.0</ele><time>2026-04-18T07:54:21Z</time></trkpt><trkpt lat="44.70052827355754" lon="9.982137503606436"><ele>373.0</ele><time>2026-04-18T07:54:22Z</time></trkpt><trkpt lat="44.700421131589" lon="9.982105773567492"><ele>369.0</ele><time>2026-04-18T07:54:23Z</time></trkpt><trkpt lat="44.700310650421706" lon="9.98210909899405"><ele>365.0</ele><time>2026-04-18T07:54:24Z</time></trkpt><trkpt lat="44.70020945755079" lon="9.982112058810127"><ele>361.0</ele><time>2026-04-18T07:54:25Z</time></trkpt><trkpt lat="44.7001128357449" lon="9.982089133692096"><ele>361.0</ele><time>2026-04-18T07:54:26Z</time></trkpt><trkpt lat="44.700022434635635" lon="9.982037125665945"><ele>361.0</ele><time>2026-04-18T07:54:27Z</time></trkpt><trkpt lat="44.69994236648479" lon="9.981954426830601"><ele>361.0</ele><time>2026-04-18T07:54:28Z</time></trkpt><trkpt lat="44.699864214806645" lon="9.981867073832687"><ele>361.0</ele><time>2026-04-18T07:54:29Z</time></trkpt><trkpt lat="44.69978263212957" lon="9.98178298522537"><ele>361.0</ele><time>2026-04-18T07:54:30Z</time></trkpt><trkpt lat="44.699676432434735" lon="9.981721013721684"><ele>361.0</ele><time>2026-04-18T07:54:31Z</time></trkpt><trkpt lat="44.69953410425806" lon="9.981713680709548"><ele>361.0</ele><time>2026-04-18T07:54:32Z</time></trkpt><trkpt lat="44.69941057020135" lon="9.981779807043843"><ele>361.0</ele><time>2026-04-18T07:54:33Z</time></trkpt><trkpt lat="44.699319183135124" lon="9.981838042684332"><ele>361.0</ele><time>2026-04-18T07:54:34Z</time></trkpt><trkpt lat="44.69923001104438" lon="9.981880542146305"><ele>361.16666666666663</ele><time>2026-04-18T07:54:35Z</time></trkpt><trkpt lat="44.69915483483689" lon="9.981896058780038"><ele>361.3333333333333</ele><time>2026-04-18T07:54:36Z</time></trkpt><trkpt lat="44.69906378779776" lon="9.981888203395414"><ele>361.5</ele><time>2026-04-18T07:54:37Z</time></trkpt><trkpt lat="44.698992332010775" lon="9.981857639634233"><ele>361.6666666666667</ele><time>2026-04-18T07:54:38Z</time></trkpt><trkpt lat="44.69890950913661" lon="9.981801889472226"><ele>361.83333333333337</ele><time>2026-04-18T07:54:39Z</time></trkpt><trkpt lat="44.69882557927793" lon="9.981732714080744"><ele>362.0</ele><time>2026-04-18T07:54:40Z</time></trkpt><trkpt lat="44.6987341050847" lon="9.981649219017632"><ele>357.6</ele><time>2026-04-18T07:54:41Z</time></trkpt><trkpt lat="44.69864086695711" lon="9.981557666094368"><ele>353.20000000000005</ele><time>2026-04-18T07:54:42Z</time></trkpt><trkpt lat="44.69855185744182" lon="9.981465873233136"><ele>348.8</ele><time>2026-04-18T07:54:43Z</time></trkpt><trkpt lat="44.69845832964652" lon="9.981390187822246"><ele>344.4</ele><time>2026-04-18T07:54:44Z</time></trkpt><trkpt lat="44.69839296917553" lon="9.98126810847088"><ele>340.0</ele><time>2026-04-18T07:54:45Z</time></trkpt><trkpt lat="44.69833491309738" lon="9.98113803906082"><ele>340.0</ele><time>2026-04-18T07:54:46Z</time></trkpt><trkpt lat="44.69827927467323" lon="9.981007269147542"><ele>340.0</ele><time>2026-04-18T07:54:47Z</time></trkpt><trkpt lat="44.69821667443711" lon="9.980891317332436"><ele>340.0</ele><time>2026-04-18T07:54:48Z</time></trkpt><trkpt lat="44.69814956643947" lon="9.980782993359677"><ele>340.0</ele><time>2026-04-18T07:54:49Z</time></trkpt><trkpt lat="44.69806849453434" lon="9.980691118770128"><ele>340.0</ele><time>2026-04-18T07:54:50Z</time></trkpt><trkpt lat="44.697945505866585" lon="9.980638026943875"><ele>338.6</ele><time>2026-04-18T07:54:51Z</time></trkpt><trkpt lat="44.69782785784775" lon="9.98064534596182"><ele>337.2</ele><time>2026-04-18T07:54:51.999Z</time></trkpt><trkpt lat="44.69772750707849" lon="9.980668596193288"><ele>335.79999999999995</ele><time>2026-04-18T07:54:52.999Z</time></trkpt><trkpt lat="44.697631947369445" lon="9.980699386559062"><ele>334.4</ele><time>2026-04-18T07:54:53.999Z</time></trkpt><trkpt lat="44.69752834347775" lon="9.980741551245835"><ele>333.0</ele><time>2026-04-18T07:54:54.999Z</time></trkpt><trkpt lat="44.69741603470405" lon="9.980836424324025"><ele>333.0</ele><time>2026-04-18T07:54:55.999Z</time></trkpt><trkpt lat="44.69734446032682" lon="9.981027893928863"><ele>333.0</ele><time>2026-04-18T07:54:56.999Z</time></trkpt><trkpt lat="44.69733340476641" lon="9.981198802263147"><ele>333.0</ele><time>2026-04-18T07:54:57.999Z</time></trkpt><trkpt lat="44.697398689383064" lon="9.981369919482665"><ele>333.0</ele><time>2026-04-18T07:54:58.999Z</time></trkpt><trkpt lat="44.69743529738839" lon="9.981494516005345"><ele>333.0</ele><time>2026-04-18T07:54:59.999Z</time></trkpt><trkpt lat="44.69746752161486" lon="9.981611716522343"><ele>333.0</ele><time>2026-04-18T07:55:00.999Z</time></trkpt><trkpt lat="44.697498658504784" lon="9.981726892677266"><ele>333.0</ele><time>2026-04-18T07:55:01.999Z</time></trkpt><trkpt lat="44.697531327853866" lon="9.981847737326335"><ele>333.0</ele><time>2026-04-18T07:55:02.999Z</time></trkpt><trkpt lat="44.69756153835846" lon="9.981968670326452"><ele>333.0</ele><time>2026-04-18T07:55:03.999Z</time></trkpt><trkpt lat="44.69758880352189" lon="9.98209532657137"><ele>331.4</ele><time>2026-04-18T07:55:04.999Z</time></trkpt><trkpt lat="44.697616239420675" lon="9.982229894087125"><ele>329.79999999999995</ele><time>2026-04-18T07:55:05.999Z</time></trkpt><trkpt lat="44.69764403009058" lon="9.98236823272415"><ele>328.2</ele><time>2026-04-18T07:55:06.999Z</time></trkpt><trkpt lat="44.697671992539554" lon="9.982507427036138"><ele>326.6</ele><time>2026-04-18T07:55:07.999Z</time></trkpt><trkpt lat="44.697700465681116" lon="9.982649163434777"><ele>325.0</ele><time>2026-04-18T07:55:08.999Z</time></trkpt><trkpt lat="44.69772861130293" lon="9.982792261498421"><ele>330.0</ele><time>2026-04-18T07:55:09.999Z</time></trkpt><trkpt lat="44.697756802428" lon="9.98293819530385"><ele>335.0</ele><time>2026-04-18T07:55:10.999Z</time></trkpt><trkpt lat="44.697799332146175" lon="9.983079186044327"><ele>340.0</ele><time>2026-04-18T07:55:11.999Z</time></trkpt><trkpt lat="44.69780846049879" lon="9.983231936970615"><ele>345.0</ele><time>2026-04-18T07:55:12.999Z</time></trkpt><trkpt lat="44.69783019751246" lon="9.983383089830635"><ele>350.0</ele><time>2026-04-18T07:55:13.999Z</time></trkpt><trkpt lat="44.69784828632381" lon="9.983533807945784"><ele>351.6</ele><time>2026-04-18T07:55:14.999Z</time></trkpt><trkpt lat="44.697856048555366" lon="9.983677934454267"><ele>353.2</ele><time>2026-04-18T07:55:15.999Z</time></trkpt><trkpt lat="44.697828871648085" lon="9.983804194714667"><ele>354.79999999999995</ele><time>2026-04-18T07:55:16.999Z</time></trkpt><trkpt lat="44.697772103820384" lon="9.983913868904656"><ele>356.4</ele><time>2026-04-18T07:55:17.999Z</time></trkpt><trkpt lat="44.697699323077906" lon="9.984002624187438"><ele>358.0</ele><time>2026-04-18T07:55:18.999Z</time></trkpt><trkpt lat="44.69762211083253" lon="9.98410274935168"><ele>355.79999999999995</ele><time>2026-04-18T07:55:19.999Z</time></trkpt><trkpt lat="44.69754241189733" lon="9.984206092959258"><ele>353.6</ele><time>2026-04-18T07:55:20.999Z</time></trkpt><trkpt lat="44.69746344089978" lon="9.984307401049819"><ele>351.4</ele><time>2026-04-18T07:55:21.999Z</time></trkpt><trkpt lat="44.69738194142219" lon="9.984410878440533"><ele>349.20000000000005</ele><time>2026-04-18T07:55:22.999Z</time></trkpt><trkpt lat="44.69730075825616" lon="9.984514082240791"><ele>347.0</ele><time>2026-04-18T07:55:23.999Z</time></trkpt><trkpt lat="44.69721833618174" lon="9.984619112205879"><ele>347.0</ele><time>2026-04-18T07:55:24.999Z</time></trkpt><trkpt lat="44.697134053522596" lon="9.984726512922414"><ele>347.0</ele><time>2026-04-18T07:55:25.999Z</time></trkpt><trkpt lat="44.69704958841305" lon="9.984826571838974"><ele>347.0</ele><time>2026-04-18T07:55:26.999Z</time></trkpt><trkpt lat="44.69696111959786" lon="9.984908552771385"><ele>347.0</ele><time>2026-04-18T07:55:27.999Z</time></trkpt><trkpt lat="44.696869570141054" lon="9.9849669123118"><ele>347.0</ele><time>2026-04-18T07:55:28.999Z</time></trkpt><trkpt lat="44.69676557801725" lon="9.985022743763675"><ele>346.0</ele><time>2026-04-18T07:55:29.999Z</time></trkpt><trkpt lat="44.69666156817291" lon="9.985079554519764"><ele>345.0</ele><time>2026-04-18T07:55:30.999Z</time></trkpt><trkpt lat="44.696556131963675" lon="9.985138785870182"><ele>344.0</ele><time>2026-04-18T07:55:31.999Z</time></trkpt><trkpt lat="44.69645245341708" lon="9.985196988082711"><ele>343.0</ele><time>2026-04-18T07:55:32.999Z</time></trkpt><trkpt lat="44.696347983654725" lon="9.98525503188665"><ele>342.0</ele><time>2026-04-18T07:55:33.999Z</time></trkpt><trkpt lat="44.696243333994" lon="9.985313175846757"><ele>342.0</ele><time>2026-04-18T07:55:34.999Z</time></trkpt><trkpt lat="44.69613796866169" lon="9.985373001626671"><ele>342.0</ele><time>2026-04-18T07:55:35.999Z</time></trkpt><trkpt lat="44.69603185380189" lon="9.985446352041814"><ele>342.0</ele><time>2026-04-18T07:55:36.999Z</time></trkpt><trkpt lat="44.69593009182589" lon="9.985543010906492"><ele>342.0</ele><time>2026-04-18T07:55:37.999Z</time></trkpt><trkpt lat="44.69584439559162" lon="9.985671774129726"><ele>339.20000000000005</ele><time>2026-04-18T07:55:38.999Z</time></trkpt><trkpt lat="44.69577996423439" lon="9.985813559921924"><ele>336.4</ele><time>2026-04-18T07:55:39.999Z</time></trkpt><trkpt lat="44.69572259581939" lon="9.985950610351608"><ele>333.6</ele><time>2026-04-18T07:55:40.999Z</time></trkpt><trkpt lat="44.6956617304282" lon="9.986075069319504"><ele>330.79999999999995</ele><time>2026-04-18T07:55:41.999Z</time></trkpt><trkpt lat="44.695590519235864" lon="9.986191857361215"><ele>328.0</ele><time>2026-04-18T07:55:42.999Z</time></trkpt><trkpt lat="44.69551205796192" lon="9.98630507639954"><ele>328.0</ele><time>2026-04-18T07:55:43.999Z</time></trkpt><trkpt lat="44.695428087545444" lon="9.986417150349613"><ele>328.0</ele><time>2026-04-18T07:55:44.998Z</time></trkpt><trkpt lat="44.69534282071538" lon="9.986525583251312"><ele>328.0</ele><time>2026-04-18T07:55:45.998Z</time></trkpt><trkpt lat="44.695255782848115" lon="9.986635081971093"><ele>328.0</ele><time>2026-04-18T07:55:46.998Z</time></trkpt><trkpt lat="44.695170148688064" lon="9.986741307740763"><ele>324.0</ele><time>2026-04-18T07:55:47.998Z</time></trkpt><trkpt lat="44.69508245213929" lon="9.986845966369643"><ele>320.0</ele><time>2026-04-18T07:55:48.998Z</time></trkpt><trkpt lat="44.69499047068419" lon="9.986950895186366"><ele>316.0</ele><time>2026-04-18T07:55:49.998Z</time></trkpt><trkpt lat="44.694898192294765" lon="9.987064106444242"><ele>312.0</ele><time>2026-04-18T07:55:50.998Z</time></trkpt><trkpt lat="44.69480725898335" lon="9.987176863250172"><ele>312.0</ele><time>2026-04-18T07:55:51.998Z</time></trkpt><trkpt lat="44.694718081981925" lon="9.987292422106178"><ele>312.0</ele><time>2026-04-18T07:55:52.998Z</time></trkpt><trkpt lat="44.694631920977464" lon="9.987405335384157"><ele>312.0</ele><time>2026-04-18T07:55:53.998Z</time></trkpt><trkpt lat="44.69454714313541" lon="9.987526839352666"><ele>312.0</ele><time>2026-04-18T07:55:54.998Z</time></trkpt><trkpt lat="44.69448169105492" lon="9.987697307035722"><ele>313.0</ele><time>2026-04-18T07:55:55.998Z</time></trkpt><trkpt lat="44.69447928938545" lon="9.98788582807797"><ele>314.0</ele><time>2026-04-18T07:55:56.998Z</time></trkpt><trkpt lat="44.69453319594042" lon="9.988033967689391"><ele>315.0</ele><time>2026-04-18T07:55:57.998Z</time></trkpt><trkpt lat="44.6945337449871" lon="9.988172576650996"><ele>316.0</ele><time>2026-04-18T07:55:58.998Z</time></trkpt><trkpt lat="44.69450665203291" lon="9.988290739499293"><ele>317.0</ele><time>2026-04-18T07:55:59.998Z</time></trkpt><trkpt lat="44.69444292038944" lon="9.988381358762087"><ele>315.4</ele><time>2026-04-18T07:56:00.998Z</time></trkpt><trkpt lat="44.694360517046704" lon="9.988388306105886"><ele>313.79999999999995</ele><time>2026-04-18T07:56:01.998Z</time></trkpt><trkpt lat="44.69426804102199" lon="9.988415041213525"><ele>312.2</ele><time>2026-04-18T07:56:02.998Z</time></trkpt><trkpt lat="44.69416461789934" lon="9.98844501628619"><ele>310.59999999999997</ele><time>2026-04-18T07:56:03.998Z</time></trkpt><trkpt lat="44.694065671373075" lon="9.988475024410407"><ele>309.0</ele><time>2026-04-18T07:56:04.998Z</time></trkpt><trkpt lat="44.693965861695176" lon="9.988502046714192"><ele>309.0</ele><time>2026-04-18T07:56:05.998Z</time></trkpt><trkpt lat="44.69386406860683" lon="9.98853041726591"><ele>309.0</ele><time>2026-04-18T07:56:06.998Z</time></trkpt><trkpt lat="44.693762658634796" lon="9.98856404944913"><ele>309.0</ele><time>2026-04-18T07:56:07.998Z</time></trkpt><trkpt lat="44.69365958487167" lon="9.9886082054668"><ele>309.0</ele><time>2026-04-18T07:56:08.998Z</time></trkpt><trkpt lat="44.693559332132565" lon="9.988664824099297"><ele>309.0</ele><time>2026-04-18T07:56:09.998Z</time></trkpt><trkpt lat="44.69346013237047" lon="9.98873433415972"><ele>304.25</ele><time>2026-04-18T07:56:10.998Z</time></trkpt><trkpt lat="44.693362649274455" lon="9.988815136032494"><ele>299.5</ele><time>2026-04-18T07:56:12Z</time></trkpt><trkpt lat="44.693272756662275" lon="9.988908044633103"><ele>294.75</ele><time>2026-04-18T07:56:13Z</time></trkpt><trkpt lat="44.693192440339836" lon="9.989034977016338"><ele>290.0</ele><time>2026-04-18T07:56:14Z</time></trkpt><trkpt lat="44.693152368747626" lon="9.989231944028482"><ele>290.0</ele><time>2026-04-18T07:56:15Z</time></trkpt><trkpt lat="44.693148852951545" lon="9.989410181572639"><ele>290.0</ele><time>2026-04-18T07:56:16Z</time></trkpt><trkpt lat="44.69315061468446" lon="9.989572956987416"><ele>290.0</ele><time>2026-04-18T07:56:17Z</time></trkpt><trkpt lat="44.693152505803624" lon="9.989735762593146"><ele>290.0</ele><time>2026-04-18T07:56:18Z</time></trkpt><trkpt lat="44.693154383149114" lon="9.98989738251555"><ele>288.5</ele><time>2026-04-18T07:56:19Z</time></trkpt><trkpt lat="44.69315705780411" lon="9.990057382273548"><ele>287.0</ele><time>2026-04-18T07:56:20Z</time></trkpt><trkpt lat="44.69316775103839" lon="9.99021833527881"><ele>285.5</ele><time>2026-04-18T07:56:21Z</time></trkpt><trkpt lat="44.69321217055276" lon="9.990371382007753"><ele>284.0</ele><time>2026-04-18T07:56:22Z</time></trkpt><trkpt lat="44.69325690880783" lon="9.990508955966131"><ele>284.0</ele><time>2026-04-18T07:56:23Z</time></trkpt><trkpt lat="44.69333329410411" lon="9.990623983934835"><ele>284.0</ele><time>2026-04-18T07:56:24Z</time></trkpt><trkpt lat="44.693410903736435" lon="9.990737042590341"><ele>284.0</ele><time>2026-04-18T07:56:25Z</time></trkpt><trkpt lat="44.693467508162" lon="9.990870990369586"><ele>284.0</ele><time>2026-04-18T07:56:26Z</time></trkpt><trkpt lat="44.693498327104535" lon="9.99101881709672"><ele>284.0</ele><time>2026-04-18T07:56:27Z</time></trkpt><trkpt lat="44.69344629843546" lon="9.991161035626932"><ele>284.4</ele><time>2026-04-18T07:56:28Z</time></trkpt><trkpt lat="44.69339316353233" lon="9.991284529858596"><ele>284.79999999999995</ele><time>2026-04-18T07:56:29Z</time></trkpt><trkpt lat="44.69333025366588" lon="9.991397450195626"><ele>285.20000000000005</ele><time>2026-04-18T07:56:30Z</time></trkpt><trkpt lat="44.6932621656494" lon="9.991517592474256"><ele>285.6</ele><time>2026-04-18T07:56:31Z</time></trkpt><trkpt lat="44.69319380596739" lon="9.991638214127834"><ele>286.0</ele><time>2026-04-18T07:56:32Z</time></trkpt><trkpt lat="44.693124563703215" lon="9.991762109369617"><ele>284.75</ele><time>2026-04-18T07:56:33Z</time></trkpt><trkpt lat="44.69306329426012" lon="9.991900949934463"><ele>283.5</ele><time>2026-04-18T07:56:34Z</time></trkpt><trkpt lat="44.69302315056474" lon="9.992056348064665"><ele>282.25</ele><time>2026-04-18T07:56:35Z</time></trkpt><trkpt lat="44.693018368653746" lon="9.992226967012474"><ele>281.0</ele><time>2026-04-18T07:56:36Z</time></trkpt><trkpt lat="44.69306913451175" lon="9.992383696668401"><ele>282.8</ele><time>2026-04-18T07:56:37Z</time></trkpt><trkpt lat="44.693123532901" lon="9.992523524349894"><ele>284.6</ele><time>2026-04-18T07:56:38Z</time></trkpt><trkpt lat="44.69316276992648" lon="9.992668306947742"><ele>286.4</ele><time>2026-04-18T07:56:39Z</time></trkpt><trkpt lat="44.693190521228715" lon="9.992817364120429"><ele>288.2</ele><time>2026-04-18T07:56:40Z</time></trkpt><trkpt lat="44.693164219695554" lon="9.992966184821364"><ele>290.0</ele><time>2026-04-18T07:56:41Z</time></trkpt><trkpt lat="44.6931003282517" lon="9.993079981184462"><ele>290.0</ele><time>2026-04-18T07:56:42Z</time></trkpt><trkpt lat="44.69302024300932" lon="9.993177829587145"><ele>290.0</ele><time>2026-04-18T07:56:43Z</time></trkpt><trkpt lat="44.692936547918606" lon="9.993283450171283"><ele>290.0</ele><time>2026-04-18T07:56:44Z</time></trkpt><trkpt lat="44.69285192600458" lon="9.993386983105758"><ele>290.0</ele><time>2026-04-18T07:56:45Z</time></trkpt><trkpt lat="44.692766024127394" lon="9.99349696184669"><ele>290.0</ele><time>2026-04-18T07:56:46Z</time></trkpt><trkpt lat="44.69268492152475" lon="9.993617741739689"><ele>286.5</ele><time>2026-04-18T07:56:47Z</time></trkpt><trkpt lat="44.69261855895226" lon="9.993760230221783"><ele>283.0</ele><time>2026-04-18T07:56:48Z</time></trkpt><trkpt lat="44.69259436546815" lon="9.993924383435537"><ele>279.5</ele><time>2026-04-18T07:56:49Z</time></trkpt><trkpt lat="44.69255044089423" lon="9.99407232010229"><ele>276.0</ele><time>2026-04-18T07:56:50Z</time></trkpt><trkpt lat="44.69251775339981" lon="9.994230301049829"><ele>275.25</ele><time>2026-04-18T07:56:51Z</time></trkpt><trkpt lat="44.692490520027874" lon="9.994393401815785"><ele>274.5</ele><time>2026-04-18T07:56:52Z</time></trkpt><trkpt lat="44.69245597774172" lon="9.994556959705108"><ele>273.75</ele><time>2026-04-18T07:56:53Z</time></trkpt><trkpt lat="44.69239523237887" lon="9.994707729184773"><ele>273.0</ele><time>2026-04-18T07:56:54Z</time></trkpt><trkpt lat="44.69235526964604" lon="9.9948694989653"><ele>271.5</ele><time>2026-04-18T07:56:55Z</time></trkpt><trkpt lat="44.69231553798082" lon="9.995027822913691"><ele>270.0</ele><time>2026-04-18T07:56:55.999Z</time></trkpt><trkpt lat="44.69229277006401" lon="9.99519580485524"><ele>268.5</ele><time>2026-04-18T07:56:56.999Z</time></trkpt><trkpt lat="44.6922602627613" lon="9.995348749594314"><ele>267.0</ele><time>2026-04-18T07:56:57.999Z</time></trkpt><trkpt lat="44.69230217041038" lon="9.995501715328041"><ele>267.0</ele><time>2026-04-18T07:56:58.999Z</time></trkpt><trkpt lat="44.69235704280795" lon="9.995639543995685"><ele>267.0</ele><time>2026-04-18T07:56:59.999Z</time></trkpt><trkpt lat="44.69242771427056" lon="9.995761556456477"><ele>267.0</ele><time>2026-04-18T07:57:00.999Z</time></trkpt><trkpt lat="44.69248262671081" lon="9.99589609032367"><ele>267.0</ele><time>2026-04-18T07:57:01.999Z</time></trkpt><trkpt lat="44.69250977613032" lon="9.996052735114016"><ele>267.0</ele><time>2026-04-18T07:57:02.999Z</time></trkpt><trkpt lat="44.692486893015044" lon="9.996211893720623"><ele>267.0</ele><time>2026-04-18T07:57:03.999Z</time></trkpt><trkpt lat="44.69244203641482" lon="9.996358406186145"><ele>267.0</ele><time>2026-04-18T07:57:04.999Z</time></trkpt><trkpt lat="44.692388058141155" lon="9.99650000834591"><ele>267.0</ele><time>2026-04-18T07:57:05.999Z</time></trkpt><trkpt lat="44.69233817422734" lon="9.996642499307454"><ele>267.0</ele><time>2026-04-18T07:57:06.999Z</time></trkpt><trkpt lat="44.69228818553178" lon="9.996785378325356"><ele>268.25</ele><time>2026-04-18T07:57:07.999Z</time></trkpt><trkpt lat="44.6922377394048" lon="9.996929583077039"><ele>269.5</ele><time>2026-04-18T07:57:08.999Z</time></trkpt><trkpt lat="44.69218699391841" lon="9.997074643977387"><ele>270.75</ele><time>2026-04-18T07:57:09.999Z</time></trkpt><trkpt lat="44.69213502579294" lon="9.99721741825065"><ele>272.0</ele><time>2026-04-18T07:57:10.999Z</time></trkpt><trkpt lat="44.692073767206644" lon="9.99734909196718"><ele>272.0</ele><time>2026-04-18T07:57:11.999Z</time></trkpt><trkpt lat="44.69199455648951" lon="9.997461796499989"><ele>272.0</ele><time>2026-04-18T07:57:12.999Z</time></trkpt><trkpt lat="44.691895875805564" lon="9.997530296298898"><ele>272.0</ele><time>2026-04-18T07:57:13.999Z</time></trkpt><trkpt lat="44.691790977586756" lon="9.997593429386749"><ele>272.0</ele><time>2026-04-18T07:57:14.999Z</time></trkpt><trkpt lat="44.69168652755096" lon="9.997661976647471"><ele>268.75</ele><time>2026-04-18T07:57:15.999Z</time></trkpt><trkpt lat="44.691585885726106" lon="9.997748390976605"><ele>265.5</ele><time>2026-04-18T07:57:16.999Z</time></trkpt><trkpt lat="44.69149480437928" lon="9.997864527594325"><ele>262.25</ele><time>2026-04-18T07:57:17.999Z</time></trkpt><trkpt lat="44.69143325653683" lon="9.998013411133613"><ele>259.0</ele><time>2026-04-18T07:57:18.999Z</time></trkpt><trkpt lat="44.691357909501974" lon="9.998139653500136"><ele>259.0</ele><time>2026-04-18T07:57:19.999Z</time></trkpt><trkpt lat="44.69130404743114" lon="9.998284889118334"><ele>259.0</ele><time>2026-04-18T07:57:20.999Z</time></trkpt><trkpt lat="44.691301526457586" lon="9.99844265918932"><ele>259.0</ele><time>2026-04-18T07:57:21.999Z</time></trkpt><trkpt lat="44.69131951338063" lon="9.99859607698543"><ele>259.0</ele><time>2026-04-18T07:57:22.999Z</time></trkpt><trkpt lat="44.69137206658883" lon="9.99873502116534"><ele>258.5</ele><time>2026-04-18T07:57:23.999Z</time></trkpt><trkpt lat="44.69142669831972" lon="9.998869473923301"><ele>258.0</ele><time>2026-04-18T07:57:24.999Z</time></trkpt><trkpt lat="44.69146826111804" lon="9.999012681055692"><ele>257.5</ele><time>2026-04-18T07:57:25.999Z</time></trkpt><trkpt lat="44.69148129457272" lon="9.999172963379655"><ele>257.0</ele><time>2026-04-18T07:57:26.999Z</time></trkpt><trkpt lat="44.69143817554596" lon="9.99933270565478"><ele>257.0</ele><time>2026-04-18T07:57:27.999Z</time></trkpt><trkpt lat="44.69132667787789" lon="9.999410470290504"><ele>257.0</ele><time>2026-04-18T07:57:28.999Z</time></trkpt><trkpt lat="44.69122224223205" lon="9.999451613725784"><ele>257.0</ele><time>2026-04-18T07:57:29.999Z</time></trkpt><trkpt lat="44.69111080350253" lon="9.999505759554454"><ele>257.0</ele><time>2026-04-18T07:57:30.999Z</time></trkpt><trkpt lat="44.691016871700924" lon="9.999588359245763"><ele>251.0</ele><time>2026-04-18T07:57:31.999Z</time></trkpt><trkpt lat="44.690947883416634" lon="9.999707776489604"><ele>245.0</ele><time>2026-04-18T07:57:32.999Z</time></trkpt><trkpt lat="44.69095501782607" lon="9.999884082905977"><ele>239.0</ele><time>2026-04-18T07:57:33.999Z</time></trkpt><trkpt lat="44.69097331120193" lon="10.00003315975002"><ele>233.0</ele><time>2026-04-18T07:57:34.999Z</time></trkpt><trkpt lat="44.69100815577711" lon="10.00017850474638"><ele>233.0</ele><time>2026-04-18T07:57:35.999Z</time></trkpt><trkpt lat="44.69104410529113" lon="10.000323817035591"><ele>233.0</ele><time>2026-04-18T07:57:36.999Z</time></trkpt><trkpt lat="44.69107041774939" lon="10.000477482983943"><ele>233.0</ele><time>2026-04-18T07:57:37.999Z</time></trkpt><trkpt lat="44.69109384908378" lon="10.00063507008039"><ele>233.0</ele><time>2026-04-18T07:57:38.999Z</time></trkpt><trkpt lat="44.69111369285844" lon="10.000794393534289"><ele>232.8</ele><time>2026-04-18T07:57:39.999Z</time></trkpt><trkpt lat="44.69111901730042" lon="10.000955410595553"><ele>232.60000000000002</ele><time>2026-04-18T07:57:40.999Z</time></trkpt><trkpt lat="44.69110755526873" lon="10.001118286856247"><ele>232.39999999999998</ele><time>2026-04-18T07:57:41.999Z</time></trkpt><trkpt lat="44.69107595403471" lon="10.001265750664581"><ele>232.2</ele><time>2026-04-18T07:57:42.999Z</time></trkpt><trkpt lat="44.69102893928691" lon="10.00138049890948"><ele>232.0</ele><time>2026-04-18T07:57:43.999Z</time></trkpt><trkpt lat="44.69095493418263" lon="10.0014430309982"><ele>231.99999999999997</ele><time>2026-04-18T07:57:44.999Z</time></trkpt><trkpt lat="44.690869103585754" lon="10.001427608100167"><ele>232.0</ele><time>2026-04-18T07:57:45.999Z</time></trkpt><trkpt lat="44.690810278530066" lon="10.001345146038501"><ele>232.0</ele><time>2026-04-18T07:57:46.999Z</time></trkpt><trkpt lat="44.690767605326926" lon="10.001245433222243"><ele>232.0</ele><time>2026-04-18T07:57:47.999Z</time></trkpt><trkpt lat="44.690785836086874" lon="10.001115268391473"><ele>231.99999999999997</ele><time>2026-04-18T07:57:48.999Z</time></trkpt><trkpt lat="44.69081073619314" lon="10.000976210930931"><ele>232.0</ele><time>2026-04-18T07:57:49.998Z</time></trkpt><trkpt lat="44.69083741643416" lon="10.000861191511131"><ele>232.16666666666666</ele><time>2026-04-18T07:57:50.998Z</time></trkpt><trkpt lat="44.69086232041217" lon="10.00074238872794"><ele>232.33333333333331</ele><time>2026-04-18T07:57:51.998Z</time></trkpt><trkpt lat="44.690877779643536" lon="10.00062065149049"><ele>232.5</ele><time>2026-04-18T07:57:52.998Z</time></trkpt><trkpt lat="44.690861541195694" lon="10.000502686769387"><ele>232.66666666666669</ele><time>2026-04-18T07:57:53.998Z</time></trkpt><trkpt lat="44.69080667833582" lon="10.00040555090501"><ele>232.83333333333334</ele><time>2026-04-18T07:57:54.998Z</time></trkpt><trkpt lat="44.69074133204038" lon="10.000320618127018"><ele>233.0</ele><time>2026-04-18T07:57:55.998Z</time></trkpt><trkpt lat="44.69066150935222" lon="10.000283349056344"><ele>233.0</ele><time>2026-04-18T07:57:56.998Z</time></trkpt><trkpt lat="44.6905200529456" lon="10.000414741876359"><ele>233.0</ele><time>2026-04-18T07:57:57.998Z</time></trkpt><trkpt lat="44.690466798226424" lon="10.000558532823206"><ele>233.0</ele><time>2026-04-18T07:57:58.998Z</time></trkpt><trkpt lat="44.69047378741257" lon="10.00072276512563"><ele>233.0</ele><time>2026-04-18T07:57:59.998Z</time></trkpt><trkpt lat="44.69047919723789" lon="10.00086800024044"><ele>232.8</ele><time>2026-04-18T07:58:00.998Z</time></trkpt><trkpt lat="44.69048362371602" lon="10.001005556025346"><ele>232.60000000000002</ele><time>2026-04-18T07:58:01.998Z</time></trkpt><trkpt lat="44.690489104146614" lon="10.00113663797979"><ele>232.39999999999998</ele><time>2026-04-18T07:58:02.998Z</time></trkpt><trkpt lat="44.69049848278963" lon="10.001273629508436"><ele>232.2</ele><time>2026-04-18T07:58:03.998Z</time></trkpt><trkpt lat="44.69051210072819" lon="10.001412917980218"><ele>232.0</ele><time>2026-04-18T07:58:04.998Z</time></trkpt><trkpt lat="44.69054319722807" lon="10.001554939885718"><ele>232.6</ele><time>2026-04-18T07:58:05.998Z</time></trkpt><trkpt lat="44.69055144187391" lon="10.001695395671936"><ele>233.2</ele><time>2026-04-18T07:58:06.998Z</time></trkpt><trkpt lat="44.69053519664764" lon="10.001843918782193"><ele>233.8</ele><time>2026-04-18T07:58:07.998Z</time></trkpt><trkpt lat="44.69051859435293" lon="10.001988680025022"><ele>234.4</ele><time>2026-04-18T07:58:08.998Z</time></trkpt><trkpt lat="44.69050760234977" lon="10.002137953936504"><ele>235.0</ele><time>2026-04-18T07:58:09.998Z</time></trkpt><trkpt lat="44.69047470747956" lon="10.00228350133107"><ele>235.0</ele><time>2026-04-18T07:58:10.998Z</time></trkpt><trkpt lat="44.690444163778224" lon="10.00243490155351"><ele>235.0</ele><time>2026-04-18T07:58:11.998Z</time></trkpt><trkpt lat="44.69041284978178" lon="10.00258499283954"><ele>235.0</ele><time>2026-04-18T07:58:12.998Z</time></trkpt><trkpt lat="44.690380566690365" lon="10.00273542924013"><ele>235.0</ele><time>2026-04-18T07:58:13.998Z</time></trkpt><trkpt lat="44.6903536387688" lon="10.002885220371612"><ele>235.0</ele><time>2026-04-18T07:58:14.998Z</time></trkpt><trkpt lat="44.69032416389435" lon="10.003035354466082"><ele>236.25</ele><time>2026-04-18T07:58:15.998Z</time></trkpt><trkpt lat="44.69029345157084" lon="10.003189228184773"><ele>237.5</ele><time>2026-04-18T07:58:16.998Z</time></trkpt><trkpt lat="44.690265892410395" lon="10.00334766574453"><ele>238.75</ele><time>2026-04-18T07:58:18Z</time></trkpt><trkpt lat="44.690237341738104" lon="10.003505328821278"><ele>240.0</ele><time>2026-04-18T07:58:19Z</time></trkpt><trkpt lat="44.69020988502621" lon="10.003665448736356"><ele>233.0</ele><time>2026-04-18T07:58:20Z</time></trkpt><trkpt lat="44.69017490959074" lon="10.003825989729592"><ele>226.0</ele><time>2026-04-18T07:58:21Z</time></trkpt><trkpt lat="44.69014089674929" lon="10.003990257123373"><ele>219.0</ele><time>2026-04-18T07:58:22Z</time></trkpt><trkpt lat="44.69010577955472" lon="10.004156285663763"><ele>212.0</ele><time>2026-04-18T07:58:23Z</time></trkpt><trkpt lat="44.690077655674756" lon="10.004329369682818"><ele>211.75</ele><time>2026-04-18T07:58:24Z</time></trkpt><trkpt lat="44.69004197200933" lon="10.004501665222977"><ele>211.5</ele><time>2026-04-18T07:58:25Z</time></trkpt><trkpt lat="44.68999551717521" lon="10.00466840864711"><ele>211.25</ele><time>2026-04-18T07:58:26Z</time></trkpt><trkpt lat="44.68994179931771" lon="10.0048346426178"><ele>211.0</ele><time>2026-04-18T07:58:27Z</time></trkpt><trkpt lat="44.68987131682994" lon="10.004992470514122"><ele>210.0</ele><time>2026-04-18T07:58:28Z</time></trkpt><trkpt lat="44.68979246768775" lon="10.005142992935404"><ele>209.0</ele><time>2026-04-18T07:58:29Z</time></trkpt><trkpt lat="44.68970927905746" lon="10.005286983642167"><ele>208.0</ele><time>2026-04-18T07:58:30Z</time></trkpt><trkpt lat="44.689629407561604" lon="10.005434216352882"><ele>207.0</ele><time>2026-04-18T07:58:31Z</time></trkpt><trkpt lat="44.689555792365155" lon="10.005584685752682"><ele>207.0</ele><time>2026-04-18T07:58:32Z</time></trkpt><trkpt lat="44.68948010360087" lon="10.005732509612782"><ele>207.0</ele><time>2026-04-18T07:58:33Z</time></trkpt><trkpt lat="44.68940602266845" lon="10.005878906079804"><ele>207.0</ele><time>2026-04-18T07:58:34Z</time></trkpt><trkpt lat="44.68932919826798" lon="10.006020355820409"><ele>207.0</ele><time>2026-04-18T07:58:35Z</time></trkpt><trkpt lat="44.68925036906921" lon="10.006159949816904"><ele>206.75</ele><time>2026-04-18T07:58:36Z</time></trkpt><trkpt lat="44.68917498804337" lon="10.006302981394219"><ele>206.5</ele><time>2026-04-18T07:58:37Z</time></trkpt><trkpt lat="44.68910272807157" lon="10.006444112044601"><ele>206.25</ele><time>2026-04-18T07:58:38Z</time></trkpt><trkpt lat="44.6890335811111" lon="10.006587505081368"><ele>206.0</ele><time>2026-04-18T07:58:39Z</time></trkpt><trkpt lat="44.688971894153106" lon="10.006734341646256"><ele>205.0</ele><time>2026-04-18T07:58:40Z</time></trkpt><trkpt lat="44.68891384369094" lon="10.006881007859002"><ele>204.0</ele><time>2026-04-18T07:58:41Z</time></trkpt><trkpt lat="44.68886254617609" lon="10.00703053718634"><ele>203.0</ele><time>2026-04-18T07:58:42Z</time></trkpt><trkpt lat="44.68880701709503" lon="10.007175378013532"><ele>202.0</ele><time>2026-04-18T07:58:43Z</time></trkpt><trkpt lat="44.688750281490464" lon="10.007317404951204"><ele>202.0</ele><time>2026-04-18T07:58:44Z</time></trkpt><trkpt lat="44.688695957748074" lon="10.007459306992377"><ele>202.0</ele><time>2026-04-18T07:58:45Z</time></trkpt><trkpt lat="44.6886354189265" lon="10.00758637655602"><ele>202.0</ele><time>2026-04-18T07:58:46Z</time></trkpt><trkpt lat="44.688569983025715" lon="10.007656760181767"><ele>202.0</ele><time>2026-04-18T07:58:47Z</time></trkpt><trkpt lat="44.68849273599123" lon="10.007686246346726"><ele>202.0</ele><time>2026-04-18T07:58:48Z</time></trkpt><trkpt lat="44.68841851341124" lon="10.007660992505397"><ele>201.49999999999997</ele><time>2026-04-18T07:58:49Z</time></trkpt><trkpt lat="44.68835239585027" lon="10.007605759969811"><ele>201.0</ele><time>2026-04-18T07:58:50Z</time></trkpt><trkpt lat="44.688291655740585" lon="10.007548478126427"><ele>200.5</ele><time>2026-04-18T07:58:51Z</time></trkpt><trkpt lat="44.688216376577856" lon="10.007539074877316"><ele>200.0</ele><time>2026-04-18T07:58:52Z</time></trkpt><trkpt lat="44.68815144614435" lon="10.007589629408054"><ele>199.49999999999997</ele><time>2026-04-18T07:58:53Z</time></trkpt><trkpt lat="44.688111032576" lon="10.007678138508627"><ele>199.0</ele><time>2026-04-18T07:58:54Z</time></trkpt><trkpt lat="44.68809293770152" lon="10.007782178949583"><ele>198.99999999999997</ele><time>2026-04-18T07:58:55Z</time></trkpt><trkpt lat="44.688131464455054" lon="10.007862256792626"><ele>199.0</ele><time>2026-04-18T07:58:56Z</time></trkpt><trkpt lat="44.6880720308039" lon="10.00797764697632"><ele>199.0</ele><time>2026-04-18T07:58:57Z</time></trkpt><trkpt lat="44.688064211176616" lon="10.008088432934699"><ele>199.0</ele><time>2026-04-18T07:58:59Z</time></trkpt><trkpt lat="44.68804647544307" lon="10.008192562130404"><ele>198.99999999999997</ele><time>2026-04-18T08:01:31.999Z</time></trkpt><trkpt lat="44.68803537561109" lon="10.008290520837704"><ele>199.0</ele><time>2026-04-18T08:01:33.999Z</time></trkpt><trkpt lat="44.688031978831255" lon="10.008410249030339"><ele>198.2</ele><time>2026-04-18T08:01:35.999Z</time></trkpt><trkpt lat="44.68802736677898" lon="10.00852978834798"><ele>197.39999999999998</ele><time>2026-04-18T08:01:37.999Z</time></trkpt><trkpt lat="44.688025879582476" lon="10.00867088384806"><ele>196.6</ele><time>2026-04-18T08:01:39.999Z</time></trkpt><trkpt lat="44.68802728877621" lon="10.008824487508903"><ele>195.8</ele><time>2026-04-18T08:01:41.999Z</time></trkpt><trkpt lat="44.68802411818121" lon="10.0089816979586"><ele>195.0</ele><time>2026-04-18T08:01:43.999Z</time></trkpt><trkpt lat="44.68801988355587" lon="10.00915069419464"><ele>195.5</ele><time>2026-04-18T08:01:45.999Z</time></trkpt><trkpt lat="44.6880182847466" lon="10.009328297281456"><ele>196.0</ele><time>2026-04-18T08:01:47.999Z</time></trkpt><trkpt lat="44.688017183328384" lon="10.009487577836033"><ele>196.5</ele><time>2026-04-18T08:01:49.999Z</time></trkpt><trkpt lat="44.68801559629453" lon="10.009649952203125"><ele>197.0</ele><time>2026-04-18T08:01:51.999Z</time></trkpt><trkpt lat="44.68800945844165" lon="10.009804730192652"><ele>197.0</ele><time>2026-04-18T08:01:53.999Z</time></trkpt><trkpt lat="44.688011527733885" lon="10.00994575202071"><ele>197.0</ele><time>2026-04-18T08:01:55.999Z</time></trkpt><trkpt lat="44.688019506868" lon="10.010103768547358"><ele>197.0</ele><time>2026-04-18T08:01:57.998Z</time></trkpt><trkpt lat="44.688019917714165" lon="10.010192364784043"><ele>197.0</ele><time>2026-04-18T08:01:58.998Z</time></trkpt><trkpt lat="44.688003528943895" lon="10.010366356885049"><ele>197.0</ele><time>2026-04-18T08:02:00.998Z</time></trkpt><trkpt lat="44.687996739481086" lon="10.010464058415844"><ele>197.50000000000003</ele><time>2026-04-18T08:02:01.998Z</time></trkpt><trkpt lat="44.68798449180071" lon="10.01055345480509"><ele>198.0</ele><time>2026-04-18T08:02:02.998Z</time></trkpt><trkpt lat="44.68797275105954" lon="10.01064191394904"><ele>198.5</ele><time>2026-04-18T08:02:03.998Z</time></trkpt><trkpt lat="44.687934185003" lon="10.01080490094357"><ele>199.0</ele><time>2026-04-18T08:02:05.998Z</time></trkpt><trkpt lat="44.687867006567124" lon="10.010953460317094"><ele>199.50000000000003</ele><time>2026-04-18T08:02:07.998Z</time></trkpt><trkpt lat="44.68782431693997" lon="10.011035807039542"><ele>200.0</ele><time>2026-04-18T08:02:08.998Z</time></trkpt><trkpt lat="44.68778229880323" lon="10.011131262452682"><ele>199.2857142857143</ele><time>2026-04-18T08:02:09.998Z</time></trkpt><trkpt lat="44.687736699975275" lon="10.011194015399512"><ele>198.57142857142858</ele><time>2026-04-18T08:02:10.998Z</time></trkpt><trkpt lat="44.687688370581476" lon="10.011261039768275"><ele>197.85714285714286</ele><time>2026-04-18T08:02:11.998Z</time></trkpt><trkpt lat="44.68764226664961" lon="10.011329948212955"><ele>197.14285714285717</ele><time>2026-04-18T08:02:12.998Z</time></trkpt><trkpt lat="44.687598569545315" lon="10.011406317164209"><ele>196.42857142857142</ele><time>2026-04-18T08:02:13.998Z</time></trkpt><trkpt lat="44.687559041401606" lon="10.011490327589271"><ele>195.71428571428572</ele><time>2026-04-18T08:02:14.998Z</time></trkpt><trkpt lat="44.68752449559521" lon="10.011574192534846"><ele>195.0</ele><time>2026-04-18T08:02:15.998Z</time></trkpt><trkpt lat="44.68749057488771" lon="10.01166042277306"><ele>195.0</ele><time>2026-04-18T08:02:16.998Z</time></trkpt><trkpt lat="44.68747061759254" lon="10.01174622709713"><ele>195.0</ele><time>2026-04-18T08:02:17.998Z</time></trkpt><trkpt lat="44.68743944773141" lon="10.011842853823017"><ele>195.0</ele><time>2026-04-18T08:02:18.998Z</time></trkpt><trkpt lat="44.68741504398685" lon="10.01193688816961"><ele>195.0</ele><time>2026-04-18T08:02:19.998Z</time></trkpt><trkpt lat="44.68738634620176" lon="10.012032349545187"><ele>195.0</ele><time>2026-04-18T08:02:20.998Z</time></trkpt><trkpt lat="44.687357092398685" lon="10.012129538033168"><ele>195.0</ele><time>2026-04-18T08:02:21.998Z</time></trkpt><trkpt lat="44.6873289487802" lon="10.012229770418449"><ele>195.0</ele><time>2026-04-18T08:02:22.998Z</time></trkpt><trkpt lat="44.68730192403524" lon="10.012330494455982"><ele>195.0</ele><time>2026-04-18T08:02:23.998Z</time></trkpt><trkpt lat="44.68727274966805" lon="10.012428990417066"><ele>195.0</ele><time>2026-04-18T08:02:24.998Z</time></trkpt><trkpt lat="44.68724579040007" lon="10.012530054377962"><ele>195.0</ele><time>2026-04-18T08:02:25.998Z</time></trkpt><trkpt lat="44.68721662824875" lon="10.012632040037076"><ele>195.0</ele><time>2026-04-18T08:02:26.998Z</time></trkpt><trkpt lat="44.68718844091466" lon="10.012730995656817"><ele>195.0</ele><time>2026-04-18T08:02:27.998Z</time></trkpt><trkpt lat="44.68716211563441" lon="10.01283220533675"><ele>195.0</ele><time>2026-04-18T08:02:28.998Z</time></trkpt><trkpt lat="44.6871355904074" lon="10.01293058570738"><ele>195.16666666666666</ele><time>2026-04-18T08:02:30Z</time></trkpt><trkpt lat="44.687107621638454" lon="10.013030408521892"><ele>195.33333333333331</ele><time>2026-04-18T08:02:31Z</time></trkpt><trkpt lat="44.68707595014521" lon="10.013127670164984"><ele>195.5</ele><time>2026-04-18T08:02:32Z</time></trkpt><trkpt lat="44.687047683361854" lon="10.013231787811293"><ele>195.66666666666666</ele><time>2026-04-18T08:02:33Z</time></trkpt><trkpt lat="44.68702108059131" lon="10.013333688134002"><ele>195.83333333333331</ele><time>2026-04-18T08:02:34Z</time></trkpt><trkpt lat="44.686995053154206" lon="10.013437213716724"><ele>196.0</ele><time>2026-04-18T08:02:35Z</time></trkpt><trkpt lat="44.68697005957758" lon="10.013542632621444"><ele>195.66666666666666</ele><time>2026-04-18T08:02:36Z</time></trkpt><trkpt lat="44.686949432837196" lon="10.013648344044352"><ele>195.33333333333331</ele><time>2026-04-18T08:02:37Z</time></trkpt><trkpt lat="44.686930487584036" lon="10.013755208542921"><ele>195.0</ele><time>2026-04-18T08:02:38Z</time></trkpt><trkpt lat="44.68691227384921" lon="10.013865129315052"><ele>194.66666666666669</ele><time>2026-04-18T08:02:39Z</time></trkpt><trkpt lat="44.6868967465136" lon="10.013971367220853"><ele>194.33333333333334</ele><time>2026-04-18T08:02:40Z</time></trkpt><trkpt lat="44.68687966932618" lon="10.014077866064993"><ele>194.0</ele><time>2026-04-18T08:02:41Z</time></trkpt><trkpt lat="44.68686254112279" lon="10.014189775438776"><ele>193.33333333333334</ele><time>2026-04-18T08:02:42Z</time></trkpt><trkpt lat="44.68684133793578" lon="10.014292383916768"><ele>192.66666666666669</ele><time>2026-04-18T08:02:43Z</time></trkpt><trkpt lat="44.68681740067946" lon="10.014397976155875"><ele>192.0</ele><time>2026-04-18T08:02:44Z</time></trkpt><trkpt lat="44.68679862371014" lon="10.014506221026524"><ele>191.33333333333334</ele><time>2026-04-18T08:02:45Z</time></trkpt><trkpt lat="44.68678194965293" lon="10.014618496376412"><ele>190.66666666666669</ele><time>2026-04-18T08:02:46Z</time></trkpt><trkpt lat="44.68676021957584" lon="10.014731120393241"><ele>190.0</ele><time>2026-04-18T08:02:47Z</time></trkpt><trkpt lat="44.68673670965525" lon="10.014839723064394"><ele>190.0</ele><time>2026-04-18T08:02:48Z</time></trkpt><trkpt lat="44.68670966005423" lon="10.014941761737619"><ele>190.0</ele><time>2026-04-18T08:02:49Z</time></trkpt><trkpt lat="44.68666688346373" lon="10.01503679147569"><ele>190.0</ele><time>2026-04-18T08:02:50Z</time></trkpt><trkpt lat="44.686621798122616" lon="10.01512909090463"><ele>190.0</ele><time>2026-04-18T08:02:51Z</time></trkpt><trkpt lat="44.68657546925837" lon="10.015221284750849"><ele>190.0</ele><time>2026-04-18T08:02:52Z</time></trkpt><trkpt lat="44.686528617124196" lon="10.015310075242464"><ele>190.0</ele><time>2026-04-18T08:02:53Z</time></trkpt><trkpt lat="44.68648209012879" lon="10.015401762892225"><ele>190.0</ele><time>2026-04-18T08:02:54Z</time></trkpt><trkpt lat="44.68643300286931" lon="10.015490306138133"><ele>190.0</ele><time>2026-04-18T08:02:55Z</time></trkpt><trkpt lat="44.68638814122002" lon="10.015579873251857"><ele>190.0</ele><time>2026-04-18T08:02:56Z</time></trkpt><trkpt lat="44.68634259976155" lon="10.015671189283205"><ele>190.0</ele><time>2026-04-18T08:02:57Z</time></trkpt><trkpt lat="44.68629988317995" lon="10.015757735296178"><ele>190.0</ele><time>2026-04-18T08:02:58Z</time></trkpt><trkpt lat="44.686249593734985" lon="10.015845537273536"><ele>190.0</ele><time>2026-04-18T08:02:59Z</time></trkpt><trkpt lat="44.6862021374651" lon="10.015929033614235"><ele>190.5</ele><time>2026-04-18T08:03:00Z</time></trkpt><trkpt lat="44.68615388196101" lon="10.016011809585905"><ele>191.0</ele><time>2026-04-18T08:03:01Z</time></trkpt><trkpt lat="44.68610020046264" lon="10.01608772065329"><ele>191.5</ele><time>2026-04-18T08:03:02Z</time></trkpt><trkpt lat="44.68603980002556" lon="10.016154355073384"><ele>192.0</ele><time>2026-04-18T08:03:03Z</time></trkpt><trkpt lat="44.685977293324804" lon="10.016214427540689"><ele>192.49999999999997</ele><time>2026-04-18T08:03:04Z</time></trkpt><trkpt lat="44.68590925648168" lon="10.0162605132001"><ele>193.0</ele><time>2026-04-18T08:03:05Z</time></trkpt><trkpt lat="44.68583912322476" lon="10.016297442625639"><ele>191.83333333333331</ele><time>2026-04-18T08:03:06Z</time></trkpt><trkpt lat="44.68577218165031" lon="10.016344615387524"><ele>190.66666666666666</ele><time>2026-04-18T08:03:07Z</time></trkpt><trkpt lat="44.68571589739179" lon="10.016419089105026"><ele>189.5</ele><time>2026-04-18T08:03:07.999Z</time></trkpt><trkpt lat="44.68567091799947" lon="10.016503668148058"><ele>188.33333333333331</ele><time>2026-04-18T08:03:08.999Z</time></trkpt><trkpt lat="44.68563838929787" lon="10.016594219071932"><ele>187.16666666666666</ele><time>2026-04-18T08:03:09.999Z</time></trkpt><trkpt lat="44.685580681835816" lon="10.016660024396277"><ele>186.0</ele><time>2026-04-18T08:03:10.999Z</time></trkpt><trkpt lat="44.68559908044183" lon="10.016783806445222"><ele>186.0</ele><time>2026-04-18T08:03:11.999Z</time></trkpt><trkpt lat="44.68558436251334" lon="10.01687509117267"><ele>186.0</ele><time>2026-04-18T08:03:12.999Z</time></trkpt><trkpt lat="44.68556357472708" lon="10.016961490839671"><ele>186.0</ele><time>2026-04-18T08:03:13.999Z</time></trkpt><trkpt lat="44.68553602139603" lon="10.01704461690562"><ele>186.0</ele><time>2026-04-18T08:03:14.999Z</time></trkpt><trkpt lat="44.68547619092552" lon="10.017196669098402"><ele>186.0</ele><time>2026-04-18T08:03:16.999Z</time></trkpt><trkpt lat="44.685439711032934" lon="10.017302369888895"><ele>186.0</ele><time>2026-04-18T08:03:18.999Z</time></trkpt><trkpt lat="44.685398365775114" lon="10.017391182311846"><ele>186.0</ele><time>2026-04-18T08:03:22.999Z</time></trkpt><trkpt lat="44.68531857766945" lon="10.017514122956708"><ele>186.0</ele><time>2026-04-18T08:07:49.036Z</time></trkpt><trkpt lat="44.685278644783544" lon="10.017445597713065"><ele>186.0</ele><time>2026-04-18T08:07:52.035Z</time></trkpt><trkpt lat="44.68529260043322" lon="10.017534577809531"><ele>186.0</ele><time>2026-04-18T08:08:54.999Z</time></trkpt><trkpt lat="44.685140592712244" lon="10.017573078835978"><ele>186.0</ele><time>2026-04-18T08:19:30.996Z</time></trkpt><trkpt lat="44.685242837300684" lon="10.017539677129209"><ele>186.0</ele><time>2026-04-18T08:19:32.996Z</time></trkpt><trkpt lat="44.68529210825132" lon="10.017482827423835"><ele>186.0</ele><time>2026-04-18T08:19:50Z</time></trkpt><trkpt lat="44.685394279169394" lon="10.017357059319012"><ele>186.0</ele><time>2026-04-18T08:21:36.998Z</time></trkpt><trkpt lat="44.68542361625648" lon="10.017274420564274"><ele>186.0</ele><time>2026-04-18T08:21:49Z</time></trkpt><trkpt lat="44.68547607341543" lon="10.017209617622623"><ele>186.0</ele><time>2026-04-18T08:22:01Z</time></trkpt><trkpt lat="44.685508973594715" lon="10.017132746527398"><ele>186.0</ele><time>2026-04-18T08:22:04.999Z</time></trkpt><trkpt lat="44.68553892993401" lon="10.017023581268102"><ele>186.00000000000003</ele><time>2026-04-18T08:22:08.999Z</time></trkpt><trkpt lat="44.685576756213564" lon="10.016919170213594"><ele>186.0</ele><time>2026-04-18T08:22:11.999Z</time></trkpt><trkpt lat="44.685600633437076" lon="10.01683478503006"><ele>186.0</ele><time>2026-04-18T08:22:13.999Z</time></trkpt><trkpt lat="44.68562072265242" lon="10.016736033705302"><ele>186.0</ele><time>2026-04-18T08:22:15.999Z</time></trkpt><trkpt lat="44.68564322386147" lon="10.016628589178664"><ele>186.0</ele><time>2026-04-18T08:22:17.999Z</time></trkpt><trkpt lat="44.68568293102266" lon="10.016547733192855"><ele>186.00000000000003</ele><time>2026-04-18T08:22:19.999Z</time></trkpt><trkpt lat="44.6857543413517" lon="10.016555737538038"><ele>186.0</ele><time>2026-04-18T08:22:21.999Z</time></trkpt><trkpt lat="44.68587772826265" lon="10.016486829243238"><ele>185.66666666666666</ele><time>2026-04-18T08:22:25.999Z</time></trkpt><trkpt lat="44.685864284351865" lon="10.016379940055296"><ele>185.33333333333334</ele><time>2026-04-18T08:22:27.999Z</time></trkpt><trkpt lat="44.68579469716703" lon="10.016326457144347"><ele>185.0</ele><time>2026-04-18T08:22:29.999Z</time></trkpt><trkpt lat="44.68572512815339" lon="10.01630830954326"><ele>184.66666666666669</ele><time>2026-04-18T08:22:31.999Z</time></trkpt><trkpt lat="44.685646547948465" lon="10.016286834833853"><ele>184.33333333333334</ele><time>2026-04-18T08:22:33.999Z</time></trkpt><trkpt lat="44.68554501837061" lon="10.01628320836264"><ele>184.0</ele><time>2026-04-18T08:22:35.999Z</time></trkpt><trkpt lat="44.685433235905" lon="10.016290126002472"><ele>184.0</ele><time>2026-04-18T08:22:37.999Z</time></trkpt><trkpt lat="44.685310987936106" lon="10.016297971319464"><ele>184.0</ele><time>2026-04-18T08:22:39.999Z</time></trkpt><trkpt lat="44.685245659443176" lon="10.01629874197053"><ele>184.0</ele><time>2026-04-18T08:22:40.999Z</time></trkpt><trkpt lat="44.68517516722842" lon="10.016301446684794"><ele>184.0</ele><time>2026-04-18T08:22:41.999Z</time></trkpt><trkpt lat="44.685104822327524" lon="10.016301453758635"><ele>184.0</ele><time>2026-04-18T08:22:42.999Z</time></trkpt><trkpt lat="44.68503189919852" lon="10.016306379277134"><ele>184.0</ele><time>2026-04-18T08:22:43.999Z</time></trkpt><trkpt lat="44.684957218016514" lon="10.016314655354657"><ele>183.57142857142858</ele><time>2026-04-18T08:22:44.999Z</time></trkpt><trkpt lat="44.68488268256603" lon="10.01631467298157"><ele>183.14285714285714</ele><time>2026-04-18T08:22:45.999Z</time></trkpt><trkpt lat="44.68480915449408" lon="10.01631075786889"><ele>182.71428571428572</ele><time>2026-04-18T08:22:46.999Z</time></trkpt><trkpt lat="44.68473989627616" lon="10.016316592831977"><ele>182.28571428571428</ele><time>2026-04-18T08:22:47.999Z</time></trkpt><trkpt lat="44.68466929956863" lon="10.016318304635245"><ele>181.85714285714283</ele><time>2026-04-18T08:22:48.999Z</time></trkpt><trkpt lat="44.684603917522814" lon="10.016322162128997"><ele>181.42857142857142</ele><time>2026-04-18T08:22:49.999Z</time></trkpt><trkpt lat="44.68453515122888" lon="10.016323906195366"><ele>181.0</ele><time>2026-04-18T08:22:50.999Z</time></trkpt><trkpt lat="44.684469626212845" lon="10.016326771691274"><ele>181.57142857142856</ele><time>2026-04-18T08:22:51.999Z</time></trkpt><trkpt lat="44.68440012934794" lon="10.016324366820198"><ele>182.14285714285714</ele><time>2026-04-18T08:22:52.999Z</time></trkpt><trkpt lat="44.684333885724605" lon="10.016329285611933"><ele>182.71428571428572</ele><time>2026-04-18T08:22:53.999Z</time></trkpt><trkpt lat="44.68426769272722" lon="10.016332452534018"><ele>183.28571428571428</ele><time>2026-04-18T08:22:54.999Z</time></trkpt><trkpt lat="44.684202268628276" lon="10.016339364072957"><ele>183.85714285714286</ele><time>2026-04-18T08:22:55.999Z</time></trkpt><trkpt lat="44.68413479889068" lon="10.016341330828103"><ele>184.42857142857142</ele><time>2026-04-18T08:22:56.999Z</time></trkpt><trkpt lat="44.68406784564754" lon="10.016342455728868"><ele>185.0</ele><time>2026-04-18T08:22:57.998Z</time></trkpt><trkpt lat="44.68400333950326" lon="10.016347631608543"><ele>184.99999999999997</ele><time>2026-04-18T08:22:58.998Z</time></trkpt><trkpt lat="44.683937689638725" lon="10.016354515762783"><ele>185.0</ele><time>2026-04-18T08:22:59.998Z</time></trkpt><trkpt lat="44.683873328560765" lon="10.016361884624166"><ele>185.0</ele><time>2026-04-18T08:23:00.998Z</time></trkpt><trkpt lat="44.68380703145746" lon="10.01636309345704"><ele>185.0</ele><time>2026-04-18T08:23:01.998Z</time></trkpt><trkpt lat="44.68374221191784" lon="10.016366187822387"><ele>185.0</ele><time>2026-04-18T08:23:02.998Z</time></trkpt><trkpt lat="44.68367707423359" lon="10.016368214696405"><ele>184.99999999999997</ele><time>2026-04-18T08:23:03.998Z</time></trkpt><trkpt lat="44.68361244991916" lon="10.016368509344458"><ele>185.0</ele><time>2026-04-18T08:23:04.998Z</time></trkpt><trkpt lat="44.68354852794974" lon="10.016374270707635"><ele>183.66666666666666</ele><time>2026-04-18T08:23:05.998Z</time></trkpt><trkpt lat="44.68348095689973" lon="10.016374209135408"><ele>182.33333333333331</ele><time>2026-04-18T08:23:06.998Z</time></trkpt><trkpt lat="44.683416151492736" lon="10.016376738021945"><ele>181.0</ele><time>2026-04-18T08:23:07.998Z</time></trkpt><trkpt lat="44.68335182649981" lon="10.016377980334719"><ele>179.66666666666666</ele><time>2026-04-18T08:23:08.998Z</time></trkpt><trkpt lat="44.683286650239744" lon="10.016378723060491"><ele>178.33333333333334</ele><time>2026-04-18T08:23:09.998Z</time></trkpt><trkpt lat="44.68315695591413" lon="10.016385921847412"><ele>177.0</ele><time>2026-04-18T08:23:11.998Z</time></trkpt><trkpt lat="44.68309238194865" lon="10.016388654595488"><ele>177.0</ele><time>2026-04-18T08:23:12.998Z</time></trkpt><trkpt lat="44.683026494686374" lon="10.016387702137573"><ele>177.0</ele><time>2026-04-18T08:23:13.998Z</time></trkpt><trkpt lat="44.682959115779724" lon="10.016389151914964"><ele>177.0</ele><time>2026-04-18T08:23:14.998Z</time></trkpt><trkpt lat="44.682895535170154" lon="10.016391241414993"><ele>177.0</ele><time>2026-04-18T08:23:15.998Z</time></trkpt><trkpt lat="44.68283140009632" lon="10.016394803545841"><ele>177.0</ele><time>2026-04-18T08:23:16.998Z</time></trkpt><trkpt lat="44.68276817429805" lon="10.016396550505446"><ele>177.0</ele><time>2026-04-18T08:23:17.998Z</time></trkpt><trkpt lat="44.682642357042035" lon="10.016401655025104"><ele>176.85714285714286</ele><time>2026-04-18T08:23:19.998Z</time></trkpt><trkpt lat="44.68257871052406" lon="10.016401217772263"><ele>176.7142857142857</ele><time>2026-04-18T08:23:20.998Z</time></trkpt><trkpt lat="44.68251333591506" lon="10.01640119579341"><ele>176.57142857142856</ele><time>2026-04-18T08:23:21.998Z</time></trkpt><trkpt lat="44.68245008660221" lon="10.01640428391265"><ele>176.42857142857144</ele><time>2026-04-18T08:23:22.998Z</time></trkpt><trkpt lat="44.68238494622109" lon="10.016407861722394"><ele>176.28571428571428</ele><time>2026-04-18T08:23:23.998Z</time></trkpt><trkpt lat="44.68232108378424" lon="10.016405935314058"><ele>176.14285714285714</ele><time>2026-04-18T08:23:24.998Z</time></trkpt><trkpt lat="44.68225722382635" lon="10.016403566391787"><ele>176.0</ele><time>2026-04-18T08:23:25.998Z</time></trkpt><trkpt lat="44.68219274517812" lon="10.016406070117464"><ele>176.0</ele><time>2026-04-18T08:23:26.998Z</time></trkpt><trkpt lat="44.6821289190508" lon="10.016412177298482"><ele>176.0</ele><time>2026-04-18T08:23:27.998Z</time></trkpt><trkpt lat="44.68206419286842" lon="10.016417092450123"><ele>176.0</ele><time>2026-04-18T08:23:28.998Z</time></trkpt><trkpt lat="44.68200011517726" lon="10.016417826931267"><ele>176.0</ele><time>2026-04-18T08:23:29.998Z</time></trkpt><trkpt lat="44.68193517156148" lon="10.016418704209713"><ele>176.0</ele><time>2026-04-18T08:23:30.998Z</time></trkpt><trkpt lat="44.68187128652566" lon="10.016425921197492"><ele>176.0</ele><time>2026-04-18T08:23:31.998Z</time></trkpt><trkpt lat="44.681806677456734" lon="10.016426055490381"><ele>176.0</ele><time>2026-04-18T08:23:32.998Z</time></trkpt><trkpt lat="44.68173843770848" lon="10.016429670680735"><ele>176.42857142857144</ele><time>2026-04-18T08:23:33.998Z</time></trkpt><trkpt lat="44.681672870078216" lon="10.016429611258493"><ele>176.85714285714286</ele><time>2026-04-18T08:23:34.998Z</time></trkpt><trkpt lat="44.681609190108254" lon="10.016419890452658"><ele>177.28571428571428</ele><time>2026-04-18T08:23:35.998Z</time></trkpt><trkpt lat="44.68154234119654" lon="10.016404285199217"><ele>177.71428571428572</ele><time>2026-04-18T08:23:36.998Z</time></trkpt><trkpt lat="44.68147815813067" lon="10.016389959880817"><ele>178.14285714285714</ele><time>2026-04-18T08:23:37.998Z</time></trkpt><trkpt lat="44.68141493855844" lon="10.016373919147702"><ele>178.57142857142858</ele><time>2026-04-18T08:23:38.998Z</time></trkpt><trkpt lat="44.68135054186903" lon="10.016356774331053"><ele>179.0</ele><time>2026-04-18T08:23:39.998Z</time></trkpt><trkpt lat="44.68128574062112" lon="10.016338989323707"><ele>179.00000000000003</ele><time>2026-04-18T08:23:40.998Z</time></trkpt><trkpt lat="44.68122190811438" lon="10.01632738407998"><ele>179.0</ele><time>2026-04-18T08:23:41.998Z</time></trkpt><trkpt lat="44.681156809404875" lon="10.016321282019835"><ele>179.0</ele><time>2026-04-18T08:23:42.998Z</time></trkpt><trkpt lat="44.681090029899096" lon="10.016321370683078"><ele>179.0</ele><time>2026-04-18T08:23:43.998Z</time></trkpt><trkpt lat="44.681024563096706" lon="10.016326206425033"><ele>179.0</ele><time>2026-04-18T08:23:44.998Z</time></trkpt><trkpt lat="44.680959412493216" lon="10.016330911132771"><ele>179.00000000000003</ele><time>2026-04-18T08:23:45.998Z</time></trkpt><trkpt lat="44.68089212042447" lon="10.016335261242396"><ele>179.0</ele><time>2026-04-18T08:23:46.998Z</time></trkpt><trkpt lat="44.68082901968787" lon="10.016335912533236"><ele>179.14285714285717</ele><time>2026-04-18T08:23:48Z</time></trkpt><trkpt lat="44.68076223109293" lon="10.016333904329093"><ele>179.28571428571428</ele><time>2026-04-18T08:23:49Z</time></trkpt><trkpt lat="44.68069792122621" lon="10.01633801252077"><ele>179.42857142857144</ele><time>2026-04-18T08:23:50Z</time></trkpt><trkpt lat="44.68063334482188" lon="10.016333983307263"><ele>179.57142857142858</ele><time>2026-04-18T08:23:51Z</time></trkpt><trkpt lat="44.68056842296123" lon="10.016330028415474"><ele>179.71428571428572</ele><time>2026-04-18T08:23:52Z</time></trkpt><trkpt lat="44.68050432289618" lon="10.016334817931932"><ele>179.85714285714286</ele><time>2026-04-18T08:23:53Z</time></trkpt><trkpt lat="44.68044003247657" lon="10.016341795812968"><ele>180.0</ele><time>2026-04-18T08:23:54Z</time></trkpt><trkpt lat="44.68031489898452" lon="10.016346776519073"><ele>180.8</ele><time>2026-04-18T08:23:56Z</time></trkpt><trkpt lat="44.68019744242694" lon="10.016349364149132"><ele>181.6</ele><time>2026-04-18T08:23:58Z</time></trkpt><trkpt lat="44.68008137936268" lon="10.016357163630438"><ele>182.39999999999998</ele><time>2026-04-18T08:24:00Z</time></trkpt><trkpt lat="44.679972028637586" lon="10.016359867536117"><ele>183.2</ele><time>2026-04-18T08:24:02Z</time></trkpt><trkpt lat="44.67987210492184" lon="10.016371972862412"><ele>184.0</ele><time>2026-04-18T08:24:04Z</time></trkpt><trkpt lat="44.679776517078345" lon="10.01637353211854"><ele>184.0</ele><time>2026-04-18T08:24:06Z</time></trkpt><trkpt lat="44.67956002228725" lon="10.01643025390053"><ele>184.0</ele><time>2026-04-18T08:24:08.999Z</time></trkpt><trkpt lat="44.67948390988895" lon="10.01645489111082"><ele>184.0</ele><time>2026-04-18T08:24:10.999Z</time></trkpt><trkpt lat="44.679409290636926" lon="10.016483079497528"><ele>184.0</ele><time>2026-04-18T08:24:12.999Z</time></trkpt><trkpt lat="44.67934286794844" lon="10.016507260950515"><ele>184.0</ele><time>2026-04-18T08:24:14.999Z</time></trkpt><trkpt lat="44.679262415421746" lon="10.016494399084952"><ele>185.2857142857143</ele><time>2026-04-18T08:24:16.999Z</time></trkpt><trkpt lat="44.67920297536691" lon="10.016532186885584"><ele>186.57142857142856</ele><time>2026-04-18T08:24:18.999Z</time></trkpt><trkpt lat="44.679142666095146" lon="10.016567042288127"><ele>187.85714285714286</ele><time>2026-04-18T08:24:20.999Z</time></trkpt><trkpt lat="44.67908583289684" lon="10.016605548200635"><ele>189.14285714285717</ele><time>2026-04-18T08:24:22.999Z</time></trkpt><trkpt lat="44.67902983854812" lon="10.01666543835674"><ele>190.42857142857144</ele><time>2026-04-18T08:24:24.999Z</time></trkpt><trkpt lat="44.67897838163049" lon="10.016730239647602"><ele>191.71428571428572</ele><time>2026-04-18T08:24:26.999Z</time></trkpt><trkpt lat="44.67904392993516" lon="10.016731007878949"><ele>193.0</ele><time>2026-04-18T08:24:28.999Z</time></trkpt><trkpt lat="44.679008465635015" lon="10.016807090505145"><ele>192.99999999999997</ele><time>2026-04-18T08:24:31.999Z</time></trkpt><trkpt lat="44.67893612699725" lon="10.016878279571317"><ele>193.0</ele><time>2026-04-18T08:24:34.999Z</time></trkpt><trkpt lat="44.678871142929786" lon="10.016947129463222"><ele>193.0</ele><time>2026-04-18T08:24:35.999Z</time></trkpt><trkpt lat="44.678787569945236" lon="10.016969697600164"><ele>193.0</ele><time>2026-04-18T08:24:38.999Z</time></trkpt><trkpt lat="44.678720649442596" lon="10.016887006614736"><ele>192.99999999999997</ele><time>2026-04-18T08:24:41.999Z</time></trkpt><trkpt lat="44.67871674222713" lon="10.016777375974899"><ele>193.0</ele><time>2026-04-18T08:24:44.999Z</time></trkpt><trkpt lat="44.678752751351325" lon="10.016688544126087"><ele>194.49999999999997</ele><time>2026-04-18T08:24:47.999Z</time></trkpt><trkpt lat="44.678805129496624" lon="10.016615285170971"><ele>196.0</ele><time>2026-04-18T08:24:50.999Z</time></trkpt><trkpt lat="44.67886063589859" lon="10.016544093692314"><ele>197.5</ele><time>2026-04-18T08:24:53.999Z</time></trkpt><trkpt lat="44.6789221197892" lon="10.016467564382328"><ele>199.0</ele><time>2026-04-18T08:24:56.999Z</time></trkpt><trkpt lat="44.67897439143927" lon="10.016391993264094"><ele>200.49999999999997</ele><time>2026-04-18T08:24:59.999Z</time></trkpt><trkpt lat="44.67902398926726" lon="10.01631815326993"><ele>202.0</ele><time>2026-04-18T08:25:02.998Z</time></trkpt><trkpt lat="44.679079455936" lon="10.016238380051359"><ele>202.0</ele><time>2026-04-18T08:25:05.998Z</time></trkpt><trkpt lat="44.679127915021915" lon="10.016166661977422"><ele>202.0</ele><time>2026-04-18T08:25:08.998Z</time></trkpt><trkpt lat="44.679173639788715" lon="10.016104970575359"><ele>202.0</ele><time>2026-04-18T08:25:11.998Z</time></trkpt><trkpt lat="44.679211818891766" lon="10.01602830238457"><ele>202.0</ele><time>2026-04-18T08:25:14.998Z</time></trkpt><trkpt lat="44.679237594392525" lon="10.015937758861906"><ele>202.0</ele><time>2026-04-18T08:25:17.998Z</time></trkpt><trkpt lat="44.67923779008979" lon="10.015834133255593"><ele>202.0</ele><time>2026-04-18T08:25:20.998Z</time></trkpt><trkpt lat="44.6791990453791" lon="10.015741814579496"><ele>202.0</ele><time>2026-04-18T08:25:23.998Z</time></trkpt><trkpt lat="44.679131755271406" lon="10.015681325098376"><ele>202.28571428571428</ele><time>2026-04-18T08:25:26.998Z</time></trkpt><trkpt lat="44.67905830850106" lon="10.015651996008694"><ele>202.57142857142856</ele><time>2026-04-18T08:25:29.998Z</time></trkpt><trkpt lat="44.67898332616918" lon="10.01562099931812"><ele>202.85714285714286</ele><time>2026-04-18T08:25:32.998Z</time></trkpt><trkpt lat="44.67891338777383" lon="10.01557291776659"><ele>203.14285714285714</ele><time>2026-04-18T08:25:35.998Z</time></trkpt><trkpt lat="44.678853436569014" lon="10.01551599166954"><ele>203.42857142857144</ele><time>2026-04-18T08:25:38.998Z</time></trkpt><trkpt lat="44.67880032727035" lon="10.015450611880095"><ele>203.71428571428572</ele><time>2026-04-18T08:25:41.998Z</time></trkpt><trkpt lat="44.67874456475385" lon="10.015386619710396"><ele>204.0</ele><time>2026-04-18T08:25:44.998Z</time></trkpt><trkpt lat="44.67868751302167" lon="10.015328066967447"><ele>204.0</ele><time>2026-04-18T08:25:47.998Z</time></trkpt><trkpt lat="44.678633495819255" lon="10.015261696144691"><ele>204.0</ele><time>2026-04-18T08:25:50.998Z</time></trkpt><trkpt lat="44.67857302661858" lon="10.015209376680126"><ele>204.0</ele><time>2026-04-18T08:25:54Z</time></trkpt><trkpt lat="44.678504654510874" lon="10.01516808990677"><ele>204.0</ele><time>2026-04-18T08:25:57Z</time></trkpt><trkpt lat="44.678433173075504" lon="10.01513911874672"><ele>204.0</ele><time>2026-04-18T08:26:00Z</time></trkpt><trkpt lat="44.67835623648049" lon="10.015119585070348"><ele>204.0</ele><time>2026-04-18T08:26:03Z</time></trkpt><trkpt lat="44.67828101970107" lon="10.015105691930524"><ele>204.0</ele><time>2026-04-18T08:26:06Z</time></trkpt><trkpt lat="44.67820120059732" lon="10.015088274563198"><ele>204.57142857142858</ele><time>2026-04-18T08:26:09Z</time></trkpt><trkpt lat="44.6781275852094" lon="10.015066516538267"><ele>205.14285714285717</ele><time>2026-04-18T08:26:12Z</time></trkpt><trkpt lat="44.678058352713336" lon="10.01505522813836"><ele>205.71428571428572</ele><time>2026-04-18T08:26:14.999Z</time></trkpt><trkpt lat="44.67798728309186" lon="10.01504153823994"><ele>206.28571428571428</ele><time>2026-04-18T08:26:17.999Z</time></trkpt><trkpt lat="44.677916176539746" lon="10.01502675848654"><ele>206.85714285714286</ele><time>2026-04-18T08:26:20.999Z</time></trkpt><trkpt lat="44.677845632204495" lon="10.015006601291002"><ele>207.42857142857142</ele><time>2026-04-18T08:26:23.999Z</time></trkpt><trkpt lat="44.677776861064935" lon="10.014996888768685"><ele>208.0</ele><time>2026-04-18T08:26:26.999Z</time></trkpt><trkpt lat="44.677705207003385" lon="10.014989112203473"><ele>207.57142857142856</ele><time>2026-04-18T08:26:29.999Z</time></trkpt><trkpt lat="44.67763408315825" lon="10.014973967484798"><ele>207.14285714285717</ele><time>2026-04-18T08:26:32.999Z</time></trkpt><trkpt lat="44.67755791189987" lon="10.014965138316539"><ele>206.71428571428572</ele><time>2026-04-18T08:26:35.999Z</time></trkpt><trkpt lat="44.67748241555731" lon="10.014957805434404"><ele>206.28571428571428</ele><time>2026-04-18T08:26:38.999Z</time></trkpt><trkpt lat="44.677413565943176" lon="10.01495588825178"><ele>205.85714285714283</ele><time>2026-04-18T08:26:41.999Z</time></trkpt><trkpt lat="44.67734275146021" lon="10.014944275653013"><ele>205.42857142857144</ele><time>2026-04-18T08:26:44.999Z</time></trkpt><trkpt lat="44.6772724948166" lon="10.014936457918946"><ele>205.0</ele><time>2026-04-18T08:26:47.999Z</time></trkpt><trkpt lat="44.67720328710591" lon="10.014921916126982"><ele>205.0</ele><time>2026-04-18T08:26:50.999Z</time></trkpt><trkpt lat="44.67713004272694" lon="10.014913407186695"><ele>205.0</ele><time>2026-04-18T08:26:53.999Z</time></trkpt><trkpt lat="44.677057504040796" lon="10.014901487595372"><ele>205.0</ele><time>2026-04-18T08:26:56.999Z</time></trkpt><trkpt lat="44.676988588497224" lon="10.014892449827775"><ele>205.0</ele><time>2026-04-18T08:26:59.999Z</time></trkpt><trkpt lat="44.676917072198506" lon="10.01487846660524"><ele>205.0</ele><time>2026-04-18T08:27:02.999Z</time></trkpt><trkpt lat="44.67685164917976" lon="10.014859459320611"><ele>205.0</ele><time>2026-04-18T08:27:05.999Z</time></trkpt><trkpt lat="44.67678300461275" lon="10.014845337122324"><ele>205.0</ele><time>2026-04-18T08:27:08.998Z</time></trkpt><trkpt lat="44.67671545826847" lon="10.01481956935548"><ele>208.0</ele><time>2026-04-18T08:27:11.998Z</time></trkpt><trkpt lat="44.67665283276158" lon="10.014781483770403"><ele>211.0</ele><time>2026-04-18T08:27:14.998Z</time></trkpt><trkpt lat="44.676591509262195" lon="10.014740529617944"><ele>214.0</ele><time>2026-04-18T08:27:17.998Z</time></trkpt><trkpt lat="44.676528060911025" lon="10.014694174324228"><ele>217.0</ele><time>2026-04-18T08:27:20.998Z</time></trkpt><trkpt lat="44.67646971645689" lon="10.014645503768248"><ele>220.0</ele><time>2026-04-18T08:27:23.998Z</time></trkpt><trkpt lat="44.676411017350134" lon="10.014592800391338"><ele>223.0</ele><time>2026-04-18T08:27:26.998Z</time></trkpt><trkpt lat="44.6763512270593" lon="10.014542116878106"><ele>226.0</ele><time>2026-04-18T08:27:29.998Z</time></trkpt><trkpt lat="44.67629570046578" lon="10.014484955750175"><ele>226.0</ele><time>2026-04-18T08:27:32.998Z</time></trkpt><trkpt lat="44.67623760702157" lon="10.014431786089599"><ele>226.0</ele><time>2026-04-18T08:27:35.998Z</time></trkpt><trkpt lat="44.67618270313219" lon="10.014374638833862"><ele>226.0</ele><time>2026-04-18T08:27:38.998Z</time></trkpt><trkpt lat="44.67612173008118" lon="10.014322223064038"><ele>226.0</ele><time>2026-04-18T08:27:41.998Z</time></trkpt><trkpt lat="44.67606195596136" lon="10.014269423124478"><ele>226.0</ele><time>2026-04-18T08:27:44.998Z</time></trkpt><trkpt lat="44.67600312642892" lon="10.014215405521798"><ele>226.0</ele><time>2026-04-18T08:27:47.998Z</time></trkpt><trkpt lat="44.675939355117876" lon="10.0141628175018"><ele>226.0</ele><time>2026-04-18T08:27:50.998Z</time></trkpt><trkpt lat="44.675880969145595" lon="10.01411631373467"><ele>227.85714285714286</ele><time>2026-04-18T08:27:53.998Z</time></trkpt><trkpt lat="44.67581294292439" lon="10.014083830761859"><ele>229.71428571428572</ele><time>2026-04-18T08:27:56.998Z</time></trkpt><trkpt lat="44.67575408516935" lon="10.014027334858392"><ele>231.57142857142858</ele><time>2026-04-18T08:28:00Z</time></trkpt><trkpt lat="44.67569240297241" lon="10.013974109794901"><ele>233.42857142857144</ele><time>2026-04-18T08:28:03Z</time></trkpt><trkpt lat="44.67562852497902" lon="10.013935551546746"><ele>235.28571428571428</ele><time>2026-04-18T08:28:06Z</time></trkpt><trkpt lat="44.67555880888207" lon="10.013896835834137"><ele>237.14285714285717</ele><time>2026-04-18T08:28:09Z</time></trkpt><trkpt lat="44.675490370199576" lon="10.013862677759118"><ele>239.00000000000003</ele><time>2026-04-18T08:28:12Z</time></trkpt><trkpt lat="44.67541612552229" lon="10.013822584154166"><ele>239.00000000000003</ele><time>2026-04-18T08:28:15Z</time></trkpt><trkpt lat="44.67535120950364" lon="10.013793607632744"><ele>239.0</ele><time>2026-04-18T08:28:17.999Z</time></trkpt><trkpt lat="44.675286980979834" lon="10.013761054559634"><ele>239.00000000000003</ele><time>2026-04-18T08:28:20.999Z</time></trkpt><trkpt lat="44.675217575462206" lon="10.013738247025593"><ele>239.00000000000003</ele><time>2026-04-18T08:28:23.999Z</time></trkpt><trkpt lat="44.67514693874952" lon="10.013711813112119"><ele>239.0</ele><time>2026-04-18T08:28:26.999Z</time></trkpt><trkpt lat="44.675076735329704" lon="10.013692573494572"><ele>239.00000000000003</ele><time>2026-04-18T08:28:29.999Z</time></trkpt><trkpt lat="44.67500600224067" lon="10.013673789535098"><ele>239.00000000000003</ele><time>2026-04-18T08:28:32.999Z</time></trkpt><trkpt lat="44.674936345855805" lon="10.013647613489834"><ele>240.00000000000003</ele><time>2026-04-18T08:28:35.999Z</time></trkpt><trkpt lat="44.674867833824884" lon="10.013632441839473"><ele>241.0</ele><time>2026-04-18T08:28:38.999Z</time></trkpt><trkpt lat="44.674794750084615" lon="10.013608438834721"><ele>242.00000000000003</ele><time>2026-04-18T08:28:41.999Z</time></trkpt><trkpt lat="44.67472548992605" lon="10.013583282376974"><ele>243.00000000000003</ele><time>2026-04-18T08:28:44.999Z</time></trkpt><trkpt lat="44.67466085289925" lon="10.01355071784883"><ele>244.0</ele><time>2026-04-18T08:28:47.999Z</time></trkpt><trkpt lat="44.67459118746904" lon="10.013505425576053"><ele>245.00000000000003</ele><time>2026-04-18T08:28:50.999Z</time></trkpt><trkpt lat="44.67452991790123" lon="10.013453685907372"><ele>246.00000000000003</ele><time>2026-04-18T08:28:53.999Z</time></trkpt><trkpt lat="44.67447358189474" lon="10.013398329863922"><ele>247.28571428571433</ele><time>2026-04-18T08:28:56.999Z</time></trkpt><trkpt lat="44.674413269943834" lon="10.013341018741547"><ele>248.57142857142858</ele><time>2026-04-18T08:28:59.999Z</time></trkpt><trkpt lat="44.67435530780434" lon="10.013283757796092"><ele>249.8571428571429</ele><time>2026-04-18T08:29:02.999Z</time></trkpt><trkpt lat="44.67430180798977" lon="10.013215803059426"><ele>251.14285714285717</ele><time>2026-04-18T08:29:05.999Z</time></trkpt><trkpt lat="44.674247537053624" lon="10.013150263638494"><ele>252.42857142857144</ele><time>2026-04-18T08:29:08.999Z</time></trkpt><trkpt lat="44.67418922895012" lon="10.013080505248464"><ele>253.71428571428572</ele><time>2026-04-18T08:29:11.998Z</time></trkpt><trkpt lat="44.674135765109334" lon="10.013005073757016"><ele>255.0</ele><time>2026-04-18T08:29:14.998Z</time></trkpt><trkpt lat="44.674079977410756" lon="10.012942163973172"><ele>255.33333333333334</ele><time>2026-04-18T08:29:17.998Z</time></trkpt><trkpt lat="44.67402990016352" lon="10.012869056998294"><ele>255.66666666666669</ele><time>2026-04-18T08:29:20.998Z</time></trkpt><trkpt lat="44.67396572994461" lon="10.012806017133206"><ele>256.0</ele><time>2026-04-18T08:29:23.998Z</time></trkpt><trkpt lat="44.67390198908166" lon="10.0127501247549"><ele>256.33333333333337</ele><time>2026-04-18T08:29:26.998Z</time></trkpt><trkpt lat="44.67383177367725" lon="10.012692399399057"><ele>256.6666666666667</ele><time>2026-04-18T08:29:29.998Z</time></trkpt><trkpt lat="44.673756900243745" lon="10.012644356361589"><ele>257.0</ele><time>2026-04-18T08:29:32.998Z</time></trkpt><trkpt lat="44.673682210392265" lon="10.012603482200086"><ele>257.0</ele><time>2026-04-18T08:29:35.998Z</time></trkpt><trkpt lat="44.67361058437967" lon="10.012563778976304"><ele>257.0</ele><time>2026-04-18T08:29:38.998Z</time></trkpt><trkpt lat="44.673540147631044" lon="10.01252172010034"><ele>257.0</ele><time>2026-04-18T08:29:41.998Z</time></trkpt><trkpt lat="44.673471437664745" lon="10.012488631250864"><ele>257.0</ele><time>2026-04-18T08:29:44.998Z</time></trkpt><trkpt lat="44.673408162323256" lon="10.012446516114858"><ele>257.0</ele><time>2026-04-18T08:29:47.998Z</time></trkpt><trkpt lat="44.673339605857" lon="10.012400878520456"><ele>257.0</ele><time>2026-04-18T08:29:50.998Z</time></trkpt><trkpt lat="44.67327363444147" lon="10.01235752392093"><ele>257.0</ele><time>2026-04-18T08:29:53.998Z</time></trkpt><trkpt lat="44.67321362871972" lon="10.01230096866305"><ele>258.57142857142856</ele><time>2026-04-18T08:29:56.998Z</time></trkpt><trkpt lat="44.67315940876251" lon="10.012244586775106"><ele>260.14285714285717</ele><time>2026-04-18T08:29:59.998Z</time></trkpt><trkpt lat="44.67310487312863" lon="10.01217895342517"><ele>261.7142857142857</ele><time>2026-04-18T08:30:02.997Z</time></trkpt><trkpt lat="44.67305123549618" lon="10.012108830405444"><ele>263.2857142857143</ele><time>2026-04-18T08:30:06Z</time></trkpt><trkpt lat="44.67299715230181" lon="10.012034885650099"><ele>264.85714285714283</ele><time>2026-04-18T08:30:09Z</time></trkpt><trkpt lat="44.67294312140679" lon="10.011958546152462"><ele>266.42857142857144</ele><time>2026-04-18T08:30:12Z</time></trkpt><trkpt lat="44.67288940099344" lon="10.011883582972322"><ele>268.0</ele><time>2026-04-18T08:30:15Z</time></trkpt><trkpt lat="44.67283181462448" lon="10.011808695405927"><ele>268.0</ele><time>2026-04-18T08:30:18Z</time></trkpt><trkpt lat="44.672777798618505" lon="10.011732150414737"><ele>268.0</ele><time>2026-04-18T08:30:21Z</time></trkpt><trkpt lat="44.6727186082294" lon="10.011666760957926"><ele>268.0</ele><time>2026-04-18T08:30:23.999Z</time></trkpt><trkpt lat="44.672654840358156" lon="10.011606400222776"><ele>268.0</ele><time>2026-04-18T08:30:26.999Z</time></trkpt><trkpt lat="44.67259312382146" lon="10.011545136989966"><ele>268.0</ele><time>2026-04-18T08:30:29.999Z</time></trkpt><trkpt lat="44.67252829609695" lon="10.011482866441822"><ele>268.0</ele><time>2026-04-18T08:30:32.999Z</time></trkpt><trkpt lat="44.67246081811649" lon="10.011426468442949"><ele>270.0</ele><time>2026-04-18T08:30:35.999Z</time></trkpt><trkpt lat="44.67239619428606" lon="10.011367931700839"><ele>272.0</ele><time>2026-04-18T08:30:38.999Z</time></trkpt><trkpt lat="44.6723323786783" lon="10.01130714462799"><ele>274.0</ele><time>2026-04-18T08:30:41.999Z</time></trkpt><trkpt lat="44.67227090891927" lon="10.01124765602205"><ele>276.0</ele><time>2026-04-18T08:30:44.999Z</time></trkpt><trkpt lat="44.67220664172445" lon="10.01119586867576"><ele>278.0</ele><time>2026-04-18T08:30:47.999Z</time></trkpt><trkpt lat="44.67214231580397" lon="10.01114228240696"><ele>280.0</ele><time>2026-04-18T08:30:50.999Z</time></trkpt><trkpt lat="44.67207637014239" lon="10.011095609623911"><ele>280.0</ele><time>2026-04-18T08:30:53.999Z</time></trkpt><trkpt lat="44.67200871668833" lon="10.011059319722836"><ele>280.0</ele><time>2026-04-18T08:30:56.999Z</time></trkpt><trkpt lat="44.671936185435115" lon="10.01103391880799"><ele>280.0</ele><time>2026-04-18T08:30:59.999Z</time></trkpt><trkpt lat="44.67186442743869" lon="10.011021342803131"><ele>280.0</ele><time>2026-04-18T08:31:02.999Z</time></trkpt><trkpt lat="44.67178890171071" lon="10.011013950376938"><ele>280.0</ele><time>2026-04-18T08:31:05.999Z</time></trkpt><trkpt lat="44.671716530812375" lon="10.011008896556019"><ele>280.0</ele><time>2026-04-18T08:31:08.999Z</time></trkpt><trkpt lat="44.67164784315614" lon="10.011000233283113"><ele>280.0</ele><time>2026-04-18T08:31:11.999Z</time></trkpt><trkpt lat="44.67157795463493" lon="10.010999950843333"><ele>280.85714285714283</ele><time>2026-04-18T08:31:14.998Z</time></trkpt><trkpt lat="44.67150898393127" lon="10.011002943185396"><ele>281.7142857142857</ele><time>2026-04-18T08:31:17.998Z</time></trkpt><trkpt lat="44.67143967457045" lon="10.010992843731346"><ele>282.57142857142856</ele><time>2026-04-18T08:31:20.998Z</time></trkpt><trkpt lat="44.67136967531112" lon="10.010995576390558"><ele>283.42857142857144</ele><time>2026-04-18T08:31:23.998Z</time></trkpt><trkpt lat="44.67130220209406" lon="10.010999572090306"><ele>284.2857142857143</ele><time>2026-04-18T08:31:26.998Z</time></trkpt><trkpt lat="44.67123277758333" lon="10.010993781475998"><ele>285.1428571428571</ele><time>2026-04-18T08:31:29.998Z</time></trkpt><trkpt lat="44.67116039873142" lon="10.010995849872806"><ele>286.0</ele><time>2026-04-18T08:31:32.998Z</time></trkpt><trkpt lat="44.671090481517766" lon="10.010984762437582"><ele>287.1428571428571</ele><time>2026-04-18T08:31:35.998Z</time></trkpt><trkpt lat="44.67101542381503" lon="10.010971670371363"><ele>288.2857142857143</ele><time>2026-04-18T08:31:38.998Z</time></trkpt><trkpt lat="44.67094879082103" lon="10.010924031825246"><ele>289.42857142857144</ele><time>2026-04-18T08:31:41.998Z</time></trkpt><trkpt lat="44.67089597598116" lon="10.010850879475884"><ele>290.57142857142856</ele><time>2026-04-18T08:31:44.998Z</time></trkpt><trkpt lat="44.670874327839606" lon="10.01075031240013"><ele>291.7142857142857</ele><time>2026-04-18T08:31:47.998Z</time></trkpt><trkpt lat="44.670863958362666" lon="10.010651433711832"><ele>292.85714285714283</ele><time>2026-04-18T08:31:50.998Z</time></trkpt><trkpt lat="44.67086573913118" lon="10.010545536905973"><ele>294.0</ele><time>2026-04-18T08:31:53.998Z</time></trkpt><trkpt lat="44.67086460999575" lon="10.01044192676476"><ele>294.2857142857143</ele><time>2026-04-18T08:31:56.998Z</time></trkpt><trkpt lat="44.670850936498766" lon="10.010347197185661"><ele>294.57142857142856</ele><time>2026-04-18T08:31:59.998Z</time></trkpt><trkpt lat="44.67083305308612" lon="10.010246978485288"><ele>294.8571428571429</ele><time>2026-04-18T08:32:02.998Z</time></trkpt><trkpt lat="44.670796633818874" lon="10.010154096752697"><ele>295.1428571428571</ele><time>2026-04-18T08:32:05.998Z</time></trkpt><trkpt lat="44.670745904684566" lon="10.010084461947473"><ele>295.42857142857144</ele><time>2026-04-18T08:32:08.997Z</time></trkpt><trkpt lat="44.67067983291123" lon="10.010026550983717"><ele>295.7142857142857</ele><time>2026-04-18T08:32:12Z</time></trkpt><trkpt lat="44.67060745794526" lon="10.009997281242068"><ele>296.0</ele><time>2026-04-18T08:32:15Z</time></trkpt><trkpt lat="44.670529759675006" lon="10.009974620326721"><ele>296.33333333333337</ele><time>2026-04-18T08:32:18Z</time></trkpt><trkpt lat="44.67045293456071" lon="10.009959372926296"><ele>296.6666666666667</ele><time>2026-04-18T08:32:21Z</time></trkpt><trkpt lat="44.6703765560652" lon="10.00994991038243"><ele>297.0</ele><time>2026-04-18T08:32:24Z</time></trkpt><trkpt lat="44.67029934777254" lon="10.009935733802688"><ele>297.3333333333333</ele><time>2026-04-18T08:32:26.999Z</time></trkpt><trkpt lat="44.67022416961443" lon="10.009922944895699"><ele>297.66666666666663</ele><time>2026-04-18T08:32:29.999Z</time></trkpt><trkpt lat="44.67014755188358" lon="10.009917766374173"><ele>298.0</ele><time>2026-04-18T08:32:32.999Z</time></trkpt><trkpt lat="44.67007562015361" lon="10.009897051897182"><ele>299.57142857142856</ele><time>2026-04-18T08:32:35.999Z</time></trkpt><trkpt lat="44.67000929364215" lon="10.009863671484537"><ele>301.1428571428571</ele><time>2026-04-18T08:32:38.999Z</time></trkpt><trkpt lat="44.66994649688588" lon="10.009814967060656"><ele>302.7142857142857</ele><time>2026-04-18T08:32:41.999Z</time></trkpt><trkpt lat="44.669889131187965" lon="10.009751119461288"><ele>304.2857142857143</ele><time>2026-04-18T08:32:44.999Z</time></trkpt><trkpt lat="44.66985148162117" lon="10.00966501316862"><ele>305.8571428571429</ele><time>2026-04-18T08:32:47.999Z</time></trkpt><trkpt lat="44.66983897391524" lon="10.009559464577617"><ele>307.42857142857144</ele><time>2026-04-18T08:32:50.999Z</time></trkpt><trkpt lat="44.66984827755459" lon="10.009452594998443"><ele>309.0</ele><time>2026-04-18T08:32:53.999Z</time></trkpt><trkpt lat="44.6698680606283" lon="10.009354276430583"><ele>309.0</ele><time>2026-04-18T08:32:56.999Z</time></trkpt><trkpt lat="44.66990430500908" lon="10.009249617714948"><ele>309.0</ele><time>2026-04-18T08:32:59.999Z</time></trkpt><trkpt lat="44.66994095426433" lon="10.009149492131181"><ele>309.0</ele><time>2026-04-18T08:33:02.999Z</time></trkpt><trkpt lat="44.66997971484972" lon="10.009053222039373"><ele>309.0</ele><time>2026-04-18T08:33:05.999Z</time></trkpt><trkpt lat="44.67002816177073" lon="10.008961711379825"><ele>309.0</ele><time>2026-04-18T08:33:08.999Z</time></trkpt><trkpt lat="44.67008322769222" lon="10.008879660280318"><ele>309.0</ele><time>2026-04-18T08:33:11.999Z</time></trkpt><trkpt lat="44.67014347392472" lon="10.008786101847488"><ele>309.0</ele><time>2026-04-18T08:33:14.999Z</time></trkpt><trkpt lat="44.67020415776443" lon="10.008698994590166"><ele>309.0</ele><time>2026-04-18T08:33:17.998Z</time></trkpt><trkpt lat="44.670257417695424" lon="10.008607229663838"><ele>309.0</ele><time>2026-04-18T08:33:20.998Z</time></trkpt><trkpt lat="44.670296955818536" lon="10.008531151575259"><ele>309.0</ele><time>2026-04-18T08:33:23.998Z</time></trkpt><trkpt lat="44.67034663086374" lon="10.008441990522382"><ele>309.0</ele><time>2026-04-18T08:33:26.998Z</time></trkpt><trkpt lat="44.67039480809825" lon="10.008340585048098"><ele>309.0</ele><time>2026-04-18T08:33:29.998Z</time></trkpt><trkpt lat="44.670437460628804" lon="10.00822330382028"><ele>310.3333333333333</ele><time>2026-04-18T08:33:32.998Z</time></trkpt><trkpt lat="44.67046151501946" lon="10.00811450113785"><ele>311.6666666666667</ele><time>2026-04-18T08:33:35.998Z</time></trkpt><trkpt lat="44.670467278096744" lon="10.008009748452412"><ele>313.0</ele><time>2026-04-18T08:33:38.998Z</time></trkpt><trkpt lat="44.67046625546441" lon="10.007892569276468"><ele>314.33333333333337</ele><time>2026-04-18T08:33:41.998Z</time></trkpt><trkpt lat="44.67046502536044" lon="10.007787282209009"><ele>315.6666666666667</ele><time>2026-04-18T08:33:44.998Z</time></trkpt><trkpt lat="44.67045222033314" lon="10.007679046777755"><ele>317.0</ele><time>2026-04-18T08:33:47.999Z</time></trkpt><trkpt lat="44.6704325206523" lon="10.007577016446195"><ele>317.0</ele><time>2026-04-18T08:33:50.999Z</time></trkpt><trkpt lat="44.67039675430708" lon="10.007488804649366"><ele>317.0</ele><time>2026-04-18T08:33:53.999Z</time></trkpt><trkpt lat="44.670321232814175" lon="10.007413398366888"><ele>317.0</ele><time>2026-04-18T08:33:57.999Z</time></trkpt><trkpt lat="44.670252284150145" lon="10.007380476632404"><ele>317.0</ele><time>2026-04-18T08:34:00.999Z</time></trkpt><trkpt lat="44.67017616450662" lon="10.007381891871463"><ele>317.0</ele><time>2026-04-18T08:34:03.999Z</time></trkpt><trkpt lat="44.67010465228123" lon="10.007425904631926"><ele>317.0</ele><time>2026-04-18T08:34:06.999Z</time></trkpt><trkpt lat="44.67004151012898" lon="10.007494400203043"><ele>318.33333333333337</ele><time>2026-04-18T08:34:09.998Z</time></trkpt><trkpt lat="44.66997887219029" lon="10.00757761568302"><ele>319.6666666666667</ele><time>2026-04-18T08:34:12.998Z</time></trkpt><trkpt lat="44.66992420223362" lon="10.007675762878941"><ele>321.0</ele><time>2026-04-18T08:34:16Z</time></trkpt><trkpt lat="44.66986539318207" lon="10.007773759782589"><ele>322.3333333333333</ele><time>2026-04-18T08:34:19Z</time></trkpt><trkpt lat="44.669816029983956" lon="10.00786576857197"><ele>323.66666666666663</ele><time>2026-04-18T08:34:22Z</time></trkpt><trkpt lat="44.66976518171576" lon="10.007956455204779"><ele>325.0</ele><time>2026-04-18T08:34:25Z</time></trkpt><trkpt lat="44.66970851813475" lon="10.008034665607017"><ele>325.0</ele><time>2026-04-18T08:34:28Z</time></trkpt><trkpt lat="44.66964656415191" lon="10.008107529337492"><ele>325.0</ele><time>2026-04-18T08:34:31Z</time></trkpt><trkpt lat="44.669573430882" lon="10.008151602474479"><ele>325.0</ele><time>2026-04-18T08:34:34Z</time></trkpt><trkpt lat="44.66950027222554" lon="10.008173110379206"><ele>325.0</ele><time>2026-04-18T08:34:37Z</time></trkpt><trkpt lat="44.669428487588426" lon="10.008176911778005"><ele>325.0</ele><time>2026-04-18T08:34:40Z</time></trkpt><trkpt lat="44.66935655223219" lon="10.008174907580417"><ele>325.0</ele><time>2026-04-18T08:34:43Z</time></trkpt><trkpt lat="44.669286372731385" lon="10.008167377274917"><ele>325.0</ele><time>2026-04-18T08:34:46Z</time></trkpt><trkpt lat="44.66921378522394" lon="10.00816825422064"><ele>326.0</ele><time>2026-04-18T08:34:49Z</time></trkpt><trkpt lat="44.66913959770312" lon="10.008163845455636"><ele>327.0</ele><time>2026-04-18T08:34:52Z</time></trkpt><trkpt lat="44.66906509432371" lon="10.00815680188448"><ele>328.0</ele><time>2026-04-18T08:34:55Z</time></trkpt><trkpt lat="44.66899230865405" lon="10.008151434940807"><ele>329.0</ele><time>2026-04-18T08:34:58Z</time></trkpt><trkpt lat="44.66891933619734" lon="10.008148693989016"><ele>330.0</ele><time>2026-04-18T08:35:01Z</time></trkpt><trkpt lat="44.66884803660323" lon="10.008146934920571"><ele>331.0</ele><time>2026-04-18T08:35:04Z</time></trkpt><trkpt lat="44.6687725634553" lon="10.008146490346649"><ele>332.0</ele><time>2026-04-18T08:35:07Z</time></trkpt><trkpt lat="44.6686975348055" lon="10.008140104943978"><ele>332.0</ele><time>2026-04-18T08:35:10Z</time></trkpt><trkpt lat="44.668619425412714" lon="10.008138179801653"><ele>332.0</ele><time>2026-04-18T08:35:13Z</time></trkpt><trkpt lat="44.66854423674797" lon="10.008138436780591"><ele>332.0</ele><time>2026-04-18T08:35:16Z</time></trkpt><trkpt lat="44.66846840614746" lon="10.008128526426072"><ele>332.0</ele><time>2026-04-18T08:35:19Z</time></trkpt><trkpt lat="44.66838852712624" lon="10.00811591903891"><ele>332.0</ele><time>2026-04-18T08:35:21.999Z</time></trkpt><trkpt lat="44.66830877319217" lon="10.008109433186316"><ele>332.0</ele><time>2026-04-18T08:35:24.999Z</time></trkpt><trkpt lat="44.668232286522596" lon="10.008099321949544"><ele>333.0</ele><time>2026-04-18T08:35:27.999Z</time></trkpt><trkpt lat="44.66814927097952" lon="10.008079900939054"><ele>334.0</ele><time>2026-04-18T08:35:30.999Z</time></trkpt><trkpt lat="44.668062887481604" lon="10.008065683953047"><ele>335.0</ele><time>2026-04-18T08:35:33.999Z</time></trkpt><trkpt lat="44.6679802831189" lon="10.008050319125825"><ele>336.0</ele><time>2026-04-18T08:35:36.999Z</time></trkpt><trkpt lat="44.667892386462356" lon="10.008032158431366"><ele>337.0</ele><time>2026-04-18T08:35:39.999Z</time></trkpt><trkpt lat="44.66780585976027" lon="10.00801765827995"><ele>338.0</ele><time>2026-04-18T08:35:42.999Z</time></trkpt><trkpt lat="44.66771611373044" lon="10.007997011441555"><ele>339.0</ele><time>2026-04-18T08:35:45.999Z</time></trkpt><trkpt lat="44.66762483286038" lon="10.007978974601702"><ele>340.0</ele><time>2026-04-18T08:35:48.999Z</time></trkpt><trkpt lat="44.667558470001964" lon="10.007963073385602"><ele>341.0</ele><time>2026-04-18T08:35:50.999Z</time></trkpt><trkpt lat="44.667489411426665" lon="10.00794366078673"><ele>342.0</ele><time>2026-04-18T08:35:52.999Z</time></trkpt><trkpt lat="44.667413570115166" lon="10.007924267384219"><ele>343.0</ele><time>2026-04-18T08:35:54.999Z</time></trkpt><trkpt lat="44.66733650427951" lon="10.007910096599712"><ele>344.0</ele><time>2026-04-18T08:35:56.999Z</time></trkpt><trkpt lat="44.667255347137356" lon="10.007877871912033"><ele>344.0</ele><time>2026-04-18T08:35:58.999Z</time></trkpt><trkpt lat="44.66716438558263" lon="10.007832104060288"><ele>344.0</ele><time>2026-04-18T08:36:00.999Z</time></trkpt><trkpt lat="44.66707495499411" lon="10.007777877355462"><ele>344.0</ele><time>2026-04-18T08:36:02.999Z</time></trkpt><trkpt lat="44.66698503707653" lon="10.007724322836669"><ele>344.0</ele><time>2026-04-18T08:36:04.999Z</time></trkpt><trkpt lat="44.6668996795551" lon="10.007656154215576"><ele>344.0</ele><time>2026-04-18T08:36:06.999Z</time></trkpt><trkpt lat="44.666809580449" lon="10.007597951372317"><ele>343.6</ele><time>2026-04-18T08:36:08.999Z</time></trkpt><trkpt lat="44.66671736313989" lon="10.007545299608598"><ele>343.2</ele><time>2026-04-18T08:36:10.999Z</time></trkpt><trkpt lat="44.66662585644264" lon="10.007496672459922"><ele>342.8</ele><time>2026-04-18T08:36:12.999Z</time></trkpt><trkpt lat="44.666532991563315" lon="10.007439418443644"><ele>342.40000000000003</ele><time>2026-04-18T08:36:14.998Z</time></trkpt><trkpt lat="44.66643967408961" lon="10.007372127101974"><ele>342.0</ele><time>2026-04-18T08:36:16.998Z</time></trkpt><trkpt lat="44.66634518932463" lon="10.007301126187246"><ele>341.8</ele><time>2026-04-18T08:36:18.998Z</time></trkpt><trkpt lat="44.666252222474974" lon="10.00722253184415"><ele>341.6</ele><time>2026-04-18T08:36:20.998Z</time></trkpt><trkpt lat="44.66616341086087" lon="10.007146658812502"><ele>341.40000000000003</ele><time>2026-04-18T08:36:23Z</time></trkpt><trkpt lat="44.66606483995712" lon="10.007074924865314"><ele>341.20000000000005</ele><time>2026-04-18T08:36:25Z</time></trkpt><trkpt lat="44.665968773614274" lon="10.007018282148781"><ele>341.0</ele><time>2026-04-18T08:36:27Z</time></trkpt><trkpt lat="44.665880456543675" lon="10.006948978397832"><ele>341.0</ele><time>2026-04-18T08:36:29Z</time></trkpt><trkpt lat="44.66579398451591" lon="10.00688889122119"><ele>341.0</ele><time>2026-04-18T08:36:31Z</time></trkpt><trkpt lat="44.665703258901736" lon="10.00683221308728"><ele>341.0</ele><time>2026-04-18T08:36:33Z</time></trkpt><trkpt lat="44.665617707191544" lon="10.006769991034659"><ele>341.0</ele><time>2026-04-18T08:36:35Z</time></trkpt><trkpt lat="44.66553833602945" lon="10.00669643650276"><ele>341.0</ele><time>2026-04-18T08:36:37Z</time></trkpt><trkpt lat="44.66545709425725" lon="10.006629275073823"><ele>341.6666666666667</ele><time>2026-04-18T08:36:39Z</time></trkpt><trkpt lat="44.66539361361659" lon="10.006531882207133"><ele>342.33333333333337</ele><time>2026-04-18T08:36:41Z</time></trkpt><trkpt lat="44.66536628280427" lon="10.006407221314221"><ele>343.0</ele><time>2026-04-18T08:36:43Z</time></trkpt><trkpt lat="44.66532300803039" lon="10.006301670246131"><ele>343.6666666666667</ele><time>2026-04-18T08:36:45Z</time></trkpt><trkpt lat="44.66529618438498" lon="10.0061849975651"><ele>344.3333333333333</ele><time>2026-04-18T08:36:47Z</time></trkpt><trkpt lat="44.665269863102715" lon="10.00606942791813"><ele>345.0</ele><time>2026-04-18T08:36:49Z</time></trkpt><trkpt lat="44.66526091795197" lon="10.005953973845324"><ele>346.1666666666667</ele><time>2026-04-18T08:36:51Z</time></trkpt><trkpt lat="44.66526372557024" lon="10.005840104441141"><ele>347.3333333333333</ele><time>2026-04-18T08:36:53Z</time></trkpt><trkpt lat="44.66527613632644" lon="10.005733942691993"><ele>348.5</ele><time>2026-04-18T08:36:55Z</time></trkpt><trkpt lat="44.66529298308463" lon="10.005634445782693"><ele>349.66666666666663</ele><time>2026-04-18T08:36:57Z</time></trkpt><trkpt lat="44.66531863062174" lon="10.005536092602956"><ele>350.8333333333333</ele><time>2026-04-18T08:36:59Z</time></trkpt><trkpt lat="44.66535798415388" lon="10.005442381954362"><ele>352.0</ele><time>2026-04-18T08:37:01Z</time></trkpt><trkpt lat="44.665382139163405" lon="10.005344609917355"><ele>352.0</ele><time>2026-04-18T08:37:03Z</time></trkpt><trkpt lat="44.665415126081314" lon="10.005246443634286"><ele>352.0</ele><time>2026-04-18T08:37:05Z</time></trkpt><trkpt lat="44.66543601543422" lon="10.005151931879015"><ele>352.0</ele><time>2026-04-18T08:37:07Z</time></trkpt><trkpt lat="44.66546177031173" lon="10.00505701407128"><ele>352.0</ele><time>2026-04-18T08:37:09Z</time></trkpt><trkpt lat="44.66547309607344" lon="10.004964819774546"><ele>352.0</ele><time>2026-04-18T08:37:11Z</time></trkpt><trkpt lat="44.66549129870144" lon="10.004878027472941"><ele>352.0</ele><time>2026-04-18T08:37:13Z</time></trkpt><trkpt lat="44.66548505395663" lon="10.004762913625042"><ele>352.0</ele><time>2026-04-18T08:37:15Z</time></trkpt><trkpt lat="44.66545563294678" lon="10.004681336405211"><ele>351.66666666666663</ele><time>2026-04-18T08:37:17Z</time></trkpt><trkpt lat="44.665408352452374" lon="10.004597777132991"><ele>351.3333333333333</ele><time>2026-04-18T08:37:19Z</time></trkpt><trkpt lat="44.6653500498039" lon="10.004528412286607"><ele>351.0</ele><time>2026-04-18T08:37:21Z</time></trkpt><trkpt lat="44.665286582001194" lon="10.004468201731974"><ele>350.6666666666667</ele><time>2026-04-18T08:37:23Z</time></trkpt><trkpt lat="44.66522375164116" lon="10.004398306267822"><ele>350.33333333333337</ele><time>2026-04-18T08:37:24.999Z</time></trkpt><trkpt lat="44.66513873241783" lon="10.004322121877074"><ele>350.0</ele><time>2026-04-18T08:37:26.999Z</time></trkpt><trkpt lat="44.66507322802969" lon="10.004250954285208"><ele>349.6666666666667</ele><time>2026-04-18T08:37:28.999Z</time></trkpt><trkpt lat="44.66500790572879" lon="10.00417616997226"><ele>349.33333333333337</ele><time>2026-04-18T08:37:30.999Z</time></trkpt><trkpt lat="44.664941800585076" lon="10.004099930231122"><ele>349.0</ele><time>2026-04-18T08:37:32.999Z</time></trkpt><trkpt lat="44.664880785944504" lon="10.004024963349634"><ele>348.6666666666667</ele><time>2026-04-18T08:37:34.999Z</time></trkpt><trkpt lat="44.66482814515194" lon="10.003947901282585"><ele>348.3333333333333</ele><time>2026-04-18T08:37:36.999Z</time></trkpt><trkpt lat="44.66476933698013" lon="10.003865987143792"><ele>348.0</ele><time>2026-04-18T08:37:38.999Z</time></trkpt><trkpt lat="44.66471442491209" lon="10.00378849778918"><ele>348.0</ele><time>2026-04-18T08:37:40.999Z</time></trkpt><trkpt lat="44.664660274775066" lon="10.003723636939956"><ele>348.0</ele><time>2026-04-18T08:37:42.999Z</time></trkpt><trkpt lat="44.664595011730796" lon="10.0036705771901"><ele>348.0</ele><time>2026-04-18T08:37:44.999Z</time></trkpt><trkpt lat="44.664530287347674" lon="10.003634323670129"><ele>348.0</ele><time>2026-04-18T08:37:46.999Z</time></trkpt><trkpt lat="44.66445966477687" lon="10.003610626631172"><ele>348.0</ele><time>2026-04-18T08:37:48.999Z</time></trkpt><trkpt lat="44.66438910877357" lon="10.003590344713453"><ele>348.0</ele><time>2026-04-18T08:37:50.999Z</time></trkpt><trkpt lat="44.664317416428666" lon="10.003574002345728"><ele>348.0</ele><time>2026-04-18T08:37:52.999Z</time></trkpt><trkpt lat="44.66425280359918" lon="10.003559940459972"><ele>350.3333333333333</ele><time>2026-04-18T08:37:54.999Z</time></trkpt><trkpt lat="44.66418915116121" lon="10.003550378076637"><ele>352.6666666666667</ele><time>2026-04-18T08:37:56.999Z</time></trkpt><trkpt lat="44.66409668167284" lon="10.003521718416843"><ele>355.0</ele><time>2026-04-18T08:37:59.999Z</time></trkpt><trkpt lat="44.66400409798415" lon="10.00351116765568"><ele>357.33333333333337</ele><time>2026-04-18T08:38:02.999Z</time></trkpt><trkpt lat="44.6639409358649" lon="10.00350079236122"><ele>359.6666666666667</ele><time>2026-04-18T08:38:04.999Z</time></trkpt><trkpt lat="44.663866488950866" lon="10.003487062149587"><ele>362.0</ele><time>2026-04-18T08:38:07.999Z</time></trkpt><trkpt lat="44.66380147161908" lon="10.003481548424125"><ele>362.0</ele><time>2026-04-18T08:38:09.999Z</time></trkpt><trkpt lat="44.66373522880168" lon="10.00348331647727"><ele>362.0</ele><time>2026-04-18T08:38:11.999Z</time></trkpt><trkpt lat="44.66364451957993" lon="10.003493150068238"><ele>362.0</ele><time>2026-04-18T08:38:14.999Z</time></trkpt><trkpt lat="44.66355553160232" lon="10.003514776427842"><ele>362.0</ele><time>2026-04-18T08:38:17.998Z</time></trkpt><trkpt lat="44.663480500805676" lon="10.003540278339296"><ele>362.0</ele><time>2026-04-18T08:38:20.998Z</time></trkpt><trkpt lat="44.66338963942225" lon="10.003566196508"><ele>362.0</ele><time>2026-04-18T08:38:23.998Z</time></trkpt><trkpt lat="44.663305411944975" lon="10.003612185176094"><ele>363.1666666666667</ele><time>2026-04-18T08:38:27Z</time></trkpt><trkpt lat="44.66322677703153" lon="10.003648711094652"><ele>364.33333333333337</ele><time>2026-04-18T08:38:30Z</time></trkpt><trkpt lat="44.6631412557958" lon="10.003682283603883"><ele>365.5</ele><time>2026-04-18T08:38:33Z</time></trkpt><trkpt lat="44.663051042580605" lon="10.003696102428426"><ele>366.6666666666667</ele><time>2026-04-18T08:38:36Z</time></trkpt><trkpt lat="44.66296012074723" lon="10.003692760380659"><ele>367.8333333333333</ele><time>2026-04-18T08:38:39Z</time></trkpt><trkpt lat="44.66286962655972" lon="10.00366264611442"><ele>369.0</ele><time>2026-04-18T08:38:42Z</time></trkpt><trkpt lat="44.662783025574726" lon="10.00362115302504"><ele>370.3333333333333</ele><time>2026-04-18T08:38:45Z</time></trkpt><trkpt lat="44.66270350174607" lon="10.003560788556202"><ele>371.6666666666667</ele><time>2026-04-18T08:38:48Z</time></trkpt><trkpt lat="44.66262274695929" lon="10.003533011504361"><ele>373.0</ele><time>2026-04-18T08:38:51Z</time></trkpt><trkpt lat="44.6625428520904" lon="10.003556276677617"><ele>374.33333333333337</ele><time>2026-04-18T08:38:54Z</time></trkpt><trkpt lat="44.66248640025733" lon="10.00364199710111"><ele>375.6666666666667</ele><time>2026-04-18T08:38:57Z</time></trkpt><trkpt lat="44.66249669139039" lon="10.003758108438152"><ele>377.0</ele><time>2026-04-18T08:39:00Z</time></trkpt><trkpt lat="44.66253909029804" lon="10.00382768243253"><ele>376.99999999999994</ele><time>2026-04-18T08:39:02Z</time></trkpt><trkpt lat="44.662627255977746" lon="10.003885942965502"><ele>377.0</ele><time>2026-04-18T08:39:05Z</time></trkpt><trkpt lat="44.66269259079448" lon="10.003915019003248"><ele>377.0</ele><time>2026-04-18T08:39:07Z</time></trkpt><trkpt lat="44.662757307599335" lon="10.003941632309115"><ele>377.0</ele><time>2026-04-18T08:39:09Z</time></trkpt><trkpt lat="44.66282449033499" lon="10.003979009896458"><ele>377.0</ele><time>2026-04-18T08:39:11Z</time></trkpt><trkpt lat="44.66288624865665" lon="10.004017132330352"><ele>376.99999999999994</ele><time>2026-04-18T08:39:13Z</time></trkpt><trkpt lat="44.66294439990624" lon="10.004060336412849"><ele>377.0</ele><time>2026-04-18T08:39:15Z</time></trkpt><trkpt lat="44.66299890310013" lon="10.004111472216195"><ele>377.1666666666667</ele><time>2026-04-18T08:39:17Z</time></trkpt><trkpt lat="44.66307238043875" lon="10.004170162326835"><ele>377.33333333333337</ele><time>2026-04-18T08:39:20Z</time></trkpt><trkpt lat="44.663120002540225" lon="10.00423835141025"><ele>377.5</ele><time>2026-04-18T08:39:22Z</time></trkpt><trkpt lat="44.66318565549648" lon="10.004325513597175"><ele>377.6666666666667</ele><time>2026-04-18T08:39:25Z</time></trkpt><trkpt lat="44.66324481020723" lon="10.004420782767319"><ele>377.8333333333333</ele><time>2026-04-18T08:39:28Z</time></trkpt><trkpt lat="44.6632922035716" lon="10.004485053362858"><ele>378.0</ele><time>2026-04-18T08:39:29.999Z</time></trkpt><trkpt lat="44.66332512737976" lon="10.00456983167099"><ele>378.0</ele><time>2026-04-18T08:39:31.999Z</time></trkpt><trkpt lat="44.66335405971389" lon="10.004658706420155"><ele>378.0</ele><time>2026-04-18T08:39:33.999Z</time></trkpt><trkpt lat="44.66339057540365" lon="10.004734062004966"><ele>378.0</ele><time>2026-04-18T08:39:35.999Z</time></trkpt><trkpt lat="44.663424994154255" lon="10.004816011842083"><ele>378.0</ele><time>2026-04-18T08:39:37.999Z</time></trkpt><trkpt lat="44.66346460989112" lon="10.004885629280764"><ele>378.0</ele><time>2026-04-18T08:39:39.999Z</time></trkpt><trkpt lat="44.66350002306048" lon="10.00496473459836"><ele>378.0</ele><time>2026-04-18T08:39:41.999Z</time></trkpt><trkpt lat="44.663530144670396" lon="10.005047910800826"><ele>378.0</ele><time>2026-04-18T08:39:43.999Z</time></trkpt><trkpt lat="44.663562400235264" lon="10.005126055136966"><ele>379.6666666666667</ele><time>2026-04-18T08:39:45.999Z</time></trkpt><trkpt lat="44.6635771619966" lon="10.005212332438072"><ele>381.33333333333337</ele><time>2026-04-18T08:39:47.999Z</time></trkpt><trkpt lat="44.66357451339185" lon="10.005300985740861"><ele>383.0</ele><time>2026-04-18T08:39:49.999Z</time></trkpt><trkpt lat="44.66354255071405" lon="10.005388789407084"><ele>384.6666666666667</ele><time>2026-04-18T08:39:51.999Z</time></trkpt><trkpt lat="44.66346083150814" lon="10.005437371298793"><ele>386.33333333333337</ele><time>2026-04-18T08:39:54.999Z</time></trkpt><trkpt lat="44.66337782434961" lon="10.005390721727073"><ele>388.0</ele><time>2026-04-18T08:39:57.999Z</time></trkpt><trkpt lat="44.66330920555145" lon="10.005306700979592"><ele>388.00000000000006</ele><time>2026-04-18T08:40:00.999Z</time></trkpt><trkpt lat="44.663241278659356" lon="10.0052234706308"><ele>388.0</ele><time>2026-04-18T08:40:03.999Z</time></trkpt><trkpt lat="44.663167201847166" lon="10.005150357396264"><ele>388.0</ele><time>2026-04-18T08:40:06.999Z</time></trkpt><trkpt lat="44.663094154625945" lon="10.005084320691033"><ele>388.0</ele><time>2026-04-18T08:40:09.999Z</time></trkpt><trkpt lat="44.66301692298311" lon="10.005024735529004"><ele>388.00000000000006</ele><time>2026-04-18T08:40:12.999Z</time></trkpt><trkpt lat="44.66293110654003" lon="10.004984419336463"><ele>388.0</ele><time>2026-04-18T08:40:15.999Z</time></trkpt><trkpt lat="44.66284525601594" lon="10.004954405855583"><ele>388.00000000000006</ele><time>2026-04-18T08:40:18.999Z</time></trkpt><trkpt lat="44.66276209484094" lon="10.004935525171721"><ele>388.0</ele><time>2026-04-18T08:40:21.998Z</time></trkpt><trkpt lat="44.6626768622237" lon="10.004945131686409"><ele>388.0</ele><time>2026-04-18T08:40:24.998Z</time></trkpt><trkpt lat="44.6625956524848" lon="10.00496841105755"><ele>388.0</ele><time>2026-04-18T08:40:27.998Z</time></trkpt><trkpt lat="44.662521940066995" lon="10.00501361068506"><ele>388.00000000000006</ele><time>2026-04-18T08:40:30.998Z</time></trkpt><trkpt lat="44.66246392054804" lon="10.005071454287629"><ele>388.0</ele><time>2026-04-18T08:40:34Z</time></trkpt><trkpt lat="44.66241618151499" lon="10.00515404291786"><ele>390.00000000000006</ele><time>2026-04-18T08:40:37Z</time></trkpt><trkpt lat="44.66237510169419" lon="10.005238727821027"><ele>392.0</ele><time>2026-04-18T08:40:40Z</time></trkpt><trkpt lat="44.66233740278745" lon="10.005333583895721"><ele>394.0</ele><time>2026-04-18T08:40:43Z</time></trkpt><trkpt lat="44.66229091763177" lon="10.005420066080008"><ele>396.0</ele><time>2026-04-18T08:40:46Z</time></trkpt><trkpt lat="44.662235438988105" lon="10.005487846165217"><ele>398.00000000000006</ele><time>2026-04-18T08:40:49Z</time></trkpt><trkpt lat="44.66214636443396" lon="10.005509616696093"><ele>400.0</ele><time>2026-04-18T08:40:52Z</time></trkpt><trkpt lat="44.662055485118785" lon="10.005494582133318"><ele>400.0</ele><time>2026-04-18T08:40:55Z</time></trkpt><trkpt lat="44.66197438178156" lon="10.005438625689345"><ele>400.0</ele><time>2026-04-18T08:40:58Z</time></trkpt><trkpt lat="44.661902279431544" lon="10.005364473423523"><ele>400.0</ele><time>2026-04-18T08:41:01Z</time></trkpt><trkpt lat="44.6618310274914" lon="10.005289201197611"><ele>400.0</ele><time>2026-04-18T08:41:04Z</time></trkpt><trkpt lat="44.66175976952082" lon="10.00520650377708"><ele>400.0</ele><time>2026-04-18T08:41:07Z</time></trkpt><trkpt lat="44.66169323786274" lon="10.005124303896475"><ele>400.1666666666667</ele><time>2026-04-18T08:41:10Z</time></trkpt><trkpt lat="44.661625959425926" lon="10.005043963006553"><ele>400.33333333333337</ele><time>2026-04-18T08:41:13Z</time></trkpt><trkpt lat="44.66155575737783" lon="10.004964478675864"><ele>400.5</ele><time>2026-04-18T08:41:16Z</time></trkpt><trkpt lat="44.66148937830996" lon="10.004885493626235"><ele>400.66666666666663</ele><time>2026-04-18T08:41:19Z</time></trkpt><trkpt lat="44.66142017489499" lon="10.004807047858353"><ele>400.8333333333333</ele><time>2026-04-18T08:41:22Z</time></trkpt><trkpt lat="44.6613570544567" lon="10.004734527704311"><ele>401.0</ele><time>2026-04-18T08:41:25Z</time></trkpt><trkpt lat="44.66129061419516" lon="10.004655352918538"><ele>400.99999999999994</ele><time>2026-04-18T08:41:28Z</time></trkpt><trkpt lat="44.66122907548513" lon="10.004574644291065"><ele>401.0</ele><time>2026-04-18T08:41:31Z</time></trkpt><trkpt lat="44.661166680992686" lon="10.004493617449445"><ele>401.0</ele><time>2026-04-18T08:41:33.999Z</time></trkpt><trkpt lat="44.661100972218726" lon="10.004412195374547"><ele>401.0</ele><time>2026-04-18T08:41:36.999Z</time></trkpt><trkpt lat="44.661040613298795" lon="10.004319919512806"><ele>400.99999999999994</ele><time>2026-04-18T08:41:39.999Z</time></trkpt><trkpt lat="44.66099558914748" lon="10.004221086506998"><ele>401.0</ele><time>2026-04-18T08:41:42.999Z</time></trkpt><trkpt lat="44.66095633223812" lon="10.0041175376463"><ele>403.49999999999994</ele><time>2026-04-18T08:41:45.999Z</time></trkpt><trkpt lat="44.66092617682162" lon="10.004015717384636"><ele>406.0</ele><time>2026-04-18T08:41:48.999Z</time></trkpt><trkpt lat="44.66090616900365" lon="10.003890835798208"><ele>408.5</ele><time>2026-04-18T08:41:51.999Z</time></trkpt><trkpt lat="44.66089986701289" lon="10.003761671679404"><ele>411.0</ele><time>2026-04-18T08:41:54.999Z</time></trkpt><trkpt lat="44.6608929329265" lon="10.003638277398943"><ele>413.49999999999994</ele><time>2026-04-18T08:41:57.999Z</time></trkpt><trkpt lat="44.6608859448789" lon="10.003527217881164"><ele>416.0</ele><time>2026-04-18T08:42:00.999Z</time></trkpt><trkpt lat="44.66087527620325" lon="10.003416181711684"><ele>415.16666666666663</ele><time>2026-04-18T08:42:03.999Z</time></trkpt><trkpt lat="44.66085506540888" lon="10.003300154305077"><ele>414.3333333333333</ele><time>2026-04-18T08:42:06.999Z</time></trkpt><trkpt lat="44.6608293578312" lon="10.003188850858676"><ele>413.5</ele><time>2026-04-18T08:42:09.999Z</time></trkpt><trkpt lat="44.66078720415733" lon="10.00307727623847"><ele>412.66666666666663</ele><time>2026-04-18T08:42:12.999Z</time></trkpt><trkpt lat="44.66073056822531" lon="10.002976604968044"><ele>411.8333333333333</ele><time>2026-04-18T08:42:15.999Z</time></trkpt><trkpt lat="44.660672695436915" lon="10.002877135274419"><ele>411.0</ele><time>2026-04-18T08:42:18.999Z</time></trkpt><trkpt lat="44.66060934280996" lon="10.002781155685636"><ele>411.0</ele><time>2026-04-18T08:42:21.999Z</time></trkpt><trkpt lat="44.66056364985763" lon="10.0027128510444"><ele>411.0</ele><time>2026-04-18T08:42:23.999Z</time></trkpt><trkpt lat="44.66052168971384" lon="10.002646524529455"><ele>411.0</ele><time>2026-04-18T08:42:25.999Z</time></trkpt><trkpt lat="44.66045759792209" lon="10.002551827635273"><ele>411.0</ele><time>2026-04-18T08:42:28.998Z</time></trkpt><trkpt lat="44.660412374132164" lon="10.002477419673653"><ele>411.0</ele><time>2026-04-18T08:42:30.998Z</time></trkpt><trkpt lat="44.66035817332718" lon="10.002408595788317"><ele>411.0</ele><time>2026-04-18T08:42:33.998Z</time></trkpt><trkpt lat="44.660305427467186" lon="10.002342513421535"><ele>411.0</ele><time>2026-04-18T08:42:35.998Z</time></trkpt><trkpt lat="44.66024393081884" lon="10.002248493548313"><ele>414.0</ele><time>2026-04-18T08:42:39Z</time></trkpt><trkpt lat="44.660202789437" lon="10.002180770977217"><ele>417.0</ele><time>2026-04-18T08:42:41Z</time></trkpt><trkpt lat="44.66015960586524" lon="10.002112770695678"><ele>420.0</ele><time>2026-04-18T08:42:43Z</time></trkpt><trkpt lat="44.66011294168085" lon="10.002029059090269"><ele>423.0</ele><time>2026-04-18T08:42:46Z</time></trkpt><trkpt lat="44.66005397758207" lon="10.001926650288935"><ele>426.0</ele><time>2026-04-18T08:42:49Z</time></trkpt><trkpt lat="44.65998401586634" lon="10.001817794191895"><ele>429.0</ele><time>2026-04-18T08:42:52Z</time></trkpt><trkpt lat="44.65992980096758" lon="10.001743857322706"><ele>429.0</ele><time>2026-04-18T08:42:55Z</time></trkpt><trkpt lat="44.659879247869505" lon="10.001665606388617"><ele>429.0</ele><time>2026-04-18T08:42:58Z</time></trkpt><trkpt lat="44.659831238539795" lon="10.001582910165595"><ele>429.0</ele><time>2026-04-18T08:43:01Z</time></trkpt><trkpt lat="44.65978657352431" lon="10.001489226160691"><ele>429.0</ele><time>2026-04-18T08:43:04Z</time></trkpt><trkpt lat="44.65976608889939" lon="10.00140529980534"><ele>429.0</ele><time>2026-04-18T08:43:06Z</time></trkpt><trkpt lat="44.659763443424886" lon="10.001283700935536"><ele>429.0</ele><time>2026-04-18T08:43:09Z</time></trkpt><trkpt lat="44.659773677736" lon="10.001184412943891"><ele>429.8333333333333</ele><time>2026-04-18T08:43:12Z</time></trkpt><trkpt lat="44.65981231288081" lon="10.001092808666993"><ele>430.66666666666663</ele><time>2026-04-18T08:43:15Z</time></trkpt><trkpt lat="44.65985261206315" lon="10.000998943252538"><ele>431.5</ele><time>2026-04-18T08:43:17Z</time></trkpt><trkpt lat="44.65988913914734" lon="10.000898037312835"><ele>432.3333333333333</ele><time>2026-04-18T08:43:20Z</time></trkpt><trkpt lat="44.65993008351039" lon="10.00082948521472"><ele>433.16666666666663</ele><time>2026-04-18T08:43:22Z</time></trkpt><trkpt lat="44.6599803168864" lon="10.000727483172327"><ele>434.0</ele><time>2026-04-18T08:43:25Z</time></trkpt><trkpt lat="44.66002891437256" lon="10.00062667066329"><ele>434.66666666666663</ele><time>2026-04-18T08:43:28Z</time></trkpt><trkpt lat="44.660050499618634" lon="10.000508617140163"><ele>435.3333333333333</ele><time>2026-04-18T08:43:31Z</time></trkpt><trkpt lat="44.66003981396479" lon="10.00038306962992"><ele>436.0</ele><time>2026-04-18T08:43:34Z</time></trkpt><trkpt lat="44.66001866739261" lon="10.000284338471213"><ele>436.66666666666663</ele><time>2026-04-18T08:43:37Z</time></trkpt><trkpt lat="44.659999246817584" lon="10.000176480399297"><ele>437.3333333333333</ele><time>2026-04-18T08:43:39.999Z</time></trkpt><trkpt lat="44.65998049641517" lon="10.000085267965325"><ele>438.0</ele><time>2026-04-18T08:43:42.999Z</time></trkpt><trkpt lat="44.65996388480675" lon="9.999986782817984"><ele>438.0</ele><time>2026-04-18T08:43:45.999Z</time></trkpt><trkpt lat="44.65994033157803" lon="9.999859616409159"><ele>438.0</ele><time>2026-04-18T08:43:48.999Z</time></trkpt><trkpt lat="44.65992058154017" lon="9.999759071358453"><ele>438.0</ele><time>2026-04-18T08:43:51.999Z</time></trkpt><trkpt lat="44.659903248386634" lon="9.999655979737936"><ele>438.0</ele><time>2026-04-18T08:43:54.999Z</time></trkpt><trkpt lat="44.659882807419464" lon="9.999555320290883"><ele>438.0</ele><time>2026-04-18T08:43:57.999Z</time></trkpt><trkpt lat="44.65986115371278" lon="9.999452926019407"><ele>438.0</ele><time>2026-04-18T08:44:00.999Z</time></trkpt><trkpt lat="44.65984046438621" lon="9.999346273307752"><ele>438.0</ele><time>2026-04-18T08:44:03.999Z</time></trkpt><trkpt lat="44.659816470089076" lon="9.999247714430163"><ele>438.0</ele><time>2026-04-18T08:44:06.999Z</time></trkpt><trkpt lat="44.65978814953157" lon="9.999130812229122"><ele>438.0</ele><time>2026-04-18T08:44:10.999Z</time></trkpt><trkpt lat="44.65975577943133" lon="9.999044521420023"><ele>438.0</ele><time>2026-04-18T08:44:13.999Z</time></trkpt><trkpt lat="44.65972564874225" lon="9.998942792939122"><ele>438.0</ele><time>2026-04-18T08:44:16.999Z</time></trkpt><trkpt lat="44.65969444684861" lon="9.998853560475258"><ele>438.0</ele><time>2026-04-18T08:44:19.999Z</time></trkpt><trkpt lat="44.65965471811498" lon="9.998765864410215"><ele>437.8333333333333</ele><time>2026-04-18T08:44:22.999Z</time></trkpt><trkpt lat="44.65960855771251" lon="9.998681608467697"><ele>437.66666666666663</ele><time>2026-04-18T08:44:25.999Z</time></trkpt><trkpt lat="44.65955669651221" lon="9.998600594217777"><ele>437.5</ele><time>2026-04-18T08:44:28.999Z</time></trkpt><trkpt lat="44.659497052088106" lon="9.998526280655192"><ele>437.3333333333333</ele><time>2026-04-18T08:44:31.998Z</time></trkpt><trkpt lat="44.65943926970349" lon="9.99845789673945"><ele>437.16666666666663</ele><time>2026-04-18T08:44:34.998Z</time></trkpt><trkpt lat="44.65936858166547" lon="9.998389077698258"><ele>437.0</ele><time>2026-04-18T08:44:37.998Z</time></trkpt><trkpt lat="44.65930261826517" lon="9.998333108447234"><ele>439.42857142857144</ele><time>2026-04-18T08:44:40.998Z</time></trkpt><trkpt lat="44.65923682622617" lon="9.998287544778615"><ele>441.8571428571429</ele><time>2026-04-18T08:44:42.998Z</time></trkpt><trkpt lat="44.65916828597957" lon="9.99823262426118"><ele>444.28571428571433</ele><time>2026-04-18T08:44:46Z</time></trkpt><trkpt lat="44.659092926518625" lon="9.998170123317495"><ele>446.7142857142857</ele><time>2026-04-18T08:44:49Z</time></trkpt><trkpt lat="44.65903155113948" lon="9.998129511593872"><ele>449.1428571428572</ele><time>2026-04-18T08:44:52Z</time></trkpt><trkpt lat="44.65896832820885" lon="9.998081511748893"><ele>451.5714285714286</ele><time>2026-04-18T08:44:55Z</time></trkpt><trkpt lat="44.65891389883813" lon="9.998036522630198"><ele>454.0</ele><time>2026-04-18T08:44:57Z</time></trkpt><trkpt lat="44.65885494934106" lon="9.997981377146843"><ele>454.00000000000006</ele><time>2026-04-18T08:44:59Z</time></trkpt><trkpt lat="44.65879595866426" lon="9.997904695510492"><ele>454.0</ele><time>2026-04-18T08:45:02Z</time></trkpt><trkpt lat="44.65874282698475" lon="9.99782109538891"><ele>454.0</ele><time>2026-04-18T08:45:05Z</time></trkpt><trkpt lat="44.65869793833198" lon="9.997723454580148"><ele>454.0</ele><time>2026-04-18T08:45:08Z</time></trkpt><trkpt lat="44.65865946950464" lon="9.997624875407089"><ele>454.00000000000006</ele><time>2026-04-18T08:45:11Z</time></trkpt><trkpt lat="44.6586270398202" lon="9.997516291888623"><ele>454.0</ele><time>2026-04-18T08:45:14Z</time></trkpt><trkpt lat="44.65859498761551" lon="9.997409980688417"><ele>457.00000000000006</ele><time>2026-04-18T08:45:17Z</time></trkpt><trkpt lat="44.65856818165219" lon="9.997328160492343"><ele>460.0</ele><time>2026-04-18T08:45:20Z</time></trkpt><trkpt lat="44.65853974031273" lon="9.997229310408196"><ele>463.0</ele><time>2026-04-18T08:45:23Z</time></trkpt><trkpt lat="44.65850767032443" lon="9.997127180131518"><ele>466.0</ele><time>2026-04-18T08:45:26Z</time></trkpt><trkpt lat="44.65847589238819" lon="9.997024170147476"><ele>469.00000000000006</ele><time>2026-04-18T08:45:29Z</time></trkpt><trkpt lat="44.65844511703124" lon="9.996922424534853"><ele>472.0</ele><time>2026-04-18T08:45:32Z</time></trkpt><trkpt lat="44.65841747253222" lon="9.996814274378803"><ele>472.00000000000006</ele><time>2026-04-18T08:45:35Z</time></trkpt><trkpt lat="44.65839195721544" lon="9.996700997104119"><ele>472.0</ele><time>2026-04-18T08:45:38Z</time></trkpt><trkpt lat="44.658364641993856" lon="9.99657894249388"><ele>472.0</ele><time>2026-04-18T08:45:41Z</time></trkpt><trkpt lat="44.65835150962864" lon="9.99647225317876"><ele>472.0</ele><time>2026-04-18T08:45:43.999Z</time></trkpt><trkpt lat="44.65834463594101" lon="9.99635534938564"><ele>472.00000000000006</ele><time>2026-04-18T08:45:46.999Z</time></trkpt><trkpt lat="44.65833260099343" lon="9.996247438793489"><ele>472.0</ele><time>2026-04-18T08:45:49.999Z</time></trkpt><trkpt lat="44.65832530483662" lon="9.996130202979659"><ele>472.2857142857143</ele><time>2026-04-18T08:45:52.999Z</time></trkpt><trkpt lat="44.65831813265025" lon="9.996026652855132"><ele>472.57142857142856</ele><time>2026-04-18T08:45:55.999Z</time></trkpt><trkpt lat="44.658309218320454" lon="9.995914465542686"><ele>472.85714285714283</ele><time>2026-04-18T08:45:58.999Z</time></trkpt><trkpt lat="44.658299723354965" lon="9.99580597194144"><ele>473.1428571428571</ele><time>2026-04-18T08:46:01.999Z</time></trkpt><trkpt lat="44.658292463933776" lon="9.995704193451676"><ele>473.42857142857144</ele><time>2026-04-18T08:46:04.999Z</time></trkpt><trkpt lat="44.65828056362987" lon="9.995605541794628"><ele>473.71428571428567</ele><time>2026-04-18T08:46:07.999Z</time></trkpt><trkpt lat="44.658268837666384" lon="9.99550434631268"><ele>473.99999999999994</ele><time>2026-04-18T08:46:10.999Z</time></trkpt><trkpt lat="44.658257099772165" lon="9.99540200088317"><ele>473.99999999999994</ele><time>2026-04-18T08:46:13.999Z</time></trkpt><trkpt lat="44.65823133545543" lon="9.995318730528071"><ele>474.0</ele><time>2026-04-18T08:46:16.999Z</time></trkpt><trkpt lat="44.658207673075765" lon="9.995224841610757"><ele>473.99999999999994</ele><time>2026-04-18T08:46:19.999Z</time></trkpt><trkpt lat="44.65817754260558" lon="9.99513312995262"><ele>473.99999999999994</ele><time>2026-04-18T08:46:22.999Z</time></trkpt><trkpt lat="44.65814767960222" lon="9.995037031743484"><ele>474.0</ele><time>2026-04-18T08:46:25.999Z</time></trkpt><trkpt lat="44.65812022227373" lon="9.99493137087633"><ele>473.99999999999994</ele><time>2026-04-18T08:46:28.999Z</time></trkpt><trkpt lat="44.65809825423377" lon="9.994825929377523"><ele>473.99999999999994</ele><time>2026-04-18T08:46:31.999Z</time></trkpt><trkpt lat="44.65811229931206" lon="9.994705295623348"><ele>475.2</ele><time>2026-04-18T08:46:34.998Z</time></trkpt><trkpt lat="44.65815916908644" lon="9.994608549131263"><ele>476.4</ele><time>2026-04-18T08:46:37.998Z</time></trkpt><trkpt lat="44.65823150059265" lon="9.99454739547706"><ele>477.6</ele><time>2026-04-18T08:46:40.998Z</time></trkpt><trkpt lat="44.65838450208072" lon="9.99452019070687"><ele>478.8</ele><time>2026-04-18T08:46:46.998Z</time></trkpt><trkpt lat="44.6584598717306" lon="9.994499352566809"><ele>480.0</ele><time>2026-04-18T08:46:50Z</time></trkpt><trkpt lat="44.65853765236911" lon="9.994471945344142"><ele>480.0</ele><time>2026-04-18T08:46:53Z</time></trkpt><trkpt lat="44.65860040469282" lon="9.994395741106155"><ele>480.0</ele><time>2026-04-18T08:46:56Z</time></trkpt><trkpt lat="44.65862910580788" lon="9.994301265929144"><ele>480.0</ele><time>2026-04-18T08:46:59Z</time></trkpt><trkpt lat="44.658638437890666" lon="9.99419812150222"><ele>480.0</ele><time>2026-04-18T08:47:02Z</time></trkpt><trkpt lat="44.6586452133541" lon="9.994059944741132"><ele>480.0</ele><time>2026-04-18T08:47:05Z</time></trkpt><trkpt lat="44.65864708896935" lon="9.993953838569064"><ele>480.0</ele><time>2026-04-18T08:47:08Z</time></trkpt><trkpt lat="44.658649142142615" lon="9.993851229959365"><ele>481.42857142857144</ele><time>2026-04-18T08:47:10Z</time></trkpt><trkpt lat="44.658648772876255" lon="9.993747048748991"><ele>482.85714285714283</ele><time>2026-04-18T08:47:13Z</time></trkpt><trkpt lat="44.65862783810316" lon="9.993644965174473"><ele>484.2857142857143</ele><time>2026-04-18T08:47:16Z</time></trkpt><trkpt lat="44.65860231933223" lon="9.993563085290377"><ele>485.7142857142857</ele><time>2026-04-18T08:47:18Z</time></trkpt><trkpt lat="44.65856275554446" lon="9.993470024947335"><ele>487.1428571428571</ele><time>2026-04-18T08:47:21Z</time></trkpt><trkpt lat="44.65852023217435" lon="9.993393205938688"><ele>488.57142857142856</ele><time>2026-04-18T08:47:24Z</time></trkpt><trkpt lat="44.65847165988315" lon="9.993334444182079"><ele>490.0</ele><time>2026-04-18T08:47:26Z</time></trkpt><trkpt lat="44.65841529818767" lon="9.9932710896456"><ele>491.33333333333337</ele><time>2026-04-18T08:47:29Z</time></trkpt><trkpt lat="44.65838128329469" lon="9.993186604655866"><ele>492.6666666666667</ele><time>2026-04-18T08:47:32Z</time></trkpt><trkpt lat="44.6583520408873" lon="9.993089344965524"><ele>494.0</ele><time>2026-04-18T08:47:35Z</time></trkpt><trkpt lat="44.658336481954535" lon="9.992992712224227"><ele>495.33333333333337</ele><time>2026-04-18T08:47:37Z</time></trkpt><trkpt lat="44.65832617531092" lon="9.99286737122943"><ele>496.6666666666667</ele><time>2026-04-18T08:47:40Z</time></trkpt><trkpt lat="44.6583111637218" lon="9.992755920331113"><ele>498.0</ele><time>2026-04-18T08:47:43Z</time></trkpt><trkpt lat="44.65831448142361" lon="9.992641370519792"><ele>498.0</ele><time>2026-04-18T08:47:45.999Z</time></trkpt><trkpt lat="44.65829924949865" lon="9.992535070228445"><ele>497.99999999999994</ele><time>2026-04-18T08:47:48.999Z</time></trkpt><trkpt lat="44.65830953298607" lon="9.992446409004772"><ele>498.0</ele><time>2026-04-18T08:47:51.999Z</time></trkpt><trkpt lat="44.65833675216395" lon="9.99233380849619"><ele>498.0</ele><time>2026-04-18T08:47:55.999Z</time></trkpt><trkpt lat="44.65836107113911" lon="9.992234985640223"><ele>497.99999999999994</ele><time>2026-04-18T08:47:58.999Z</time></trkpt><trkpt lat="44.658391210722" lon="9.992142877865607"><ele>498.0</ele><time>2026-04-18T08:48:01.999Z</time></trkpt><trkpt lat="44.658404476836644" lon="9.992043067384373"><ele>498.0</ele><time>2026-04-18T08:48:04.999Z</time></trkpt><trkpt lat="44.658406979741564" lon="9.991895681122998"><ele>498.6666666666667</ele><time>2026-04-18T08:48:07.999Z</time></trkpt><trkpt lat="44.65839247321147" lon="9.99178829423927"><ele>499.33333333333337</ele><time>2026-04-18T08:48:09.999Z</time></trkpt><trkpt lat="44.65836828947381" lon="9.991661779098202"><ele>500.0</ele><time>2026-04-18T08:48:12.999Z</time></trkpt><trkpt lat="44.6583541152242" lon="9.991567571398598"><ele>500.6666666666667</ele><time>2026-04-18T08:48:15.999Z</time></trkpt><trkpt lat="44.658341411253936" lon="9.991463778480384"><ele>501.33333333333337</ele><time>2026-04-18T08:48:18.999Z</time></trkpt><trkpt lat="44.65833085164703" lon="9.991366208811062"><ele>502.0</ele><time>2026-04-18T08:48:21.999Z</time></trkpt><trkpt lat="44.65832665158261" lon="9.99126415462864"><ele>503.00000000000006</ele><time>2026-04-18T08:48:24.999Z</time></trkpt><trkpt lat="44.658323171583085" lon="9.991164849819466"><ele>504.0</ele><time>2026-04-18T08:48:27.999Z</time></trkpt><trkpt lat="44.6583233784714" lon="9.991068999527162"><ele>505.0</ele><time>2026-04-18T08:48:30.999Z</time></trkpt><trkpt lat="44.65832900450939" lon="9.990963632988581"><ele>506.0</ele><time>2026-04-18T08:48:33.999Z</time></trkpt><trkpt lat="44.658324902399286" lon="9.990856183206448"><ele>507.00000000000006</ele><time>2026-04-18T08:48:36.999Z</time></trkpt><trkpt lat="44.65832390636495" lon="9.990753402665051"><ele>508.0</ele><time>2026-04-18T08:48:39.998Z</time></trkpt><trkpt lat="44.65832619247743" lon="9.990631383391493"><ele>509.0</ele><time>2026-04-18T08:48:42.998Z</time></trkpt><trkpt lat="44.65832527141627" lon="9.990526453440902"><ele>510.0</ele><time>2026-04-18T08:48:45.998Z</time></trkpt><trkpt lat="44.65831912945911" lon="9.990423941231834"><ele>511.0</ele><time>2026-04-18T08:48:47.998Z</time></trkpt><trkpt lat="44.658317816813415" lon="9.990327433642673"><ele>512.0</ele><time>2026-04-18T08:48:50.998Z</time></trkpt><trkpt lat="44.65833675216395" lon="9.99233380849619"><ele>511.3333333333333</ele><time>2026-04-18T08:47:55.999Z</time></trkpt><trkpt lat="44.65836107113911" lon="9.992234985640223"><ele>510.66666666666663</ele><time>2026-04-18T08:47:58.999Z</time></trkpt><trkpt lat="44.658391210722" lon="9.992142877865607"><ele>510.0</ele><time>2026-04-18T08:48:01.999Z</time></trkpt><trkpt lat="44.658404476836644" lon="9.992043067384373"><ele>509.33333333333337</ele><time>2026-04-18T08:48:04.999Z</time></trkpt><trkpt lat="44.658406979741564" lon="9.991895681122998"><ele>508.6666666666667</ele><time>2026-04-18T08:48:07.999Z</time></trkpt><trkpt lat="44.65839247321147" lon="9.99178829423927"><ele>508.0</ele><time>2026-04-18T08:48:09.999Z</time></trkpt><trkpt lat="44.65836828947381" lon="9.991661779098202"><ele>508.0</ele><time>2026-04-18T08:48:12.999Z</time></trkpt><trkpt lat="44.6583541152242" lon="9.991567571398598"><ele>508.0</ele><time>2026-04-18T08:48:15.999Z</time></trkpt><trkpt lat="44.658341411253936" lon="9.991463778480384"><ele>508.0</ele><time>2026-04-18T08:48:18.999Z</time></trkpt><trkpt lat="44.65833085164703" lon="9.991366208811062"><ele>508.0</ele><time>2026-04-18T08:48:21.999Z</time></trkpt><trkpt lat="44.65832665158261" lon="9.99126415462864"><ele>508.0</ele><time>2026-04-18T08:48:24.999Z</time></trkpt><trkpt lat="44.658323171583085" lon="9.991164849819466"><ele>508.0</ele><time>2026-04-18T08:48:27.999Z</time></trkpt><trkpt lat="44.6583233784714" lon="9.991068999527162"><ele>508.0</ele><time>2026-04-18T08:48:30.999Z</time></trkpt><trkpt lat="44.65832900450939" lon="9.990963632988581"><ele>508.00000000000006</ele><time>2026-04-18T08:48:33.999Z</time></trkpt><trkpt lat="44.658324902399286" lon="9.990856183206448"><ele>508.0</ele><time>2026-04-18T08:48:36.999Z</time></trkpt><trkpt lat="44.65832390636495" lon="9.990753402665051"><ele>508.0</ele><time>2026-04-18T08:48:39.998Z</time></trkpt><trkpt lat="44.65832619247743" lon="9.990631383391493"><ele>508.0</ele><time>2026-04-18T08:48:42.998Z</time></trkpt><trkpt lat="44.65832527141627" lon="9.990526453440902"><ele>508.00000000000006</ele><time>2026-04-18T08:48:45.998Z</time></trkpt><trkpt lat="44.65831912945911" lon="9.990423941231834"><ele>508.0</ele><time>2026-04-18T08:48:47.998Z</time></trkpt><trkpt lat="44.658317816813415" lon="9.990327433642673"><ele>508.6666666666667</ele><time>2026-04-18T08:48:50.998Z</time></trkpt><trkpt lat="44.65832895563664" lon="9.990192361246105"><ele>509.33333333333337</ele><time>2026-04-18T08:48:53.998Z</time></trkpt><trkpt lat="44.65833419158234" lon="9.990104039060995"><ele>510.0</ele><time>2026-04-18T08:48:56Z</time></trkpt><trkpt lat="44.658343563011556" lon="9.989982812170815"><ele>510.66666666666663</ele><time>2026-04-18T08:48:59Z</time></trkpt><trkpt lat="44.65835852899213" lon="9.989864125740809"><ele>511.3333333333333</ele><time>2026-04-18T08:49:02Z</time></trkpt><trkpt lat="44.65836913875975" lon="9.989776003168341"><ele>512.0</ele><time>2026-04-18T08:49:04Z</time></trkpt><trkpt lat="44.658389720629714" lon="9.989686396060119"><ele>512.8571428571429</ele><time>2026-04-18T08:49:07Z</time></trkpt><trkpt lat="44.6584019526437" lon="9.98958542541506"><ele>513.7142857142857</ele><time>2026-04-18T08:49:10Z</time></trkpt><trkpt lat="44.65841267784548" lon="9.989485979173422"><ele>514.5714285714286</ele><time>2026-04-18T08:49:13Z</time></trkpt><trkpt lat="44.658408015968945" lon="9.989376828881175"><ele>515.4285714285714</ele><time>2026-04-18T08:49:16Z</time></trkpt><trkpt lat="44.658386656501456" lon="9.989277298540076"><ele>516.2857142857142</ele><time>2026-04-18T08:49:19Z</time></trkpt><trkpt lat="44.658351896110034" lon="9.98919440948269"><ele>517.1428571428571</ele><time>2026-04-18T08:49:22Z</time></trkpt><trkpt lat="44.65830807567382" lon="9.989110419900946"><ele>518.0</ele><time>2026-04-18T08:49:25Z</time></trkpt><trkpt lat="44.658265473845134" lon="9.989022277803707"><ele>518.6666666666666</ele><time>2026-04-18T08:49:28Z</time></trkpt><trkpt lat="44.658232963360675" lon="9.988918613548709"><ele>519.3333333333333</ele><time>2026-04-18T08:49:31Z</time></trkpt><trkpt lat="44.65820853981575" lon="9.988830210610155"><ele>520.0</ele><time>2026-04-18T08:49:33Z</time></trkpt><trkpt lat="44.65818911664927" lon="9.988721876646556"><ele>520.6666666666666</ele><time>2026-04-18T08:49:36Z</time></trkpt><trkpt lat="44.658185264422094" lon="9.988608651067175"><ele>521.3333333333334</ele><time>2026-04-18T08:49:39Z</time></trkpt><trkpt lat="44.658192065684645" lon="9.988496619159225"><ele>522.0</ele><time>2026-04-18T08:49:42Z</time></trkpt><trkpt lat="44.65820895464682" lon="9.988380556048577"><ele>522.5</ele><time>2026-04-18T08:49:45Z</time></trkpt><trkpt lat="44.65822920294567" lon="9.988275131900414"><ele>523.0</ele><time>2026-04-18T08:49:48Z</time></trkpt><trkpt lat="44.65825282980869" lon="9.988169738310562"><ele>523.5</ele><time>2026-04-18T08:49:50.999Z</time></trkpt><trkpt lat="44.658261140358334" lon="9.988063550562998"><ele>524.0</ele><time>2026-04-18T08:49:53.999Z</time></trkpt><trkpt lat="44.65827190322554" lon="9.987971467073569"><ele>524.5</ele><time>2026-04-18T08:49:56.999Z</time></trkpt><trkpt lat="44.658268379162244" lon="9.98786482069057"><ele>525.0</ele><time>2026-04-18T08:49:59.999Z</time></trkpt><trkpt lat="44.658270746591384" lon="9.987726929938619"><ele>525.0</ele><time>2026-04-18T08:50:02.999Z</time></trkpt><trkpt lat="44.658230379652785" lon="9.987615583531127"><ele>525.0</ele><time>2026-04-18T08:50:05.999Z</time></trkpt><trkpt lat="44.658163798413895" lon="9.987576661293465"><ele>525.0</ele><time>2026-04-18T08:50:08.999Z</time></trkpt><trkpt lat="44.65808041642336" lon="9.987581677146157"><ele>525.0</ele><time>2026-04-18T08:50:12.999Z</time></trkpt><trkpt lat="44.65799775310341" lon="9.987611548934781"><ele>525.0</ele><time>2026-04-18T08:50:16.999Z</time></trkpt><trkpt lat="44.657935157895864" lon="9.987676696753864"><ele>525.0</ele><time>2026-04-18T08:50:20.999Z</time></trkpt><trkpt lat="44.65790069495945" lon="9.987773777583948"><ele>525.0</ele><time>2026-04-18T08:50:24.999Z</time></trkpt><trkpt lat="44.65787933000232" lon="9.987863110230556"><ele>525.0</ele><time>2026-04-18T08:50:28.999Z</time></trkpt><trkpt lat="44.65784230748306" lon="9.987948643460058"><ele>525.0</ele><time>2026-04-18T08:50:31.999Z</time></trkpt><trkpt lat="44.65780439222979" lon="9.988027570732159"><ele>525.0</ele><time>2026-04-18T08:50:34.999Z</time></trkpt><trkpt lat="44.65777857848944" lon="9.988138781883434"><ele>525.0</ele><time>2026-04-18T08:50:38.999Z</time></trkpt><trkpt lat="44.65776650242004" lon="9.988270757251948"><ele>525.0</ele><time>2026-04-18T08:50:41.999Z</time></trkpt><trkpt lat="44.657772082463076" lon="9.988387390929514"><ele>529.8333333333334</ele><time>2026-04-18T08:50:44.998Z</time></trkpt><trkpt lat="44.65778270141015" lon="9.98850144236921"><ele>534.6666666666666</ele><time>2026-04-18T08:50:47.998Z</time></trkpt><trkpt lat="44.657776406182144" lon="9.988615023903467"><ele>539.5</ele><time>2026-04-18T08:50:50.998Z</time></trkpt><trkpt lat="44.657775569967036" lon="9.988727845224348"><ele>544.3333333333333</ele><time>2026-04-18T08:50:53.998Z</time></trkpt><trkpt lat="44.657764662418565" lon="9.98884064138865"><ele>549.1666666666666</ele><time>2026-04-18T08:50:56.998Z</time></trkpt><trkpt lat="44.65774679898799" lon="9.988945635200789"><ele>554.0</ele><time>2026-04-18T08:50:59.998Z</time></trkpt><trkpt lat="44.65773632216737" lon="9.989058171048155"><ele>554.0</ele><time>2026-04-18T08:51:03Z</time></trkpt><trkpt lat="44.657721732487914" lon="9.989164770230504"><ele>554.0</ele><time>2026-04-18T08:51:06Z</time></trkpt><trkpt lat="44.657699506473584" lon="9.9892624580163"><ele>554.0</ele><time>2026-04-18T08:51:09Z</time></trkpt><trkpt lat="44.657653142687" lon="9.989366648671918"><ele>554.0</ele><time>2026-04-18T08:51:12Z</time></trkpt><trkpt lat="44.65763737880592" lon="9.9894590610534"><ele>554.0</ele><time>2026-04-18T08:51:16Z</time></trkpt><trkpt lat="44.657619761117395" lon="9.989548922953228"><ele>554.0</ele><time>2026-04-18T08:51:19Z</time></trkpt><trkpt lat="44.657599998872485" lon="9.98968894496337"><ele>553.8571428571429</ele><time>2026-04-18T08:51:23Z</time></trkpt><trkpt lat="44.657587498186594" lon="9.989784596509969"><ele>553.7142857142857</ele><time>2026-04-18T08:51:26Z</time></trkpt><trkpt lat="44.65758140880409" lon="9.989901824060484"><ele>553.5714285714286</ele><time>2026-04-18T08:51:30Z</time></trkpt><trkpt lat="44.6575719377377" lon="9.989994239543371"><ele>553.4285714285714</ele><time>2026-04-18T08:51:33Z</time></trkpt><trkpt lat="44.657597162442144" lon="9.990097811558876"><ele>553.2857142857142</ele><time>2026-04-18T08:51:36Z</time></trkpt><trkpt lat="44.65759262141256" lon="9.990187356988582"><ele>553.1428571428571</ele><time>2026-04-18T08:51:39Z</time></trkpt><trkpt lat="44.65757217076069" lon="9.99027154513537"><ele>553.0</ele><time>2026-04-18T08:51:42Z</time></trkpt><trkpt lat="44.65755168480357" lon="9.990363466131958"><ele>553.0</ele><time>2026-04-18T08:51:45Z</time></trkpt><trkpt lat="44.65753863002396" lon="9.990452788509256"><ele>553.0</ele><time>2026-04-18T08:51:48Z</time></trkpt><trkpt lat="44.65751746675804" lon="9.990543601042285"><ele>553.0</ele><time>2026-04-18T08:51:51Z</time></trkpt><trkpt lat="44.65751013887638" lon="9.990638597288282"><ele>553.0</ele><time>2026-04-18T08:51:53.999Z</time></trkpt><trkpt lat="44.657495672780755" lon="9.990731639348516"><ele>553.0</ele><time>2026-04-18T08:51:56.999Z</time></trkpt><trkpt lat="44.65750057793492" lon="9.990845355045167"><ele>553.0</ele><time>2026-04-18T08:51:59.999Z</time></trkpt><trkpt lat="44.65748744713844" lon="9.990963266657516"><ele>553.0</ele><time>2026-04-18T08:52:02.999Z</time></trkpt><trkpt lat="44.657472231477215" lon="9.99107333269202"><ele>553.0</ele><time>2026-04-18T08:52:06.999Z</time></trkpt><trkpt lat="44.657443270990214" lon="9.99120805464519"><ele>553.0</ele><time>2026-04-18T08:52:10.999Z</time></trkpt><trkpt lat="44.657418418257045" lon="9.99129714606583"><ele>553.0</ele><time>2026-04-18T08:52:13.999Z</time></trkpt><trkpt lat="44.65755168480357" lon="9.990363466131958"><ele>553.0</ele><time>2026-04-18T08:51:45Z</time></trkpt><trkpt lat="44.65753863002396" lon="9.990452788509256"><ele>553.0</ele><time>2026-04-18T08:51:48Z</time></trkpt><trkpt lat="44.65751746675804" lon="9.990543601042285"><ele>553.0</ele><time>2026-04-18T08:51:51Z</time></trkpt><trkpt lat="44.65751013887638" lon="9.990638597288282"><ele>553.0</ele><time>2026-04-18T08:51:53.999Z</time></trkpt><trkpt lat="44.657495672780755" lon="9.990731639348516"><ele>553.0</ele><time>2026-04-18T08:51:56.999Z</time></trkpt><trkpt lat="44.65750057793492" lon="9.990845355045167"><ele>553.0</ele><time>2026-04-18T08:51:59.999Z</time></trkpt><trkpt lat="44.65748744713844" lon="9.990963266657516"><ele>553.0</ele><time>2026-04-18T08:52:02.999Z</time></trkpt><trkpt lat="44.657472231477215" lon="9.99107333269202"><ele>552.0</ele><time>2026-04-18T08:52:06.999Z</time></trkpt><trkpt lat="44.657443270990214" lon="9.99120805464519"><ele>551.0</ele><time>2026-04-18T08:52:10.999Z</time></trkpt><trkpt lat="44.657418418257045" lon="9.99129714606583"><ele>550.0</ele><time>2026-04-18T08:52:13.999Z</time></trkpt><trkpt lat="44.65739179789024" lon="9.991384299077545"><ele>549.0</ele><time>2026-04-18T08:52:16.999Z</time></trkpt><trkpt lat="44.6573486474388" lon="9.991466405801356"><ele>548.0</ele><time>2026-04-18T08:52:18.999Z</time></trkpt><trkpt lat="44.65727601997527" lon="9.991510084113742"><ele>547.0</ele><time>2026-04-18T08:52:21.999Z</time></trkpt><trkpt lat="44.65719622690526" lon="9.991502527775483"><ele>547.0</ele><time>2026-04-18T08:52:25.999Z</time></trkpt><trkpt lat="44.65710523562857" lon="9.991486625046967"><ele>547.0</ele><time>2026-04-18T08:52:28.999Z</time></trkpt><trkpt lat="44.657018831900345" lon="9.991455278580036"><ele>547.0</ele><time>2026-04-18T08:52:31.999Z</time></trkpt><trkpt lat="44.65695632094763" lon="9.991439421659027"><ele>547.0</ele><time>2026-04-18T08:52:33.999Z</time></trkpt><trkpt lat="44.65686866525481" lon="9.991424847815203"><ele>547.0</ele><time>2026-04-18T08:52:36.999Z</time></trkpt><trkpt lat="44.65678139414359" lon="9.9914345549575"><ele>547.0</ele><time>2026-04-18T08:52:39.999Z</time></trkpt><trkpt lat="44.65669025064425" lon="9.99144810744503"><ele>548.5</ele><time>2026-04-18T08:52:42.999Z</time></trkpt><trkpt lat="44.65660584682182" lon="9.99146259893191"><ele>550.0</ele><time>2026-04-18T08:52:45.998Z</time></trkpt><trkpt lat="44.65652804706396" lon="9.991503372877444"><ele>551.5</ele><time>2026-04-18T08:52:48.998Z</time></trkpt><trkpt lat="44.656463226372765" lon="9.991578127267273"><ele>553.0</ele><time>2026-04-18T08:52:51.998Z</time></trkpt><trkpt lat="44.656411706047955" lon="9.991670954898682"><ele>554.5</ele><time>2026-04-18T08:52:55.998Z</time></trkpt><trkpt lat="44.65638580687728" lon="9.991772731349217"><ele>556.0</ele><time>2026-04-18T08:52:58.998Z</time></trkpt><trkpt lat="44.65637064303181" lon="9.991870225695072"><ele>556.0</ele><time>2026-04-18T08:53:01.998Z</time></trkpt><trkpt lat="44.65637295755484" lon="9.991989922923336"><ele>556.0</ele><time>2026-04-18T08:53:04.998Z</time></trkpt><trkpt lat="44.65636691781429" lon="9.99208483912624"><ele>556.0</ele><time>2026-04-18T08:53:07Z</time></trkpt><trkpt lat="44.65635822638359" lon="9.992204276418093"><ele>556.0</ele><time>2026-04-18T08:53:10Z</time></trkpt><trkpt lat="44.65635529786933" lon="9.992335954892653"><ele>556.0</ele><time>2026-04-18T08:53:13Z</time></trkpt><trkpt lat="44.65634548696444" lon="9.992464117700495"><ele>556.0</ele><time>2026-04-18T08:53:16Z</time></trkpt><trkpt lat="44.65631908891249" lon="9.992588515330947"><ele>555.5714285714286</ele><time>2026-04-18T08:53:19Z</time></trkpt><trkpt lat="44.65628689889445" lon="9.99266915496894"><ele>555.1428571428571</ele><time>2026-04-18T08:53:21Z</time></trkpt><trkpt lat="44.656261790617116" lon="9.992754877958927"><ele>554.7142857142858</ele><time>2026-04-18T08:53:23Z</time></trkpt><trkpt lat="44.656233765095365" lon="9.992835530043234"><ele>554.2857142857142</ele><time>2026-04-18T08:53:25Z</time></trkpt><trkpt lat="44.65618483904552" lon="9.992948956044403"><ele>553.8571428571429</ele><time>2026-04-18T08:53:28Z</time></trkpt><trkpt lat="44.65614745488048" lon="9.99302101671803"><ele>553.4285714285714</ele><time>2026-04-18T08:53:30Z</time></trkpt><trkpt lat="44.656107896563284" lon="9.9930961730977"><ele>553.0</ele><time>2026-04-18T08:53:32Z</time></trkpt><trkpt lat="44.656062806355564" lon="9.993169086929163"><ele>556.0</ele><time>2026-04-18T08:53:34Z</time></trkpt><trkpt lat="44.65601519760486" lon="9.993239452126566"><ele>559.0</ele><time>2026-04-18T08:53:36Z</time></trkpt><trkpt lat="44.655969466664196" lon="9.993321857337474"><ele>562.0</ele><time>2026-04-18T08:53:38Z</time></trkpt><trkpt lat="44.65591819880608" lon="9.993418489380337"><ele>565.0</ele><time>2026-04-18T08:53:40Z</time></trkpt><trkpt lat="44.65587299357682" lon="9.99350389735411"><ele>568.0</ele><time>2026-04-18T08:53:42Z</time></trkpt><trkpt lat="44.655837825075274" lon="9.993605024458939"><ele>571.0</ele><time>2026-04-18T08:53:44Z</time></trkpt><trkpt lat="44.6558019809759" lon="9.993698852044144"><ele>571.0</ele><time>2026-04-18T08:53:46Z</time></trkpt><trkpt lat="44.6557706414291" lon="9.99385568803911"><ele>571.0</ele><time>2026-04-18T08:53:49Z</time></trkpt><trkpt lat="44.655756973019564" lon="9.993972106139237"><ele>571.0</ele><time>2026-04-18T08:53:51Z</time></trkpt><trkpt lat="44.65574477547033" lon="9.994080094643538"><ele>571.0</ele><time>2026-04-18T08:53:53Z</time></trkpt><trkpt lat="44.655733305369786" lon="9.994187078428048"><ele>571.0</ele><time>2026-04-18T08:53:55Z</time></trkpt><trkpt lat="44.65572077024809" lon="9.994298994386845"><ele>571.0</ele><time>2026-04-18T08:53:57Z</time></trkpt><trkpt lat="44.655712086560385" lon="9.994400943393316"><ele>570.3333333333334</ele><time>2026-04-18T08:53:58.999Z</time></trkpt><trkpt lat="44.65570408435925" lon="9.994501366747917"><ele>569.6666666666667</ele><time>2026-04-18T08:54:00.999Z</time></trkpt><trkpt lat="44.655691346375654" lon="9.994600823906781"><ele>569.0</ele><time>2026-04-18T08:54:02.999Z</time></trkpt><trkpt lat="44.65567793157403" lon="9.994722146960278"><ele>568.3333333333334</ele><time>2026-04-18T08:54:05.999Z</time></trkpt><trkpt lat="44.65566195273547" lon="9.994809807678946"><ele>567.6666666666666</ele><time>2026-04-18T08:54:08.999Z</time></trkpt><trkpt lat="44.65562042593431" lon="9.994893183250387"><ele>567.0</ele><time>2026-04-18T08:54:14.999Z</time></trkpt><trkpt lat="44.65554103085948" lon="9.994988866483414"><ele>567.4285714285714</ele><time>2026-04-18T08:56:26.999Z</time></trkpt><trkpt lat="44.65549028066942" lon="9.99504468817317"><ele>567.8571428571429</ele><time>2026-04-18T08:56:56.998Z</time></trkpt><trkpt lat="44.655424859038156" lon="9.995024891440407"><ele>568.2857142857142</ele><time>2026-04-18T08:59:50Z</time></trkpt><trkpt lat="44.65535512967841" lon="9.995043069431269"><ele>568.7142857142858</ele><time>2026-04-18T08:59:53Z</time></trkpt><trkpt lat="44.65529016628182" lon="9.995035826590158"><ele>569.1428571428571</ele><time>2026-04-18T08:59:55Z</time></trkpt><trkpt lat="44.65521641623931" lon="9.99499245541104"><ele>569.5714285714286</ele><time>2026-04-18T08:59:57Z</time></trkpt><trkpt lat="44.655135257592434" lon="9.994942336171015"><ele>570.0</ele><time>2026-04-18T08:59:59Z</time></trkpt><trkpt lat="44.65504283267588" lon="9.994880359382822"><ele>571.8333333333334</ele><time>2026-04-18T09:00:01Z</time></trkpt><trkpt lat="44.654937800291364" lon="9.994823139178672"><ele>573.6666666666666</ele><time>2026-04-18T09:00:03Z</time></trkpt><trkpt lat="44.654834543757715" lon="9.994744753957121"><ele>575.5</ele><time>2026-04-18T09:00:05Z</time></trkpt><trkpt lat="44.65477479996863" lon="9.994711628987266"><ele>577.3333333333333</ele><time>2026-04-18T09:00:06Z</time></trkpt><trkpt lat="44.654711551975744" lon="9.994682632107597"><ele>579.1666666666666</ele><time>2026-04-18T09:00:07Z</time></trkpt><trkpt lat="44.65463780648111" lon="9.994642018186106"><ele>581.0</ele><time>2026-04-18T09:00:08Z</time></trkpt><trkpt lat="44.65457055116073" lon="9.994594073950312"><ele>581.0</ele><time>2026-04-18T09:00:09Z</time></trkpt><trkpt lat="44.6544979959394" lon="9.994543442321088"><ele>581.0</ele><time>2026-04-18T09:00:09.999Z</time></trkpt><trkpt lat="44.65442760129148" lon="9.994502272838632"><ele>581.0</ele><time>2026-04-18T09:00:10.999Z</time></trkpt><trkpt lat="44.65435256729721" lon="9.994464365304747"><ele>581.0</ele><time>2026-04-18T09:00:11.999Z</time></trkpt><trkpt lat="44.65428055419511" lon="9.994435986822129"><ele>581.0</ele><time>2026-04-18T09:00:12.999Z</time></trkpt><trkpt lat="44.65420492714401" lon="9.994414500224796"><ele>581.0</ele><time>2026-04-18T09:00:13.999Z</time></trkpt><trkpt lat="44.65412241162974" lon="9.994403283608243"><ele>578.5</ele><time>2026-04-18T09:00:14.999Z</time></trkpt><trkpt lat="44.65403439359296" lon="9.994410442190343"><ele>576.0</ele><time>2026-04-18T09:00:15.999Z</time></trkpt><trkpt lat="44.6539496172455" lon="9.994402912967871"><ele>573.5</ele><time>2026-04-18T09:00:16.999Z</time></trkpt><trkpt lat="44.65385687214032" lon="9.99441021471494"><ele>571.0</ele><time>2026-04-18T09:00:17.999Z</time></trkpt><trkpt lat="44.65377050038392" lon="9.99440137739204"><ele>568.5</ele><time>2026-04-18T09:00:18.999Z</time></trkpt><trkpt lat="44.65368640202515" lon="9.99437013166674"><ele>566.0</ele><time>2026-04-18T09:00:19.999Z</time></trkpt><trkpt lat="44.65358024928889" lon="9.994314163144345"><ele>562.5</ele><time>2026-04-18T09:00:20.999Z</time></trkpt><trkpt lat="44.653497530252494" lon="9.994293202190498"><ele>559.0</ele><time>2026-04-18T09:00:21.999Z</time></trkpt><trkpt lat="44.65330782857055" lon="9.994267830040066"><ele>555.5</ele><time>2026-04-18T09:00:23.999Z</time></trkpt><trkpt lat="44.653209962015325" lon="9.994273772053214"><ele>552.0</ele><time>2026-04-18T09:00:24.999Z</time></trkpt><trkpt lat="44.65311206249636" lon="9.994258151088472"><ele>552.0</ele><time>2026-04-18T09:00:25.999Z</time></trkpt><trkpt lat="44.65303095331505" lon="9.994219986589973"><ele>552.0</ele><time>2026-04-18T09:00:26.999Z</time></trkpt><trkpt lat="44.652955375603334" lon="9.994174239182962"><ele>552.0</ele><time>2026-04-18T09:00:27.999Z</time></trkpt><trkpt lat="44.65285721877624" lon="9.994125609134544"><ele>552.0</ele><time>2026-04-18T09:00:28.999Z</time></trkpt><trkpt lat="44.65275639925704" lon="9.994063134298464"><ele>552.0</ele><time>2026-04-18T09:00:29.999Z</time></trkpt><trkpt lat="44.652654517265965" lon="9.994004559487541"><ele>551.6</ele><time>2026-04-18T09:00:30.999Z</time></trkpt><trkpt lat="44.65254711872958" lon="9.993968030514173"><ele>551.2</ele><time>2026-04-18T09:00:31.999Z</time></trkpt><trkpt lat="44.652451793688144" lon="9.993926040414298"><ele>550.8</ele><time>2026-04-18T09:00:32.999Z</time></trkpt><trkpt lat="44.652353599040644" lon="9.993853618909034"><ele>550.4</ele><time>2026-04-18T09:00:33.999Z</time></trkpt><trkpt lat="44.6522675468585" lon="9.993753394958112"><ele>550.0</ele><time>2026-04-18T09:00:34.999Z</time></trkpt><trkpt lat="44.65217089172169" lon="9.99365341646988"><ele>550.0</ele><time>2026-04-18T09:00:35.999Z</time></trkpt><trkpt lat="44.652061424604575" lon="9.993561639630771"><ele>550.0</ele><time>2026-04-18T09:00:36.999Z</time></trkpt><trkpt lat="44.65195075125886" lon="9.993467886741424"><ele>550.0</ele><time>2026-04-18T09:00:37.999Z</time></trkpt><trkpt lat="44.65183318686986" lon="9.993387039905889"><ele>550.0</ele><time>2026-04-18T09:00:38.999Z</time></trkpt><trkpt lat="44.651709166924235" lon="9.993322476836317"><ele>547.5</ele><time>2026-04-18T09:00:39.999Z</time></trkpt><trkpt lat="44.651583228480405" lon="9.993265755260879"><ele>545.0</ele><time>2026-04-18T09:00:40.999Z</time></trkpt><trkpt lat="44.65146277305624" lon="9.993198765536246"><ele>542.5</ele><time>2026-04-18T09:00:41.999Z</time></trkpt><trkpt lat="44.65134362442234" lon="9.993123566969263"><ele>540.0</ele><time>2026-04-18T09:00:42.999Z</time></trkpt><trkpt lat="44.65122463296132" lon="9.993040267270313"><ele>537.25</ele><time>2026-04-18T09:00:43.999Z</time></trkpt><trkpt lat="44.65111673804912" lon="9.992939942490922"><ele>534.5</ele><time>2026-04-18T09:00:44.999Z</time></trkpt><trkpt lat="44.651014798887815" lon="9.992833542363558"><ele>531.75</ele><time>2026-04-18T09:00:45.999Z</time></trkpt><trkpt lat="44.65091094883688" lon="9.992729573363263"><ele>529.0</ele><time>2026-04-18T09:00:46.999Z</time></trkpt><trkpt lat="44.65081226749176" lon="9.992622772865097"><ele>529.0</ele><time>2026-04-18T09:00:47.999Z</time></trkpt><trkpt lat="44.65071546995931" lon="9.99251525366049"><ele>529.0</ele><time>2026-04-18T09:00:48.999Z</time></trkpt><trkpt lat="44.65062603800731" lon="9.992414953614562"><ele>529.0</ele><time>2026-04-18T09:00:49.999Z</time></trkpt><trkpt lat="44.65053673692756" lon="9.992329898423383"><ele>529.0</ele><time>2026-04-18T09:00:50.999Z</time></trkpt><trkpt lat="44.65044524899787" lon="9.992267403469635"><ele>529.0</ele><time>2026-04-18T09:00:51.999Z</time></trkpt><trkpt lat="44.65035229015803" lon="9.992227381865908"><ele>529.8333333333334</ele><time>2026-04-18T09:00:52.999Z</time></trkpt><trkpt lat="44.65026346793265" lon="9.992214258410193"><ele>530.6666666666667</ele><time>2026-04-18T09:00:53.999Z</time></trkpt><trkpt lat="44.650178164179174" lon="9.992222485495136"><ele>531.5</ele><time>2026-04-18T09:00:54.999Z</time></trkpt><trkpt lat="44.650097151039155" lon="9.99222523270145"><ele>532.3333333333334</ele><time>2026-04-18T09:00:55.999Z</time></trkpt><trkpt lat="44.65002161765702" lon="9.992217487963758"><ele>533.1666666666666</ele><time>2026-04-18T09:00:56.999Z</time></trkpt><trkpt lat="44.64995003086938" lon="9.992199591333272"><ele>534.0</ele><time>2026-04-18T09:00:57.999Z</time></trkpt><trkpt lat="44.64988063648226" lon="9.992168484927234"><ele>534.0</ele><time>2026-04-18T09:00:58.999Z</time></trkpt><trkpt lat="44.64981929224771" lon="9.99212257624206"><ele>534.0</ele><time>2026-04-18T09:00:59.999Z</time></trkpt><trkpt lat="44.6497581845851" lon="9.992076951109555"><ele>534.0</ele><time>2026-04-18T09:01:00.999Z</time></trkpt><trkpt lat="44.649703921185555" lon="9.992022122248974"><ele>534.0</ele><time>2026-04-18T09:01:01.999Z</time></trkpt><trkpt lat="44.64962076313844" lon="9.991892235107183"><ele>534.0</ele><time>2026-04-18T09:01:03.998Z</time></trkpt><trkpt lat="44.64958720216716" lon="9.991815347442264"><ele>534.0</ele><time>2026-04-18T09:01:04.998Z</time></trkpt><trkpt lat="44.6495522454315" lon="9.99174077466052"><ele>534.6666666666666</ele><time>2026-04-18T09:01:05.998Z</time></trkpt><trkpt lat="44.649538357243266" lon="9.991651700888937"><ele>535.3333333333334</ele><time>2026-04-18T09:01:06.998Z</time></trkpt><trkpt lat="44.64948413524365" lon="9.991493848888336"><ele>536.0</ele><time>2026-04-18T09:01:08.998Z</time></trkpt><trkpt lat="44.64943483535888" lon="9.991334061569537"><ele>536.6666666666667</ele><time>2026-04-18T09:01:10.998Z</time></trkpt><trkpt lat="44.64941810742143" lon="9.99124118957383"><ele>537.3333333333334</ele><time>2026-04-18T09:01:11.998Z</time></trkpt><trkpt lat="44.64939255944588" lon="9.99115723189329"><ele>538.0</ele><time>2026-04-18T09:01:12.998Z</time></trkpt><trkpt lat="44.64938213965207" lon="9.991064330283617"><ele>538.0</ele><time>2026-04-18T09:01:13.998Z</time></trkpt><trkpt lat="44.64936544538666" lon="9.990975834835565"><ele>538.0</ele><time>2026-04-18T09:01:14.998Z</time></trkpt><trkpt lat="44.64934433814258" lon="9.990886467522778"><ele>538.0</ele><time>2026-04-18T09:01:15.998Z</time></trkpt><trkpt lat="44.64933398463848" lon="9.990791088766647"><ele>538.0</ele><time>2026-04-18T09:01:16.998Z</time></trkpt><trkpt lat="44.649312333834736" lon="9.990697126607133"><ele>538.0</ele><time>2026-04-18T09:01:17.998Z</time></trkpt><trkpt lat="44.64929217373147" lon="9.990602645303305"><ele>538.0</ele><time>2026-04-18T09:01:18.998Z</time></trkpt><trkpt lat="44.64926726941348" lon="9.990507362697771"><ele>538.0</ele><time>2026-04-18T09:01:19.998Z</time></trkpt><trkpt lat="44.649234730710084" lon="9.990419476819339"><ele>538.0</ele><time>2026-04-18T09:01:20.998Z</time></trkpt><trkpt lat="44.64920368308219" lon="9.990330331159118"><ele>538.0</ele><time>2026-04-18T09:01:21.998Z</time></trkpt><trkpt lat="44.64917463930753" lon="9.990237293044979"><ele>538.0</ele><time>2026-04-18T09:01:22.998Z</time></trkpt><trkpt lat="44.64913070317047" lon="9.9901545909661"><ele>538.0</ele><time>2026-04-18T09:01:23.998Z</time></trkpt><trkpt lat="44.649087444335834" lon="9.990076397397738"><ele>538.0</ele><time>2026-04-18T09:01:24.998Z</time></trkpt><trkpt lat="44.64904581315524" lon="9.989995787746725"><ele>538.0</ele><time>2026-04-18T09:01:25.998Z</time></trkpt><trkpt lat="44.64900546673238" lon="9.98991642672318"><ele>538.0</ele><time>2026-04-18T09:01:26.998Z</time></trkpt><trkpt lat="44.64896219449193" lon="9.98983458235971"><ele>538.0</ele><time>2026-04-18T09:01:27.998Z</time></trkpt><trkpt lat="44.64891813074071" lon="9.989753216521034"><ele>538.0</ele><time>2026-04-18T09:01:29Z</time></trkpt><trkpt lat="44.64887111507731" lon="9.989675916899337"><ele>538.0</ele><time>2026-04-18T09:01:30Z</time></trkpt><trkpt lat="44.64882307010984" lon="9.989597726667258"><ele>538.0</ele><time>2026-04-18T09:01:31Z</time></trkpt><trkpt lat="44.64876704731586" lon="9.989529497855294"><ele>538.0</ele><time>2026-04-18T09:01:32Z</time></trkpt><trkpt lat="44.64870477494782" lon="9.989468029534066"><ele>538.0</ele><time>2026-04-18T09:01:33Z</time></trkpt><trkpt lat="44.648638235903135" lon="9.989415811555258"><ele>538.0</ele><time>2026-04-18T09:01:34Z</time></trkpt><trkpt lat="44.64856135062465" lon="9.98937752033507"><ele>538.5</ele><time>2026-04-18T09:01:35Z</time></trkpt><trkpt lat="44.6484815076274" lon="9.989339485077284"><ele>539.0</ele><time>2026-04-18T09:01:36Z</time></trkpt><trkpt lat="44.64840316234446" lon="9.989296246709907"><ele>539.5</ele><time>2026-04-18T09:01:37Z</time></trkpt><trkpt lat="44.64831990488399" lon="9.98926038466428"><ele>540.0</ele><time>2026-04-18T09:01:38Z</time></trkpt><trkpt lat="44.64824240963208" lon="9.989217122245579"><ele>540.5</ele><time>2026-04-18T09:01:39Z</time></trkpt><trkpt lat="44.648162209101436" lon="9.989172698507812"><ele>541.0</ele><time>2026-04-18T09:01:40Z</time></trkpt><trkpt lat="44.648082242333416" lon="9.989125882191525"><ele>541.0</ele><time>2026-04-18T09:01:41Z</time></trkpt><trkpt lat="44.648002060165794" lon="9.989071222340696"><ele>541.0</ele><time>2026-04-18T09:01:42Z</time></trkpt><trkpt lat="44.64791965285687" lon="9.989002825643846"><ele>541.0</ele><time>2026-04-18T09:01:43Z</time></trkpt><trkpt lat="44.64785616419494" lon="9.988911389050937"><ele>541.0</ele><time>2026-04-18T09:01:44Z</time></trkpt><trkpt lat="44.64778081718572" lon="9.988811241655265"><ele>541.0</ele><time>2026-04-18T09:01:45Z</time></trkpt><trkpt lat="44.64773531372617" lon="9.988689743331951"><ele>539.0</ele><time>2026-04-18T09:01:46Z</time></trkpt><trkpt lat="44.64767738609957" lon="9.988575405017828"><ele>537.0</ele><time>2026-04-18T09:01:47Z</time></trkpt><trkpt lat="44.647619177789906" lon="9.988457441653374"><ele>535.0</ele><time>2026-04-18T09:01:48Z</time></trkpt><trkpt lat="44.647559496508634" lon="9.988337314154382"><ele>533.0</ele><time>2026-04-18T09:01:49Z</time></trkpt><trkpt lat="44.64748567363872" lon="9.988222705732293"><ele>531.0</ele><time>2026-04-18T09:01:50Z</time></trkpt><trkpt lat="44.64739863392566" lon="9.988130154529475"><ele>531.0</ele><time>2026-04-18T09:01:51Z</time></trkpt><trkpt lat="44.64730034624099" lon="9.988061865792462"><ele>531.0</ele><time>2026-04-18T09:01:52Z</time></trkpt><trkpt lat="44.64719410301426" lon="9.988018612946265"><ele>531.0</ele><time>2026-04-18T09:01:53Z</time></trkpt><trkpt lat="44.64708374665677" lon="9.987993259864089"><ele>531.0</ele><time>2026-04-18T09:01:54Z</time></trkpt><trkpt lat="44.64697692346431" lon="9.9879705505723"><ele>531.0</ele><time>2026-04-18T09:01:55Z</time></trkpt><trkpt lat="44.646863651970015" lon="9.987958310739812"><ele>528.75</ele><time>2026-04-18T09:01:56Z</time></trkpt><trkpt lat="44.64675155383621" lon="9.987939624150245"><ele>526.5</ele><time>2026-04-18T09:01:57Z</time></trkpt><trkpt lat="44.64663945343507" lon="9.987920687361944"><ele>524.25</ele><time>2026-04-18T09:01:58Z</time></trkpt><trkpt lat="44.64652153729183" lon="9.987903449131895"><ele>522.0</ele><time>2026-04-18T09:01:59Z</time></trkpt><trkpt lat="44.64641264875785" lon="9.987880305651883"><ele>522.0</ele><time>2026-04-18T09:02:00Z</time></trkpt><trkpt lat="44.64630054945989" lon="9.987855295419543"><ele>522.0</ele><time>2026-04-18T09:02:01Z</time></trkpt><trkpt lat="44.646193100629596" lon="9.987832435192246"><ele>522.0</ele><time>2026-04-18T09:02:02Z</time></trkpt><trkpt lat="44.64608976576215" lon="9.987801813033812"><ele>522.0</ele><time>2026-04-18T09:02:03Z</time></trkpt><trkpt lat="44.64598987959124" lon="9.987760560954046"><ele>522.0</ele><time>2026-04-18T09:02:04Z</time></trkpt><trkpt lat="44.64589908952995" lon="9.987713254449437"><ele>522.1666666666666</ele><time>2026-04-18T09:02:05Z</time></trkpt><trkpt lat="44.6458166783104" lon="9.98765935953541"><ele>522.3333333333334</ele><time>2026-04-18T09:02:06Z</time></trkpt><trkpt lat="44.64573915453358" lon="9.987604253840008"><ele>522.5</ele><time>2026-04-18T09:02:07Z</time></trkpt><trkpt lat="44.645668851845464" lon="9.987549487126385"><ele>522.6666666666667</ele><time>2026-04-18T09:02:08Z</time></trkpt><trkpt lat="44.645598186643184" lon="9.987499377903747"><ele>522.8333333333334</ele><time>2026-04-18T09:02:09Z</time></trkpt><trkpt lat="44.64553273935528" lon="9.987452647592212"><ele>523.0</ele><time>2026-04-18T09:02:10Z</time></trkpt><trkpt lat="44.6454746182975" lon="9.987399883811209"><ele>523.3333333333334</ele><time>2026-04-18T09:02:11Z</time></trkpt><trkpt lat="44.64541778203475" lon="9.987354756500313"><ele>523.6666666666667</ele><time>2026-04-18T09:02:12Z</time></trkpt><trkpt lat="44.645361984080225" lon="9.987313503108231"><ele>524.0</ele><time>2026-04-18T09:02:12.999Z</time></trkpt><trkpt lat="44.64530386982316" lon="9.987273559754057"><ele>524.3333333333334</ele><time>2026-04-18T09:02:13.999Z</time></trkpt><trkpt lat="44.64520736151494" lon="9.98718873029567"><ele>524.6666666666666</ele><time>2026-04-18T09:02:15.999Z</time></trkpt><trkpt lat="44.64510909418473" lon="9.987117009297263"><ele>525.0</ele><time>2026-04-18T09:02:17.999Z</time></trkpt><trkpt lat="44.64500696400113" lon="9.98704961643454"><ele>525.4</ele><time>2026-04-18T09:02:19.999Z</time></trkpt><trkpt lat="44.64491221074018" lon="9.986982019051563"><ele>525.8</ele><time>2026-04-18T09:02:21.999Z</time></trkpt><trkpt lat="44.644812740773" lon="9.986914704280617"><ele>526.2</ele><time>2026-04-18T09:02:23.999Z</time></trkpt><trkpt lat="44.64471018314272" lon="9.986842663655626"><ele>526.6</ele><time>2026-04-18T09:02:25.999Z</time></trkpt><trkpt lat="44.644603779724065" lon="9.986773617576862"><ele>527.0</ele><time>2026-04-18T09:02:27.999Z</time></trkpt><trkpt lat="44.64449763949918" lon="9.986703947010247"><ele>528.25</ele><time>2026-04-18T09:02:29.999Z</time></trkpt><trkpt lat="44.64438801154174" lon="9.986624564776891"><ele>529.5</ele><time>2026-04-18T09:02:31.999Z</time></trkpt><trkpt lat="44.64428177256737" lon="9.986540275340053"><ele>530.75</ele><time>2026-04-18T09:02:33.999Z</time></trkpt><trkpt lat="44.644179772462635" lon="9.986458052695092"><ele>532.0</ele><time>2026-04-18T09:02:35.999Z</time></trkpt><trkpt lat="44.644082695246794" lon="9.986374113582116"><ele>532.0</ele><time>2026-04-18T09:02:37.999Z</time></trkpt><trkpt lat="44.64398195086069" lon="9.986291681765957"><ele>532.0</ele><time>2026-04-18T09:02:39.999Z</time></trkpt><trkpt lat="44.643883113661566" lon="9.986198465633969"><ele>532.0</ele><time>2026-04-18T09:02:41.999Z</time></trkpt><trkpt lat="44.6437789482919" lon="9.986110077922634"><ele>532.0</ele><time>2026-04-18T09:02:43.999Z</time></trkpt><trkpt lat="44.64367714748847" lon="9.986017067960505"><ele>530.8000000000001</ele><time>2026-04-18T09:02:45.999Z</time></trkpt><trkpt lat="44.64362271954775" lon="9.985972480767508"><ele>529.6</ele><time>2026-04-18T09:02:46.999Z</time></trkpt><trkpt lat="44.64351346511259" lon="9.98590085603507"><ele>528.4000000000001</ele><time>2026-04-18T09:02:48.999Z</time></trkpt><trkpt lat="44.64340366024642" lon="9.985822317185285"><ele>527.2</ele><time>2026-04-18T09:02:50.999Z</time></trkpt><trkpt lat="44.643294993110985" lon="9.985751890293676"><ele>526.0</ele><time>2026-04-18T09:02:52.999Z</time></trkpt><trkpt lat="44.64318449920256" lon="9.985680999099134"><ele>528.75</ele><time>2026-04-18T09:02:54.999Z</time></trkpt><trkpt lat="44.64307820292196" lon="9.985619899437873"><ele>531.5</ele><time>2026-04-18T09:02:56.999Z</time></trkpt><trkpt lat="44.64296581907352" lon="9.985559576057227"><ele>534.25</ele><time>2026-04-18T09:02:58.999Z</time></trkpt><trkpt lat="44.6428490170273" lon="9.98550867014991"><ele>537.0</ele><time>2026-04-18T09:03:00.999Z</time></trkpt><trkpt lat="44.6427491060592" lon="9.985468478901751"><ele>537.0</ele><time>2026-04-18T09:03:02.999Z</time></trkpt><trkpt lat="44.64268190662494" lon="9.985439734749438"><ele>537.0</ele><time>2026-04-18T09:03:03.999Z</time></trkpt><trkpt lat="44.64261021913766" lon="9.985436952025971"><ele>537.0</ele><time>2026-04-18T09:03:04.999Z</time></trkpt><trkpt lat="44.64247937999559" lon="9.985434169346497"><ele>537.0</ele><time>2026-04-18T09:03:06.998Z</time></trkpt><trkpt lat="44.642413705102015" lon="9.985450701172573"><ele>537.0</ele><time>2026-04-18T09:03:07.998Z</time></trkpt><trkpt lat="44.64234907572518" lon="9.985484458446601"><ele>537.0</ele><time>2026-04-18T09:03:08.998Z</time></trkpt><trkpt lat="44.64228360331445" lon="9.985521539691316"><ele>537.0</ele><time>2026-04-18T09:03:09.998Z</time></trkpt><trkpt lat="44.642217199646055" lon="9.985558673981759"><ele>537.0</ele><time>2026-04-18T09:03:10.998Z</time></trkpt><trkpt lat="44.64215024226197" lon="9.985599892778275"><ele>537.0</ele><time>2026-04-18T09:03:11.998Z</time></trkpt><trkpt lat="44.64207476201212" lon="9.985641035720487"><ele>537.0</ele><time>2026-04-18T09:03:12.998Z</time></trkpt><trkpt lat="44.641996535822855" lon="9.985660315349424"><ele>537.0</ele><time>2026-04-18T09:03:13.998Z</time></trkpt><trkpt lat="44.64192730599763" lon="9.985689426931305"><ele>537.0</ele><time>2026-04-18T09:03:14.998Z</time></trkpt><trkpt lat="44.64184190878186" lon="9.985679537216736"><ele>536.8333333333334</ele><time>2026-04-18T09:03:15.998Z</time></trkpt><trkpt lat="44.6417762039647" lon="9.985653179470527"><ele>536.6666666666666</ele><time>2026-04-18T09:03:16.998Z</time></trkpt><trkpt lat="44.64168829197486" lon="9.985613790399585"><ele>536.5</ele><time>2026-04-18T09:03:17.998Z</time></trkpt><trkpt lat="44.641605697107465" lon="9.985527601927027"><ele>536.3333333333333</ele><time>2026-04-18T09:03:18.998Z</time></trkpt><trkpt lat="44.641521799615155" lon="9.985490592740708"><ele>536.1666666666666</ele><time>2026-04-18T09:03:19.998Z</time></trkpt><trkpt lat="44.64144847343337" lon="9.98546094142104"><ele>536.0</ele><time>2026-04-18T09:03:20.998Z</time></trkpt><trkpt lat="44.6413556647677" lon="9.985424057944735"><ele>536.0</ele><time>2026-04-18T09:03:21.998Z</time></trkpt><trkpt lat="44.641230831208404" lon="9.985402217862541"><ele>536.0</ele><time>2026-04-18T09:03:22.998Z</time></trkpt><trkpt lat="44.64111146087555" lon="9.985428501202605"><ele>536.0</ele><time>2026-04-18T09:03:23.998Z</time></trkpt><trkpt lat="44.64101020883122" lon="9.98547475532972"><ele>536.0</ele><time>2026-04-18T09:03:24.998Z</time></trkpt><trkpt lat="44.64090433958839" lon="9.985531014380404"><ele>535.4</ele><time>2026-04-18T09:03:25.998Z</time></trkpt><trkpt lat="44.640802750040315" lon="9.985584356371506"><ele>534.8</ele><time>2026-04-18T09:03:26.998Z</time></trkpt><trkpt lat="44.640708008859406" lon="9.985632086052261"><ele>534.1999999999999</ele><time>2026-04-18T09:03:27.998Z</time></trkpt><trkpt lat="44.64060282021898" lon="9.985685079069507"><ele>533.6</ele><time>2026-04-18T09:03:28.998Z</time></trkpt><trkpt lat="44.64050483951207" lon="9.985735362553475"><ele>533.0</ele><time>2026-04-18T09:03:29.998Z</time></trkpt><trkpt lat="44.640407848733595" lon="9.985785621209367"><ele>533.0</ele><time>2026-04-18T09:03:30.998Z</time></trkpt><trkpt lat="44.640315201474266" lon="9.985816642407892"><ele>533.0</ele><time>2026-04-18T09:03:31.998Z</time></trkpt><trkpt lat="44.64021879246769" lon="9.985850578186167"><ele>533.0</ele><time>2026-04-18T09:03:32.998Z</time></trkpt><trkpt lat="44.64012465652648" lon="9.985834622367062"><ele>533.0</ele><time>2026-04-18T09:03:33.998Z</time></trkpt><trkpt lat="44.640043471125175" lon="9.985761534730907"><ele>533.0</ele><time>2026-04-18T09:03:35Z</time></trkpt><trkpt lat="44.639954682721616" lon="9.985713749868115"><ele>532.8</ele><time>2026-04-18T09:03:36Z</time></trkpt><trkpt lat="44.639869953807484" lon="9.98565543301149"><ele>532.5999999999999</ele><time>2026-04-18T09:03:37Z</time></trkpt><trkpt lat="44.639795185977356" lon="9.985577301715285"><ele>532.4000000000001</ele><time>2026-04-18T09:03:38Z</time></trkpt><trkpt lat="44.639714490277726" lon="9.985519446523563"><ele>532.2</ele><time>2026-04-18T09:03:39Z</time></trkpt><trkpt lat="44.639626482817455" lon="9.985456141516728"><ele>532.0</ele><time>2026-04-18T09:03:40Z</time></trkpt><trkpt lat="44.63953733770123" lon="9.985399311000986"><ele>532.1666666666667</ele><time>2026-04-18T09:03:41Z</time></trkpt><trkpt lat="44.63946464686616" lon="9.985324614481145"><ele>532.3333333333334</ele><time>2026-04-18T09:03:42Z</time></trkpt><trkpt lat="44.639405470918554" lon="9.985226917221798"><ele>532.5</ele><time>2026-04-18T09:03:43Z</time></trkpt><trkpt lat="44.63936323999717" lon="9.985120070272409"><ele>532.6666666666666</ele><time>2026-04-18T09:03:44Z</time></trkpt><trkpt lat="44.639319710717196" lon="9.985015141605068"><ele>532.8333333333333</ele><time>2026-04-18T09:03:45Z</time></trkpt><trkpt lat="44.63928365699835" lon="9.984907491932928"><ele>533.0</ele><time>2026-04-18T09:03:46Z</time></trkpt><trkpt lat="44.63925551309349" lon="9.984789079672787"><ele>533.0</ele><time>2026-04-18T09:03:47Z</time></trkpt><trkpt lat="44.63923523672784" lon="9.984669682258973"><ele>533.0</ele><time>2026-04-18T09:03:48Z</time></trkpt><trkpt lat="44.63920909778834" lon="9.984547995813228"><ele>533.0</ele><time>2026-04-18T09:03:49Z</time></trkpt><trkpt lat="44.63919970759955" lon="9.984417697529569"><ele>533.0</ele><time>2026-04-18T09:03:50Z</time></trkpt><trkpt lat="44.63919085476948" lon="9.984287016435342"><ele>533.0</ele><time>2026-04-18T09:03:51Z</time></trkpt><trkpt lat="44.639181778635674" lon="9.984153038925312"><ele>533.0</ele><time>2026-04-18T09:03:52Z</time></trkpt><trkpt lat="44.63917484869198" lon="9.98402853724419"><ele>533.0</ele><time>2026-04-18T09:03:53Z</time></trkpt><trkpt lat="44.6391682218138" lon="9.983917150490843"><ele>533.0</ele><time>2026-04-18T09:03:54Z</time></trkpt><trkpt lat="44.63911280509985" lon="9.983829600603482"><ele>533.0</ele><time>2026-04-18T09:03:55Z</time></trkpt><trkpt lat="44.63903831276313" lon="9.983756559030802"><ele>533.0</ele><time>2026-04-18T09:03:56Z</time></trkpt><trkpt lat="44.63893595804345" lon="9.983741384771688"><ele>533.0</ele><time>2026-04-18T09:03:57Z</time></trkpt><trkpt lat="44.63883585937665" lon="9.983819507681797"><ele>533.0</ele><time>2026-04-18T09:03:58Z</time></trkpt><trkpt lat="44.63878064895952" lon="9.983984942321676"><ele>533.0</ele><time>2026-04-18T09:03:59Z</time></trkpt><trkpt lat="44.63875705904368" lon="9.984125044370286"><ele>533.0</ele><time>2026-04-18T09:04:00Z</time></trkpt><trkpt lat="44.638734144999454" lon="9.984251298815403"><ele>533.0</ele><time>2026-04-18T09:04:01Z</time></trkpt><trkpt lat="44.63870903967757" lon="9.984364979794615"><ele>533.0</ele><time>2026-04-18T09:04:02Z</time></trkpt><trkpt lat="44.638678367020816" lon="9.984457839172876"><ele>531.0</ele><time>2026-04-18T09:04:03Z</time></trkpt><trkpt lat="44.63863026133787" lon="9.984522060006285"><ele>529.0</ele><time>2026-04-18T09:04:04Z</time></trkpt><trkpt lat="44.63852202073497" lon="9.984549948685045"><ele>527.0</ele><time>2026-04-18T09:04:06Z</time></trkpt><trkpt lat="44.638459677483326" lon="9.984478251423164"><ele>525.0</ele><time>2026-04-18T09:04:07Z</time></trkpt><trkpt lat="44.63840864453093" lon="9.984360655849798"><ele>523.0</ele><time>2026-04-18T09:04:08Z</time></trkpt><trkpt lat="44.638443658881386" lon="9.9841721016044"><ele>520.8</ele><time>2026-04-18T09:04:09Z</time></trkpt><trkpt lat="44.63846485969996" lon="9.984031597147647"><ele>518.5999999999999</ele><time>2026-04-18T09:04:10Z</time></trkpt><trkpt lat="44.638488866481865" lon="9.98388442356959"><ele>516.4000000000001</ele><time>2026-04-18T09:04:11Z</time></trkpt><trkpt lat="44.63851678562615" lon="9.983734074793105"><ele>514.2</ele><time>2026-04-18T09:04:12Z</time></trkpt><trkpt lat="44.638555058532084" lon="9.983583261515431"><ele>512.0</ele><time>2026-04-18T09:04:13Z</time></trkpt><trkpt lat="44.63860716742264" lon="9.983432699980769"><ele>515.2</ele><time>2026-04-18T09:04:14Z</time></trkpt><trkpt lat="44.63866627962562" lon="9.983292968049204"><ele>518.4000000000001</ele><time>2026-04-18T09:04:15Z</time></trkpt><trkpt lat="44.63870115932077" lon="9.983152381879059"><ele>521.5999999999999</ele><time>2026-04-18T09:04:16Z</time></trkpt><trkpt lat="44.63870435946391" lon="9.982992742104429"><ele>524.8</ele><time>2026-04-18T09:04:16.999Z</time></trkpt><trkpt lat="44.63867252203943" lon="9.982845413471658"><ele>528.0</ele><time>2026-04-18T09:04:17.999Z</time></trkpt><trkpt lat="44.63863517046901" lon="9.982681551080505"><ele>521.0</ele><time>2026-04-18T09:04:18.999Z</time></trkpt><trkpt lat="44.63861853881959" lon="9.982514135342214"><ele>514.0</ele><time>2026-04-18T09:04:19.999Z</time></trkpt><trkpt lat="44.638622077742305" lon="9.982350392362711"><ele>507.0</ele><time>2026-04-18T09:04:20.999Z</time></trkpt><trkpt lat="44.63861901673232" lon="9.982188574124255"><ele>500.0</ele><time>2026-04-18T09:04:21.999Z</time></trkpt><trkpt lat="44.6385974379508" lon="9.982031569539286"><ele>500.0</ele><time>2026-04-18T09:04:22.999Z</time></trkpt><trkpt lat="44.638547315139625" lon="9.981883801278126"><ele>500.0</ele><time>2026-04-18T09:04:23.999Z</time></trkpt><trkpt lat="44.638456518836776" lon="9.98177165556805"><ele>500.0</ele><time>2026-04-18T09:04:24.999Z</time></trkpt><trkpt lat="44.63836431082078" lon="9.981671604657732"><ele>500.0</ele><time>2026-04-18T09:04:25.999Z</time></trkpt><trkpt lat="44.638277391014924" lon="9.981566962184006"><ele>501.0</ele><time>2026-04-18T09:04:26.999Z</time></trkpt><trkpt lat="44.638186577340306" lon="9.981466427285545"><ele>502.0</ele><time>2026-04-18T09:04:27.999Z</time></trkpt><trkpt lat="44.6380925543278" lon="9.981361696130632"><ele>503.0</ele><time>2026-04-18T09:04:28.999Z</time></trkpt><trkpt lat="44.63800483279047" lon="9.981251848374331"><ele>504.0</ele><time>2026-04-18T09:04:29.999Z</time></trkpt><trkpt lat="44.637934679911446" lon="9.981119136322404"><ele>504.0</ele><time>2026-04-18T09:04:30.999Z</time></trkpt><trkpt lat="44.637873458293356" lon="9.980986734151625"><ele>504.0</ele><time>2026-04-18T09:04:31.999Z</time></trkpt><trkpt lat="44.63781229081765" lon="9.980855182980202"><ele>504.0</ele><time>2026-04-18T09:04:32.999Z</time></trkpt><trkpt lat="44.637748842796256" lon="9.980736319293062"><ele>504.0</ele><time>2026-04-18T09:04:33.999Z</time></trkpt><trkpt lat="44.637660538845545" lon="9.980638887543925"><ele>504.0</ele><time>2026-04-18T09:04:34.999Z</time></trkpt><trkpt lat="44.637543231685875" lon="9.980587638873645"><ele>502.0</ele><time>2026-04-18T09:04:35.999Z</time></trkpt><trkpt lat="44.637426882849674" lon="9.980608818305843"><ele>500.0</ele><time>2026-04-18T09:04:36.999Z</time></trkpt><trkpt lat="44.63731903795949" lon="9.980641161112391"><ele>498.0</ele><time>2026-04-18T09:04:37.999Z</time></trkpt><trkpt lat="44.63722038638719" lon="9.980687728109052"><ele>496.0</ele><time>2026-04-18T09:04:38.999Z</time></trkpt><trkpt lat="44.637114967126735" lon="9.98066076663143"><ele>494.0</ele><time>2026-04-18T09:04:39.999Z</time></trkpt><trkpt lat="44.63701006527855" lon="9.98062635047435"><ele>492.25</ele><time>2026-04-18T09:04:40.999Z</time></trkpt><trkpt lat="44.63690537187789" lon="9.98059009978217"><ele>490.5</ele><time>2026-04-18T09:04:41.999Z</time></trkpt><trkpt lat="44.636798225298" lon="9.980542885999398"><ele>488.75</ele><time>2026-04-18T09:04:42.999Z</time></trkpt><trkpt lat="44.63668505942983" lon="9.980501911560124"><ele>487.0</ele><time>2026-04-18T09:04:43.999Z</time></trkpt><trkpt lat="44.63656680994262" lon="9.980471506031664"><ele>487.0</ele><time>2026-04-18T09:04:44.999Z</time></trkpt><trkpt lat="44.636444788322386" lon="9.980443927416713"><ele>487.0</ele><time>2026-04-18T09:04:45.999Z</time></trkpt><trkpt lat="44.63632506994397" lon="9.980427611265563"><ele>487.0</ele><time>2026-04-18T09:04:46.999Z</time></trkpt><trkpt lat="44.6362025861775" lon="9.9803996028639"><ele>487.0</ele><time>2026-04-18T09:04:47.999Z</time></trkpt><trkpt lat="44.636076085021465" lon="9.980405492644387"><ele>484.25</ele><time>2026-04-18T09:04:48.999Z</time></trkpt><trkpt lat="44.635947365146315" lon="9.980417710945233"><ele>481.5</ele><time>2026-04-18T09:04:49.999Z</time></trkpt><trkpt lat="44.63581987309691" lon="9.980433014599628"><ele>478.75</ele><time>2026-04-18T09:04:50.999Z</time></trkpt><trkpt lat="44.635689622954466" lon="9.980447923632452"><ele>476.0</ele><time>2026-04-18T09:04:51.999Z</time></trkpt><trkpt lat="44.63556735365362" lon="9.980452601832887"><ele>476.0</ele><time>2026-04-18T09:04:52.999Z</time></trkpt><trkpt lat="44.635442778066576" lon="9.980393421452355"><ele>476.0</ele><time>2026-04-18T09:04:53.999Z</time></trkpt><trkpt lat="44.63532389642248" lon="9.980318242027733"><ele>476.0</ele><time>2026-04-18T09:04:54.999Z</time></trkpt><trkpt lat="44.63520983436966" lon="9.980214631139713"><ele>476.0</ele><time>2026-04-18T09:04:55.999Z</time></trkpt><trkpt lat="44.63508682324399" lon="9.980112706191345"><ele>475.25</ele><time>2026-04-18T09:04:56.999Z</time></trkpt><trkpt lat="44.63498161300238" lon="9.979971463252008"><ele>474.5</ele><time>2026-04-18T09:04:57.999Z</time></trkpt><trkpt lat="44.6348656228329" lon="9.979857007961321"><ele>473.75</ele><time>2026-04-18T09:04:58.999Z</time></trkpt><trkpt lat="44.634749105596676" lon="9.979757644644282"><ele>473.0</ele><time>2026-04-18T09:04:59.999Z</time></trkpt><trkpt lat="44.63463243788457" lon="9.979669891655236"><ele>473.0</ele><time>2026-04-18T09:05:00.999Z</time></trkpt><trkpt lat="44.634522231533694" lon="9.979608387601283"><ele>473.0</ele><time>2026-04-18T09:05:01.999Z</time></trkpt><trkpt lat="44.63441678304644" lon="9.979551971101467"><ele>473.0</ele><time>2026-04-18T09:05:02.999Z</time></trkpt><trkpt lat="44.63428620955766" lon="9.979568053934145"><ele>473.0</ele><time>2026-04-18T09:05:03.999Z</time></trkpt><trkpt lat="44.634168905428986" lon="9.979707228994485"><ele>472.75</ele><time>2026-04-18T09:05:04.999Z</time></trkpt><trkpt lat="44.63409305569734" lon="9.979830390436257"><ele>472.5</ele><time>2026-04-18T09:05:05.999Z</time></trkpt><trkpt lat="44.63401981568574" lon="9.979948014866027"><ele>472.25</ele><time>2026-04-18T09:05:06.999Z</time></trkpt><trkpt lat="44.63394554573678" lon="9.980065574482266"><ele>472.0</ele><time>2026-04-18T09:05:07.999Z</time></trkpt><trkpt lat="44.63387108075898" lon="9.980182108713814"><ele>470.75</ele><time>2026-04-18T09:05:08.999Z</time></trkpt><trkpt lat="44.633791865482465" lon="9.980296605858255"><ele>469.5</ele><time>2026-04-18T09:05:09.998Z</time></trkpt><trkpt lat="44.63370815068162" lon="9.9804098999039"><ele>468.25</ele><time>2026-04-18T09:05:10.998Z</time></trkpt><trkpt lat="44.63362558109839" lon="9.980522329551626"><ele>467.0</ele><time>2026-04-18T09:05:11.998Z</time></trkpt><trkpt lat="44.63354327321823" lon="9.980634637612242"><ele>466.6</ele><time>2026-04-18T09:05:12.998Z</time></trkpt><trkpt lat="44.63346554611048" lon="9.980746870492618"><ele>466.20000000000005</ele><time>2026-04-18T09:05:13.998Z</time></trkpt><trkpt lat="44.63339145428588" lon="9.980856268517485"><ele>465.8</ele><time>2026-04-18T09:05:14.998Z</time></trkpt><trkpt lat="44.63332314799665" lon="9.980953321146037"><ele>465.4</ele><time>2026-04-18T09:05:15.998Z</time></trkpt><trkpt lat="44.63325556678571" lon="9.981045984161176"><ele>465.0</ele><time>2026-04-18T09:05:16.998Z</time></trkpt><trkpt lat="44.63319331412305" lon="9.981116684516255"><ele>465.8333333333333</ele><time>2026-04-18T09:05:17.998Z</time></trkpt><trkpt lat="44.633124615674866" lon="9.981190918343541"><ele>466.66666666666663</ele><time>2026-04-18T09:05:18.998Z</time></trkpt><trkpt lat="44.6330602458144" lon="9.981260474418235"><ele>467.5</ele><time>2026-04-18T09:05:19.998Z</time></trkpt><trkpt lat="44.63300059828676" lon="9.9813222777695"><ele>468.3333333333333</ele><time>2026-04-18T09:05:20.998Z</time></trkpt><trkpt lat="44.632940603676644" lon="9.98138330455533"><ele>469.16666666666663</ele><time>2026-04-18T09:05:21.998Z</time></trkpt><trkpt lat="44.632884027773045" lon="9.981439240641503"><ele>470.0</ele><time>2026-04-18T09:05:22.998Z</time></trkpt><trkpt lat="44.632827130616825" lon="9.981494142934627"><ele>469.8333333333333</ele><time>2026-04-18T09:05:23.998Z</time></trkpt><trkpt lat="44.63277314545527" lon="9.981546234997275"><ele>469.66666666666663</ele><time>2026-04-18T09:05:24.998Z</time></trkpt><trkpt lat="44.632672548639114" lon="9.981641477532834"><ele>469.5</ele><time>2026-04-18T09:05:26.998Z</time></trkpt><trkpt lat="44.632609093831704" lon="9.981693476977904"><ele>469.33333333333337</ele><time>2026-04-18T09:05:27.998Z</time></trkpt><trkpt lat="44.63254497337427" lon="9.981742258623006"><ele>469.1666666666667</ele><time>2026-04-18T09:05:28.998Z</time></trkpt><trkpt lat="44.632485036886976" lon="9.981786713992625"><ele>469.0</ele><time>2026-04-18T09:05:29.998Z</time></trkpt><trkpt lat="44.63242376206318" lon="9.98183193938836"><ele>469.0</ele><time>2026-04-18T09:05:30.998Z</time></trkpt><trkpt lat="44.63236462120492" lon="9.98189857382978"><ele>469.0</ele><time>2026-04-18T09:05:31.998Z</time></trkpt><trkpt lat="44.63229761867206" lon="9.981936583498678"><ele>469.0</ele><time>2026-04-18T09:05:32.998Z</time></trkpt><trkpt lat="44.632233950197225" lon="9.981978346665935"><ele>469.0</ele><time>2026-04-18T09:05:33.998Z</time></trkpt><trkpt lat="44.632172950235" lon="9.982017035851783"><ele>469.0</ele><time>2026-04-18T09:05:34.998Z</time></trkpt><trkpt lat="44.63210631739841" lon="9.98204519296229"><ele>469.0</ele><time>2026-04-18T09:05:35.998Z</time></trkpt><trkpt lat="44.63204020566909" lon="9.98205967353031"><ele>469.0</ele><time>2026-04-18T09:05:36.998Z</time></trkpt><trkpt lat="44.63196803339828" lon="9.982057879155866"><ele>469.2857142857143</ele><time>2026-04-18T09:05:37.998Z</time></trkpt><trkpt lat="44.63189439672605" lon="9.982057135359792"><ele>469.57142857142856</ele><time>2026-04-18T09:05:38.998Z</time></trkpt><trkpt lat="44.63182659240237" lon="9.98204866124523"><ele>469.8571428571429</ele><time>2026-04-18T09:05:39.998Z</time></trkpt><trkpt lat="44.63175406807809" lon="9.982037287796643"><ele>470.14285714285717</ele><time>2026-04-18T09:05:41Z</time></trkpt><trkpt lat="44.63168274711521" lon="9.98203204718447"><ele>470.42857142857144</ele><time>2026-04-18T09:05:42Z</time></trkpt><trkpt lat="44.631612959432594" lon="9.982033952308274"><ele>470.7142857142858</ele><time>2026-04-18T09:05:43Z</time></trkpt><trkpt lat="44.631546689206225" lon="9.98203162118124"><ele>471.00000000000006</ele><time>2026-04-18T09:05:44Z</time></trkpt><trkpt lat="44.63147975783524" lon="9.98202367375019"><ele>471.00000000000006</ele><time>2026-04-18T09:05:45Z</time></trkpt><trkpt lat="44.63141373819013" lon="9.982016522921683"><ele>471.0</ele><time>2026-04-18T09:05:46Z</time></trkpt><trkpt lat="44.631347933603664" lon="9.982011198116355"><ele>471.00000000000006</ele><time>2026-04-18T09:05:47Z</time></trkpt><trkpt lat="44.631277797552066" lon="9.98200494289935"><ele>471.00000000000006</ele><time>2026-04-18T09:05:48Z</time></trkpt><trkpt lat="44.63120963051885" lon="9.981997436445209"><ele>471.0</ele><time>2026-04-18T09:05:49Z</time></trkpt><trkpt lat="44.63114136295106" lon="9.981990275852526"><ele>471.00000000000006</ele><time>2026-04-18T09:05:50Z</time></trkpt><trkpt lat="44.631074268902175" lon="9.981988136122327"><ele>471.00000000000006</ele><time>2026-04-18T09:05:51Z</time></trkpt><trkpt lat="44.63100835735673" lon="9.981994617085892"><ele>471.4285714285715</ele><time>2026-04-18T09:05:52Z</time></trkpt><trkpt lat="44.63093981859471" lon="9.982005273780578"><ele>471.8571428571429</ele><time>2026-04-18T09:05:53Z</time></trkpt><trkpt lat="44.63087461471151" lon="9.982018696278185"><ele>472.2857142857143</ele><time>2026-04-18T09:05:54Z</time></trkpt><trkpt lat="44.630810772301096" lon="9.982043316489948"><ele>472.7142857142857</ele><time>2026-04-18T09:05:55Z</time></trkpt><trkpt lat="44.63075008198897" lon="9.982071284598273"><ele>473.1428571428571</ele><time>2026-04-18T09:05:56Z</time></trkpt><trkpt lat="44.630689813206665" lon="9.982108149575925"><ele>473.5714285714285</ele><time>2026-04-18T09:05:57Z</time></trkpt><trkpt lat="44.630628980374716" lon="9.982142453522378"><ele>473.99999999999994</ele><time>2026-04-18T09:05:58Z</time></trkpt><trkpt lat="44.63051033367621" lon="9.982220401722635"><ele>473.99999999999994</ele><time>2026-04-18T09:06:00Z</time></trkpt><trkpt lat="44.63044845515221" lon="9.982262542019539"><ele>474.0</ele><time>2026-04-18T09:06:01Z</time></trkpt><trkpt lat="44.63038592249177" lon="9.982311681474085"><ele>473.99999999999994</ele><time>2026-04-18T09:06:02Z</time></trkpt><trkpt lat="44.63032625305462" lon="9.982368284682508"><ele>473.99999999999994</ele><time>2026-04-18T09:06:03Z</time></trkpt><trkpt lat="44.63027018188265" lon="9.982438102042295"><ele>474.0</ele><time>2026-04-18T09:06:04Z</time></trkpt><trkpt lat="44.63021342855238" lon="9.98251215731111"><ele>473.99999999999994</ele><time>2026-04-18T09:06:05Z</time></trkpt><trkpt lat="44.63015381410269" lon="9.982590004032154"><ele>473.99999999999994</ele><time>2026-04-18T09:06:06Z</time></trkpt><trkpt lat="44.630092499301696" lon="9.982667853041619"><ele>473.6</ele><time>2026-04-18T09:06:07Z</time></trkpt><trkpt lat="44.630019910288006" lon="9.982743550839105"><ele>473.2</ele><time>2026-04-18T09:06:08Z</time></trkpt><trkpt lat="44.62994945120803" lon="9.982823229880486"><ele>472.80000000000007</ele><time>2026-04-18T09:06:09Z</time></trkpt><trkpt lat="44.629874136474406" lon="9.982904233886725"><ele>472.40000000000003</ele><time>2026-04-18T09:06:10Z</time></trkpt><trkpt lat="44.62979352502209" lon="9.982979259778823"><ele>472.0</ele><time>2026-04-18T09:06:11Z</time></trkpt><trkpt lat="44.629705520905304" lon="9.98304671568568"><ele>472.0</ele><time>2026-04-18T09:06:12Z</time></trkpt><trkpt lat="44.62961327671727" lon="9.983106407552812"><ele>472.00000000000006</ele><time>2026-04-18T09:06:13Z</time></trkpt><trkpt lat="44.629526020343874" lon="9.983159387435066"><ele>472.00000000000006</ele><time>2026-04-18T09:06:14Z</time></trkpt><trkpt lat="44.62943791416411" lon="9.983209074904456"><ele>472.0</ele><time>2026-04-18T09:06:15Z</time></trkpt><trkpt lat="44.62935883682016" lon="9.983258884424147"><ele>472.0</ele><time>2026-04-18T09:06:16Z</time></trkpt><trkpt lat="44.62928725413917" lon="9.983323485319366"><ele>473.1666666666667</ele><time>2026-04-18T09:06:17Z</time></trkpt><trkpt lat="44.62923548900378" lon="9.98341200121611"><ele>474.33333333333337</ele><time>2026-04-18T09:06:18Z</time></trkpt><trkpt lat="44.62919603058609" lon="9.983499838995709"><ele>475.5</ele><time>2026-04-18T09:06:19Z</time></trkpt><trkpt lat="44.629167184871385" lon="9.983590273327465"><ele>476.66666666666663</ele><time>2026-04-18T09:06:20Z</time></trkpt><trkpt lat="44.62914590481796" lon="9.983678370617795"><ele>477.8333333333333</ele><time>2026-04-18T09:06:20.999Z</time></trkpt><trkpt lat="44.62910620509257" lon="9.98384586937171"><ele>479.0</ele><time>2026-04-18T09:06:22.999Z</time></trkpt><trkpt lat="44.62907436049356" lon="9.984008581314427"><ele>479.0</ele><time>2026-04-18T09:06:24.999Z</time></trkpt><trkpt lat="44.62903126410029" lon="9.984155900107204"><ele>479.0</ele><time>2026-04-18T09:06:26.999Z</time></trkpt><trkpt lat="44.62897674042151" lon="9.984287767364695"><ele>479.0</ele><time>2026-04-18T09:06:28.999Z</time></trkpt><trkpt lat="44.62892770074286" lon="9.984392179794769"><ele>479.0</ele><time>2026-04-18T09:06:30.999Z</time></trkpt><trkpt lat="44.628884845270825" lon="9.984465921923839"><ele>479.0</ele><time>2026-04-18T09:06:32.999Z</time></trkpt><trkpt lat="44.628821091880354" lon="9.984514053197227"><ele>479.66666666666663</ele><time>2026-04-18T09:06:34.999Z</time></trkpt><trkpt lat="44.628745837153" lon="9.98449990843364"><ele>480.3333333333333</ele><time>2026-04-18T09:06:36.999Z</time></trkpt><trkpt lat="44.62866997280766" lon="9.984467856896952"><ele>481.0</ele><time>2026-04-18T09:06:38.999Z</time></trkpt><trkpt lat="44.62860201480696" lon="9.984422209755168"><ele>481.66666666666663</ele><time>2026-04-18T09:06:40.999Z</time></trkpt><trkpt lat="44.62852557052597" lon="9.984400671980493"><ele>482.3333333333333</ele><time>2026-04-18T09:06:42.999Z</time></trkpt><trkpt lat="44.62845999816988" lon="9.984376386782346"><ele>483.0</ele><time>2026-04-18T09:06:44.999Z</time></trkpt><trkpt lat="44.62837854985822" lon="9.98435482610476"><ele>486.4</ele><time>2026-04-18T09:06:46.999Z</time></trkpt><trkpt lat="44.62829232326755" lon="9.98434272303513"><ele>489.79999999999995</ele><time>2026-04-18T09:06:48.999Z</time></trkpt><trkpt lat="44.628195018903924" lon="9.98433375445591"><ele>493.2</ele><time>2026-04-18T09:06:50.999Z</time></trkpt><trkpt lat="44.6280784650064" lon="9.984297400731094"><ele>496.6</ele><time>2026-04-18T09:06:52.999Z</time></trkpt><trkpt lat="44.628009156490464" lon="9.984269937498864"><ele>500.0</ele><time>2026-04-18T09:06:53.999Z</time></trkpt><trkpt lat="44.62793448343042" lon="9.984241839614915"><ele>499.99999999999994</ele><time>2026-04-18T09:06:54.999Z</time></trkpt><trkpt lat="44.627855915761046" lon="9.984210370882709"><ele>500.0</ele><time>2026-04-18T09:06:55.999Z</time></trkpt><trkpt lat="44.62777845798338" lon="9.984202492884299"><ele>500.0</ele><time>2026-04-18T09:06:56.999Z</time></trkpt><trkpt lat="44.62770059468402" lon="9.98420271748763"><ele>500.0</ele><time>2026-04-18T09:06:57.999Z</time></trkpt><trkpt lat="44.62761942950626" lon="9.984198598492217"><ele>499.99999999999994</ele><time>2026-04-18T09:06:58.999Z</time></trkpt><trkpt lat="44.6275450006704" lon="9.984225870661977"><ele>500.0</ele><time>2026-04-18T09:06:59.999Z</time></trkpt><trkpt lat="44.627480022503164" lon="9.984304208620715"><ele>498.6</ele><time>2026-04-18T09:07:00.999Z</time></trkpt><trkpt lat="44.627431580748734" lon="9.98442209864543"><ele>497.2</ele><time>2026-04-18T09:07:01.999Z</time></trkpt><trkpt lat="44.62739102796949" lon="9.98454748208154"><ele>495.79999999999995</ele><time>2026-04-18T09:07:02.999Z</time></trkpt><trkpt lat="44.62734053265604" lon="9.984668804345276"><ele>494.4</ele><time>2026-04-18T09:07:03.999Z</time></trkpt><trkpt lat="44.62727766975573" lon="9.984784226523507"><ele>493.0</ele><time>2026-04-18T09:07:04.999Z</time></trkpt><trkpt lat="44.62720472089918" lon="9.98489447217223"><ele>493.0</ele><time>2026-04-18T09:07:05.999Z</time></trkpt><trkpt lat="44.6271258244045" lon="9.984982942325093"><ele>492.99999999999994</ele><time>2026-04-18T09:07:06.999Z</time></trkpt><trkpt lat="44.62703034325237" lon="9.985041139953658"><ele>492.99999999999994</ele><time>2026-04-18T09:07:07.999Z</time></trkpt><trkpt lat="44.62693062319537" lon="9.985067309202561"><ele>493.0</ele><time>2026-04-18T09:07:08.999Z</time></trkpt><trkpt lat="44.626828077037715" lon="9.985068947549545"><ele>493.0</ele><time>2026-04-18T09:07:09.999Z</time></trkpt><trkpt lat="44.62673094470056" lon="9.985059817436364"><ele>494.0</ele><time>2026-04-18T09:07:10.999Z</time></trkpt><trkpt lat="44.62663372248674" lon="9.985040180770088"><ele>494.99999999999994</ele><time>2026-04-18T09:07:11.999Z</time></trkpt><trkpt lat="44.626543939401216" lon="9.985020983532017"><ele>495.99999999999994</ele><time>2026-04-18T09:07:12.999Z</time></trkpt><trkpt lat="44.62645897604067" lon="9.984970132277285"><ele>497.0</ele><time>2026-04-18T09:07:13.998Z</time></trkpt><trkpt lat="44.62639231627175" lon="9.984879033197048"><ele>498.0</ele><time>2026-04-18T09:07:14.998Z</time></trkpt><trkpt lat="44.6263479468573" lon="9.984776793261934"><ele>496.1428571428571</ele><time>2026-04-18T09:07:15.998Z</time></trkpt><trkpt lat="44.62628954789999" lon="9.984699504244299"><ele>494.2857142857142</ele><time>2026-04-18T09:07:16.998Z</time></trkpt><trkpt lat="44.62622222803255" lon="9.984663502565958"><ele>492.42857142857144</ele><time>2026-04-18T09:07:17.998Z</time></trkpt><trkpt lat="44.626151539256334" lon="9.984670625051725"><ele>490.57142857142856</ele><time>2026-04-18T09:07:18.998Z</time></trkpt><trkpt lat="44.626088414544895" lon="9.984718133012414"><ele>488.7142857142857</ele><time>2026-04-18T09:07:19.998Z</time></trkpt><trkpt lat="44.62602410133855" lon="9.98477013077295"><ele>486.8571428571429</ele><time>2026-04-18T09:07:20.998Z</time></trkpt><trkpt lat="44.62595483148364" lon="9.984824537998506"><ele>485.00000000000006</ele><time>2026-04-18T09:07:21.998Z</time></trkpt><trkpt lat="44.62583731825881" lon="9.984771117004843"><ele>484.99999999999994</ele><time>2026-04-18T09:07:22.998Z</time></trkpt><trkpt lat="44.62576663893365" lon="9.984831322397534"><ele>485.0</ele><time>2026-04-18T09:07:23.998Z</time></trkpt><trkpt lat="44.62569514334577" lon="9.98489222309072"><ele>485.0</ele><time>2026-04-18T09:07:24.998Z</time></trkpt><trkpt lat="44.62562188959107" lon="9.984956269417841"><ele>485.0</ele><time>2026-04-18T09:07:25.998Z</time></trkpt><trkpt lat="44.62554905378629" lon="9.985020182433228"><ele>484.99999999999994</ele><time>2026-04-18T09:07:26.998Z</time></trkpt><trkpt lat="44.62547258643177" lon="9.985088429571627"><ele>485.0</ele><time>2026-04-18T09:07:27.998Z</time></trkpt><trkpt lat="44.62539712603992" lon="9.985157281614594"><ele>483.0</ele><time>2026-04-18T09:07:28.998Z</time></trkpt><trkpt lat="44.62531725256006" lon="9.985230938239841"><ele>481.0</ele><time>2026-04-18T09:07:29.998Z</time></trkpt><trkpt lat="44.62523918973639" lon="9.985305375197417"><ele>479.0</ele><time>2026-04-18T09:07:30.998Z</time></trkpt><trkpt lat="44.625151629716214" lon="9.98540101029224"><ele>477.0</ele><time>2026-04-18T09:07:31.998Z</time></trkpt><trkpt lat="44.625069961310416" lon="9.985510523079498"><ele>475.0</ele><time>2026-04-18T09:07:32.998Z</time></trkpt><trkpt lat="44.624993011807405" lon="9.985616979984687"><ele>475.0</ele><time>2026-04-18T09:07:33.998Z</time></trkpt><trkpt lat="44.624920663111894" lon="9.985709709872093"><ele>475.0</ele><time>2026-04-18T09:07:34.998Z</time></trkpt><trkpt lat="44.62483935524293" lon="9.98579575249571"><ele>475.0</ele><time>2026-04-18T09:07:35.998Z</time></trkpt><trkpt lat="44.62474406486217" lon="9.985881149418798"><ele>475.0</ele><time>2026-04-18T09:07:36.998Z</time></trkpt><trkpt lat="44.62464930259509" lon="9.9859637841307"><ele>475.0</ele><time>2026-04-18T09:07:37.998Z</time></trkpt><trkpt lat="44.624558171350195" lon="9.986043252474348"><ele>473.0</ele><time>2026-04-18T09:07:38.998Z</time></trkpt><trkpt lat="44.62447534335188" lon="9.986115480264473"><ele>471.0</ele><time>2026-04-18T09:07:39.998Z</time></trkpt><trkpt lat="44.62440067968373" lon="9.98618336684391"><ele>469.0</ele><time>2026-04-18T09:07:40.998Z</time></trkpt><trkpt lat="44.62430716516778" lon="9.9862831925869"><ele>467.0</ele><time>2026-04-18T09:07:41.998Z</time></trkpt><trkpt lat="44.62423856158902" lon="9.9864178605195"><ele>465.0</ele><time>2026-04-18T09:07:42.998Z</time></trkpt><trkpt lat="44.62420158561316" lon="9.986569867161863"><ele>466.6</ele><time>2026-04-18T09:07:43.998Z</time></trkpt><trkpt lat="44.624146861793825" lon="9.986691180229277"><ele>468.2</ele><time>2026-04-18T09:07:44.998Z</time></trkpt><trkpt lat="44.624089886582425" lon="9.986808986121531"><ele>469.79999999999995</ele><time>2026-04-18T09:07:45.998Z</time></trkpt><trkpt lat="44.62402920042722" lon="9.986934505304381"><ele>471.4</ele><time>2026-04-18T09:07:47Z</time></trkpt><trkpt lat="44.62397200075282" lon="9.987048934328675"><ele>473.0</ele><time>2026-04-18T09:07:48Z</time></trkpt><trkpt lat="44.623915036795395" lon="9.987156205759241"><ele>472.99999999999994</ele><time>2026-04-18T09:07:49Z</time></trkpt><trkpt lat="44.62385646595937" lon="9.987263427722693"><ele>473.0</ele><time>2026-04-18T09:07:50Z</time></trkpt><trkpt lat="44.62379927049219" lon="9.9873574465806"><ele>473.0</ele><time>2026-04-18T09:07:51Z</time></trkpt><trkpt lat="44.623741221233715" lon="9.987430144096487"><ele>473.0</ele><time>2026-04-18T09:07:52Z</time></trkpt><trkpt lat="44.62367015847555" lon="9.987499626679671"><ele>472.99999999999994</ele><time>2026-04-18T09:07:53Z</time></trkpt><trkpt lat="44.62358872643784" lon="9.987550495322676"><ele>473.0</ele><time>2026-04-18T09:07:54Z</time></trkpt><trkpt lat="44.623494758983" lon="9.987592818269531"><ele>469.75</ele><time>2026-04-18T09:07:55Z</time></trkpt><trkpt lat="44.62338553189692" lon="9.987648508041184"><ele>466.5</ele><time>2026-04-18T09:07:56Z</time></trkpt><trkpt lat="44.62327700186945" lon="9.98773344786189"><ele>463.25</ele><time>2026-04-18T09:07:57Z</time></trkpt><trkpt lat="44.62319055855604" lon="9.987832995746162"><ele>460.0</ele><time>2026-04-18T09:07:58Z</time></trkpt><trkpt lat="44.62310736437948" lon="9.987928888319626"><ele>460.0</ele><time>2026-04-18T09:07:59Z</time></trkpt><trkpt lat="44.62302637376597" lon="9.988016217050067"><ele>460.0</ele><time>2026-04-18T09:08:00Z</time></trkpt><trkpt lat="44.62294463209956" lon="9.988076204246088"><ele>460.0</ele><time>2026-04-18T09:08:01Z</time></trkpt><trkpt lat="44.622847582905635" lon="9.988113018269877"><ele>460.0</ele><time>2026-04-18T09:08:02Z</time></trkpt><trkpt lat="44.62274268263847" lon="9.988128503746386"><ele>460.0</ele><time>2026-04-18T09:08:03Z</time></trkpt><trkpt lat="44.62263549137302" lon="9.988134289568977"><ele>458.4</ele><time>2026-04-18T09:08:04Z</time></trkpt><trkpt lat="44.622540496823795" lon="9.988112405567563"><ele>456.8</ele><time>2026-04-18T09:08:05Z</time></trkpt><trkpt lat="44.62246080921999" lon="9.988014936909321"><ele>455.20000000000005</ele><time>2026-04-18T09:08:06Z</time></trkpt><trkpt lat="44.62238475186658" lon="9.987907840683997"><ele>453.6</ele><time>2026-04-18T09:08:07Z</time></trkpt><trkpt lat="44.62229383898908" lon="9.98782098564575"><ele>452.0</ele><time>2026-04-18T09:08:08Z</time></trkpt><trkpt lat="44.62219782285671" lon="9.987743937005424"><ele>452.0</ele><time>2026-04-18T09:08:09Z</time></trkpt><trkpt lat="44.62210161610565" lon="9.987662877960467"><ele>452.00000000000006</ele><time>2026-04-18T09:08:10Z</time></trkpt><trkpt lat="44.622005915855496" lon="9.987581298533613"><ele>452.00000000000006</ele><time>2026-04-18T09:08:11Z</time></trkpt><trkpt lat="44.621910378445754" lon="9.987498764244455"><ele>452.0</ele><time>2026-04-18T09:08:12Z</time></trkpt><trkpt lat="44.621812726060845" lon="9.987420814405326"><ele>452.0</ele><time>2026-04-18T09:08:13Z</time></trkpt><trkpt lat="44.62170937130825" lon="9.987362859820458"><ele>449.8</ele><time>2026-04-18T09:08:14Z</time></trkpt><trkpt lat="44.62162046960196" lon="9.987300103987911"><ele>447.6</ele><time>2026-04-18T09:08:15Z</time></trkpt><trkpt lat="44.621543678281874" lon="9.987266087432742"><ele>445.40000000000003</ele><time>2026-04-18T09:08:16Z</time></trkpt><trkpt lat="44.62147559934643" lon="9.987241143561379"><ele>443.20000000000005</ele><time>2026-04-18T09:08:17Z</time></trkpt><trkpt lat="44.621362652458515" lon="9.98719193274847"><ele>441.0</ele><time>2026-04-18T09:08:19Z</time></trkpt><trkpt lat="44.621357887086695" lon="9.987040992354972"><ele>441.0</ele><time>2026-04-18T09:08:20Z</time></trkpt><trkpt lat="44.62154754395691" lon="9.987065602511978"><ele>441.0</ele><time>2026-04-18T09:08:21Z</time></trkpt><trkpt lat="44.6216248126465" lon="9.987096304766215"><ele>441.0</ele><time>2026-04-18T09:08:22Z</time></trkpt><trkpt lat="44.62170133497076" lon="9.987117106374797"><ele>441.0</ele><time>2026-04-18T09:08:23Z</time></trkpt><trkpt lat="44.62178413508928" lon="9.987136210774768"><ele>441.0</ele><time>2026-04-18T09:08:24Z</time></trkpt><trkpt lat="44.621876583319036" lon="9.98715342658827"><ele>441.0</ele><time>2026-04-18T09:08:24.999Z</time></trkpt><trkpt lat="44.62197114420755" lon="9.987164106623966"><ele>441.0</ele><time>2026-04-18T09:08:25.999Z</time></trkpt><trkpt lat="44.62207367726073" lon="9.987185124210662"><ele>441.0</ele><time>2026-04-18T09:08:26.999Z</time></trkpt><trkpt lat="44.62217831495285" lon="9.987197834694328"><ele>441.0</ele><time>2026-04-18T09:08:27.999Z</time></trkpt><trkpt lat="44.62228270448343" lon="9.987172241126336"><ele>441.0</ele><time>2026-04-18T09:08:28.999Z</time></trkpt><trkpt lat="44.62237556207292" lon="9.987120373484881"><ele>440.8</ele><time>2026-04-18T09:08:29.999Z</time></trkpt><trkpt lat="44.62245588506582" lon="9.987034075975814"><ele>440.6</ele><time>2026-04-18T09:08:30.999Z</time></trkpt><trkpt lat="44.622500672794764" lon="9.986912972914357"><ele>440.4</ele><time>2026-04-18T09:08:31.999Z</time></trkpt><trkpt lat="44.62254622455096" lon="9.986780656305497"><ele>440.2</ele><time>2026-04-18T09:08:32.999Z</time></trkpt><trkpt lat="44.62257086992912" lon="9.986638195899248"><ele>440.0</ele><time>2026-04-18T09:08:33.999Z</time></trkpt><trkpt lat="44.62257047727505" lon="9.986490338652835"><ele>436.0</ele><time>2026-04-18T09:08:34.999Z</time></trkpt><trkpt lat="44.62256886139813" lon="9.98633015898057"><ele>432.0</ele><time>2026-04-18T09:08:35.999Z</time></trkpt><trkpt lat="44.62256142798444" lon="9.986161767031108"><ele>428.0</ele><time>2026-04-18T09:08:36.999Z</time></trkpt><trkpt lat="44.62255308699856" lon="9.986000475341042"><ele>424.0</ele><time>2026-04-18T09:08:37.999Z</time></trkpt><trkpt lat="44.6225435683061" lon="9.985838369914616"><ele>423.25</ele><time>2026-04-18T09:08:38.999Z</time></trkpt><trkpt lat="44.62253501457526" lon="9.985672052090665"><ele>422.5</ele><time>2026-04-18T09:08:39.999Z</time></trkpt><trkpt lat="44.62253109381661" lon="9.985500186318054"><ele>421.75</ele><time>2026-04-18T09:08:40.999Z</time></trkpt><trkpt lat="44.62255886887124" lon="9.985312801683543"><ele>421.0</ele><time>2026-04-18T09:08:41.999Z</time></trkpt><trkpt lat="44.62262623412711" lon="9.985146258733806"><ele>421.0</ele><time>2026-04-18T09:08:42.999Z</time></trkpt><trkpt lat="44.6226917758688" lon="9.98501265950923"><ele>421.0</ele><time>2026-04-18T09:08:43.999Z</time></trkpt><trkpt lat="44.62275596075226" lon="9.98488361747192"><ele>421.0</ele><time>2026-04-18T09:08:44.999Z</time></trkpt><trkpt lat="44.62282235333413" lon="9.984755569319146"><ele>421.0</ele><time>2026-04-18T09:08:45.999Z</time></trkpt><trkpt lat="44.622882150285264" lon="9.98462665667204"><ele>422.0</ele><time>2026-04-18T09:08:46.999Z</time></trkpt><trkpt lat="44.62292784899887" lon="9.984483897152035"><ele>423.0</ele><time>2026-04-18T09:08:47.999Z</time></trkpt><trkpt lat="44.622952987968716" lon="9.984326733948912"><ele>424.0</ele><time>2026-04-18T09:08:48.999Z</time></trkpt><trkpt lat="44.62295209383162" lon="9.984168081339087"><ele>425.0</ele><time>2026-04-18T09:08:49.999Z</time></trkpt><trkpt lat="44.62293606231914" lon="9.984010781033849"><ele>425.0</ele><time>2026-04-18T09:08:50.999Z</time></trkpt><trkpt lat="44.62292149635421" lon="9.983847706820962"><ele>425.0</ele><time>2026-04-18T09:08:51.999Z</time></trkpt><trkpt lat="44.62290760042541" lon="9.98369213405814"><ele>425.0</ele><time>2026-04-18T09:08:52.999Z</time></trkpt><trkpt lat="44.62289397211122" lon="9.983530539819759"><ele>425.0</ele><time>2026-04-18T09:08:53.999Z</time></trkpt><trkpt lat="44.622881543566045" lon="9.983370630770779"><ele>424.5</ele><time>2026-04-18T09:08:54.999Z</time></trkpt><trkpt lat="44.622869307644244" lon="9.983213199889857"><ele>424.0</ele><time>2026-04-18T09:08:55.999Z</time></trkpt><trkpt lat="44.62287352790031" lon="9.9830494286444"><ele>423.5</ele><time>2026-04-18T09:08:56.999Z</time></trkpt><trkpt lat="44.6228546835609" lon="9.982890267663398"><ele>423.0</ele><time>2026-04-18T09:08:57.999Z</time></trkpt><trkpt lat="44.62287999034308" lon="9.982722308547102"><ele>423.0</ele><time>2026-04-18T09:08:58.999Z</time></trkpt><trkpt lat="44.6229270533276" lon="9.982565585010025"><ele>423.0</ele><time>2026-04-18T09:08:59.999Z</time></trkpt><trkpt lat="44.62299734983495" lon="9.982420055349094"><ele>423.0</ele><time>2026-04-18T09:09:00.999Z</time></trkpt><trkpt lat="44.6230417478734" lon="9.982256164090373"><ele>423.0</ele><time>2026-04-18T09:09:01.999Z</time></trkpt><trkpt lat="44.623105015834255" lon="9.982097595133773"><ele>422.75</ele><time>2026-04-18T09:09:02.999Z</time></trkpt><trkpt lat="44.62318299830404" lon="9.98195619046328"><ele>422.5</ele><time>2026-04-18T09:09:03.999Z</time></trkpt><trkpt lat="44.62324317580825" lon="9.981801327676076"><ele>422.25</ele><time>2026-04-18T09:09:04.999Z</time></trkpt><trkpt lat="44.623305796093724" lon="9.981647273489404"><ele>422.0</ele><time>2026-04-18T09:09:05.999Z</time></trkpt><trkpt lat="44.623363924014534" lon="9.981489895467888"><ele>420.25</ele><time>2026-04-18T09:09:06.999Z</time></trkpt><trkpt lat="44.62341716814373" lon="9.981341430124973"><ele>418.5</ele><time>2026-04-18T09:09:07.999Z</time></trkpt><trkpt lat="44.623476356704195" lon="9.981191985813862"><ele>416.75</ele><time>2026-04-18T09:09:08.999Z</time></trkpt><trkpt lat="44.623537466741475" lon="9.981046038796466"><ele>415.0</ele><time>2026-04-18T09:09:09.999Z</time></trkpt><trkpt lat="44.623590123229484" lon="9.98090439292244"><ele>415.2</ele><time>2026-04-18T09:09:10.999Z</time></trkpt><trkpt lat="44.62365602555912" lon="9.980772816402236"><ele>415.4</ele><time>2026-04-18T09:09:11.999Z</time></trkpt><trkpt lat="44.623718485576035" lon="9.980644298353019"><ele>415.6</ele><time>2026-04-18T09:09:12.999Z</time></trkpt><trkpt lat="44.62377480818498" lon="9.980509297445916"><ele>415.8</ele><time>2026-04-18T09:09:13.999Z</time></trkpt><trkpt lat="44.62381148324019" lon="9.980360823499241"><ele>416.0</ele><time>2026-04-18T09:09:14.999Z</time></trkpt><trkpt lat="44.623816841831356" lon="9.98020162636087"><ele>416.0</ele><time>2026-04-18T09:09:15.999Z</time></trkpt><trkpt lat="44.623827048680305" lon="9.980048231405224"><ele>416.0</ele><time>2026-04-18T09:09:16.999Z</time></trkpt><trkpt lat="44.62384105803096" lon="9.979892390948661"><ele>416.0</ele><time>2026-04-18T09:09:17.999Z</time></trkpt><trkpt lat="44.623813301579254" lon="9.979746363296552"><ele>416.0</ele><time>2026-04-18T09:09:18.998Z</time></trkpt><trkpt lat="44.6238027750725" lon="9.979606195169419"><ele>416.0</ele><time>2026-04-18T09:09:19.998Z</time></trkpt><trkpt lat="44.62380642954984" lon="9.979473758471867"><ele>413.4</ele><time>2026-04-18T09:09:20.998Z</time></trkpt><trkpt lat="44.62385954255868" lon="9.979368561845561"><ele>410.8</ele><time>2026-04-18T09:09:21.998Z</time></trkpt><trkpt lat="44.62394523938427" lon="9.97931902773711"><ele>408.2</ele><time>2026-04-18T09:09:22.998Z</time></trkpt><trkpt lat="44.62402880197111" lon="9.97929373064528"><ele>405.59999999999997</ele><time>2026-04-18T09:09:23.998Z</time></trkpt><trkpt lat="44.62411863977225" lon="9.979288331401694"><ele>403.0</ele><time>2026-04-18T09:09:24.998Z</time></trkpt><trkpt lat="44.624208384776026" lon="9.9792641079048"><ele>403.0</ele><time>2026-04-18T09:09:25.998Z</time></trkpt><trkpt lat="44.62429991710718" lon="9.979212922984038"><ele>403.0</ele><time>2026-04-18T09:09:26.998Z</time></trkpt><trkpt lat="44.62438494432865" lon="9.979144627537778"><ele>403.0</ele><time>2026-04-18T09:09:27.998Z</time></trkpt><trkpt lat="44.62448197612442" lon="9.979107456661204"><ele>403.0</ele><time>2026-04-18T09:09:28.998Z</time></trkpt><trkpt lat="44.624577362056684" lon="9.979044644410664"><ele>403.0</ele><time>2026-04-18T09:09:29.998Z</time></trkpt><trkpt lat="44.624654266562594" lon="9.97900473974764"><ele>399.33333333333337</ele><time>2026-04-18T09:09:30.998Z</time></trkpt><trkpt lat="44.62470744347816" lon="9.97894321129529"><ele>395.6666666666667</ele><time>2026-04-18T09:09:31.998Z</time></trkpt><trkpt lat="44.624738293586006" lon="9.978848826189093"><ele>392.0</ele><time>2026-04-18T09:09:32.998Z</time></trkpt><trkpt lat="44.6247372043517" lon="9.978750042933545"><ele>388.33333333333337</ele><time>2026-04-18T09:09:33.998Z</time></trkpt><trkpt lat="44.62469144856244" lon="9.978663979307964"><ele>384.6666666666667</ele><time>2026-04-18T09:09:34.998Z</time></trkpt><trkpt lat="44.62461170414121" lon="9.978620516125487"><ele>381.0</ele><time>2026-04-18T09:09:35.998Z</time></trkpt><trkpt lat="44.624523726677374" lon="9.978631521196967"><ele>381.8</ele><time>2026-04-18T09:09:36.998Z</time></trkpt><trkpt lat="44.62442357441181" lon="9.978641079633874"><ele>382.6</ele><time>2026-04-18T09:09:37.998Z</time></trkpt><trkpt lat="44.62433528269915" lon="9.978690126945688"><ele>383.4</ele><time>2026-04-18T09:09:38.998Z</time></trkpt><trkpt lat="44.62424645878443" lon="9.978755081918179"><ele>384.2</ele><time>2026-04-18T09:09:39.998Z</time></trkpt><trkpt lat="44.62416439259195" lon="9.978818285961646"><ele>385.0</ele><time>2026-04-18T09:09:40.998Z</time></trkpt><trkpt lat="44.62408072616259" lon="9.978875895407382"><ele>385.00000000000006</ele><time>2026-04-18T09:09:41.998Z</time></trkpt><trkpt lat="44.623988878413144" lon="9.978915606383454"><ele>385.0</ele><time>2026-04-18T09:09:42.998Z</time></trkpt><trkpt lat="44.62389082854473" lon="9.978948714157971"><ele>385.0</ele><time>2026-04-18T09:09:43.998Z</time></trkpt><trkpt lat="44.623801877268015" lon="9.97897446428141"><ele>385.0</ele><time>2026-04-18T09:09:44.998Z</time></trkpt><trkpt lat="44.62373058891196" lon="9.978998408171512"><ele>385.00000000000006</ele><time>2026-04-18T09:09:45.998Z</time></trkpt><trkpt lat="44.623662210667064" lon="9.979018321796227"><ele>385.0</ele><time>2026-04-18T09:09:46.998Z</time></trkpt><trkpt lat="44.62359401748028" lon="9.979030465765305"><ele>385.33333333333337</ele><time>2026-04-18T09:09:47.998Z</time></trkpt><trkpt lat="44.62352867306385" lon="9.979060112700534"><ele>385.6666666666667</ele><time>2026-04-18T09:09:48.998Z</time></trkpt><trkpt lat="44.62340328744963" lon="9.979141041212497"><ele>386.0</ele><time>2026-04-18T09:09:50.998Z</time></trkpt><trkpt lat="44.62334406143656" lon="9.979212094980028"><ele>386.33333333333337</ele><time>2026-04-18T09:09:51.998Z</time></trkpt><trkpt lat="44.623278185474675" lon="9.979262097712715"><ele>386.6666666666667</ele><time>2026-04-18T09:09:53Z</time></trkpt><trkpt lat="44.623201706835566" lon="9.979306496622195"><ele>387.0</ele><time>2026-04-18T09:09:54Z</time></trkpt><trkpt lat="44.623119322661445" lon="9.979345482135239"><ele>387.0</ele><time>2026-04-18T09:09:55Z</time></trkpt><trkpt lat="44.623028945600595" lon="9.979376475607793"><ele>387.0</ele><time>2026-04-18T09:09:56Z</time></trkpt><trkpt lat="44.62293896867881" lon="9.979417847782493"><ele>387.0</ele><time>2026-04-18T09:09:57Z</time></trkpt><trkpt lat="44.622842157663534" lon="9.979455376686916"><ele>387.0</ele><time>2026-04-18T09:09:58Z</time></trkpt><trkpt lat="44.622760561816754" lon="9.97954858811476"><ele>387.0</ele><time>2026-04-18T09:09:59Z</time></trkpt><trkpt lat="44.62268710262731" lon="9.979659950163535"><ele>384.0</ele><time>2026-04-18T09:10:00Z</time></trkpt><trkpt lat="44.62262069234205" lon="9.979769635204836"><ele>381.0</ele><time>2026-04-18T09:10:01Z</time></trkpt><trkpt lat="44.62256167513264" lon="9.979891512652406"><ele>378.0</ele><time>2026-04-18T09:10:02Z</time></trkpt><trkpt lat="44.622518391539636" lon="9.980035239143893"><ele>375.0</ele><time>2026-04-18T09:10:03Z</time></trkpt><trkpt lat="44.62250975294841" lon="9.9802056868219"><ele>372.0</ele><time>2026-04-18T09:10:04Z</time></trkpt><trkpt lat="44.62250770758277" lon="9.980340536164517"><ele>372.0</ele><time>2026-04-18T09:10:05Z</time></trkpt><trkpt lat="44.62249911050362" lon="9.980471968398417"><ele>372.0</ele><time>2026-04-18T09:10:06Z</time></trkpt><trkpt lat="44.62246845776389" lon="9.980584346394314"><ele>372.0</ele><time>2026-04-18T09:10:07Z</time></trkpt><trkpt lat="44.622413472953234" lon="9.98066569367713"><ele>372.0</ele><time>2026-04-18T09:10:08Z</time></trkpt><trkpt lat="44.622336239679825" lon="9.98072519752349"><ele>372.0</ele><time>2026-04-18T09:10:09Z</time></trkpt><trkpt lat="44.62224725755194" lon="9.980755552776756"><ele>372.0</ele><time>2026-04-18T09:10:10Z</time></trkpt><trkpt lat="44.62215774220865" lon="9.980694440795201"><ele>372.0</ele><time>2026-04-18T09:10:11Z</time></trkpt><trkpt lat="44.62208551261688" lon="9.98060370935621"><ele>372.0</ele><time>2026-04-18T09:10:12Z</time></trkpt><trkpt lat="44.622021369651634" lon="9.980506595474447"><ele>372.0</ele><time>2026-04-18T09:10:13Z</time></trkpt><trkpt lat="44.62195686051228" lon="9.98040794864952"><ele>372.0</ele><time>2026-04-18T09:10:14Z</time></trkpt><trkpt lat="44.62189257961335" lon="9.980309821478473"><ele>372.0</ele><time>2026-04-18T09:10:15Z</time></trkpt><trkpt lat="44.621822304319934" lon="9.980210267787907"><ele>369.40000000000003</ele><time>2026-04-18T09:10:16Z</time></trkpt><trkpt lat="44.621743435145866" lon="9.98011898253944"><ele>366.8</ele><time>2026-04-18T09:10:17Z</time></trkpt><trkpt lat="44.621663497194646" lon="9.980034495798023"><ele>364.2</ele><time>2026-04-18T09:10:18Z</time></trkpt><trkpt lat="44.62158626014332" lon="9.979949777266222"><ele>361.6</ele><time>2026-04-18T09:10:19Z</time></trkpt><trkpt lat="44.62150649543678" lon="9.979864333152376"><ele>359.0</ele><time>2026-04-18T09:10:20Z</time></trkpt><trkpt lat="44.62142022476423" lon="9.97979379570545"><ele>358.0</ele><time>2026-04-18T09:10:21Z</time></trkpt><trkpt lat="44.621323749852785" lon="9.979760207195893"><ele>357.0</ele><time>2026-04-18T09:10:22Z</time></trkpt><trkpt lat="44.62122447204065" lon="9.9797500548268"><ele>356.0</ele><time>2026-04-18T09:10:23Z</time></trkpt><trkpt lat="44.621122392383825" lon="9.979729672853809"><ele>355.0</ele><time>2026-04-18T09:10:24Z</time></trkpt><trkpt lat="44.621028393382076" lon="9.979719567352621"><ele>354.0</ele><time>2026-04-18T09:10:25Z</time></trkpt><trkpt lat="44.62093988230621" lon="9.979696708683385"><ele>354.0</ele><time>2026-04-18T09:10:26Z</time></trkpt><trkpt lat="44.620838439056435" lon="9.979724204576415"><ele>354.0</ele><time>2026-04-18T09:10:27Z</time></trkpt><trkpt lat="44.62073175429175" lon="9.979832601844416"><ele>354.0</ele><time>2026-04-18T09:10:28Z</time></trkpt><trkpt lat="44.62066487359239" lon="9.979987086296122"><ele>354.0</ele><time>2026-04-18T09:10:28.999Z</time></trkpt><trkpt lat="44.62060880806368" lon="9.9801195339985"><ele>354.0</ele><time>2026-04-18T09:10:29.999Z</time></trkpt><trkpt lat="44.620549464504975" lon="9.98023231575142"><ele>354.0</ele><time>2026-04-18T09:10:30.999Z</time></trkpt><trkpt lat="44.62046777986222" lon="9.980320833087003"><ele>354.0</ele><time>2026-04-18T09:10:31.999Z</time></trkpt><trkpt lat="44.62037128235377" lon="9.980426567268335"><ele>354.0</ele><time>2026-04-18T09:10:32.999Z</time></trkpt><trkpt lat="44.62029015414634" lon="9.980554893615842"><ele>354.0</ele><time>2026-04-18T09:10:33.999Z</time></trkpt><trkpt lat="44.620224357380394" lon="9.98068265424952"><ele>354.2</ele><time>2026-04-18T09:10:34.999Z</time></trkpt><trkpt lat="44.62017018332992" lon="9.98078625413545"><ele>354.4</ele><time>2026-04-18T09:10:35.999Z</time></trkpt><trkpt lat="44.62010563483778" lon="9.980866104597322"><ele>354.6</ele><time>2026-04-18T09:10:36.999Z</time></trkpt><trkpt lat="44.62001370810119" lon="9.98091425330748"><ele>354.8</ele><time>2026-04-18T09:10:37.999Z</time></trkpt><trkpt lat="44.61991113623128" lon="9.980931696718864"><ele>355.0</ele><time>2026-04-18T09:10:38.999Z</time></trkpt><trkpt lat="44.61980612394431" lon="9.980944329196968"><ele>355.0</ele><time>2026-04-18T09:10:39.999Z</time></trkpt><trkpt lat="44.619696488399306" lon="9.98097084846845"><ele>355.0</ele><time>2026-04-18T09:10:40.999Z</time></trkpt><trkpt lat="44.61957953252689" lon="9.98102302170606"><ele>355.0</ele><time>2026-04-18T09:10:41.999Z</time></trkpt><trkpt lat="44.61947598774598" lon="9.981093446180267"><ele>355.0</ele><time>2026-04-18T09:10:42.999Z</time></trkpt><trkpt lat="44.619380483530314" lon="9.981194490374724"><ele>351.75</ele><time>2026-04-18T09:10:43.999Z</time></trkpt><trkpt lat="44.61929096223262" lon="9.981301684522649"><ele>348.5</ele><time>2026-04-18T09:10:44.999Z</time></trkpt><trkpt lat="44.61920757117226" lon="9.981410311298792"><ele>345.25</ele><time>2026-04-18T09:10:45.999Z</time></trkpt><trkpt lat="44.619123369219366" lon="9.981520871324367"><ele>342.0</ele><time>2026-04-18T09:10:46.999Z</time></trkpt><trkpt lat="44.61903894028728" lon="9.981629900676062"><ele>344.5</ele><time>2026-04-18T09:10:47.999Z</time></trkpt><trkpt lat="44.61895321169238" lon="9.981738839349077"><ele>347.0</ele><time>2026-04-18T09:10:48.999Z</time></trkpt><trkpt lat="44.618862434332996" lon="9.981842998365623"><ele>349.5</ele><time>2026-04-18T09:10:49.999Z</time></trkpt><trkpt lat="44.61876424633267" lon="9.981976125940163"><ele>352.0</ele><time>2026-04-18T09:10:50.999Z</time></trkpt><trkpt lat="44.618678447701484" lon="9.982121612545008"><ele>349.75</ele><time>2026-04-18T09:10:51.999Z</time></trkpt><trkpt lat="44.618599739731124" lon="9.98226216838856"><ele>347.5</ele><time>2026-04-18T09:10:52.999Z</time></trkpt><trkpt lat="44.61851994150792" lon="9.98240467118156"><ele>345.25</ele><time>2026-04-18T09:10:53.999Z</time></trkpt><trkpt lat="44.618442924687784" lon="9.982527852835979"><ele>343.0</ele><time>2026-04-18T09:10:54.999Z</time></trkpt><trkpt lat="44.618361298742656" lon="9.982634627146188"><ele>343.0</ele><time>2026-04-18T09:10:55.999Z</time></trkpt><trkpt lat="44.61826200190376" lon="9.98274657893113"><ele>343.0</ele><time>2026-04-18T09:10:56.999Z</time></trkpt><trkpt lat="44.61816582588449" lon="9.982854389534385"><ele>343.0</ele><time>2026-04-18T09:10:57.999Z</time></trkpt><trkpt lat="44.61805762350725" lon="9.982980762466912"><ele>343.0</ele><time>2026-04-18T09:10:58.999Z</time></trkpt><trkpt lat="44.617966136996586" lon="9.983161764683029"><ele>343.0</ele><time>2026-04-18T09:10:59.999Z</time></trkpt><trkpt lat="44.61791619149544" lon="9.983313062000576"><ele>343.0</ele><time>2026-04-18T09:11:00.999Z</time></trkpt><trkpt lat="44.617886183922955" lon="9.983391416608985"><ele>343.0</ele><time>2026-04-18T09:11:01.999Z</time></trkpt><trkpt lat="44.6178395346784" lon="9.983508994672414"><ele>343.0</ele><time>2026-04-18T09:11:04.999Z</time></trkpt><trkpt lat="44.617759450418234" lon="9.983344296708303"><ele>343.0</ele><time>2026-04-18T09:11:05.999Z</time></trkpt><trkpt lat="44.617841781987124" lon="9.98317790680941"><ele>343.0</ele><time>2026-04-18T09:11:06.999Z</time></trkpt><trkpt lat="44.617891173426635" lon="9.983084864080688"><ele>343.0</ele><time>2026-04-18T09:11:07.999Z</time></trkpt><trkpt lat="44.617937985021086" lon="9.982995965245653"><ele>343.0</ele><time>2026-04-18T09:11:08.999Z</time></trkpt><trkpt lat="44.61799034384633" lon="9.982896531769956"><ele>343.0</ele><time>2026-04-18T09:11:09.999Z</time></trkpt><trkpt lat="44.61802998096615" lon="9.98282155035912"><ele>343.0</ele><time>2026-04-18T09:11:10.999Z</time></trkpt><trkpt lat="44.618082434137605" lon="9.982723266715603"><ele>343.0</ele><time>2026-04-18T09:11:11.999Z</time></trkpt><trkpt lat="44.61813381780096" lon="9.98264539308471"><ele>343.0</ele><time>2026-04-18T09:11:12.999Z</time></trkpt><trkpt lat="44.61817605162391" lon="9.982529456218312"><ele>343.0</ele><time>2026-04-18T09:11:13.999Z</time></trkpt><trkpt lat="44.61821929083823" lon="9.982403380630041"><ele>343.0</ele><time>2026-04-18T09:11:14.999Z</time></trkpt><trkpt lat="44.61827452063282" lon="9.982279685512324"><ele>343.0</ele><time>2026-04-18T09:11:15.999Z</time></trkpt><trkpt lat="44.61830844137934" lon="9.982133086481353"><ele>343.0</ele><time>2026-04-18T09:11:16.999Z</time></trkpt><trkpt lat="44.61831559427951" lon="9.981990306551284"><ele>339.0</ele><time>2026-04-18T09:11:17.999Z</time></trkpt><trkpt lat="44.618359515773" lon="9.981881044159095"><ele>335.0</ele><time>2026-04-18T09:11:18.999Z</time></trkpt><trkpt lat="44.618351397103034" lon="9.981742064117459"><ele>331.0</ele><time>2026-04-18T09:11:19.999Z</time></trkpt><trkpt lat="44.61835719718092" lon="9.981594631690069"><ele>327.0</ele><time>2026-04-18T09:11:20.999Z</time></trkpt><trkpt lat="44.61836226986226" lon="9.98144626566098"><ele>323.0</ele><time>2026-04-18T09:11:21.999Z</time></trkpt><trkpt lat="44.61836731959261" lon="9.981294088119794"><ele>319.75</ele><time>2026-04-18T09:11:22.998Z</time></trkpt><trkpt lat="44.61837249615353" lon="9.981138088444224"><ele>316.5</ele><time>2026-04-18T09:11:23.998Z</time></trkpt><trkpt lat="44.618379870383336" lon="9.980976510854566"><ele>313.25</ele><time>2026-04-18T09:11:24.998Z</time></trkpt><trkpt lat="44.618388542996286" lon="9.98081023281132"><ele>310.0</ele><time>2026-04-18T09:11:25.998Z</time></trkpt><trkpt lat="44.61839617752234" lon="9.980644482827957"><ele>308.0</ele><time>2026-04-18T09:11:26.998Z</time></trkpt><trkpt lat="44.61839976242598" lon="9.980482002562594"><ele>306.0</ele><time>2026-04-18T09:11:27.998Z</time></trkpt><trkpt lat="44.61839495576621" lon="9.980317292798185"><ele>304.0</ele><time>2026-04-18T09:11:28.998Z</time></trkpt><trkpt lat="44.61838512734678" lon="9.980149733699637"><ele>302.0</ele><time>2026-04-18T09:11:29.998Z</time></trkpt><trkpt lat="44.61832856842091" lon="9.979995250527317"><ele>302.0</ele><time>2026-04-18T09:11:30.998Z</time></trkpt><trkpt lat="44.618277815026225" lon="9.979832346100812"><ele>302.0</ele><time>2026-04-18T09:11:31.998Z</time></trkpt><trkpt lat="44.61822913800474" lon="9.97967913866084"><ele>302.0</ele><time>2026-04-18T09:11:32.998Z</time></trkpt><trkpt lat="44.618186684367146" lon="9.979511001955075"><ele>302.0</ele><time>2026-04-18T09:11:33.998Z</time></trkpt><trkpt lat="44.61829088706315" lon="9.979303686374319"><ele>301.25</ele><time>2026-04-18T09:11:34.998Z</time></trkpt><trkpt lat="44.618286631997094" lon="9.979118210394523"><ele>300.5</ele><time>2026-04-18T09:11:35.998Z</time></trkpt><trkpt lat="44.61828566209469" lon="9.978938085137338"><ele>299.75</ele><time>2026-04-18T09:11:36.998Z</time></trkpt><trkpt lat="44.618277099851966" lon="9.978750421185834"><ele>299.0</ele><time>2026-04-18T09:11:37.998Z</time></trkpt><trkpt lat="44.61826861218215" lon="9.97855897940095"><ele>299.0</ele><time>2026-04-18T09:11:38.998Z</time></trkpt><trkpt lat="44.61826595912447" lon="9.97836200739716"><ele>299.0</ele><time>2026-04-18T09:11:39.998Z</time></trkpt><trkpt lat="44.61825013901197" lon="9.978163123895785"><ele>299.0</ele><time>2026-04-18T09:11:40.998Z</time></trkpt><trkpt lat="44.61823342018116" lon="9.977978455385896"><ele>299.0</ele><time>2026-04-18T09:11:41.998Z</time></trkpt><trkpt lat="44.61821340706466" lon="9.97781101439824"><ele>297.75</ele><time>2026-04-18T09:11:42.998Z</time></trkpt><trkpt lat="44.61817711843989" lon="9.9776574997161"><ele>296.5</ele><time>2026-04-18T09:11:43.998Z</time></trkpt><trkpt lat="44.618169881291365" lon="9.977490599772421"><ele>295.25</ele><time>2026-04-18T09:11:44.998Z</time></trkpt><trkpt lat="44.61810306042343" lon="9.977350503279013"><ele>294.0</ele><time>2026-04-18T09:11:45.998Z</time></trkpt><trkpt lat="44.618017168558374" lon="9.977236296391514"><ele>291.5</ele><time>2026-04-18T09:11:46.998Z</time></trkpt><trkpt lat="44.61790770741248" lon="9.977155365130782"><ele>289.0</ele><time>2026-04-18T09:11:47.998Z</time></trkpt><trkpt lat="44.617782324013156" lon="9.977109755759777"><ele>286.5</ele><time>2026-04-18T09:11:48.998Z</time></trkpt><trkpt lat="44.61764818375281" lon="9.977075251465822"><ele>284.0</ele><time>2026-04-18T09:11:49.998Z</time></trkpt><trkpt lat="44.61751903010107" lon="9.977026001541079"><ele>282.75</ele><time>2026-04-18T09:11:50.998Z</time></trkpt><trkpt lat="44.617393477620716" lon="9.977002785466443"><ele>281.5</ele><time>2026-04-18T09:11:51.998Z</time></trkpt><trkpt lat="44.61726892846113" lon="9.977032864828994"><ele>280.25</ele><time>2026-04-18T09:11:52.998Z</time></trkpt><trkpt lat="44.61715764101919" lon="9.977104858292005"><ele>279.0</ele><time>2026-04-18T09:11:53.998Z</time></trkpt><trkpt lat="44.61706592758348" lon="9.9771991675802"><ele>277.5</ele><time>2026-04-18T09:11:54.998Z</time></trkpt><trkpt lat="44.616974728591856" lon="9.977289757828755"><ele>276.0</ele><time>2026-04-18T09:11:55.998Z</time></trkpt><trkpt lat="44.616873091358634" lon="9.977369919232776"><ele>274.5</ele><time>2026-04-18T09:11:56.998Z</time></trkpt><trkpt lat="44.616767246234794" lon="9.97743576691793"><ele>273.0</ele><time>2026-04-18T09:11:57.998Z</time></trkpt><trkpt lat="44.61665713773262" lon="9.97749162076565"><ele>274.0</ele><time>2026-04-18T09:11:59Z</time></trkpt><trkpt lat="44.61654555622971" lon="9.97753991755519"><ele>275.0</ele><time>2026-04-18T09:12:00Z</time></trkpt><trkpt lat="44.616446924914584" lon="9.97763331035765"><ele>276.0</ele><time>2026-04-18T09:12:01Z</time></trkpt><trkpt lat="44.61636283305674" lon="9.977739323014953"><ele>277.0</ele><time>2026-04-18T09:12:02Z</time></trkpt><trkpt lat="44.61629001406149" lon="9.977860370726296"><ele>277.0</ele><time>2026-04-18T09:12:03Z</time></trkpt><trkpt lat="44.61623608656253" lon="9.97799682235587"><ele>277.0</ele><time>2026-04-18T09:12:04Z</time></trkpt><trkpt lat="44.61620759138665" lon="9.978146192563866"><ele>277.0</ele><time>2026-04-18T09:12:05Z</time></trkpt><trkpt lat="44.61620760776465" lon="9.97830203192245"><ele>277.0</ele><time>2026-04-18T09:12:06Z</time></trkpt><trkpt lat="44.61621781425869" lon="9.97845683672993"><ele>277.0</ele><time>2026-04-18T09:12:07Z</time></trkpt><trkpt lat="44.616270301679755" lon="9.978597141594403"><ele>276.6</ele><time>2026-04-18T09:12:08Z</time></trkpt><trkpt lat="44.61627875717753" lon="9.978744381495579"><ele>276.2</ele><time>2026-04-18T09:12:09Z</time></trkpt><trkpt lat="44.61628565175834" lon="9.978892034302213"><ele>275.8</ele><time>2026-04-18T09:12:10Z</time></trkpt><trkpt lat="44.61629639319454" lon="9.979040576346016"><ele>275.4</ele><time>2026-04-18T09:12:11Z</time></trkpt><trkpt lat="44.61630694768152" lon="9.979190667207359"><ele>275.0</ele><time>2026-04-18T09:12:12Z</time></trkpt><trkpt lat="44.61631755144601" lon="9.979342677069583"><ele>273.8</ele><time>2026-04-18T09:12:13Z</time></trkpt><trkpt lat="44.61629695772678" lon="9.97949826865809"><ele>272.6</ele><time>2026-04-18T09:12:14Z</time></trkpt><trkpt lat="44.6163089825752" lon="9.979652435217702"><ele>271.4</ele><time>2026-04-18T09:12:15Z</time></trkpt><trkpt lat="44.61632101549732" lon="9.97980520177013"><ele>270.2</ele><time>2026-04-18T09:12:16Z</time></trkpt><trkpt lat="44.616333856688804" lon="9.97995657226566"><ele>269.0</ele><time>2026-04-18T09:12:17Z</time></trkpt><trkpt lat="44.616346267870405" lon="9.980102873870184"><ele>267.59999999999997</ele><time>2026-04-18T09:12:18Z</time></trkpt><trkpt lat="44.61635768487805" lon="9.980237454476164"><ele>266.2</ele><time>2026-04-18T09:12:19Z</time></trkpt><trkpt lat="44.61640895786471" lon="9.980357259164432"><ele>264.79999999999995</ele><time>2026-04-18T09:12:20Z</time></trkpt><trkpt lat="44.61645784504374" lon="9.980467306398245"><ele>263.4</ele><time>2026-04-18T09:12:21Z</time></trkpt><trkpt lat="44.61653251621051" lon="9.980552594460297"><ele>262.0</ele><time>2026-04-18T09:12:22Z</time></trkpt><trkpt lat="44.61659376766958" lon="9.980648733633664"><ele>262.0</ele><time>2026-04-18T09:12:23Z</time></trkpt><trkpt lat="44.616651114815696" lon="9.980725920162088"><ele>262.0</ele><time>2026-04-18T09:12:24Z</time></trkpt><trkpt lat="44.61669401935635" lon="9.98080478399623"><ele>262.0</ele><time>2026-04-18T09:12:25Z</time></trkpt><trkpt lat="44.616711306715004" lon="9.980890528104878"><ele>262.0</ele><time>2026-04-18T09:12:26Z</time></trkpt><trkpt lat="44.61664787043591" lon="9.981034892369134"><ele>262.0</ele><time>2026-04-18T09:12:28Z</time></trkpt><trkpt lat="44.61652158298058" lon="9.981062228341438"><ele>262.0</ele><time>2026-04-18T09:12:30Z</time></trkpt><trkpt lat="44.616463067934795" lon="9.980987737975184"><ele>262.0</ele><time>2026-04-18T09:12:31Z</time></trkpt><trkpt lat="44.61641579956772" lon="9.980895353133873"><ele>262.0</ele><time>2026-04-18T09:12:32Z</time></trkpt><trkpt lat="44.61635164648323" lon="9.980803269570819"><ele>262.0</ele><time>2026-04-18T09:12:33Z</time></trkpt><trkpt lat="44.61628830285458" lon="9.980715840513376"><ele>262.0</ele><time>2026-04-18T09:12:34Z</time></trkpt><trkpt lat="44.61623029441984" lon="9.980619006181588"><ele>262.0</ele><time>2026-04-18T09:12:34.999Z</time></trkpt><trkpt lat="44.61617109112886" lon="9.980515929676585"><ele>259.2</ele><time>2026-04-18T09:12:35.999Z</time></trkpt><trkpt lat="44.61611128118702" lon="9.980408866340943"><ele>256.4</ele><time>2026-04-18T09:12:36.999Z</time></trkpt><trkpt lat="44.61604600429498" lon="9.980300507327982"><ele>253.60000000000002</ele><time>2026-04-18T09:12:37.999Z</time></trkpt><trkpt lat="44.61599739658442" lon="9.98018902667157"><ele>250.8</ele><time>2026-04-18T09:12:38.999Z</time></trkpt><trkpt lat="44.61594522381766" lon="9.980077285149225"><ele>248.0</ele><time>2026-04-18T09:12:39.999Z</time></trkpt><trkpt lat="44.61589375494523" lon="9.979955932337647"><ele>248.0</ele><time>2026-04-18T09:12:40.999Z</time></trkpt><trkpt lat="44.615837897964695" lon="9.979831389261424"><ele>248.0</ele><time>2026-04-18T09:12:41.999Z</time></trkpt><trkpt lat="44.61578230403818" lon="9.979701915217557"><ele>248.0</ele><time>2026-04-18T09:12:42.999Z</time></trkpt><trkpt lat="44.61572480317715" lon="9.979570470832533"><ele>248.0</ele><time>2026-04-18T09:12:43.999Z</time></trkpt><trkpt lat="44.61566682495012" lon="9.979448505929966"><ele>248.0</ele><time>2026-04-18T09:12:44.999Z</time></trkpt><trkpt lat="44.615614640154135" lon="9.979337372399112"><ele>248.00000000000003</ele><time>2026-04-18T09:12:45.999Z</time></trkpt><trkpt lat="44.615564240074576" lon="9.979227079928986"><ele>248.0</ele><time>2026-04-18T09:12:46.999Z</time></trkpt><trkpt lat="44.615507699123604" lon="9.97912279519441"><ele>248.0</ele><time>2026-04-18T09:12:47.999Z</time></trkpt><trkpt lat="44.61545595221638" lon="9.979037914752778"><ele>248.0</ele><time>2026-04-18T09:12:48.999Z</time></trkpt><trkpt lat="44.61539785611078" lon="9.978975546712068"><ele>248.00000000000003</ele><time>2026-04-18T09:12:49.999Z</time></trkpt><trkpt lat="44.61530256810189" lon="9.978966062178968"><ele>248.0</ele><time>2026-04-18T09:12:51.999Z</time></trkpt><trkpt lat="44.61522379593552" lon="9.978825918748912"><ele>245.8</ele><time>2026-04-18T09:12:54.999Z</time></trkpt><trkpt lat="44.61516896566025" lon="9.978728683800826"><ele>243.60000000000002</ele><time>2026-04-18T09:14:37Z</time></trkpt><trkpt lat="44.6150985474743" lon="9.97869173485792"><ele>241.39999999999998</ele><time>2026-04-18T09:14:38.999Z</time></trkpt><trkpt lat="44.61501686329533" lon="9.978655477256185"><ele>239.2</ele><time>2026-04-18T09:14:40.999Z</time></trkpt><trkpt lat="44.61493054805693" lon="9.978598958650279"><ele>237.0</ele><time>2026-04-18T09:14:42.999Z</time></trkpt><trkpt lat="44.61481052209351" lon="9.978545226571525"><ele>236.99999999999997</ele><time>2026-04-18T09:14:44.999Z</time></trkpt><trkpt lat="44.61475029350881" lon="9.978506424407755"><ele>237.0</ele><time>2026-04-18T09:14:45.999Z</time></trkpt><trkpt lat="44.61468597091778" lon="9.978469737175214"><ele>236.99999999999997</ele><time>2026-04-18T09:14:46.999Z</time></trkpt><trkpt lat="44.61461488729619" lon="9.97843319266481"><ele>236.99999999999997</ele><time>2026-04-18T09:14:47.999Z</time></trkpt><trkpt lat="44.61454813216453" lon="9.978392543238483"><ele>237.0</ele><time>2026-04-18T09:14:48.999Z</time></trkpt><trkpt lat="44.61447510879254" lon="9.978356439293234"><ele>236.99999999999997</ele><time>2026-04-18T09:14:49.999Z</time></trkpt><trkpt lat="44.614399475980036" lon="9.978309079087861"><ele>236.99999999999997</ele><time>2026-04-18T09:14:50.999Z</time></trkpt><trkpt lat="44.61432297399442" lon="9.978262062929819"><ele>237.5</ele><time>2026-04-18T09:14:51.999Z</time></trkpt><trkpt lat="44.61424300839672" lon="9.978212513580884"><ele>238.0</ele><time>2026-04-18T09:14:52.999Z</time></trkpt><trkpt lat="44.61416006893234" lon="9.978169046400984"><ele>238.5</ele><time>2026-04-18T09:14:53.999Z</time></trkpt><trkpt lat="44.614073403720234" lon="9.978116117667282"><ele>239.0</ele><time>2026-04-18T09:14:54.999Z</time></trkpt><trkpt lat="44.61399767278194" lon="9.978062635959203"><ele>239.5</ele><time>2026-04-18T09:14:55.999Z</time></trkpt><trkpt lat="44.61391696225207" lon="9.978015776210942"><ele>240.0</ele><time>2026-04-18T09:14:56.999Z</time></trkpt><trkpt lat="44.613848488053335" lon="9.977972367309519"><ele>240.0</ele><time>2026-04-18T09:14:57.999Z</time></trkpt><trkpt lat="44.613788177333696" lon="9.977934044071985"><ele>240.0</ele><time>2026-04-18T09:14:58.999Z</time></trkpt><trkpt lat="44.613728476391685" lon="9.9778969453443"><ele>240.0</ele><time>2026-04-18T09:14:59.999Z</time></trkpt><trkpt lat="44.61366743611852" lon="9.977858291208276"><ele>240.0</ele><time>2026-04-18T09:15:00.999Z</time></trkpt><trkpt lat="44.613607916391345" lon="9.977822301827524"><ele>240.0</ele><time>2026-04-18T09:15:01.999Z</time></trkpt><trkpt lat="44.613549963037684" lon="9.97778717908955"><ele>240.0</ele><time>2026-04-18T09:15:02.999Z</time></trkpt><trkpt lat="44.613437106355185" lon="9.977714670042197"><ele>239.2</ele><time>2026-04-18T09:15:04.999Z</time></trkpt><trkpt lat="44.61332773052063" lon="9.977642826106775"><ele>238.4</ele><time>2026-04-18T09:15:06.999Z</time></trkpt><trkpt lat="44.61322336785447" lon="9.977568639377175"><ele>237.60000000000002</ele><time>2026-04-18T09:15:08.999Z</time></trkpt><trkpt lat="44.613125557586194" lon="9.977508516310191"><ele>236.8</ele><time>2026-04-18T09:15:10.999Z</time></trkpt><trkpt lat="44.61303113233063" lon="9.97746549313393"><ele>236.0</ele><time>2026-04-18T09:15:12.999Z</time></trkpt><trkpt lat="44.61294012312845" lon="9.977429330278513"><ele>236.0</ele><time>2026-04-18T09:15:14.999Z</time></trkpt><trkpt lat="44.61286516401246" lon="9.97740552846001"><ele>236.00000000000003</ele><time>2026-04-18T09:15:16.999Z</time></trkpt><trkpt lat="44.61276380221778" lon="9.977382848126975"><ele>236.00000000000003</ele><time>2026-04-18T09:15:18.999Z</time></trkpt><trkpt lat="44.612665482076835" lon="9.977358052617234"><ele>236.0</ele><time>2026-04-18T09:15:20.999Z</time></trkpt><trkpt lat="44.61255873032439" lon="9.977332101558467"><ele>236.0</ele><time>2026-04-18T09:15:22.999Z</time></trkpt><trkpt lat="44.61246434697739" lon="9.977307694189472"><ele>236.0</ele><time>2026-04-18T09:15:24.999Z</time></trkpt><trkpt lat="44.612344914884176" lon="9.97728880018443"><ele>236.00000000000003</ele><time>2026-04-18T09:15:26.999Z</time></trkpt><trkpt lat="44.612281724208316" lon="9.977275074709507"><ele>236.00000000000003</ele><time>2026-04-18T09:15:27.999Z</time></trkpt><trkpt lat="44.61222310395616" lon="9.977233134446545"><ele>236.0</ele><time>2026-04-18T09:15:28.999Z</time></trkpt><trkpt lat="44.61210366447194" lon="9.977195022708496"><ele>236.0</ele><time>2026-04-18T09:15:30.999Z</time></trkpt><trkpt lat="44.61198477240298" lon="9.977158182110463"><ele>235.60000000000002</ele><time>2026-04-18T09:15:32.998Z</time></trkpt><trkpt lat="44.61186764933323" lon="9.977120020990638"><ele>235.20000000000002</ele><time>2026-04-18T09:15:34.998Z</time></trkpt><trkpt lat="44.61175424246882" lon="9.97708471904274"><ele>234.79999999999998</ele><time>2026-04-18T09:15:36.998Z</time></trkpt><trkpt lat="44.611688459405066" lon="9.977064084603562"><ele>234.39999999999998</ele><time>2026-04-18T09:15:37.998Z</time></trkpt><trkpt lat="44.61156447760475" lon="9.97703731197377"><ele>234.0</ele><time>2026-04-18T09:15:39.998Z</time></trkpt><trkpt lat="44.61150098078697" lon="9.977018806694078"><ele>234.0</ele><time>2026-04-18T09:15:40.998Z</time></trkpt><trkpt lat="44.6114341877078" lon="9.976997628545504"><ele>234.0</ele><time>2026-04-18T09:15:41.998Z</time></trkpt><trkpt lat="44.611367270368206" lon="9.976979878202588"><ele>234.0</ele><time>2026-04-18T09:15:42.998Z</time></trkpt><trkpt lat="44.61130356673768" lon="9.976958902441776"><ele>234.0</ele><time>2026-04-18T09:15:43.998Z</time></trkpt><trkpt lat="44.61117550875044" lon="9.976924813527162"><ele>234.0</ele><time>2026-04-18T09:15:45.998Z</time></trkpt><trkpt lat="44.61110413477413" lon="9.97689325658058"><ele>234.0</ele><time>2026-04-18T09:15:46.998Z</time></trkpt><trkpt lat="44.611030834157695" lon="9.976874418364549"><ele>233.66666666666666</ele><time>2026-04-18T09:15:47.998Z</time></trkpt><trkpt lat="44.610959702024815" lon="9.976849383231878"><ele>233.33333333333331</ele><time>2026-04-18T09:15:48.998Z</time></trkpt><trkpt lat="44.610886307748935" lon="9.976827559980643"><ele>233.0</ele><time>2026-04-18T09:15:49.998Z</time></trkpt><trkpt lat="44.61081683490769" lon="9.976807187896837"><ele>232.66666666666666</ele><time>2026-04-18T09:15:50.998Z</time></trkpt><trkpt lat="44.610741354142164" lon="9.976783733761403"><ele>232.33333333333331</ele><time>2026-04-18T09:15:51.998Z</time></trkpt><trkpt lat="44.61067331521356" lon="9.976758608100804"><ele>232.0</ele><time>2026-04-18T09:15:52.998Z</time></trkpt><trkpt lat="44.61059138725771" lon="9.976720812339078"><ele>231.99999999999997</ele><time>2026-04-18T09:15:53.998Z</time></trkpt><trkpt lat="44.61051590714497" lon="9.976686877351671"><ele>232.0</ele><time>2026-04-18T09:15:54.998Z</time></trkpt><trkpt lat="44.61043530288291" lon="9.976665561084987"><ele>232.0</ele><time>2026-04-18T09:15:55.998Z</time></trkpt><trkpt lat="44.610354437541346" lon="9.976642443385366"><ele>232.0</ele><time>2026-04-18T09:15:56.998Z</time></trkpt><trkpt lat="44.61027436551624" lon="9.976633969608507"><ele>231.99999999999997</ele><time>2026-04-18T09:15:57.998Z</time></trkpt><trkpt lat="44.61020305149977" lon="9.976603022508355"><ele>232.0</ele><time>2026-04-18T09:15:58.998Z</time></trkpt><trkpt lat="44.61013717517435" lon="9.976579893327289"><ele>232.49999999999997</ele><time>2026-04-18T09:15:59.998Z</time></trkpt><trkpt lat="44.61005944201911" lon="9.97655674815659"><ele>233.0</ele><time>2026-04-18T09:16:00.998Z</time></trkpt><trkpt lat="44.6099845495444" lon="9.97653635897399"><ele>233.5</ele><time>2026-04-18T09:16:01.998Z</time></trkpt><trkpt lat="44.609905163501786" lon="9.976502788423812"><ele>234.0</ele><time>2026-04-18T09:16:02.998Z</time></trkpt><trkpt lat="44.609825507633225" lon="9.97647457477844"><ele>234.49999999999997</ele><time>2026-04-18T09:16:03.998Z</time></trkpt><trkpt lat="44.609748638982595" lon="9.976449526705968"><ele>235.0</ele><time>2026-04-18T09:16:04.998Z</time></trkpt><trkpt lat="44.609671027755866" lon="9.97642283170326"><ele>234.99999999999997</ele><time>2026-04-18T09:16:05.998Z</time></trkpt><trkpt lat="44.60959550753137" lon="9.976398753179522"><ele>235.0</ele><time>2026-04-18T09:16:06.998Z</time></trkpt><trkpt lat="44.6095203273109" lon="9.97637188750002"><ele>235.0</ele><time>2026-04-18T09:16:07.998Z</time></trkpt><trkpt lat="44.609438236070076" lon="9.976352356706515"><ele>235.0</ele><time>2026-04-18T09:16:08.998Z</time></trkpt><trkpt lat="44.609359913497535" lon="9.976326407662492"><ele>234.99999999999997</ele><time>2026-04-18T09:16:09.998Z</time></trkpt><trkpt lat="44.60927888846581" lon="9.976305938354162"><ele>235.0</ele><time>2026-04-18T09:16:11Z</time></trkpt><trkpt lat="44.609197732457176" lon="9.9762836003726"><ele>234.49999999999997</ele><time>2026-04-18T09:16:12Z</time></trkpt><trkpt lat="44.609116651036224" lon="9.976257182790997"><ele>234.0</ele><time>2026-04-18T09:16:13Z</time></trkpt><trkpt lat="44.609038403594624" lon="9.976230007827976"><ele>233.5</ele><time>2026-04-18T09:16:14Z</time></trkpt><trkpt lat="44.6089553739984" lon="9.976199022382367"><ele>233.0</ele><time>2026-04-18T09:16:15Z</time></trkpt><trkpt lat="44.60887408367583" lon="9.976169298504665"><ele>232.49999999999997</ele><time>2026-04-18T09:16:16Z</time></trkpt><trkpt lat="44.60878789936033" lon="9.97614147876586"><ele>232.0</ele><time>2026-04-18T09:16:17Z</time></trkpt><trkpt lat="44.60870336358733" lon="9.976113767441358"><ele>232.16666666666666</ele><time>2026-04-18T09:16:18Z</time></trkpt><trkpt lat="44.60862137614273" lon="9.976086135359552"><ele>232.33333333333331</ele><time>2026-04-18T09:16:19Z</time></trkpt><trkpt lat="44.60854396400295" lon="9.976064833676475"><ele>232.5</ele><time>2026-04-18T09:16:20Z</time></trkpt><trkpt lat="44.60846316830691" lon="9.976042655935721"><ele>232.66666666666669</ele><time>2026-04-18T09:16:21Z</time></trkpt><trkpt lat="44.60838636512462" lon="9.976026856852583"><ele>232.83333333333334</ele><time>2026-04-18T09:16:22Z</time></trkpt><trkpt lat="44.60831325398908" lon="9.976010488497167"><ele>233.0</ele><time>2026-04-18T09:16:23Z</time></trkpt><trkpt lat="44.60823731310063" lon="9.976001964066532"><ele>233.00000000000003</ele><time>2026-04-18T09:16:24Z</time></trkpt><trkpt lat="44.60815853278789" lon="9.97599246025856"><ele>233.0</ele><time>2026-04-18T09:16:25Z</time></trkpt><trkpt lat="44.60808141521878" lon="9.975982483265126"><ele>233.0</ele><time>2026-04-18T09:16:26Z</time></trkpt><trkpt lat="44.60800505353279" lon="9.97597687324334"><ele>233.0</ele><time>2026-04-18T09:16:27Z</time></trkpt><trkpt lat="44.60793104213419" lon="9.975969857716466"><ele>233.00000000000003</ele><time>2026-04-18T09:16:28Z</time></trkpt><trkpt lat="44.60785686131625" lon="9.975968522807552"><ele>233.0</ele><time>2026-04-18T09:16:29Z</time></trkpt><trkpt lat="44.60778133328503" lon="9.97596861459528"><ele>232.16666666666669</ele><time>2026-04-18T09:16:30Z</time></trkpt><trkpt lat="44.60770662419902" lon="9.975964031777718"><ele>231.33333333333334</ele><time>2026-04-18T09:16:31Z</time></trkpt><trkpt lat="44.60763027449994" lon="9.975961023637993"><ele>230.5</ele><time>2026-04-18T09:16:32Z</time></trkpt><trkpt lat="44.60755442802086" lon="9.975957299626433"><ele>229.66666666666669</ele><time>2026-04-18T09:16:33Z</time></trkpt><trkpt lat="44.60747892306725" lon="9.975952965012377"><ele>228.83333333333334</ele><time>2026-04-18T09:16:34Z</time></trkpt><trkpt lat="44.607405192583975" lon="9.975943397031319"><ele>228.0</ele><time>2026-04-18T09:16:35Z</time></trkpt><trkpt lat="44.60733215242244" lon="9.975936049956456"><ele>228.0</ele><time>2026-04-18T09:16:36Z</time></trkpt><trkpt lat="44.6072550691475" lon="9.975928721228248"><ele>228.0</ele><time>2026-04-18T09:16:37Z</time></trkpt><trkpt lat="44.607177333471334" lon="9.975914566063633"><ele>228.0</ele><time>2026-04-18T09:16:38Z</time></trkpt><trkpt lat="44.60710008068279" lon="9.9758944560222"><ele>228.0</ele><time>2026-04-18T09:16:39Z</time></trkpt><trkpt lat="44.60702568156467" lon="9.975871044675655"><ele>228.0</ele><time>2026-04-18T09:16:40Z</time></trkpt><trkpt lat="44.60694982029776" lon="9.975842157576926"><ele>228.0</ele><time>2026-04-18T09:16:41Z</time></trkpt><trkpt lat="44.606872153485334" lon="9.975819339556569"><ele>228.66666666666666</ele><time>2026-04-18T09:16:42Z</time></trkpt><trkpt lat="44.606802826944026" lon="9.975778521838938"><ele>229.33333333333331</ele><time>2026-04-18T09:16:43Z</time></trkpt><trkpt lat="44.606733856773104" lon="9.975732190493522"><ele>230.0</ele><time>2026-04-18T09:16:43.999Z</time></trkpt><trkpt lat="44.606656062128316" lon="9.975684713478827"><ele>230.66666666666666</ele><time>2026-04-18T09:16:44.999Z</time></trkpt><trkpt lat="44.60658381086049" lon="9.975636793655072"><ele>231.33333333333331</ele><time>2026-04-18T09:16:45.999Z</time></trkpt><trkpt lat="44.606510960985304" lon="9.97558308857572"><ele>232.0</ele><time>2026-04-18T09:16:46.999Z</time></trkpt><trkpt lat="44.60643904697387" lon="9.975534107343822"><ele>231.99999999999997</ele><time>2026-04-18T09:16:47.999Z</time></trkpt><trkpt lat="44.60637317912297" lon="9.975468616915187"><ele>232.0</ele><time>2026-04-18T09:16:48.999Z</time></trkpt><trkpt lat="44.60630218309331" lon="9.975407145383723"><ele>232.0</ele><time>2026-04-18T09:16:49.999Z</time></trkpt><trkpt lat="44.60623697663723" lon="9.975344354353195"><ele>232.0</ele><time>2026-04-18T09:16:50.999Z</time></trkpt><trkpt lat="44.6061702893528" lon="9.975266281917365"><ele>231.99999999999997</ele><time>2026-04-18T09:16:51.999Z</time></trkpt><trkpt lat="44.60610347875126" lon="9.975194448240742"><ele>232.0</ele><time>2026-04-18T09:16:52.999Z</time></trkpt><trkpt lat="44.60604183142268" lon="9.975110538247016"><ele>232.2</ele><time>2026-04-18T09:16:53.999Z</time></trkpt><trkpt lat="44.60597992986073" lon="9.975025835540704"><ele>232.39999999999998</ele><time>2026-04-18T09:16:54.999Z</time></trkpt><trkpt lat="44.605913672883084" lon="9.974939371351496"><ele>232.60000000000002</ele><time>2026-04-18T09:16:55.999Z</time></trkpt><trkpt lat="44.60584411647901" lon="9.974852912899731"><ele>232.8</ele><time>2026-04-18T09:16:56.999Z</time></trkpt><trkpt lat="44.605772145128206" lon="9.974771955134583"><ele>233.0</ele><time>2026-04-18T09:16:57.999Z</time></trkpt><trkpt lat="44.60570639257725" lon="9.97467939154411"><ele>233.0</ele><time>2026-04-18T09:16:58.999Z</time></trkpt><trkpt lat="44.60563968831403" lon="9.974581931043513"><ele>233.0</ele><time>2026-04-18T09:16:59.999Z</time></trkpt><trkpt lat="44.60556683191155" lon="9.974496749225796"><ele>233.0</ele><time>2026-04-18T09:17:00.999Z</time></trkpt><trkpt lat="44.60549577527571" lon="9.974410803904957"><ele>233.0</ele><time>2026-04-18T09:17:01.999Z</time></trkpt><trkpt lat="44.605429908576795" lon="9.974316663195793"><ele>233.0</ele><time>2026-04-18T09:17:02.999Z</time></trkpt><trkpt lat="44.60535693541518" lon="9.974232508576282"><ele>233.0</ele><time>2026-04-18T09:17:03.999Z</time></trkpt><trkpt lat="44.60529185430141" lon="9.974136665806709"><ele>233.0</ele><time>2026-04-18T09:17:04.999Z</time></trkpt><trkpt lat="44.605221631571986" lon="9.974048325409491"><ele>233.0</ele><time>2026-04-18T09:17:05.999Z</time></trkpt><trkpt lat="44.60515439215358" lon="9.973955665966013"><ele>233.0</ele><time>2026-04-18T09:17:06.999Z</time></trkpt><trkpt lat="44.6050846585244" lon="9.973863326460368"><ele>233.0</ele><time>2026-04-18T09:17:07.999Z</time></trkpt><trkpt lat="44.60501533940696" lon="9.973770509554615"><ele>233.0</ele><time>2026-04-18T09:17:08.999Z</time></trkpt><trkpt lat="44.604949999207335" lon="9.973678480350056"><ele>233.0</ele><time>2026-04-18T09:17:09.999Z</time></trkpt><trkpt lat="44.604878844014046" lon="9.97359132785002"><ele>233.0</ele><time>2026-04-18T09:17:10.999Z</time></trkpt><trkpt lat="44.60481342891842" lon="9.973503942758407"><ele>233.0</ele><time>2026-04-18T09:17:11.999Z</time></trkpt><trkpt lat="44.60474928488469" lon="9.973411033220037"><ele>233.0</ele><time>2026-04-18T09:17:12.999Z</time></trkpt><trkpt lat="44.60468153007034" lon="9.973323637935563"><ele>232.2</ele><time>2026-04-18T09:17:13.999Z</time></trkpt><trkpt lat="44.604614710983135" lon="9.97323541198364"><ele>231.4</ele><time>2026-04-18T09:17:14.999Z</time></trkpt><trkpt lat="44.60455290435474" lon="9.973152592919906"><ele>230.59999999999997</ele><time>2026-04-18T09:17:15.999Z</time></trkpt><trkpt lat="44.604484811322564" lon="9.973063256649416"><ele>229.79999999999998</ele><time>2026-04-18T09:17:16.999Z</time></trkpt><trkpt lat="44.60442192402424" lon="9.972971379466202"><ele>229.0</ele><time>2026-04-18T09:17:17.999Z</time></trkpt><trkpt lat="44.60436123015458" lon="9.972879151829815"><ele>228.99999999999997</ele><time>2026-04-18T09:17:18.999Z</time></trkpt><trkpt lat="44.6042994165983" lon="9.972788957711742"><ele>229.0</ele><time>2026-04-18T09:17:19.999Z</time></trkpt><trkpt lat="44.60424131400865" lon="9.972702908925886"><ele>229.0</ele><time>2026-04-18T09:17:20.999Z</time></trkpt><trkpt lat="44.604182725860646" lon="9.972609880419421"><ele>229.0</ele><time>2026-04-18T09:17:21.999Z</time></trkpt><trkpt lat="44.604116366422836" lon="9.97252412858801"><ele>228.99999999999997</ele><time>2026-04-18T09:17:22.999Z</time></trkpt><trkpt lat="44.60405666813314" lon="9.972431631551224"><ele>229.0</ele><time>2026-04-18T09:17:23.999Z</time></trkpt><trkpt lat="44.603997650057785" lon="9.972339037979577"><ele>228.83333333333331</ele><time>2026-04-18T09:17:24.999Z</time></trkpt><trkpt lat="44.603937275947786" lon="9.97225207725531"><ele>228.66666666666666</ele><time>2026-04-18T09:17:25.999Z</time></trkpt><trkpt lat="44.60387702031847" lon="9.972163043087955"><ele>228.5</ele><time>2026-04-18T09:17:26.999Z</time></trkpt><trkpt lat="44.60381460280315" lon="9.972072282352034"><ele>228.33333333333331</ele><time>2026-04-18T09:17:27.999Z</time></trkpt><trkpt lat="44.60375221684824" lon="9.971980707074408"><ele>228.16666666666666</ele><time>2026-04-18T09:17:28.999Z</time></trkpt><trkpt lat="44.603689720701254" lon="9.971891166268717"><ele>228.0</ele><time>2026-04-18T09:17:29.999Z</time></trkpt><trkpt lat="44.603615537863156" lon="9.971811634878359"><ele>228.0</ele><time>2026-04-18T09:17:30.999Z</time></trkpt><trkpt lat="44.603552072387004" lon="9.971719288882614"><ele>228.0</ele><time>2026-04-18T09:17:31.999Z</time></trkpt><trkpt lat="44.603488585570176" lon="9.971626911684913"><ele>228.0</ele><time>2026-04-18T09:17:32.999Z</time></trkpt><trkpt lat="44.60342621893343" lon="9.971536164779382"><ele>228.0</ele><time>2026-04-18T09:17:33.999Z</time></trkpt><trkpt lat="44.603374571069374" lon="9.971431252871536"><ele>228.0</ele><time>2026-04-18T09:17:34.999Z</time></trkpt><trkpt lat="44.60330264771806" lon="9.971354780950058"><ele>228.83333333333334</ele><time>2026-04-18T09:17:35.999Z</time></trkpt><trkpt lat="44.60324158617051" lon="9.971264857411331"><ele>229.66666666666669</ele><time>2026-04-18T09:17:36.998Z</time></trkpt><trkpt lat="44.60318734834458" lon="9.971162598640461"><ele>230.5</ele><time>2026-04-18T09:17:37.998Z</time></trkpt><trkpt lat="44.60313021435763" lon="9.97106997462818"><ele>231.33333333333334</ele><time>2026-04-18T09:17:38.998Z</time></trkpt><trkpt lat="44.603058659759924" lon="9.970995466314776"><ele>232.16666666666669</ele><time>2026-04-18T09:17:39.998Z</time></trkpt><trkpt lat="44.603010534931826" lon="9.970892272943576"><ele>233.0</ele><time>2026-04-18T09:17:40.998Z</time></trkpt><trkpt lat="44.602947472107694" lon="9.9708097065072"><ele>232.83333333333334</ele><time>2026-04-18T09:17:41.998Z</time></trkpt><trkpt lat="44.60289129690157" lon="9.970718876054256"><ele>232.66666666666669</ele><time>2026-04-18T09:17:42.998Z</time></trkpt><trkpt lat="44.60283414372903" lon="9.97063531072168"><ele>232.5</ele><time>2026-04-18T09:17:43.998Z</time></trkpt><trkpt lat="44.60276366074677" lon="9.970561029198578"><ele>232.33333333333331</ele><time>2026-04-18T09:17:44.998Z</time></trkpt><trkpt lat="44.6027057988672" lon="9.970475817730122"><ele>232.16666666666666</ele><time>2026-04-18T09:17:45.998Z</time></trkpt><trkpt lat="44.602645477883584" lon="9.970386984578832"><ele>232.0</ele><time>2026-04-18T09:17:46.998Z</time></trkpt><trkpt lat="44.60258651444448" lon="9.97030015062544"><ele>231.99999999999997</ele><time>2026-04-18T09:17:47.998Z</time></trkpt><trkpt lat="44.602526070271004" lon="9.970211202934705"><ele>232.0</ele><time>2026-04-18T09:17:48.998Z</time></trkpt><trkpt lat="44.602466266292694" lon="9.970123198343266"><ele>232.0</ele><time>2026-04-18T09:17:49.998Z</time></trkpt><trkpt lat="44.60240616357213" lon="9.970034754010742"><ele>232.0</ele><time>2026-04-18T09:17:50.998Z</time></trkpt><trkpt lat="44.60234684571582" lon="9.969947432261488"><ele>231.99999999999997</ele><time>2026-04-18T09:17:51.998Z</time></trkpt><trkpt lat="44.602287587548275" lon="9.969860130505285"><ele>232.0</ele><time>2026-04-18T09:17:52.998Z</time></trkpt><trkpt lat="44.60222672365058" lon="9.969770462850292"><ele>231.99999999999997</ele><time>2026-04-18T09:17:53.998Z</time></trkpt><trkpt lat="44.60216984809996" lon="9.969686671163567"><ele>232.0</ele><time>2026-04-18T09:17:54.998Z</time></trkpt><trkpt lat="44.602113934992964" lon="9.969604297294827"><ele>232.0</ele><time>2026-04-18T09:17:55.998Z</time></trkpt><trkpt lat="44.602060918465845" lon="9.969526190902126"><ele>232.0</ele><time>2026-04-18T09:17:56.998Z</time></trkpt><trkpt lat="44.60200818762545" lon="9.969448505344406"><ele>231.99999999999997</ele><time>2026-04-18T09:17:57.998Z</time></trkpt><trkpt lat="44.60196144438957" lon="9.969379641006595"><ele>232.0</ele><time>2026-04-18T09:17:58.998Z</time></trkpt><trkpt lat="44.601875704975754" lon="9.969253325359436"><ele>232.8</ele><time>2026-04-18T09:18:00.998Z</time></trkpt><trkpt lat="44.60183205172984" lon="9.96918901366546"><ele>233.6</ele><time>2026-04-18T09:18:01.998Z</time></trkpt><trkpt lat="44.601750029116786" lon="9.96906818143503"><ele>234.40000000000003</ele><time>2026-04-18T09:18:03.998Z</time></trkpt><trkpt lat="44.60167144582175" lon="9.968952408806109"><ele>235.20000000000002</ele><time>2026-04-18T09:18:05.998Z</time></trkpt><trkpt lat="44.60159728319865" lon="9.968843148762309"><ele>236.0</ele><time>2026-04-18T09:18:07.998Z</time></trkpt><trkpt lat="44.60152722725214" lon="9.968739939036572"><ele>236.0</ele><time>2026-04-18T09:18:09.998Z</time></trkpt><trkpt lat="44.6014575312405" lon="9.968637259840266"><ele>236.00000000000003</ele><time>2026-04-18T09:18:11.998Z</time></trkpt><trkpt lat="44.60138552450559" lon="9.968531176040692"><ele>236.00000000000003</ele><time>2026-04-18T09:18:13.998Z</time></trkpt><trkpt lat="44.60131288776586" lon="9.968424164487487"><ele>236.0</ele><time>2026-04-18T09:18:15.998Z</time></trkpt><trkpt lat="44.60123898383913" lon="9.968315285658926"><ele>236.0</ele><time>2026-04-18T09:18:18Z</time></trkpt><trkpt lat="44.60117096508177" lon="9.96821507698801"><ele>235.4</ele><time>2026-04-18T09:18:20Z</time></trkpt><trkpt lat="44.601096772936565" lon="9.968105773846192"><ele>234.8</ele><time>2026-04-18T09:18:22Z</time></trkpt><trkpt lat="44.60102187065277" lon="9.967995424219245"><ele>234.20000000000002</ele><time>2026-04-18T09:18:24Z</time></trkpt><trkpt lat="44.6009514577178" lon="9.967891688528377"><ele>233.60000000000002</ele><time>2026-04-18T09:18:26Z</time></trkpt><trkpt lat="44.60087909559117" lon="9.967785081452718"><ele>233.0</ele><time>2026-04-18T09:18:28Z</time></trkpt><trkpt lat="44.60079893156711" lon="9.967666979751469"><ele>233.0</ele><time>2026-04-18T09:18:30Z</time></trkpt><trkpt lat="44.6007149763666" lon="9.96754329320854"><ele>233.0</ele><time>2026-04-18T09:18:32Z</time></trkpt><trkpt lat="44.60063135917383" lon="9.967420436030134"><ele>233.0</ele><time>2026-04-18T09:18:34Z</time></trkpt><trkpt lat="44.600548763590524" lon="9.967299482504156"><ele>233.0</ele><time>2026-04-18T09:18:36Z</time></trkpt><trkpt lat="44.600478092170704" lon="9.96719599069359"><ele>233.5</ele><time>2026-04-18T09:18:38Z</time></trkpt><trkpt lat="44.600406274102255" lon="9.967090819783133"><ele>234.0</ele><time>2026-04-18T09:18:40Z</time></trkpt><trkpt lat="44.60032846950784" lon="9.966976257963925"><ele>234.5</ele><time>2026-04-18T09:18:42Z</time></trkpt><trkpt lat="44.60024804759883" lon="9.966857447515123"><ele>235.0</ele><time>2026-04-18T09:18:44Z</time></trkpt><trkpt lat="44.60016715204544" lon="9.966737937474324"><ele>235.25</ele><time>2026-04-18T09:18:46Z</time></trkpt><trkpt lat="44.600084621800086" lon="9.966616012180364"><ele>235.5</ele><time>2026-04-18T09:18:48Z</time></trkpt><trkpt lat="44.59999908181579" lon="9.966489640664532"><ele>235.75</ele><time>2026-04-18T09:18:49.999Z</time></trkpt><trkpt lat="44.59991362569575" lon="9.966363392947146"><ele>236.0</ele><time>2026-04-18T09:18:51.999Z</time></trkpt><trkpt lat="44.599832369667716" lon="9.966242219610004"><ele>236.0</ele><time>2026-04-18T09:18:53.999Z</time></trkpt><trkpt lat="44.59975217704138" lon="9.966122416216328"><ele>236.00000000000003</ele><time>2026-04-18T09:18:55.999Z</time></trkpt><trkpt lat="44.59967317608908" lon="9.966005855997008"><ele>236.00000000000003</ele><time>2026-04-18T09:18:57.999Z</time></trkpt><trkpt lat="44.59959859850021" lon="9.965896200826611"><ele>236.0</ele><time>2026-04-18T09:18:59.999Z</time></trkpt><trkpt lat="44.599530174145436" lon="9.96579559332309"><ele>236.0</ele><time>2026-04-18T09:19:01.999Z</time></trkpt><trkpt lat="44.599516380898486" lon="9.96570329960679"><ele>236.33333333333334</ele><time>2026-04-18T09:19:03.999Z</time></trkpt><trkpt lat="44.59944252921019" lon="9.965717564697771"><ele>236.66666666666669</ele><time>2026-04-18T09:20:37Z</time></trkpt><trkpt lat="44.5993885528564" lon="9.965648829376983"><ele>237.0</ele><time>2026-04-18T09:20:40Z</time></trkpt><trkpt lat="44.599338508616285" lon="9.965576967409236"><ele>237.33333333333331</ele><time>2026-04-18T09:20:42Z</time></trkpt><trkpt lat="44.59927668601041" lon="9.965491429533722"><ele>237.66666666666666</ele><time>2026-04-18T09:20:44Z</time></trkpt><trkpt lat="44.59921197922311" lon="9.965396308186556"><ele>238.0</ele><time>2026-04-18T09:20:46Z</time></trkpt><trkpt lat="44.59914323944897" lon="9.965292016739587"><ele>238.0</ele><time>2026-04-18T09:20:48Z</time></trkpt><trkpt lat="44.59907080997329" lon="9.965183062941609"><ele>238.0</ele><time>2026-04-18T09:20:49.999Z</time></trkpt><trkpt lat="44.59898196431892" lon="9.965071860676595"><ele>238.0</ele><time>2026-04-18T09:20:51.999Z</time></trkpt><trkpt lat="44.598893665675114" lon="9.964975237406113"><ele>238.0</ele><time>2026-04-18T09:20:53.999Z</time></trkpt><trkpt lat="44.598815713425736" lon="9.964863087222724"><ele>238.0</ele><time>2026-04-18T09:20:55.999Z</time></trkpt><trkpt lat="44.59875582062066" lon="9.964743849021552"><ele>237.25</ele><time>2026-04-18T09:20:57.999Z</time></trkpt><trkpt lat="44.59866718262366" lon="9.964643616400254"><ele>236.5</ele><time>2026-04-18T09:20:59.999Z</time></trkpt><trkpt lat="44.598583839589516" lon="9.96453265426586"><ele>235.75</ele><time>2026-04-18T09:21:01.999Z</time></trkpt><trkpt lat="44.598501963083216" lon="9.964425249571207"><ele>235.0</ele><time>2026-04-18T09:21:03.999Z</time></trkpt><trkpt lat="44.598423403264" lon="9.964315382538603"><ele>235.0</ele><time>2026-04-18T09:21:05.999Z</time></trkpt><trkpt lat="44.59833325875903" lon="9.96420075260692"><ele>235.0</ele><time>2026-04-18T09:21:07.999Z</time></trkpt><trkpt lat="44.59824492717264" lon="9.964088244738903"><ele>235.0</ele><time>2026-04-18T09:21:09.999Z</time></trkpt><trkpt lat="44.59815237839206" lon="9.96397460329665"><ele>235.0</ele><time>2026-04-18T09:21:11.999Z</time></trkpt><trkpt lat="44.598105693334496" lon="9.963910476203065"><ele>235.0</ele><time>2026-04-18T09:21:12.999Z</time></trkpt><trkpt lat="44.59805628183062" lon="9.963849848417532"><ele>235.28571428571428</ele><time>2026-04-18T09:21:13.999Z</time></trkpt><trkpt lat="44.59800551199867" lon="9.963787794951916"><ele>235.57142857142856</ele><time>2026-04-18T09:21:14.999Z</time></trkpt><trkpt lat="44.59795319704771" lon="9.963729644807072"><ele>235.85714285714283</ele><time>2026-04-18T09:21:15.999Z</time></trkpt><trkpt lat="44.59790179187594" lon="9.96367216612498"><ele>236.1428571428571</ele><time>2026-04-18T09:21:16.999Z</time></trkpt><trkpt lat="44.59785055344978" lon="9.963611661305952"><ele>236.42857142857142</ele><time>2026-04-18T09:21:17.999Z</time></trkpt><trkpt lat="44.597795540069" lon="9.963550539250972"><ele>236.71428571428567</ele><time>2026-04-18T09:21:18.999Z</time></trkpt><trkpt lat="44.597740117887334" lon="9.963490456991817"><ele>236.99999999999997</ele><time>2026-04-18T09:21:19.999Z</time></trkpt><trkpt lat="44.59768606337835" lon="9.963430868097543"><ele>236.99999999999997</ele><time>2026-04-18T09:21:20.999Z</time></trkpt><trkpt lat="44.59763305356666" lon="9.963372067820632"><ele>237.0</ele><time>2026-04-18T09:21:21.999Z</time></trkpt><trkpt lat="44.59757886576346" lon="9.963309901603282"><ele>236.99999999999997</ele><time>2026-04-18T09:21:22.999Z</time></trkpt><trkpt lat="44.59752760054004" lon="9.963249317583431"><ele>236.99999999999997</ele><time>2026-04-18T09:21:23.999Z</time></trkpt><trkpt lat="44.5974763866511" lon="9.963188375160598"><ele>237.0</ele><time>2026-04-18T09:21:24.999Z</time></trkpt><trkpt lat="44.597420677304534" lon="9.963125142694892"><ele>236.99999999999997</ele><time>2026-04-18T09:21:25.999Z</time></trkpt><trkpt lat="44.59736725162943" lon="9.963062370785345"><ele>236.99999999999997</ele><time>2026-04-18T09:21:26.999Z</time></trkpt><trkpt lat="44.59731099785413" lon="9.96300031395378"><ele>236.99999999999997</ele><time>2026-04-18T09:21:27.999Z</time></trkpt><trkpt lat="44.59725693837455" lon="9.962938109265451"><ele>237.0</ele><time>2026-04-18T09:21:28.999Z</time></trkpt><trkpt lat="44.59720257284031" lon="9.96287475848512"><ele>236.99999999999997</ele><time>2026-04-18T09:21:29.999Z</time></trkpt><trkpt lat="44.59714857730479" lon="9.962812278855312"><ele>236.99999999999997</ele><time>2026-04-18T09:21:30.999Z</time></trkpt><trkpt lat="44.5970949801771" lon="9.962748235945641"><ele>237.0</ele><time>2026-04-18T09:21:31.999Z</time></trkpt><trkpt lat="44.597038842138716" lon="9.962685755255844"><ele>236.99999999999997</ele><time>2026-04-18T09:21:32.999Z</time></trkpt><trkpt lat="44.596986062437985" lon="9.962621401476262"><ele>236.99999999999997</ele><time>2026-04-18T09:21:33.999Z</time></trkpt><trkpt lat="44.59692781089958" lon="9.96256097682106"><ele>237.57142857142856</ele><time>2026-04-18T09:21:34.999Z</time></trkpt><trkpt lat="44.596873814930916" lon="9.962496208626096"><ele>238.14285714285714</ele><time>2026-04-18T09:21:35.999Z</time></trkpt><trkpt lat="44.59681926744629" lon="9.962433578182715"><ele>238.71428571428572</ele><time>2026-04-18T09:21:36.999Z</time></trkpt><trkpt lat="44.59676352987027" lon="9.962374959599256"><ele>239.28571428571428</ele><time>2026-04-18T09:21:37.999Z</time></trkpt><trkpt lat="44.596710462366474" lon="9.962312810789975"><ele>239.8571428571429</ele><time>2026-04-18T09:21:38.999Z</time></trkpt><trkpt lat="44.59665658706305" lon="9.962249377199248"><ele>240.42857142857144</ele><time>2026-04-18T09:21:39.999Z</time></trkpt><trkpt lat="44.59660227764149" lon="9.962183835441762"><ele>241.0</ele><time>2026-04-18T09:21:40.998Z</time></trkpt><trkpt lat="44.59654598401279" lon="9.962117837781868"><ele>241.0</ele><time>2026-04-18T09:21:41.998Z</time></trkpt><trkpt lat="44.59649343964502" lon="9.962047709813644"><ele>241.00000000000003</ele><time>2026-04-18T09:21:42.998Z</time></trkpt><trkpt lat="44.59644001199673" lon="9.961979643627629"><ele>241.0</ele><time>2026-04-18T09:21:43.998Z</time></trkpt><trkpt lat="44.59639029148316" lon="9.961905076916365"><ele>241.0</ele><time>2026-04-18T09:21:44.998Z</time></trkpt><trkpt lat="44.59634299085398" lon="9.961829364989827"><ele>241.00000000000003</ele><time>2026-04-18T09:21:45.998Z</time></trkpt><trkpt lat="44.596291601568865" lon="9.961758384443424"><ele>241.0</ele><time>2026-04-18T09:21:46.998Z</time></trkpt><trkpt lat="44.59623997816448" lon="9.961690256371984"><ele>241.0</ele><time>2026-04-18T09:21:47.998Z</time></trkpt><trkpt lat="44.59619251585486" lon="9.96162022969215"><ele>241.0</ele><time>2026-04-18T09:21:48.998Z</time></trkpt><trkpt lat="44.59614532795106" lon="9.961548395857061"><ele>241.00000000000003</ele><time>2026-04-18T09:21:49.998Z</time></trkpt><trkpt lat="44.59610107046284" lon="9.96147349886819"><ele>241.0</ele><time>2026-04-18T09:21:50.998Z</time></trkpt><trkpt lat="44.596053971122664" lon="9.961400502005542"><ele>241.0</ele><time>2026-04-18T09:21:51.998Z</time></trkpt><trkpt lat="44.596011175315105" lon="9.961324966214475"><ele>241.00000000000003</ele><time>2026-04-18T09:21:52.998Z</time></trkpt><trkpt lat="44.595967086845555" lon="9.961251671443257"><ele>241.0</ele><time>2026-04-18T09:21:53.998Z</time></trkpt><trkpt lat="44.59592662826508" lon="9.961174345978474"><ele>241.0</ele><time>2026-04-18T09:21:54.998Z</time></trkpt><trkpt lat="44.595891203992885" lon="9.961096861896909"><ele>241.0</ele><time>2026-04-18T09:21:55.998Z</time></trkpt><trkpt lat="44.59585271482565" lon="9.961018374290171"><ele>241.00000000000003</ele><time>2026-04-18T09:21:56.998Z</time></trkpt><trkpt lat="44.59581415113136" lon="9.96093925898029"><ele>241.0</ele><time>2026-04-18T09:21:57.998Z</time></trkpt><trkpt lat="44.59578067613708" lon="9.960858633120516"><ele>241.0</ele><time>2026-04-18T09:21:58.998Z</time></trkpt><trkpt lat="44.595744338200795" lon="9.960779701687695"><ele>241.00000000000003</ele><time>2026-04-18T09:21:59.998Z</time></trkpt><trkpt lat="44.59571246718704" lon="9.960694363743215"><ele>241.0</ele><time>2026-04-18T09:22:00.998Z</time></trkpt><trkpt lat="44.59568061874258" lon="9.960611582327372"><ele>241.0</ele><time>2026-04-18T09:22:01.998Z</time></trkpt><trkpt lat="44.59564825335429" lon="9.96052670299758"><ele>242.0</ele><time>2026-04-18T09:22:02.998Z</time></trkpt><trkpt lat="44.59561695479485" lon="9.960443854647538"><ele>243.00000000000003</ele><time>2026-04-18T09:22:03.998Z</time></trkpt><trkpt lat="44.595585657483355" lon="9.960361317147816"><ele>244.0</ele><time>2026-04-18T09:22:04.998Z</time></trkpt><trkpt lat="44.59555868289706" lon="9.9602747205634"><ele>245.0</ele><time>2026-04-18T09:22:05.998Z</time></trkpt><trkpt lat="44.595529323955226" lon="9.96018747883872"><ele>246.00000000000003</ele><time>2026-04-18T09:22:06.998Z</time></trkpt><trkpt lat="44.59549970429318" lon="9.96010178987851"><ele>247.0</ele><time>2026-04-18T09:22:07.998Z</time></trkpt><trkpt lat="44.5954744148661" lon="9.96001497179356"><ele>248.0</ele><time>2026-04-18T09:22:08.998Z</time></trkpt><trkpt lat="44.59544878456437" lon="9.959922897599844"><ele>248.2857142857143</ele><time>2026-04-18T09:22:09.998Z</time></trkpt><trkpt lat="44.5954256895866" lon="9.959832571597005"><ele>248.5714285714286</ele><time>2026-04-18T09:22:10.998Z</time></trkpt><trkpt lat="44.59540304556019" lon="9.959740107696796"><ele>248.85714285714286</ele><time>2026-04-18T09:22:11.998Z</time></trkpt><trkpt lat="44.59538240496371" lon="9.959648788728009"><ele>249.14285714285717</ele><time>2026-04-18T09:22:12.998Z</time></trkpt><trkpt lat="44.595354334658744" lon="9.959556758825691"><ele>249.42857142857144</ele><time>2026-04-18T09:22:13.998Z</time></trkpt><trkpt lat="44.595330344173234" lon="9.9594646379921"><ele>249.71428571428572</ele><time>2026-04-18T09:22:14.998Z</time></trkpt><trkpt lat="44.595306969428265" lon="9.95936889711812"><ele>250.0</ele><time>2026-04-18T09:22:15.998Z</time></trkpt><trkpt lat="44.59528148594766" lon="9.959273571004443"><ele>248.33333333333331</ele><time>2026-04-18T09:22:16.998Z</time></trkpt><trkpt lat="44.59525061549356" lon="9.959175303834305"><ele>246.66666666666666</ele><time>2026-04-18T09:22:17.998Z</time></trkpt><trkpt lat="44.59522099345821" lon="9.95907670611249"><ele>245.0</ele><time>2026-04-18T09:22:18.998Z</time></trkpt><trkpt lat="44.5951921144146" lon="9.95897845482622"><ele>243.33333333333331</ele><time>2026-04-18T09:22:19.998Z</time></trkpt><trkpt lat="44.59516410807535" lon="9.958874328453087"><ele>241.66666666666666</ele><time>2026-04-18T09:22:20.998Z</time></trkpt><trkpt lat="44.595138911750105" lon="9.958774052675636"><ele>240.0</ele><time>2026-04-18T09:22:21.998Z</time></trkpt><trkpt lat="44.59511302811955" lon="9.958675908131072"><ele>240.0</ele><time>2026-04-18T09:22:22.998Z</time></trkpt><trkpt lat="44.59509104533327" lon="9.958576810025116"><ele>240.0</ele><time>2026-04-18T09:22:23.998Z</time></trkpt><trkpt lat="44.595066373281654" lon="9.958477786934692"><ele>240.0</ele><time>2026-04-18T09:22:24.998Z</time></trkpt><trkpt lat="44.59502967827094" lon="9.958384873953165"><ele>240.0</ele><time>2026-04-18T09:22:25.998Z</time></trkpt><trkpt lat="44.59500375924581" lon="9.958286430526263"><ele>240.0</ele><time>2026-04-18T09:22:27Z</time></trkpt><trkpt lat="44.59497898349935" lon="9.958189840974635"><ele>240.0</ele><time>2026-04-18T09:22:28Z</time></trkpt><trkpt lat="44.594954289881194" lon="9.95809441477145"><ele>240.0</ele><time>2026-04-18T09:22:29Z</time></trkpt><trkpt lat="44.59492888485094" lon="9.957994340688979"><ele>241.0</ele><time>2026-04-18T09:22:30Z</time></trkpt><trkpt lat="44.59490267024883" lon="9.95789086391542"><ele>242.0</ele><time>2026-04-18T09:22:31Z</time></trkpt><trkpt lat="44.59487775953945" lon="9.957792534087854"><ele>243.0</ele><time>2026-04-18T09:22:32Z</time></trkpt><trkpt lat="44.594852308926036" lon="9.957692073204818"><ele>244.0</ele><time>2026-04-18T09:22:33Z</time></trkpt><trkpt lat="44.594842305233655" lon="9.957587790966734"><ele>245.0</ele><time>2026-04-18T09:22:34Z</time></trkpt><trkpt lat="44.59481508262925" lon="9.95749058939435"><ele>246.0</ele><time>2026-04-18T09:22:35Z</time></trkpt><trkpt lat="44.5947863511124" lon="9.957397593389251"><ele>246.71428571428575</ele><time>2026-04-18T09:22:36Z</time></trkpt><trkpt lat="44.594762049736985" lon="9.957307154358826"><ele>247.42857142857144</ele><time>2026-04-18T09:22:37Z</time></trkpt><trkpt lat="44.594736699691765" lon="9.957211966633448"><ele>248.14285714285714</ele><time>2026-04-18T09:22:38Z</time></trkpt><trkpt lat="44.59471235141574" lon="9.957124881402642"><ele>248.85714285714286</ele><time>2026-04-18T09:22:39Z</time></trkpt><trkpt lat="44.5946818335941" lon="9.957037167751865"><ele>249.57142857142856</ele><time>2026-04-18T09:22:40Z</time></trkpt><trkpt lat="44.59465574382042" lon="9.956950425673996"><ele>250.28571428571425</ele><time>2026-04-18T09:22:41Z</time></trkpt><trkpt lat="44.594629362923705" lon="9.95686368522543"><ele>250.99999999999997</ele><time>2026-04-18T09:22:42Z</time></trkpt><trkpt lat="44.59459218100575" lon="9.95677878019393"><ele>251.71428571428567</ele><time>2026-04-18T09:22:43Z</time></trkpt><trkpt lat="44.59455713549469" lon="9.956694561886145"><ele>252.42857142857142</ele><time>2026-04-18T09:22:44Z</time></trkpt><trkpt lat="44.594522709407656" lon="9.956615161654618"><ele>253.1428571428571</ele><time>2026-04-18T09:22:45Z</time></trkpt><trkpt lat="44.59448940406464" lon="9.956531250636981"><ele>253.85714285714283</ele><time>2026-04-18T09:22:46Z</time></trkpt><trkpt lat="44.594453652185834" lon="9.95644811394332"><ele>254.57142857142856</ele><time>2026-04-18T09:22:47Z</time></trkpt><trkpt lat="44.594419967998085" lon="9.956367674942909"><ele>255.28571428571428</ele><time>2026-04-18T09:22:48Z</time></trkpt><trkpt lat="44.5943822253764" lon="9.95628738914566"><ele>256.0</ele><time>2026-04-18T09:22:49Z</time></trkpt><trkpt lat="44.59434424515974" lon="9.956209527686841"><ele>254.85714285714283</ele><time>2026-04-18T09:22:50Z</time></trkpt><trkpt lat="44.594304068550564" lon="9.956126347067027"><ele>253.7142857142857</ele><time>2026-04-18T09:22:51Z</time></trkpt><trkpt lat="44.594264749115865" lon="9.956042224829476"><ele>252.57142857142856</ele><time>2026-04-18T09:22:52Z</time></trkpt><trkpt lat="44.594224623240294" lon="9.955959513044553"><ele>251.42857142857144</ele><time>2026-04-18T09:22:53Z</time></trkpt><trkpt lat="44.59418866858024" lon="9.95587438905497"><ele>250.2857142857143</ele><time>2026-04-18T09:22:54Z</time></trkpt><trkpt lat="44.59414928115186" lon="9.955791911938586"><ele>249.14285714285717</ele><time>2026-04-18T09:22:54.999Z</time></trkpt><trkpt lat="44.59411117716439" lon="9.955703912056284"><ele>248.0</ele><time>2026-04-18T09:22:55.999Z</time></trkpt><trkpt lat="44.59407226711422" lon="9.955617423103666"><ele>248.0</ele><time>2026-04-18T09:22:56.999Z</time></trkpt><trkpt lat="44.594033751301446" lon="9.95552891276237"><ele>248.00000000000003</ele><time>2026-04-18T09:22:57.999Z</time></trkpt><trkpt lat="44.59399714938702" lon="9.955443935279911"><ele>248.0</ele><time>2026-04-18T09:22:58.999Z</time></trkpt><trkpt lat="44.59396154841179" lon="9.955359550662065"><ele>248.0</ele><time>2026-04-18T09:22:59.999Z</time></trkpt><trkpt lat="44.5939254569265" lon="9.955276558350986"><ele>248.00000000000003</ele><time>2026-04-18T09:23:00.999Z</time></trkpt><trkpt lat="44.59389197000812" lon="9.955195450322318"><ele>248.0</ele><time>2026-04-18T09:23:01.999Z</time></trkpt><trkpt lat="44.59385439876785" lon="9.955115956087223"><ele>248.0</ele><time>2026-04-18T09:23:02.999Z</time></trkpt><trkpt lat="44.5938192838721" lon="9.955035953767387"><ele>247.0</ele><time>2026-04-18T09:23:03.999Z</time></trkpt><trkpt lat="44.59378127409712" lon="9.954958566225546"><ele>246.00000000000003</ele><time>2026-04-18T09:23:04.999Z</time></trkpt><trkpt lat="44.593744332373646" lon="9.954878229784818"><ele>245.0</ele><time>2026-04-18T09:23:05.999Z</time></trkpt><trkpt lat="44.593707209318254" lon="9.954802743159629"><ele>244.0</ele><time>2026-04-18T09:23:06.999Z</time></trkpt><trkpt lat="44.59366806390276" lon="9.954724079542656"><ele>243.00000000000003</ele><time>2026-04-18T09:23:07.999Z</time></trkpt><trkpt lat="44.59363143435201" lon="9.954643786788878"><ele>242.0</ele><time>2026-04-18T09:23:08.999Z</time></trkpt><trkpt lat="44.59359435726816" lon="9.9545627202737"><ele>241.0</ele><time>2026-04-18T09:23:09.999Z</time></trkpt><trkpt lat="44.593557736283785" lon="9.954477825009407"><ele>240.99999999999997</ele><time>2026-04-18T09:23:10.999Z</time></trkpt><trkpt lat="44.5935222287592" lon="9.954391555125136"><ele>241.0</ele><time>2026-04-18T09:23:11.999Z</time></trkpt><trkpt lat="44.593481756797665" lon="9.95430267098583"><ele>241.0</ele><time>2026-04-18T09:23:12.999Z</time></trkpt><trkpt lat="44.593441902102825" lon="9.954211385447769"><ele>241.0</ele><time>2026-04-18T09:23:13.999Z</time></trkpt><trkpt lat="44.593402949231255" lon="9.954119841816727"><ele>240.99999999999997</ele><time>2026-04-18T09:23:14.999Z</time></trkpt><trkpt lat="44.59336164047719" lon="9.954024142755614"><ele>241.0</ele><time>2026-04-18T09:23:15.999Z</time></trkpt><trkpt lat="44.59332369336359" lon="9.95393524710757"><ele>241.83333333333331</ele><time>2026-04-18T09:23:16.999Z</time></trkpt><trkpt lat="44.59328771748078" lon="9.95384603335102"><ele>242.66666666666666</ele><time>2026-04-18T09:23:17.999Z</time></trkpt><trkpt lat="44.59324974974933" lon="9.953759731704706"><ele>243.5</ele><time>2026-04-18T09:23:18.999Z</time></trkpt><trkpt lat="44.59321007048132" lon="9.953667555205271"><ele>244.33333333333331</ele><time>2026-04-18T09:23:19.999Z</time></trkpt><trkpt lat="44.593163785677376" lon="9.953578740406375"><ele>245.16666666666666</ele><time>2026-04-18T09:23:20.999Z</time></trkpt><trkpt lat="44.59312498660881" lon="9.95348927593039"><ele>246.0</ele><time>2026-04-18T09:23:21.999Z</time></trkpt><trkpt lat="44.593083151737126" lon="9.953394005183988"><ele>246.8571428571429</ele><time>2026-04-18T09:23:22.999Z</time></trkpt><trkpt lat="44.59304366300699" lon="9.953300850886151"><ele>247.71428571428572</ele><time>2026-04-18T09:23:23.999Z</time></trkpt><trkpt lat="44.59300473772018" lon="9.953210291344673"><ele>248.57142857142858</ele><time>2026-04-18T09:23:24.999Z</time></trkpt><trkpt lat="44.592964990588754" lon="9.953122777737104"><ele>249.42857142857144</ele><time>2026-04-18T09:23:25.999Z</time></trkpt><trkpt lat="44.59292646170648" lon="9.953032840059509"><ele>250.28571428571428</ele><time>2026-04-18T09:23:26.999Z</time></trkpt><trkpt lat="44.592887273673725" lon="9.952946255075663"><ele>251.14285714285714</ele><time>2026-04-18T09:23:27.999Z</time></trkpt><trkpt lat="44.59284793058087" lon="9.95286318951769"><ele>252.0</ele><time>2026-04-18T09:23:28.999Z</time></trkpt><trkpt lat="44.59280807636721" lon="9.952781648689278"><ele>251.0</ele><time>2026-04-18T09:23:29.999Z</time></trkpt><trkpt lat="44.59277118026107" lon="9.952696629229617"><ele>250.0</ele><time>2026-04-18T09:23:30.999Z</time></trkpt><trkpt lat="44.59273163410176" lon="9.95261338076027"><ele>249.0</ele><time>2026-04-18T09:23:31.999Z</time></trkpt><trkpt lat="44.59269751313687" lon="9.952532280637458"><ele>248.0</ele><time>2026-04-18T09:23:32.999Z</time></trkpt><trkpt lat="44.59266051006079" lon="9.952449007985049"><ele>247.0</ele><time>2026-04-18T09:23:33.999Z</time></trkpt><trkpt lat="44.59262652433983" lon="9.95236645362181"><ele>246.0</ele><time>2026-04-18T09:23:34.999Z</time></trkpt><trkpt lat="44.592586691502625" lon="9.952282673895422"><ele>245.0</ele><time>2026-04-18T09:23:35.999Z</time></trkpt><trkpt lat="44.59254888240149" lon="9.952200260693928"><ele>245.0</ele><time>2026-04-18T09:23:36.999Z</time></trkpt><trkpt lat="44.592513942703185" lon="9.952118417035132"><ele>245.0</ele><time>2026-04-18T09:23:37.999Z</time></trkpt><trkpt lat="44.59247841449118" lon="9.952037103808657"><ele>245.0</ele><time>2026-04-18T09:23:38.999Z</time></trkpt><trkpt lat="44.59244075564782" lon="9.951955375688026"><ele>245.0</ele><time>2026-04-18T09:23:39.999Z</time></trkpt><trkpt lat="44.59240558741493" lon="9.95187600111432"><ele>245.0</ele><time>2026-04-18T09:23:40.999Z</time></trkpt><trkpt lat="44.59237184357721" lon="9.951794909346873"><ele>245.0</ele><time>2026-04-18T09:23:41.999Z</time></trkpt><trkpt lat="44.59233091954701" lon="9.95171801776618"><ele>245.0</ele><time>2026-04-18T09:23:42.999Z</time></trkpt><trkpt lat="44.592298951363425" lon="9.951638296121843"><ele>245.71428571428572</ele><time>2026-04-18T09:23:43.999Z</time></trkpt><trkpt lat="44.59226575942582" lon="9.95155635475643"><ele>246.42857142857144</ele><time>2026-04-18T09:23:44.999Z</time></trkpt><trkpt lat="44.59223282863933" lon="9.951476137630486"><ele>247.14285714285714</ele><time>2026-04-18T09:23:45.999Z</time></trkpt><trkpt lat="44.592198257449965" lon="9.951396735068117"><ele>247.85714285714286</ele><time>2026-04-18T09:23:46.999Z</time></trkpt><trkpt lat="44.59216173203597" lon="9.951315407244016"><ele>248.57142857142858</ele><time>2026-04-18T09:23:47.998Z</time></trkpt><trkpt lat="44.59212545969189" lon="9.951232249049873"><ele>249.28571428571428</ele><time>2026-04-18T09:23:48.998Z</time></trkpt><trkpt lat="44.592091840780775" lon="9.951149894646862"><ele>250.0</ele><time>2026-04-18T09:23:49.998Z</time></trkpt><trkpt lat="44.592051484682045" lon="9.951071242755782"><ele>250.0</ele><time>2026-04-18T09:23:50.998Z</time></trkpt><trkpt lat="44.592014361466084" lon="9.9509906256297"><ele>250.0</ele><time>2026-04-18T09:23:51.998Z</time></trkpt><trkpt lat="44.59198018820322" lon="9.950910792128418"><ele>250.0</ele><time>2026-04-18T09:23:52.998Z</time></trkpt><trkpt lat="44.59194468437647" lon="9.950832155394027"><ele>250.0</ele><time>2026-04-18T09:23:53.998Z</time></trkpt><trkpt lat="44.59191030838905" lon="9.950754188598562"><ele>250.0</ele><time>2026-04-18T09:23:54.998Z</time></trkpt><trkpt lat="44.59187453602666" lon="9.950675501091958"><ele>250.0</ele><time>2026-04-18T09:23:55.998Z</time></trkpt><trkpt lat="44.591841402688424" lon="9.950592716741603"><ele>250.0</ele><time>2026-04-18T09:23:56.998Z</time></trkpt><trkpt lat="44.59180254048936" lon="9.9505149368842"><ele>249.42857142857142</ele><time>2026-04-18T09:23:57.998Z</time></trkpt><trkpt lat="44.591764435669994" lon="9.950437714748594"><ele>248.8571428571429</ele><time>2026-04-18T09:23:58.998Z</time></trkpt><trkpt lat="44.59172478437533" lon="9.950359999919131"><ele>248.2857142857143</ele><time>2026-04-18T09:23:59.998Z</time></trkpt><trkpt lat="44.59168434290689" lon="9.950286198799295"><ele>247.71428571428572</ele><time>2026-04-18T09:24:00.998Z</time></trkpt><trkpt lat="44.59163834447193" lon="9.950214992865385"><ele>247.14285714285717</ele><time>2026-04-18T09:24:01.998Z</time></trkpt><trkpt lat="44.5915951100575" lon="9.95014665844132"><ele>246.5714285714286</ele><time>2026-04-18T09:24:02.998Z</time></trkpt><trkpt lat="44.59154877751141" lon="9.950085469726579"><ele>246.00000000000003</ele><time>2026-04-18T09:24:03.998Z</time></trkpt><trkpt lat="44.591496950450114" lon="9.950024068791981"><ele>246.00000000000003</ele><time>2026-04-18T09:24:04.998Z</time></trkpt><trkpt lat="44.59144645906091" lon="9.949960515179876"><ele>246.0</ele><time>2026-04-18T09:24:05.998Z</time></trkpt><trkpt lat="44.59139093334139" lon="9.949900095725505"><ele>246.00000000000003</ele><time>2026-04-18T09:24:06.998Z</time></trkpt><trkpt lat="44.59134260490276" lon="9.949837282369703"><ele>246.00000000000003</ele><time>2026-04-18T09:24:07.998Z</time></trkpt><trkpt lat="44.59128986486941" lon="9.949779595966369"><ele>246.0</ele><time>2026-04-18T09:24:08.998Z</time></trkpt><trkpt lat="44.591239248631915" lon="9.949716032669826"><ele>246.00000000000003</ele><time>2026-04-18T09:24:09.998Z</time></trkpt><trkpt lat="44.59118900915851" lon="9.949654926978143"><ele>246.00000000000003</ele><time>2026-04-18T09:24:10.998Z</time></trkpt><trkpt lat="44.591137846099905" lon="9.949592496262959"><ele>246.00000000000003</ele><time>2026-04-18T09:24:11.998Z</time></trkpt><trkpt lat="44.59108482968513" lon="9.949529017896847"><ele>246.0</ele><time>2026-04-18T09:24:12.998Z</time></trkpt><trkpt lat="44.59103322627553" lon="9.94946607457982"><ele>246.00000000000003</ele><time>2026-04-18T09:24:13.998Z</time></trkpt><trkpt lat="44.59098011956969" lon="9.94940935657134"><ele>246.00000000000003</ele><time>2026-04-18T09:24:14.998Z</time></trkpt><trkpt lat="44.590930560846935" lon="9.949353064876117"><ele>246.0</ele><time>2026-04-18T09:24:15.998Z</time></trkpt><trkpt lat="44.59088018244643" lon="9.949289650994167"><ele>246.00000000000003</ele><time>2026-04-18T09:24:16.998Z</time></trkpt><trkpt lat="44.59083075623631" lon="9.949223147991441"><ele>246.00000000000003</ele><time>2026-04-18T09:24:17.998Z</time></trkpt><trkpt lat="44.59078010326996" lon="9.949158761588535"><ele>247.33333333333334</ele><time>2026-04-18T09:24:18.998Z</time></trkpt><trkpt lat="44.59072768472895" lon="9.949098403694073"><ele>248.66666666666669</ele><time>2026-04-18T09:24:19.998Z</time></trkpt><trkpt lat="44.59067779914021" lon="9.949033743862598"><ele>250.0</ele><time>2026-04-18T09:24:20.998Z</time></trkpt><trkpt lat="44.590625734557314" lon="9.948976186688276"><ele>251.33333333333334</ele><time>2026-04-18T09:24:21.998Z</time></trkpt><trkpt lat="44.5905307428241" lon="9.94885386116422"><ele>252.66666666666669</ele><time>2026-04-18T09:24:23.998Z</time></trkpt><trkpt lat="44.5904849664247" lon="9.94879189759595"><ele>254.0</ele><time>2026-04-18T09:24:24.998Z</time></trkpt><trkpt lat="44.59043528064391" lon="9.948733648517932"><ele>254.0</ele><time>2026-04-18T09:24:25.998Z</time></trkpt><trkpt lat="44.59038838262348" lon="9.948674471303173"><ele>253.99999999999997</ele><time>2026-04-18T09:24:26.998Z</time></trkpt><trkpt lat="44.590296641616234" lon="9.948555438048746"><ele>253.99999999999997</ele><time>2026-04-18T09:24:28.998Z</time></trkpt><trkpt lat="44.59020857331332" lon="9.948443730780554"><ele>254.0</ele><time>2026-04-18T09:24:30.998Z</time></trkpt><trkpt lat="44.59012015955311" lon="9.94833520492"><ele>254.0</ele><time>2026-04-18T09:24:33Z</time></trkpt><trkpt lat="44.590036802558444" lon="9.948232590564688"><ele>253.5</ele><time>2026-04-18T09:24:35Z</time></trkpt><trkpt lat="44.589956386359134" lon="9.948138058650871"><ele>253.0</ele><time>2026-04-18T09:24:37Z</time></trkpt><trkpt lat="44.58987327879371" lon="9.948037180239524"><ele>252.5</ele><time>2026-04-18T09:24:39Z</time></trkpt><trkpt lat="44.58977957231819" lon="9.947928627235415"><ele>252.0</ele><time>2026-04-18T09:24:41Z</time></trkpt><trkpt lat="44.58968908200469" lon="9.9478112492623"><ele>252.0</ele><time>2026-04-18T09:24:43Z</time></trkpt><trkpt lat="44.58960511900797" lon="9.94769293338282"><ele>252.0</ele><time>2026-04-18T09:24:45Z</time></trkpt><trkpt lat="44.58951263062877" lon="9.947571944217346"><ele>252.0</ele><time>2026-04-18T09:24:47Z</time></trkpt><trkpt lat="44.58942127823192" lon="9.947464455863981"><ele>252.0</ele><time>2026-04-18T09:24:49Z</time></trkpt><trkpt lat="44.58933078352879" lon="9.947352422750788"><ele>252.2</ele><time>2026-04-18T09:24:51Z</time></trkpt><trkpt lat="44.589229688630994" lon="9.94725437491762"><ele>252.39999999999998</ele><time>2026-04-18T09:24:53Z</time></trkpt><trkpt lat="44.58912237782959" lon="9.94717348730666"><ele>252.60000000000002</ele><time>2026-04-18T09:24:55Z</time></trkpt><trkpt lat="44.58906364211074" lon="9.947138229570609"><ele>252.8</ele><time>2026-04-18T09:24:56Z</time></trkpt><trkpt lat="44.58894784859566" lon="9.947076939587292"><ele>253.0</ele><time>2026-04-18T09:24:58Z</time></trkpt><trkpt lat="44.588833418951275" lon="9.947026430663824"><ele>253.0</ele><time>2026-04-18T09:24:59.999Z</time></trkpt><trkpt lat="44.58871969955984" lon="9.946984073436491"><ele>253.0</ele><time>2026-04-18T09:25:01.999Z</time></trkpt><trkpt lat="44.58861693911183" lon="9.94695467801099"><ele>253.0</ele><time>2026-04-18T09:25:03.999Z</time></trkpt><trkpt lat="44.58849082738757" lon="9.94691577110051"><ele>253.0</ele><time>2026-04-18T09:25:05.999Z</time></trkpt><trkpt lat="44.58837485400954" lon="9.946874932807109"><ele>252.0</ele><time>2026-04-18T09:25:07.999Z</time></trkpt><trkpt lat="44.58827252663569" lon="9.946823064288925"><ele>251.0</ele><time>2026-04-18T09:25:09.999Z</time></trkpt><trkpt lat="44.58821788607961" lon="9.94677891505359"><ele>250.0</ele><time>2026-04-18T09:25:10.999Z</time></trkpt><trkpt lat="44.58810755491676" lon="9.94670037098001"><ele>249.0</ele><time>2026-04-18T09:25:12.999Z</time></trkpt><trkpt lat="44.58800826740956" lon="9.946604537198022"><ele>248.0</ele><time>2026-04-18T09:25:14.999Z</time></trkpt><trkpt lat="44.58790977088157" lon="9.94650922320369"><ele>248.50000000000003</ele><time>2026-04-18T09:25:16.999Z</time></trkpt><trkpt lat="44.58780532697709" lon="9.946429351383522"><ele>249.0</ele><time>2026-04-18T09:25:18.999Z</time></trkpt><trkpt lat="44.587756212865195" lon="9.946371668632324"><ele>249.5</ele><time>2026-04-18T09:25:19.999Z</time></trkpt><trkpt lat="44.587651011372735" lon="9.946267748438958"><ele>250.0</ele><time>2026-04-18T09:25:21.999Z</time></trkpt><trkpt lat="44.587598982110755" lon="9.94621673510622"><ele>250.50000000000003</ele><time>2026-04-18T09:25:22.999Z</time></trkpt><trkpt lat="44.58754465651899" lon="9.946165036493964"><ele>251.0</ele><time>2026-04-18T09:25:23.999Z</time></trkpt><trkpt lat="44.587492384599635" lon="9.946110588746919"><ele>251.00000000000003</ele><time>2026-04-18T09:25:24.999Z</time></trkpt><trkpt lat="44.58743908961133" lon="9.946053206248267"><ele>251.0</ele><time>2026-04-18T09:25:25.999Z</time></trkpt><trkpt lat="44.587384619680115" lon="9.945994883084362"><ele>251.0</ele><time>2026-04-18T09:25:26.999Z</time></trkpt><trkpt lat="44.587286116611004" lon="9.945891265408447"><ele>251.0</ele><time>2026-04-18T09:25:28.999Z</time></trkpt><trkpt lat="44.58723193548219" lon="9.945837621000118"><ele>251.00000000000003</ele><time>2026-04-18T09:25:29.999Z</time></trkpt><trkpt lat="44.5871815638444" lon="9.945779449355676"><ele>251.0</ele><time>2026-04-18T09:25:30.999Z</time></trkpt><trkpt lat="44.58712508270583" lon="9.94572552085841"><ele>251.16666666666669</ele><time>2026-04-18T09:25:31.999Z</time></trkpt><trkpt lat="44.5870690253246" lon="9.945671554555062"><ele>251.33333333333334</ele><time>2026-04-18T09:25:32.999Z</time></trkpt><trkpt lat="44.58701459408843" lon="9.945615160399713"><ele>251.5</ele><time>2026-04-18T09:25:33.999Z</time></trkpt><trkpt lat="44.58691729013922" lon="9.945515763137939"><ele>251.66666666666669</ele><time>2026-04-18T09:25:35.999Z</time></trkpt><trkpt lat="44.58685892549456" lon="9.945450825663281"><ele>251.83333333333334</ele><time>2026-04-18T09:25:36.999Z</time></trkpt><trkpt lat="44.58679869021429" lon="9.945404454627974"><ele>252.0</ele><time>2026-04-18T09:25:37.999Z</time></trkpt><trkpt lat="44.586741709320904" lon="9.945351920888854"><ele>252.0</ele><time>2026-04-18T09:25:38.999Z</time></trkpt><trkpt lat="44.58668462404912" lon="9.94529162960298"><ele>252.0</ele><time>2026-04-18T09:25:39.999Z</time></trkpt><trkpt lat="44.58663589730787" lon="9.945229737233618"><ele>252.0</ele><time>2026-04-18T09:25:40.999Z</time></trkpt><trkpt lat="44.58658478887044" lon="9.94516870184862"><ele>252.0</ele><time>2026-04-18T09:25:41.999Z</time></trkpt><trkpt lat="44.5865248429928" lon="9.945112302581299"><ele>252.0</ele><time>2026-04-18T09:25:42.999Z</time></trkpt><trkpt lat="44.586468880177186" lon="9.945051505184091"><ele>252.0</ele><time>2026-04-18T09:25:43.999Z</time></trkpt><trkpt lat="44.586417364547884" lon="9.94498576650848"><ele>252.0</ele><time>2026-04-18T09:25:44.999Z</time></trkpt><trkpt lat="44.586369241315694" lon="9.944920739354378"><ele>252.28571428571428</ele><time>2026-04-18T09:25:45.999Z</time></trkpt><trkpt lat="44.58631059947667" lon="9.944856092426203"><ele>252.57142857142856</ele><time>2026-04-18T09:25:46.999Z</time></trkpt><trkpt lat="44.58625828744263" lon="9.94479157066963"><ele>252.85714285714286</ele><time>2026-04-18T09:25:47.999Z</time></trkpt><trkpt lat="44.58620698189239" lon="9.94472436038871"><ele>253.14285714285714</ele><time>2026-04-18T09:25:48.999Z</time></trkpt><trkpt lat="44.58615191520627" lon="9.944663249479397"><ele>253.42857142857142</ele><time>2026-04-18T09:25:49.999Z</time></trkpt><trkpt lat="44.586099907393454" lon="9.944601873521705"><ele>253.71428571428572</ele><time>2026-04-18T09:25:50.999Z</time></trkpt><trkpt lat="44.58604575615778" lon="9.944539133622735"><ele>254.0</ele><time>2026-04-18T09:25:51.999Z</time></trkpt><trkpt lat="44.58598915265072" lon="9.944476849758436"><ele>254.0</ele><time>2026-04-18T09:25:52.998Z</time></trkpt><trkpt lat="44.585932213532395" lon="9.94441186214551"><ele>254.0</ele><time>2026-04-18T09:25:53.998Z</time></trkpt><trkpt lat="44.58587770168715" lon="9.944348969499833"><ele>254.0</ele><time>2026-04-18T09:25:54.998Z</time></trkpt><trkpt lat="44.58582175596344" lon="9.944279240383903"><ele>254.0</ele><time>2026-04-18T09:25:55.998Z</time></trkpt><trkpt lat="44.58576467525368" lon="9.944214186254092"><ele>254.0</ele><time>2026-04-18T09:25:56.998Z</time></trkpt><trkpt lat="44.58570805486144" lon="9.944152430472942"><ele>254.0</ele><time>2026-04-18T09:25:57.998Z</time></trkpt><trkpt lat="44.58565196494579" lon="9.944091959265556"><ele>254.0</ele><time>2026-04-18T09:25:58.998Z</time></trkpt><trkpt lat="44.58559536737531" lon="9.944029049348199"><ele>253.71428571428572</ele><time>2026-04-18T09:25:59.998Z</time></trkpt><trkpt lat="44.58554230298626" lon="9.943964676198428"><ele>253.42857142857142</ele><time>2026-04-18T09:26:00.998Z</time></trkpt><trkpt lat="44.58548798682844" lon="9.943898399086677"><ele>253.14285714285714</ele><time>2026-04-18T09:26:01.998Z</time></trkpt><trkpt lat="44.5854315590163" lon="9.943829169497427"><ele>252.85714285714286</ele><time>2026-04-18T09:26:02.998Z</time></trkpt><trkpt lat="44.58537468286405" lon="9.943762692784393"><ele>252.57142857142856</ele><time>2026-04-18T09:26:03.998Z</time></trkpt><trkpt lat="44.585317851519136" lon="9.943698875063113"><ele>252.28571428571428</ele><time>2026-04-18T09:26:04.998Z</time></trkpt><trkpt lat="44.585262002697434" lon="9.943635107027278"><ele>252.0</ele><time>2026-04-18T09:26:05.998Z</time></trkpt><trkpt lat="44.5852031851641" lon="9.94357373377191"><ele>252.0</ele><time>2026-04-18T09:26:06.998Z</time></trkpt><trkpt lat="44.585145424177746" lon="9.943512514593221"><ele>252.0</ele><time>2026-04-18T09:26:07.998Z</time></trkpt><trkpt lat="44.58509217387607" lon="9.94344760292067"><ele>252.0</ele><time>2026-04-18T09:26:08.998Z</time></trkpt><trkpt lat="44.58503650654808" lon="9.943384029724793"><ele>252.0</ele><time>2026-04-18T09:26:09.998Z</time></trkpt><trkpt lat="44.584980673947676" lon="9.943324096269139"><ele>252.0</ele><time>2026-04-18T09:26:10.998Z</time></trkpt><trkpt lat="44.58491799872979" lon="9.943279500965197"><ele>252.0</ele><time>2026-04-18T09:26:11.998Z</time></trkpt><trkpt lat="44.58486754205262" lon="9.943211723199854"><ele>252.0</ele><time>2026-04-18T09:26:12.998Z</time></trkpt><trkpt lat="44.584815247122684" lon="9.943153449837153"><ele>252.0</ele><time>2026-04-18T09:26:13.998Z</time></trkpt><trkpt lat="44.58475994696844" lon="9.943092848200493"><ele>252.0</ele><time>2026-04-18T09:26:14.998Z</time></trkpt><trkpt lat="44.584707604742256" lon="9.943031339705199"><ele>252.0</ele><time>2026-04-18T09:26:15.998Z</time></trkpt><trkpt lat="44.584653810450284" lon="9.942972434101664"><ele>252.0</ele><time>2026-04-18T09:26:16.998Z</time></trkpt><trkpt lat="44.58459701725682" lon="9.942915031257435"><ele>252.0</ele><time>2026-04-18T09:26:17.998Z</time></trkpt><trkpt lat="44.584534893451945" lon="9.942873361192076"><ele>252.0</ele><time>2026-04-18T09:26:18.998Z</time></trkpt><trkpt lat="44.584469454244505" lon="9.942829701430501"><ele>252.0</ele><time>2026-04-18T09:26:19.998Z</time></trkpt><trkpt lat="44.58440649589445" lon="9.942787510354934"><ele>252.0</ele><time>2026-04-18T09:26:20.998Z</time></trkpt><trkpt lat="44.58434568155378" lon="9.942728293813643"><ele>252.0</ele><time>2026-04-18T09:26:21.998Z</time></trkpt><trkpt lat="44.584283411968855" lon="9.942690750125584"><ele>252.0</ele><time>2026-04-18T09:26:22.998Z</time></trkpt><trkpt lat="44.584219860710434" lon="9.942655330364051"><ele>252.0</ele><time>2026-04-18T09:26:23.998Z</time></trkpt><trkpt lat="44.5841569710499" lon="9.942620832640754"><ele>252.0</ele><time>2026-04-18T09:26:24.998Z</time></trkpt><trkpt lat="44.58409526535194" lon="9.942587314335128"><ele>252.0</ele><time>2026-04-18T09:26:25.998Z</time></trkpt><trkpt lat="44.58403273121163" lon="9.942553171740922"><ele>252.0</ele><time>2026-04-18T09:26:26.998Z</time></trkpt><trkpt lat="44.58397206462586" lon="9.942520048822605"><ele>252.42857142857144</ele><time>2026-04-18T09:26:27.998Z</time></trkpt><trkpt lat="44.58390897558497" lon="9.942485603253642"><ele>252.85714285714286</ele><time>2026-04-18T09:26:28.998Z</time></trkpt><trkpt lat="44.583846519472694" lon="9.94244995052693"><ele>253.28571428571428</ele><time>2026-04-18T09:26:29.998Z</time></trkpt><trkpt lat="44.58378893426197" lon="9.94241092243706"><ele>253.71428571428572</ele><time>2026-04-18T09:26:30.998Z</time></trkpt><trkpt lat="44.58373372456831" lon="9.942364790210267"><ele>254.14285714285717</ele><time>2026-04-18T09:26:31.998Z</time></trkpt><trkpt lat="44.58367191334784" lon="9.942327132422882"><ele>254.57142857142858</ele><time>2026-04-18T09:26:32.998Z</time></trkpt><trkpt lat="44.58362630078287" lon="9.942263987972982"><ele>255.0</ele><time>2026-04-18T09:26:33.998Z</time></trkpt><trkpt lat="44.583577100574736" lon="9.942201421682366"><ele>255.0</ele><time>2026-04-18T09:26:34.998Z</time></trkpt><trkpt lat="44.58351814917842" lon="9.942151933163219"><ele>255.00000000000003</ele><time>2026-04-18T09:26:35.998Z</time></trkpt><trkpt lat="44.58345559513609" lon="9.942109882993202"><ele>255.0</ele><time>2026-04-18T09:26:36.998Z</time></trkpt><trkpt lat="44.58338830741411" lon="9.942076009745747"><ele>255.0</ele><time>2026-04-18T09:26:37.998Z</time></trkpt><trkpt lat="44.583324330327336" lon="9.94204321555201"><ele>255.00000000000003</ele><time>2026-04-18T09:26:39Z</time></trkpt><trkpt lat="44.58326014934003" lon="9.942012976458635"><ele>255.0</ele><time>2026-04-18T09:26:40Z</time></trkpt><trkpt lat="44.58319199621581" lon="9.94198783226195"><ele>255.0</ele><time>2026-04-18T09:26:41Z</time></trkpt><trkpt lat="44.583125138727" lon="9.94196002158501"><ele>255.0</ele><time>2026-04-18T09:26:42Z</time></trkpt><trkpt lat="44.583062219146335" lon="9.941926192710147"><ele>255.00000000000003</ele><time>2026-04-18T09:26:43Z</time></trkpt><trkpt lat="44.58299452118062" lon="9.941897036820418"><ele>255.0</ele><time>2026-04-18T09:26:44Z</time></trkpt><trkpt lat="44.582930989608684" lon="9.941863661298337"><ele>255.0</ele><time>2026-04-18T09:26:45Z</time></trkpt><trkpt lat="44.58286296223079" lon="9.941836016391361"><ele>255.00000000000003</ele><time>2026-04-18T09:26:46Z</time></trkpt><trkpt lat="44.58279792680293" lon="9.941801179707955"><ele>255.0</ele><time>2026-04-18T09:26:47Z</time></trkpt><trkpt lat="44.582730005629315" lon="9.941768566058702"><ele>255.0</ele><time>2026-04-18T09:26:48Z</time></trkpt><trkpt lat="44.58266168792215" lon="9.941740233597793"><ele>255.57142857142858</ele><time>2026-04-18T09:26:49Z</time></trkpt><trkpt lat="44.58259591222814" lon="9.941706051391868"><ele>256.14285714285717</ele><time>2026-04-18T09:26:50Z</time></trkpt><trkpt lat="44.58252980232286" lon="9.94167823859412"><ele>256.7142857142857</ele><time>2026-04-18T09:26:51Z</time></trkpt><trkpt lat="44.582465542679024" lon="9.941647010268856"><ele>257.2857142857143</ele><time>2026-04-18T09:26:52Z</time></trkpt><trkpt lat="44.58239799678311" lon="9.941615922118755"><ele>257.8571428571429</ele><time>2026-04-18T09:26:53Z</time></trkpt><trkpt lat="44.58233136767975" lon="9.941586939744443"><ele>258.42857142857144</ele><time>2026-04-18T09:26:54Z</time></trkpt><trkpt lat="44.58226156669034" lon="9.941555321542468"><ele>259.0</ele><time>2026-04-18T09:26:55Z</time></trkpt><trkpt lat="44.58219521966268" lon="9.941525735301479"><ele>259.0</ele><time>2026-04-18T09:26:56Z</time></trkpt><trkpt lat="44.58212726109061" lon="9.941485282484567"><ele>259.0</ele><time>2026-04-18T09:26:57Z</time></trkpt><trkpt lat="44.58206218412133" lon="9.941452447797518"><ele>259.0</ele><time>2026-04-18T09:26:58Z</time></trkpt><trkpt lat="44.58199900868802" lon="9.941418210762196"><ele>259.0</ele><time>2026-04-18T09:26:59Z</time></trkpt><trkpt lat="44.581933851482255" lon="9.941401134334166"><ele>259.0</ele><time>2026-04-18T09:27:00Z</time></trkpt><trkpt lat="44.581872270038666" lon="9.941352866018947"><ele>259.0</ele><time>2026-04-18T09:27:01Z</time></trkpt><trkpt lat="44.58180525718192" lon="9.94139219022415"><ele>259.0</ele><time>2026-04-18T09:27:02Z</time></trkpt><trkpt lat="44.58174269387935" lon="9.94141251743154"><ele>259.57142857142856</ele><time>2026-04-18T09:27:02.999Z</time></trkpt><trkpt lat="44.58168034981529" lon="9.941443218459238"><ele>260.1428571428571</ele><time>2026-04-18T09:27:03.999Z</time></trkpt><trkpt lat="44.581619273258816" lon="9.94147918107887"><ele>260.7142857142857</ele><time>2026-04-18T09:27:04.999Z</time></trkpt><trkpt lat="44.5815557872084" lon="9.941521801844853"><ele>261.2857142857143</ele><time>2026-04-18T09:27:05.999Z</time></trkpt><trkpt lat="44.58149769489754" lon="9.941560817893023"><ele>261.85714285714283</ele><time>2026-04-18T09:27:06.999Z</time></trkpt><trkpt lat="44.58144416242657" lon="9.941614151308292"><ele>262.42857142857144</ele><time>2026-04-18T09:27:07.999Z</time></trkpt><trkpt lat="44.581384510980946" lon="9.941653093538209"><ele>263.0</ele><time>2026-04-18T09:27:08.999Z</time></trkpt><trkpt lat="44.58130996171365" lon="9.941668795733465"><ele>263.0</ele><time>2026-04-18T09:27:09.999Z</time></trkpt><trkpt lat="44.58125398132764" lon="9.941712717151107"><ele>263.0</ele><time>2026-04-18T09:27:10.999Z</time></trkpt><trkpt lat="44.58119469268958" lon="9.941755797770798"><ele>263.0</ele><time>2026-04-18T09:27:11.999Z</time></trkpt><trkpt lat="44.5811366537172" lon="9.941796346531222"><ele>263.0</ele><time>2026-04-18T09:27:12.999Z</time></trkpt><trkpt lat="44.58107814855238" lon="9.941834510980872"><ele>263.0</ele><time>2026-04-18T09:27:13.999Z</time></trkpt><trkpt lat="44.580956770825324" lon="9.941900017590251"><ele>263.0</ele><time>2026-04-18T09:27:15.999Z</time></trkpt><trkpt lat="44.58089330906941" lon="9.941931131164726"><ele>262.1666666666667</ele><time>2026-04-18T09:27:16.999Z</time></trkpt><trkpt lat="44.580829319893894" lon="9.941958246381065"><ele>261.33333333333337</ele><time>2026-04-18T09:27:17.999Z</time></trkpt><trkpt lat="44.58071015497851" lon="9.942002381774268"><ele>260.5</ele><time>2026-04-18T09:27:19.999Z</time></trkpt><trkpt lat="44.58064400616438" lon="9.942024687470182"><ele>259.6666666666667</ele><time>2026-04-18T09:27:20.999Z</time></trkpt><trkpt lat="44.58057603553273" lon="9.94204143906969"><ele>258.8333333333333</ele><time>2026-04-18T09:27:21.999Z</time></trkpt><trkpt lat="44.58051191018324" lon="9.942054380371092"><ele>258.0</ele><time>2026-04-18T09:27:22.999Z</time></trkpt><trkpt lat="44.58044817700399" lon="9.942066569102735"><ele>257.99999999999994</ele><time>2026-04-18T09:27:23.999Z</time></trkpt><trkpt lat="44.58038074126211" lon="9.942075608420934"><ele>258.0</ele><time>2026-04-18T09:27:24.999Z</time></trkpt><trkpt lat="44.58031037258575" lon="9.942084815207545"><ele>258.0</ele><time>2026-04-18T09:27:25.999Z</time></trkpt><trkpt lat="44.58024343868613" lon="9.942093572568687"><ele>258.0</ele><time>2026-04-18T09:27:26.999Z</time></trkpt><trkpt lat="44.58017564685" lon="9.94210979819909"><ele>258.0</ele><time>2026-04-18T09:27:27.999Z</time></trkpt><trkpt lat="44.580104881408545" lon="9.942139559286213"><ele>257.99999999999994</ele><time>2026-04-18T09:27:28.999Z</time></trkpt><trkpt lat="44.58003949213767" lon="9.942171580314263"><ele>258.0</ele><time>2026-04-18T09:27:29.999Z</time></trkpt><trkpt lat="44.579975605611565" lon="9.94220871496871"><ele>258.85714285714283</ele><time>2026-04-18T09:27:30.999Z</time></trkpt><trkpt lat="44.57991187831695" lon="9.942249286210874"><ele>259.7142857142857</ele><time>2026-04-18T09:27:31.999Z</time></trkpt><trkpt lat="44.57985194358254" lon="9.942289677405947"><ele>260.57142857142856</ele><time>2026-04-18T09:27:32.999Z</time></trkpt><trkpt lat="44.57978878150525" lon="9.942338211884287"><ele>261.42857142857144</ele><time>2026-04-18T09:27:33.999Z</time></trkpt><trkpt lat="44.5797307480455" lon="9.942386326305513"><ele>262.2857142857143</ele><time>2026-04-18T09:27:34.999Z</time></trkpt><trkpt lat="44.57967071136506" lon="9.942442529687344"><ele>263.1428571428571</ele><time>2026-04-18T09:27:35.999Z</time></trkpt><trkpt lat="44.57960666108579" lon="9.942502491200962"><ele>264.0</ele><time>2026-04-18T09:27:36.999Z</time></trkpt><trkpt lat="44.57955401660076" lon="9.94257772372637"><ele>263.3333333333333</ele><time>2026-04-18T09:27:37.999Z</time></trkpt><trkpt lat="44.57948053258799" lon="9.942618208966042"><ele>262.6666666666667</ele><time>2026-04-18T09:27:38.999Z</time></trkpt><trkpt lat="44.5794155669893" lon="9.942675731581149"><ele>262.0</ele><time>2026-04-18T09:27:39.999Z</time></trkpt><trkpt lat="44.57935006038233" lon="9.942732983284259"><ele>261.33333333333337</ele><time>2026-04-18T09:27:40.999Z</time></trkpt><trkpt lat="44.57928190740668" lon="9.942787221054983"><ele>260.6666666666667</ele><time>2026-04-18T09:27:41.999Z</time></trkpt><trkpt lat="44.57921334711679" lon="9.942824703239566"><ele>260.0</ele><time>2026-04-18T09:27:42.999Z</time></trkpt><trkpt lat="44.57914351030638" lon="9.942855307940407"><ele>260.00000000000006</ele><time>2026-04-18T09:27:43.999Z</time></trkpt><trkpt lat="44.579075322793855" lon="9.942882230493051"><ele>260.0</ele><time>2026-04-18T09:27:44.999Z</time></trkpt><trkpt lat="44.5790062274289" lon="9.94290815041389"><ele>260.0</ele><time>2026-04-18T09:27:45.999Z</time></trkpt><trkpt lat="44.57893837940915" lon="9.942929034940642"><ele>260.0</ele><time>2026-04-18T09:27:46.999Z</time></trkpt><trkpt lat="44.578866996178384" lon="9.942947622646338"><ele>260.0</ele><time>2026-04-18T09:27:47.999Z</time></trkpt><trkpt lat="44.578793715203346" lon="9.942965751272101"><ele>260.00000000000006</ele><time>2026-04-18T09:27:48.999Z</time></trkpt><trkpt lat="44.57872224609261" lon="9.942982563003689"><ele>260.0</ele><time>2026-04-18T09:27:49.999Z</time></trkpt><trkpt lat="44.578652198550394" lon="9.94299761627564"><ele>260.28571428571433</ele><time>2026-04-18T09:27:50.999Z</time></trkpt><trkpt lat="44.57858257752041" lon="9.943012390968432"><ele>260.57142857142856</ele><time>2026-04-18T09:27:51.999Z</time></trkpt><trkpt lat="44.5785105029096" lon="9.943024843243576"><ele>260.8571428571429</ele><time>2026-04-18T09:27:52.999Z</time></trkpt><trkpt lat="44.57844240852134" lon="9.943036607898382"><ele>261.14285714285717</ele><time>2026-04-18T09:27:53.999Z</time></trkpt><trkpt lat="44.578371004674366" lon="9.943050101323104"><ele>261.42857142857144</ele><time>2026-04-18T09:27:54.998Z</time></trkpt><trkpt lat="44.57830158596108" lon="9.943065737203518"><ele>261.7142857142857</ele><time>2026-04-18T09:27:55.998Z</time></trkpt><trkpt lat="44.57823050452459" lon="9.943083329988193"><ele>262.0</ele><time>2026-04-18T09:27:56.998Z</time></trkpt><trkpt lat="44.57816117081304" lon="9.943101928028554"><ele>262.0</ele><time>2026-04-18T09:27:57.998Z</time></trkpt><trkpt lat="44.578093137847326" lon="9.943127840829757"><ele>262.0</ele><time>2026-04-18T09:27:58.998Z</time></trkpt><trkpt lat="44.57802796649996" lon="9.943156861355142"><ele>262.0</ele><time>2026-04-18T09:27:59.998Z</time></trkpt><trkpt lat="44.57796255180862" lon="9.943185977030396"><ele>262.0</ele><time>2026-04-18T09:28:00.998Z</time></trkpt><trkpt lat="44.57789659319933" lon="9.943218070575345"><ele>262.0</ele><time>2026-04-18T09:28:01.998Z</time></trkpt><trkpt lat="44.57783213047879" lon="9.943254322669487"><ele>262.0</ele><time>2026-04-18T09:28:02.998Z</time></trkpt><trkpt lat="44.57776804913055" lon="9.943293980203654"><ele>262.0</ele><time>2026-04-18T09:28:03.998Z</time></trkpt><trkpt lat="44.577706121601736" lon="9.943337948048303"><ele>261.2857142857143</ele><time>2026-04-18T09:28:04.998Z</time></trkpt><trkpt lat="44.57765486848251" lon="9.94340296680738"><ele>260.5714285714286</ele><time>2026-04-18T09:28:05.998Z</time></trkpt><trkpt lat="44.577594837703856" lon="9.943445908458125"><ele>259.8571428571429</ele><time>2026-04-18T09:28:06.998Z</time></trkpt><trkpt lat="44.57753098135276" lon="9.943489186043337"><ele>259.14285714285717</ele><time>2026-04-18T09:28:07.998Z</time></trkpt><trkpt lat="44.57747180743269" lon="9.943545178808828"><ele>258.42857142857144</ele><time>2026-04-18T09:28:08.998Z</time></trkpt><trkpt lat="44.57740003861085" lon="9.943580115143039"><ele>257.7142857142857</ele><time>2026-04-18T09:28:09.998Z</time></trkpt><trkpt lat="44.577337978579756" lon="9.943624638975987"><ele>257.0</ele><time>2026-04-18T09:28:10.998Z</time></trkpt><trkpt lat="44.57727451755167" lon="9.943665693903974"><ele>257.0</ele><time>2026-04-18T09:28:11.998Z</time></trkpt><trkpt lat="44.57721857650297" lon="9.943736833616745"><ele>257.0</ele><time>2026-04-18T09:28:12.998Z</time></trkpt><trkpt lat="44.577144675949526" lon="9.943750887726175"><ele>257.0</ele><time>2026-04-18T09:28:13.998Z</time></trkpt><trkpt lat="44.57708201039005" lon="9.943788218981133"><ele>257.0</ele><time>2026-04-18T09:28:14.998Z</time></trkpt><trkpt lat="44.57701625528998" lon="9.943823966392854"><ele>257.0</ele><time>2026-04-18T09:28:15.998Z</time></trkpt><trkpt lat="44.5769497073611" lon="9.943856941054094"><ele>257.0</ele><time>2026-04-18T09:28:16.998Z</time></trkpt><trkpt lat="44.576891536438154" lon="9.943917250634577"><ele>257.0</ele><time>2026-04-18T09:28:17.998Z</time></trkpt><trkpt lat="44.576827408360444" lon="9.943953472747083"><ele>257.57142857142856</ele><time>2026-04-18T09:28:18.998Z</time></trkpt><trkpt lat="44.57676095785483" lon="9.94398089209653"><ele>258.14285714285717</ele><time>2026-04-18T09:28:19.998Z</time></trkpt><trkpt lat="44.57669603181433" lon="9.944002146849082"><ele>258.7142857142857</ele><time>2026-04-18T09:28:20.998Z</time></trkpt><trkpt lat="44.576624332112694" lon="9.944011783964488"><ele>259.2857142857143</ele><time>2026-04-18T09:28:21.998Z</time></trkpt><trkpt lat="44.57655638819835" lon="9.944020401224762"><ele>259.85714285714283</ele><time>2026-04-18T09:28:22.998Z</time></trkpt><trkpt lat="44.57649264217114" lon="9.944023626018964"><ele>260.42857142857144</ele><time>2026-04-18T09:28:23.998Z</time></trkpt><trkpt lat="44.57642425255916" lon="9.944028632231399"><ele>261.0</ele><time>2026-04-18T09:28:24.998Z</time></trkpt><trkpt lat="44.57635612995483" lon="9.94396786368809"><ele>261.0</ele><time>2026-04-18T09:28:25.998Z</time></trkpt><trkpt lat="44.57629258733483" lon="9.9439686118992"><ele>261.0</ele><time>2026-04-18T09:28:26.998Z</time></trkpt><trkpt lat="44.57622489190859" lon="9.944028307092882"><ele>261.0</ele><time>2026-04-18T09:28:27.998Z</time></trkpt><trkpt lat="44.57615817812337" lon="9.944025040035227"><ele>261.0</ele><time>2026-04-18T09:28:28.998Z</time></trkpt><trkpt lat="44.57603547618331" lon="9.944027456026982"><ele>261.0</ele><time>2026-04-18T09:28:30.998Z</time></trkpt><trkpt lat="44.575970599548995" lon="9.944033269292609"><ele>261.0</ele><time>2026-04-18T09:28:31.998Z</time></trkpt><trkpt lat="44.57584782091712" lon="9.944050587654349"><ele>261.8333333333333</ele><time>2026-04-18T09:28:33.998Z</time></trkpt><trkpt lat="44.575724076858684" lon="9.944070431993616"><ele>262.6666666666667</ele><time>2026-04-18T09:28:35.998Z</time></trkpt><trkpt lat="44.57565469549959" lon="9.944084480903678"><ele>263.5</ele><time>2026-04-18T09:28:36.998Z</time></trkpt><trkpt lat="44.57559210010858" lon="9.944102428153103"><ele>264.33333333333337</ele><time>2026-04-18T09:28:37.998Z</time></trkpt><trkpt lat="44.57546970733389" lon="9.944121588893076"><ele>265.1666666666667</ele><time>2026-04-18T09:28:39.998Z</time></trkpt><trkpt lat="44.575403695571055" lon="9.944136734460884"><ele>266.0</ele><time>2026-04-18T09:28:40.998Z</time></trkpt><trkpt lat="44.575280450374876" lon="9.94416573670363"><ele>265.5</ele><time>2026-04-18T09:28:42.998Z</time></trkpt><trkpt lat="44.57521538730728" lon="9.944184214113585"><ele>265.0</ele><time>2026-04-18T09:28:43.998Z</time></trkpt><trkpt lat="44.575149881556804" lon="9.94420622079431"><ele>264.5</ele><time>2026-04-18T09:28:45Z</time></trkpt><trkpt lat="44.575081181001345" lon="9.944193820434533"><ele>264.0</ele><time>2026-04-18T09:28:46Z</time></trkpt><trkpt lat="44.57496624625067" lon="9.944264456726208"><ele>263.5</ele><time>2026-04-18T09:28:48Z</time></trkpt><trkpt lat="44.57490872996254" lon="9.944306869963173"><ele>263.0</ele><time>2026-04-18T09:28:49Z</time></trkpt><trkpt lat="44.57485052692048" lon="9.94435646014545"><ele>263.0</ele><time>2026-04-18T09:28:50Z</time></trkpt><trkpt lat="44.57479442171343" lon="9.94441174773646"><ele>263.0</ele><time>2026-04-18T09:28:51Z</time></trkpt><trkpt lat="44.57473790900542" lon="9.944475570317229"><ele>263.0</ele><time>2026-04-18T09:28:52Z</time></trkpt><trkpt lat="44.57468547813023" lon="9.944533990273785"><ele>263.0</ele><time>2026-04-18T09:28:53Z</time></trkpt><trkpt lat="44.57463304987745" lon="9.944593845794534"><ele>263.0</ele><time>2026-04-18T09:28:54Z</time></trkpt><trkpt lat="44.57458069896056" lon="9.94465361258398"><ele>263.0</ele><time>2026-04-18T09:28:55Z</time></trkpt><trkpt lat="44.57454841585955" lon="9.944746363085702"><ele>263.0</ele><time>2026-04-18T09:28:56Z</time></trkpt><trkpt lat="44.574498931785755" lon="9.944805183505528"><ele>262.5</ele><time>2026-04-18T09:28:57Z</time></trkpt><trkpt lat="44.5744477353503" lon="9.944861842988086"><ele>262.0</ele><time>2026-04-18T09:28:58Z</time></trkpt><trkpt lat="44.57435127434767" lon="9.944969239480839"><ele>261.5</ele><time>2026-04-18T09:29:00Z</time></trkpt><trkpt lat="44.57425171879754" lon="9.945070900549785"><ele>261.0</ele><time>2026-04-18T09:29:02Z</time></trkpt><trkpt lat="44.57419438855712" lon="9.945112982217532"><ele>260.5</ele><time>2026-04-18T09:29:03Z</time></trkpt><trkpt lat="44.574133680120816" lon="9.945146021660115"><ele>260.0</ele><time>2026-04-18T09:29:04Z</time></trkpt><trkpt lat="44.574070595801274" lon="9.945168964614835"><ele>260.0</ele><time>2026-04-18T09:29:05Z</time></trkpt><trkpt lat="44.57400398201492" lon="9.945109840194213"><ele>260.0</ele><time>2026-04-18T09:29:06Z</time></trkpt><trkpt lat="44.57388586233655" lon="9.945204633450395"><ele>260.0</ele><time>2026-04-18T09:29:07.999Z</time></trkpt><trkpt lat="44.57376071928714" lon="9.945152958020163"><ele>260.0</ele><time>2026-04-18T09:29:09.999Z</time></trkpt><trkpt lat="44.57363930617411" lon="9.94517156927463"><ele>260.5</ele><time>2026-04-18T09:29:11.999Z</time></trkpt><trkpt lat="44.57351498756416" lon="9.94519062411526"><ele>261.0</ele><time>2026-04-18T09:29:13.999Z</time></trkpt><trkpt lat="44.57339055848847" lon="9.94520860799338"><ele>261.5</ele><time>2026-04-18T09:29:15.999Z</time></trkpt><trkpt lat="44.57326651726529" lon="9.945224903650315"><ele>262.0</ele><time>2026-04-18T09:29:17.999Z</time></trkpt><trkpt lat="44.573139227035" lon="9.945236901764664"><ele>262.0</ele><time>2026-04-18T09:29:19.999Z</time></trkpt><trkpt lat="44.57301614884803" lon="9.94523943788565"><ele>262.0</ele><time>2026-04-18T09:29:21.999Z</time></trkpt><trkpt lat="44.57295035929237" lon="9.945236507405424"><ele>262.0</ele><time>2026-04-18T09:29:22.999Z</time></trkpt><trkpt lat="44.57288539804015" lon="9.945228297702494"><ele>262.0</ele><time>2026-04-18T09:29:23.999Z</time></trkpt><trkpt lat="44.572761225866934" lon="9.945200672174906"><ele>262.0</ele><time>2026-04-18T09:29:25.999Z</time></trkpt><trkpt lat="44.57264013309653" lon="9.94516131948934"><ele>261.75</ele><time>2026-04-18T09:29:27.999Z</time></trkpt><trkpt lat="44.57251821092739" lon="9.945119033872482"><ele>261.5</ele><time>2026-04-18T09:29:29.999Z</time></trkpt><trkpt lat="44.57239524795129" lon="9.945075425939542"><ele>261.25</ele><time>2026-04-18T09:29:31.999Z</time></trkpt><trkpt lat="44.57227980408448" lon="9.94503349299477"><ele>261.0</ele><time>2026-04-18T09:29:33.999Z</time></trkpt><trkpt lat="44.57216083568717" lon="9.944989108385515"><ele>262.2857142857143</ele><time>2026-04-18T09:29:35.999Z</time></trkpt><trkpt lat="44.572099262355586" lon="9.94496613665445"><ele>263.57142857142856</ele><time>2026-04-18T09:29:36.999Z</time></trkpt><trkpt lat="44.57203419093081" lon="9.944941859907196"><ele>264.85714285714283</ele><time>2026-04-18T09:29:37.999Z</time></trkpt><trkpt lat="44.57196920163216" lon="9.944917613747135"><ele>266.1428571428571</ele><time>2026-04-18T09:29:38.999Z</time></trkpt><trkpt lat="44.571905086690684" lon="9.944894651877801"><ele>267.4285714285714</ele><time>2026-04-18T09:29:39.999Z</time></trkpt><trkpt lat="44.57183856713538" lon="9.944871081949287"><ele>268.7142857142857</ele><time>2026-04-18T09:29:40.999Z</time></trkpt><trkpt lat="44.57177124554404" lon="9.94484722784435"><ele>270.0</ele><time>2026-04-18T09:29:41.999Z</time></trkpt><trkpt lat="44.571707758236684" lon="9.944824417735061"><ele>270.0</ele><time>2026-04-18T09:29:42.999Z</time></trkpt><trkpt lat="44.57164180549289" lon="9.944798421005997"><ele>270.0</ele><time>2026-04-18T09:29:43.999Z</time></trkpt><trkpt lat="44.57157492501966" lon="9.944772160566794"><ele>270.0</ele><time>2026-04-18T09:29:44.999Z</time></trkpt><trkpt lat="44.57151227273015" lon="9.944752672762345"><ele>270.0</ele><time>2026-04-18T09:29:45.999Z</time></trkpt><trkpt lat="44.57144633201225" lon="9.94473741844491"><ele>270.0</ele><time>2026-04-18T09:29:46.999Z</time></trkpt><trkpt lat="44.57132840886207" lon="9.94471599546392"><ele>270.0</ele><time>2026-04-18T09:29:48.999Z</time></trkpt><trkpt lat="44.57121180678549" lon="9.944713439226108"><ele>270.6</ele><time>2026-04-18T09:29:50.999Z</time></trkpt><trkpt lat="44.571113935211464" lon="9.944716639541651"><ele>271.2</ele><time>2026-04-18T09:29:52.999Z</time></trkpt><trkpt lat="44.571003339800335" lon="9.944722249875971"><ele>271.8</ele><time>2026-04-18T09:29:54.999Z</time></trkpt><trkpt lat="44.570919165425934" lon="9.94472688884901"><ele>272.4</ele><time>2026-04-18T09:29:56.999Z</time></trkpt><trkpt lat="44.57088130936683" lon="9.944800238108773"><ele>273.0</ele><time>2026-04-18T09:29:57.999Z</time></trkpt><trkpt lat="44.57078270394831" lon="9.94479957831637"><ele>273.0</ele><time>2026-04-18T09:29:59.998Z</time></trkpt><trkpt lat="44.57067533138061" lon="9.944776037566227"><ele>273.0</ele><time>2026-04-18T09:30:01.998Z</time></trkpt><trkpt lat="44.57055244110498" lon="9.94474029170552"><ele>273.0</ele><time>2026-04-18T09:30:03.998Z</time></trkpt><trkpt lat="44.57043068497461" lon="9.94470361526013"><ele>273.0</ele><time>2026-04-18T09:30:05.998Z</time></trkpt><trkpt lat="44.57033489485546" lon="9.944632480286339"><ele>272.2</ele><time>2026-04-18T09:30:07.998Z</time></trkpt><trkpt lat="44.570242531012795" lon="9.944527460119986"><ele>271.4</ele><time>2026-04-18T09:30:09.998Z</time></trkpt><trkpt lat="44.57016039123968" lon="9.944415550948912"><ele>270.59999999999997</ele><time>2026-04-18T09:30:11.998Z</time></trkpt><trkpt lat="44.570053593389304" lon="9.944331900248438"><ele>269.8</ele><time>2026-04-18T09:30:13.998Z</time></trkpt><trkpt lat="44.56998268648078" lon="9.94430233249399"><ele>269.0</ele><time>2026-04-18T09:30:14.998Z</time></trkpt><trkpt lat="44.56985496604944" lon="9.94424637070175"><ele>269.0</ele><time>2026-04-18T09:30:16.998Z</time></trkpt><trkpt lat="44.56978329766149" lon="9.94424545013091"><ele>269.0</ele><time>2026-04-18T09:30:17.998Z</time></trkpt><trkpt lat="44.56971124907863" lon="9.944261053873651"><ele>269.0</ele><time>2026-04-18T09:30:18.998Z</time></trkpt><trkpt lat="44.56964254935093" lon="9.944288548039095"><ele>269.0</ele><time>2026-04-18T09:30:19.998Z</time></trkpt><trkpt lat="44.569569973949434" lon="9.9443294508431"><ele>269.0</ele><time>2026-04-18T09:30:20.998Z</time></trkpt><trkpt lat="44.56950541486797" lon="9.944368643745271"><ele>269.0</ele><time>2026-04-18T09:30:21.998Z</time></trkpt><trkpt lat="44.56943637331194" lon="9.944410557679397"><ele>269.0</ele><time>2026-04-18T09:30:22.998Z</time></trkpt><trkpt lat="44.56937054656911" lon="9.944448016972194"><ele>268.4</ele><time>2026-04-18T09:30:23.998Z</time></trkpt><trkpt lat="44.56929885833633" lon="9.94448176611051"><ele>267.79999999999995</ele><time>2026-04-18T09:30:24.998Z</time></trkpt><trkpt lat="44.56923291559262" lon="9.944604196187122"><ele>267.20000000000005</ele><time>2026-04-18T09:30:25.998Z</time></trkpt><trkpt lat="44.5691437216075" lon="9.944585532435394"><ele>266.6</ele><time>2026-04-18T09:30:26.998Z</time></trkpt><trkpt lat="44.569057054899595" lon="9.944554454071685"><ele>266.0</ele><time>2026-04-18T09:30:27.998Z</time></trkpt><trkpt lat="44.56896620803891" lon="9.944526724601793"><ele>266.0</ele><time>2026-04-18T09:30:28.998Z</time></trkpt><trkpt lat="44.568878287330676" lon="9.944487474922216"><ele>266.0</ele><time>2026-04-18T09:30:29.998Z</time></trkpt><trkpt lat="44.56878320282662" lon="9.944445021866485"><ele>266.0</ele><time>2026-04-18T09:30:30.998Z</time></trkpt><trkpt lat="44.5686924868104" lon="9.94440194037895"><ele>266.0</ele><time>2026-04-18T09:30:31.998Z</time></trkpt><trkpt lat="44.56860699013965" lon="9.94432266352917"><ele>266.0</ele><time>2026-04-18T09:30:32.998Z</time></trkpt><trkpt lat="44.56850902250587" lon="9.944280019711838"><ele>267.2</ele><time>2026-04-18T09:30:33.998Z</time></trkpt><trkpt lat="44.56843543246325" lon="9.944160155578514"><ele>268.40000000000003</ele><time>2026-04-18T09:30:34.998Z</time></trkpt><trkpt lat="44.568388395789015" lon="9.944012661837208"><ele>269.6</ele><time>2026-04-18T09:30:35.998Z</time></trkpt><trkpt lat="44.56835202848508" lon="9.943865634875799"><ele>270.8</ele><time>2026-04-18T09:30:36.998Z</time></trkpt><trkpt lat="44.568270814801835" lon="9.943774397969301"><ele>272.0</ele><time>2026-04-18T09:30:37.998Z</time></trkpt><trkpt lat="44.56818818935315" lon="9.943684395990422"><ele>272.0</ele><time>2026-04-18T09:30:38.998Z</time></trkpt><trkpt lat="44.56807623822728" lon="9.943623276630573"><ele>272.0</ele><time>2026-04-18T09:30:39.998Z</time></trkpt><trkpt lat="44.56796995566943" lon="9.943607264037567"><ele>272.0</ele><time>2026-04-18T09:30:40.998Z</time></trkpt><trkpt lat="44.567868618243835" lon="9.943596974679162"><ele>272.0</ele><time>2026-04-18T09:30:41.998Z</time></trkpt><trkpt lat="44.567773017875766" lon="9.943587337816982"><ele>272.0</ele><time>2026-04-18T09:30:42.998Z</time></trkpt><trkpt lat="44.56767812682289" lon="9.943577772454052"><ele>270.5</ele><time>2026-04-18T09:30:43.998Z</time></trkpt><trkpt lat="44.567589531661206" lon="9.94356884173865"><ele>269.0</ele><time>2026-04-18T09:30:44.998Z</time></trkpt><trkpt lat="44.567502179097524" lon="9.943560036285064"><ele>267.5</ele><time>2026-04-18T09:30:45.998Z</time></trkpt><trkpt lat="44.56741600899027" lon="9.943551350024748"><ele>266.0</ele><time>2026-04-18T09:30:46.998Z</time></trkpt><trkpt lat="44.5673285461164" lon="9.94354224073646"><ele>264.5</ele><time>2026-04-18T09:30:47.998Z</time></trkpt><trkpt lat="44.567241528067946" lon="9.943533088135046"><ele>263.0</ele><time>2026-04-18T09:30:48.998Z</time></trkpt><trkpt lat="44.56716099238037" lon="9.943523966155894"><ele>263.0</ele><time>2026-04-18T09:30:50Z</time></trkpt><trkpt lat="44.567081050659425" lon="9.943514359588153"><ele>263.0</ele><time>2026-04-18T09:30:51Z</time></trkpt><trkpt lat="44.56699788309166" lon="9.94350436537305"><ele>263.0</ele><time>2026-04-18T09:30:52Z</time></trkpt><trkpt lat="44.56691567508542" lon="9.943495625098743"><ele>263.0</ele><time>2026-04-18T09:30:53Z</time></trkpt><trkpt lat="44.56683279779961" lon="9.943486939567215"><ele>263.0</ele><time>2026-04-18T09:30:54Z</time></trkpt><trkpt lat="44.566746409931895" lon="9.943478398716248"><ele>263.0</ele><time>2026-04-18T09:30:55Z</time></trkpt><trkpt lat="44.56666197501367" lon="9.943470050944727"><ele>264.5</ele><time>2026-04-18T09:30:56Z</time></trkpt><trkpt lat="44.5665772821177" lon="9.943461677672301"><ele>266.0</ele><time>2026-04-18T09:30:57Z</time></trkpt><trkpt lat="44.56649770425186" lon="9.943453810098273"><ele>267.5</ele><time>2026-04-18T09:30:58Z</time></trkpt><trkpt lat="44.566418553383265" lon="9.943445014759375"><ele>269.0</ele><time>2026-04-18T09:30:59Z</time></trkpt><trkpt lat="44.56634079641192" lon="9.943435507982665"><ele>270.5</ele><time>2026-04-18T09:31:00Z</time></trkpt><trkpt lat="44.56627548048526" lon="9.943425349270294"><ele>272.0</ele><time>2026-04-18T09:31:01Z</time></trkpt><trkpt lat="44.566172073378006" lon="9.943367957803039"><ele>274.0</ele><time>2026-04-18T09:31:02Z</time></trkpt><trkpt lat="44.566103334662145" lon="9.943318846662523"><ele>276.0</ele><time>2026-04-18T09:31:03Z</time></trkpt><trkpt lat="44.56608180637968" lon="9.943214475567991"><ele>278.0</ele><time>2026-04-18T09:31:04Z</time></trkpt><trkpt lat="44.566078143812966" lon="9.94310693653959"><ele>280.0</ele><time>2026-04-18T09:31:05Z</time></trkpt><trkpt lat="44.566080457355746" lon="9.942994544784383"><ele>282.0</ele><time>2026-04-18T09:31:06Z</time></trkpt><trkpt lat="44.56607265854879" lon="9.942872850159342"><ele>284.0</ele><time>2026-04-18T09:31:07Z</time></trkpt><trkpt lat="44.566069744466844" lon="9.942757186977442"><ele>284.0</ele><time>2026-04-18T09:31:08Z</time></trkpt><trkpt lat="44.566081637914245" lon="9.942629649130403"><ele>284.0</ele><time>2026-04-18T09:31:09Z</time></trkpt><trkpt lat="44.56608243549999" lon="9.942511150805663"><ele>284.0</ele><time>2026-04-18T09:31:10Z</time></trkpt><trkpt lat="44.566088463596344" lon="9.942394315946455"><ele>284.0</ele><time>2026-04-18T09:31:10.999Z</time></trkpt><trkpt lat="44.56609066314879" lon="9.94227974317783"><ele>284.0</ele><time>2026-04-18T09:31:11.999Z</time></trkpt><trkpt lat="44.56608323944475" lon="9.942173766806015"><ele>284.0</ele><time>2026-04-18T09:31:12.999Z</time></trkpt><trkpt lat="44.566072587919955" lon="9.94206356483644"><ele>283.33333333333337</ele><time>2026-04-18T09:31:13.999Z</time></trkpt><trkpt lat="44.566052165914726" lon="9.941962449475746"><ele>282.6666666666667</ele><time>2026-04-18T09:31:14.999Z</time></trkpt><trkpt lat="44.566031109833844" lon="9.941862172821283"><ele>282.0</ele><time>2026-04-18T09:31:15.999Z</time></trkpt><trkpt lat="44.56595791456377" lon="9.941786437134464"><ele>281.3333333333333</ele><time>2026-04-18T09:31:16.999Z</time></trkpt><trkpt lat="44.56592784146892" lon="9.941691543345922"><ele>280.66666666666663</ele><time>2026-04-18T09:31:17.999Z</time></trkpt><trkpt lat="44.56589720859081" lon="9.94159488300791"><ele>280.0</ele><time>2026-04-18T09:31:18.999Z</time></trkpt><trkpt lat="44.56586898662266" lon="9.941506134448826"><ele>279.57142857142856</ele><time>2026-04-18T09:31:19.999Z</time></trkpt><trkpt lat="44.56583936254896" lon="9.941416537672046"><ele>279.1428571428571</ele><time>2026-04-18T09:31:20.999Z</time></trkpt><trkpt lat="44.56581154016502" lon="9.941332390052498"><ele>278.7142857142857</ele><time>2026-04-18T09:31:21.999Z</time></trkpt><trkpt lat="44.565812506881734" lon="9.941238063726237"><ele>278.2857142857143</ele><time>2026-04-18T09:31:22.999Z</time></trkpt><trkpt lat="44.56578550154136" lon="9.941149728998527"><ele>277.85714285714283</ele><time>2026-04-18T09:31:23.999Z</time></trkpt><trkpt lat="44.56575357734992" lon="9.941065585273625"><ele>277.42857142857144</ele><time>2026-04-18T09:31:24.999Z</time></trkpt><trkpt lat="44.56572302540069" lon="9.940983254065927"><ele>277.0</ele><time>2026-04-18T09:31:25.999Z</time></trkpt><trkpt lat="44.56568693769322" lon="9.940903594627443"><ele>276.0</ele><time>2026-04-18T09:31:26.999Z</time></trkpt><trkpt lat="44.56565069384303" lon="9.940822677060721"><ele>275.0</ele><time>2026-04-18T09:31:27.999Z</time></trkpt><trkpt lat="44.56561247819314" lon="9.940745633557448"><ele>274.0</ele><time>2026-04-18T09:31:28.999Z</time></trkpt><trkpt lat="44.565571657468475" lon="9.9406691926115"><ele>273.0</ele><time>2026-04-18T09:31:29.999Z</time></trkpt><trkpt lat="44.56552911067077" lon="9.940592361268555"><ele>272.0</ele><time>2026-04-18T09:31:30.999Z</time></trkpt><trkpt lat="44.5654697714089" lon="9.94053400667739"><ele>271.0</ele><time>2026-04-18T09:31:31.999Z</time></trkpt><trkpt lat="44.5654355164772" lon="9.940448845446655"><ele>270.0</ele><time>2026-04-18T09:31:32.999Z</time></trkpt><trkpt lat="44.565385079345695" lon="9.940380366579298"><ele>270.57142857142856</ele><time>2026-04-18T09:31:33.999Z</time></trkpt><trkpt lat="44.56533903550315" lon="9.940312442889851"><ele>271.1428571428571</ele><time>2026-04-18T09:31:34.999Z</time></trkpt><trkpt lat="44.56528390976256" lon="9.940245849610491"><ele>271.7142857142857</ele><time>2026-04-18T09:31:35.999Z</time></trkpt><trkpt lat="44.56523292504277" lon="9.940182985570338"><ele>272.2857142857143</ele><time>2026-04-18T09:31:36.999Z</time></trkpt><trkpt lat="44.5651852073222" lon="9.940110130565118"><ele>272.8571428571429</ele><time>2026-04-18T09:31:37.999Z</time></trkpt><trkpt lat="44.565134129968975" lon="9.940044595929267"><ele>273.42857142857144</ele><time>2026-04-18T09:31:38.999Z</time></trkpt><trkpt lat="44.56508617747139" lon="9.939973946760496"><ele>274.0</ele><time>2026-04-18T09:31:39.999Z</time></trkpt><trkpt lat="44.565035190630624" lon="9.939906422267907"><ele>274.00000000000006</ele><time>2026-04-18T09:31:40.999Z</time></trkpt><trkpt lat="44.5649871758759" lon="9.9398428407815"><ele>274.0</ele><time>2026-04-18T09:31:41.999Z</time></trkpt><trkpt lat="44.56493931819881" lon="9.939776390009758"><ele>274.0</ele><time>2026-04-18T09:31:42.999Z</time></trkpt><trkpt lat="44.564892205374946" lon="9.939712081105911"><ele>274.0</ele><time>2026-04-18T09:31:43.999Z</time></trkpt><trkpt lat="44.56484244860484" lon="9.939646393246946"><ele>274.0</ele><time>2026-04-18T09:31:44.999Z</time></trkpt><trkpt lat="44.56479266246009" lon="9.939587245476524"><ele>274.00000000000006</ele><time>2026-04-18T09:31:45.999Z</time></trkpt><trkpt lat="44.56474080779842" lon="9.939523252665978"><ele>274.0</ele><time>2026-04-18T09:31:46.999Z</time></trkpt><trkpt lat="44.564685569565896" lon="9.939462909049839"><ele>274.00000000000006</ele><time>2026-04-18T09:31:47.999Z</time></trkpt><trkpt lat="44.56462805373926" lon="9.939405258009554"><ele>274.0</ele><time>2026-04-18T09:31:48.999Z</time></trkpt><trkpt lat="44.56456995873114" lon="9.939347904646844"><ele>274.0</ele><time>2026-04-18T09:31:49.999Z</time></trkpt><trkpt lat="44.56450843680613" lon="9.939286318192176"><ele>274.0</ele><time>2026-04-18T09:31:50.999Z</time></trkpt><trkpt lat="44.564447068960405" lon="9.939227177966332"><ele>274.0</ele><time>2026-04-18T09:31:51.999Z</time></trkpt><trkpt lat="44.56438659747784" lon="9.939169504569044"><ele>274.00000000000006</ele><time>2026-04-18T09:31:52.999Z</time></trkpt><trkpt lat="44.56432269752154" lon="9.939110607192617"><ele>274.0</ele><time>2026-04-18T09:31:53.999Z</time></trkpt><trkpt lat="44.56426159454463" lon="9.939053585132477"><ele>274.42857142857144</ele><time>2026-04-18T09:31:54.999Z</time></trkpt><trkpt lat="44.56420013766482" lon="9.938993656798154"><ele>274.8571428571429</ele><time>2026-04-18T09:31:55.999Z</time></trkpt><trkpt lat="44.56413569272836" lon="9.93893302904511"><ele>275.2857142857143</ele><time>2026-04-18T09:31:56.999Z</time></trkpt><trkpt lat="44.564074858043035" lon="9.938876697145526"><ele>275.7142857142857</ele><time>2026-04-18T09:31:57.999Z</time></trkpt><trkpt lat="44.564011557290414" lon="9.938823669956113"><ele>276.1428571428571</ele><time>2026-04-18T09:31:58.999Z</time></trkpt><trkpt lat="44.56394738736697" lon="9.938770956979276"><ele>276.57142857142856</ele><time>2026-04-18T09:31:59.999Z</time></trkpt><trkpt lat="44.56389392601542" lon="9.938716502477282"><ele>277.0</ele><time>2026-04-18T09:32:00.999Z</time></trkpt><trkpt lat="44.5638349304562" lon="9.938653458318985"><ele>277.0</ele><time>2026-04-18T09:32:01.999Z</time></trkpt><trkpt lat="44.56377261726112" lon="9.938588733023765"><ele>277.0</ele><time>2026-04-18T09:32:02.998Z</time></trkpt><trkpt lat="44.563707739131644" lon="9.938529679348855"><ele>277.0</ele><time>2026-04-18T09:32:03.998Z</time></trkpt><trkpt lat="44.56364422931202" lon="9.938467176883268"><ele>277.0</ele><time>2026-04-18T09:32:04.998Z</time></trkpt><trkpt lat="44.5635811068588" lon="9.938407459983566"><ele>277.0</ele><time>2026-04-18T09:32:05.998Z</time></trkpt><trkpt lat="44.563510158963375" lon="9.93832918847873"><ele>277.0</ele><time>2026-04-18T09:32:06.998Z</time></trkpt><trkpt lat="44.563438187847076" lon="9.93825308035419"><ele>276.2</ele><time>2026-04-18T09:32:07.998Z</time></trkpt><trkpt lat="44.563365899177874" lon="9.938171789969985"><ele>275.4</ele><time>2026-04-18T09:32:08.998Z</time></trkpt><trkpt lat="44.56329570629547" lon="9.93808452679747"><ele>274.6</ele><time>2026-04-18T09:32:09.998Z</time></trkpt><trkpt lat="44.56323088922527" lon="9.937984628279114"><ele>273.8</ele><time>2026-04-18T09:32:10.998Z</time></trkpt><trkpt lat="44.563172421458" lon="9.937884403606276"><ele>273.0</ele><time>2026-04-18T09:32:11.998Z</time></trkpt><trkpt lat="44.56312581970089" lon="9.937785018759067"><ele>273.0</ele><time>2026-04-18T09:32:12.998Z</time></trkpt><trkpt lat="44.56308359491725" lon="9.937691679012241"><ele>273.0</ele><time>2026-04-18T09:32:13.998Z</time></trkpt><trkpt lat="44.56304657939536" lon="9.93760448309302"><ele>273.0</ele><time>2026-04-18T09:32:14.998Z</time></trkpt><trkpt lat="44.56296940191881" lon="9.937483876342286"><ele>273.0</ele><time>2026-04-18T09:32:16.998Z</time></trkpt><trkpt lat="44.56288432833155" lon="9.937430753089192"><ele>273.0</ele><time>2026-04-18T09:32:18.998Z</time></trkpt><trkpt lat="44.562792191183874" lon="9.937448884816094"><ele>273.0</ele><time>2026-04-18T09:32:19.998Z</time></trkpt><trkpt lat="44.56269940633438" lon="9.93751812564495"><ele>273.0</ele><time>2026-04-18T09:32:21.998Z</time></trkpt><trkpt lat="44.562610028911564" lon="9.93759656519845"><ele>273.0</ele><time>2026-04-18T09:32:23.998Z</time></trkpt><trkpt lat="44.56254527520282" lon="9.937679511302301"><ele>273.0</ele><time>2026-04-18T09:32:25.998Z</time></trkpt><trkpt lat="44.562479345036884" lon="9.937772772102084"><ele>273.0</ele><time>2026-04-18T09:32:27.998Z</time></trkpt><trkpt lat="44.56252678448718" lon="9.937904417133197"><ele>274.0</ele><time>2026-04-18T09:32:28.998Z</time></trkpt><trkpt lat="44.56246906485762" lon="9.93795241212013"><ele>275.0</ele><time>2026-04-18T09:32:30.998Z</time></trkpt><trkpt lat="44.56239729280246" lon="9.93798263588119"><ele>276.0</ele><time>2026-04-18T09:32:32.998Z</time></trkpt><trkpt lat="44.56232084080205" lon="9.93801429980611"><ele>277.0</ele><time>2026-04-18T09:32:34.998Z</time></trkpt><trkpt lat="44.562254538896454" lon="9.938002365589767"><ele>278.0</ele><time>2026-04-18T09:32:36.998Z</time></trkpt><trkpt lat="44.56217295786511" lon="9.93795800996776"><ele>279.0</ele><time>2026-04-18T09:32:40.998Z</time></trkpt><trkpt lat="44.562118624322395" lon="9.937894541522585"><ele>280.0</ele><time>2026-04-18T09:32:43.998Z</time></trkpt><trkpt lat="44.5620553557855" lon="9.937806470025434"><ele>280.4</ele><time>2026-04-18T09:32:46.998Z</time></trkpt><trkpt lat="44.56200759429965" lon="9.937733988402655"><ele>280.8</ele><time>2026-04-18T09:32:48.998Z</time></trkpt><trkpt lat="44.561975548327375" lon="9.937651045865442"><ele>281.2</ele><time>2026-04-18T09:32:50.998Z</time></trkpt><trkpt lat="44.561926870562935" lon="9.937591131587322"><ele>281.6</ele><time>2026-04-18T09:32:52.998Z</time></trkpt><trkpt lat="44.561778539974384" lon="9.937479913300606"><ele>282.0</ele><time>2026-04-18T09:32:57Z</time></trkpt><trkpt lat="44.561662184813116" lon="9.937523310358173"><ele>282.0</ele><time>2026-04-18T09:32:59Z</time></trkpt><trkpt lat="44.56159401378474" lon="9.937458322989219"><ele>282.0</ele><time>2026-04-18T09:33:01Z</time></trkpt><trkpt lat="44.56152723168951" lon="9.937411149295999"><ele>282.0</ele><time>2026-04-18T09:33:04Z</time></trkpt><trkpt lat="44.561142386287614" lon="9.937140320948709"><ele>285.4</ele><time>2026-04-18T09:33:06Z</time></trkpt><trkpt lat="44.56104947097962" lon="9.937070392134501"><ele>288.79999999999995</ele><time>2026-04-18T09:33:08Z</time></trkpt><trkpt lat="44.56095500179339" lon="9.93699698553437"><ele>292.2</ele><time>2026-04-18T09:33:10Z</time></trkpt><trkpt lat="44.56086654113703" lon="9.936908463161942"><ele>295.59999999999997</ele><time>2026-04-18T09:33:12Z</time></trkpt><trkpt lat="44.56079522635982" lon="9.936793862868186"><ele>299.0</ele><time>2026-04-18T09:33:14Z</time></trkpt><trkpt lat="44.560631500927684" lon="9.936759762943106"><ele>295.4</ele><time>2026-04-18T09:33:15.999Z</time></trkpt><trkpt lat="44.56059254046393" lon="9.936674425808127"><ele>291.79999999999995</ele><time>2026-04-18T09:33:16.999Z</time></trkpt><trkpt lat="44.56055958453572" lon="9.936595088309272"><ele>288.20000000000005</ele><time>2026-04-18T09:33:17.999Z</time></trkpt><trkpt lat="44.56063408252179" lon="9.936441170610317"><ele>284.6</ele><time>2026-04-18T09:33:18.999Z</time></trkpt><trkpt lat="44.56057577024241" lon="9.936307220098742"><ele>281.0</ele><time>2026-04-18T09:33:20.999Z</time></trkpt><trkpt lat="44.56052738024833" lon="9.936160845375884"><ele>281.0</ele><time>2026-04-18T09:33:22.999Z</time></trkpt><trkpt lat="44.560573557032946" lon="9.936028514155485"><ele>281.0</ele><time>2026-04-18T09:33:24.999Z</time></trkpt><trkpt lat="44.560513645448985" lon="9.935878329124492"><ele>281.0</ele><time>2026-04-18T09:33:26.999Z</time></trkpt><trkpt lat="44.560585822548575" lon="9.935825884758081"><ele>281.0</ele><time>2026-04-18T09:33:27.999Z</time></trkpt><trkpt lat="44.56051735088466" lon="9.935679660832577"><ele>281.0</ele><time>2026-04-18T09:33:29.999Z</time></trkpt><trkpt lat="44.56048109114625" lon="9.935605128206017"><ele>280.6</ele><time>2026-04-18T09:33:30.999Z</time></trkpt><trkpt lat="44.56044387974374" lon="9.935532803822282"><ele>280.20000000000005</ele><time>2026-04-18T09:33:31.999Z</time></trkpt><trkpt lat="44.56040498981663" lon="9.935461181741127"><ele>279.79999999999995</ele><time>2026-04-18T09:33:32.999Z</time></trkpt><trkpt lat="44.56032845413237" lon="9.935332312891065"><ele>279.4</ele><time>2026-04-18T09:33:34.999Z</time></trkpt><trkpt lat="44.56024116532584" lon="9.93521382267395"><ele>279.0</ele><time>2026-04-18T09:33:36.999Z</time></trkpt><trkpt lat="44.56014414639764" lon="9.935108483083035"><ele>280.8</ele><time>2026-04-18T09:33:38.999Z</time></trkpt><trkpt lat="44.56004002797318" lon="9.935008026419299"><ele>282.59999999999997</ele><time>2026-04-18T09:33:40.999Z</time></trkpt><trkpt lat="44.55998697983953" lon="9.934958223765063"><ele>284.4</ele><time>2026-04-18T09:33:41.999Z</time></trkpt><trkpt lat="44.55989393014331" lon="9.934857442894717"><ele>286.2</ele><time>2026-04-18T09:33:43.999Z</time></trkpt><trkpt lat="44.55980170023705" lon="9.934762375085812"><ele>288.0</ele><time>2026-04-18T09:33:45.999Z</time></trkpt><trkpt lat="44.55970161041461" lon="9.93468163744516"><ele>288.0</ele><time>2026-04-18T09:33:47.999Z</time></trkpt><trkpt lat="44.55960821538527" lon="9.934605249704786"><ele>288.0</ele><time>2026-04-18T09:33:49.999Z</time></trkpt><trkpt lat="44.55950614354488" lon="9.934524258294733"><ele>288.0</ele><time>2026-04-18T09:33:51.999Z</time></trkpt><trkpt lat="44.559401017072666" lon="9.934450939718003"><ele>288.0</ele><time>2026-04-18T09:33:53.999Z</time></trkpt><trkpt lat="44.55930146117466" lon="9.934381314457834"><ele>287.6</ele><time>2026-04-18T09:33:55.999Z</time></trkpt><trkpt lat="44.55923266817668" lon="9.934391275438646"><ele>287.20000000000005</ele><time>2026-04-18T09:33:56.999Z</time></trkpt><trkpt lat="44.55913136835646" lon="9.934316520537108"><ele>286.8</ele><time>2026-04-18T09:33:58.999Z</time></trkpt><trkpt lat="44.559033546718965" lon="9.934247278437546"><ele>286.40000000000003</ele><time>2026-04-18T09:34:00.999Z</time></trkpt><trkpt lat="44.55893220221862" lon="9.934178076472088"><ele>286.0</ele><time>2026-04-18T09:34:02.999Z</time></trkpt><trkpt lat="44.55882799581501" lon="9.934106920300442"><ele>286.0</ele><time>2026-04-18T09:34:04.999Z</time></trkpt><trkpt lat="44.558727719400196" lon="9.934036783953367"><ele>286.0</ele><time>2026-04-18T09:34:06.999Z</time></trkpt><trkpt lat="44.55862683362255" lon="9.933965472378272"><ele>286.0</ele><time>2026-04-18T09:34:08.998Z</time></trkpt><trkpt lat="44.5585271146305" lon="9.933894349270078"><ele>286.0</ele><time>2026-04-18T09:34:10.998Z</time></trkpt><trkpt lat="44.55843982302636" lon="9.933779855218832"><ele>288.5</ele><time>2026-04-18T09:34:12.998Z</time></trkpt><trkpt lat="44.55833673052569" lon="9.933693685240241"><ele>291.0</ele><time>2026-04-18T09:34:14.998Z</time></trkpt><trkpt lat="44.55823437267968" lon="9.93361521823697"><ele>293.5</ele><time>2026-04-18T09:34:16.998Z</time></trkpt><trkpt lat="44.55813511131818" lon="9.933536700215502"><ele>296.0</ele><time>2026-04-18T09:34:18.998Z</time></trkpt><trkpt lat="44.558036392728" lon="9.93345829718649"><ele>295.8</ele><time>2026-04-18T09:34:20.998Z</time></trkpt><trkpt lat="44.55793453795244" lon="9.933383378677268"><ele>295.6</ele><time>2026-04-18T09:34:22.998Z</time></trkpt><trkpt lat="44.557836591203476" lon="9.9333076458457"><ele>295.4</ele><time>2026-04-18T09:34:24.998Z</time></trkpt><trkpt lat="44.55778037228883" lon="9.933264560511995"><ele>295.2</ele><time>2026-04-18T09:34:25.998Z</time></trkpt><trkpt lat="44.55767286142024" lon="9.933185630189424"><ele>295.0</ele><time>2026-04-18T09:34:27.998Z</time></trkpt><trkpt lat="44.55761037439161" lon="9.933145504969739"><ele>295.00000000000006</ele><time>2026-04-18T09:34:28.998Z</time></trkpt><trkpt lat="44.557553043315295" lon="9.933108392812905"><ele>295.0</ele><time>2026-04-18T09:34:29.998Z</time></trkpt><trkpt lat="44.55749019489087" lon="9.933069322038403"><ele>295.0</ele><time>2026-04-18T09:34:30.998Z</time></trkpt><trkpt lat="44.55742578490588" lon="9.933033740986476"><ele>295.0</ele><time>2026-04-18T09:34:31.998Z</time></trkpt><trkpt lat="44.55736209502167" lon="9.933000184018292"><ele>295.0</ele><time>2026-04-18T09:34:32.998Z</time></trkpt><trkpt lat="44.557297705950845" lon="9.932960161744226"><ele>295.00000000000006</ele><time>2026-04-18T09:34:33.998Z</time></trkpt><trkpt lat="44.5572296809214" lon="9.93292473507646"><ele>295.0</ele><time>2026-04-18T09:34:34.998Z</time></trkpt><trkpt lat="44.55715972583272" lon="9.932894165800318"><ele>295.0</ele><time>2026-04-18T09:34:35.998Z</time></trkpt><trkpt lat="44.55708532417146" lon="9.932870295933446"><ele>295.0</ele><time>2026-04-18T09:34:36.998Z</time></trkpt><trkpt lat="44.55700819149481" lon="9.932843059426595"><ele>295.0</ele><time>2026-04-18T09:34:37.998Z</time></trkpt><trkpt lat="44.5569281180168" lon="9.932815323716358"><ele>295.0</ele><time>2026-04-18T09:34:38.998Z</time></trkpt><trkpt lat="44.556848255891076" lon="9.932791503517398"><ele>295.0</ele><time>2026-04-18T09:34:39.998Z</time></trkpt><trkpt lat="44.556767220902884" lon="9.932765385072678"><ele>295.0</ele><time>2026-04-18T09:34:40.998Z</time></trkpt><trkpt lat="44.55668251574576" lon="9.932739608626909"><ele>295.3333333333333</ele><time>2026-04-18T09:34:41.998Z</time></trkpt><trkpt lat="44.556599111256325" lon="9.9327157469535"><ele>295.66666666666663</ele><time>2026-04-18T09:34:42.998Z</time></trkpt><trkpt lat="44.556517018814105" lon="9.932694672063539"><ele>296.0</ele><time>2026-04-18T09:34:43.998Z</time></trkpt><trkpt lat="44.556434404634935" lon="9.932673600348865"><ele>296.3333333333333</ele><time>2026-04-18T09:34:44.998Z</time></trkpt><trkpt lat="44.55635246188761" lon="9.932652101063661"><ele>296.6666666666667</ele><time>2026-04-18T09:34:45.998Z</time></trkpt><trkpt lat="44.55627433787651" lon="9.932621907365762"><ele>297.0</ele><time>2026-04-18T09:34:46.998Z</time></trkpt><trkpt lat="44.556197461843816" lon="9.932599924604226"><ele>297.0</ele><time>2026-04-18T09:34:47.998Z</time></trkpt><trkpt lat="44.55612810717753" lon="9.932581022730641"><ele>297.0</ele><time>2026-04-18T09:34:48.998Z</time></trkpt><trkpt lat="44.55606541259887" lon="9.932567825844647"><ele>297.0</ele><time>2026-04-18T09:34:49.998Z</time></trkpt><trkpt lat="44.55595867643755" lon="9.932541890996527"><ele>297.0</ele><time>2026-04-18T09:34:51.998Z</time></trkpt><trkpt lat="44.555897549232746" lon="9.93250168145743"><ele>297.0</ele><time>2026-04-18T09:34:53.998Z</time></trkpt><trkpt lat="44.55584317268563" lon="9.932455565599218"><ele>297.0</ele><time>2026-04-18T09:34:57.998Z</time></trkpt><trkpt lat="44.55576893295965" lon="9.932438811233636"><ele>297.0</ele><time>2026-04-18T09:35:37.999Z</time></trkpt><trkpt lat="44.55565573593584" lon="9.932326051707252"><ele>295.8571428571429</ele><time>2026-04-18T09:35:41.999Z</time></trkpt><trkpt lat="44.5556076568792" lon="9.932258707338443"><ele>294.7142857142857</ele><time>2026-04-18T09:35:43.999Z</time></trkpt><trkpt lat="44.55556420410429" lon="9.93219144369236"><ele>293.57142857142856</ele><time>2026-04-18T09:35:45.999Z</time></trkpt><trkpt lat="44.55550480699345" lon="9.932130681368461"><ele>292.42857142857144</ele><time>2026-04-18T09:35:47.999Z</time></trkpt><trkpt lat="44.555454831279015" lon="9.932047293364365"><ele>291.2857142857143</ele><time>2026-04-18T09:36:22.998Z</time></trkpt><trkpt lat="44.55541078520411" lon="9.931975062079418"><ele>290.14285714285717</ele><time>2026-04-18T09:36:44.998Z</time></trkpt><trkpt lat="44.55546657040185" lon="9.932032199923224"><ele>289.0</ele><time>2026-04-18T09:37:39.999Z</time></trkpt><trkpt lat="44.55551393487663" lon="9.932100244372887"><ele>289.0</ele><time>2026-04-18T09:37:42.999Z</time></trkpt><trkpt lat="44.55553206534873" lon="9.932190355453411"><ele>289.0</ele><time>2026-04-18T09:37:45.999Z</time></trkpt><trkpt lat="44.55559069109614" lon="9.932271115011089"><ele>289.0</ele><time>2026-04-18T09:37:48.999Z</time></trkpt><trkpt lat="44.55549571423309" lon="9.932135831780448"><ele>289.0</ele><time>2026-04-18T09:37:50.999Z</time></trkpt><trkpt lat="44.55542763414798" lon="9.932183634816253"><ele>289.0</ele><time>2026-04-18T09:37:53.999Z</time></trkpt><trkpt lat="44.55538377334741" lon="9.93224884718382"><ele>289.0</ele><time>2026-04-18T09:37:56.999Z</time></trkpt><trkpt lat="44.55536590335463" lon="9.932336024521385"><ele>289.0</ele><time>2026-04-18T09:37:59.999Z</time></trkpt><trkpt lat="44.555536250025376" lon="9.932497800488187"><ele>289.0</ele><time>2026-04-18T09:38:00.999Z</time></trkpt><trkpt lat="44.55547388217874" lon="9.93243703160549"><ele>289.0</ele><time>2026-04-18T09:38:03.999Z</time></trkpt><trkpt lat="44.55541721723645" lon="9.932381819414815"><ele>289.0</ele><time>2026-04-18T09:38:08.999Z</time></trkpt><trkpt lat="44.5553560813968" lon="9.932344469694497"><ele>289.0</ele><time>2026-04-18T09:38:11.999Z</time></trkpt><trkpt lat="44.55526669494546" lon="9.932306989722518"><ele>290.5</ele><time>2026-04-18T09:38:14.998Z</time></trkpt><trkpt lat="44.555188977544894" lon="9.932263671230034"><ele>292.0</ele><time>2026-04-18T09:38:17.998Z</time></trkpt><trkpt lat="44.555117907590905" lon="9.932218950230745"><ele>293.5</ele><time>2026-04-18T09:38:20.998Z</time></trkpt><trkpt lat="44.55502671180496" lon="9.932177205925562"><ele>295.0</ele><time>2026-04-18T09:38:23.998Z</time></trkpt><trkpt lat="44.55495002512743" lon="9.932157900447935"><ele>296.5</ele><time>2026-04-18T09:38:25.998Z</time></trkpt><trkpt lat="44.55488905028113" lon="9.932119973616743"><ele>298.0</ele><time>2026-04-18T09:38:27.998Z</time></trkpt><trkpt lat="44.55481855704508" lon="9.932095520643117"><ele>298.0</ele><time>2026-04-18T09:38:29.998Z</time></trkpt><trkpt lat="44.5547556860958" lon="9.932068739343778"><ele>298.0</ele><time>2026-04-18T09:38:31.998Z</time></trkpt><trkpt lat="44.5546893078399" lon="9.932041766466243"><ele>298.0</ele><time>2026-04-18T09:38:33.998Z</time></trkpt><trkpt lat="44.55460095392598" lon="9.932018605194926"><ele>298.0</ele><time>2026-04-18T09:38:35.998Z</time></trkpt><trkpt lat="44.5545166591618" lon="9.931990703165024"><ele>298.0</ele><time>2026-04-18T09:38:37.998Z</time></trkpt><trkpt lat="44.55443798449336" lon="9.931968026483426"><ele>298.0</ele><time>2026-04-18T09:38:39.998Z</time></trkpt><trkpt lat="44.554361775153644" lon="9.931941245922227"><ele>300.0</ele><time>2026-04-18T09:38:41.998Z</time></trkpt><trkpt lat="44.55428624623904" lon="9.931909180046524"><ele>302.0</ele><time>2026-04-18T09:38:43.998Z</time></trkpt><trkpt lat="44.55421441559941" lon="9.931882864210765"><ele>304.0</ele><time>2026-04-18T09:38:45.998Z</time></trkpt><trkpt lat="44.554146788553616" lon="9.931849986512875"><ele>306.0</ele><time>2026-04-18T09:38:47.998Z</time></trkpt><trkpt lat="44.55408297305676" lon="9.931823054646644"><ele>308.0</ele><time>2026-04-18T09:38:49.998Z</time></trkpt><trkpt lat="44.55401178442344" lon="9.93179744224093"><ele>310.0</ele><time>2026-04-18T09:38:52.998Z</time></trkpt><trkpt lat="44.553909575143415" lon="9.931772083149983"><ele>310.0</ele><time>2026-04-18T09:38:55.998Z</time></trkpt><trkpt lat="44.553836896458684" lon="9.931773220382068"><ele>310.0</ele><time>2026-04-18T09:38:57.998Z</time></trkpt><trkpt lat="44.553770600665885" lon="9.931775160723465"><ele>310.0</ele><time>2026-04-18T09:38:59.998Z</time></trkpt><trkpt lat="44.553705911848674" lon="9.931779499998477"><ele>310.0</ele><time>2026-04-18T09:39:01.998Z</time></trkpt><trkpt lat="44.55363757467367" lon="9.931807005769155"><ele>310.0</ele><time>2026-04-18T09:39:03.998Z</time></trkpt><trkpt lat="44.5535720820018" lon="9.931840674661178"><ele>310.0</ele><time>2026-04-18T09:39:05.998Z</time></trkpt><trkpt lat="44.55350680533544" lon="9.931883887045718"><ele>310.0</ele><time>2026-04-18T09:39:07.997Z</time></trkpt><trkpt lat="44.55344169144372" lon="9.93194429896317"><ele>310.8333333333333</ele><time>2026-04-18T09:39:09.997Z</time></trkpt><trkpt lat="44.553384623771116" lon="9.932009398846386"><ele>311.66666666666663</ele><time>2026-04-18T09:39:11.997Z</time></trkpt><trkpt lat="44.55333411977881" lon="9.932090492612632"><ele>312.5</ele><time>2026-04-18T09:39:13.999Z</time></trkpt><trkpt lat="44.553281613577056" lon="9.932213482992319"><ele>313.3333333333333</ele><time>2026-04-18T09:39:16.999Z</time></trkpt><trkpt lat="44.55323830834435" lon="9.932326414924123"><ele>314.1666666666667</ele><time>2026-04-18T09:39:18.999Z</time></trkpt><trkpt lat="44.553204632542524" lon="9.932421324071514"><ele>315.0</ele><time>2026-04-18T09:39:20.999Z</time></trkpt><trkpt lat="44.55318491751064" lon="9.932526772533835"><ele>317.3333333333333</ele><time>2026-04-18T09:39:22.999Z</time></trkpt><trkpt lat="44.55315853313092" lon="9.932630128121119"><ele>319.6666666666667</ele><time>2026-04-18T09:39:24.999Z</time></trkpt><trkpt lat="44.55313217505717" lon="9.932725557113129"><ele>322.0</ele><time>2026-04-18T09:39:27.999Z</time></trkpt><trkpt lat="44.55310714202576" lon="9.93281735106939"><ele>324.33333333333337</ele><time>2026-04-18T09:39:29.999Z</time></trkpt><trkpt lat="44.55307872521763" lon="9.932942311420055"><ele>326.6666666666667</ele><time>2026-04-18T09:39:31.999Z</time></trkpt><trkpt lat="44.55306107030129" lon="9.933041891567036"><ele>329.0</ele><time>2026-04-18T09:39:33.999Z</time></trkpt><trkpt lat="44.55304886079997" lon="9.933139433660244"><ele>329.0</ele><time>2026-04-18T09:39:35.999Z</time></trkpt><trkpt lat="44.553039277445116" lon="9.933243331148065"><ele>329.0</ele><time>2026-04-18T09:39:37.999Z</time></trkpt><trkpt lat="44.553028497485634" lon="9.933349222622313"><ele>329.0</ele><time>2026-04-18T09:39:39.999Z</time></trkpt><trkpt lat="44.553000812508174" lon="9.933455814974835"><ele>329.0</ele><time>2026-04-18T09:39:41.999Z</time></trkpt><trkpt lat="44.55296503074362" lon="9.933554041685332"><ele>329.0</ele><time>2026-04-18T09:39:43.999Z</time></trkpt><trkpt lat="44.55291961263188" lon="9.933648432262371"><ele>329.0</ele><time>2026-04-18T09:39:45.999Z</time></trkpt><trkpt lat="44.55287825197591" lon="9.933737017144292"><ele>328.1666666666667</ele><time>2026-04-18T09:39:47.999Z</time></trkpt><trkpt lat="44.552839072164986" lon="9.93381295337561"><ele>327.33333333333337</ele><time>2026-04-18T09:39:49.999Z</time></trkpt><trkpt lat="44.55278377809261" lon="9.933885683721309"><ele>326.5</ele><time>2026-04-18T09:39:53Z</time></trkpt><trkpt lat="44.5527409272004" lon="9.933973037781506"><ele>325.6666666666667</ele><time>2026-04-18T09:39:55Z</time></trkpt><trkpt lat="44.552698883165476" lon="9.934069171987211"><ele>324.8333333333333</ele><time>2026-04-18T09:39:57Z</time></trkpt><trkpt lat="44.55265098841188" lon="9.934161730730874"><ele>324.0</ele><time>2026-04-18T09:40:00Z</time></trkpt><trkpt lat="44.55260948943766" lon="9.93424368936409"><ele>324.0</ele><time>2026-04-18T09:40:01Z</time></trkpt><trkpt lat="44.55256894500161" lon="9.934322911354748"><ele>324.0</ele><time>2026-04-18T09:40:03Z</time></trkpt><trkpt lat="44.55251989764073" lon="9.934429200626196"><ele>324.0</ele><time>2026-04-18T09:40:05Z</time></trkpt><trkpt lat="44.55246676632227" lon="9.934540589725584"><ele>324.0</ele><time>2026-04-18T09:40:08Z</time></trkpt><trkpt lat="44.55241319155417" lon="9.93465467016859"><ele>324.0</ele><time>2026-04-18T09:40:11Z</time></trkpt><trkpt lat="44.552312357844805" lon="9.93494292546174"><ele>324.0</ele><time>2026-04-18T09:40:13Z</time></trkpt><trkpt lat="44.55228105676659" lon="9.935046102864506"><ele>324.0</ele><time>2026-04-18T09:40:15Z</time></trkpt><trkpt lat="44.55225292448562" lon="9.935151132620696"><ele>324.0</ele><time>2026-04-18T09:40:17Z</time></trkpt><trkpt lat="44.552228501181965" lon="9.93525871213854"><ele>324.0</ele><time>2026-04-18T09:40:18.999Z</time></trkpt><trkpt lat="44.552198765975845" lon="9.935360901288616"><ele>324.0</ele><time>2026-04-18T09:40:20.999Z</time></trkpt><trkpt lat="44.55215197272805" lon="9.935447628972351"><ele>324.0</ele><time>2026-04-18T09:40:22.999Z</time></trkpt><trkpt lat="44.55210037762386" lon="9.935518350131332"><ele>324.2857142857143</ele><time>2026-04-18T09:40:24.999Z</time></trkpt><trkpt lat="44.552037629411174" lon="9.935563679697253"><ele>324.57142857142856</ele><time>2026-04-18T09:40:26.999Z</time></trkpt><trkpt lat="44.551970944979416" lon="9.93558692847217"><ele>324.8571428571429</ele><time>2026-04-18T09:40:28.999Z</time></trkpt><trkpt lat="44.5519046703766" lon="9.93560015610577"><ele>325.1428571428571</ele><time>2026-04-18T09:40:30.999Z</time></trkpt><trkpt lat="44.551819942029596" lon="9.935560420531997"><ele>325.4285714285714</ele><time>2026-04-18T09:40:32.999Z</time></trkpt><trkpt lat="44.55173096133932" lon="9.93558477051354"><ele>325.7142857142857</ele><time>2026-04-18T09:40:35.999Z</time></trkpt><trkpt lat="44.551680259493644" lon="9.935637332110181"><ele>326.0</ele><time>2026-04-18T09:40:37.999Z</time></trkpt><trkpt lat="44.55163761409722" lon="9.935731393884513"><ele>328.4</ele><time>2026-04-18T09:40:40.999Z</time></trkpt><trkpt lat="44.551582323416" lon="9.935968393366396"><ele>330.8</ele><time>2026-04-18T09:40:42.999Z</time></trkpt><trkpt lat="44.55153959480765" lon="9.9360747188588"><ele>333.2</ele><time>2026-04-18T09:40:44.999Z</time></trkpt><trkpt lat="44.551476738175204" lon="9.936152005943493"><ele>335.59999999999997</ele><time>2026-04-18T09:40:46.999Z</time></trkpt><trkpt lat="44.551395319500585" lon="9.936191216061422"><ele>338.0</ele><time>2026-04-18T09:40:48.999Z</time></trkpt><trkpt lat="44.551304990671255" lon="9.936198245505587"><ele>338.0</ele><time>2026-04-18T09:40:50.999Z</time></trkpt><trkpt lat="44.55121106070523" lon="9.936175790537403"><ele>338.0</ele><time>2026-04-18T09:40:52.999Z</time></trkpt><trkpt lat="44.55111664489967" lon="9.9361333112101"><ele>338.0</ele><time>2026-04-18T09:40:54.999Z</time></trkpt><trkpt lat="44.551017521785795" lon="9.936093296450219"><ele>338.0</ele><time>2026-04-18T09:40:56.999Z</time></trkpt><trkpt lat="44.55091866145095" lon="9.936051397466652"><ele>338.0</ele><time>2026-04-18T09:40:58.999Z</time></trkpt><trkpt lat="44.5508235129234" lon="9.935976386716515"><ele>337.79999999999995</ele><time>2026-04-18T09:41:00.999Z</time></trkpt><trkpt lat="44.55068131340279" lon="9.935922527651678"><ele>337.6</ele><time>2026-04-18T09:41:02.999Z</time></trkpt><trkpt lat="44.55060792129447" lon="9.935910898608478"><ele>337.4</ele><time>2026-04-18T09:41:03.999Z</time></trkpt><trkpt lat="44.55052234513014" lon="9.935930541409675"><ele>337.20000000000005</ele><time>2026-04-18T09:41:04.999Z</time></trkpt><trkpt lat="44.55045565948602" lon="9.935980494073405"><ele>337.0</ele><time>2026-04-18T09:41:05.999Z</time></trkpt><trkpt lat="44.55039045413196" lon="9.936071714350865"><ele>334.20000000000005</ele><time>2026-04-18T09:41:06.999Z</time></trkpt><trkpt lat="44.550351315513865" lon="9.93620210603787"><ele>331.4</ele><time>2026-04-18T09:41:07.999Z</time></trkpt><trkpt lat="44.55033554405923" lon="9.936336239332412"><ele>328.6</ele><time>2026-04-18T09:41:08.999Z</time></trkpt><trkpt lat="44.55033617634555" lon="9.936456381671224"><ele>325.79999999999995</ele><time>2026-04-18T09:41:09.999Z</time></trkpt><trkpt lat="44.55033565262606" lon="9.936550214116037"><ele>323.0</ele><time>2026-04-18T09:41:10.999Z</time></trkpt><trkpt lat="44.55032970561113" lon="9.936700515486606"><ele>325.6666666666667</ele><time>2026-04-18T09:41:12.998Z</time></trkpt><trkpt lat="44.55032136628158" lon="9.936789945569627"><ele>328.33333333333337</ele><time>2026-04-18T09:41:13.998Z</time></trkpt><trkpt lat="44.550291505948" lon="9.936877920296451"><ele>331.0</ele><time>2026-04-18T09:41:15.998Z</time></trkpt><trkpt lat="44.550220191307396" lon="9.936946150761116"><ele>333.6666666666667</ele><time>2026-04-18T09:41:19Z</time></trkpt><trkpt lat="44.55011741548274" lon="9.936964282595477"><ele>336.3333333333333</ele><time>2026-04-18T09:41:21Z</time></trkpt><trkpt lat="44.55000230153879" lon="9.936906959065913"><ele>339.0</ele><time>2026-04-18T09:41:23Z</time></trkpt><trkpt lat="44.54988648450657" lon="9.936851984040231"><ele>339.0</ele><time>2026-04-18T09:41:25Z</time></trkpt><trkpt lat="44.54976133928199" lon="9.936853889681363"><ele>339.0</ele><time>2026-04-18T09:41:27Z</time></trkpt><trkpt lat="44.54968520832708" lon="9.936875170799127"><ele>339.0</ele><time>2026-04-18T09:41:28Z</time></trkpt><trkpt lat="44.54962283720315" lon="9.936907338611848"><ele>339.0</ele><time>2026-04-18T09:41:29Z</time></trkpt><trkpt lat="44.54956280723707" lon="9.93694848994156"><ele>339.0</ele><time>2026-04-18T09:41:30Z</time></trkpt><trkpt lat="44.549460692822464" lon="9.937025389981702"><ele>337.5</ele><time>2026-04-18T09:41:32Z</time></trkpt><trkpt lat="44.549360439860614" lon="9.937100141733978"><ele>336.0</ele><time>2026-04-18T09:41:34Z</time></trkpt><trkpt lat="44.54926165743499" lon="9.937156410105946"><ele>334.5</ele><time>2026-04-18T09:41:36Z</time></trkpt><trkpt lat="44.54915131078659" lon="9.937203272025338"><ele>333.0</ele><time>2026-04-18T09:41:38Z</time></trkpt><trkpt lat="44.549038380656235" lon="9.937244989857923"><ele>333.0</ele><time>2026-04-18T09:41:40Z</time></trkpt><trkpt lat="44.54897306616387" lon="9.937271656395973"><ele>333.0</ele><time>2026-04-18T09:41:41Z</time></trkpt><trkpt lat="44.54890325957475" lon="9.937316145766392"><ele>333.0</ele><time>2026-04-18T09:41:42Z</time></trkpt><trkpt lat="44.5488398798881" lon="9.937377399959546"><ele>333.0</ele><time>2026-04-18T09:41:43Z</time></trkpt><trkpt lat="44.54877890437737" lon="9.937467714414298"><ele>333.0</ele><time>2026-04-18T09:41:44Z</time></trkpt><trkpt lat="44.54873680166594" lon="9.937548051051627"><ele>333.0</ele><time>2026-04-18T09:41:45Z</time></trkpt><trkpt lat="44.54867489719565" lon="9.93767597734663"><ele>332.4</ele><time>2026-04-18T09:41:47Z</time></trkpt><trkpt lat="44.548605740030304" lon="9.93779042886807"><ele>331.79999999999995</ele><time>2026-04-18T09:41:49Z</time></trkpt><trkpt lat="44.548530668322314" lon="9.937883356510229"><ele>331.2</ele><time>2026-04-18T09:41:51Z</time></trkpt><trkpt lat="44.548435232221316" lon="9.937971936194943"><ele>330.6</ele><time>2026-04-18T09:41:53Z</time></trkpt><trkpt lat="44.54838113974931" lon="9.938020089645795"><ele>330.0</ele><time>2026-04-18T09:41:54Z</time></trkpt><trkpt lat="44.54827671860551" lon="9.938113045418795"><ele>330.0</ele><time>2026-04-18T09:41:56Z</time></trkpt><trkpt lat="44.548170546736415" lon="9.938208383434555"><ele>330.0</ele><time>2026-04-18T09:41:58Z</time></trkpt><trkpt lat="44.548066646621564" lon="9.938303007571491"><ele>330.0</ele><time>2026-04-18T09:42:00Z</time></trkpt><trkpt lat="44.547957520821654" lon="9.938404059462826"><ele>330.0</ele><time>2026-04-18T09:42:02Z</time></trkpt><trkpt lat="44.54790095391761" lon="9.938462944148615"><ele>328.6</ele><time>2026-04-18T09:42:03Z</time></trkpt><trkpt lat="44.54784472738518" lon="9.938533066770802"><ele>327.2</ele><time>2026-04-18T09:42:04Z</time></trkpt><trkpt lat="44.54779147907226" lon="9.938633346314859"><ele>325.79999999999995</ele><time>2026-04-18T09:42:05Z</time></trkpt><trkpt lat="44.54775628099004" lon="9.938738935308033"><ele>324.4</ele><time>2026-04-18T09:42:06Z</time></trkpt><trkpt lat="44.5477016370829" lon="9.93890811036456"><ele>323.0</ele><time>2026-04-18T09:42:08Z</time></trkpt><trkpt lat="44.547651451471246" lon="9.939044664024323"><ele>323.0</ele><time>2026-04-18T09:42:10Z</time></trkpt><trkpt lat="44.54756019592267" lon="9.939145383109615"><ele>323.0</ele><time>2026-04-18T09:42:13Z</time></trkpt><trkpt lat="44.54745512477682" lon="9.939202179806438"><ele>323.0</ele><time>2026-04-18T09:42:15Z</time></trkpt><trkpt lat="44.547395670070465" lon="9.939234001163493"><ele>323.0</ele><time>2026-04-18T09:42:16Z</time></trkpt><trkpt lat="44.54729000887484" lon="9.939287289908902"><ele>323.0</ele><time>2026-04-18T09:42:18Z</time></trkpt><trkpt lat="44.547205470546714" lon="9.939346956676083"><ele>323.0</ele><time>2026-04-18T09:42:20Z</time></trkpt><trkpt lat="44.54710318559655" lon="9.939244631294546"><ele>323.0</ele><time>2026-04-18T09:42:22Z</time></trkpt><trkpt lat="44.547058657463175" lon="9.939179680503011"><ele>323.0</ele><time>2026-04-18T09:42:23Z</time></trkpt><trkpt lat="44.54697647167729" lon="9.939084111346103"><ele>323.0</ele><time>2026-04-18T09:42:24.999Z</time></trkpt><trkpt lat="44.54691859873542" lon="9.939038282611099"><ele>323.0</ele><time>2026-04-18T09:42:25.999Z</time></trkpt><trkpt lat="44.54683890941643" lon="9.939026001430033"><ele>323.0</ele><time>2026-04-18T09:42:26.999Z</time></trkpt><trkpt lat="44.54673779287219" lon="9.939062228841808"><ele>323.33333333333337</ele><time>2026-04-18T09:42:27.999Z</time></trkpt><trkpt lat="44.54666893198415" lon="9.93913950993158"><ele>323.6666666666667</ele><time>2026-04-18T09:42:28.999Z</time></trkpt><trkpt lat="44.546618921320594" lon="9.93924036738949"><ele>324.0</ele><time>2026-04-18T09:42:29.999Z</time></trkpt><trkpt lat="44.54658421236944" lon="9.939333255276491"><ele>324.3333333333333</ele><time>2026-04-18T09:42:30.999Z</time></trkpt><trkpt lat="44.54655451449509" lon="9.939421513819159"><ele>324.66666666666663</ele><time>2026-04-18T09:42:31.999Z</time></trkpt><trkpt lat="44.546529491983144" lon="9.939504221070516"><ele>325.0</ele><time>2026-04-18T09:42:32.999Z</time></trkpt><trkpt lat="44.54648544112601" lon="9.939658307303969"><ele>327.4</ele><time>2026-04-18T09:42:34.999Z</time></trkpt><trkpt lat="44.546439936615066" lon="9.939817477842684"><ele>329.8</ele><time>2026-04-18T09:42:36.999Z</time></trkpt><trkpt lat="44.546395682134374" lon="9.9399722758864"><ele>332.20000000000005</ele><time>2026-04-18T09:42:38.999Z</time></trkpt><trkpt lat="44.54637282309546" lon="9.940056925850913"><ele>334.6</ele><time>2026-04-18T09:42:39.999Z</time></trkpt><trkpt lat="44.546329485763174" lon="9.940224979578167"><ele>337.0</ele><time>2026-04-18T09:42:41.999Z</time></trkpt><trkpt lat="44.54631116865798" lon="9.940318429320348"><ele>337.5</ele><time>2026-04-18T09:42:42.999Z</time></trkpt><trkpt lat="44.546297899965246" lon="9.940407123674431"><ele>338.0</ele><time>2026-04-18T09:42:43.999Z</time></trkpt><trkpt lat="44.54628892998634" lon="9.94050194323932"><ele>338.5</ele><time>2026-04-18T09:42:44.999Z</time></trkpt><trkpt lat="44.54629174081319" lon="9.940615796362914"><ele>339.0</ele><time>2026-04-18T09:42:45.999Z</time></trkpt><trkpt lat="44.54629856995928" lon="9.940704380715143"><ele>339.5</ele><time>2026-04-18T09:42:46.999Z</time></trkpt><trkpt lat="44.54631090961911" lon="9.940863131453002"><ele>340.0</ele><time>2026-04-18T09:42:48.999Z</time></trkpt><trkpt lat="44.5463076394837" lon="9.94099780741832"><ele>339.16666666666663</ele><time>2026-04-18T09:42:50.999Z</time></trkpt><trkpt lat="44.54628323465413" lon="9.941107194821301"><ele>338.3333333333333</ele><time>2026-04-18T09:42:52.999Z</time></trkpt><trkpt lat="44.54624362943617" lon="9.941214428853131"><ele>337.5</ele><time>2026-04-18T09:42:54.999Z</time></trkpt><trkpt lat="44.546196432621485" lon="9.941280565581234"><ele>336.6666666666667</ele><time>2026-04-18T09:42:56.999Z</time></trkpt><trkpt lat="44.546115950668515" lon="9.941362678570867"><ele>335.83333333333337</ele><time>2026-04-18T09:42:58.999Z</time></trkpt><trkpt lat="44.546024282697275" lon="9.941440679944952"><ele>335.0</ele><time>2026-04-18T09:43:00.999Z</time></trkpt><trkpt lat="44.54592961292599" lon="9.941508554807884"><ele>335.0</ele><time>2026-04-18T09:43:02.999Z</time></trkpt><trkpt lat="44.54583840256143" lon="9.941555941240468"><ele>335.0</ele><time>2026-04-18T09:43:04.999Z</time></trkpt><trkpt lat="44.54570838830011" lon="9.941571398818207"><ele>335.0</ele><time>2026-04-18T09:43:06.999Z</time></trkpt><trkpt lat="44.545637448311545" lon="9.941580746492546"><ele>335.0</ele><time>2026-04-18T09:43:07.999Z</time></trkpt><trkpt lat="44.54556601197031" lon="9.94159507302122"><ele>335.0</ele><time>2026-04-18T09:43:08.999Z</time></trkpt><trkpt lat="44.5454910628401" lon="9.941611248341086"><ele>335.0</ele><time>2026-04-18T09:43:09.999Z</time></trkpt><trkpt lat="44.545423776235076" lon="9.941622628664085"><ele>334.2857142857143</ele><time>2026-04-18T09:43:10.999Z</time></trkpt><trkpt lat="44.54535690999717" lon="9.941632725029114"><ele>333.57142857142856</ele><time>2026-04-18T09:43:11.999Z</time></trkpt><trkpt lat="44.54528915397486" lon="9.941641152573396"><ele>332.8571428571429</ele><time>2026-04-18T09:43:12.999Z</time></trkpt><trkpt lat="44.54522628042987" lon="9.941645958969326"><ele>332.1428571428571</ele><time>2026-04-18T09:43:13.999Z</time></trkpt><trkpt lat="44.54516190751795" lon="9.941664012001988"><ele>331.42857142857144</ele><time>2026-04-18T09:43:14.999Z</time></trkpt><trkpt lat="44.54509716802849" lon="9.941667214631497"><ele>330.7142857142857</ele><time>2026-04-18T09:43:15.999Z</time></trkpt><trkpt lat="44.54503221449204" lon="9.941669677936549"><ele>330.0</ele><time>2026-04-18T09:43:16.998Z</time></trkpt><trkpt lat="44.54496675844282" lon="9.94167341564407"><ele>330.0</ele><time>2026-04-18T09:43:17.998Z</time></trkpt><trkpt lat="44.544897512680116" lon="9.941678341362987"><ele>330.0</ele><time>2026-04-18T09:43:18.998Z</time></trkpt><trkpt lat="44.54482848890579" lon="9.941683089199874"><ele>330.0</ele><time>2026-04-18T09:43:19.998Z</time></trkpt><trkpt lat="44.54476054542341" lon="9.941686973762069"><ele>330.0</ele><time>2026-04-18T09:43:20.998Z</time></trkpt><trkpt lat="44.544697328524094" lon="9.941687928160297"><ele>330.0</ele><time>2026-04-18T09:43:21.998Z</time></trkpt><trkpt lat="44.54457578903264" lon="9.941667713378186"><ele>330.0</ele><time>2026-04-18T09:43:23.998Z</time></trkpt><trkpt lat="44.54445897259627" lon="9.941612418525075"><ele>332.75</ele><time>2026-04-18T09:43:26Z</time></trkpt><trkpt lat="44.544348732353" lon="9.941535616496182"><ele>335.5</ele><time>2026-04-18T09:43:28Z</time></trkpt><trkpt lat="44.544244899099894" lon="9.941450426576301"><ele>338.25</ele><time>2026-04-18T09:43:30Z</time></trkpt><trkpt lat="44.54414009672012" lon="9.941365004128304"><ele>341.0</ele><time>2026-04-18T09:43:32Z</time></trkpt><trkpt lat="44.544043145132186" lon="9.941288037028377"><ele>341.0</ele><time>2026-04-18T09:43:34Z</time></trkpt><trkpt lat="44.543956530714745" lon="9.941201893622157"><ele>341.0</ele><time>2026-04-18T09:43:36Z</time></trkpt><trkpt lat="44.54385553574303" lon="9.941145728635334"><ele>341.0</ele><time>2026-04-18T09:43:38Z</time></trkpt><trkpt lat="44.54374197613462" lon="9.94110190597388"><ele>341.0</ele><time>2026-04-18T09:43:40Z</time></trkpt><trkpt lat="44.54367800801783" lon="9.941081373786565"><ele>341.0</ele><time>2026-04-18T09:43:41Z</time></trkpt><trkpt lat="44.54361098460574" lon="9.941064441355124"><ele>341.6666666666667</ele><time>2026-04-18T09:43:42Z</time></trkpt><trkpt lat="44.54353974069773" lon="9.941056004944995"><ele>342.33333333333337</ele><time>2026-04-18T09:43:43Z</time></trkpt><trkpt lat="44.5434644046365" lon="9.941049919613587"><ele>343.0</ele><time>2026-04-18T09:43:44Z</time></trkpt><trkpt lat="44.5433984859292" lon="9.94103019017395"><ele>343.6666666666667</ele><time>2026-04-18T09:43:45Z</time></trkpt><trkpt lat="44.543277398477784" lon="9.941032502351236"><ele>344.3333333333333</ele><time>2026-04-18T09:43:47Z</time></trkpt><trkpt lat="44.54321217722261" lon="9.941042964344348"><ele>345.0</ele><time>2026-04-18T09:43:48Z</time></trkpt><trkpt lat="44.54314667591326" lon="9.941061342815736"><ele>345.0</ele><time>2026-04-18T09:43:49Z</time></trkpt><trkpt lat="44.54308456729532" lon="9.941086896007727"><ele>345.0</ele><time>2026-04-18T09:43:50Z</time></trkpt><trkpt lat="44.54302457567638" lon="9.941118219462151"><ele>345.0</ele><time>2026-04-18T09:43:51Z</time></trkpt><trkpt lat="44.54296478505245" lon="9.94116286828828"><ele>345.0</ele><time>2026-04-18T09:43:52Z</time></trkpt><trkpt lat="44.54287116775967" lon="9.941269150708269"><ele>345.0</ele><time>2026-04-18T09:43:54Z</time></trkpt><trkpt lat="44.54280913306202" lon="9.941358443089356"><ele>345.0</ele><time>2026-04-18T09:43:56Z</time></trkpt><trkpt lat="44.542741435216925" lon="9.941460000538465"><ele>346.6</ele><time>2026-04-18T09:43:58Z</time></trkpt><trkpt lat="44.54267747291217" lon="9.94156090060906"><ele>348.2</ele><time>2026-04-18T09:44:00Z</time></trkpt><trkpt lat="44.5426149288629" lon="9.941659562888688"><ele>349.79999999999995</ele><time>2026-04-18T09:44:02Z</time></trkpt><trkpt lat="44.54255199610967" lon="9.941758838378627"><ele>351.4</ele><time>2026-04-18T09:44:04Z</time></trkpt><trkpt lat="44.54249052414975" lon="9.941851447355486"><ele>353.0</ele><time>2026-04-18T09:44:06Z</time></trkpt><trkpt lat="44.54251192514744" lon="9.942010479013309"><ele>353.0</ele><time>2026-04-18T09:44:08Z</time></trkpt><trkpt lat="44.542416508077046" lon="9.9420926994095"><ele>353.0</ele><time>2026-04-18T09:44:10Z</time></trkpt><trkpt lat="44.54235458509893" lon="9.942129807958928"><ele>353.0</ele><time>2026-04-18T09:44:11Z</time></trkpt><trkpt lat="44.54224949191206" lon="9.942188720035897"><ele>353.0</ele><time>2026-04-18T09:44:13Z</time></trkpt><trkpt lat="44.5421340817015" lon="9.942240610057087"><ele>353.0</ele><time>2026-04-18T09:44:15Z</time></trkpt><trkpt lat="44.54202127024132" lon="9.942289117211983"><ele>351.0</ele><time>2026-04-18T09:44:17Z</time></trkpt><trkpt lat="44.54192179210849" lon="9.942330434449488"><ele>349.0</ele><time>2026-04-18T09:44:19Z</time></trkpt><trkpt lat="44.54184096313009" lon="9.942363116483996"><ele>347.0</ele><time>2026-04-18T09:44:21Z</time></trkpt><trkpt lat="44.541761721720526" lon="9.942391184363544"><ele>345.0</ele><time>2026-04-18T09:44:23Z</time></trkpt><trkpt lat="44.54166976088829" lon="9.942424344300127"><ele>343.0</ele><time>2026-04-18T09:44:25Z</time></trkpt><trkpt lat="44.5415766933947" lon="9.942465740981149"><ele>343.0</ele><time>2026-04-18T09:44:27Z</time></trkpt><trkpt lat="44.541470170719556" lon="9.942506118046142"><ele>343.0</ele><time>2026-04-18T09:44:28.999Z</time></trkpt><trkpt lat="44.541408412893865" lon="9.942529661028551"><ele>343.0</ele><time>2026-04-18T09:44:29.999Z</time></trkpt><trkpt lat="44.54128762812565" lon="9.942584295488214"><ele>343.0</ele><time>2026-04-18T09:44:31.999Z</time></trkpt><trkpt lat="44.54117888016851" lon="9.94264629420931"><ele>343.0</ele><time>2026-04-18T09:44:33.999Z</time></trkpt><trkpt lat="44.54105715971786" lon="9.942592105727863"><ele>346.16666666666663</ele><time>2026-04-18T09:44:35.999Z</time></trkpt><trkpt lat="44.54098625804728" lon="9.942640494215032"><ele>349.3333333333333</ele><time>2026-04-18T09:44:37.999Z</time></trkpt><trkpt lat="44.540922323486825" lon="9.942685361318215"><ele>352.5</ele><time>2026-04-18T09:44:39.999Z</time></trkpt><trkpt lat="44.540838411345625" lon="9.942740616448877"><ele>355.6666666666667</ele><time>2026-04-18T09:44:42.999Z</time></trkpt><trkpt lat="44.540771877675176" lon="9.942779487176297"><ele>358.83333333333337</ele><time>2026-04-18T09:44:44.999Z</time></trkpt><trkpt lat="44.5406988912967" lon="9.942817697122058"><ele>362.0</ele><time>2026-04-18T09:44:46.999Z</time></trkpt><trkpt lat="44.540622018885905" lon="9.942853773902831"><ele>362.0</ele><time>2026-04-18T09:44:48.999Z</time></trkpt><trkpt lat="44.54055463797995" lon="9.943017774882444"><ele>362.0</ele><time>2026-04-18T09:44:51.999Z</time></trkpt><trkpt lat="44.54049218619824" lon="9.943048038873114"><ele>362.0</ele><time>2026-04-18T09:44:52.999Z</time></trkpt><trkpt lat="44.540421906294036" lon="9.9430853400542"><ele>362.0</ele><time>2026-04-18T09:44:54.999Z</time></trkpt><trkpt lat="44.54034909703526" lon="9.943123689519872"><ele>362.0</ele><time>2026-04-18T09:44:56.999Z</time></trkpt><trkpt lat="44.54027391189874" lon="9.943162057548308"><ele>362.0</ele><time>2026-04-18T09:44:58.999Z</time></trkpt><trkpt lat="44.5401988193292" lon="9.943205421853413"><ele>360.33333333333337</ele><time>2026-04-18T09:45:00.999Z</time></trkpt><trkpt lat="44.540119286894054" lon="9.943239246637194"><ele>358.6666666666667</ele><time>2026-04-18T09:45:02.999Z</time></trkpt><trkpt lat="44.54004340793331" lon="9.94328281811649"><ele>357.0</ele><time>2026-04-18T09:45:04.999Z</time></trkpt><trkpt lat="44.5399668608753" lon="9.943319386504534"><ele>355.3333333333333</ele><time>2026-04-18T09:45:06.999Z</time></trkpt><trkpt lat="44.539893716664025" lon="9.943358070852412"><ele>353.66666666666663</ele><time>2026-04-18T09:45:08.999Z</time></trkpt><trkpt lat="44.539818582083655" lon="9.943391832144359"><ele>352.0</ele><time>2026-04-18T09:45:10.999Z</time></trkpt><trkpt lat="44.53974100245942" lon="9.943433279185905"><ele>353.8333333333333</ele><time>2026-04-18T09:45:12.999Z</time></trkpt><trkpt lat="44.539666042972" lon="9.943484248581154"><ele>355.66666666666663</ele><time>2026-04-18T09:45:14.999Z</time></trkpt><trkpt lat="44.53959466161842" lon="9.943535702337488"><ele>357.5</ele><time>2026-04-18T09:45:16.999Z</time></trkpt><trkpt lat="44.53952423018772" lon="9.943592330458154"><ele>359.3333333333333</ele><time>2026-04-18T09:45:18.999Z</time></trkpt><trkpt lat="44.53945989356105" lon="9.943656012574996"><ele>361.1666666666667</ele><time>2026-04-18T09:45:20.999Z</time></trkpt><trkpt lat="44.53939175390008" lon="9.943715233358345"><ele>363.0</ele><time>2026-04-18T09:45:22.998Z</time></trkpt><trkpt lat="44.53932341770065" lon="9.943775955790707"><ele>363.0</ele><time>2026-04-18T09:45:24.998Z</time></trkpt><trkpt lat="44.53925457173886" lon="9.94383740294199"><ele>363.0</ele><time>2026-04-18T09:45:26.998Z</time></trkpt><trkpt lat="44.539192057129675" lon="9.943904253381165"><ele>363.0</ele><time>2026-04-18T09:45:28.998Z</time></trkpt><trkpt lat="44.53912682678508" lon="9.943970134875668"><ele>363.0</ele><time>2026-04-18T09:45:31Z</time></trkpt><trkpt lat="44.53906008074118" lon="9.944030563697314"><ele>363.0</ele><time>2026-04-18T09:45:33Z</time></trkpt><trkpt lat="44.53899673363134" lon="9.944094336965568"><ele>363.0</ele><time>2026-04-18T09:45:35Z</time></trkpt><trkpt lat="44.538935945305894" lon="9.944156693267107"><ele>363.1666666666667</ele><time>2026-04-18T09:45:37Z</time></trkpt><trkpt lat="44.53887315516061" lon="9.94421852255436"><ele>363.3333333333333</ele><time>2026-04-18T09:45:39Z</time></trkpt><trkpt lat="44.53881482376265" lon="9.944281892477958"><ele>363.5</ele><time>2026-04-18T09:45:41Z</time></trkpt><trkpt lat="44.53875012432054" lon="9.944341242195108"><ele>363.66666666666663</ele><time>2026-04-18T09:45:43Z</time></trkpt><trkpt lat="44.53868683628329" lon="9.944399644441935"><ele>363.8333333333333</ele><time>2026-04-18T09:45:45Z</time></trkpt><trkpt lat="44.53862430042842" lon="9.94446418630339"><ele>364.0</ele><time>2026-04-18T09:45:47Z</time></trkpt><trkpt lat="44.53856465923272" lon="9.944529938463692"><ele>364.0</ele><time>2026-04-18T09:45:49Z</time></trkpt><trkpt lat="44.53850456909968" lon="9.944592155839896"><ele>364.0</ele><time>2026-04-18T09:45:51Z</time></trkpt><trkpt lat="44.53844128442869" lon="9.944653416881765"><ele>364.0</ele><time>2026-04-18T09:45:53Z</time></trkpt><trkpt lat="44.538382887940685" lon="9.944717276247612"><ele>364.0</ele><time>2026-04-18T09:45:55Z</time></trkpt><trkpt lat="44.53832232277197" lon="9.944779945940848"><ele>364.0</ele><time>2026-04-18T09:45:57Z</time></trkpt><trkpt lat="44.53826224862762" lon="9.944842769278564"><ele>364.0</ele><time>2026-04-18T09:45:59Z</time></trkpt><trkpt lat="44.53820633828447" lon="9.944905628681823"><ele>364.0</ele><time>2026-04-18T09:46:01Z</time></trkpt><trkpt lat="44.53813941417362" lon="9.944959622205896"><ele>364.0</ele><time>2026-04-18T09:46:03Z</time></trkpt><trkpt lat="44.538080680770705" lon="9.945018911533943"><ele>364.0</ele><time>2026-04-18T09:46:05Z</time></trkpt><trkpt lat="44.53801912200632" lon="9.945076164723604"><ele>364.0</ele><time>2026-04-18T09:46:07Z</time></trkpt><trkpt lat="44.53795734465948" lon="9.945132445490236"><ele>364.0</ele><time>2026-04-18T09:46:09Z</time></trkpt><trkpt lat="44.53789271928575" lon="9.94519468934222"><ele>364.0</ele><time>2026-04-18T09:46:11Z</time></trkpt><trkpt lat="44.537825983823595" lon="9.94525484869143"><ele>364.0</ele><time>2026-04-18T09:46:13Z</time></trkpt><trkpt lat="44.53776014855198" lon="9.945322625116958"><ele>365.0</ele><time>2026-04-18T09:46:15Z</time></trkpt><trkpt lat="44.5376912587295" lon="9.945389008138498"><ele>366.0</ele><time>2026-04-18T09:46:17Z</time></trkpt><trkpt lat="44.537624556663694" lon="9.94545440410658"><ele>367.0</ele><time>2026-04-18T09:46:19Z</time></trkpt><trkpt lat="44.537555441662306" lon="9.945512464190603"><ele>368.0</ele><time>2026-04-18T09:46:21Z</time></trkpt><trkpt lat="44.53748757451098" lon="9.945572174759151"><ele>369.0</ele><time>2026-04-18T09:46:23Z</time></trkpt><trkpt lat="44.537419195717135" lon="9.945623665409029"><ele>370.0</ele><time>2026-04-18T09:46:25Z</time></trkpt><trkpt lat="44.53734780187278" lon="9.945673714770317"><ele>370.0</ele><time>2026-04-18T09:46:27Z</time></trkpt><trkpt lat="44.53728052368355" lon="9.94572357649769"><ele>370.0</ele><time>2026-04-18T09:46:29Z</time></trkpt><trkpt lat="44.53721128315561" lon="9.945779023513653"><ele>370.0</ele><time>2026-04-18T09:46:31Z</time></trkpt><trkpt lat="44.5371416640232" lon="9.945825159027722"><ele>370.0</ele><time>2026-04-18T09:46:32.999Z</time></trkpt><trkpt lat="44.53706835342465" lon="9.945862389882372"><ele>370.0</ele><time>2026-04-18T09:46:34.999Z</time></trkpt><trkpt lat="44.53699369671262" lon="9.9458948212598"><ele>370.0</ele><time>2026-04-18T09:46:36.999Z</time></trkpt><trkpt lat="44.536915099040655" lon="9.945920265440602"><ele>375.0</ele><time>2026-04-18T09:46:38.999Z</time></trkpt><trkpt lat="44.53683882171574" lon="9.945953817658795"><ele>380.0</ele><time>2026-04-18T09:46:40.999Z</time></trkpt><trkpt lat="44.536766100354434" lon="9.94598967230672"><ele>385.0</ele><time>2026-04-18T09:46:42.999Z</time></trkpt><trkpt lat="44.53669246786416" lon="9.946021030234451"><ele>390.0</ele><time>2026-04-18T09:46:44.999Z</time></trkpt><trkpt lat="44.5366167170287" lon="9.94604570564834"><ele>395.00000000000006</ele><time>2026-04-18T09:46:46.999Z</time></trkpt><trkpt lat="44.53654044626206" lon="9.946074000762714"><ele>400.0</ele><time>2026-04-18T09:46:48.999Z</time></trkpt><trkpt lat="44.53647006324657" lon="9.946101195844248"><ele>400.00000000000006</ele><time>2026-04-18T09:46:50.999Z</time></trkpt><trkpt lat="44.53639590273281" lon="9.946128167073141"><ele>400.0</ele><time>2026-04-18T09:46:52.999Z</time></trkpt><trkpt lat="44.53632098922759" lon="9.946148445560066"><ele>400.0</ele><time>2026-04-18T09:46:54.999Z</time></trkpt><trkpt lat="44.536249713734854" lon="9.946173834918111"><ele>400.0</ele><time>2026-04-18T09:46:56.999Z</time></trkpt><trkpt lat="44.53617388898785" lon="9.946193789727719"><ele>400.0</ele><time>2026-04-18T09:46:58.999Z</time></trkpt><trkpt lat="44.536109254934644" lon="9.946204225202251"><ele>400.00000000000006</ele><time>2026-04-18T09:47:01.999Z</time></trkpt><trkpt lat="44.53603706578963" lon="9.94623038239248"><ele>400.0</ele><time>2026-04-18T09:47:04.999Z</time></trkpt><trkpt lat="44.53594078607933" lon="9.946252404859244"><ele>400.5714285714286</ele><time>2026-04-18T09:47:07.999Z</time></trkpt><trkpt lat="44.535878428059284" lon="9.946265470813936"><ele>401.14285714285717</ele><time>2026-04-18T09:47:09.999Z</time></trkpt><trkpt lat="44.53580440444808" lon="9.946278772268984"><ele>401.7142857142857</ele><time>2026-04-18T09:47:11.999Z</time></trkpt><trkpt lat="44.53572921917662" lon="9.946290246257824"><ele>402.28571428571433</ele><time>2026-04-18T09:47:13.999Z</time></trkpt><trkpt lat="44.53565525746843" lon="9.946301920575292"><ele>402.85714285714283</ele><time>2026-04-18T09:47:15.999Z</time></trkpt><trkpt lat="44.53558597104255" lon="9.94631644786281"><ele>403.42857142857144</ele><time>2026-04-18T09:47:17.999Z</time></trkpt><trkpt lat="44.535511533028256" lon="9.94632412376049"><ele>404.0</ele><time>2026-04-18T09:47:19.999Z</time></trkpt><trkpt lat="44.53543917903927" lon="9.946337649606809"><ele>400.16666666666663</ele><time>2026-04-18T09:47:21.999Z</time></trkpt><trkpt lat="44.53536455472106" lon="9.946357072815761"><ele>396.3333333333333</ele><time>2026-04-18T09:47:23.999Z</time></trkpt><trkpt lat="44.535287907642775" lon="9.946377236719833"><ele>392.5</ele><time>2026-04-18T09:47:25.998Z</time></trkpt><trkpt lat="44.53521491768151" lon="9.946408762861516"><ele>388.66666666666663</ele><time>2026-04-18T09:47:27.998Z</time></trkpt><trkpt lat="44.535132596873915" lon="9.946442915780946"><ele>384.8333333333333</ele><time>2026-04-18T09:47:29.998Z</time></trkpt><trkpt lat="44.535042234588495" lon="9.946500001020139"><ele>381.0</ele><time>2026-04-18T09:47:31.998Z</time></trkpt><trkpt lat="44.53497162350309" lon="9.946556073163443"><ele>381.0</ele><time>2026-04-18T09:47:33.998Z</time></trkpt><trkpt lat="44.5349055110841" lon="9.946621886146932"><ele>381.0</ele><time>2026-04-18T09:47:35.998Z</time></trkpt><trkpt lat="44.534851026306676" lon="9.94670278712777"><ele>381.0</ele><time>2026-04-18T09:47:38Z</time></trkpt><trkpt lat="44.5348147392182" lon="9.946798740336263"><ele>381.0</ele><time>2026-04-18T09:47:40Z</time></trkpt><trkpt lat="44.534800925120784" lon="9.946907153127114"><ele>381.0</ele><time>2026-04-18T09:47:42Z</time></trkpt><trkpt lat="44.534802975638456" lon="9.947011227359146"><ele>381.0</ele><time>2026-04-18T09:47:44Z</time></trkpt><trkpt lat="44.53480169287521" lon="9.94711227417118"><ele>384.2857142857143</ele><time>2026-04-18T09:47:46Z</time></trkpt><trkpt lat="44.534797669044345" lon="9.947211864641766"><ele>387.5714285714286</ele><time>2026-04-18T09:47:48Z</time></trkpt><trkpt lat="44.534790285976314" lon="9.947313512968536"><ele>390.8571428571429</ele><time>2026-04-18T09:47:50Z</time></trkpt><trkpt lat="44.53479100281387" lon="9.947421141182463"><ele>394.1428571428571</ele><time>2026-04-18T09:47:52Z</time></trkpt><trkpt lat="44.53477932484228" lon="9.94752304549202"><ele>397.42857142857144</ele><time>2026-04-18T09:47:54Z</time></trkpt><trkpt lat="44.53476453131275" lon="9.947622017976254"><ele>400.7142857142857</ele><time>2026-04-18T09:47:56Z</time></trkpt><trkpt lat="44.534746870908855" lon="9.947717907803074"><ele>404.0</ele><time>2026-04-18T09:47:58Z</time></trkpt><trkpt lat="44.534733501584924" lon="9.947811414254952"><ele>406.8333333333333</ele><time>2026-04-18T09:48:00Z</time></trkpt><trkpt lat="44.534705181158365" lon="9.947914876194632"><ele>409.66666666666663</ele><time>2026-04-18T09:48:02Z</time></trkpt><trkpt lat="44.53467726235183" lon="9.947999540178749"><ele>412.5</ele><time>2026-04-18T09:48:04Z</time></trkpt><trkpt lat="44.534631230065635" lon="9.948144200408938"><ele>415.33333333333337</ele><time>2026-04-18T09:48:07Z</time></trkpt><trkpt lat="44.5346142612438" lon="9.94823378649995"><ele>418.1666666666667</ele><time>2026-04-18T09:48:09Z</time></trkpt><trkpt lat="44.53458670691207" lon="9.948314225692638"><ele>421.0</ele><time>2026-04-18T09:48:11Z</time></trkpt><trkpt lat="44.53456453321151" lon="9.948400930200961"><ele>417.83333333333337</ele><time>2026-04-18T09:48:13Z</time></trkpt><trkpt lat="44.534508105759905" lon="9.948513213974564"><ele>414.6666666666667</ele><time>2026-04-18T09:48:16Z</time></trkpt><trkpt lat="44.53447118527896" lon="9.948598062787676"><ele>411.5</ele><time>2026-04-18T09:48:18Z</time></trkpt><trkpt lat="44.534420869729466" lon="9.94867164930306"><ele>408.33333333333337</ele><time>2026-04-18T09:48:20Z</time></trkpt><trkpt lat="44.53437221619943" lon="9.948743506301119"><ele>405.1666666666667</ele><time>2026-04-18T09:48:22Z</time></trkpt><trkpt lat="44.534321276943956" lon="9.948815414529236"><ele>402.0</ele><time>2026-04-18T09:48:24Z</time></trkpt><trkpt lat="44.53427314489325" lon="9.948892723121272"><ele>402.0</ele><time>2026-04-18T09:48:26Z</time></trkpt><trkpt lat="44.53422184198735" lon="9.948966508803025"><ele>402.0</ele><time>2026-04-18T09:48:28Z</time></trkpt><trkpt lat="44.53416623510049" lon="9.949032658252444"><ele>402.0</ele><time>2026-04-18T09:48:30Z</time></trkpt><trkpt lat="44.53411921326961" lon="9.949106570190969"><ele>402.0</ele><time>2026-04-18T09:48:33Z</time></trkpt><trkpt lat="44.534076298093694" lon="9.949171825793044"><ele>402.0</ele><time>2026-04-18T09:48:35Z</time></trkpt><trkpt lat="44.53403488294385" lon="9.94924202889731"><ele>402.0</ele><time>2026-04-18T09:48:36.999Z</time></trkpt><trkpt lat="44.53398896615134" lon="9.949307640609321"><ele>402.0</ele><time>2026-04-18T09:48:39.999Z</time></trkpt><trkpt lat="44.5339239426958" lon="9.949466597238347"><ele>402.2857142857143</ele><time>2026-04-18T09:48:40.999Z</time></trkpt><trkpt lat="44.533878074723575" lon="9.949546389982142"><ele>402.5714285714286</ele><time>2026-04-18T09:48:42.999Z</time></trkpt><trkpt lat="44.533833146764245" lon="9.949627784237782"><ele>402.8571428571429</ele><time>2026-04-18T09:48:44.999Z</time></trkpt><trkpt lat="44.53379364591085" lon="9.949716697483685"><ele>403.1428571428571</ele><time>2026-04-18T09:48:46.999Z</time></trkpt><trkpt lat="44.53375635089161" lon="9.949802154655071"><ele>403.42857142857144</ele><time>2026-04-18T09:48:48.999Z</time></trkpt><trkpt lat="44.53371659586618" lon="9.949893035526108"><ele>403.7142857142857</ele><time>2026-04-18T09:48:50.999Z</time></trkpt><trkpt lat="44.53368488540202" lon="9.94997506172959"><ele>404.0</ele><time>2026-04-18T09:48:52.999Z</time></trkpt><trkpt lat="44.53362723379934" lon="9.950046707563889"><ele>403.99999999999994</ele><time>2026-04-18T09:48:54.999Z</time></trkpt><trkpt lat="44.533578494860215" lon="9.950132969871085"><ele>404.0</ele><time>2026-04-18T09:48:56.999Z</time></trkpt><trkpt lat="44.533539730033986" lon="9.95022931032553"><ele>404.0</ele><time>2026-04-18T09:48:58.999Z</time></trkpt><trkpt lat="44.53353733099358" lon="9.950327028330255"><ele>404.0</ele><time>2026-04-18T09:49:01.999Z</time></trkpt><trkpt lat="44.53349929242318" lon="9.950420628657813"><ele>403.99999999999994</ele><time>2026-04-18T09:49:04.999Z</time></trkpt><trkpt lat="44.533457962808946" lon="9.950518883760889"><ele>404.0</ele><time>2026-04-18T09:49:07.999Z</time></trkpt><trkpt lat="44.53342445425395" lon="9.950606355199874"><ele>403.99999999999994</ele><time>2026-04-18T09:49:09.999Z</time></trkpt><trkpt lat="44.53338858512102" lon="9.950694363113127"><ele>404.0</ele><time>2026-04-18T09:49:11.999Z</time></trkpt><trkpt lat="44.53335299994541" lon="9.950794948831879"><ele>404.0</ele><time>2026-04-18T09:49:13.999Z</time></trkpt><trkpt lat="44.533311165768126" lon="9.950917581353556"><ele>404.0</ele><time>2026-04-18T09:49:15.999Z</time></trkpt><trkpt lat="44.53327075046764" lon="9.95101888185775"><ele>403.99999999999994</ele><time>2026-04-18T09:49:17.999Z</time></trkpt><trkpt lat="44.53322588662092" lon="9.951118098758075"><ele>404.0</ele><time>2026-04-18T09:49:19.999Z</time></trkpt><trkpt lat="44.533186333129976" lon="9.95119825714074"><ele>403.4</ele><time>2026-04-18T09:49:21.999Z</time></trkpt><trkpt lat="44.53312210745455" lon="9.951321989187795"><ele>402.79999999999995</ele><time>2026-04-18T09:49:23.999Z</time></trkpt><trkpt lat="44.53306112538837" lon="9.951417841852257"><ele>402.20000000000005</ele><time>2026-04-18T09:49:25.999Z</time></trkpt><trkpt lat="44.53300137398021" lon="9.951514215349832"><ele>401.6</ele><time>2026-04-18T09:49:27.999Z</time></trkpt><trkpt lat="44.53293572419308" lon="9.951604400769245"><ele>401.0</ele><time>2026-04-18T09:49:29.998Z</time></trkpt><trkpt lat="44.53286977643704" lon="9.951691177662683"><ele>405.6</ele><time>2026-04-18T09:49:31.998Z</time></trkpt><trkpt lat="44.53279482086659" lon="9.951769524171267"><ele>410.20000000000005</ele><time>2026-04-18T09:49:33.998Z</time></trkpt><trkpt lat="44.532708865348816" lon="9.951840875729447"><ele>414.79999999999995</ele><time>2026-04-18T09:49:35.998Z</time></trkpt><trkpt lat="44.53262675235078" lon="9.951923500241218"><ele>419.4</ele><time>2026-04-18T09:49:37.998Z</time></trkpt><trkpt lat="44.532541261588534" lon="9.951997836105548"><ele>424.0</ele><time>2026-04-18T09:49:39.998Z</time></trkpt><trkpt lat="44.53245372378819" lon="9.951925671994468"><ele>424.0</ele><time>2026-04-18T09:49:40.998Z</time></trkpt><trkpt lat="44.53237519350956" lon="9.951982957650332"><ele>424.0</ele><time>2026-04-18T09:49:43Z</time></trkpt><trkpt lat="44.532300570893554" lon="9.952117618902843"><ele>424.0</ele><time>2026-04-18T09:49:45Z</time></trkpt><trkpt lat="44.532182664381104" lon="9.952073882178976"><ele>424.0</ele><time>2026-04-18T09:49:47Z</time></trkpt><trkpt lat="44.532082011259135" lon="9.952094556763416"><ele>424.0</ele><time>2026-04-18T09:49:49Z</time></trkpt><trkpt lat="44.531966494858715" lon="9.952113594302846"><ele>421.00000000000006</ele><time>2026-04-18T09:49:51Z</time></trkpt><trkpt lat="44.531903396800786" lon="9.952127821887784"><ele>418.0</ele><time>2026-04-18T09:49:52Z</time></trkpt><trkpt lat="44.53183828218278" lon="9.952154142664668"><ele>415.0</ele><time>2026-04-18T09:49:53Z</time></trkpt><trkpt lat="44.53177850323485" lon="9.952192759352672"><ele>412.0</ele><time>2026-04-18T09:49:54Z</time></trkpt><trkpt lat="44.53166856000158" lon="9.952275945602489"><ele>409.00000000000006</ele><time>2026-04-18T09:49:56Z</time></trkpt><trkpt lat="44.53161353393123" lon="9.952324028302073"><ele>406.0</ele><time>2026-04-18T09:49:57Z</time></trkpt><trkpt lat="44.531508402396966" lon="9.95244369581006"><ele>406.0</ele><time>2026-04-18T09:49:59Z</time></trkpt><trkpt lat="44.531455307258994" lon="9.952532114479665"><ele>406.0</ele><time>2026-04-18T09:50:00Z</time></trkpt><trkpt lat="44.53141903248421" lon="9.952611787997311"><ele>406.0</ele><time>2026-04-18T09:50:01Z</time></trkpt><trkpt lat="44.531357801191504" lon="9.952720344862858"><ele>406.0</ele><time>2026-04-18T09:50:03Z</time></trkpt><trkpt lat="44.53126240547611" lon="9.952790574480309"><ele>406.0</ele><time>2026-04-18T09:50:06Z</time></trkpt><trkpt lat="44.531152665834185" lon="9.952808217328721"><ele>404.6666666666667</ele><time>2026-04-18T09:50:08Z</time></trkpt><trkpt lat="44.531039341250064" lon="9.95274956558219"><ele>403.33333333333337</ele><time>2026-04-18T09:50:10Z</time></trkpt><trkpt lat="44.53099134824176" lon="9.952690371160399"><ele>402.0</ele><time>2026-04-18T09:50:11Z</time></trkpt><trkpt lat="44.53090504573195" lon="9.952571955918872"><ele>400.66666666666663</ele><time>2026-04-18T09:50:13Z</time></trkpt><trkpt lat="44.53086112513479" lon="9.952507426500848"><ele>399.3333333333333</ele><time>2026-04-18T09:50:14Z</time></trkpt><trkpt lat="44.53079793729337" lon="9.95248015209187"><ele>398.0</ele><time>2026-04-18T09:50:15Z</time></trkpt><trkpt lat="44.53073522941607" lon="9.95245572878857"><ele>397.99999999999994</ele><time>2026-04-18T09:50:16Z</time></trkpt><trkpt lat="44.53067018417443" lon="9.95243622822451"><ele>398.0</ele><time>2026-04-18T09:50:17Z</time></trkpt><trkpt lat="44.530606129189486" lon="9.952415617257103"><ele>398.0</ele><time>2026-04-18T09:50:18Z</time></trkpt><trkpt lat="44.53054369488929" lon="9.952399680777727"><ele>398.0</ele><time>2026-04-18T09:50:19Z</time></trkpt><trkpt lat="44.5304786187231" lon="9.952364648003696"><ele>398.0</ele><time>2026-04-18T09:50:20Z</time></trkpt><trkpt lat="44.53041119155826" lon="9.95235332700891"><ele>397.99999999999994</ele><time>2026-04-18T09:50:21Z</time></trkpt><trkpt lat="44.53033344615197" lon="9.952362082599677"><ele>398.0</ele><time>2026-04-18T09:50:22Z</time></trkpt><trkpt lat="44.530256558574166" lon="9.952402038721821"><ele>397.16666666666663</ele><time>2026-04-18T09:50:23Z</time></trkpt><trkpt lat="44.53018936407767" lon="9.952468888300142"><ele>396.3333333333333</ele><time>2026-04-18T09:50:24Z</time></trkpt><trkpt lat="44.53013525723585" lon="9.95255213098945"><ele>395.5</ele><time>2026-04-18T09:50:25Z</time></trkpt><trkpt lat="44.530091042496636" lon="9.952621803652205"><ele>394.66666666666663</ele><time>2026-04-18T09:50:26Z</time></trkpt><trkpt lat="44.5300496449858" lon="9.952690911278847"><ele>393.8333333333333</ele><time>2026-04-18T09:50:27Z</time></trkpt><trkpt lat="44.52997040742637" lon="9.952823187824807"><ele>393.0</ele><time>2026-04-18T09:50:29Z</time></trkpt><trkpt lat="44.52989005583275" lon="9.952954082126551"><ele>400.0</ele><time>2026-04-18T09:50:31Z</time></trkpt><trkpt lat="44.52981249306829" lon="9.953077300552653"><ele>407.0</ele><time>2026-04-18T09:50:33Z</time></trkpt><trkpt lat="44.529732277769845" lon="9.953201409807972"><ele>414.0</ele><time>2026-04-18T09:50:35Z</time></trkpt><trkpt lat="44.52965570062538" lon="9.953318018845884"><ele>421.0</ele><time>2026-04-18T09:50:37Z</time></trkpt><trkpt lat="44.52957630247278" lon="9.953429357160394"><ele>418.20000000000005</ele><time>2026-04-18T09:50:38.999Z</time></trkpt><trkpt lat="44.52950768355574" lon="9.953503985607385"><ele>415.40000000000003</ele><time>2026-04-18T09:50:40.999Z</time></trkpt><trkpt lat="44.52942936449649" lon="9.953544089606343"><ele>412.6</ele><time>2026-04-18T09:50:42.999Z</time></trkpt><trkpt lat="44.5293196704861" lon="9.953544172990851"><ele>409.8</ele><time>2026-04-18T09:50:44.999Z</time></trkpt><trkpt lat="44.529211821814414" lon="9.953467093072247"><ele>407.0</ele><time>2026-04-18T09:50:46.999Z</time></trkpt><trkpt lat="44.52910325627733" lon="9.953391741514247"><ele>405.5</ele><time>2026-04-18T09:50:48.999Z</time></trkpt><trkpt lat="44.529004958475966" lon="9.95329925198369"><ele>404.0</ele><time>2026-04-18T09:50:50.999Z</time></trkpt><trkpt lat="44.528921912218294" lon="9.953188770379121"><ele>402.5</ele><time>2026-04-18T09:50:52.999Z</time></trkpt><trkpt lat="44.528845758972025" lon="9.953070798120201"><ele>401.0</ele><time>2026-04-18T09:50:54.999Z</time></trkpt><trkpt lat="44.52879532219174" lon="9.95293197089735"><ele>403.20000000000005</ele><time>2026-04-18T09:50:56.999Z</time></trkpt><trkpt lat="44.52871530972126" lon="9.952824597839221"><ele>405.40000000000003</ele><time>2026-04-18T09:50:58.999Z</time></trkpt><trkpt lat="44.52863741441422" lon="9.952714723445808"><ele>407.6</ele><time>2026-04-18T09:51:00.999Z</time></trkpt><trkpt lat="44.52856497823771" lon="9.952602761635758"><ele>409.8</ele><time>2026-04-18T09:51:02.999Z</time></trkpt><trkpt lat="44.52846605642396" lon="9.952524051433139"><ele>412.0</ele><time>2026-04-18T09:51:04.999Z</time></trkpt><trkpt lat="44.528449090131666" lon="9.952366484733998"><ele>412.00000000000006</ele><time>2026-04-18T09:51:06.999Z</time></trkpt><trkpt lat="44.52837579185478" lon="9.952293017061093"><ele>412.0</ele><time>2026-04-18T09:51:08.999Z</time></trkpt><trkpt lat="44.52829857558784" lon="9.952309059107595"><ele>412.0</ele><time>2026-04-18T09:51:10.999Z</time></trkpt><trkpt lat="44.52826281829294" lon="9.952388963874801"><ele>412.0</ele><time>2026-04-18T09:51:12.999Z</time></trkpt><trkpt lat="44.52828863911176" lon="9.952491543376143"><ele>412.00000000000006</ele><time>2026-04-18T09:51:15.999Z</time></trkpt><trkpt lat="44.52833203980204" lon="9.952593929951444"><ele>412.0</ele><time>2026-04-18T09:51:19.999Z</time></trkpt><trkpt lat="44.528371247325964" lon="9.952691242462453"><ele>414.33333333333337</ele><time>2026-04-18T09:51:22.999Z</time></trkpt><trkpt lat="44.52841047202872" lon="9.952766998663058"><ele>416.6666666666667</ele><time>2026-04-18T09:51:24.999Z</time></trkpt><trkpt lat="44.52845782159281" lon="9.95286789401812"><ele>419.0</ele><time>2026-04-18T09:51:27.999Z</time></trkpt><trkpt lat="44.528516598548784" lon="9.952963787029686"><ele>421.33333333333337</ele><time>2026-04-18T09:51:30.999Z</time></trkpt><trkpt lat="44.52855873515622" lon="9.953034807704793"><ele>423.6666666666667</ele><time>2026-04-18T09:51:32.998Z</time></trkpt><trkpt lat="44.528638489295524" lon="9.953120272299701"><ele>426.0</ele><time>2026-04-18T09:51:35.998Z</time></trkpt><trkpt lat="44.52868985655492" lon="9.953181858309872"><ele>427.0</ele><time>2026-04-18T09:51:37.998Z</time></trkpt><trkpt lat="44.52872732184129" lon="9.953259730238889"><ele>428.0</ele><time>2026-04-18T09:51:40.998Z</time></trkpt><trkpt lat="44.528739236331496" lon="9.953377031341784"><ele>429.0</ele><time>2026-04-18T09:51:43.998Z</time></trkpt><trkpt lat="44.528689036193235" lon="9.953484800580684"><ele>430.0</ele><time>2026-04-18T09:51:46.998Z</time></trkpt><trkpt lat="44.52860253832621" lon="9.953504066631472"><ele>431.0</ele><time>2026-04-18T09:51:50Z</time></trkpt><trkpt lat="44.52853203037987" lon="9.953474963995399"><ele>432.0</ele><time>2026-04-18T09:51:53Z</time></trkpt><trkpt lat="44.52847920346558" lon="9.953421159387563"><ele>431.0</ele><time>2026-04-18T09:51:55Z</time></trkpt><trkpt lat="44.52842504941425" lon="9.953318429281524"><ele>430.0</ele><time>2026-04-18T09:51:58Z</time></trkpt><trkpt lat="44.52838933222143" lon="9.953230873645795"><ele>429.0</ele><time>2026-04-18T09:52:00Z</time></trkpt><trkpt lat="44.52834500568117" lon="9.953122311679866"><ele>428.0</ele><time>2026-04-18T09:52:03Z</time></trkpt><trkpt lat="44.52830006300418" lon="9.9530141308347"><ele>427.0</ele><time>2026-04-18T09:52:06Z</time></trkpt><trkpt lat="44.52824311427099" lon="9.952928294658536"><ele>426.0</ele><time>2026-04-18T09:52:09Z</time></trkpt><trkpt lat="44.52817543071909" lon="9.952852497875956"><ele>426.0</ele><time>2026-04-18T09:52:13Z</time></trkpt><trkpt lat="44.528105995067925" lon="9.952796184318423"><ele>426.0</ele><time>2026-04-18T09:52:16Z</time></trkpt><trkpt lat="44.528030438017346" lon="9.952737979199746"><ele>426.0</ele><time>2026-04-18T09:52:19Z</time></trkpt><trkpt lat="44.527947299271474" lon="9.95268069555824"><ele>426.0</ele><time>2026-04-18T09:52:22Z</time></trkpt><trkpt lat="44.52786420558297" lon="9.95264228814856"><ele>426.0</ele><time>2026-04-18T09:52:25Z</time></trkpt><trkpt lat="44.52778899766379" lon="9.952611766730502"><ele>426.0</ele><time>2026-04-18T09:52:28Z</time></trkpt><trkpt lat="44.52770025232355" lon="9.952623393213111"><ele>427.8333333333333</ele><time>2026-04-18T09:52:31Z</time></trkpt><trkpt lat="44.52765474727147" lon="9.952715278822506"><ele>429.66666666666663</ele><time>2026-04-18T09:52:34Z</time></trkpt><trkpt lat="44.52766132531286" lon="9.952815582985226"><ele>431.5</ele><time>2026-04-18T09:52:37Z</time></trkpt><trkpt lat="44.527688622335965" lon="9.95291834234081"><ele>433.3333333333333</ele><time>2026-04-18T09:52:40Z</time></trkpt><trkpt lat="44.527720465494795" lon="9.95300711112438"><ele>435.16666666666663</ele><time>2026-04-18T09:52:42Z</time></trkpt><trkpt lat="44.527758625173234" lon="9.953110147109154"><ele>437.0</ele><time>2026-04-18T09:52:44.999Z</time></trkpt><trkpt lat="44.52778627287335" lon="9.953222738933537"><ele>436.99999999999994</ele><time>2026-04-18T09:52:47.999Z</time></trkpt><trkpt lat="44.52779067405151" lon="9.95334274547854"><ele>437.0</ele><time>2026-04-18T09:52:50.999Z</time></trkpt><trkpt lat="44.52777994874149" lon="9.953464348098887"><ele>437.0</ele><time>2026-04-18T09:52:53.999Z</time></trkpt><trkpt lat="44.52774288145078" lon="9.953572064306927"><ele>437.0</ele><time>2026-04-18T09:52:56.999Z</time></trkpt><trkpt lat="44.527688391957966" lon="9.953664885721405"><ele>436.99999999999994</ele><time>2026-04-18T09:52:59.999Z</time></trkpt><trkpt lat="44.52761819618366" lon="9.953734603102875"><ele>437.0</ele><time>2026-04-18T09:53:02.999Z</time></trkpt><trkpt lat="44.527536122191684" lon="9.953771666233354"><ele>436.99999999999994</ele><time>2026-04-18T09:53:05.999Z</time></trkpt><trkpt lat="44.527450991118606" lon="9.953752692692955"><ele>437.0</ele><time>2026-04-18T09:53:08.999Z</time></trkpt><trkpt lat="44.527379454899354" lon="9.953679804851195"><ele>437.0</ele><time>2026-04-18T09:53:11.999Z</time></trkpt><trkpt lat="44.52734251137672" lon="9.953607922840334"><ele>437.0</ele><time>2026-04-18T09:53:13.999Z</time></trkpt><trkpt lat="44.52730709508465" lon="9.953531756476295"><ele>436.99999999999994</ele><time>2026-04-18T09:53:15.999Z</time></trkpt><trkpt lat="44.52727532478188" lon="9.953454758796061"><ele>437.0</ele><time>2026-04-18T09:53:17.999Z</time></trkpt><trkpt lat="44.52723603656317" lon="9.95333747190699"><ele>436.99999999999994</ele><time>2026-04-18T09:53:20.999Z</time></trkpt><trkpt lat="44.52720969382684" lon="9.953257245848976"><ele>437.0</ele><time>2026-04-18T09:53:22.999Z</time></trkpt><trkpt lat="44.527168266984184" lon="9.953142873834013"><ele>437.0</ele><time>2026-04-18T09:53:25.999Z</time></trkpt><trkpt lat="44.52713314958154" lon="9.953033975155174"><ele>437.0</ele><time>2026-04-18T09:53:28.999Z</time></trkpt><trkpt lat="44.52709438395558" lon="9.952925504937975"><ele>436.99999999999994</ele><time>2026-04-18T09:53:31.999Z</time></trkpt><trkpt lat="44.52704368674511" lon="9.952817186585493"><ele>437.0</ele><time>2026-04-18T09:53:34.999Z</time></trkpt><trkpt lat="44.52698289457813" lon="9.952719984430098"><ele>438.99999999999994</ele><time>2026-04-18T09:53:37.998Z</time></trkpt><trkpt lat="44.52691676724091" lon="9.952630640132712"><ele>441.0</ele><time>2026-04-18T09:53:40.998Z</time></trkpt><trkpt lat="44.526849542791616" lon="9.952544401621616"><ele>443.0</ele><time>2026-04-18T09:53:43.998Z</time></trkpt><trkpt lat="44.52678535668956" lon="9.952459121037055"><ele>445.0</ele><time>2026-04-18T09:53:46.998Z</time></trkpt><trkpt lat="44.5267165959486" lon="9.952383088116664"><ele>446.99999999999994</ele><time>2026-04-18T09:53:49.998Z</time></trkpt><trkpt lat="44.52664396234437" lon="9.95231183724517"><ele>449.0</ele><time>2026-04-18T09:53:52.998Z</time></trkpt><trkpt lat="44.52656961567448" lon="9.952244188349654"><ele>448.99999999999994</ele><time>2026-04-18T09:53:56Z</time></trkpt><trkpt lat="44.526491349606644" lon="9.952190594844549"><ele>449.0</ele><time>2026-04-18T09:53:59Z</time></trkpt><trkpt lat="44.52640494019773" lon="9.952150688199907"><ele>449.0</ele><time>2026-04-18T09:54:02Z</time></trkpt><trkpt lat="44.526319837880834" lon="9.952122200268395"><ele>449.0</ele><time>2026-04-18T09:54:05Z</time></trkpt><trkpt lat="44.52623041454743" lon="9.952098586082284"><ele>448.99999999999994</ele><time>2026-04-18T09:54:08Z</time></trkpt><trkpt lat="44.526167148816306" lon="9.952095611451417"><ele>449.0</ele><time>2026-04-18T09:54:10Z</time></trkpt><trkpt lat="44.52610178503759" lon="9.952107932534991"><ele>450.3333333333333</ele><time>2026-04-18T09:54:12Z</time></trkpt><trkpt lat="44.526037007362945" lon="9.952123252065817"><ele>451.66666666666663</ele><time>2026-04-18T09:54:14Z</time></trkpt><trkpt lat="44.5259752602017" lon="9.952146053104826"><ele>453.0</ele><time>2026-04-18T09:54:16Z</time></trkpt><trkpt lat="44.525887122793726" lon="9.952183324413864"><ele>454.33333333333337</ele><time>2026-04-18T09:54:19Z</time></trkpt><trkpt lat="44.52580075192519" lon="9.952222231410822"><ele>455.6666666666667</ele><time>2026-04-18T09:54:22Z</time></trkpt><trkpt lat="44.52572217658082" lon="9.952270119419383"><ele>457.0</ele><time>2026-04-18T09:54:25Z</time></trkpt><trkpt lat="44.52564689282787" lon="9.952319981533874"><ele>457.00000000000006</ele><time>2026-04-18T09:54:27Z</time></trkpt><trkpt lat="44.52559091443739" lon="9.952368533829322"><ele>457.0</ele><time>2026-04-18T09:54:29Z</time></trkpt><trkpt lat="44.525536682808585" lon="9.952417437960085"><ele>457.0</ele><time>2026-04-18T09:54:32Z</time></trkpt><trkpt lat="44.52548733251282" lon="9.952475383029775"><ele>457.0</ele><time>2026-04-18T09:54:34Z</time></trkpt><trkpt lat="44.52541744299435" lon="9.952562034896042"><ele>457.00000000000006</ele><time>2026-04-18T09:54:36Z</time></trkpt><trkpt lat="44.525363290212475" lon="9.952653252610991"><ele>457.0</ele><time>2026-04-18T09:54:39Z</time></trkpt><trkpt lat="44.5253199857666" lon="9.952754765346938"><ele>457.28571428571433</ele><time>2026-04-18T09:54:42Z</time></trkpt><trkpt lat="44.525318964864915" lon="9.952865657047338"><ele>457.57142857142856</ele><time>2026-04-18T09:54:45Z</time></trkpt><trkpt lat="44.5253824718117" lon="9.95294465820442"><ele>457.8571428571429</ele><time>2026-04-18T09:54:48.999Z</time></trkpt><trkpt lat="44.525443033763096" lon="9.9529122092171"><ele>458.14285714285717</ele><time>2026-04-18T09:54:51.999Z</time></trkpt><trkpt lat="44.525488832433886" lon="9.952839237456809"><ele>458.42857142857144</ele><time>2026-04-18T09:54:54.999Z</time></trkpt><trkpt lat="44.525531864844204" lon="9.952762890209927"><ele>458.7142857142857</ele><time>2026-04-18T09:54:57.999Z</time></trkpt><trkpt lat="44.52558442049057" lon="9.95268390401525"><ele>459.0</ele><time>2026-04-18T09:55:00.999Z</time></trkpt><trkpt lat="44.52565597978382" lon="9.952631983975182"><ele>461.6666666666667</ele><time>2026-04-18T09:55:03.999Z</time></trkpt><trkpt lat="44.525731263542326" lon="9.952614853687344"><ele>464.33333333333337</ele><time>2026-04-18T09:55:06.999Z</time></trkpt><trkpt lat="44.525806642218775" lon="9.952628870167263"><ele>467.0</ele><time>2026-04-18T09:55:09.999Z</time></trkpt><trkpt lat="44.52587611869351" lon="9.952651832268312"><ele>469.6666666666667</ele><time>2026-04-18T09:55:12.999Z</time></trkpt><trkpt lat="44.52595817352722" lon="9.95268378289417"><ele>472.33333333333337</ele><time>2026-04-18T09:55:16.999Z</time></trkpt><trkpt lat="44.52603896040212" lon="9.952698363632921"><ele>475.0</ele><time>2026-04-18T09:55:20.999Z</time></trkpt><trkpt lat="44.526110760109745" lon="9.95273261817299"><ele>475.00000000000006</ele><time>2026-04-18T09:55:24.999Z</time></trkpt><trkpt lat="44.52617838805407" lon="9.952783303115638"><ele>475.0</ele><time>2026-04-18T09:55:27.999Z</time></trkpt><trkpt lat="44.52625350978242" lon="9.952822843022838"><ele>475.0</ele><time>2026-04-18T09:55:30.999Z</time></trkpt><trkpt lat="44.52631401826829" lon="9.952888475816664"><ele>475.0</ele><time>2026-04-18T09:55:33.999Z</time></trkpt><trkpt lat="44.52637772797293" lon="9.95295469989182"><ele>475.00000000000006</ele><time>2026-04-18T09:55:36.999Z</time></trkpt><trkpt lat="44.52642281631193" lon="9.953021565803743"><ele>475.0</ele><time>2026-04-18T09:55:39.999Z</time></trkpt><trkpt lat="44.526475033297864" lon="9.953115260776778"><ele>476.33333333333337</ele><time>2026-04-18T09:55:42.998Z</time></trkpt><trkpt lat="44.526509308491114" lon="9.953216446107037"><ele>477.6666666666667</ele><time>2026-04-18T09:55:45.998Z</time></trkpt><trkpt lat="44.526511597919374" lon="9.953317774967635"><ele>479.0</ele><time>2026-04-18T09:55:48.998Z</time></trkpt><trkpt lat="44.526463235700255" lon="9.953384866418304"><ele>480.33333333333337</ele><time>2026-04-18T09:55:51.998Z</time></trkpt><trkpt lat="44.52639414789344" lon="9.953350518117015"><ele>481.6666666666667</ele><time>2026-04-18T09:55:54.998Z</time></trkpt><trkpt lat="44.52634794260223" lon="9.953265476940215"><ele>483.0</ele><time>2026-04-18T09:55:57.998Z</time></trkpt><trkpt lat="44.526302851715066" lon="9.953172844782255"><ele>481.8571428571429</ele><time>2026-04-18T09:56:01Z</time></trkpt><trkpt lat="44.5262591219728" lon="9.95307188347496"><ele>480.7142857142857</ele><time>2026-04-18T09:56:04Z</time></trkpt><trkpt lat="44.52620982887952" lon="9.953016103451557"><ele>479.57142857142856</ele><time>2026-04-18T09:56:07Z</time></trkpt><trkpt lat="44.52615585224662" lon="9.95296890275529"><ele>478.42857142857144</ele><time>2026-04-18T09:56:09Z</time></trkpt><trkpt lat="44.526090331986836" lon="9.952939260211679"><ele>477.28571428571433</ele><time>2026-04-18T09:56:12Z</time></trkpt><trkpt lat="44.5260208329321" lon="9.952924612701924"><ele>476.14285714285717</ele><time>2026-04-18T09:56:15Z</time></trkpt><trkpt lat="44.5259552753746" lon="9.952930608930714"><ele>475.0</ele><time>2026-04-18T09:56:18Z</time></trkpt><trkpt lat="44.52587761318479" lon="9.952953039456892"><ele>475.00000000000006</ele><time>2026-04-18T09:56:21Z</time></trkpt><trkpt lat="44.525803311982074" lon="9.9529881354435"><ele>475.0</ele><time>2026-04-18T09:56:24Z</time></trkpt><trkpt lat="44.52573382722388" lon="9.953038146583964"><ele>475.0</ele><time>2026-04-18T09:56:27Z</time></trkpt><trkpt lat="44.525679390319326" lon="9.95312067861511"><ele>475.0</ele><time>2026-04-18T09:56:30Z</time></trkpt><trkpt lat="44.52567156567737" lon="9.953247820984243"><ele>475.00000000000006</ele><time>2026-04-18T09:56:33Z</time></trkpt><trkpt lat="44.52573816301866" lon="9.95330658802546"><ele>475.0</ele><time>2026-04-18T09:56:36Z</time></trkpt><trkpt lat="44.52580235901993" lon="9.953303769762465"><ele>475.00000000000006</ele><time>2026-04-18T09:56:39Z</time></trkpt><trkpt lat="44.52588402420421" lon="9.953278826917344"><ele>475.0</ele><time>2026-04-18T09:56:43Z</time></trkpt><trkpt lat="44.5259591907805" lon="9.953275360330041"><ele>475.0</ele><time>2026-04-18T09:56:46Z</time></trkpt><trkpt lat="44.526037578011454" lon="9.953298491428408"><ele>475.0</ele><time>2026-04-18T09:56:49Z</time></trkpt><trkpt lat="44.52609167697043" lon="9.95334884398674"><ele>475.00000000000006</ele><time>2026-04-18T09:56:51.999Z</time></trkpt><trkpt lat="44.52614400260122" lon="9.953424640380328"><ele>475.0</ele><time>2026-04-18T09:56:54.999Z</time></trkpt><trkpt lat="44.526191606478555" lon="9.953513674681462"><ele>476.33333333333337</ele><time>2026-04-18T09:56:57.999Z</time></trkpt><trkpt lat="44.52624218911432" lon="9.953602599301396"><ele>477.6666666666667</ele><time>2026-04-18T09:57:00.999Z</time></trkpt><trkpt lat="44.526290452037784" lon="9.953685472343038"><ele>479.0</ele><time>2026-04-18T09:57:03.999Z</time></trkpt><trkpt lat="44.52633485987487" lon="9.953786788295634"><ele>480.33333333333337</ele><time>2026-04-18T09:57:06.999Z</time></trkpt><trkpt lat="44.52637802534572" lon="9.953871710618747"><ele>481.6666666666667</ele><time>2026-04-18T09:57:09.999Z</time></trkpt><trkpt lat="44.52642043864133" lon="9.9539608690563"><ele>483.0</ele><time>2026-04-18T09:57:12.999Z</time></trkpt><trkpt lat="44.52646044021723" lon="9.954045271419266"><ele>483.0</ele><time>2026-04-18T09:57:15.999Z</time></trkpt><trkpt lat="44.526496801175625" lon="9.954135820359731"><ele>483.0</ele><time>2026-04-18T09:57:18.999Z</time></trkpt><trkpt lat="44.526525091465274" lon="9.954218425496348"><ele>483.0</ele><time>2026-04-18T09:57:20.999Z</time></trkpt><trkpt lat="44.52655613992961" lon="9.954309629544985"><ele>483.0</ele><time>2026-04-18T09:57:23.999Z</time></trkpt><trkpt lat="44.52658637049003" lon="9.954405085168066"><ele>483.0</ele><time>2026-04-18T09:57:26.999Z</time></trkpt><trkpt lat="44.526616703460725" lon="9.954486988758559"><ele>483.0</ele><time>2026-04-18T09:57:28.999Z</time></trkpt><trkpt lat="44.526642226588166" lon="9.95457958445791"><ele>483.0</ele><time>2026-04-18T09:57:30.999Z</time></trkpt><trkpt lat="44.52667527073238" lon="9.954694822785656"><ele>485.0</ele><time>2026-04-18T09:57:33.999Z</time></trkpt><trkpt lat="44.526700522022566" lon="9.954816993225668"><ele>487.0</ele><time>2026-04-18T09:57:36.999Z</time></trkpt><trkpt lat="44.5267221389241" lon="9.954942532426102"><ele>489.0</ele><time>2026-04-18T09:57:39.999Z</time></trkpt><trkpt lat="44.52674103049243" lon="9.955079398071012"><ele>491.0</ele><time>2026-04-18T09:57:42.999Z</time></trkpt><trkpt lat="44.52676080764779" lon="9.955208117787732"><ele>493.0</ele><time>2026-04-18T09:57:45.998Z</time></trkpt><trkpt lat="44.526779391641035" lon="9.95529603029885"><ele>495.0</ele><time>2026-04-18T09:57:47.998Z</time></trkpt><trkpt lat="44.52681718809396" lon="9.955409128580449"><ele>494.3333333333333</ele><time>2026-04-18T09:57:50.998Z</time></trkpt><trkpt lat="44.52686926057811" lon="9.955504937716592"><ele>493.66666666666663</ele><time>2026-04-18T09:57:53.998Z</time></trkpt><trkpt lat="44.526934786427816" lon="9.955585713829375"><ele>493.0</ele><time>2026-04-18T09:57:56.998Z</time></trkpt><trkpt lat="44.52700644527358" lon="9.955654015409142"><ele>492.3333333333333</ele><time>2026-04-18T09:57:59.998Z</time></trkpt><trkpt lat="44.5270782674238" lon="9.955718758849022"><ele>491.66666666666663</ele><time>2026-04-18T09:58:02.998Z</time></trkpt><trkpt lat="44.52714744525108" lon="9.955772161562134"><ele>491.0</ele><time>2026-04-18T09:58:06Z</time></trkpt><trkpt lat="44.527199143110636" lon="9.955842044860107"><ele>489.99999999999994</ele><time>2026-04-18T09:58:09Z</time></trkpt><trkpt lat="44.5272147155675" lon="9.955943898347183"><ele>489.0</ele><time>2026-04-18T09:58:13Z</time></trkpt><trkpt lat="44.52719061941673" lon="9.956030021190928"><ele>488.0</ele><time>2026-04-18T09:58:16Z</time></trkpt><trkpt lat="44.527119894201135" lon="9.956064757743741"><ele>487.0</ele><time>2026-04-18T09:58:19Z</time></trkpt><trkpt lat="44.52703785004206" lon="9.95606773352221"><ele>485.99999999999994</ele><time>2026-04-18T09:58:23Z</time></trkpt><trkpt lat="44.5269608095105" lon="9.956044351248849"><ele>485.0</ele><time>2026-04-18T09:58:27Z</time></trkpt><trkpt lat="44.52687913167348" lon="9.95598507233206"><ele>487.28571428571433</ele><time>2026-04-18T09:58:31Z</time></trkpt><trkpt lat="44.526820771584006" lon="9.955916339683165"><ele>489.57142857142856</ele><time>2026-04-18T09:58:35Z</time></trkpt><trkpt lat="44.52677236333524" lon="9.955847056838872"><ele>491.8571428571429</ele><time>2026-04-18T09:58:38Z</time></trkpt><trkpt lat="44.52671715913191" lon="9.955753294213782"><ele>494.14285714285717</ele><time>2026-04-18T09:58:41Z</time></trkpt><trkpt lat="44.526671356646354" lon="9.955676975599863"><ele>496.42857142857144</ele><time>2026-04-18T09:58:45Z</time></trkpt><trkpt lat="44.52662562587614" lon="9.95560641326498"><ele>498.7142857142857</ele><time>2026-04-18T09:58:48Z</time></trkpt><trkpt lat="44.52657761259916" lon="9.955524677773871"><ele>501.0</ele><time>2026-04-18T09:58:51Z</time></trkpt><trkpt lat="44.52652822616623" lon="9.955432357080777"><ele>501.7142857142857</ele><time>2026-04-18T09:58:54Z</time></trkpt><trkpt lat="44.526489890125994" lon="9.955358430505056"><ele>502.42857142857144</ele><time>2026-04-18T09:58:56.999Z</time></trkpt><trkpt lat="44.52644819409006" lon="9.955283969862002"><ele>503.14285714285717</ele><time>2026-04-18T09:58:59.999Z</time></trkpt><trkpt lat="44.52640416577913" lon="9.955206304006985"><ele>503.8571428571429</ele><time>2026-04-18T09:59:02.999Z</time></trkpt><trkpt lat="44.52635166442262" lon="9.95512992364481"><ele>504.57142857142856</ele><time>2026-04-18T09:59:05.999Z</time></trkpt><trkpt lat="44.526282883131195" lon="9.955059758684097"><ele>505.28571428571433</ele><time>2026-04-18T09:59:08.999Z</time></trkpt><trkpt lat="44.5262125278061" lon="9.955008790007037"><ele>506.00000000000006</ele><time>2026-04-18T09:59:11.999Z</time></trkpt><trkpt lat="44.526137667810545" lon="9.954967627944955"><ele>506.66666666666663</ele><time>2026-04-18T09:59:14.999Z</time></trkpt><trkpt lat="44.526062029498085" lon="9.954935283318692"><ele>507.3333333333333</ele><time>2026-04-18T09:59:17.999Z</time></trkpt><trkpt lat="44.52598727839479" lon="9.954917154039592"><ele>508.0</ele><time>2026-04-18T09:59:20.999Z</time></trkpt><trkpt lat="44.52591514620238" lon="9.95490957591595"><ele>508.66666666666663</ele><time>2026-04-18T09:59:23.999Z</time></trkpt><trkpt lat="44.52584007940046" lon="9.954922965865162"><ele>509.3333333333333</ele><time>2026-04-18T09:59:26.999Z</time></trkpt><trkpt lat="44.52576538048254" lon="9.954952173950776"><ele>510.0</ele><time>2026-04-18T09:59:29.999Z</time></trkpt><trkpt lat="44.525690796983675" lon="9.955011305822653"><ele>511.8333333333333</ele><time>2026-04-18T09:59:32.999Z</time></trkpt><trkpt lat="44.525628109396365" lon="9.955098830417784"><ele>513.6666666666666</ele><time>2026-04-18T09:59:35.999Z</time></trkpt><trkpt lat="44.5255733261339" lon="9.955198060886994"><ele>515.5</ele><time>2026-04-18T09:59:38.999Z</time></trkpt><trkpt lat="44.52552492722039" lon="9.95530718031055"><ele>517.3333333333333</ele><time>2026-04-18T09:59:41.999Z</time></trkpt><trkpt lat="44.52549618899445" lon="9.955391151536158"><ele>519.1666666666666</ele><time>2026-04-18T09:59:43.999Z</time></trkpt><trkpt lat="44.525470461299804" lon="9.955477005711735"><ele>521.0</ele><time>2026-04-18T09:59:45.999Z</time></trkpt><trkpt lat="44.52544073724043" lon="9.955562438655337"><ele>521.0</ele><time>2026-04-18T09:59:47.999Z</time></trkpt><trkpt lat="44.52541478511934" lon="9.95565522801289"><ele>521.0</ele><time>2026-04-18T09:59:49.999Z</time></trkpt><trkpt lat="44.52538635593645" lon="9.95574018661736"><ele>521.0</ele><time>2026-04-18T09:59:51.998Z</time></trkpt><trkpt lat="44.525343851351934" lon="9.95585800678496"><ele>521.0</ele><time>2026-04-18T09:59:54.998Z</time></trkpt><trkpt lat="44.525307850918296" lon="9.955977936011958"><ele>521.0</ele><time>2026-04-18T09:59:57.998Z</time></trkpt><trkpt lat="44.52527539475044" lon="9.956096739058728"><ele>521.0</ele><time>2026-04-18T10:00:00.998Z</time></trkpt><trkpt lat="44.52525055408885" lon="9.956178509429053"><ele>521.1666666666666</ele><time>2026-04-18T10:00:02.998Z</time></trkpt><trkpt lat="44.5252126638041" lon="9.956299528600782"><ele>521.3333333333333</ele><time>2026-04-18T10:00:05.998Z</time></trkpt><trkpt lat="44.52517469992548" lon="9.956414638859911"><ele>521.5</ele><time>2026-04-18T10:00:08.998Z</time></trkpt><trkpt lat="44.52512532072185" lon="9.956520316728938"><ele>521.6666666666666</ele><time>2026-04-18T10:00:12Z</time></trkpt><trkpt lat="44.525077098926175" lon="9.956613991412619"><ele>521.8333333333334</ele><time>2026-04-18T10:00:15Z</time></trkpt><trkpt lat="44.52502313872208" lon="9.956679856726662"><ele>522.0</ele><time>2026-04-18T10:00:18Z</time></trkpt><trkpt lat="44.52496529884147" lon="9.9567519193479"><ele>525.6666666666666</ele><time>2026-04-18T10:00:21Z</time></trkpt><trkpt lat="44.52487422394724" lon="9.956824133371914"><ele>529.3333333333334</ele><time>2026-04-18T10:00:25Z</time></trkpt><trkpt lat="44.52483126549705" lon="9.956896997727824"><ele>533.0</ele><time>2026-04-18T10:00:28Z</time></trkpt><trkpt lat="44.52476521243239" lon="9.956974256501278"><ele>536.6666666666667</ele><time>2026-04-18T10:00:31Z</time></trkpt><trkpt lat="44.52470151154166" lon="9.9570419475415"><ele>540.3333333333334</ele><time>2026-04-18T10:00:34Z</time></trkpt><trkpt lat="44.52463943426288" lon="9.957105956393967"><ele>544.0</ele><time>2026-04-18T10:00:36Z</time></trkpt><trkpt lat="44.524576404799" lon="9.957164543534267"><ele>541.1666666666667</ele><time>2026-04-18T10:00:38Z</time></trkpt><trkpt lat="44.52451129782984" lon="9.957213979044559"><ele>538.3333333333334</ele><time>2026-04-18T10:00:40Z</time></trkpt><trkpt lat="44.524454577321386" lon="9.957258735489201"><ele>535.5</ele><time>2026-04-18T10:00:42Z</time></trkpt><trkpt lat="44.524394415937074" lon="9.957292889141428"><ele>532.6666666666666</ele><time>2026-04-18T10:00:44Z</time></trkpt><trkpt lat="44.52436584701427" lon="9.957390915265538"><ele>529.8333333333333</ele><time>2026-04-18T10:00:47Z</time></trkpt><trkpt lat="44.524296800470175" lon="9.957458354129766"><ele>527.0</ele><time>2026-04-18T10:00:50Z</time></trkpt><trkpt lat="44.524225609078336" lon="9.9575300980308"><ele>530.3333333333333</ele><time>2026-04-18T10:00:53Z</time></trkpt><trkpt lat="44.5241535972218" lon="9.95759272003248"><ele>533.6666666666666</ele><time>2026-04-18T10:00:56Z</time></trkpt><trkpt lat="44.52408616540139" lon="9.957659220875122"><ele>537.0</ele><time>2026-04-18T10:00:59Z</time></trkpt><trkpt lat="44.52401281751809" lon="9.957715514194222"><ele>540.3333333333334</ele><time>2026-04-18T10:01:01.999Z</time></trkpt><trkpt lat="44.52394110069956" lon="9.95777932459307"><ele>543.6666666666667</ele><time>2026-04-18T10:01:04.999Z</time></trkpt><trkpt lat="44.52387028372081" lon="9.957832289319118"><ele>547.0</ele><time>2026-04-18T10:01:07.999Z</time></trkpt><trkpt lat="44.523805787813544" lon="9.957898435332647"><ele>547.0</ele><time>2026-04-18T10:01:10.999Z</time></trkpt><trkpt lat="44.523743450192285" lon="9.957975715915074"><ele>547.0</ele><time>2026-04-18T10:01:14.999Z</time></trkpt><trkpt lat="44.52369398896914" lon="9.958036254428041"><ele>547.0</ele><time>2026-04-18T10:01:17.999Z</time></trkpt><trkpt lat="44.52363870512814" lon="9.95810819631501"><ele>547.0</ele><time>2026-04-18T10:01:20.999Z</time></trkpt><trkpt lat="44.52358057251041" lon="9.958173665422077"><ele>547.0</ele><time>2026-04-18T10:01:23.999Z</time></trkpt><trkpt lat="44.523527148527485" lon="9.958251074919954"><ele>547.0</ele><time>2026-04-18T10:01:26.999Z</time></trkpt><trkpt lat="44.5234786790865" lon="9.95833651800316"><ele>546.5</ele><time>2026-04-18T10:01:29.999Z</time></trkpt><trkpt lat="44.523433100883395" lon="9.958439255400629"><ele>546.0</ele><time>2026-04-18T10:01:32.999Z</time></trkpt><trkpt lat="44.52339376021602" lon="9.958547946148277"><ele>545.5</ele><time>2026-04-18T10:01:35.999Z</time></trkpt><trkpt lat="44.523359828388884" lon="9.958646468893267"><ele>545.0</ele><time>2026-04-18T10:01:38.999Z</time></trkpt><trkpt lat="44.52332506657106" lon="9.958745550160756"><ele>544.5</ele><time>2026-04-18T10:01:41.999Z</time></trkpt><trkpt lat="44.52329389496163" lon="9.958845674072421"><ele>544.0</ele><time>2026-04-18T10:01:44.999Z</time></trkpt><trkpt lat="44.52327977011207" lon="9.958934516647025"><ele>543.9999999999999</ele><time>2026-04-18T10:01:47.999Z</time></trkpt><trkpt lat="44.523267652930464" lon="9.959029957382896"><ele>544.0</ele><time>2026-04-18T10:01:50.999Z</time></trkpt><trkpt lat="44.5232540984924" lon="9.959135080258033"><ele>544.0</ele><time>2026-04-18T10:01:53.998Z</time></trkpt><trkpt lat="44.52324456636325" lon="9.959230360679937"><ele>544.0</ele><time>2026-04-18T10:01:56.998Z</time></trkpt><trkpt lat="44.523238656035154" lon="9.959320933983209"><ele>544.0</ele><time>2026-04-18T10:01:59.998Z</time></trkpt><trkpt lat="44.52322539906702" lon="9.959416072572969"><ele>543.9999999999999</ele><time>2026-04-18T10:02:02.998Z</time></trkpt><trkpt lat="44.52321745530164" lon="9.959518727156889"><ele>544.0</ele><time>2026-04-18T10:02:05.998Z</time></trkpt><trkpt lat="44.52320736305015" lon="9.959633451779622"><ele>544.5</ele><time>2026-04-18T10:02:08.998Z</time></trkpt><trkpt lat="44.52320595559058" lon="9.959745251051805"><ele>545.0</ele><time>2026-04-18T10:02:12.998Z</time></trkpt><trkpt lat="44.52319985397851" lon="9.959850648577468"><ele>545.5</ele><time>2026-04-18T10:02:15.998Z</time></trkpt><trkpt lat="44.52319372105938" lon="9.959966239056431"><ele>546.0</ele><time>2026-04-18T10:02:19Z</time></trkpt><trkpt lat="44.52318507195918" lon="9.960055944671437"><ele>546.5</ele><time>2026-04-18T10:02:22Z</time></trkpt><trkpt lat="44.52317232217656" lon="9.960174604477098"><ele>547.0</ele><time>2026-04-18T10:02:25Z</time></trkpt><trkpt lat="44.52315169220388" lon="9.960275338418553"><ele>548.1666666666667</ele><time>2026-04-18T10:02:28Z</time></trkpt><trkpt lat="44.5231350347376" lon="9.9603823149023"><ele>549.3333333333334</ele><time>2026-04-18T10:02:31Z</time></trkpt><trkpt lat="44.523113647173915" lon="9.96048234227378"><ele>550.5</ele><time>2026-04-18T10:02:34Z</time></trkpt><trkpt lat="44.52309144453796" lon="9.96058287217389"><ele>551.6666666666666</ele><time>2026-04-18T10:02:37Z</time></trkpt><trkpt lat="44.52306700813418" lon="9.9606803667912"><ele>552.8333333333333</ele><time>2026-04-18T10:02:40Z</time></trkpt><trkpt lat="44.52304444528654" lon="9.960779438229045"><ele>554.0</ele><time>2026-04-18T10:02:43Z</time></trkpt><trkpt lat="44.5230241147941" lon="9.960881903917521"><ele>555.0</ele><time>2026-04-18T10:02:46Z</time></trkpt><trkpt lat="44.523005262917835" lon="9.96096658470361"><ele>556.0</ele><time>2026-04-18T10:02:49Z</time></trkpt><trkpt lat="44.52298392916325" lon="9.961057909956201"><ele>557.0</ele><time>2026-04-18T10:02:52Z</time></trkpt><trkpt lat="44.522967677396494" lon="9.961164281915243"><ele>558.0</ele><time>2026-04-18T10:02:55Z</time></trkpt><trkpt lat="44.52295587944425" lon="9.961278070187774"><ele>559.0</ele><time>2026-04-18T10:02:58Z</time></trkpt><trkpt lat="44.5229419570653" lon="9.961385825191318"><ele>560.0</ele><time>2026-04-18T10:03:01Z</time></trkpt><trkpt lat="44.52294421665" lon="9.961494343782531"><ele>561.0</ele><time>2026-04-18T10:03:04Z</time></trkpt><trkpt lat="44.522962508244866" lon="9.961601245368794"><ele>562.5</ele><time>2026-04-18T10:03:06.999Z</time></trkpt><trkpt lat="44.522989648211365" lon="9.96170213832834"><ele>564.0</ele><time>2026-04-18T10:03:09.999Z</time></trkpt><trkpt lat="44.523023023162565" lon="9.961796070938687"><ele>565.5</ele><time>2026-04-18T10:03:12.999Z</time></trkpt><trkpt lat="44.52307082957736" lon="9.961886193661632"><ele>567.0</ele><time>2026-04-18T10:03:15.999Z</time></trkpt><trkpt lat="44.523120402398774" lon="9.96197411513298"><ele>568.5</ele><time>2026-04-18T10:03:18.999Z</time></trkpt><trkpt lat="44.52318166115502" lon="9.962041553043314"><ele>570.0</ele><time>2026-04-18T10:03:21.999Z</time></trkpt><trkpt lat="44.523250425775565" lon="9.962089813092227"><ele>570.0</ele><time>2026-04-18T10:03:24.999Z</time></trkpt><trkpt lat="44.523324856256735" lon="9.962142387402121"><ele>570.0</ele><time>2026-04-18T10:03:27.999Z</time></trkpt><trkpt lat="44.5233954554004" lon="9.962173826580315"><ele>570.0</ele><time>2026-04-18T10:03:30.999Z</time></trkpt><trkpt lat="44.52347185235561" lon="9.962210644384669"><ele>570.0</ele><time>2026-04-18T10:03:33.999Z</time></trkpt><trkpt lat="44.5235583137736" lon="9.962250202811969"><ele>570.0</ele><time>2026-04-18T10:03:36.999Z</time></trkpt><trkpt lat="44.52363806369276" lon="9.962273818431168"><ele>570.0</ele><time>2026-04-18T10:03:39.999Z</time></trkpt><trkpt lat="44.52373469668372" lon="9.962299012502028"><ele>569.7142857142857</ele><time>2026-04-18T10:03:43.999Z</time></trkpt><trkpt lat="44.52380094857352" lon="9.962326827946917"><ele>569.4285714285714</ele><time>2026-04-18T10:03:46.999Z</time></trkpt><trkpt lat="44.523872482058806" lon="9.962349702405078"><ele>569.1428571428571</ele><time>2026-04-18T10:03:49.999Z</time></trkpt><trkpt lat="44.52393571646649" lon="9.962395248156753"><ele>568.8571428571429</ele><time>2026-04-18T10:03:52.999Z</time></trkpt><trkpt lat="44.523998541839866" lon="9.962459085707922"><ele>568.5714285714286</ele><time>2026-04-18T10:03:55.999Z</time></trkpt><trkpt lat="44.52404277699476" lon="9.96252544649733"><ele>568.2857142857142</ele><time>2026-04-18T10:03:58.998Z</time></trkpt><trkpt lat="44.52407698368126" lon="9.962607714189978"><ele>568.0</ele><time>2026-04-18T10:04:01.998Z</time></trkpt><trkpt lat="44.52410121261314" lon="9.962693919609611"><ele>568.0</ele><time>2026-04-18T10:04:04.998Z</time></trkpt><trkpt lat="44.524119153641394" lon="9.962798290795627"><ele>568.0</ele><time>2026-04-18T10:04:08.998Z</time></trkpt><trkpt lat="44.52412048278076" lon="9.962894951664651"><ele>568.0</ele><time>2026-04-18T10:04:11.998Z</time></trkpt><trkpt lat="44.524107474072316" lon="9.962986624140262"><ele>568.0</ele><time>2026-04-18T10:04:14.998Z</time></trkpt><trkpt lat="44.524084655801005" lon="9.963076195387071"><ele>568.0</ele><time>2026-04-18T10:04:17.998Z</time></trkpt><trkpt lat="44.52403679834384" lon="9.963172285148772"><ele>568.0</ele><time>2026-04-18T10:04:20.998Z</time></trkpt><trkpt lat="44.523983512975356" lon="9.963245077856069"><ele>568.0</ele><time>2026-04-18T10:04:25Z</time></trkpt><trkpt lat="44.52393846355844" lon="9.963308455489885"><ele>568.0</ele><time>2026-04-18T10:04:28Z</time></trkpt><trkpt lat="44.52388923930371" lon="9.963372137699293"><ele>568.0</ele><time>2026-04-18T10:04:31Z</time></trkpt><trkpt lat="44.52383498636006" lon="9.963440266147485"><ele>568.0</ele><time>2026-04-18T10:04:34Z</time></trkpt><trkpt lat="44.523778496961576" lon="9.96350303161582"><ele>568.0</ele><time>2026-04-18T10:04:37Z</time></trkpt><trkpt lat="44.52372719198545" lon="9.963554948791346"><ele>568.0</ele><time>2026-04-18T10:04:40Z</time></trkpt><trkpt lat="44.52367089485305" lon="9.96361371245423"><ele>568.0</ele><time>2026-04-18T10:04:43Z</time></trkpt><trkpt lat="44.52361803788181" lon="9.963683710168773"><ele>568.0</ele><time>2026-04-18T10:04:46Z</time></trkpt><trkpt lat="44.52356035123754" lon="9.963747682880111"><ele>569.8571428571429</ele><time>2026-04-18T10:04:49Z</time></trkpt><trkpt lat="44.523508096406395" lon="9.963814063372528"><ele>571.7142857142857</ele><time>2026-04-18T10:04:52Z</time></trkpt><trkpt lat="44.523450419994234" lon="9.963874931723794"><ele>573.5714285714286</ele><time>2026-04-18T10:04:55Z</time></trkpt><trkpt lat="44.52339391299474" lon="9.963937961358331"><ele>575.4285714285714</ele><time>2026-04-18T10:04:58Z</time></trkpt><trkpt lat="44.52332751586208" lon="9.964009415175425"><ele>577.2857142857142</ele><time>2026-04-18T10:05:01Z</time></trkpt><trkpt lat="44.52326642176096" lon="9.964081427535271"><ele>579.1428571428571</ele><time>2026-04-18T10:05:05Z</time></trkpt><trkpt lat="44.523211038879595" lon="9.964143674166523"><ele>581.0</ele><time>2026-04-18T10:05:07.999Z</time></trkpt><trkpt lat="44.523164235375646" lon="9.964204987877178"><ele>581.8571428571429</ele><time>2026-04-18T10:05:10.999Z</time></trkpt><trkpt lat="44.52310786257643" lon="9.96427388103495"><ele>582.7142857142858</ele><time>2026-04-18T10:05:13.999Z</time></trkpt><trkpt lat="44.52305356198036" lon="9.964343602974559"><ele>583.5714285714286</ele><time>2026-04-18T10:05:16.999Z</time></trkpt><trkpt lat="44.52299709116949" lon="9.96441643684345"><ele>584.4285714285714</ele><time>2026-04-18T10:05:19.999Z</time></trkpt><trkpt lat="44.522949240580736" lon="9.964480584084553"><ele>585.2857142857143</ele><time>2026-04-18T10:05:22.999Z</time></trkpt><trkpt lat="44.52289276787533" lon="9.964545408360951"><ele>586.1428571428571</ele><time>2026-04-18T10:05:25.999Z</time></trkpt><trkpt lat="44.52283629491662" lon="9.964610294573527"><ele>587.0</ele><time>2026-04-18T10:05:28.999Z</time></trkpt><trkpt lat="44.52278421876963" lon="9.964678176324613"><ele>587.1428571428571</ele><time>2026-04-18T10:05:31.999Z</time></trkpt><trkpt lat="44.52273005942042" lon="9.964747516738234"><ele>587.2857142857143</ele><time>2026-04-18T10:05:34.999Z</time></trkpt><trkpt lat="44.52266236493879" lon="9.964826244277301"><ele>587.4285714285714</ele><time>2026-04-18T10:05:37.999Z</time></trkpt><trkpt lat="44.522611312863866" lon="9.96488737707571"><ele>587.5714285714286</ele><time>2026-04-18T10:05:40.999Z</time></trkpt><trkpt lat="44.52256463089534" lon="9.96495352493043"><ele>587.7142857142858</ele><time>2026-04-18T10:05:43.999Z</time></trkpt><trkpt lat="44.52251735616844" lon="9.965011896144349"><ele>587.8571428571429</ele><time>2026-04-18T10:05:46.999Z</time></trkpt><trkpt lat="44.52246113586831" lon="9.965076790052095"><ele>588.0</ele><time>2026-04-18T10:05:49.999Z</time></trkpt><trkpt lat="44.52240771117107" lon="9.965148040519628"><ele>589.8333333333334</ele><time>2026-04-18T10:05:52.999Z</time></trkpt><trkpt lat="44.52235288895755" lon="9.965216573066952"><ele>591.6666666666666</ele><time>2026-04-18T10:05:55.999Z</time></trkpt><trkpt lat="44.52229821918988" lon="9.96528394737451"><ele>593.5</ele><time>2026-04-18T10:05:58.999Z</time></trkpt><trkpt lat="44.52222902443029" lon="9.965363340126586"><ele>595.3333333333333</ele><time>2026-04-18T10:06:01.998Z</time></trkpt><trkpt lat="44.522171891769894" lon="9.965432549350185"><ele>597.1666666666666</ele><time>2026-04-18T10:06:04.998Z</time></trkpt><trkpt lat="44.52210559151951" lon="9.96551171744124"><ele>599.0</ele><time>2026-04-18T10:06:08.998Z</time></trkpt><trkpt lat="44.52204696905494" lon="9.96557568291577"><ele>599.0</ele><time>2026-04-18T10:06:11.998Z</time></trkpt><trkpt lat="44.52198389052313" lon="9.96564045075096"><ele>599.0</ele><time>2026-04-18T10:06:14.998Z</time></trkpt><trkpt lat="44.52191989520129" lon="9.96571055634362"><ele>599.0</ele><time>2026-04-18T10:06:17.998Z</time></trkpt><trkpt lat="44.52185439122863" lon="9.96578362793239"><ele>599.0</ele><time>2026-04-18T10:06:20.998Z</time></trkpt><trkpt lat="44.52178548658074" lon="9.965857354038542"><ele>599.0</ele><time>2026-04-18T10:06:23.998Z</time></trkpt><trkpt lat="44.52170158250085" lon="9.965949303338782"><ele>599.0</ele><time>2026-04-18T10:06:26.998Z</time></trkpt><trkpt lat="44.5216289118132" lon="9.966029036927509"><ele>601.5</ele><time>2026-04-18T10:06:30Z</time></trkpt><trkpt lat="44.52155057990876" lon="9.966099363083782"><ele>604.0</ele><time>2026-04-18T10:06:33Z</time></trkpt><trkpt lat="44.52146272401474" lon="9.966144734345317"><ele>606.5</ele><time>2026-04-18T10:06:36Z</time></trkpt><trkpt lat="44.521374040838616" lon="9.966144189571565"><ele>609.0</ele><time>2026-04-18T10:06:39Z</time></trkpt><trkpt lat="44.52130082041931" lon="9.966084981706274"><ele>611.5</ele><time>2026-04-18T10:06:42Z</time></trkpt><trkpt lat="44.52123787425628" lon="9.966007295847334"><ele>614.0</ele><time>2026-04-18T10:06:45Z</time></trkpt><trkpt lat="44.52117447457381" lon="9.965920939636613"><ele>612.0</ele><time>2026-04-18T10:06:48Z</time></trkpt><trkpt lat="44.52111449716012" lon="9.965834868379284"><ele>610.0</ele><time>2026-04-18T10:06:51Z</time></trkpt><trkpt lat="44.52104031602371" lon="9.965763378559972"><ele>608.0</ele><time>2026-04-18T10:06:54Z</time></trkpt><trkpt lat="44.52095690520073" lon="9.96571432199807"><ele>606.0</ele><time>2026-04-18T10:06:57Z</time></trkpt><trkpt lat="44.52086303310403" lon="9.9657180296092"><ele>604.0</ele><time>2026-04-18T10:07:00Z</time></trkpt><trkpt lat="44.52078366943364" lon="9.965758652353559"><ele>602.0</ele><time>2026-04-18T10:07:03Z</time></trkpt><trkpt lat="44.52071795357087" lon="9.96582246138243"><ele>603.7142857142857</ele><time>2026-04-18T10:07:06Z</time></trkpt><trkpt lat="44.52067611600917" lon="9.965892068726045"><ele>605.4285714285714</ele><time>2026-04-18T10:07:09Z</time></trkpt><trkpt lat="44.52062321815647" lon="9.965958876050088"><ele>607.1428571428571</ele><time>2026-04-18T10:07:11.999Z</time></trkpt><trkpt lat="44.520577145050375" lon="9.966041660491465"><ele>608.8571428571429</ele><time>2026-04-18T10:07:14.999Z</time></trkpt><trkpt lat="44.52051885519264" lon="9.96613725257218"><ele>610.5714285714286</ele><time>2026-04-18T10:07:17.999Z</time></trkpt><trkpt lat="44.520484174312244" lon="9.966214487101528"><ele>612.2857142857142</ele><time>2026-04-18T10:07:20.999Z</time></trkpt><trkpt lat="44.52044477278824" lon="9.966285896587241"><ele>614.0</ele><time>2026-04-18T10:07:23.999Z</time></trkpt><trkpt lat="44.520402429082765" lon="9.9663824509184"><ele>613.9999999999999</ele><time>2026-04-18T10:07:26.999Z</time></trkpt><trkpt lat="44.52035247192198" lon="9.966441778431953"><ele>614.0</ele><time>2026-04-18T10:07:28.999Z</time></trkpt><trkpt lat="44.52030050377857" lon="9.96652137059197"><ele>614.0</ele><time>2026-04-18T10:07:31.999Z</time></trkpt><trkpt lat="44.52024522139688" lon="9.966588294817706"><ele>614.0</ele><time>2026-04-18T10:07:34.999Z</time></trkpt><trkpt lat="44.52019017953013" lon="9.96665282946153"><ele>614.0</ele><time>2026-04-18T10:07:37.999Z</time></trkpt><trkpt lat="44.52013596635245" lon="9.966717077346761"><ele>613.9999999999999</ele><time>2026-04-18T10:07:40.999Z</time></trkpt><trkpt lat="44.52008922854381" lon="9.966784729555354"><ele>614.0</ele><time>2026-04-18T10:07:43.999Z</time></trkpt><trkpt lat="44.520039342033634" lon="9.966860805120396"><ele>613.9999999999999</ele><time>2026-04-18T10:07:46.999Z</time></trkpt><trkpt lat="44.52002367277527" lon="9.96695214538661"><ele>614.0</ele><time>2026-04-18T10:07:49.999Z</time></trkpt><trkpt lat="44.52002431551618" lon="9.9670480904031"><ele>614.0</ele><time>2026-04-18T10:07:52.999Z</time></trkpt><trkpt lat="44.52004221891401" lon="9.967136970897743"><ele>614.0</ele><time>2026-04-18T10:07:55.999Z</time></trkpt><trkpt lat="44.520063980929805" lon="9.967224435362771"><ele>614.0</ele><time>2026-04-18T10:07:58.999Z</time></trkpt><trkpt lat="44.5200996046705" lon="9.967302794925583"><ele>613.9999999999999</ele><time>2026-04-18T10:08:01.999Z</time></trkpt><trkpt lat="44.52013018656018" lon="9.967381147792791"><ele>614.0</ele><time>2026-04-18T10:08:04.999Z</time></trkpt><trkpt lat="44.520160678261554" lon="9.967460900811046"><ele>614.8571428571428</ele><time>2026-04-18T10:08:07.998Z</time></trkpt><trkpt lat="44.52018940816256" lon="9.967545682693272"><ele>615.7142857142857</ele><time>2026-04-18T10:08:10.998Z</time></trkpt><trkpt lat="44.52020666184611" lon="9.967634893243579"><ele>616.5714285714286</ele><time>2026-04-18T10:08:13.998Z</time></trkpt><trkpt lat="44.520220262462566" lon="9.967724977859584"><ele>617.4285714285713</ele><time>2026-04-18T10:08:16.998Z</time></trkpt><trkpt lat="44.520226643605746" lon="9.967820150053779"><ele>618.2857142857142</ele><time>2026-04-18T10:08:19.998Z</time></trkpt><trkpt lat="44.52021576159536" lon="9.967917424983924"><ele>619.1428571428571</ele><time>2026-04-18T10:08:22.998Z</time></trkpt><trkpt lat="44.52018500829954" lon="9.96801560462818"><ele>620.0</ele><time>2026-04-18T10:08:25.998Z</time></trkpt><trkpt lat="44.52013845376807" lon="9.968083538937327"><ele>620.0</ele><time>2026-04-18T10:08:28.998Z</time></trkpt><trkpt lat="44.52008687468009" lon="9.968149850669434"><ele>620.0</ele><time>2026-04-18T10:08:31.998Z</time></trkpt><trkpt lat="44.52003189924384" lon="9.968201964814783"><ele>620.0</ele><time>2026-04-18T10:08:35Z</time></trkpt><trkpt lat="44.51998288281102" lon="9.968272578430751"><ele>620.0</ele><time>2026-04-18T10:08:38Z</time></trkpt><trkpt lat="44.51993472462885" lon="9.968336070364936"><ele>620.0</ele><time>2026-04-18T10:08:41Z</time></trkpt><trkpt lat="44.519893661052016" lon="9.968408621046091"><ele>620.0</ele><time>2026-04-18T10:08:44Z</time></trkpt><trkpt lat="44.51987452801957" lon="9.968506687309429"><ele>620.0</ele><time>2026-04-18T10:08:47Z</time></trkpt><trkpt lat="44.51985980489442" lon="9.968610815552664"><ele>621.5</ele><time>2026-04-18T10:08:50Z</time></trkpt><trkpt lat="44.519867744936526" lon="9.968712616863241"><ele>623.0</ele><time>2026-04-18T10:08:53Z</time></trkpt><trkpt lat="44.51987586735319" lon="9.968811249432594"><ele>624.5</ele><time>2026-04-18T10:08:56Z</time></trkpt><trkpt lat="44.51989610204095" lon="9.968913115820206"><ele>626.0</ele><time>2026-04-18T10:08:59Z</time></trkpt><trkpt lat="44.519916122203" lon="9.969026751569574"><ele>627.5</ele><time>2026-04-18T10:09:02Z</time></trkpt><trkpt lat="44.519947316476916" lon="9.96912248384832"><ele>629.0</ele><time>2026-04-18T10:09:05Z</time></trkpt><trkpt lat="44.51996470448788" lon="9.969227914454388"><ele>629.5</ele><time>2026-04-18T10:09:08Z</time></trkpt><trkpt lat="44.51997865494052" lon="9.96933565407092"><ele>630.0</ele><time>2026-04-18T10:09:11Z</time></trkpt><trkpt lat="44.519987082565606" lon="9.969457208481261"><ele>630.5</ele><time>2026-04-18T10:09:14Z</time></trkpt><trkpt lat="44.519983132416684" lon="9.969554423072527"><ele>631.0</ele><time>2026-04-18T10:09:16.999Z</time></trkpt><trkpt lat="44.51998006986827" lon="9.9696553517447"><ele>631.5</ele><time>2026-04-18T10:09:19.999Z</time></trkpt><trkpt lat="44.51997340294507" lon="9.969760328598898"><ele>632.0</ele><time>2026-04-18T10:09:22.999Z</time></trkpt><trkpt lat="44.519972632784615" lon="9.969864998121768"><ele>632.0</ele><time>2026-04-18T10:09:25.999Z</time></trkpt><trkpt lat="44.519976450606855" lon="9.96997544798582"><ele>632.0</ele><time>2026-04-18T10:09:28.999Z</time></trkpt><trkpt lat="44.51999062107254" lon="9.97007956914995"><ele>632.0</ele><time>2026-04-18T10:09:31.999Z</time></trkpt><trkpt lat="44.51999868629047" lon="9.970185622799164"><ele>632.0</ele><time>2026-04-18T10:09:34.999Z</time></trkpt><trkpt lat="44.52001069503407" lon="9.970303267576814"><ele>632.0</ele><time>2026-04-18T10:09:37.999Z</time></trkpt><trkpt lat="44.520031942157814" lon="9.97042978732023"><ele>632.0</ele><time>2026-04-18T10:09:40.999Z</time></trkpt><trkpt lat="44.52005106110202" lon="9.970548913955215"><ele>632.5</ele><time>2026-04-18T10:09:43.999Z</time></trkpt><trkpt lat="44.52006355235432" lon="9.970661217610377"><ele>633.0</ele><time>2026-04-18T10:09:46.999Z</time></trkpt><trkpt lat="44.52006680807077" lon="9.970774645204706"><ele>633.5</ele><time>2026-04-18T10:09:49.999Z</time></trkpt><trkpt lat="44.520073977652785" lon="9.970904161628397"><ele>634.0</ele><time>2026-04-18T10:09:52.999Z</time></trkpt><trkpt lat="44.5200884783711" lon="9.97101845379223"><ele>634.5</ele><time>2026-04-18T10:09:55.999Z</time></trkpt><trkpt lat="44.520103140918465" lon="9.971127755015011"><ele>635.0</ele><time>2026-04-18T10:09:58.999Z</time></trkpt><trkpt lat="44.520116732068985" lon="9.97124766210747"><ele>635.1666666666666</ele><time>2026-04-18T10:10:01.999Z</time></trkpt><trkpt lat="44.520132746703034" lon="9.971352145988169"><ele>635.3333333333333</ele><time>2026-04-18T10:10:04.999Z</time></trkpt><trkpt lat="44.520158544767455" lon="9.971461505202505"><ele>635.5</ele><time>2026-04-18T10:10:07.999Z</time></trkpt><trkpt lat="44.52017419670525" lon="9.971565657955438"><ele>635.6666666666666</ele><time>2026-04-18T10:10:10.999Z</time></trkpt><trkpt lat="44.520183182443546" lon="9.971676404363027"><ele>635.8333333333334</ele><time>2026-04-18T10:10:13.998Z</time></trkpt><trkpt lat="44.520206055490775" lon="9.971786009306149"><ele>636.0</ele><time>2026-04-18T10:10:16.998Z</time></trkpt><trkpt lat="44.52021577319944" lon="9.971895075931135"><ele>636.3333333333334</ele><time>2026-04-18T10:10:20.998Z</time></trkpt><trkpt lat="44.52023282908473" lon="9.972010417154808"><ele>636.6666666666666</ele><time>2026-04-18T10:10:23.998Z</time></trkpt><trkpt lat="44.52024580773228" lon="9.972119521745533"><ele>637.0</ele><time>2026-04-18T10:10:26.998Z</time></trkpt><trkpt lat="44.52026812537075" lon="9.972240164137295"><ele>637.3333333333333</ele><time>2026-04-18T10:10:29.998Z</time></trkpt><trkpt lat="44.52029095577259" lon="9.972327055539239"><ele>637.6666666666666</ele><time>2026-04-18T10:10:32.998Z</time></trkpt><trkpt lat="44.52032035749562" lon="9.97240875371891"><ele>638.0</ele><time>2026-04-18T10:10:34.998Z</time></trkpt><trkpt lat="44.520365458376396" lon="9.972482759431383"><ele>641.3333333333333</ele><time>2026-04-18T10:10:37.998Z</time></trkpt><trkpt lat="44.520425643299376" lon="9.972516997597788"><ele>644.6666666666666</ele><time>2026-04-18T10:10:41Z</time></trkpt><trkpt lat="44.52053627595935" lon="9.972524537795676"><ele>648.0</ele><time>2026-04-18T10:10:44Z</time></trkpt><trkpt lat="44.520611079256945" lon="9.972495939686981"><ele>651.3333333333334</ele><time>2026-04-18T10:10:47Z</time></trkpt><trkpt lat="44.52068129750057" lon="9.972431757630481"><ele>654.6666666666667</ele><time>2026-04-18T10:10:51Z</time></trkpt><trkpt lat="44.52074611448388" lon="9.972318917978754"><ele>658.0</ele><time>2026-04-18T10:10:54Z</time></trkpt><trkpt lat="44.520762184355476" lon="9.972222379759899"><ele>658.0</ele><time>2026-04-18T10:10:58Z</time></trkpt><trkpt lat="44.52077529662943" lon="9.972123027318363"><ele>658.0</ele><time>2026-04-18T10:11:00Z</time></trkpt><trkpt lat="44.520797252327064" lon="9.972026422642477"><ele>658.0</ele><time>2026-04-18T10:11:03Z</time></trkpt><trkpt lat="44.52079782319206" lon="9.971922115812669"><ele>658.0</ele><time>2026-04-18T10:11:06Z</time></trkpt><trkpt lat="44.52081041075998" lon="9.9718131128601"><ele>658.0</ele><time>2026-04-18T10:11:09Z</time></trkpt><trkpt lat="44.520812210544264" lon="9.971708742609824"><ele>658.0</ele><time>2026-04-18T10:11:12Z</time></trkpt><trkpt lat="44.52080073446922" lon="9.971595344332513"><ele>658.1428571428571</ele><time>2026-04-18T10:11:15Z</time></trkpt><trkpt lat="44.520822911786624" lon="9.971502548014572"><ele>658.2857142857142</ele><time>2026-04-18T10:11:17.999Z</time></trkpt><trkpt lat="44.52083689584171" lon="9.971387340392976"><ele>658.4285714285714</ele><time>2026-04-18T10:11:20.999Z</time></trkpt><trkpt lat="44.520883796381135" lon="9.971327304412918"><ele>658.5714285714286</ele><time>2026-04-18T10:11:23.999Z</time></trkpt><trkpt lat="44.52094572081929" lon="9.971376312572927"><ele>658.7142857142857</ele><time>2026-04-18T10:11:27.999Z</time></trkpt><trkpt lat="44.52096795681059" lon="9.971464083911995"><ele>658.8571428571429</ele><time>2026-04-18T10:11:29.999Z</time></trkpt><trkpt lat="44.52099220078786" lon="9.971579628595945"><ele>659.0</ele><time>2026-04-18T10:11:32.999Z</time></trkpt><trkpt lat="44.52099462193997" lon="9.971676302566738"><ele>658.8333333333333</ele><time>2026-04-18T10:11:34.999Z</time></trkpt><trkpt lat="44.52100349019031" lon="9.971795672772242"><ele>658.6666666666666</ele><time>2026-04-18T10:11:37.999Z</time></trkpt><trkpt lat="44.521017286523794" lon="9.971920333191452"><ele>658.5</ele><time>2026-04-18T10:11:40.999Z</time></trkpt><trkpt lat="44.521030479368974" lon="9.97203589620409"><ele>658.3333333333334</ele><time>2026-04-18T10:11:43.999Z</time></trkpt><trkpt lat="44.521049461547754" lon="9.972153106613149"><ele>658.1666666666667</ele><time>2026-04-18T10:11:46.999Z</time></trkpt><trkpt lat="44.52106284516715" lon="9.972259937378569"><ele>658.0</ele><time>2026-04-18T10:11:49.999Z</time></trkpt><trkpt lat="44.52106914472088" lon="9.972370942221296"><ele>658.0</ele><time>2026-04-18T10:11:52.999Z</time></trkpt><trkpt lat="44.521075419586595" lon="9.972489208077835"><ele>658.0</ele><time>2026-04-18T10:11:55.999Z</time></trkpt><trkpt lat="44.52108319781276" lon="9.972608663711261"><ele>658.0</ele><time>2026-04-18T10:11:58.999Z</time></trkpt><trkpt lat="44.5210886105968" lon="9.972720208395183"><ele>658.0</ele><time>2026-04-18T10:12:01.999Z</time></trkpt><trkpt lat="44.52109408527351" lon="9.972839746283196"><ele>658.0</ele><time>2026-04-18T10:12:04.999Z</time></trkpt><trkpt lat="44.52110850943699" lon="9.972958534918442"><ele>658.0</ele><time>2026-04-18T10:12:07.999Z</time></trkpt><trkpt lat="44.521122948699244" lon="9.973073367881666"><ele>658.0</ele><time>2026-04-18T10:12:10.999Z</time></trkpt><trkpt lat="44.52112860032131" lon="9.973190135796559"><ele>658.0</ele><time>2026-04-18T10:12:13.998Z</time></trkpt><trkpt lat="44.521141367999846" lon="9.973288459023095"><ele>658.0</ele><time>2026-04-18T10:12:16.998Z</time></trkpt><trkpt lat="44.521151283389806" lon="9.973407920327817"><ele>658.0</ele><time>2026-04-18T10:12:19.998Z</time></trkpt><trkpt lat="44.5211590543315" lon="9.97352686614865"><ele>658.0</ele><time>2026-04-18T10:12:22.998Z</time></trkpt><trkpt lat="44.52117055517611" lon="9.973648187039869"><ele>658.0</ele><time>2026-04-18T10:12:25.998Z</time></trkpt><trkpt lat="44.52117654403422" lon="9.973758290746117"><ele>658.5</ele><time>2026-04-18T10:12:28.998Z</time></trkpt><trkpt lat="44.52118464349905" lon="9.97387278158142"><ele>659.0</ele><time>2026-04-18T10:12:31.998Z</time></trkpt><trkpt lat="44.521176248726476" lon="9.973990142865237"><ele>659.5</ele><time>2026-04-18T10:12:34.998Z</time></trkpt><trkpt lat="44.52116863673386" lon="9.974094937509149"><ele>660.0</ele><time>2026-04-18T10:12:37.998Z</time></trkpt><trkpt lat="44.52114355938641" lon="9.974201316952206"><ele>660.5</ele><time>2026-04-18T10:12:40.998Z</time></trkpt><trkpt lat="44.52111117618104" lon="9.974304223177171"><ele>661.0</ele><time>2026-04-18T10:12:43.998Z</time></trkpt><trkpt lat="44.52107475883731" lon="9.974398768000695"><ele>662.0</ele><time>2026-04-18T10:12:46.999Z</time></trkpt><trkpt lat="44.52103070946523" lon="9.974495246707377"><ele>663.0</ele><time>2026-04-18T10:12:49.999Z</time></trkpt><trkpt lat="44.52097998315116" lon="9.974583633449067"><ele>664.0</ele><time>2026-04-18T10:12:52.999Z</time></trkpt><trkpt lat="44.52094230235044" lon="9.974681579670717"><ele>665.0</ele><time>2026-04-18T10:12:55.999Z</time></trkpt><trkpt lat="44.52090798944863" lon="9.974786975788316"><ele>666.0</ele><time>2026-04-18T10:12:58.999Z</time></trkpt><trkpt lat="44.52090166227956" lon="9.974901454769327"><ele>667.0</ele><time>2026-04-18T10:13:01.999Z</time></trkpt><trkpt lat="44.5209102644308" lon="9.975011316053976"><ele>668.1666666666667</ele><time>2026-04-18T10:13:04.999Z</time></trkpt><trkpt lat="44.52093965606679" lon="9.975111761846234"><ele>669.3333333333334</ele><time>2026-04-18T10:13:07.999Z</time></trkpt><trkpt lat="44.520985939475906" lon="9.975199012874496"><ele>670.5</ele><time>2026-04-18T10:13:10.999Z</time></trkpt><trkpt lat="44.52104102176396" lon="9.97528168401298"><ele>671.6666666666666</ele><time>2026-04-18T10:13:13.999Z</time></trkpt><trkpt lat="44.521095852446486" lon="9.975371537986698"><ele>672.8333333333333</ele><time>2026-04-18T10:13:16.999Z</time></trkpt><trkpt lat="44.52115133734485" lon="9.97545225121483"><ele>674.0</ele><time>2026-04-18T10:13:19.999Z</time></trkpt><trkpt lat="44.521212500441614" lon="9.975540606095283"><ele>678.5</ele><time>2026-04-18T10:13:22.999Z</time></trkpt><trkpt lat="44.52126124274957" lon="9.97562297743016"><ele>683.0</ele><time>2026-04-18T10:13:25.999Z</time></trkpt><trkpt lat="44.52131490693316" lon="9.975704170621531"><ele>687.5</ele><time>2026-04-18T10:13:28.999Z</time></trkpt><trkpt lat="44.521369909749545" lon="9.975788953227449"><ele>692.0</ele><time>2026-04-18T10:13:31.999Z</time></trkpt><trkpt lat="44.52142641304879" lon="9.975875479935027"><ele>696.5</ele><time>2026-04-18T10:13:34.999Z</time></trkpt><trkpt lat="44.52146372409082" lon="9.97598033072104"><ele>701.0</ele><time>2026-04-18T10:13:37.999Z</time></trkpt><trkpt lat="44.521483598792344" lon="9.97606873759651"><ele>701.3333333333333</ele><time>2026-04-18T10:13:40.999Z</time></trkpt><trkpt lat="44.52149529139676" lon="9.976155707747175"><ele>701.6666666666666</ele><time>2026-04-18T10:13:42.999Z</time></trkpt><trkpt lat="44.521500934104736" lon="9.976268662710188"><ele>702.0</ele><time>2026-04-18T10:13:46.999Z</time></trkpt><trkpt lat="44.521492081801455" lon="9.976403896632501"><ele>702.3333333333334</ele><time>2026-04-18T10:13:49.999Z</time></trkpt><trkpt lat="44.52148411750896" lon="9.976520899486818"><ele>702.6666666666667</ele><time>2026-04-18T10:13:52.999Z</time></trkpt><trkpt lat="44.5214789075349" lon="9.976612728312514"><ele>703.0</ele><time>2026-04-18T10:13:55.999Z</time></trkpt><trkpt lat="44.52146847219552" lon="9.976708221594967"><ele>703.5</ele><time>2026-04-18T10:13:58.999Z</time></trkpt><trkpt lat="44.52146487902572" lon="9.976813160357414"><ele>704.0</ele><time>2026-04-18T10:14:01.999Z</time></trkpt><trkpt lat="44.5214496617261" lon="9.976919403411312"><ele>704.5</ele><time>2026-04-18T10:14:04.999Z</time></trkpt><trkpt lat="44.52143860380012" lon="9.977028732244296"><ele>705.0</ele><time>2026-04-18T10:14:07.999Z</time></trkpt><trkpt lat="44.52141964678702" lon="9.977154572559709"><ele>705.5</ele><time>2026-04-18T10:14:10.999Z</time></trkpt><trkpt lat="44.52141415604496" lon="9.977266839009953"><ele>706.0</ele><time>2026-04-18T10:14:13.998Z</time></trkpt><trkpt lat="44.521409919768516" lon="9.977364554601408"><ele>706.0</ele><time>2026-04-18T10:14:15.998Z</time></trkpt><trkpt lat="44.52140888120675" lon="9.97747862609365"><ele>706.0</ele><time>2026-04-18T10:14:18.998Z</time></trkpt><trkpt lat="44.52140985711046" lon="9.977587587826918"><ele>706.0</ele><time>2026-04-18T10:14:21.998Z</time></trkpt><trkpt lat="44.52141607724299" lon="9.977706292109012"><ele>706.0</ele><time>2026-04-18T10:14:24.998Z</time></trkpt><trkpt lat="44.52142596986346" lon="9.97779605423512"><ele>706.0</ele><time>2026-04-18T10:14:26.998Z</time></trkpt><trkpt lat="44.521437409764744" lon="9.977888318223158"><ele>706.0</ele><time>2026-04-18T10:14:29.998Z</time></trkpt><trkpt lat="44.52145192565308" lon="9.977979340479957"><ele>706.0</ele><time>2026-04-18T10:14:31.998Z</time></trkpt><trkpt lat="44.52146928503754" lon="9.978069271642816"><ele>705.0</ele><time>2026-04-18T10:14:33.998Z</time></trkpt><trkpt lat="44.521494394291175" lon="9.97818284423993"><ele>704.0</ele><time>2026-04-18T10:14:36.998Z</time></trkpt><trkpt lat="44.5215202538457" lon="9.978302298127051"><ele>703.0</ele><time>2026-04-18T10:14:39.998Z</time></trkpt><trkpt lat="44.52155490000853" lon="9.978421594526221"><ele>702.0</ele><time>2026-04-18T10:14:42.998Z</time></trkpt><trkpt lat="44.521591092060866" lon="9.978529760041958"><ele>701.0</ele><time>2026-04-18T10:14:45.998Z</time></trkpt><trkpt lat="44.52163217915605" lon="9.978633329385179"><ele>700.0</ele><time>2026-04-18T10:14:48.998Z</time></trkpt><trkpt lat="44.52168071579443" lon="9.978729077787355"><ele>699.8571428571429</ele><time>2026-04-18T10:14:51.998Z</time></trkpt><trkpt lat="44.52172570453633" lon="9.978814350722937"><ele>699.7142857142858</ele><time>2026-04-18T10:14:55Z</time></trkpt><trkpt lat="44.521774163237396" lon="9.978900662103271"><ele>699.5714285714286</ele><time>2026-04-18T10:14:58Z</time></trkpt><trkpt lat="44.521817685496494" lon="9.978970698649563"><ele>699.4285714285714</ele><time>2026-04-18T10:15:01Z</time></trkpt><trkpt lat="44.52186607433281" lon="9.979041892068038"><ele>699.2857142857143</ele><time>2026-04-18T10:15:04Z</time></trkpt><trkpt lat="44.521905644168" lon="9.97911182358495"><ele>699.1428571428571</ele><time>2026-04-18T10:15:06Z</time></trkpt><trkpt lat="44.521941333140035" lon="9.979191889034038"><ele>699.0</ele><time>2026-04-18T10:15:09Z</time></trkpt><trkpt lat="44.52197474270365" lon="9.979275795295312"><ele>699.0</ele><time>2026-04-18T10:15:12Z</time></trkpt><trkpt lat="44.52200675348147" lon="9.979374745615447"><ele>699.0</ele><time>2026-04-18T10:15:15Z</time></trkpt><trkpt lat="44.52203040587444" lon="9.979479522925928"><ele>699.0</ele><time>2026-04-18T10:15:18Z</time></trkpt><trkpt lat="44.52205271190525" lon="9.97958781401367"><ele>699.0</ele><time>2026-04-18T10:15:21Z</time></trkpt><trkpt lat="44.522059607468556" lon="9.979717715890288"><ele>699.0</ele><time>2026-04-18T10:15:23.999Z</time></trkpt><trkpt lat="44.522051699299126" lon="9.9798110701163"><ele>699.0</ele><time>2026-04-18T10:15:26.999Z</time></trkpt><trkpt lat="44.522035206310534" lon="9.979906931463397"><ele>699.0</ele><time>2026-04-18T10:15:29.999Z</time></trkpt><trkpt lat="44.522018978402" lon="9.980000511226283"><ele>699.0</ele><time>2026-04-18T10:15:32.999Z</time></trkpt><trkpt lat="44.52199504932503" lon="9.980086698864614"><ele>699.0</ele><time>2026-04-18T10:15:35.999Z</time></trkpt><trkpt lat="44.52195584179447" lon="9.98018142182253"><ele>699.0</ele><time>2026-04-18T10:15:38.999Z</time></trkpt><trkpt lat="44.52194141564585" lon="9.980295050693364"><ele>699.0</ele><time>2026-04-18T10:15:41.999Z</time></trkpt><trkpt lat="44.521910087022725" lon="9.980397581068106"><ele>699.0</ele><time>2026-04-18T10:15:44.999Z</time></trkpt><trkpt lat="44.521889458786056" lon="9.980518701030556"><ele>701.0</ele><time>2026-04-18T10:15:47.999Z</time></trkpt><trkpt lat="44.52186215078324" lon="9.980635778380087"><ele>703.0</ele><time>2026-04-18T10:15:50.999Z</time></trkpt><trkpt lat="44.521836333407414" lon="9.98074499067599"><ele>705.0</ele><time>2026-04-18T10:15:53.999Z</time></trkpt><trkpt lat="44.521811972968884" lon="9.980848045786217"><ele>707.0</ele><time>2026-04-18T10:15:56.999Z</time></trkpt><trkpt lat="44.521796712551996" lon="9.980957755229744"><ele>709.0</ele><time>2026-04-18T10:15:59.999Z</time></trkpt><trkpt lat="44.52177290738824" lon="9.98105942227121"><ele>711.0</ele><time>2026-04-18T10:16:02.999Z</time></trkpt><trkpt lat="44.5217478287005" lon="9.981164873589401"><ele>713.1666666666666</ele><time>2026-04-18T10:16:05.999Z</time></trkpt><trkpt lat="44.521724377126276" lon="9.98126077531709"><ele>715.3333333333334</ele><time>2026-04-18T10:16:08.999Z</time></trkpt><trkpt lat="44.521693551718954" lon="9.981364375982759"><ele>717.5</ele><time>2026-04-18T10:16:11.999Z</time></trkpt><trkpt lat="44.52166873184761" lon="9.981472510878074"><ele>719.6666666666667</ele><time>2026-04-18T10:16:14.999Z</time></trkpt><trkpt lat="44.52163815177396" lon="9.981573450405316"><ele>721.8333333333334</ele><time>2026-04-18T10:16:17.999Z</time></trkpt><trkpt lat="44.521610719699936" lon="9.981672524262628"><ele>724.0</ele><time>2026-04-18T10:16:20.999Z</time></trkpt><trkpt lat="44.52157485574761" lon="9.981810045404224"><ele>727.8333333333334</ele><time>2026-04-18T10:16:24.999Z</time></trkpt><trkpt lat="44.52154819372867" lon="9.981920139277966"><ele>731.6666666666667</ele><time>2026-04-18T10:16:27.998Z</time></trkpt><trkpt lat="44.52151525236981" lon="9.982024447504058"><ele>735.5</ele><time>2026-04-18T10:16:30.998Z</time></trkpt><trkpt lat="44.521473178685454" lon="9.982127908147366"><ele>739.3333333333334</ele><time>2026-04-18T10:16:33.998Z</time></trkpt><trkpt lat="44.5214304421857" lon="9.98223284876476"><ele>743.1666666666666</ele><time>2026-04-18T10:16:36.998Z</time></trkpt><trkpt lat="44.521357166224966" lon="9.982317766231633"><ele>747.0</ele><time>2026-04-18T10:16:39.998Z</time></trkpt><trkpt lat="44.521288672284896" lon="9.982366191434707"><ele>743.1666666666666</ele><time>2026-04-18T10:16:41.998Z</time></trkpt><trkpt lat="44.521199683645854" lon="9.982388612864087"><ele>739.3333333333334</ele><time>2026-04-18T10:16:43.998Z</time></trkpt><trkpt lat="44.52111415627236" lon="9.982416559331588"><ele>735.5</ele><time>2026-04-18T10:16:45.998Z</time></trkpt><trkpt lat="44.52103638091621" lon="9.982434008092007"><ele>731.6666666666667</ele><time>2026-04-18T10:16:47.998Z</time></trkpt><trkpt lat="44.52096313080285" lon="9.982428480902326"><ele>727.8333333333334</ele><time>2026-04-18T10:16:49.998Z</time></trkpt><trkpt lat="44.52087876832367" lon="9.982407491896907"><ele>724.0</ele><time>2026-04-18T10:16:51.998Z</time></trkpt><trkpt lat="44.520799169929944" lon="9.98239918485555"><ele>724.0</ele><time>2026-04-18T10:16:53.998Z</time></trkpt><trkpt lat="44.52072551310715" lon="9.982387759331509"><ele>724.0</ele><time>2026-04-18T10:16:55.998Z</time></trkpt><trkpt lat="44.520660886438996" lon="9.98237929425306"><ele>724.0</ele><time>2026-04-18T10:16:58Z</time></trkpt><trkpt lat="44.520595707840116" lon="9.982379847277977"><ele>724.0</ele><time>2026-04-18T10:17:00Z</time></trkpt><trkpt lat="44.52050494725071" lon="9.982396123087872"><ele>724.0</ele><time>2026-04-18T10:17:03Z</time></trkpt><trkpt lat="44.52042979791653" lon="9.982434086752662"><ele>724.0</ele><time>2026-04-18T10:17:06Z</time></trkpt><trkpt lat="44.52036214984757" lon="9.982481242130369"><ele>725.3333333333334</ele><time>2026-04-18T10:17:09Z</time></trkpt><trkpt lat="44.52030172379258" lon="9.982545183561838"><ele>726.6666666666667</ele><time>2026-04-18T10:17:12Z</time></trkpt><trkpt lat="44.52024284283814" lon="9.982620319136615"><ele>728.0</ele><time>2026-04-18T10:17:15Z</time></trkpt><trkpt lat="44.52019414716733" lon="9.982725134838306"><ele>729.3333333333334</ele><time>2026-04-18T10:17:19Z</time></trkpt><trkpt lat="44.52016288307493" lon="9.98283084800393"><ele>730.6666666666666</ele><time>2026-04-18T10:17:22Z</time></trkpt><trkpt lat="44.520143717328786" lon="9.982924285396846"><ele>732.0</ele><time>2026-04-18T10:17:25Z</time></trkpt><trkpt lat="44.52012471560485" lon="9.983020024613117"><ele>732.0</ele><time>2026-04-18T10:17:28Z</time></trkpt><trkpt lat="44.520110170565125" lon="9.983113233902618"><ele>732.0</ele><time>2026-04-18T10:17:30Z</time></trkpt><trkpt lat="44.52009490693784" lon="9.983212927112099"><ele>732.0</ele><time>2026-04-18T10:17:33Z</time></trkpt><trkpt lat="44.52007963279388" lon="9.983315008723078"><ele>732.0</ele><time>2026-04-18T10:17:35.999Z</time></trkpt><trkpt lat="44.520065395177824" lon="9.983410362449087"><ele>732.0</ele><time>2026-04-18T10:17:37.999Z</time></trkpt><trkpt lat="44.520050176143315" lon="9.983520763287684"><ele>732.0</ele><time>2026-04-18T10:17:40.999Z</time></trkpt><trkpt lat="44.52003654664868" lon="9.983615741775079"><ele>732.0</ele><time>2026-04-18T10:17:43.999Z</time></trkpt><trkpt lat="44.52002049809001" lon="9.983725043972289"><ele>732.8333333333334</ele><time>2026-04-18T10:17:46.999Z</time></trkpt><trkpt lat="44.52001046503686" lon="9.98384143070725"><ele>733.6666666666666</ele><time>2026-04-18T10:17:49.999Z</time></trkpt><trkpt lat="44.519994660290855" lon="9.983957964454827"><ele>734.5</ele><time>2026-04-18T10:17:52.999Z</time></trkpt><trkpt lat="44.51998074656488" lon="9.984066764392658"><ele>735.3333333333333</ele><time>2026-04-18T10:17:54.999Z</time></trkpt><trkpt lat="44.51996764286817" lon="9.98415670863256"><ele>736.1666666666666</ele><time>2026-04-18T10:17:57.999Z</time></trkpt><trkpt lat="44.51995230218501" lon="9.984275751981215"><ele>737.0</ele><time>2026-04-18T10:17:59.999Z</time></trkpt><trkpt lat="44.519921769965286" lon="9.984401534885809"><ele>738.5</ele><time>2026-04-18T10:18:02.999Z</time></trkpt><trkpt lat="44.51988632831962" lon="9.98448141849071"><ele>740.0</ele><time>2026-04-18T10:18:04.999Z</time></trkpt><trkpt lat="44.519838704133875" lon="9.984542518203735"><ele>741.5</ele><time>2026-04-18T10:18:06.999Z</time></trkpt><trkpt lat="44.51974812905125" lon="9.984566473610512"><ele>743.0</ele><time>2026-04-18T10:18:09.999Z</time></trkpt><trkpt lat="44.519670923700914" lon="9.984543644321464"><ele>744.5</ele><time>2026-04-18T10:18:12.999Z</time></trkpt><trkpt lat="44.519595477097525" lon="9.9845103897818"><ele>746.0</ele><time>2026-04-18T10:18:15.999Z</time></trkpt><trkpt lat="44.519528726995276" lon="9.984473241270937"><ele>746.5714285714286</ele><time>2026-04-18T10:18:18.999Z</time></trkpt><trkpt lat="44.51945187024903" lon="9.984429095839616"><ele>747.1428571428571</ele><time>2026-04-18T10:18:22.999Z</time></trkpt><trkpt lat="44.519386678537565" lon="9.98439188937959"><ele>747.7142857142858</ele><time>2026-04-18T10:18:25.999Z</time></trkpt><trkpt lat="44.51931931852585" lon="9.984353031894662"><ele>748.2857142857142</ele><time>2026-04-18T10:18:28.999Z</time></trkpt><trkpt lat="44.5192430564769" lon="9.984302867872358"><ele>748.8571428571428</ele><time>2026-04-18T10:18:31.999Z</time></trkpt><trkpt lat="44.51918304502458" lon="9.98426770178574"><ele>749.4285714285714</ele><time>2026-04-18T10:18:34.999Z</time></trkpt><trkpt lat="44.51911655279419" lon="9.984236740169642"><ele>750.0</ele><time>2026-04-18T10:18:37.998Z</time></trkpt><trkpt lat="44.519047229856" lon="9.984213699814994"><ele>750.0</ele><time>2026-04-18T10:18:40.998Z</time></trkpt><trkpt lat="44.51897369545959" lon="9.984204515504773"><ele>750.0</ele><time>2026-04-18T10:18:43.998Z</time></trkpt><trkpt lat="44.518896856422806" lon="9.984212780471271"><ele>750.0</ele><time>2026-04-18T10:18:46.998Z</time></trkpt><trkpt lat="44.518815052677375" lon="9.984237687354996"><ele>750.0</ele><time>2026-04-18T10:18:49.998Z</time></trkpt><trkpt lat="44.51873226877055" lon="9.984277649339495"><ele>750.0</ele><time>2026-04-18T10:18:52.998Z</time></trkpt><trkpt lat="44.51865712409541" lon="9.984336752817947"><ele>750.0</ele><time>2026-04-18T10:18:55.998Z</time></trkpt><trkpt lat="44.518575401570246" lon="9.984413967381442"><ele>749.8333333333334</ele><time>2026-04-18T10:18:58.998Z</time></trkpt><trkpt lat="44.518520951443435" lon="9.984483906485277"><ele>749.6666666666666</ele><time>2026-04-18T10:19:01.998Z</time></trkpt><trkpt lat="44.51846693582067" lon="9.984549960909083"><ele>749.5</ele><time>2026-04-18T10:19:04Z</time></trkpt><trkpt lat="44.51841824326377" lon="9.984651892905507"><ele>749.3333333333333</ele><time>2026-04-18T10:19:07Z</time></trkpt><trkpt lat="44.5183802914986" lon="9.984760120530174"><ele>749.1666666666666</ele><time>2026-04-18T10:19:10Z</time></trkpt><trkpt lat="44.51836130940309" lon="9.984878014404444"><ele>749.0</ele><time>2026-04-18T10:19:13Z</time></trkpt><trkpt lat="44.51835580467155" lon="9.98499892992254"><ele>749.8333333333333</ele><time>2026-04-18T10:19:16Z</time></trkpt><trkpt lat="44.518360045097275" lon="9.98512137983979"><ele>750.6666666666666</ele><time>2026-04-18T10:19:19Z</time></trkpt><trkpt lat="44.5183648980438" lon="9.985254179614936"><ele>751.5</ele><time>2026-04-18T10:19:22Z</time></trkpt><trkpt lat="44.51837922557272" lon="9.9853803937604"><ele>752.3333333333334</ele><time>2026-04-18T10:19:25Z</time></trkpt><trkpt lat="44.518390138371835" lon="9.985508880534285"><ele>753.1666666666667</ele><time>2026-04-18T10:19:28Z</time></trkpt><trkpt lat="44.5183988847708" lon="9.985609912618935"><ele>754.0</ele><time>2026-04-18T10:19:31Z</time></trkpt><trkpt lat="44.518407633833654" lon="9.985702246345134"><ele>754.0</ele><time>2026-04-18T10:19:33Z</time></trkpt><trkpt lat="44.51841491998084" lon="9.98581856400435"><ele>754.0</ele><time>2026-04-18T10:19:36Z</time></trkpt><trkpt lat="44.5184205538459" lon="9.985936792488292"><ele>754.0</ele><time>2026-04-18T10:19:39Z</time></trkpt><trkpt lat="44.518424592564344" lon="9.986040047449237"><ele>754.0</ele><time>2026-04-18T10:19:41Z</time></trkpt><trkpt lat="44.518411144084425" lon="9.986156091028432"><ele>754.0</ele><time>2026-04-18T10:19:43.999Z</time></trkpt><trkpt lat="44.51837980519858" lon="9.98626044179846"><ele>754.0</ele><time>2026-04-18T10:19:45.999Z</time></trkpt><trkpt lat="44.518332314263766" lon="9.986349736934859"><ele>756.1666666666667</ele><time>2026-04-18T10:19:48.999Z</time></trkpt><trkpt lat="44.51827384512817" lon="9.986430858595646"><ele>758.3333333333334</ele><time>2026-04-18T10:19:50.999Z</time></trkpt><trkpt lat="44.5182116379251" lon="9.986457301991045"><ele>760.5</ele><time>2026-04-18T10:19:52.999Z</time></trkpt><trkpt lat="44.518146786664445" lon="9.986475435567726"><ele>762.6666666666666</ele><time>2026-04-18T10:19:54.999Z</time></trkpt><trkpt lat="44.51805973554636" lon="9.986467691339563"><ele>764.8333333333333</ele><time>2026-04-18T10:19:57.999Z</time></trkpt><trkpt lat="44.5179817542864" lon="9.986426400480667"><ele>767.0</ele><time>2026-04-18T10:20:00.999Z</time></trkpt><trkpt lat="44.51790290944206" lon="9.986377020155496"><ele>767.1666666666666</ele><time>2026-04-18T10:20:03.999Z</time></trkpt><trkpt lat="44.517821678527596" lon="9.986327257050288"><ele>767.3333333333333</ele><time>2026-04-18T10:20:06.999Z</time></trkpt><trkpt lat="44.517761712155924" lon="9.986285467898185"><ele>767.5</ele><time>2026-04-18T10:20:09.999Z</time></trkpt><trkpt lat="44.51768561668481" lon="9.986234707142524"><ele>767.6666666666666</ele><time>2026-04-18T10:20:12.999Z</time></trkpt><trkpt lat="44.51761606178368" lon="9.986180679573339"><ele>767.8333333333334</ele><time>2026-04-18T10:20:15.999Z</time></trkpt><trkpt lat="44.51752917420624" lon="9.986118735071708"><ele>768.0</ele><time>2026-04-18T10:20:18.999Z</time></trkpt><trkpt lat="44.51745558899284" lon="9.986061020762005"><ele>768.0</ele><time>2026-04-18T10:20:20.999Z</time></trkpt><trkpt lat="44.517372173186246" lon="9.98600556945748"><ele>768.0</ele><time>2026-04-18T10:20:23.999Z</time></trkpt><trkpt lat="44.517291767586364" lon="9.985940858914633"><ele>768.0</ele><time>2026-04-18T10:20:26.999Z</time></trkpt><trkpt lat="44.51721244253047" lon="9.985880750799549"><ele>768.0</ele><time>2026-04-18T10:20:29.999Z</time></trkpt><trkpt lat="44.51713513679062" lon="9.985814181003057"><ele>768.0</ele><time>2026-04-18T10:20:32.999Z</time></trkpt><trkpt lat="44.517056668627184" lon="9.985747105432434"><ele>767.8</ele><time>2026-04-18T10:20:35.999Z</time></trkpt><trkpt lat="44.5169771343566" lon="9.98568895264179"><ele>767.5999999999999</ele><time>2026-04-18T10:20:38.999Z</time></trkpt><trkpt lat="44.51689724955237" lon="9.985636637625904"><ele>767.4000000000001</ele><time>2026-04-18T10:20:41.999Z</time></trkpt><trkpt lat="44.51681674137228" lon="9.98558285320793"><ele>767.2</ele><time>2026-04-18T10:20:44.998Z</time></trkpt><trkpt lat="44.51672564560024" lon="9.98554655078742"><ele>767.0</ele><time>2026-04-18T10:20:47.998Z</time></trkpt><trkpt lat="44.516630525499174" lon="9.985556033802359"><ele>767.0</ele><time>2026-04-18T10:20:50.998Z</time></trkpt><trkpt lat="44.516549894159255" lon="9.985622373975241"><ele>767.0</ele><time>2026-04-18T10:20:53.998Z</time></trkpt><trkpt lat="44.51649819225592" lon="9.985679942951405"><ele>767.0</ele><time>2026-04-18T10:20:55.998Z</time></trkpt><trkpt lat="44.51644588540038" lon="9.985736208877672"><ele>767.0</ele><time>2026-04-18T10:20:57.998Z</time></trkpt><trkpt lat="44.516391598883374" lon="9.985801417303598"><ele>767.0</ele><time>2026-04-18T10:20:59.998Z</time></trkpt><trkpt lat="44.516343628999095" lon="9.985871564447113"><ele>767.0</ele><time>2026-04-18T10:21:01.998Z</time></trkpt><trkpt lat="44.51629059109956" lon="9.985938696818637"><ele>767.0</ele><time>2026-04-18T10:21:03.998Z</time></trkpt><trkpt lat="44.516240982474976" lon="9.98600818949825"><ele>767.2857142857143</ele><time>2026-04-18T10:21:05.998Z</time></trkpt><trkpt lat="44.51619625104439" lon="9.98607959244606"><ele>767.5714285714287</ele><time>2026-04-18T10:21:07.998Z</time></trkpt><trkpt lat="44.51614939496101" lon="9.986153122829563"><ele>767.8571428571429</ele><time>2026-04-18T10:21:10Z</time></trkpt><trkpt lat="44.5161031699129" lon="9.986228930442081"><ele>768.1428571428571</ele><time>2026-04-18T10:21:12Z</time></trkpt><trkpt lat="44.516062173084144" lon="9.986305856345405"><ele>768.4285714285714</ele><time>2026-04-18T10:21:14Z</time></trkpt><trkpt lat="44.51601696549972" lon="9.98638262214101"><ele>768.7142857142857</ele><time>2026-04-18T10:21:16Z</time></trkpt><trkpt lat="44.51597915319471" lon="9.9864665590422"><ele>769.0</ele><time>2026-04-18T10:21:18Z</time></trkpt><trkpt lat="44.51594696218767" lon="9.986550276232215"><ele>768.9999999999999</ele><time>2026-04-18T10:21:20Z</time></trkpt><trkpt lat="44.515917340352516" lon="9.986633330502837"><ele>769.0</ele><time>2026-04-18T10:21:22Z</time></trkpt><trkpt lat="44.51589256369521" lon="9.986716345896983"><ele>769.0</ele><time>2026-04-18T10:21:24Z</time></trkpt><trkpt lat="44.51586096626069" lon="9.986837891606209"><ele>769.0</ele><time>2026-04-18T10:21:28Z</time></trkpt><trkpt lat="44.51583153238364" lon="9.986955423251983"><ele>768.9999999999999</ele><time>2026-04-18T10:21:31Z</time></trkpt><trkpt lat="44.5157974748878" lon="9.987090854059534"><ele>769.0</ele><time>2026-04-18T10:21:34Z</time></trkpt><trkpt lat="44.515772290570794" lon="9.987194543821488"><ele>769.9999999999999</ele><time>2026-04-18T10:21:37Z</time></trkpt><trkpt lat="44.51574796008193" lon="9.98729099015838"><ele>771.0</ele><time>2026-04-18T10:21:39Z</time></trkpt><trkpt lat="44.51572434980184" lon="9.987400841261609"><ele>772.0</ele><time>2026-04-18T10:21:42Z</time></trkpt><trkpt lat="44.51569414279071" lon="9.987518481061763"><ele>773.0</ele><time>2026-04-18T10:21:45Z</time></trkpt><trkpt lat="44.515667954269425" lon="9.987627660578314"><ele>773.9999999999999</ele><time>2026-04-18T10:21:48Z</time></trkpt><trkpt lat="44.51564154506777" lon="9.987736949484646"><ele>775.0</ele><time>2026-04-18T10:21:50.999Z</time></trkpt><trkpt lat="44.51561338939794" lon="9.987845799926227"><ele>775.6666666666666</ele><time>2026-04-18T10:21:53.999Z</time></trkpt><trkpt lat="44.51559360580669" lon="9.987961417002863"><ele>776.3333333333333</ele><time>2026-04-18T10:21:56.999Z</time></trkpt><trkpt lat="44.515586891603675" lon="9.988061187211462"><ele>777.0</ele><time>2026-04-18T10:21:58.999Z</time></trkpt><trkpt lat="44.51558751444842" lon="9.988184181776749"><ele>777.6666666666667</ele><time>2026-04-18T10:22:01.999Z</time></trkpt><trkpt lat="44.51561271317632" lon="9.988311813902161"><ele>778.3333333333334</ele><time>2026-04-18T10:22:04.999Z</time></trkpt><trkpt lat="44.515642585813964" lon="9.988423443916597"><ele>779.0</ele><time>2026-04-18T10:22:06.999Z</time></trkpt><trkpt lat="44.51567262537678" lon="9.988510083687748"><ele>779.0000000000001</ele><time>2026-04-18T10:22:08.999Z</time></trkpt><trkpt lat="44.515719753073796" lon="9.988641104147794"><ele>779.0</ele><time>2026-04-18T10:22:11.999Z</time></trkpt><trkpt lat="44.515752612851614" lon="9.988721371300874"><ele>779.0</ele><time>2026-04-18T10:22:12.999Z</time></trkpt><trkpt lat="44.51579529767084" lon="9.988801720172951"><ele>779.0</ele><time>2026-04-18T10:22:15.999Z</time></trkpt><trkpt lat="44.51583611367543" lon="9.988892771037047"><ele>779.0000000000001</ele><time>2026-04-18T10:22:16.999Z</time></trkpt><trkpt lat="44.51588836734718" lon="9.989002467189168"><ele>779.0</ele><time>2026-04-18T10:22:18.999Z</time></trkpt><trkpt lat="44.515936492461755" lon="9.989106381977201"><ele>780.1666666666667</ele><time>2026-04-18T10:22:20.999Z</time></trkpt><trkpt lat="44.515977668415616" lon="9.989207899599005"><ele>781.3333333333334</ele><time>2026-04-18T10:22:22.999Z</time></trkpt><trkpt lat="44.516020536805996" lon="9.989313976401652"><ele>782.5</ele><time>2026-04-18T10:22:24.999Z</time></trkpt><trkpt lat="44.51604762750953" lon="9.98942652956591"><ele>783.6666666666667</ele><time>2026-04-18T10:22:26.999Z</time></trkpt><trkpt lat="44.516043035412274" lon="9.989556061009942"><ele>784.8333333333334</ele><time>2026-04-18T10:22:28.999Z</time></trkpt><trkpt lat="44.51601460235845" lon="9.989667079269358"><ele>786.0</ele><time>2026-04-18T10:22:30.999Z</time></trkpt><trkpt lat="44.51595183700718" lon="9.989748005364557"><ele>786.0</ele><time>2026-04-18T10:22:32.999Z</time></trkpt><trkpt lat="44.515878818122644" lon="9.98980718377406"><ele>786.0</ele><time>2026-04-18T10:22:34.999Z</time></trkpt><trkpt lat="44.51579905792048" lon="9.989842285543226"><ele>786.0</ele><time>2026-04-18T10:22:36.999Z</time></trkpt><trkpt lat="44.515720576866364" lon="9.989878264334656"><ele>786.0</ele><time>2026-04-18T10:22:38.999Z</time></trkpt><trkpt lat="44.515645850402755" lon="9.989916936702018"><ele>786.0</ele><time>2026-04-18T10:22:40.999Z</time></trkpt><trkpt lat="44.5155741054742" lon="9.989954025828165"><ele>786.0</ele><time>2026-04-18T10:22:42.999Z</time></trkpt><trkpt lat="44.5154998009023" lon="9.989992576909316"><ele>788.6666666666666</ele><time>2026-04-18T10:22:44.999Z</time></trkpt><trkpt lat="44.515422083966584" lon="9.990031841828024"><ele>791.3333333333333</ele><time>2026-04-18T10:22:46.999Z</time></trkpt><trkpt lat="44.51534704406542" lon="9.99007019196499"><ele>794.0</ele><time>2026-04-18T10:22:48.999Z</time></trkpt><trkpt lat="44.515274634366776" lon="9.990099793282527"><ele>796.6666666666666</ele><time>2026-04-18T10:22:50.998Z</time></trkpt><trkpt lat="44.515209726088294" lon="9.99014010125842"><ele>799.3333333333333</ele><time>2026-04-18T10:22:52.998Z</time></trkpt><trkpt lat="44.515241129415514" lon="9.990249894733568"><ele>802.0</ele><time>2026-04-18T10:22:53.998Z</time></trkpt><trkpt lat="44.51517501899724" lon="9.990282874194003"><ele>801.9999999999999</ele><time>2026-04-18T10:22:55.998Z</time></trkpt><trkpt lat="44.51510119810522" lon="9.99031101012333"><ele>802.0</ele><time>2026-04-18T10:22:57.998Z</time></trkpt><trkpt lat="44.51502840935154" lon="9.990350854017453"><ele>802.0</ele><time>2026-04-18T10:22:59.998Z</time></trkpt><trkpt lat="44.514954579280094" lon="9.990388311805159"><ele>802.0</ele><time>2026-04-18T10:23:01.998Z</time></trkpt><trkpt lat="44.51487858559651" lon="9.99041842169975"><ele>801.9999999999999</ele><time>2026-04-18T10:23:03.998Z</time></trkpt><trkpt lat="44.51480059841732" lon="9.99043704858196"><ele>802.0</ele><time>2026-04-18T10:23:05.998Z</time></trkpt><trkpt lat="44.514723269406765" lon="9.99041866262955"><ele>801.9999999999999</ele><time>2026-04-18T10:23:07.998Z</time></trkpt><trkpt lat="44.514655153689134" lon="9.990379432143078"><ele>802.0</ele><time>2026-04-18T10:23:09.998Z</time></trkpt><trkpt lat="44.514597783732754" lon="9.990331276484437"><ele>802.0</ele><time>2026-04-18T10:23:11.998Z</time></trkpt><trkpt lat="44.51452324956325" lon="9.990280440542906"><ele>802.0</ele><time>2026-04-18T10:23:12.998Z</time></trkpt><trkpt lat="44.51445887124456" lon="9.99019285019585"><ele>801.9999999999999</ele><time>2026-04-18T10:23:16Z</time></trkpt><trkpt lat="44.514414323823445" lon="9.99010961630356"><ele>802.0</ele><time>2026-04-18T10:23:17Z</time></trkpt><trkpt lat="44.51435795200353" lon="9.990045173777935"><ele>801.6666666666666</ele><time>2026-04-18T10:23:19Z</time></trkpt><trkpt lat="44.51429863620443" lon="9.98997727163844"><ele>801.3333333333333</ele><time>2026-04-18T10:23:21Z</time></trkpt><trkpt lat="44.514244770154114" lon="9.98991434958406"><ele>801.0</ele><time>2026-04-18T10:23:23Z</time></trkpt><trkpt lat="44.51418289786718" lon="9.989844799617794"><ele>800.6666666666667</ele><time>2026-04-18T10:23:25Z</time></trkpt><trkpt lat="44.51412104789068" lon="9.989777127640528"><ele>800.3333333333334</ele><time>2026-04-18T10:23:27Z</time></trkpt><trkpt lat="44.51406345673325" lon="9.989707478684313"><ele>800.0</ele><time>2026-04-18T10:23:29Z</time></trkpt><trkpt lat="44.51399953158946" lon="9.989642087281792"><ele>800.0000000000001</ele><time>2026-04-18T10:23:31Z</time></trkpt><trkpt lat="44.513937327164776" lon="9.989587948009435"><ele>800.0</ele><time>2026-04-18T10:23:33Z</time></trkpt><trkpt lat="44.51387179115653" lon="9.989524825270435"><ele>800.0</ele><time>2026-04-18T10:23:35Z</time></trkpt><trkpt lat="44.51380814432144" lon="9.989464457901226"><ele>800.0</ele><time>2026-04-18T10:23:37Z</time></trkpt><trkpt lat="44.51373854355507" lon="9.989407411072017"><ele>800.0000000000001</ele><time>2026-04-18T10:23:39Z</time></trkpt><trkpt lat="44.51367041642139" lon="9.98934906717746"><ele>800.0</ele><time>2026-04-18T10:23:41Z</time></trkpt><trkpt lat="44.5135578722148" lon="9.989267930210946"><ele>799.5000000000001</ele><time>2026-04-18T10:23:44Z</time></trkpt><trkpt lat="44.513468736817416" lon="9.989198600928711"><ele>799.0</ele><time>2026-04-18T10:23:47Z</time></trkpt><trkpt lat="44.513401091314556" lon="9.989144652719714"><ele>798.5</ele><time>2026-04-18T10:23:49Z</time></trkpt><trkpt lat="44.513336187025146" lon="9.989091089049039"><ele>798.0</ele><time>2026-04-18T10:23:51Z</time></trkpt><trkpt lat="44.51325072806428" lon="9.989043987617128"><ele>797.5000000000001</ele><time>2026-04-18T10:23:54Z</time></trkpt><trkpt lat="44.51316654055064" lon="9.988977647466326"><ele>797.0</ele><time>2026-04-18T10:23:56.999Z</time></trkpt><trkpt lat="44.513088477766765" lon="9.9889585259888"><ele>797.0000000000001</ele><time>2026-04-18T10:23:59.999Z</time></trkpt><trkpt lat="44.51302100486713" lon="9.988912924419562"><ele>797.0</ele><time>2026-04-18T10:24:01.999Z</time></trkpt><trkpt lat="44.51294250237836" lon="9.988880146429652"><ele>797.0</ele><time>2026-04-18T10:24:02.999Z</time></trkpt><trkpt lat="44.51282743714822" lon="9.988845928160632"><ele>797.0</ele><time>2026-04-18T10:24:05.999Z</time></trkpt><trkpt lat="44.512722783237585" lon="9.988842403370342"><ele>797.0000000000001</ele><time>2026-04-18T10:24:07.999Z</time></trkpt><trkpt lat="44.51265544335725" lon="9.988837495097192"><ele>797.0</ele><time>2026-04-18T10:24:08.999Z</time></trkpt><trkpt lat="44.51256783457404" lon="9.988841795500862"><ele>798.4000000000001</ele><time>2026-04-18T10:24:10.999Z</time></trkpt><trkpt lat="44.512463958176546" lon="9.988852534292803"><ele>799.8000000000001</ele><time>2026-04-18T10:24:12.999Z</time></trkpt><trkpt lat="44.5123654538882" lon="9.988870581151856"><ele>801.2</ele><time>2026-04-18T10:24:14.999Z</time></trkpt><trkpt lat="44.51227113475059" lon="9.988897852265657"><ele>802.6</ele><time>2026-04-18T10:24:16.999Z</time></trkpt><trkpt lat="44.51217884709752" lon="9.988921224684796"><ele>804.0</ele><time>2026-04-18T10:24:18.999Z</time></trkpt><trkpt lat="44.51207582916935" lon="9.988953517498642"><ele>804.0</ele><time>2026-04-18T10:24:20.999Z</time></trkpt><trkpt lat="44.51197892510296" lon="9.98898417580553"><ele>804.0</ele><time>2026-04-18T10:24:22.999Z</time></trkpt><trkpt lat="44.51188013516034" lon="9.989012614167368"><ele>804.0</ele><time>2026-04-18T10:24:24.999Z</time></trkpt><trkpt lat="44.51178682721812" lon="9.989036731001008"><ele>804.0</ele><time>2026-04-18T10:24:26.999Z</time></trkpt><trkpt lat="44.51169254981511" lon="9.989060387539956"><ele>804.0</ele><time>2026-04-18T10:24:28.999Z</time></trkpt><trkpt lat="44.51160174047464" lon="9.989061731336067"><ele>804.0</ele><time>2026-04-18T10:24:30.999Z</time></trkpt><trkpt lat="44.51151375081455" lon="9.98904052488154"><ele>804.0</ele><time>2026-04-18T10:24:32.999Z</time></trkpt><trkpt lat="44.51142793207246" lon="9.988999134313001"><ele>804.0</ele><time>2026-04-18T10:24:34.999Z</time></trkpt><trkpt lat="44.51135494665981" lon="9.988942685038317"><ele>804.0</ele><time>2026-04-18T10:24:36.999Z</time></trkpt><trkpt lat="44.51127953432399" lon="9.988895912359663"><ele>804.0</ele><time>2026-04-18T10:24:38.999Z</time></trkpt><trkpt lat="44.511183118216984" lon="9.988847548966003"><ele>804.0</ele><time>2026-04-18T10:24:40.999Z</time></trkpt><trkpt lat="44.511118999836555" lon="9.988786863805311"><ele>804.5</ele><time>2026-04-18T10:24:42.999Z</time></trkpt><trkpt lat="44.51105285010983" lon="9.988730031864334"><ele>805.0</ele><time>2026-04-18T10:24:44.999Z</time></trkpt><trkpt lat="44.510983502978" lon="9.988681096089548"><ele>805.5</ele><time>2026-04-18T10:24:46.999Z</time></trkpt><trkpt lat="44.51091899537609" lon="9.98864213869481"><ele>806.0</ele><time>2026-04-18T10:24:48.999Z</time></trkpt><trkpt lat="44.51086006613219" lon="9.988712141661702"><ele>806.5</ele><time>2026-04-18T10:24:51.999Z</time></trkpt><trkpt lat="44.510821927128966" lon="9.98881822581264"><ele>807.0</ele><time>2026-04-18T10:24:53.999Z</time></trkpt><trkpt lat="44.51077591923016" lon="9.98890305948352"><ele>807.0000000000001</ele><time>2026-04-18T10:24:55.998Z</time></trkpt><trkpt lat="44.510726871393324" lon="9.988991431459116"><ele>807.0</ele><time>2026-04-18T10:24:57.998Z</time></trkpt><trkpt lat="44.51066598166999" lon="9.989066873000402"><ele>807.0</ele><time>2026-04-18T10:24:59.998Z</time></trkpt><trkpt lat="44.51062633969786" lon="9.989137241932958"><ele>807.0</ele><time>2026-04-18T10:25:01.998Z</time></trkpt><trkpt lat="44.51058757368773" lon="9.989211873036446"><ele>807.0</ele><time>2026-04-18T10:25:03.998Z</time></trkpt><trkpt lat="44.510549657795465" lon="9.9893021722482"><ele>807.0000000000001</ele><time>2026-04-18T10:25:05.998Z</time></trkpt><trkpt lat="44.510511581711135" lon="9.989382024311562"><ele>807.0</ele><time>2026-04-18T10:25:07.998Z</time></trkpt><trkpt lat="44.51048465404259" lon="9.989480165656856"><ele>807.5714285714287</ele><time>2026-04-18T10:25:10.998Z</time></trkpt><trkpt lat="44.51053342976559" lon="9.989574198503108"><ele>808.1428571428571</ele><time>2026-04-18T10:25:13.998Z</time></trkpt><trkpt lat="44.510531545173784" lon="9.989671416521253"><ele>808.7142857142858</ele><time>2026-04-18T10:25:15.998Z</time></trkpt><trkpt lat="44.510531962748914" lon="9.989765364751316"><ele>809.2857142857143</ele><time>2026-04-18T10:25:17.998Z</time></trkpt><trkpt lat="44.51053360619073" lon="9.989863069387289"><ele>809.8571428571429</ele><time>2026-04-18T10:25:21Z</time></trkpt><trkpt lat="44.51054345307792" lon="9.989956252894554"><ele>810.4285714285714</ele><time>2026-04-18T10:25:24Z</time></trkpt><trkpt lat="44.51053020690304" lon="9.990051938483397"><ele>811.0</ele><time>2026-04-18T10:25:34Z</time></trkpt><trkpt lat="44.510467584209906" lon="9.990090670173648"><ele>810.9999999999999</ele><time>2026-04-18T10:26:34.999Z</time></trkpt><trkpt lat="44.51044372400464" lon="9.99019038023895"><ele>811.0</ele><time>2026-04-18T10:28:10.999Z</time></trkpt><trkpt lat="44.51043215618831" lon="9.990092014116852"><ele>811.0</ele><time>2026-04-18T10:29:24.998Z</time></trkpt><trkpt lat="44.51042562426297" lon="9.989976027005108"><ele>811.0</ele><time>2026-04-18T10:30:50.999Z</time></trkpt><trkpt lat="44.51043820501606" lon="9.990081706253967"><ele>810.9999999999999</ele><time>2026-04-18T10:31:08.998Z</time></trkpt><trkpt lat="44.510491255004865" lon="9.990027847451039"><ele>811.0</ele><time>2026-04-18T10:33:04.998Z</time></trkpt><trkpt lat="44.510440053525286" lon="9.990147207632576"><ele>811.0</ele><time>2026-04-18T10:33:19.998Z</time></trkpt><trkpt lat="44.51043172489525" lon="9.99023542966644"><ele>811.0</ele><time>2026-04-18T10:35:16.998Z</time></trkpt><trkpt lat="44.510471029290116" lon="9.990164324770294"><ele>811.0</ele><time>2026-04-18T10:35:26.998Z</time></trkpt><trkpt lat="44.510530986038766" lon="9.990131919379785"><ele>811.0</ele><time>2026-04-18T10:35:33.998Z</time></trkpt><trkpt lat="44.51054868760511" lon="9.990219339737443"><ele>811.0</ele><time>2026-04-18T10:35:43.998Z</time></trkpt><trkpt lat="44.51057385198425" lon="9.990302907291658"><ele>811.0</ele><time>2026-04-18T10:35:46.998Z</time></trkpt><trkpt lat="44.51057649185125" lon="9.990424017497325"><ele>811.0</ele><time>2026-04-18T10:35:50Z</time></trkpt><trkpt lat="44.51058224998466" lon="9.990540057938745"><ele>811.0</ele><time>2026-04-18T10:35:53Z</time></trkpt><trkpt lat="44.51058460055252" lon="9.990662331424742"><ele>811.0</ele><time>2026-04-18T10:35:56Z</time></trkpt><trkpt lat="44.51060156573519" lon="9.990748766753313"><ele>811.0</ele><time>2026-04-18T10:35:58Z</time></trkpt><trkpt lat="44.510602129196876" lon="9.99084606444455"><ele>811.0</ele><time>2026-04-18T10:36:00Z</time></trkpt><trkpt lat="44.51060953502275" lon="9.99093520374523"><ele>811.0</ele><time>2026-04-18T10:36:02Z</time></trkpt><trkpt lat="44.51060773728537" lon="9.99103419557161"><ele>811.0</ele><time>2026-04-18T10:36:05Z</time></trkpt><trkpt lat="44.51061675394953" lon="9.991152467266325"><ele>811.0</ele><time>2026-04-18T10:36:08Z</time></trkpt><trkpt lat="44.510615919989" lon="9.99128235837527"><ele>811.4999999999999</ele><time>2026-04-18T10:36:10Z</time></trkpt><trkpt lat="44.51061874192614" lon="9.99140129172605"><ele>812.0</ele><time>2026-04-18T10:36:12.999Z</time></trkpt><trkpt lat="44.51063066319944" lon="9.991500496108733"><ele>812.5</ele><time>2026-04-18T10:36:15.999Z</time></trkpt><trkpt lat="44.51064673756777" lon="9.99164041571127"><ele>813.0</ele><time>2026-04-18T10:36:18.999Z</time></trkpt><trkpt lat="44.510657028815125" lon="9.99172864411381"><ele>813.4999999999999</ele><time>2026-04-18T10:36:21.999Z</time></trkpt><trkpt lat="44.51066297227542" lon="9.991825410474029"><ele>814.0</ele><time>2026-04-18T10:36:23.999Z</time></trkpt><trkpt lat="44.510665372771996" lon="9.99192445790155"><ele>815.5714285714287</ele><time>2026-04-18T10:36:26.999Z</time></trkpt><trkpt lat="44.51066141327121" lon="9.992025297399852"><ele>817.1428571428571</ele><time>2026-04-18T10:36:28.999Z</time></trkpt><trkpt lat="44.510647464026725" lon="9.992117872500673"><ele>818.7142857142858</ele><time>2026-04-18T10:36:31.999Z</time></trkpt><trkpt lat="44.510631868332844" lon="9.992206630460691"><ele>820.2857142857143</ele><time>2026-04-18T10:36:34.999Z</time></trkpt><trkpt lat="44.51058873342226" lon="9.992288805514677"><ele>821.8571428571429</ele><time>2026-04-18T10:36:37.999Z</time></trkpt><trkpt lat="44.5105229142696" lon="9.99235571626144"><ele>823.4285714285714</ele><time>2026-04-18T10:36:40.999Z</time></trkpt><trkpt lat="44.510446564340974" lon="9.992394294107026"><ele>825.0</ele><time>2026-04-18T10:36:43.999Z</time></trkpt><trkpt lat="44.510377560594044" lon="9.992416749783509"><ele>825.0</ele><time>2026-04-18T10:36:45.999Z</time></trkpt><trkpt lat="44.51030644095984" lon="9.99242678885293"><ele>825.0</ele><time>2026-04-18T10:36:48.999Z</time></trkpt><trkpt lat="44.51022259697511" lon="9.99244027105623"><ele>825.0</ele><time>2026-04-18T10:36:51.999Z</time></trkpt><trkpt lat="44.51014201998362" lon="9.9924611474108"><ele>825.0</ele><time>2026-04-18T10:36:54.999Z</time></trkpt><trkpt lat="44.510058936496776" lon="9.992493922687174"><ele>825.0</ele><time>2026-04-18T10:36:57.999Z</time></trkpt><trkpt lat="44.50997635784472" lon="9.992503964102836"><ele>825.0</ele><time>2026-04-18T10:37:00.999Z</time></trkpt><trkpt lat="44.509892677688846" lon="9.992529210197832"><ele>826.8333333333334</ele><time>2026-04-18T10:37:03.998Z</time></trkpt><trkpt lat="44.50982609695236" lon="9.992522402110966"><ele>828.6666666666667</ele><time>2026-04-18T10:37:06.998Z</time></trkpt><trkpt lat="44.50973661618028" lon="9.992542363837787"><ele>830.5</ele><time>2026-04-18T10:37:09.998Z</time></trkpt><trkpt lat="44.50965522580039" lon="9.99254698467244"><ele>832.3333333333334</ele><time>2026-04-18T10:37:12.998Z</time></trkpt><trkpt lat="44.50957540486044" lon="9.992521272212997"><ele>834.1666666666667</ele><time>2026-04-18T10:37:15.998Z</time></trkpt><trkpt lat="44.509513425900614" lon="9.992475357519748"><ele>836.0</ele><time>2026-04-18T10:37:18.998Z</time></trkpt><trkpt lat="44.50945719642142" lon="9.99241525687759"><ele>836.0</ele><time>2026-04-18T10:37:21.998Z</time></trkpt><trkpt lat="44.50940061410567" lon="9.992348461596777"><ele>836.0</ele><time>2026-04-18T10:37:24.998Z</time></trkpt><trkpt lat="44.509346094388995" lon="9.992287489722306"><ele>836.0</ele><time>2026-04-18T10:37:27.998Z</time></trkpt><trkpt lat="44.5092905580949" lon="9.992215633144781"><ele>836.0</ele><time>2026-04-18T10:37:30.998Z</time></trkpt><trkpt lat="44.50923011334288" lon="9.992156799951116"><ele>836.0</ele><time>2026-04-18T10:37:33.998Z</time></trkpt><trkpt lat="44.50915695069878" lon="9.992122444225727"><ele>836.0</ele><time>2026-04-18T10:37:36.998Z</time></trkpt><trkpt lat="44.509080044709535" lon="9.992099568582336"><ele>836.0</ele><time>2026-04-18T10:37:39.998Z</time></trkpt><trkpt lat="44.508997400734" lon="9.992086888904073"><ele>836.0000000000001</ele><time>2026-04-18T10:37:42.998Z</time></trkpt><trkpt lat="44.50890904173578" lon="9.992081471141665"><ele>836.0</ele><time>2026-04-18T10:37:45.998Z</time></trkpt><trkpt lat="44.5088301563747" lon="9.992097959866568"><ele>836.0</ele><time>2026-04-18T10:37:48.998Z</time></trkpt><trkpt lat="44.50874411706303" lon="9.992108878306551"><ele>836.0</ele><time>2026-04-18T10:37:51.998Z</time></trkpt><trkpt lat="44.50866903742706" lon="9.992114055737597"><ele>836.0000000000001</ele><time>2026-04-18T10:37:55Z</time></trkpt><trkpt lat="44.508592607326875" lon="9.992117707493128"><ele>836.0</ele><time>2026-04-18T10:37:58Z</time></trkpt><trkpt lat="44.508514911517615" lon="9.992119277596702"><ele>836.6666666666667</ele><time>2026-04-18T10:38:01Z</time></trkpt><trkpt lat="44.5084287832669" lon="9.992127089537775"><ele>837.3333333333334</ele><time>2026-04-18T10:38:04Z</time></trkpt><trkpt lat="44.50835052383743" lon="9.992115458081301"><ele>838.0</ele><time>2026-04-18T10:38:07Z</time></trkpt><trkpt lat="44.50826292454539" lon="9.992113520137812"><ele>838.6666666666667</ele><time>2026-04-18T10:38:10Z</time></trkpt><trkpt lat="44.508185851459636" lon="9.992105696744497"><ele>839.3333333333334</ele><time>2026-04-18T10:38:13Z</time></trkpt><trkpt lat="44.50809792931746" lon="9.992096340975264"><ele>840.0</ele><time>2026-04-18T10:38:15.999Z</time></trkpt><trkpt lat="44.50801561357797" lon="9.99209529201806"><ele>840.0</ele><time>2026-04-18T10:38:18.999Z</time></trkpt><trkpt lat="44.50793388886731" lon="9.992082507794274"><ele>840.0</ele><time>2026-04-18T10:38:21.999Z</time></trkpt><trkpt lat="44.5078557746706" lon="9.992069198208"><ele>840.0</ele><time>2026-04-18T10:38:24.999Z</time></trkpt><trkpt lat="44.50778291700834" lon="9.992052187633062"><ele>840.0</ele><time>2026-04-18T10:38:27.999Z</time></trkpt><trkpt lat="44.50770931875608" lon="9.992026652331226"><ele>840.0</ele><time>2026-04-18T10:38:30.999Z</time></trkpt><trkpt lat="44.507651908046526" lon="9.991985945367583"><ele>840.0</ele><time>2026-04-18T10:38:33.999Z</time></trkpt><trkpt lat="44.50758010449662" lon="9.991940470320754"><ele>840.5</ele><time>2026-04-18T10:38:36.999Z</time></trkpt><trkpt lat="44.50752460466275" lon="9.991888680465486"><ele>841.0</ele><time>2026-04-18T10:38:39.999Z</time></trkpt><trkpt lat="44.50743936538987" lon="9.991834463207342"><ele>841.5</ele><time>2026-04-18T10:38:42.999Z</time></trkpt><trkpt lat="44.50736207022304" lon="9.99178005138909"><ele>842.0</ele><time>2026-04-18T10:38:45.999Z</time></trkpt><trkpt lat="44.50729596872413" lon="9.991731547699981"><ele>842.5</ele><time>2026-04-18T10:38:48.999Z</time></trkpt><trkpt lat="44.507218702125165" lon="9.99168540674893"><ele>843.0</ele><time>2026-04-18T10:38:51.999Z</time></trkpt><trkpt lat="44.50713874963584" lon="9.99162643306078"><ele>843.0</ele><time>2026-04-18T10:38:54.999Z</time></trkpt><trkpt lat="44.50706567482782" lon="9.99158535588206"><ele>843.0</ele><time>2026-04-18T10:38:57.999Z</time></trkpt><trkpt lat="44.50699215347547" lon="9.991503161432876"><ele>843.0</ele><time>2026-04-18T10:39:00.999Z</time></trkpt><trkpt lat="44.50691010194467" lon="9.991403545068852"><ele>843.0</ele><time>2026-04-18T10:39:04.999Z</time></trkpt><trkpt lat="44.50684687052264" lon="9.991338880598699"><ele>843.0</ele><time>2026-04-18T10:39:06.999Z</time></trkpt><trkpt lat="44.50677136406022" lon="9.991253434670126"><ele>843.0</ele><time>2026-04-18T10:39:08.998Z</time></trkpt><trkpt lat="44.50669665716429" lon="9.991183998230143"><ele>843.0</ele><time>2026-04-18T10:39:10.998Z</time></trkpt><trkpt lat="44.50661372265691" lon="9.991093274617972"><ele>843.0</ele><time>2026-04-18T10:39:12.998Z</time></trkpt><trkpt lat="44.50655137043967" lon="9.990988091139027"><ele>843.0</ele><time>2026-04-18T10:39:14.998Z</time></trkpt><trkpt lat="44.50648019117663" lon="9.990873322311831"><ele>843.0</ele><time>2026-04-18T10:39:16.998Z</time></trkpt><trkpt lat="44.50642141437735" lon="9.99074737040896"><ele>842.5999999999999</ele><time>2026-04-18T10:39:18.998Z</time></trkpt><trkpt lat="44.50636890102799" lon="9.990618787082125"><ele>842.1999999999999</ele><time>2026-04-18T10:39:20.998Z</time></trkpt><trkpt lat="44.50630896633071" lon="9.990496907934878"><ele>841.8</ele><time>2026-04-18T10:39:22.998Z</time></trkpt><trkpt lat="44.50625879071839" lon="9.990358610999538"><ele>841.4</ele><time>2026-04-18T10:39:24.998Z</time></trkpt><trkpt lat="44.50620033492517" lon="9.99022732720527"><ele>841.0</ele><time>2026-04-18T10:39:26.998Z</time></trkpt><trkpt lat="44.50613346838343" lon="9.990111420186237"><ele>842.0</ele><time>2026-04-18T10:39:28.998Z</time></trkpt><trkpt lat="44.50606055956598" lon="9.989999763492307"><ele>843.0</ele><time>2026-04-18T10:39:30.998Z</time></trkpt><trkpt lat="44.5059811031921" lon="9.989902883338877"><ele>844.0</ele><time>2026-04-18T10:39:32.998Z</time></trkpt><trkpt lat="44.50589229556808" lon="9.989811707706329"><ele>845.0</ele><time>2026-04-18T10:39:34.998Z</time></trkpt><trkpt lat="44.50580603415734" lon="9.989722474494851"><ele>846.0</ele><time>2026-04-18T10:39:36.998Z</time></trkpt><trkpt lat="44.505720985416644" lon="9.98962895213811"><ele>846.0</ele><time>2026-04-18T10:39:38.998Z</time></trkpt><trkpt lat="44.50563866029519" lon="9.989524712085679"><ele>846.0</ele><time>2026-04-18T10:39:40.998Z</time></trkpt><trkpt lat="44.50555520787804" lon="9.989442758395692"><ele>846.0</ele><time>2026-04-18T10:39:42.998Z</time></trkpt><trkpt lat="44.50547739423468" lon="9.989350246905824"><ele>846.0</ele><time>2026-04-18T10:39:44.998Z</time></trkpt><trkpt lat="44.505398741311325" lon="9.989265280450674"><ele>846.0</ele><time>2026-04-18T10:39:46.998Z</time></trkpt><trkpt lat="44.50532182988913" lon="9.989168462205116"><ele>846.5999999999999</ele><time>2026-04-18T10:39:48.998Z</time></trkpt><trkpt lat="44.50524534482886" lon="9.989088741872012"><ele>847.2</ele><time>2026-04-18T10:39:50.998Z</time></trkpt><trkpt lat="44.50515514145838" lon="9.989027727574522"><ele>847.8</ele><time>2026-04-18T10:39:52.998Z</time></trkpt><trkpt lat="44.50506126408811" lon="9.988982898279863"><ele>848.4000000000001</ele><time>2026-04-18T10:39:54.998Z</time></trkpt><trkpt lat="44.50499784901284" lon="9.988975374069799"><ele>849.0</ele><time>2026-04-18T10:39:56.998Z</time></trkpt><trkpt lat="44.504899097532245" lon="9.988940990918435"><ele>849.0</ele><time>2026-04-18T10:39:58.998Z</time></trkpt><trkpt lat="44.50480749210611" lon="9.98894596628884"><ele>849.0</ele><time>2026-04-18T10:40:01Z</time></trkpt><trkpt lat="44.5047101081611" lon="9.98893467735111"><ele>849.0</ele><time>2026-04-18T10:40:03Z</time></trkpt><trkpt lat="44.5046164206518" lon="9.988930432703308"><ele>849.0</ele><time>2026-04-18T10:40:05Z</time></trkpt><trkpt lat="44.504392821891045" lon="9.988954565794701"><ele>849.8000000000001</ele><time>2026-04-18T10:40:08Z</time></trkpt><trkpt lat="44.50428530367005" lon="9.988906854618566"><ele>850.6</ele><time>2026-04-18T10:40:10Z</time></trkpt><trkpt lat="44.50418018041235" lon="9.988873505318779"><ele>851.4</ele><time>2026-04-18T10:40:12Z</time></trkpt><trkpt lat="44.50407499118074" lon="9.988846584753011"><ele>852.2</ele><time>2026-04-18T10:40:14Z</time></trkpt><trkpt lat="44.50397868091983" lon="9.988777978764999"><ele>853.0</ele><time>2026-04-18T10:40:16Z</time></trkpt><trkpt lat="44.50389357848688" lon="9.988704609734192"><ele>853.0</ele><time>2026-04-18T10:40:18Z</time></trkpt><trkpt lat="44.50380807648658" lon="9.98861415821415"><ele>853.0</ele><time>2026-04-18T10:40:19.999Z</time></trkpt><trkpt lat="44.50372324184591" lon="9.9885347400318"><ele>853.0</ele><time>2026-04-18T10:40:21.999Z</time></trkpt><trkpt lat="44.503643047526424" lon="9.988441025826022"><ele>853.0</ele><time>2026-04-18T10:40:23.999Z</time></trkpt><trkpt lat="44.50355412887986" lon="9.988353181384257"><ele>853.0</ele><time>2026-04-18T10:40:25.999Z</time></trkpt><trkpt lat="44.503490319799205" lon="9.988238940659091"><ele>853.25</ele><time>2026-04-18T10:40:27.999Z</time></trkpt><trkpt lat="44.50341974285765" lon="9.988120453113913"><ele>853.5</ele><time>2026-04-18T10:40:29.999Z</time></trkpt><trkpt lat="44.50332149496078" lon="9.987918251668656"><ele>853.75</ele><time>2026-04-18T10:40:32.999Z</time></trkpt><trkpt lat="44.50325899588284" lon="9.987785328634283"><ele>854.0</ele><time>2026-04-18T10:40:34.999Z</time></trkpt><trkpt lat="44.503197369225234" lon="9.987658981682038"><ele>854.0</ele><time>2026-04-18T10:40:36.999Z</time></trkpt><trkpt lat="44.50313718460592" lon="9.987541048294828"><ele>854.0000000000001</ele><time>2026-04-18T10:40:38.999Z</time></trkpt><trkpt lat="44.50306988896848" lon="9.987435255791013"><ele>854.0000000000001</ele><time>2026-04-18T10:40:40.999Z</time></trkpt><trkpt lat="44.50298081535231" lon="9.98734682329291"><ele>854.0</ele><time>2026-04-18T10:40:42.999Z</time></trkpt><trkpt lat="44.502874707719705" lon="9.987323845819384"><ele>854.0</ele><time>2026-04-18T10:40:44.999Z</time></trkpt><trkpt lat="44.502775097215014" lon="9.987364691173756"><ele>853.75</ele><time>2026-04-18T10:40:46.999Z</time></trkpt><trkpt lat="44.50267032890815" lon="9.987402628583048"><ele>853.5</ele><time>2026-04-18T10:40:48.999Z</time></trkpt><trkpt lat="44.50253572578939" lon="9.987376511444259"><ele>853.25</ele><time>2026-04-18T10:40:50.999Z</time></trkpt><trkpt lat="44.50241500157633" lon="9.987398959721318"><ele>853.0</ele><time>2026-04-18T10:40:52.999Z</time></trkpt><trkpt lat="44.50231186487732" lon="9.987436527186778"><ele>853.0</ele><time>2026-04-18T10:40:54.999Z</time></trkpt><trkpt lat="44.50220028983968" lon="9.987418211064163"><ele>853.0</ele><time>2026-04-18T10:40:56.999Z</time></trkpt><trkpt lat="44.50210418344003" lon="9.987331406316041"><ele>853.0</ele><time>2026-04-18T10:40:58.999Z</time></trkpt><trkpt lat="44.50205250525392" lon="9.987190186944876"><ele>853.0</ele><time>2026-04-18T10:41:00.999Z</time></trkpt><trkpt lat="44.50207663525811" lon="9.987108099090339"><ele>853.0</ele><time>2026-04-18T10:41:01.999Z</time></trkpt><trkpt lat="44.50210946462248" lon="9.986978761485812"><ele>853.0</ele><time>2026-04-18T10:41:03.999Z</time></trkpt><trkpt lat="44.50215255344297" lon="9.986851768422197"><ele>853.0</ele><time>2026-04-18T10:41:05.999Z</time></trkpt><trkpt lat="44.50219277754482" lon="9.986718377970009"><ele>853.0</ele><time>2026-04-18T10:41:07.999Z</time></trkpt><trkpt lat="44.50222976776422" lon="9.986586052187985"><ele>853.0</ele><time>2026-04-18T10:41:09.999Z</time></trkpt><trkpt lat="44.50225086090214" lon="9.986443217431967"><ele>853.0</ele><time>2026-04-18T10:41:11.999Z</time></trkpt><trkpt lat="44.50220411223321" lon="9.986294350016015"><ele>851.8</ele><time>2026-04-18T10:41:13.998Z</time></trkpt><trkpt lat="44.5021590589832" lon="9.98615714330772"><ele>850.5999999999999</ele><time>2026-04-18T10:41:15.998Z</time></trkpt><trkpt lat="44.50209760629421" lon="9.986002867747736"><ele>849.4000000000001</ele><time>2026-04-18T10:41:18.998Z</time></trkpt><trkpt lat="44.502036839656796" lon="9.98588171039983"><ele>848.2</ele><time>2026-04-18T10:41:20.998Z</time></trkpt><trkpt lat="44.50197320883903" lon="9.985760369648563"><ele>847.0</ele><time>2026-04-18T10:41:22.998Z</time></trkpt><trkpt lat="44.5018988842826" lon="9.985656593199494"><ele>849.6</ele><time>2026-04-18T10:41:24.998Z</time></trkpt><trkpt lat="44.50181467695239" lon="9.985571396133682"><ele>852.2</ele><time>2026-04-18T10:41:26.998Z</time></trkpt><trkpt lat="44.50172940235359" lon="9.985490335133843"><ele>854.8</ele><time>2026-04-18T10:41:28.998Z</time></trkpt><trkpt lat="44.50164176707183" lon="9.985412093451222"><ele>857.4</ele><time>2026-04-18T10:41:30.998Z</time></trkpt><trkpt lat="44.501554458564506" lon="9.98532528612272"><ele>860.0</ele><time>2026-04-18T10:41:32.998Z</time></trkpt><trkpt lat="44.5014934173049" lon="9.98521501907865"><ele>860.0</ele><time>2026-04-18T10:41:34.998Z</time></trkpt><trkpt lat="44.50143906621412" lon="9.98507778218348"><ele>860.0</ele><time>2026-04-18T10:41:36.998Z</time></trkpt><trkpt lat="44.50144006375722" lon="9.984989250653529"><ele>860.0</ele><time>2026-04-18T10:41:37.998Z</time></trkpt><trkpt lat="44.501412110923276" lon="9.984854148580347"><ele>860.0</ele><time>2026-04-18T10:41:39.998Z</time></trkpt><trkpt lat="44.501461932881135" lon="9.984715293456635"><ele>860.0</ele><time>2026-04-18T10:41:41.998Z</time></trkpt><trkpt lat="44.501519102052136" lon="9.984593452378036"><ele>859.6</ele><time>2026-04-18T10:41:43.998Z</time></trkpt><trkpt lat="44.50158250764446" lon="9.984467716672627"><ele>859.2</ele><time>2026-04-18T10:41:45.998Z</time></trkpt><trkpt lat="44.501637712197116" lon="9.98434827085756"><ele>858.8</ele><time>2026-04-18T10:41:47.998Z</time></trkpt><trkpt lat="44.50168756003382" lon="9.984218511340503"><ele>858.4</ele><time>2026-04-18T10:41:49.998Z</time></trkpt><trkpt lat="44.5017318508868" lon="9.98407759558765"><ele>858.0</ele><time>2026-04-18T10:41:51.998Z</time></trkpt><trkpt lat="44.50177150338707" lon="9.98393120520125"><ele>859.4</ele><time>2026-04-18T10:41:53.998Z</time></trkpt><trkpt lat="44.50180211763728" lon="9.983775390718254"><ele>860.8</ele><time>2026-04-18T10:41:55.998Z</time></trkpt><trkpt lat="44.50183433679095" lon="9.983623308461718"><ele>862.2</ele><time>2026-04-18T10:41:57.998Z</time></trkpt><trkpt lat="44.5018415123386" lon="9.98346814496614"><ele>863.6</ele><time>2026-04-18T10:41:59.998Z</time></trkpt><trkpt lat="44.5018388124454" lon="9.983317307808834"><ele>865.0</ele><time>2026-04-18T10:42:01.998Z</time></trkpt><trkpt lat="44.50185044679734" lon="9.983158682262724"><ele>865.0</ele><time>2026-04-18T10:42:03.998Z</time></trkpt><trkpt lat="44.501822350929864" lon="9.983012979992019"><ele>865.0</ele><time>2026-04-18T10:42:05.998Z</time></trkpt><trkpt lat="44.50178963946902" lon="9.982860344265855"><ele>865.0</ele><time>2026-04-18T10:42:08Z</time></trkpt><trkpt lat="44.501753271056664" lon="9.982709987371654"><ele>865.0</ele><time>2026-04-18T10:42:10Z</time></trkpt><trkpt lat="44.50171278382991" lon="9.98256792706653"><ele>865.0</ele><time>2026-04-18T10:42:12Z</time></trkpt><trkpt lat="44.501636144699916" lon="9.982455679822575"><ele>863.4</ele><time>2026-04-18T10:42:14Z</time></trkpt><trkpt lat="44.50155802181372" lon="9.982350721176898"><ele>861.8</ele><time>2026-04-18T10:42:16Z</time></trkpt><trkpt lat="44.501460123390366" lon="9.982284442205534"><ele>860.2</ele><time>2026-04-18T10:42:18Z</time></trkpt><trkpt lat="44.50136221946267" lon="9.982243716999006"><ele>858.6</ele><time>2026-04-18T10:42:20Z</time></trkpt><trkpt lat="44.50126152589343" lon="9.982206209685584"><ele>857.0</ele><time>2026-04-18T10:42:22Z</time></trkpt><trkpt lat="44.50114894851412" lon="9.982145575203461"><ele>861.75</ele><time>2026-04-18T10:42:24Z</time></trkpt><trkpt lat="44.50104670525762" lon="9.982080810315622"><ele>866.5</ele><time>2026-04-18T10:42:25.999Z</time></trkpt><trkpt lat="44.50094792316102" lon="9.982004546101424"><ele>871.25</ele><time>2026-04-18T10:42:27.999Z</time></trkpt><trkpt lat="44.50085077794974" lon="9.981914719875622"><ele>876.0</ele><time>2026-04-18T10:42:29.999Z</time></trkpt><trkpt lat="44.50076284251941" lon="9.981826345545079"><ele>876.0</ele><time>2026-04-18T10:42:31.999Z</time></trkpt><trkpt lat="44.50068896933921" lon="9.981735132734235"><ele>875.9999999999999</ele><time>2026-04-18T10:42:33.999Z</time></trkpt><trkpt lat="44.5006163163435" lon="9.981635767745823"><ele>875.9999999999999</ele><time>2026-04-18T10:42:35.999Z</time></trkpt><trkpt lat="44.50054300995982" lon="9.981547104712615"><ele>876.0</ele><time>2026-04-18T10:42:37.999Z</time></trkpt><trkpt lat="44.50046864946009" lon="9.981462630617637"><ele>876.0</ele><time>2026-04-18T10:42:39.999Z</time></trkpt><trkpt lat="44.500394982929656" lon="9.981351290291535"><ele>878.5</ele><time>2026-04-18T10:42:41.999Z</time></trkpt><trkpt lat="44.500327569656854" lon="9.981251955980351"><ele>881.0</ele><time>2026-04-18T10:42:43.999Z</time></trkpt><trkpt lat="44.500258146351754" lon="9.981133405093322"><ele>883.5</ele><time>2026-04-18T10:42:45.999Z</time></trkpt><trkpt lat="44.50018250115504" lon="9.98099761625916"><ele>886.0</ele><time>2026-04-18T10:42:47.999Z</time></trkpt><trkpt lat="44.500112976597535" lon="9.980855338080138"><ele>883.1666666666666</ele><time>2026-04-18T10:42:49.999Z</time></trkpt><trkpt lat="44.5000907366492" lon="9.980772344806027"><ele>880.3333333333333</ele><time>2026-04-18T10:42:50.999Z</time></trkpt><trkpt lat="44.500062209631196" lon="9.980609542205475"><ele>877.5</ele><time>2026-04-18T10:42:52.999Z</time></trkpt><trkpt lat="44.500058204801825" lon="9.980517755240284"><ele>874.6666666666667</ele><time>2026-04-18T10:42:53.999Z</time></trkpt><trkpt lat="44.5000601883888" lon="9.980335877143197"><ele>871.8333333333334</ele><time>2026-04-18T10:42:55.999Z</time></trkpt><trkpt lat="44.50008915977408" lon="9.980244950191782"><ele>869.0</ele><time>2026-04-18T10:42:56.999Z</time></trkpt><trkpt lat="44.500099744366636" lon="9.98007899923253"><ele>868.6</ele><time>2026-04-18T10:42:58.999Z</time></trkpt><trkpt lat="44.500107216712806" lon="9.979919791883948"><ele>868.2</ele><time>2026-04-18T10:43:00.999Z</time></trkpt><trkpt lat="44.50010067989368" lon="9.979766097131467"><ele>867.8000000000001</ele><time>2026-04-18T10:43:02.999Z</time></trkpt><trkpt lat="44.500077957718545" lon="9.979620418465405"><ele>867.4000000000001</ele><time>2026-04-18T10:43:04.999Z</time></trkpt><trkpt lat="44.500032727586856" lon="9.979476101742648"><ele>867.0</ele><time>2026-04-18T10:43:06.999Z</time></trkpt><trkpt lat="44.49998657465288" lon="9.97934468431051"><ele>867.0</ele><time>2026-04-18T10:43:08.999Z</time></trkpt><trkpt lat="44.499941538990335" lon="9.979199736563166"><ele>867.0</ele><time>2026-04-18T10:43:10.999Z</time></trkpt><trkpt lat="44.49988585734693" lon="9.979063410206003"><ele>867.0</ele><time>2026-04-18T10:43:12.999Z</time></trkpt><trkpt lat="44.49984687980467" lon="9.978922282667549"><ele>867.0</ele><time>2026-04-18T10:43:14.999Z</time></trkpt><trkpt lat="44.4998251368379" lon="9.978783537279334"><ele>867.0</ele><time>2026-04-18T10:43:17.998Z</time></trkpt><trkpt lat="44.4998077557881" lon="9.978649494744493"><ele>866.4000000000001</ele><time>2026-04-18T10:43:19.998Z</time></trkpt><trkpt lat="44.499764078333" lon="9.978542181267779"><ele>865.8000000000001</ele><time>2026-04-18T10:43:20.998Z</time></trkpt><trkpt lat="44.49975708745682" lon="9.978413155946203"><ele>865.2</ele><time>2026-04-18T10:43:22.998Z</time></trkpt><trkpt lat="44.49976067946855" lon="9.978257229902319"><ele>864.6</ele><time>2026-04-18T10:43:24.998Z</time></trkpt><trkpt lat="44.49977634698226" lon="9.978119993961915"><ele>864.0</ele><time>2026-04-18T10:43:26.998Z</time></trkpt><trkpt lat="44.49978167289418" lon="9.977977532213526"><ele>863.8000000000001</ele><time>2026-04-18T10:43:28.998Z</time></trkpt><trkpt lat="44.499787257617726" lon="9.977859466546086"><ele>863.6000000000001</ele><time>2026-04-18T10:43:30.998Z</time></trkpt><trkpt lat="44.49980636423114" lon="9.977723414280455"><ele>863.4</ele><time>2026-04-18T10:43:32.998Z</time></trkpt><trkpt lat="44.49980043317837" lon="9.977564191395931"><ele>863.2</ele><time>2026-04-18T10:43:34.998Z</time></trkpt><trkpt lat="44.499780427517614" lon="9.977409474901549"><ele>863.0</ele><time>2026-04-18T10:43:36.998Z</time></trkpt><trkpt lat="44.49975184197058" lon="9.977258357466118"><ele>862.25</ele><time>2026-04-18T10:43:38.998Z</time></trkpt><trkpt lat="44.49969254224403" lon="9.977110175789697"><ele>861.5</ele><time>2026-04-18T10:43:40.998Z</time></trkpt><trkpt lat="44.499649012820065" lon="9.976984092949053"><ele>860.75</ele><time>2026-04-18T10:43:42.998Z</time></trkpt><trkpt lat="44.499596610402314" lon="9.976836305415661"><ele>860.0</ele><time>2026-04-18T10:43:44.998Z</time></trkpt><trkpt lat="44.49955168993526" lon="9.976677136275699"><ele>868.2</ele><time>2026-04-18T10:43:46.998Z</time></trkpt><trkpt lat="44.49952476695003" lon="9.97659508821265"><ele>876.4</ele><time>2026-04-18T10:43:47.998Z</time></trkpt><trkpt lat="44.49947741748803" lon="9.97643878935221"><ele>884.5999999999999</ele><time>2026-04-18T10:43:49.998Z</time></trkpt><trkpt lat="44.49943466364459" lon="9.976284099843102"><ele>892.8</ele><time>2026-04-18T10:43:51.998Z</time></trkpt><trkpt lat="44.49939898808936" lon="9.976140660701537"><ele>901.0</ele><time>2026-04-18T10:43:53.998Z</time></trkpt><trkpt lat="44.4993976081482" lon="9.975984265418463"><ele>896.25</ele><time>2026-04-18T10:43:55.998Z</time></trkpt><trkpt lat="44.49938488585306" lon="9.975819033787351"><ele>891.5</ele><time>2026-04-18T10:43:57.998Z</time></trkpt><trkpt lat="44.49937087065259" lon="9.975651698487864"><ele>886.75</ele><time>2026-04-18T10:43:59.998Z</time></trkpt><trkpt lat="44.499345983538056" lon="9.97548182721907"><ele>882.0</ele><time>2026-04-18T10:44:01.998Z</time></trkpt><trkpt lat="44.49927489130188" lon="9.97534335799199"><ele>882.0</ele><time>2026-04-18T10:44:03.998Z</time></trkpt><trkpt lat="44.49921931092365" lon="9.9752939266733"><ele>882.0</ele><time>2026-04-18T10:44:04.998Z</time></trkpt><trkpt lat="44.499155352961104" lon="9.975269668435086"><ele>882.0</ele><time>2026-04-18T10:44:05.998Z</time></trkpt><trkpt lat="44.49908948723666" lon="9.975271220633449"><ele>882.0</ele><time>2026-04-18T10:44:06.998Z</time></trkpt><trkpt lat="44.499020438431344" lon="9.975268567110165"><ele>882.0</ele><time>2026-04-18T10:44:07.998Z</time></trkpt><trkpt lat="44.49895514718768" lon="9.97527128058114"><ele>882.0</ele><time>2026-04-18T10:44:08.998Z</time></trkpt><trkpt lat="44.49883000338428" lon="9.975264368058667"><ele>882.0</ele><time>2026-04-18T10:44:10.997Z</time></trkpt><trkpt lat="44.49876641551569" lon="9.975248187359481"><ele>882.0</ele><time>2026-04-18T10:44:11.997Z</time></trkpt><trkpt lat="44.498647207753514" lon="9.975203737851158"><ele>882.0</ele><time>2026-04-18T10:44:14Z</time></trkpt><trkpt lat="44.49852704841853" lon="9.975154396275082"><ele>882.0</ele><time>2026-04-18T10:44:16Z</time></trkpt><trkpt lat="44.49840400871255" lon="9.975108674286911"><ele>882.0</ele><time>2026-04-18T10:44:18Z</time></trkpt><trkpt lat="44.49828130620135" lon="9.97506515511438"><ele>880.1666666666666</ele><time>2026-04-18T10:44:20Z</time></trkpt><trkpt lat="44.498168437804225" lon="9.9749924869583"><ele>878.3333333333333</ele><time>2026-04-18T10:44:22Z</time></trkpt><trkpt lat="44.49810411907111" lon="9.974985210125025"><ele>876.5</ele><time>2026-04-18T10:44:23Z</time></trkpt><trkpt lat="44.498050746969405" lon="9.974935634346776"><ele>874.6666666666666</ele><time>2026-04-18T10:44:24Z</time></trkpt><trkpt lat="44.49799095183896" lon="9.974903549085095"><ele>872.8333333333333</ele><time>2026-04-18T10:44:25Z</time></trkpt><trkpt lat="44.49788045637039" lon="9.974820890606946"><ele>871.0</ele><time>2026-04-18T10:44:27Z</time></trkpt><trkpt lat="44.49779188514689" lon="9.974704656814225"><ele>875.0</ele><time>2026-04-18T10:44:29Z</time></trkpt><trkpt lat="44.49774927974831" lon="9.974636968569863"><ele>879.0</ele><time>2026-04-18T10:44:29.999Z</time></trkpt><trkpt lat="44.49770359488465" lon="9.974564355296934"><ele>883.0</ele><time>2026-04-18T10:44:30.999Z</time></trkpt><trkpt lat="44.497661028279595" lon="9.974495692076829"><ele>887.0</ele><time>2026-04-18T10:44:31.999Z</time></trkpt><trkpt lat="44.49761690006882" lon="9.974423135556998"><ele>891.0</ele><time>2026-04-18T10:44:32.999Z</time></trkpt><trkpt lat="44.49757293046925" lon="9.97435083958757"><ele>894.9999999999999</ele><time>2026-04-18T10:44:33.999Z</time></trkpt><trkpt lat="44.497522036874855" lon="9.974276380014164"><ele>898.9999999999999</ele><time>2026-04-18T10:44:34.999Z</time></trkpt><trkpt lat="44.49746710152074" lon="9.974205359857795"><ele>897.142857142857</ele><time>2026-04-18T10:44:35.999Z</time></trkpt><trkpt lat="44.497411714111024" lon="9.97414473517033"><ele>895.2857142857142</ele><time>2026-04-18T10:44:36.999Z</time></trkpt><trkpt lat="44.497347951044496" lon="9.974096507980523"><ele>893.4285714285713</ele><time>2026-04-18T10:44:37.999Z</time></trkpt><trkpt lat="44.49728238047797" lon="9.974057709825672"><ele>891.5714285714284</ele><time>2026-04-18T10:44:38.999Z</time></trkpt><trkpt lat="44.497210700208754" lon="9.974032355087537"><ele>889.7142857142858</ele><time>2026-04-18T10:44:39.999Z</time></trkpt><trkpt lat="44.49713854318298" lon="9.974022137710913"><ele>887.8571428571429</ele><time>2026-04-18T10:44:40.999Z</time></trkpt><trkpt lat="44.49706521274462" lon="9.974021574844144"><ele>886.0</ele><time>2026-04-18T10:44:41.999Z</time></trkpt><trkpt lat="44.49700217515806" lon="9.974015991304947"><ele>886.0</ele><time>2026-04-18T10:44:42.999Z</time></trkpt><trkpt lat="44.49693553513688" lon="9.974000598476218"><ele>886.0</ele><time>2026-04-18T10:44:43.999Z</time></trkpt><trkpt lat="44.496868529951186" lon="9.973970554427709"><ele>886.0</ele><time>2026-04-18T10:44:44.999Z</time></trkpt><trkpt lat="44.49680812173629" lon="9.973936536838771"><ele>886.0</ele><time>2026-04-18T10:44:45.999Z</time></trkpt><trkpt lat="44.49674637475989" lon="9.973897007532104"><ele>886.0</ele><time>2026-04-18T10:44:46.999Z</time></trkpt><trkpt lat="44.49668816524681" lon="9.97385490802345"><ele>886.0</ele><time>2026-04-18T10:44:47.999Z</time></trkpt><trkpt lat="44.49663026723678" lon="9.973812117958746"><ele>886.0</ele><time>2026-04-18T10:44:48.999Z</time></trkpt><trkpt lat="44.4965731162797" lon="9.973773570747301"><ele>886.0</ele><time>2026-04-18T10:44:49.999Z</time></trkpt><trkpt lat="44.496506417550876" lon="9.97373609578787"><ele>886.0</ele><time>2026-04-18T10:44:50.999Z</time></trkpt><trkpt lat="44.49643753339661" lon="9.973708341884508"><ele>886.0</ele><time>2026-04-18T10:44:51.999Z</time></trkpt><trkpt lat="44.49636835056891" lon="9.973688146424353"><ele>886.0</ele><time>2026-04-18T10:44:52.999Z</time></trkpt><trkpt lat="44.49629659080906" lon="9.973673188551077"><ele>886.0</ele><time>2026-04-18T10:44:53.999Z</time></trkpt><trkpt lat="44.49622830931695" lon="9.973659009326212"><ele>886.0</ele><time>2026-04-18T10:44:54.999Z</time></trkpt><trkpt lat="44.496163208482955" lon="9.973644872900515"><ele>886.0</ele><time>2026-04-18T10:44:55.999Z</time></trkpt><trkpt lat="44.49609961440312" lon="9.973629412690382"><ele>888.0</ele><time>2026-04-18T10:44:56.999Z</time></trkpt><trkpt lat="44.49603221344912" lon="9.973612032177154"><ele>890.0</ele><time>2026-04-18T10:44:57.999Z</time></trkpt><trkpt lat="44.49596761597466" lon="9.973592827894988"><ele>892.0</ele><time>2026-04-18T10:44:58.999Z</time></trkpt><trkpt lat="44.49589830701914" lon="9.973571904447256"><ele>894.0</ele><time>2026-04-18T10:44:59.999Z</time></trkpt><trkpt lat="44.495827714429396" lon="9.973549430477767"><ele>896.0</ele><time>2026-04-18T10:45:00.999Z</time></trkpt><trkpt lat="44.49575795290945" lon="9.973527025056885"><ele>898.0000000000001</ele><time>2026-04-18T10:45:01.999Z</time></trkpt><trkpt lat="44.49568469597174" lon="9.973503497080067"><ele>900.0000000000001</ele><time>2026-04-18T10:45:02.999Z</time></trkpt><trkpt lat="44.495612879475004" lon="9.97347979418654"><ele>900.0000000000001</ele><time>2026-04-18T10:45:03.999Z</time></trkpt><trkpt lat="44.49554431718761" lon="9.9734542571144"><ele>900.0</ele><time>2026-04-18T10:45:04.999Z</time></trkpt><trkpt lat="44.495476621847686" lon="9.973424701351881"><ele>900.0000000000001</ele><time>2026-04-18T10:45:05.999Z</time></trkpt><trkpt lat="44.49541422924369" lon="9.973389642022326"><ele>900.0000000000001</ele><time>2026-04-18T10:45:06.999Z</time></trkpt><trkpt lat="44.49535264478564" lon="9.973350240384857"><ele>900.0</ele><time>2026-04-18T10:45:07.999Z</time></trkpt><trkpt lat="44.49528547548979" lon="9.97330664380835"><ele>900.0000000000001</ele><time>2026-04-18T10:45:08.999Z</time></trkpt><trkpt lat="44.49522278458563" lon="9.973265954212192"><ele>900.0000000000001</ele><time>2026-04-18T10:45:09.999Z</time></trkpt><trkpt lat="44.4951589897939" lon="9.97322367736661"><ele>897.857142857143</ele><time>2026-04-18T10:45:10.999Z</time></trkpt><trkpt lat="44.4950950034425" lon="9.97318127353988"><ele>895.7142857142858</ele><time>2026-04-18T10:45:11.999Z</time></trkpt><trkpt lat="44.495029961449916" lon="9.973138170207893"><ele>893.5714285714287</ele><time>2026-04-18T10:45:12.999Z</time></trkpt><trkpt lat="44.49496132264087" lon="9.973092683161697"><ele>891.4285714285716</ele><time>2026-04-18T10:45:13.999Z</time></trkpt><trkpt lat="44.4948987679156" lon="9.973051228179886"><ele>889.2857142857142</ele><time>2026-04-18T10:45:14.999Z</time></trkpt><trkpt lat="44.494833649999876" lon="9.973008071236054"><ele>887.1428571428571</ele><time>2026-04-18T10:45:15.999Z</time></trkpt><trkpt lat="44.494767256660715" lon="9.972963990102231"><ele>885.0</ele><time>2026-04-18T10:45:16.999Z</time></trkpt><trkpt lat="44.49470214536225" lon="9.97292076022281"><ele>885.0</ele><time>2026-04-18T10:45:17.999Z</time></trkpt><trkpt lat="44.49463619357414" lon="9.972876972215017"><ele>885.0</ele><time>2026-04-18T10:45:18.999Z</time></trkpt><trkpt lat="44.49457135778499" lon="9.972833925043146"><ele>885.0</ele><time>2026-04-18T10:45:19.999Z</time></trkpt><trkpt lat="44.49450662007087" lon="9.9727909432359"><ele>885.0</ele><time>2026-04-18T10:45:20.999Z</time></trkpt><trkpt lat="44.49444187197158" lon="9.972747954379376"><ele>885.0</ele><time>2026-04-18T10:45:21.998Z</time></trkpt><trkpt lat="44.494378929806395" lon="9.972706164670827"><ele>885.0</ele><time>2026-04-18T10:45:22.998Z</time></trkpt><trkpt lat="44.49431962271675" lon="9.972665067040039"><ele>885.0</ele><time>2026-04-18T10:45:23.998Z</time></trkpt><trkpt lat="44.49425476992472" lon="9.972617543695257"><ele>884.3333333333334</ele><time>2026-04-18T10:45:24.998Z</time></trkpt><trkpt lat="44.4941925859424" lon="9.972570291914945"><ele>883.6666666666667</ele><time>2026-04-18T10:45:25.998Z</time></trkpt><trkpt lat="44.494139681966224" lon="9.972516756052528"><ele>883.0</ele><time>2026-04-18T10:45:26.998Z</time></trkpt><trkpt lat="44.494070496994986" lon="9.972382102131654"><ele>882.3333333333334</ele><time>2026-04-18T10:45:28.998Z</time></trkpt><trkpt lat="44.494042833397245" lon="9.972300479773136"><ele>881.6666666666667</ele><time>2026-04-18T10:45:29.998Z</time></trkpt><trkpt lat="44.49402112323061" lon="9.972213791267107"><ele>881.0</ele><time>2026-04-18T10:45:30.998Z</time></trkpt><trkpt lat="44.494004342514785" lon="9.972124853932996"><ele>881.0</ele><time>2026-04-18T10:45:31.998Z</time></trkpt><trkpt lat="44.49399246742325" lon="9.97203144986169"><ele>881.0</ele><time>2026-04-18T10:45:32.998Z</time></trkpt><trkpt lat="44.49397530259081" lon="9.971939153971531"><ele>881.0</ele><time>2026-04-18T10:45:33.998Z</time></trkpt><trkpt lat="44.493986142734826" lon="9.971844071492884"><ele>881.0</ele><time>2026-04-18T10:45:34.998Z</time></trkpt><trkpt lat="44.494013978109244" lon="9.971756115328041"><ele>881.0</ele><time>2026-04-18T10:45:35.998Z</time></trkpt><trkpt lat="44.49405342263353" lon="9.971673567617485"><ele>881.0</ele><time>2026-04-18T10:45:36.999Z</time></trkpt><trkpt lat="44.4941022238477" lon="9.971591858125079"><ele>881.0</ele><time>2026-04-18T10:45:37.999Z</time></trkpt><trkpt lat="44.4941354393565" lon="9.971506717177496"><ele>879.6666666666667</ele><time>2026-04-18T10:45:38.999Z</time></trkpt><trkpt lat="44.49415443718686" lon="9.971413748192715"><ele>878.3333333333334</ele><time>2026-04-18T10:45:39.999Z</time></trkpt><trkpt lat="44.49417601385327" lon="9.971314590278242"><ele>877.0</ele><time>2026-04-18T10:45:40.999Z</time></trkpt><trkpt lat="44.49417275813236" lon="9.971207603065437"><ele>875.6666666666667</ele><time>2026-04-18T10:45:41.999Z</time></trkpt><trkpt lat="44.49414411911242" lon="9.971100328106552"><ele>874.3333333333334</ele><time>2026-04-18T10:45:42.999Z</time></trkpt><trkpt lat="44.49410648614895" lon="9.971010354389064"><ele>873.0</ele><time>2026-04-18T10:45:43.999Z</time></trkpt><trkpt lat="44.49404280238763" lon="9.970932675782413"><ele>872.9999999999999</ele><time>2026-04-18T10:45:44.999Z</time></trkpt><trkpt lat="44.493978259376334" lon="9.970875692321117"><ele>873.0</ele><time>2026-04-18T10:45:45.999Z</time></trkpt><trkpt lat="44.49391172219586" lon="9.970825678743132"><ele>873.0</ele><time>2026-04-18T10:45:46.999Z</time></trkpt><trkpt lat="44.49384816787794" lon="9.970773461233234"><ele>873.0</ele><time>2026-04-18T10:45:47.999Z</time></trkpt><trkpt lat="44.49378378688746" lon="9.970720564280702"><ele>873.0</ele><time>2026-04-18T10:45:48.999Z</time></trkpt><trkpt lat="44.4937203980307" lon="9.970668481075831"><ele>872.9999999999999</ele><time>2026-04-18T10:45:49.999Z</time></trkpt><trkpt lat="44.493661905975245" lon="9.970614460206384"><ele>873.0</ele><time>2026-04-18T10:45:50.999Z</time></trkpt><trkpt lat="44.493601670282494" lon="9.970559828274185"><ele>872.3333333333334</ele><time>2026-04-18T10:45:51.999Z</time></trkpt><trkpt lat="44.4934909979496" lon="9.970449044594584"><ele>871.6666666666667</ele><time>2026-04-18T10:45:53.999Z</time></trkpt><trkpt lat="44.49344179385937" lon="9.970377126018361"><ele>871.0</ele><time>2026-04-18T10:45:54.999Z</time></trkpt><trkpt lat="44.4934078902998" lon="9.970301036091126"><ele>870.3333333333334</ele><time>2026-04-18T10:45:55.999Z</time></trkpt><trkpt lat="44.4933767645144" lon="9.970210431313584"><ele>869.6666666666667</ele><time>2026-04-18T10:45:56.999Z</time></trkpt><trkpt lat="44.4933464896229" lon="9.97011017311501"><ele>869.0</ele><time>2026-04-18T10:45:57.999Z</time></trkpt><trkpt lat="44.49331823862661" lon="9.970014999727194"><ele>869.0000000000001</ele><time>2026-04-18T10:45:58.999Z</time></trkpt><trkpt lat="44.49328886688521" lon="9.96991540347255"><ele>869.0</ele><time>2026-04-18T10:45:59.999Z</time></trkpt><trkpt lat="44.493259018847944" lon="9.969814191953404"><ele>869.0</ele><time>2026-04-18T10:46:00.999Z</time></trkpt><trkpt lat="44.49323032029425" lon="9.9697168783727"><ele>869.0</ele><time>2026-04-18T10:46:01.999Z</time></trkpt><trkpt lat="44.49319943805162" lon="9.969612160108586"><ele>869.0000000000001</ele><time>2026-04-18T10:46:02.999Z</time></trkpt><trkpt lat="44.49317120571614" lon="9.96951642741698"><ele>869.0</ele><time>2026-04-18T10:46:03.999Z</time></trkpt><trkpt lat="44.49314181290817" lon="9.96941675958953"><ele>869.0000000000001</ele><time>2026-04-18T10:46:04.999Z</time></trkpt><trkpt lat="44.4931123414915" lon="9.96931682521315"><ele>869.0</ele><time>2026-04-18T10:46:05.999Z</time></trkpt><trkpt lat="44.49308303535096" lon="9.969217451326985"><ele>869.0</ele><time>2026-04-18T10:46:06.999Z</time></trkpt><trkpt lat="44.493052554440595" lon="9.969114092938524"><ele>869.0</ele><time>2026-04-18T10:46:07.999Z</time></trkpt><trkpt lat="44.49302284463663" lon="9.96901443893246"><ele>869.0000000000001</ele><time>2026-04-18T10:46:08.999Z</time></trkpt><trkpt lat="44.49299294801502" lon="9.968913913272624"><ele>869.0</ele><time>2026-04-18T10:46:09.999Z</time></trkpt><trkpt lat="44.492963437449966" lon="9.968814685668894"><ele>869.1666666666667</ele><time>2026-04-18T10:46:10.999Z</time></trkpt><trkpt lat="44.49293253113093" lon="9.968710764840923"><ele>869.3333333333334</ele><time>2026-04-18T10:46:11.999Z</time></trkpt><trkpt lat="44.4929020803723" lon="9.968608375943255"><ele>869.5</ele><time>2026-04-18T10:46:12.999Z</time></trkpt><trkpt lat="44.49287236390195" lon="9.968508455995169"><ele>869.6666666666667</ele><time>2026-04-18T10:46:13.999Z</time></trkpt><trkpt lat="44.492843580692835" lon="9.968411674121272"><ele>869.8333333333334</ele><time>2026-04-18T10:46:14.998Z</time></trkpt><trkpt lat="44.49281514371045" lon="9.968313125137295"><ele>870.0</ele><time>2026-04-18T10:46:15.998Z</time></trkpt><trkpt lat="44.49278726994459" lon="9.96821612866037"><ele>870.0000000000001</ele><time>2026-04-18T10:46:16.998Z</time></trkpt><trkpt lat="44.49275946992643" lon="9.968119221973152"><ele>870.0</ele><time>2026-04-18T10:46:18.001Z</time></trkpt><trkpt lat="44.49273211646586" lon="9.968020567158888"><ele>870.0</ele><time>2026-04-18T10:46:19.001Z</time></trkpt><trkpt lat="44.49270584130316" lon="9.967921503229931"><ele>870.0</ele><time>2026-04-18T10:46:20.001Z</time></trkpt><trkpt lat="44.49268144401119" lon="9.967820801274565"><ele>870.0</ele><time>2026-04-18T10:46:21.001Z</time></trkpt><trkpt lat="44.492661340011395" lon="9.9677216041456"><ele>870.0000000000001</ele><time>2026-04-18T10:46:22.001Z</time></trkpt><trkpt lat="44.492645667245924" lon="9.967621332784011"><ele>870.0</ele><time>2026-04-18T10:46:23.001Z</time></trkpt><trkpt lat="44.49263816302301" lon="9.967521331734757"><ele>869.7142857142858</ele><time>2026-04-18T10:46:24.001Z</time></trkpt><trkpt lat="44.492632855519126" lon="9.96741827070186"><ele>869.4285714285714</ele><time>2026-04-18T10:46:25.001Z</time></trkpt><trkpt lat="44.492629981428905" lon="9.967313336998227"><ele>869.1428571428571</ele><time>2026-04-18T10:46:26.001Z</time></trkpt><trkpt lat="44.49262679208559" lon="9.967209503499333"><ele>868.8571428571429</ele><time>2026-04-18T10:46:27.001Z</time></trkpt><trkpt lat="44.49262364358991" lon="9.967106999289177"><ele>868.5714285714286</ele><time>2026-04-18T10:46:28.001Z</time></trkpt><trkpt lat="44.49261918964069" lon="9.9670039479568"><ele>868.2857142857143</ele><time>2026-04-18T10:46:29.001Z</time></trkpt><trkpt lat="44.49260555528971" lon="9.966900217578218"><ele>868.0</ele><time>2026-04-18T10:46:30.001Z</time></trkpt><trkpt lat="44.49259097698261" lon="9.966801637307794"><ele>867.9999999999999</ele><time>2026-04-18T10:46:31.001Z</time></trkpt><trkpt lat="44.49252050072004" lon="9.966705288123025"><ele>868.0</ele><time>2026-04-18T10:46:32.001Z</time></trkpt><trkpt lat="44.49246546960201" lon="9.96663169028646"><ele>868.0</ele><time>2026-04-18T10:46:33Z</time></trkpt><trkpt lat="44.4923994440153" lon="9.966576852751555"><ele>868.0</ele><time>2026-04-18T10:46:34Z</time></trkpt><trkpt lat="44.49232151276276" lon="9.966551481511026"><ele>867.9999999999999</ele><time>2026-04-18T10:46:35Z</time></trkpt><trkpt lat="44.49225932511561" lon="9.96651008759946"><ele>868.0</ele><time>2026-04-18T10:46:36Z</time></trkpt><trkpt lat="44.49219304886048" lon="9.96647386203276"><ele>867.5714285714286</ele><time>2026-04-18T10:46:37Z</time></trkpt><trkpt lat="44.49213003514114" lon="9.966433897733854"><ele>867.1428571428571</ele><time>2026-04-18T10:46:38Z</time></trkpt><trkpt lat="44.492062404114485" lon="9.966395565922026"><ele>866.7142857142858</ele><time>2026-04-18T10:46:39Z</time></trkpt><trkpt lat="44.49199812854848" lon="9.966360580853367"><ele>866.2857142857142</ele><time>2026-04-18T10:46:40Z</time></trkpt><trkpt lat="44.49193438775571" lon="9.966320025320307"><ele>865.8571428571429</ele><time>2026-04-18T10:46:41Z</time></trkpt><trkpt lat="44.491867858682234" lon="9.966285109360923"><ele>865.4285714285714</ele><time>2026-04-18T10:46:42Z</time></trkpt><trkpt lat="44.49180339402955" lon="9.966245487482535"><ele>865.0</ele><time>2026-04-18T10:46:43Z</time></trkpt><trkpt lat="44.49174076589302" lon="9.966212208203837"><ele>866.0</ele><time>2026-04-18T10:46:44Z</time></trkpt><trkpt lat="44.49167705467335" lon="9.96617635216605"><ele>867.0</ele><time>2026-04-18T10:46:45Z</time></trkpt><trkpt lat="44.49161956703001" lon="9.966137064480035"><ele>868.0</ele><time>2026-04-18T10:46:46Z</time></trkpt><trkpt lat="44.491556962854936" lon="9.966106059170608"><ele>869.0</ele><time>2026-04-18T10:46:47Z</time></trkpt><trkpt lat="44.49149242433427" lon="9.966064600015033"><ele>870.0</ele><time>2026-04-18T10:46:48Z</time></trkpt><trkpt lat="44.49142821330464" lon="9.966030520791612"><ele>871.0</ele><time>2026-04-18T10:46:49Z</time></trkpt><trkpt lat="44.49136408080685" lon="9.965999192923048"><ele>872.0</ele><time>2026-04-18T10:46:50Z</time></trkpt><trkpt lat="44.491297411236616" lon="9.965968652985335"><ele>871.5714285714286</ele><time>2026-04-18T10:46:51Z</time></trkpt><trkpt lat="44.49123141559375" lon="9.965935210485695"><ele>871.1428571428571</ele><time>2026-04-18T10:46:52Z</time></trkpt><trkpt lat="44.49115815919604" lon="9.96590464593642"><ele>870.7142857142858</ele><time>2026-04-18T10:46:53Z</time></trkpt><trkpt lat="44.49108559827076" lon="9.96587781541553"><ele>870.2857142857142</ele><time>2026-04-18T10:46:54Z</time></trkpt><trkpt lat="44.491013601034794" lon="9.96585686370635"><ele>869.8571428571428</ele><time>2026-04-18T10:46:55Z</time></trkpt><trkpt lat="44.49093947145339" lon="9.96584340331823"><ele>869.4285714285714</ele><time>2026-04-18T10:46:56Z</time></trkpt><trkpt lat="44.4908649198691" lon="9.965832216548788"><ele>869.0</ele><time>2026-04-18T10:46:57Z</time></trkpt><trkpt lat="44.49079066909805" lon="9.965820272675801"><ele>869.0</ele><time>2026-04-18T10:46:58Z</time></trkpt><trkpt lat="44.49071883540659" lon="9.96582074846386"><ele>869.0</ele><time>2026-04-18T10:46:59Z</time></trkpt><trkpt lat="44.490648049206655" lon="9.965825699485455"><ele>869.0</ele><time>2026-04-18T10:47:00Z</time></trkpt><trkpt lat="44.49057262604594" lon="9.96583276539399"><ele>869.0</ele><time>2026-04-18T10:47:01Z</time></trkpt><trkpt lat="44.49049705691159" lon="9.96583688643971"><ele>869.0</ele><time>2026-04-18T10:47:02Z</time></trkpt><trkpt lat="44.4904227934176" lon="9.965844049087055"><ele>869.0</ele><time>2026-04-18T10:47:03Z</time></trkpt><trkpt lat="44.49034974343968" lon="9.9658513296893"><ele>869.0</ele><time>2026-04-18T10:47:04Z</time></trkpt><trkpt lat="44.4902769896505" lon="9.965861609475398"><ele>870.3333333333334</ele><time>2026-04-18T10:47:05Z</time></trkpt><trkpt lat="44.49020317791667" lon="9.965880894218143"><ele>871.6666666666667</ele><time>2026-04-18T10:47:06Z</time></trkpt><trkpt lat="44.49013341654836" lon="9.96592199461166"><ele>873.0</ele><time>2026-04-18T10:47:07Z</time></trkpt><trkpt lat="44.49006294976879" lon="9.965967807172104"><ele>874.3333333333333</ele><time>2026-04-18T10:47:08Z</time></trkpt><trkpt lat="44.490000452218055" lon="9.96602774360311"><ele>875.6666666666666</ele><time>2026-04-18T10:47:09Z</time></trkpt><trkpt lat="44.48993874437297" lon="9.966087640688627"><ele>877.0</ele><time>2026-04-18T10:47:10Z</time></trkpt><trkpt lat="44.48988119246617" lon="9.96615466770664"><ele>876.9999999999999</ele><time>2026-04-18T10:47:11Z</time></trkpt><trkpt lat="44.48982547738271" lon="9.966227470812843"><ele>877.0</ele><time>2026-04-18T10:47:12Z</time></trkpt><trkpt lat="44.489770410584235" lon="9.966305627921972"><ele>877.0</ele><time>2026-04-18T10:47:13Z</time></trkpt><trkpt lat="44.48971308924786" lon="9.966377686008736"><ele>877.0</ele><time>2026-04-18T10:47:14Z</time></trkpt><trkpt lat="44.48965397670834" lon="9.966450852027805"><ele>876.9999999999999</ele><time>2026-04-18T10:47:15Z</time></trkpt><trkpt lat="44.48959481683111" lon="9.96652000907996"><ele>877.0</ele><time>2026-04-18T10:47:16Z</time></trkpt><trkpt lat="44.489533706582236" lon="9.96659069941472"><ele>877.0000000000001</ele><time>2026-04-18T10:47:17Z</time></trkpt><trkpt lat="44.48947114901396" lon="9.96665933992485"><ele>877.0</ele><time>2026-04-18T10:47:18Z</time></trkpt><trkpt lat="44.48940423276461" lon="9.966713400738858"><ele>877.0</ele><time>2026-04-18T10:47:19Z</time></trkpt><trkpt lat="44.4893383335492" lon="9.966770574472665"><ele>877.0</ele><time>2026-04-18T10:47:20Z</time></trkpt><trkpt lat="44.489269391678924" lon="9.966758699615111"><ele>877.0</ele><time>2026-04-18T10:47:21Z</time></trkpt><trkpt lat="44.489203381601484" lon="9.96671932119746"><ele>877.0000000000001</ele><time>2026-04-18T10:47:22Z</time></trkpt><trkpt lat="44.48915348788372" lon="9.966658096980513"><ele>877.0</ele><time>2026-04-18T10:47:23Z</time></trkpt><trkpt lat="44.48908541672495" lon="9.96659115077552"><ele>877.0000000000001</ele><time>2026-04-18T10:47:24Z</time></trkpt><trkpt lat="44.48905047620186" lon="9.966504985815634"><ele>877.0</ele><time>2026-04-18T10:47:24.999Z</time></trkpt><trkpt lat="44.4889871576332" lon="9.966437428468733"><ele>877.0</ele><time>2026-04-18T10:47:25.999Z</time></trkpt><trkpt lat="44.48894728197447" lon="9.966351999044482"><ele>877.0</ele><time>2026-04-18T10:47:26.999Z</time></trkpt><trkpt lat="44.488898864686284" lon="9.96627789064466"><ele>877.0</ele><time>2026-04-18T10:47:27.999Z</time></trkpt><trkpt lat="44.488852047333886" lon="9.966197777060195"><ele>877.0000000000001</ele><time>2026-04-18T10:47:28.999Z</time></trkpt><trkpt lat="44.48879784467316" lon="9.966131267690173"><ele>877.0</ele><time>2026-04-18T10:47:29.999Z</time></trkpt><trkpt lat="44.48872416321421" lon="9.966081163555332"><ele>876.9999999999999</ele><time>2026-04-18T10:47:30.999Z</time></trkpt><trkpt lat="44.48865138779196" lon="9.966048300474064"><ele>877.0</ele><time>2026-04-18T10:47:31.999Z</time></trkpt><trkpt lat="44.488572263264004" lon="9.966026811826382"><ele>877.0</ele><time>2026-04-18T10:47:32.999Z</time></trkpt><trkpt lat="44.48849577184486" lon="9.966033079442914"><ele>877.0</ele><time>2026-04-18T10:47:33.999Z</time></trkpt><trkpt lat="44.48842104884392" lon="9.966051719541255"><ele>876.9999999999999</ele><time>2026-04-18T10:47:34.999Z</time></trkpt><trkpt lat="44.48835098739037" lon="9.966084447975241"><ele>877.0</ele><time>2026-04-18T10:47:35.999Z</time></trkpt><trkpt lat="44.48828046284496" lon="9.966119651552342"><ele>877.0000000000001</ele><time>2026-04-18T10:47:36.999Z</time></trkpt><trkpt lat="44.48821342170904" lon="9.96615901985747"><ele>877.0</ele><time>2026-04-18T10:47:37.999Z</time></trkpt><trkpt lat="44.48814422655457" lon="9.966190485340807"><ele>877.0</ele><time>2026-04-18T10:47:38.999Z</time></trkpt><trkpt lat="44.48807239695423" lon="9.966215285019224"><ele>877.0</ele><time>2026-04-18T10:47:39.999Z</time></trkpt><trkpt lat="44.48800006952886" lon="9.966218437343704"><ele>877.0</ele><time>2026-04-18T10:47:40.999Z</time></trkpt><trkpt lat="44.48793017187998" lon="9.966192931066292"><ele>877.0000000000001</ele><time>2026-04-18T10:47:41.999Z</time></trkpt><trkpt lat="44.48786721521962" lon="9.966150989833114"><ele>877.0</ele><time>2026-04-18T10:47:42.999Z</time></trkpt><trkpt lat="44.48781073456011" lon="9.966087202385477"><ele>877.0000000000001</ele><time>2026-04-18T10:47:43.999Z</time></trkpt><trkpt lat="44.48776811145207" lon="9.966006132133742"><ele>877.0</ele><time>2026-04-18T10:47:44.999Z</time></trkpt><trkpt lat="44.48773026660722" lon="9.965911232440586"><ele>877.0</ele><time>2026-04-18T10:47:45.999Z</time></trkpt><trkpt lat="44.487694979605024" lon="9.965825257740798"><ele>877.0</ele><time>2026-04-18T10:47:46.999Z</time></trkpt><trkpt lat="44.48765159207153" lon="9.965745751054934"><ele>877.0</ele><time>2026-04-18T10:47:47.999Z</time></trkpt><trkpt lat="44.48761336105366" lon="9.965660283622377"><ele>877.0000000000001</ele><time>2026-04-18T10:47:48.999Z</time></trkpt><trkpt lat="44.487566537805066" lon="9.96558129175886"><ele>877.0</ele><time>2026-04-18T10:47:49.999Z</time></trkpt><trkpt lat="44.48752350267164" lon="9.965503797433396"><ele>876.0000000000001</ele><time>2026-04-18T10:47:50.999Z</time></trkpt><trkpt lat="44.48749472312465" lon="9.965411071027862"><ele>875.0</ele><time>2026-04-18T10:47:51.999Z</time></trkpt><trkpt lat="44.48745418694872" lon="9.965333119436638"><ele>874.0</ele><time>2026-04-18T10:47:52.999Z</time></trkpt><trkpt lat="44.487415388724706" lon="9.965258510021775"><ele>873.0</ele><time>2026-04-18T10:47:53.999Z</time></trkpt><trkpt lat="44.48737804431267" lon="9.965184166977041"><ele>872.0</ele><time>2026-04-18T10:47:54.999Z</time></trkpt><trkpt lat="44.48734264544148" lon="9.96510806341035"><ele>871.0000000000001</ele><time>2026-04-18T10:47:55.999Z</time></trkpt><trkpt lat="44.48730878700952" lon="9.965031985258543"><ele>870.0</ele><time>2026-04-18T10:47:56.999Z</time></trkpt><trkpt lat="44.48726932272323" lon="9.964957089805518"><ele>869.3333333333334</ele><time>2026-04-18T10:47:57.999Z</time></trkpt><trkpt lat="44.48722374020279" lon="9.964890925766507"><ele>868.6666666666667</ele><time>2026-04-18T10:47:58.999Z</time></trkpt><trkpt lat="44.487138686985034" lon="9.96480611954485"><ele>868.0</ele><time>2026-04-18T10:48:00.999Z</time></trkpt><trkpt lat="44.487083048302864" lon="9.964758645648995"><ele>867.3333333333334</ele><time>2026-04-18T10:48:01.999Z</time></trkpt><trkpt lat="44.48698106687161" lon="9.96468293577768"><ele>866.6666666666667</ele><time>2026-04-18T10:48:03.999Z</time></trkpt><trkpt lat="44.48689955401067" lon="9.964628066297704"><ele>866.0</ele><time>2026-04-18T10:48:05.999Z</time></trkpt><trkpt lat="44.48682571216576" lon="9.964598856536977"><ele>868.0000000000001</ele><time>2026-04-18T10:48:07.999Z</time></trkpt><trkpt lat="44.486750118154355" lon="9.96459052855724"><ele>870.0</ele><time>2026-04-18T10:48:09.999Z</time></trkpt><trkpt lat="44.48667779578096" lon="9.964601960035539"><ele>872.0</ele><time>2026-04-18T10:48:11.999Z</time></trkpt><trkpt lat="44.48659991302756" lon="9.964637193089246"><ele>874.0</ele><time>2026-04-18T10:48:13.999Z</time></trkpt><trkpt lat="44.486516681375065" lon="9.964649729629691"><ele>876.0000000000001</ele><time>2026-04-18T10:48:15.999Z</time></trkpt><trkpt lat="44.48642793171008" lon="9.964681264828783"><ele>878.0</ele><time>2026-04-18T10:48:17.998Z</time></trkpt><trkpt lat="44.48636662775393" lon="9.964702142782734"><ele>878.0</ele><time>2026-04-18T10:48:19.998Z</time></trkpt><trkpt lat="44.486300147710054" lon="9.964751571481832"><ele>878.0</ele><time>2026-04-18T10:48:22.998Z</time></trkpt><trkpt lat="44.486219032277575" lon="9.964766450002708"><ele>878.0</ele><time>2026-04-18T10:48:26Z</time></trkpt><trkpt lat="44.48615147572198" lon="9.964798894497706"><ele>878.0</ele><time>2026-04-18T10:48:29Z</time></trkpt><trkpt lat="44.48608321960863" lon="9.964832132757888"><ele>878.0</ele><time>2026-04-18T10:48:32Z</time></trkpt><trkpt lat="44.48602198576441" lon="9.964858713272662"><ele>878.0</ele><time>2026-04-18T10:48:35Z</time></trkpt><trkpt lat="44.485939784055105" lon="9.964859083314582"><ele>878.0</ele><time>2026-04-18T10:48:38Z</time></trkpt><trkpt lat="44.48586910834901" lon="9.964862384376946"><ele>880.1666666666667</ele><time>2026-04-18T10:48:41Z</time></trkpt><trkpt lat="44.485801994142875" lon="9.964852888364122"><ele>882.3333333333334</ele><time>2026-04-18T10:48:45Z</time></trkpt><trkpt lat="44.48575737986083" lon="9.964784158236162"><ele>884.5</ele><time>2026-04-18T10:48:48Z</time></trkpt><trkpt lat="44.48570628141604" lon="9.964685268648472"><ele>886.6666666666667</ele><time>2026-04-18T10:48:51Z</time></trkpt><trkpt lat="44.48569382174446" lon="9.964592621342447"><ele>888.8333333333334</ele><time>2026-04-18T10:48:54Z</time></trkpt><trkpt lat="44.48567589336428" lon="9.964472441619897"><ele>891.0</ele><time>2026-04-18T10:48:57Z</time></trkpt><trkpt lat="44.485660196191105" lon="9.96435877093945"><ele>891.0000000000001</ele><time>2026-04-18T10:48:59Z</time></trkpt><trkpt lat="44.48566564866166" lon="9.964249354334024"><ele>891.0</ele><time>2026-04-18T10:49:02Z</time></trkpt><trkpt lat="44.485679496960444" lon="9.964140531441736"><ele>891.0</ele><time>2026-04-18T10:49:04Z</time></trkpt><trkpt lat="44.48569083842291" lon="9.964050033836212"><ele>891.0</ele><time>2026-04-18T10:49:06Z</time></trkpt><trkpt lat="44.485709009046964" lon="9.963964289190907"><ele>891.0</ele><time>2026-04-18T10:49:08Z</time></trkpt><trkpt lat="44.48574426025386" lon="9.963876568544865"><ele>891.0000000000001</ele><time>2026-04-18T10:49:10Z</time></trkpt><trkpt lat="44.48577107832302" lon="9.963794813000922"><ele>891.0</ele><time>2026-04-18T10:49:12Z</time></trkpt><trkpt lat="44.48582216160732" lon="9.96369715909322"><ele>891.0</ele><time>2026-04-18T10:49:14Z</time></trkpt><trkpt lat="44.485865915834246" lon="9.963589790338736"><ele>890.9999999999999</ele><time>2026-04-18T10:49:16Z</time></trkpt><trkpt lat="44.48591945915934" lon="9.963467578472477"><ele>890.9999999999999</ele><time>2026-04-18T10:49:18Z</time></trkpt><trkpt lat="44.48597384513079" lon="9.963337200772289"><ele>891.0</ele><time>2026-04-18T10:49:20Z</time></trkpt><trkpt lat="44.486029307490256" lon="9.963196424380525"><ele>891.0</ele><time>2026-04-18T10:49:22Z</time></trkpt><trkpt lat="44.4860629097579" lon="9.963045145846806"><ele>891.0</ele><time>2026-04-18T10:49:24Z</time></trkpt><trkpt lat="44.48606982931988" lon="9.962897389557932"><ele>890.9999999999999</ele><time>2026-04-18T10:49:26Z</time></trkpt><trkpt lat="44.486065661370986" lon="9.962737430718446"><ele>890.9999999999999</ele><time>2026-04-18T10:49:28Z</time></trkpt><trkpt lat="44.486055884394915" lon="9.962580600051957"><ele>891.0</ele><time>2026-04-18T10:49:29.999Z</time></trkpt><trkpt lat="44.4860347175901" lon="9.96242543952686"><ele>891.0</ele><time>2026-04-18T10:49:31.999Z</time></trkpt><trkpt lat="44.486005329105225" lon="9.9622654104888"><ele>891.1999999999999</ele><time>2026-04-18T10:49:33.999Z</time></trkpt><trkpt lat="44.48598583924886" lon="9.962108120789425"><ele>891.3999999999999</ele><time>2026-04-18T10:49:35.999Z</time></trkpt><trkpt lat="44.485949612428904" lon="9.961947847221602"><ele>891.6</ele><time>2026-04-18T10:49:37.999Z</time></trkpt><trkpt lat="44.48592455703802" lon="9.961808381652773"><ele>891.8</ele><time>2026-04-18T10:49:39.999Z</time></trkpt><trkpt lat="44.48591034091588" lon="9.96166326749366"><ele>892.0</ele><time>2026-04-18T10:49:41.999Z</time></trkpt><trkpt lat="44.48588425401091" lon="9.961524171357423"><ele>892.0</ele><time>2026-04-18T10:49:43.999Z</time></trkpt><trkpt lat="44.485858786892585" lon="9.961386030175829"><ele>892.0</ele><time>2026-04-18T10:49:45.999Z</time></trkpt><trkpt lat="44.48583725619566" lon="9.961250431474939"><ele>892.0</ele><time>2026-04-18T10:49:47.999Z</time></trkpt><trkpt lat="44.48581309230973" lon="9.961117923390445"><ele>892.0</ele><time>2026-04-18T10:49:49.999Z</time></trkpt><trkpt lat="44.48578986155387" lon="9.960981813767782"><ele>892.0</ele><time>2026-04-18T10:49:51.999Z</time></trkpt><trkpt lat="44.4857550354395" lon="9.960853200709204"><ele>892.2</ele><time>2026-04-18T10:49:53.999Z</time></trkpt><trkpt lat="44.48573757219227" lon="9.960696513308383"><ele>892.4000000000001</ele><time>2026-04-18T10:49:55.999Z</time></trkpt><trkpt lat="44.48571952227252" lon="9.960541164248317"><ele>892.5999999999999</ele><time>2026-04-18T10:49:57.999Z</time></trkpt><trkpt lat="44.485693606867216" lon="9.960390852174811"><ele>892.8</ele><time>2026-04-18T10:49:59.999Z</time></trkpt><trkpt lat="44.48567295732898" lon="9.960237655529793"><ele>893.0</ele><time>2026-04-18T10:50:01.999Z</time></trkpt><trkpt lat="44.485651818581744" lon="9.960086885489513"><ele>892.5999999999999</ele><time>2026-04-18T10:50:03.999Z</time></trkpt><trkpt lat="44.485655815022476" lon="9.959942433457165"><ele>892.1999999999999</ele><time>2026-04-18T10:50:05.999Z</time></trkpt><trkpt lat="44.48565658982018" lon="9.95980496963682"><ele>891.8</ele><time>2026-04-18T10:50:07.999Z</time></trkpt><trkpt lat="44.485649121254355" lon="9.959672508456597"><ele>891.4</ele><time>2026-04-18T10:50:09.999Z</time></trkpt><trkpt lat="44.48564437106502" lon="9.959543593678996"><ele>891.0</ele><time>2026-04-18T10:50:11.999Z</time></trkpt><trkpt lat="44.485644455317455" lon="9.95942289611856"><ele>891.0</ele><time>2026-04-18T10:50:13.999Z</time></trkpt><trkpt lat="44.48564229987903" lon="9.959314450758521"><ele>891.0</ele><time>2026-04-18T10:50:15.999Z</time></trkpt><trkpt lat="44.48563076092211" lon="9.959224610000824"><ele>891.0</ele><time>2026-04-18T10:50:17.999Z</time></trkpt><trkpt lat="44.48559232086671" lon="9.959114120693524"><ele>891.0</ele><time>2026-04-18T10:50:20.999Z</time></trkpt><trkpt lat="44.48554983265996" lon="9.959026557935767"><ele>891.0</ele><time>2026-04-18T10:50:23.998Z</time></trkpt><trkpt lat="44.4854952236256" lon="9.95896343559662"><ele>891.0</ele><time>2026-04-18T10:50:26.998Z</time></trkpt><trkpt lat="44.485422087153175" lon="9.958898227791702"><ele>894.0</ele><time>2026-04-18T10:50:30Z</time></trkpt><trkpt lat="44.48534532460812" lon="9.958840337359062"><ele>897.0</ele><time>2026-04-18T10:50:33Z</time></trkpt><trkpt lat="44.485285612014735" lon="9.958804989759342"><ele>900.0</ele><time>2026-04-18T10:50:35Z</time></trkpt><trkpt lat="44.485203418624224" lon="9.958792521900445"><ele>903.0</ele><time>2026-04-18T10:50:38Z</time></trkpt><trkpt lat="44.485131265383224" lon="9.958780791710844"><ele>905.9999999999999</ele><time>2026-04-18T10:50:40Z</time></trkpt><trkpt lat="44.485065909845005" lon="9.958772044127667"><ele>909.0</ele><time>2026-04-18T10:50:42Z</time></trkpt><trkpt lat="44.485002460467626" lon="9.95876280216285"><ele>912.0</ele><time>2026-04-18T10:50:44Z</time></trkpt><trkpt lat="44.48493906204616" lon="9.958752412575873"><ele>912.0</ele><time>2026-04-18T10:50:46Z</time></trkpt><trkpt lat="44.48486902708289" lon="9.95873240152079"><ele>911.9999999999999</ele><time>2026-04-18T10:50:48Z</time></trkpt><trkpt lat="44.484800579477216" lon="9.958716403510461"><ele>912.0</ele><time>2026-04-18T10:50:50Z</time></trkpt><trkpt lat="44.48473052060702" lon="9.95869987301669"><ele>912.0</ele><time>2026-04-18T10:50:52Z</time></trkpt><trkpt lat="44.484662883818686" lon="9.958672837218208"><ele>911.9999999999999</ele><time>2026-04-18T10:50:54Z</time></trkpt><trkpt lat="44.48459755880638" lon="9.958648248348096"><ele>912.0</ele><time>2026-04-18T10:50:56Z</time></trkpt><trkpt lat="44.48453069785408" lon="9.95860359170547"><ele>912.0</ele><time>2026-04-18T10:50:58Z</time></trkpt><trkpt lat="44.48447261119446" lon="9.958530462167467"><ele>914.1666666666666</ele><time>2026-04-18T10:51:00Z</time></trkpt><trkpt lat="44.48444610710231" lon="9.958419929686523"><ele>916.3333333333333</ele><time>2026-04-18T10:51:03Z</time></trkpt><trkpt lat="44.48443344267606" lon="9.958300567014268"><ele>918.5</ele><time>2026-04-18T10:51:06Z</time></trkpt><trkpt lat="44.48443252210509" lon="9.958155846583345"><ele>920.6666666666666</ele><time>2026-04-18T10:51:08Z</time></trkpt><trkpt lat="44.484446998722454" lon="9.958056022506371"><ele>922.8333333333333</ele><time>2026-04-18T10:51:10Z</time></trkpt><trkpt lat="44.48444465007279" lon="9.957952757924938"><ele>925.0</ele><time>2026-04-18T10:51:12Z</time></trkpt><trkpt lat="44.48446438731407" lon="9.957848890152098"><ele>924.9999999999999</ele><time>2026-04-18T10:51:14Z</time></trkpt><trkpt lat="44.48447847673573" lon="9.957743218060045"><ele>925.0</ele><time>2026-04-18T10:51:16Z</time></trkpt><trkpt lat="44.48447963647355" lon="9.957653306295258"><ele>925.0</ele><time>2026-04-18T10:51:18Z</time></trkpt><trkpt lat="44.48448794577509" lon="9.95753315714021"><ele>925.0</ele><time>2026-04-18T10:51:21Z</time></trkpt><trkpt lat="44.48449244867564" lon="9.957432813293504"><ele>924.9999999999999</ele><time>2026-04-18T10:51:23Z</time></trkpt><trkpt lat="44.484502319391915" lon="9.95730616723503"><ele>925.0</ele><time>2026-04-18T10:51:26Z</time></trkpt><trkpt lat="44.484513835856085" lon="9.95718252240365"><ele>924.8571428571429</ele><time>2026-04-18T10:51:29Z</time></trkpt><trkpt lat="44.48452028050161" lon="9.957069115647798"><ele>924.7142857142857</ele><time>2026-04-18T10:51:32Z</time></trkpt><trkpt lat="44.484529385333644" lon="9.956978965405508"><ele>924.5714285714286</ele><time>2026-04-18T10:51:34Z</time></trkpt><trkpt lat="44.484524289157804" lon="9.956869532718091"><ele>924.4285714285714</ele><time>2026-04-18T10:51:36.999Z</time></trkpt><trkpt lat="44.48452962844941" lon="9.956746282169952"><ele>924.2857142857142</ele><time>2026-04-18T10:51:39.999Z</time></trkpt><trkpt lat="44.48452944380941" lon="9.956648994751854"><ele>924.1428571428571</ele><time>2026-04-18T10:51:41.999Z</time></trkpt><trkpt lat="44.48453423637136" lon="9.956554585710057"><ele>924.0</ele><time>2026-04-18T10:51:43.999Z</time></trkpt><trkpt lat="44.48453536282406" lon="9.956461228178101"><ele>924.4285714285714</ele><time>2026-04-18T10:51:45.999Z</time></trkpt><trkpt lat="44.48453923897617" lon="9.956362635683385"><ele>924.8571428571429</ele><time>2026-04-18T10:51:47.999Z</time></trkpt><trkpt lat="44.48454748559461" lon="9.956262669409153"><ele>925.2857142857142</ele><time>2026-04-18T10:51:49.999Z</time></trkpt><trkpt lat="44.484567922207795" lon="9.956170042313666"><ele>925.7142857142857</ele><time>2026-04-18T10:51:51.999Z</time></trkpt><trkpt lat="44.484584625137146" lon="9.956077221714697"><ele>926.1428571428571</ele><time>2026-04-18T10:51:53.999Z</time></trkpt><trkpt lat="44.48460095711962" lon="9.955990131984967"><ele>926.5714285714284</ele><time>2026-04-18T10:51:55.999Z</time></trkpt><trkpt lat="44.484616625112906" lon="9.955904242029881"><ele>926.9999999999999</ele><time>2026-04-18T10:51:57.999Z</time></trkpt><trkpt lat="44.484637425832624" lon="9.95578820229846"><ele>924.8333333333334</ele><time>2026-04-18T10:52:00.999Z</time></trkpt><trkpt lat="44.48466228165885" lon="9.95566952605494"><ele>922.6666666666667</ele><time>2026-04-18T10:52:03.999Z</time></trkpt><trkpt lat="44.4846926169757" lon="9.955552311210301"><ele>920.5</ele><time>2026-04-18T10:52:06.999Z</time></trkpt><trkpt lat="44.484721567047345" lon="9.955439813356483"><ele>918.3333333333334</ele><time>2026-04-18T10:52:09.999Z</time></trkpt><trkpt lat="44.48472928167195" lon="9.95535183031695"><ele>916.1666666666667</ele><time>2026-04-18T10:52:11.999Z</time></trkpt><trkpt lat="44.48475014326598" lon="9.95523417947771"><ele>914.0</ele><time>2026-04-18T10:52:14.999Z</time></trkpt><trkpt lat="44.484774026595616" lon="9.955115598137706"><ele>916.3333333333334</ele><time>2026-04-18T10:52:17.999Z</time></trkpt><trkpt lat="44.48480833305768" lon="9.955000766023822"><ele>918.6666666666667</ele><time>2026-04-18T10:52:20.999Z</time></trkpt><trkpt lat="44.4848194487252" lon="9.9548749199734"><ele>921.0</ele><time>2026-04-18T10:52:23.999Z</time></trkpt><trkpt lat="44.48484413947998" lon="9.954751667027406"><ele>923.3333333333333</ele><time>2026-04-18T10:52:26.999Z</time></trkpt><trkpt lat="44.48486938269953" lon="9.95462726961262"><ele>925.6666666666666</ele><time>2026-04-18T10:52:29.998Z</time></trkpt><trkpt lat="44.48487834163665" lon="9.954509604862661"><ele>928.0</ele><time>2026-04-18T10:52:32.998Z</time></trkpt><trkpt lat="44.48491012515462" lon="9.954394544967606"><ele>927.9999999999999</ele><time>2026-04-18T10:52:36Z</time></trkpt><trkpt lat="44.484940771507915" lon="9.954281679635924"><ele>928.0</ele><time>2026-04-18T10:52:39Z</time></trkpt><trkpt lat="44.484965661238924" lon="9.954162458909957"><ele>928.0</ele><time>2026-04-18T10:52:42Z</time></trkpt><trkpt lat="44.48497592144366" lon="9.954033973117085"><ele>928.0</ele><time>2026-04-18T10:52:45Z</time></trkpt><trkpt lat="44.484986946752606" lon="9.953907030134934"><ele>927.9999999999999</ele><time>2026-04-18T10:52:48Z</time></trkpt><trkpt lat="44.48498982236041" lon="9.95377945355501"><ele>928.0</ele><time>2026-04-18T10:52:51Z</time></trkpt><trkpt lat="44.48498843261245" lon="9.953667930984908"><ele>929.1666666666666</ele><time>2026-04-18T10:52:54Z</time></trkpt><trkpt lat="44.48497691802165" lon="9.953550702828842"><ele>930.3333333333333</ele><time>2026-04-18T10:52:57Z</time></trkpt><trkpt lat="44.48497157879663" lon="9.95345391693325"><ele>931.5</ele><time>2026-04-18T10:53:00Z</time></trkpt><trkpt lat="44.48496439058331" lon="9.953362342109145"><ele>932.6666666666667</ele><time>2026-04-18T10:53:02Z</time></trkpt><trkpt lat="44.484953700934554" lon="9.953247694862375"><ele>933.8333333333334</ele><time>2026-04-18T10:53:05Z</time></trkpt><trkpt lat="44.484928372324056" lon="9.953137562375716"><ele>935.0</ele><time>2026-04-18T10:53:08Z</time></trkpt><trkpt lat="44.48489989677689" lon="9.953024014410422"><ele>935.1666666666667</ele><time>2026-04-18T10:53:11Z</time></trkpt><trkpt lat="44.48486990963426" lon="9.9529119725692"><ele>935.3333333333334</ele><time>2026-04-18T10:53:14Z</time></trkpt><trkpt lat="44.48483860421809" lon="9.952804432651396"><ele>935.5</ele><time>2026-04-18T10:53:17Z</time></trkpt><trkpt lat="44.48480068547898" lon="9.952684523409088"><ele>935.6666666666667</ele><time>2026-04-18T10:53:20Z</time></trkpt><trkpt lat="44.48475969319801" lon="9.952570321572383"><ele>935.8333333333334</ele><time>2026-04-18T10:53:23Z</time></trkpt><trkpt lat="44.48471386010447" lon="9.952456836008706"><ele>936.0</ele><time>2026-04-18T10:53:26Z</time></trkpt><trkpt lat="44.48467200060022" lon="9.95235019514031"><ele>935.3333333333334</ele><time>2026-04-18T10:53:29Z</time></trkpt><trkpt lat="44.484623021081106" lon="9.952249972954718"><ele>934.6666666666667</ele><time>2026-04-18T10:53:32Z</time></trkpt><trkpt lat="44.48456779017281" lon="9.95214913402514"><ele>934.0</ele><time>2026-04-18T10:53:35Z</time></trkpt><trkpt lat="44.484512239171586" lon="9.952049631104511"><ele>933.3333333333334</ele><time>2026-04-18T10:53:37.999Z</time></trkpt><trkpt lat="44.484457451106756" lon="9.951948222256172"><ele>932.6666666666667</ele><time>2026-04-18T10:53:40.999Z</time></trkpt><trkpt lat="44.4844056212078" lon="9.951845907320736"><ele>932.0</ele><time>2026-04-18T10:53:43.999Z</time></trkpt><trkpt lat="44.48436591065371" lon="9.95173490936897"><ele>936.1666666666667</ele><time>2026-04-18T10:53:46.999Z</time></trkpt><trkpt lat="44.48433636766735" lon="9.951650705475714"><ele>940.3333333333334</ele><time>2026-04-18T10:53:48.999Z</time></trkpt><trkpt lat="44.4843045857697" lon="9.951538757573928"><ele>944.5</ele><time>2026-04-18T10:53:51.999Z</time></trkpt><trkpt lat="44.48427843783785" lon="9.95142680242623"><ele>948.6666666666667</ele><time>2026-04-18T10:53:54.999Z</time></trkpt><trkpt lat="44.48425044703182" lon="9.95132329384556"><ele>952.8333333333334</ele><time>2026-04-18T10:53:57.999Z</time></trkpt><trkpt lat="44.484220646098144" lon="9.951215669373838"><ele>957.0</ele><time>2026-04-18T10:54:00.999Z</time></trkpt><trkpt lat="44.48419704182144" lon="9.95109484546041"><ele>957.0</ele><time>2026-04-18T10:54:03.999Z</time></trkpt><trkpt lat="44.48416694312303" lon="9.950963276823117"><ele>957.0</ele><time>2026-04-18T10:54:06.999Z</time></trkpt><trkpt lat="44.48414053933762" lon="9.950866566583052"><ele>957.0</ele><time>2026-04-18T10:54:09.999Z</time></trkpt><trkpt lat="44.48412407621074" lon="9.950762242390203"><ele>957.0</ele><time>2026-04-18T10:54:12.999Z</time></trkpt><trkpt lat="44.484094617691994" lon="9.950646520160578"><ele>957.0</ele><time>2026-04-18T10:54:15.999Z</time></trkpt><trkpt lat="44.48406010218161" lon="9.950547335402147"><ele>957.0</ele><time>2026-04-18T10:54:18.999Z</time></trkpt><trkpt lat="44.48402688168982" lon="9.950450299395241"><ele>955.8333333333334</ele><time>2026-04-18T10:54:21.999Z</time></trkpt><trkpt lat="44.483967680028485" lon="9.950359666091202"><ele>954.6666666666667</ele><time>2026-04-18T10:54:24.999Z</time></trkpt><trkpt lat="44.48392081031173" lon="9.950295353203241"><ele>953.5</ele><time>2026-04-18T10:54:26.999Z</time></trkpt><trkpt lat="44.48384823849527" lon="9.950210014164146"><ele>952.3333333333334</ele><time>2026-04-18T10:54:29.998Z</time></trkpt><trkpt lat="44.483778950809665" lon="9.950148367865303"><ele>951.1666666666667</ele><time>2026-04-18T10:54:32.998Z</time></trkpt><trkpt lat="44.48370516880009" lon="9.950095679820883"><ele>950.0</ele><time>2026-04-18T10:54:34.998Z</time></trkpt><trkpt lat="44.48362763356111" lon="9.950060823409654"><ele>950.8333333333334</ele><time>2026-04-18T10:54:37.998Z</time></trkpt><trkpt lat="44.483550446242916" lon="9.95003014365415"><ele>951.6666666666667</ele><time>2026-04-18T10:54:39.998Z</time></trkpt><trkpt lat="44.48348777754596" lon="9.950006361849669"><ele>952.5</ele><time>2026-04-18T10:54:42Z</time></trkpt><trkpt lat="44.48340426816073" lon="9.949988682141212"><ele>953.3333333333333</ele><time>2026-04-18T10:54:45Z</time></trkpt><trkpt lat="44.483319839373586" lon="9.949975920031337"><ele>954.1666666666666</ele><time>2026-04-18T10:54:48Z</time></trkpt><trkpt lat="44.48325417924778" lon="9.950019226199377"><ele>955.0</ele><time>2026-04-18T10:54:51Z</time></trkpt><trkpt lat="44.48317409359229" lon="9.950015622215817"><ele>955.0</ele><time>2026-04-18T10:54:54Z</time></trkpt><trkpt lat="44.48306936280972" lon="9.950030159591359"><ele>955.0</ele><time>2026-04-18T10:54:56Z</time></trkpt><trkpt lat="44.482969124918235" lon="9.950032714499873"><ele>955.0</ele><time>2026-04-18T10:54:58Z</time></trkpt><trkpt lat="44.48288605356745" lon="9.950014159117636"><ele>955.0</ele><time>2026-04-18T10:55:01Z</time></trkpt><trkpt lat="44.48281267964193" lon="9.949981833702422"><ele>955.0</ele><time>2026-04-18T10:55:04Z</time></trkpt><trkpt lat="44.482726595555754" lon="9.949914245115647"><ele>957.8333333333333</ele><time>2026-04-18T10:55:07Z</time></trkpt><trkpt lat="44.48265444250485" lon="9.949838335772679"><ele>960.6666666666666</ele><time>2026-04-18T10:55:10Z</time></trkpt><trkpt lat="44.482590001354126" lon="9.949791610045258"><ele>963.5</ele><time>2026-04-18T10:55:13Z</time></trkpt><trkpt lat="44.482533696435304" lon="9.94974970660825"><ele>966.3333333333333</ele><time>2026-04-18T10:55:14Z</time></trkpt><trkpt lat="44.48246989823147" lon="9.949684434872049"><ele>969.1666666666666</ele><time>2026-04-18T10:55:17Z</time></trkpt><trkpt lat="44.48239056049114" lon="9.9496181508083"><ele>972.0</ele><time>2026-04-18T10:55:20Z</time></trkpt><trkpt lat="44.48231857458745" lon="9.949556808732986"><ele>972.0</ele><time>2026-04-18T10:55:22Z</time></trkpt><trkpt lat="44.482261241600476" lon="9.949495289100502"><ele>972.0</ele><time>2026-04-18T10:55:24Z</time></trkpt><trkpt lat="44.48220040157732" lon="9.949426845716182"><ele>972.0</ele><time>2026-04-18T10:55:27Z</time></trkpt><trkpt lat="44.48212923118995" lon="9.949361230585826"><ele>972.0</ele><time>2026-04-18T10:55:30Z</time></trkpt><trkpt lat="44.48206027258446" lon="9.949275991818457"><ele>972.0</ele><time>2026-04-18T10:55:33Z</time></trkpt><trkpt lat="44.481995376878935" lon="9.949205709301168"><ele>972.0</ele><time>2026-04-18T10:55:35Z</time></trkpt><trkpt lat="44.481939104330635" lon="9.949094246324137"><ele>972.2857142857142</ele><time>2026-04-18T10:55:38Z</time></trkpt><trkpt lat="44.481899915392134" lon="9.949018552883208"><ele>972.5714285714287</ele><time>2026-04-18T10:55:40Z</time></trkpt><trkpt lat="44.48186806028346" lon="9.948935328650196"><ele>972.8571428571429</ele><time>2026-04-18T10:55:41.999Z</time></trkpt><trkpt lat="44.48184201737759" lon="9.948854833126772"><ele>973.1428571428571</ele><time>2026-04-18T10:55:43.999Z</time></trkpt><trkpt lat="44.4818063495042" lon="9.948740738819783"><ele>973.4285714285713</ele><time>2026-04-18T10:55:46.999Z</time></trkpt><trkpt lat="44.48177611920884" lon="9.94866242812574"><ele>973.7142857142858</ele><time>2026-04-18T10:55:48.999Z</time></trkpt><trkpt lat="44.48173467629837" lon="9.948590741331637"><ele>974.0</ele><time>2026-04-18T10:55:50.999Z</time></trkpt><trkpt lat="44.481675630921316" lon="9.948540677051117"><ele>974.0</ele><time>2026-04-18T10:55:52.999Z</time></trkpt><trkpt lat="44.48160551186555" lon="9.948509905615827"><ele>974.0</ele><time>2026-04-18T10:55:54.999Z</time></trkpt><trkpt lat="44.481536466599856" lon="9.94851836388211"><ele>974.0</ele><time>2026-04-18T10:55:56.999Z</time></trkpt><trkpt lat="44.48146738300538" lon="9.948545566536675"><ele>974.0</ele><time>2026-04-18T10:55:58.999Z</time></trkpt><trkpt lat="44.481401128643704" lon="9.948605163327189"><ele>974.0</ele><time>2026-04-18T10:56:00.999Z</time></trkpt><trkpt lat="44.48134207983178" lon="9.948672763676383"><ele>974.0</ele><time>2026-04-18T10:56:02.999Z</time></trkpt><trkpt lat="44.481284168186846" lon="9.948744606743118"><ele>974.0</ele><time>2026-04-18T10:56:04.999Z</time></trkpt><trkpt lat="44.481223316680975" lon="9.948819367859363"><ele>973.3333333333334</ele><time>2026-04-18T10:56:06.999Z</time></trkpt><trkpt lat="44.481167768849616" lon="9.948898141394814"><ele>972.6666666666667</ele><time>2026-04-18T10:56:08.999Z</time></trkpt><trkpt lat="44.48111010403844" lon="9.948975739696257"><ele>972.0</ele><time>2026-04-18T10:56:10.999Z</time></trkpt><trkpt lat="44.48105448277518" lon="9.949055335571025"><ele>971.3333333333333</ele><time>2026-04-18T10:56:12.999Z</time></trkpt><trkpt lat="44.48099265164813" lon="9.949127288416806"><ele>970.6666666666666</ele><time>2026-04-18T10:56:14.999Z</time></trkpt><trkpt lat="44.48092984393098" lon="9.949200210960203"><ele>970.0</ele><time>2026-04-18T10:56:16.999Z</time></trkpt><trkpt lat="44.480872265074204" lon="9.949282171206233"><ele>972.1428571428573</ele><time>2026-04-18T10:56:18.999Z</time></trkpt><trkpt lat="44.480814865541106" lon="9.949358775705523"><ele>974.2857142857143</ele><time>2026-04-18T10:56:20.999Z</time></trkpt><trkpt lat="44.48075832438934" lon="9.949436056189969"><ele>976.4285714285716</ele><time>2026-04-18T10:56:22.999Z</time></trkpt><trkpt lat="44.480703115984014" lon="9.949510834047187"><ele>978.5714285714287</ele><time>2026-04-18T10:56:24.999Z</time></trkpt><trkpt lat="44.48065767615011" lon="9.949580339259224"><ele>980.7142857142858</ele><time>2026-04-18T10:56:26.999Z</time></trkpt><trkpt lat="44.48060380593063" lon="9.949645517122791"><ele>982.8571428571429</ele><time>2026-04-18T10:56:29.999Z</time></trkpt><trkpt lat="44.48054723007569" lon="9.949706393857996"><ele>985.0</ele><time>2026-04-18T10:56:30.999Z</time></trkpt><trkpt lat="44.48048926084999" lon="9.949742233914645"><ele>984.8333333333333</ele><time>2026-04-18T10:56:32.999Z</time></trkpt><trkpt lat="44.48041415833051" lon="9.949770471387938"><ele>984.6666666666666</ele><time>2026-04-18T10:56:34.998Z</time></trkpt><trkpt lat="44.48033083346237" lon="9.94978548805368"><ele>984.5</ele><time>2026-04-18T10:56:36.998Z</time></trkpt><trkpt lat="44.48025111760629" lon="9.949800046550736"><ele>984.3333333333333</ele><time>2026-04-18T10:56:38.998Z</time></trkpt><trkpt lat="44.4801732761044" lon="9.949808623352899"><ele>984.1666666666666</ele><time>2026-04-18T10:56:40.998Z</time></trkpt><trkpt lat="44.480091506987065" lon="9.949816695649746"><ele>984.0</ele><time>2026-04-18T10:56:42.998Z</time></trkpt><trkpt lat="44.480018524885104" lon="9.949852235822023"><ele>984.0</ele><time>2026-04-18T10:56:44.998Z</time></trkpt><trkpt lat="44.47992404327151" lon="9.949859685833442"><ele>984.0</ele><time>2026-04-18T10:56:47Z</time></trkpt><trkpt lat="44.47984271472744" lon="9.949880351154265"><ele>984.0</ele><time>2026-04-18T10:56:49Z</time></trkpt><trkpt lat="44.47976494809417" lon="9.949890937214144"><ele>984.0</ele><time>2026-04-18T10:56:51Z</time></trkpt><trkpt lat="44.47970162693562" lon="9.949908725982006"><ele>984.0</ele><time>2026-04-18T10:56:53Z</time></trkpt><trkpt lat="44.47961921929035" lon="9.94992032331202"><ele>984.0</ele><time>2026-04-18T10:56:55Z</time></trkpt><trkpt lat="44.47953867104491" lon="9.949929282569844"><ele>984.0</ele><time>2026-04-18T10:56:57Z</time></trkpt><trkpt lat="44.479463593690056" lon="9.94995254772607"><ele>984.0</ele><time>2026-04-18T10:56:59Z</time></trkpt><trkpt lat="44.47938367425634" lon="9.949966872298944"><ele>984.0</ele><time>2026-04-18T10:57:01Z</time></trkpt><trkpt lat="44.47929181165427" lon="9.949969799545906"><ele>984.0</ele><time>2026-04-18T10:57:03Z</time></trkpt><trkpt lat="44.479228644900104" lon="9.949998976199193"><ele>984.0</ele><time>2026-04-18T10:57:05Z</time></trkpt><trkpt lat="44.479131852122975" lon="9.950013709703551"><ele>984.0</ele><time>2026-04-18T10:57:07Z</time></trkpt><trkpt lat="44.47905439533834" lon="9.950023174803746"><ele>984.0</ele><time>2026-04-18T10:57:09Z</time></trkpt><trkpt lat="44.47896240766542" lon="9.949993415896097"><ele>984.0</ele><time>2026-04-18T10:57:11Z</time></trkpt><trkpt lat="44.47888532761883" lon="9.950003638287487"><ele>984.0</ele><time>2026-04-18T10:57:13Z</time></trkpt><trkpt lat="44.47880146728774" lon="9.950020366925697"><ele>984.0</ele><time>2026-04-18T10:57:15Z</time></trkpt><trkpt lat="44.4787210816942" lon="9.950037450849502"><ele>984.0</ele><time>2026-04-18T10:57:17Z</time></trkpt><trkpt lat="44.478641882059634" lon="9.950042065370754"><ele>984.0</ele><time>2026-04-18T10:57:19Z</time></trkpt><trkpt lat="44.47856439367061" lon="9.950062877737874"><ele>987.1666666666666</ele><time>2026-04-18T10:57:21Z</time></trkpt><trkpt lat="44.47848753262959" lon="9.950078939295185"><ele>990.3333333333333</ele><time>2026-04-18T10:57:23Z</time></trkpt><trkpt lat="44.478404125500994" lon="9.95008711874626"><ele>993.5</ele><time>2026-04-18T10:57:25Z</time></trkpt><trkpt lat="44.47832315501248" lon="9.950104542389525"><ele>996.6666666666666</ele><time>2026-04-18T10:57:27Z</time></trkpt><trkpt lat="44.478234176071126" lon="9.950111936889337"><ele>999.8333333333333</ele><time>2026-04-18T10:57:29Z</time></trkpt><trkpt lat="44.478155038394426" lon="9.950103865402804"><ele>1003.0</ele><time>2026-04-18T10:57:31Z</time></trkpt><trkpt lat="44.47806375464311" lon="9.950062678231792"><ele>1002.4</ele><time>2026-04-18T10:57:33Z</time></trkpt><trkpt lat="44.47798327254625" lon="9.950013569445831"><ele>1001.8</ele><time>2026-04-18T10:57:35Z</time></trkpt><trkpt lat="44.47789863216218" lon="9.949941439554898"><ele>1001.2</ele><time>2026-04-18T10:57:37Z</time></trkpt><trkpt lat="44.47782068652354" lon="9.949848737003222"><ele>1000.6</ele><time>2026-04-18T10:57:39Z</time></trkpt><trkpt lat="44.47775284822473" lon="9.949740642251642"><ele>1000.0</ele><time>2026-04-18T10:57:41Z</time></trkpt><trkpt lat="44.477715401495146" lon="9.949586772610798"><ele>1000.0</ele><time>2026-04-18T10:57:43Z</time></trkpt><trkpt lat="44.47769697361703" lon="9.949443872050765"><ele>1000.0</ele><time>2026-04-18T10:57:44.999Z</time></trkpt><trkpt lat="44.477703547586486" lon="9.949299026094026"><ele>1000.0</ele><time>2026-04-18T10:57:46.999Z</time></trkpt><trkpt lat="44.47770870226051" lon="9.94917054405648"><ele>1000.0</ele><time>2026-04-18T10:57:48.999Z</time></trkpt><trkpt lat="44.47771495679862" lon="9.949026933366401"><ele>1000.0</ele><time>2026-04-18T10:57:51.999Z</time></trkpt><trkpt lat="44.47769720713445" lon="9.948914783528343"><ele>999.1666666666666</ele><time>2026-04-18T10:57:53.999Z</time></trkpt><trkpt lat="44.47767776143808" lon="9.94878955520043"><ele>998.3333333333333</ele><time>2026-04-18T10:57:55.999Z</time></trkpt><trkpt lat="44.47764953699412" lon="9.948689108993735"><ele>997.5</ele><time>2026-04-18T10:57:57.999Z</time></trkpt><trkpt lat="44.47760401319213" lon="9.948579780687167"><ele>996.6666666666667</ele><time>2026-04-18T10:57:59.999Z</time></trkpt><trkpt lat="44.47756269462008" lon="9.948471869670938"><ele>995.8333333333334</ele><time>2026-04-18T10:58:01.999Z</time></trkpt><trkpt lat="44.477508126967784" lon="9.948390652733725"><ele>995.0</ele><time>2026-04-18T10:58:03.999Z</time></trkpt><trkpt lat="44.47746150221859" lon="9.948316226706726"><ele>993.6666666666667</ele><time>2026-04-18T10:58:05.999Z</time></trkpt><trkpt lat="44.477377509606264" lon="9.948266033865565"><ele>992.3333333333334</ele><time>2026-04-18T10:58:07.999Z</time></trkpt><trkpt lat="44.4772955819587" lon="9.94821820322505"><ele>991.0</ele><time>2026-04-18T10:58:09.999Z</time></trkpt><trkpt lat="44.4772130150409" lon="9.948168725200487"><ele>989.6666666666667</ele><time>2026-04-18T10:58:11.999Z</time></trkpt><trkpt lat="44.47715063497425" lon="9.948135668404861"><ele>988.3333333333334</ele><time>2026-04-18T10:58:13.999Z</time></trkpt><trkpt lat="44.47708240739778" lon="9.948100645950902"><ele>987.0</ele><time>2026-04-18T10:58:15.999Z</time></trkpt><trkpt lat="44.477008051988335" lon="9.948057295671857"><ele>988.0</ele><time>2026-04-18T10:58:17.999Z</time></trkpt><trkpt lat="44.476934657548924" lon="9.947975618505469"><ele>989.0</ele><time>2026-04-18T10:58:19.999Z</time></trkpt><trkpt lat="44.47687111728905" lon="9.947896864473703"><ele>990.0</ele><time>2026-04-18T10:58:21.999Z</time></trkpt><trkpt lat="44.47680169278795" lon="9.947818665894978"><ele>991.0</ele><time>2026-04-18T10:58:23.999Z</time></trkpt><trkpt lat="44.47676089976198" lon="9.947716924456364"><ele>992.0</ele><time>2026-04-18T10:58:25.999Z</time></trkpt><trkpt lat="44.47670980288959" lon="9.947620025076773"><ele>993.0</ele><time>2026-04-18T10:58:27.999Z</time></trkpt><trkpt lat="44.47666038173826" lon="9.947509056049839"><ele>993.0</ele><time>2026-04-18T10:58:29.999Z</time></trkpt><trkpt lat="44.476620309854745" lon="9.947413292134945"><ele>993.0</ele><time>2026-04-18T10:58:31.999Z</time></trkpt><trkpt lat="44.476581658124765" lon="9.947307504012741"><ele>993.0</ele><time>2026-04-18T10:58:33.999Z</time></trkpt><trkpt lat="44.47652658503672" lon="9.947215962634385"><ele>993.0</ele><time>2026-04-18T10:58:35.999Z</time></trkpt><trkpt lat="44.47647416021905" lon="9.947139087547013"><ele>993.0</ele><time>2026-04-18T10:58:37.998Z</time></trkpt><trkpt lat="44.47641993262504" lon="9.947074523276648"><ele>993.0</ele><time>2026-04-18T10:58:40.998Z</time></trkpt><trkpt lat="44.47633364548741" lon="9.947017792964907"><ele>993.0</ele><time>2026-04-18T10:58:44.998Z</time></trkpt><trkpt lat="44.47627021007082" lon="9.946978013432037"><ele>993.0</ele><time>2026-04-18T10:58:47.998Z</time></trkpt><trkpt lat="44.47620891056207" lon="9.946941119192413"><ele>993.0</ele><time>2026-04-18T10:58:50.998Z</time></trkpt><trkpt lat="44.47612317045345" lon="9.946855693748901"><ele>993.0</ele><time>2026-04-18T10:58:54Z</time></trkpt><trkpt lat="44.476022660407374" lon="9.946792714229938"><ele>993.0</ele><time>2026-04-18T10:58:56Z</time></trkpt><trkpt lat="44.475915245489226" lon="9.946756116405327"><ele>993.0</ele><time>2026-04-18T10:58:58Z</time></trkpt><trkpt lat="44.47581384974947" lon="9.94672292855405"><ele>993.0</ele><time>2026-04-18T10:59:00Z</time></trkpt><trkpt lat="44.475726430869685" lon="9.946680531947026"><ele>993.0</ele><time>2026-04-18T10:59:02Z</time></trkpt><trkpt lat="44.47562058005387" lon="9.946657589360305"><ele>993.0</ele><time>2026-04-18T10:59:04Z</time></trkpt><trkpt lat="44.47555113503319" lon="9.946665397261732"><ele>993.0</ele><time>2026-04-18T10:59:05Z</time></trkpt><trkpt lat="44.47543572172813" lon="9.94664241979268"><ele>995.2</ele><time>2026-04-18T10:59:07Z</time></trkpt><trkpt lat="44.47531627302154" lon="9.946623834527044"><ele>997.4</ele><time>2026-04-18T10:59:09Z</time></trkpt><trkpt lat="44.47519975832411" lon="9.946582205115305"><ele>999.6000000000001</ele><time>2026-04-18T10:59:11Z</time></trkpt><trkpt lat="44.4751369779883" lon="9.946557910423282"><ele>1001.8000000000001</ele><time>2026-04-18T10:59:12Z</time></trkpt><trkpt lat="44.47502107331761" lon="9.94651299657789"><ele>1004.0</ele><time>2026-04-18T10:59:14Z</time></trkpt><trkpt lat="44.474916694292354" lon="9.946468538567382"><ele>1004.0</ele><time>2026-04-18T10:59:16Z</time></trkpt><trkpt lat="44.47481926056644" lon="9.946425740853352"><ele>1004.0000000000001</ele><time>2026-04-18T10:59:18Z</time></trkpt><trkpt lat="44.47472158758145" lon="9.946375616391988"><ele>1004.0000000000001</ele><time>2026-04-18T10:59:20Z</time></trkpt><trkpt lat="44.47461266938775" lon="9.946319611079582"><ele>1004.0</ele><time>2026-04-18T10:59:22Z</time></trkpt><trkpt lat="44.47451719988178" lon="9.94625483302592"><ele>1004.0</ele><time>2026-04-18T10:59:24Z</time></trkpt><trkpt lat="44.47444971689156" lon="9.946148045132485"><ele>1005.0</ele><time>2026-04-18T10:59:26Z</time></trkpt><trkpt lat="44.47439658172345" lon="9.946026742232249"><ele>1006.0000000000001</ele><time>2026-04-18T10:59:28Z</time></trkpt><trkpt lat="44.47435537458673" lon="9.94590396320649"><ele>1007.0000000000001</ele><time>2026-04-18T10:59:30Z</time></trkpt><trkpt lat="44.474333266047566" lon="9.945784418644768"><ele>1008.0</ele><time>2026-04-18T10:59:32Z</time></trkpt><trkpt lat="44.47430926656042" lon="9.945668222662691"><ele>1009.0</ele><time>2026-04-18T10:59:34Z</time></trkpt><trkpt lat="44.47427843887577" lon="9.945552657429113"><ele>1008.9999999999999</ele><time>2026-04-18T10:59:36Z</time></trkpt><trkpt lat="44.47425819898927" lon="9.945435020203224"><ele>1009.0</ele><time>2026-04-18T10:59:38Z</time></trkpt><trkpt lat="44.474246568262664" lon="9.945325172934197"><ele>1009.0</ele><time>2026-04-18T10:59:40Z</time></trkpt><trkpt lat="44.47422474024144" lon="9.945240810777733"><ele>1009.0</ele><time>2026-04-18T10:59:42Z</time></trkpt><trkpt lat="44.47420727634159" lon="9.945133140952834"><ele>1008.9999999999999</ele><time>2026-04-18T10:59:44Z</time></trkpt><trkpt lat="44.47417685994183" lon="9.94500484528522"><ele>1009.0</ele><time>2026-04-18T10:59:46Z</time></trkpt><trkpt lat="44.47415246798138" lon="9.944879103619927"><ele>1008.4999999999999</ele><time>2026-04-18T10:59:47.999Z</time></trkpt><trkpt lat="44.47412272703398" lon="9.944761235778655"><ele>1008.0</ele><time>2026-04-18T10:59:49.999Z</time></trkpt><trkpt lat="44.474093809725595" lon="9.944645975239021"><ele>1007.5</ele><time>2026-04-18T10:59:51.999Z</time></trkpt><trkpt lat="44.47406723815228" lon="9.944522331269983"><ele>1007.0</ele><time>2026-04-18T10:59:53.999Z</time></trkpt><trkpt lat="44.47402273220926" lon="9.944388522668607"><ele>1006.4999999999999</ele><time>2026-04-18T10:59:56.999Z</time></trkpt><trkpt lat="44.47400241333608" lon="9.944301182835646"><ele>1006.0</ele><time>2026-04-18T10:59:59.999Z</time></trkpt><trkpt lat="44.47397301976513" lon="9.944207391830897"><ele>1004.0</ele><time>2026-04-18T11:00:02.999Z</time></trkpt><trkpt lat="44.473794692862846" lon="9.943803056751259"><ele>1002.0</ele><time>2026-04-18T11:00:04.999Z</time></trkpt><trkpt lat="44.47375004285277" lon="9.943689138995836"><ele>1000.0</ele><time>2026-04-18T11:00:06.999Z</time></trkpt><trkpt lat="44.47370798115899" lon="9.943586790353487"><ele>1002.9999999999999</ele><time>2026-04-18T11:00:08.999Z</time></trkpt><trkpt lat="44.473659051649214" lon="9.94347448771586"><ele>1006.0</ele><time>2026-04-18T11:00:10.999Z</time></trkpt><trkpt lat="44.47362548347761" lon="9.943377591526788"><ele>1009.0</ele><time>2026-04-18T11:00:12.999Z</time></trkpt><trkpt lat="44.473590524483186" lon="9.943287825715867"><ele>1012.0</ele><time>2026-04-18T11:00:14.999Z</time></trkpt><trkpt lat="44.47355755190763" lon="9.943188553275988"><ele>1014.9999999999999</ele><time>2026-04-18T11:00:16.999Z</time></trkpt><trkpt lat="44.47355227884241" lon="9.943073944825922"><ele>1018.0</ele><time>2026-04-18T11:00:18.999Z</time></trkpt><trkpt lat="44.473547798647374" lon="9.942956454290405"><ele>1018.3333333333333</ele><time>2026-04-18T11:00:20.999Z</time></trkpt><trkpt lat="44.47355951984529" lon="9.94284257600106"><ele>1018.6666666666666</ele><time>2026-04-18T11:00:22.999Z</time></trkpt><trkpt lat="44.473592207275864" lon="9.942743697727183"><ele>1019.0</ele><time>2026-04-18T11:00:24.999Z</time></trkpt><trkpt lat="44.473622856639686" lon="9.94262075564391"><ele>1019.3333333333333</ele><time>2026-04-18T11:00:27.999Z</time></trkpt><trkpt lat="44.47364389021112" lon="9.942487283297833"><ele>1019.6666666666666</ele><time>2026-04-18T11:00:29.999Z</time></trkpt><trkpt lat="44.47369788980499" lon="9.942383369061107"><ele>1020.0</ele><time>2026-04-18T11:00:31.999Z</time></trkpt><trkpt lat="44.473743179849556" lon="9.942287550589192"><ele>1016.5</ele><time>2026-04-18T11:00:33.999Z</time></trkpt><trkpt lat="44.47380400650057" lon="9.942197378636497"><ele>1013.0</ele><time>2026-04-18T11:00:35.999Z</time></trkpt><trkpt lat="44.473868947794244" lon="9.942119292976216"><ele>1009.5</ele><time>2026-04-18T11:00:37.999Z</time></trkpt><trkpt lat="44.47393889751919" lon="9.942037787407644"><ele>1006.0</ele><time>2026-04-18T11:00:39.999Z</time></trkpt><trkpt lat="44.47400446913362" lon="9.941954211277652"><ele>1002.5</ele><time>2026-04-18T11:00:41.998Z</time></trkpt><trkpt lat="44.474077625648455" lon="9.941886340992884"><ele>999.0</ele><time>2026-04-18T11:00:43.998Z</time></trkpt><trkpt lat="44.474141352614886" lon="9.941810706616328"><ele>1001.0</ele><time>2026-04-18T11:00:45.998Z</time></trkpt><trkpt lat="44.474228619695204" lon="9.941710197513272"><ele>1003.0</ele><time>2026-04-18T11:00:48.998Z</time></trkpt><trkpt lat="44.474276051383036" lon="9.941619733507574"><ele>1005.0</ele><time>2026-04-18T11:00:50.998Z</time></trkpt><trkpt lat="44.474273806999214" lon="9.941518963934971"><ele>1007.0</ele><time>2026-04-18T11:00:52.998Z</time></trkpt><trkpt lat="44.474246141027" lon="9.941413899977732"><ele>1009.0</ele><time>2026-04-18T11:00:54.998Z</time></trkpt><trkpt lat="44.474173786739804" lon="9.941357814727615"><ele>1011.0</ele><time>2026-04-18T11:00:56.998Z</time></trkpt><trkpt lat="44.47409528088636" lon="9.94130233545946"><ele>1011.0</ele><time>2026-04-18T11:00:59Z</time></trkpt><trkpt lat="44.47403506001305" lon="9.941238997744337"><ele>1011.0</ele><time>2026-04-18T11:01:01Z</time></trkpt><trkpt lat="44.473965833160925" lon="9.941174198604662"><ele>1011.0</ele><time>2026-04-18T11:01:03Z</time></trkpt><trkpt lat="44.473900551190916" lon="9.941089122476017"><ele>1011.0</ele><time>2026-04-18T11:01:05Z</time></trkpt><trkpt lat="44.47384081356508" lon="9.94099415511995"><ele>1011.0</ele><time>2026-04-18T11:01:07Z</time></trkpt><trkpt lat="44.47378754022916" lon="9.940899262901514"><ele>1011.0</ele><time>2026-04-18T11:01:09Z</time></trkpt><trkpt lat="44.473734242437466" lon="9.940810540983954"><ele>1014.1666666666666</ele><time>2026-04-18T11:01:11Z</time></trkpt><trkpt lat="44.47367949933671" lon="9.940709042303606"><ele>1017.3333333333333</ele><time>2026-04-18T11:01:13Z</time></trkpt><trkpt lat="44.473632269722685" lon="9.940612780256151"><ele>1020.5</ele><time>2026-04-18T11:01:15Z</time></trkpt><trkpt lat="44.473578906571284" lon="9.94052714139425"><ele>1023.6666666666666</ele><time>2026-04-18T11:01:17Z</time></trkpt><trkpt lat="44.47351900729359" lon="9.940438182290537"><ele>1026.8333333333333</ele><time>2026-04-18T11:01:19Z</time></trkpt><trkpt lat="44.473450078258274" lon="9.940359018215855"><ele>1030.0</ele><time>2026-04-18T11:01:21Z</time></trkpt><trkpt lat="44.47336892623629" lon="9.940301250223728"><ele>1030.0</ele><time>2026-04-18T11:01:23Z</time></trkpt><trkpt lat="44.47328265885063" lon="9.940262359011161"><ele>1030.0</ele><time>2026-04-18T11:01:25Z</time></trkpt><trkpt lat="44.4731776398859" lon="9.94024859606385"><ele>1030.0</ele><time>2026-04-18T11:01:27Z</time></trkpt><trkpt lat="44.47308209070215" lon="9.940235950549095"><ele>1030.0</ele><time>2026-04-18T11:01:29Z</time></trkpt><trkpt lat="44.47298604014101" lon="9.940231645736713"><ele>1030.0</ele><time>2026-04-18T11:01:31Z</time></trkpt><trkpt lat="44.47289341390449" lon="9.940226294789568"><ele>1031.8</ele><time>2026-04-18T11:01:33Z</time></trkpt><trkpt lat="44.47279963186862" lon="9.94021340837931"><ele>1033.6</ele><time>2026-04-18T11:01:35Z</time></trkpt><trkpt lat="44.47270487027104" lon="9.940198408685974"><ele>1035.4</ele><time>2026-04-18T11:01:37Z</time></trkpt><trkpt lat="44.47261622435193" lon="9.940167184104013"><ele>1037.2</ele><time>2026-04-18T11:01:39Z</time></trkpt><trkpt lat="44.472526707647404" lon="9.940138875946714"><ele>1039.0</ele><time>2026-04-18T11:01:41Z</time></trkpt><trkpt lat="44.47243915540063" lon="9.94010275854479"><ele>1035.6000000000001</ele><time>2026-04-18T11:01:43Z</time></trkpt><trkpt lat="44.472354397415955" lon="9.940032469021288"><ele>1032.2</ele><time>2026-04-18T11:01:45Z</time></trkpt><trkpt lat="44.47229506017005" lon="9.939919144400264"><ele>1028.8000000000002</ele><time>2026-04-18T11:01:47Z</time></trkpt><trkpt lat="44.47224958381716" lon="9.939769246700001"><ele>1025.4</ele><time>2026-04-18T11:01:49Z</time></trkpt><trkpt lat="44.47222043875664" lon="9.939619919015147"><ele>1022.0</ele><time>2026-04-18T11:01:51Z</time></trkpt><trkpt lat="44.47223553648467" lon="9.93952990213514"><ele>1022.0</ele><time>2026-04-18T11:01:52Z</time></trkpt><trkpt lat="44.4722088693825" lon="9.939379163326139"><ele>1022.0</ele><time>2026-04-18T11:01:53.999Z</time></trkpt><trkpt lat="44.47217001875167" lon="9.939241617514657"><ele>1022.0</ele><time>2026-04-18T11:01:55.999Z</time></trkpt><trkpt lat="44.47219334286612" lon="9.93908357460564"><ele>1022.0</ele><time>2026-04-18T11:01:57.999Z</time></trkpt><trkpt lat="44.47226868139126" lon="9.938961043005323"><ele>1022.0</ele><time>2026-04-18T11:01:59.999Z</time></trkpt><trkpt lat="44.47235955029192" lon="9.938866964647902"><ele>1022.1666666666667</ele><time>2026-04-18T11:02:01.999Z</time></trkpt><trkpt lat="44.47244917334819" lon="9.938765654100417"><ele>1022.3333333333334</ele><time>2026-04-18T11:02:03.999Z</time></trkpt><trkpt lat="44.47253089869458" lon="9.93863974717686"><ele>1022.5</ele><time>2026-04-18T11:02:05.999Z</time></trkpt><trkpt lat="44.472559406493964" lon="9.938560947342522"><ele>1022.6666666666667</ele><time>2026-04-18T11:02:06.999Z</time></trkpt><trkpt lat="44.472575220709366" lon="9.938469667519588"><ele>1022.8333333333334</ele><time>2026-04-18T11:02:07.999Z</time></trkpt><trkpt lat="44.472584866846134" lon="9.93838003857917"><ele>1023.0</ele><time>2026-04-18T11:02:08.999Z</time></trkpt><trkpt lat="44.47260209452499" lon="9.938216558044665"><ele>1023.0</ele><time>2026-04-18T11:02:10.999Z</time></trkpt><trkpt lat="44.47261114899078" lon="9.938122894179145"><ele>1023.0</ele><time>2026-04-18T11:02:11.999Z</time></trkpt><trkpt lat="44.47262790731987" lon="9.937949537793681"><ele>1023.0</ele><time>2026-04-18T11:02:13.999Z</time></trkpt><trkpt lat="44.47264430088923" lon="9.93777995466081"><ele>1023.0</ele><time>2026-04-18T11:02:15.999Z</time></trkpt><trkpt lat="44.47266033844574" lon="9.937614054311336"><ele>1023.0</ele><time>2026-04-18T11:02:17.999Z</time></trkpt><trkpt lat="44.47267694188324" lon="9.937447500481653"><ele>1023.6666666666666</ele><time>2026-04-18T11:02:19.999Z</time></trkpt><trkpt lat="44.472687321605" lon="9.937356137303516"><ele>1024.3333333333333</ele><time>2026-04-18T11:02:20.999Z</time></trkpt><trkpt lat="44.47271000425511" lon="9.937183531098539"><ele>1025.0</ele><time>2026-04-18T11:02:22.999Z</time></trkpt><trkpt lat="44.4727479655368" lon="9.937016331837864"><ele>1025.6666666666665</ele><time>2026-04-18T11:02:24.999Z</time></trkpt><trkpt lat="44.472772045942065" lon="9.936931184813647"><ele>1026.3333333333333</ele><time>2026-04-18T11:02:25.999Z</time></trkpt><trkpt lat="44.47279635185401" lon="9.936843474145093"><ele>1027.0</ele><time>2026-04-18T11:02:26.999Z</time></trkpt><trkpt lat="44.47282012781705" lon="9.936756643029064"><ele>1027.2857142857142</ele><time>2026-04-18T11:02:27.999Z</time></trkpt><trkpt lat="44.47284523030614" lon="9.936667500257345"><ele>1027.5714285714287</ele><time>2026-04-18T11:02:28.999Z</time></trkpt><trkpt lat="44.4728631683896" lon="9.936575750977763"><ele>1027.857142857143</ele><time>2026-04-18T11:02:29.999Z</time></trkpt><trkpt lat="44.472868092015666" lon="9.936470274050679"><ele>1028.142857142857</ele><time>2026-04-18T11:02:30.999Z</time></trkpt><trkpt lat="44.47285913383895" lon="9.936370664251177"><ele>1028.4285714285716</ele><time>2026-04-18T11:02:31.999Z</time></trkpt><trkpt lat="44.47283984712625" lon="9.936269810102221"><ele>1028.7142857142858</ele><time>2026-04-18T11:02:32.999Z</time></trkpt><trkpt lat="44.472813777137084" lon="9.936176776314856"><ele>1029.0</ele><time>2026-04-18T11:02:33.999Z</time></trkpt><trkpt lat="44.47277576764701" lon="9.936092076757893"><ele>1029.0</ele><time>2026-04-18T11:02:34.999Z</time></trkpt><trkpt lat="44.472721253702396" lon="9.936014858247097"><ele>1029.0</ele><time>2026-04-18T11:02:35.999Z</time></trkpt><trkpt lat="44.47267199940594" lon="9.9359465823206"><ele>1029.0</ele><time>2026-04-18T11:02:36.999Z</time></trkpt><trkpt lat="44.47261915512209" lon="9.935886660588071"><ele>1029.0</ele><time>2026-04-18T11:02:37.999Z</time></trkpt><trkpt lat="44.47256515939886" lon="9.93582591539392"><ele>1029.0</ele><time>2026-04-18T11:02:38.999Z</time></trkpt><trkpt lat="44.47251266849119" lon="9.935766404958876"><ele>1029.0</ele><time>2026-04-18T11:02:39.999Z</time></trkpt><trkpt lat="44.47245903619774" lon="9.935703083996602"><ele>1029.0</ele><time>2026-04-18T11:02:40.999Z</time></trkpt><trkpt lat="44.47240698461799" lon="9.935641415605396"><ele>1029.142857142857</ele><time>2026-04-18T11:02:41.999Z</time></trkpt><trkpt lat="44.472351059974116" lon="9.935575158609822"><ele>1029.2857142857142</ele><time>2026-04-18T11:02:42.999Z</time></trkpt><trkpt lat="44.472296955298056" lon="9.935511057832505"><ele>1029.4285714285716</ele><time>2026-04-18T11:02:43.999Z</time></trkpt><trkpt lat="44.472246456184756" lon="9.935447963108713"><ele>1029.5714285714284</ele><time>2026-04-18T11:02:44.999Z</time></trkpt><trkpt lat="44.47219654021984" lon="9.93538417431399"><ele>1029.7142857142858</ele><time>2026-04-18T11:02:45.998Z</time></trkpt><trkpt lat="44.47214664693371" lon="9.935320414507729"><ele>1029.857142857143</ele><time>2026-04-18T11:02:46.998Z</time></trkpt><trkpt lat="44.47209489199699" lon="9.935260291957578"><ele>1030.0</ele><time>2026-04-18T11:02:47.998Z</time></trkpt><trkpt lat="44.47203917713282" lon="9.935205291337718"><ele>1030.0</ele><time>2026-04-18T11:02:48.998Z</time></trkpt><trkpt lat="44.47197315030427" lon="9.935162454832987"><ele>1030.0</ele><time>2026-04-18T11:02:49.998Z</time></trkpt><trkpt lat="44.4719043276128" lon="9.93515434359574"><ele>1030.0</ele><time>2026-04-18T11:02:50.998Z</time></trkpt><trkpt lat="44.471837566686794" lon="9.935139374316703"><ele>1030.0</ele><time>2026-04-18T11:02:51.998Z</time></trkpt><trkpt lat="44.47176770731139" lon="9.93514010253659"><ele>1030.0</ele><time>2026-04-18T11:02:52.998Z</time></trkpt><trkpt lat="44.47169889942586" lon="9.93515588227856"><ele>1030.0</ele><time>2026-04-18T11:02:53.998Z</time></trkpt><trkpt lat="44.47163137051415" lon="9.935163888008082"><ele>1030.0</ele><time>2026-04-18T11:02:54.998Z</time></trkpt><trkpt lat="44.47156324885003" lon="9.935161447083727"><ele>1030.0</ele><time>2026-04-18T11:02:55.998Z</time></trkpt><trkpt lat="44.47150126354777" lon="9.935136850304115"><ele>1030.0</ele><time>2026-04-18T11:02:56.998Z</time></trkpt><trkpt lat="44.47145825383624" lon="9.935057356030363"><ele>1030.0</ele><time>2026-04-18T11:02:57.998Z</time></trkpt><trkpt lat="44.47144938487256" lon="9.934888931667752"><ele>1030.0</ele><time>2026-04-18T11:02:59.998Z</time></trkpt><trkpt lat="44.471466393249116" lon="9.934716241719926"><ele>1030.0</ele><time>2026-04-18T11:03:01.998Z</time></trkpt><trkpt lat="44.471487135340205" lon="9.934555825592236"><ele>1029.0</ele><time>2026-04-18T11:03:03.998Z</time></trkpt><trkpt lat="44.471517088545454" lon="9.93440808161062"><ele>1028.0</ele><time>2026-04-18T11:03:06Z</time></trkpt><trkpt lat="44.47155444733436" lon="9.934275005769708"><ele>1027.0</ele><time>2026-04-18T11:03:08Z</time></trkpt><trkpt lat="44.47160029963067" lon="9.934148489326047"><ele>1026.0</ele><time>2026-04-18T11:03:10Z</time></trkpt><trkpt lat="44.47165411119131" lon="9.934023176862059"><ele>1025.0</ele><time>2026-04-18T11:03:12Z</time></trkpt><trkpt lat="44.47170660849774" lon="9.93390664836854"><ele>1025.0</ele><time>2026-04-18T11:03:14Z</time></trkpt><trkpt lat="44.471760589710904" lon="9.93378494778556"><ele>1025.0</ele><time>2026-04-18T11:03:16Z</time></trkpt><trkpt lat="44.47180934710192" lon="9.933673863381275"><ele>1025.0</ele><time>2026-04-18T11:03:18Z</time></trkpt><trkpt lat="44.471861734329956" lon="9.93355450893663"><ele>1025.0</ele><time>2026-04-18T11:03:20Z</time></trkpt><trkpt lat="44.4718434916414" lon="9.93345717768671"><ele>1025.0</ele><time>2026-04-18T11:03:21Z</time></trkpt><trkpt lat="44.471900012983625" lon="9.933343402061944"><ele>1028.75</ele><time>2026-04-18T11:03:23Z</time></trkpt><trkpt lat="44.47194600374912" lon="9.933249535156929"><ele>1032.5</ele><time>2026-04-18T11:03:25Z</time></trkpt><trkpt lat="44.47204811869196" lon="9.933030968718391"><ele>1036.25</ele><time>2026-04-18T11:03:28Z</time></trkpt><trkpt lat="44.47209581825034" lon="9.932913716965277"><ele>1040.0</ele><time>2026-04-18T11:03:30Z</time></trkpt><trkpt lat="44.47213776179135" lon="9.932799807736796"><ele>1036.0</ele><time>2026-04-18T11:03:32Z</time></trkpt><trkpt lat="44.47216911812904" lon="9.932691167018495"><ele>1032.0</ele><time>2026-04-18T11:03:34Z</time></trkpt><trkpt lat="44.47219996442278" lon="9.932576773970647"><ele>1028.0</ele><time>2026-04-18T11:03:36Z</time></trkpt><trkpt lat="44.4722280329683" lon="9.932464427061417"><ele>1024.0</ele><time>2026-04-18T11:03:38Z</time></trkpt><trkpt lat="44.47225185369606" lon="9.93234583054677"><ele>1020.0000000000001</ele><time>2026-04-18T11:03:40Z</time></trkpt><trkpt lat="44.47228008184745" lon="9.932232027299937"><ele>1016.0</ele><time>2026-04-18T11:03:42Z</time></trkpt><trkpt lat="44.47230916217937" lon="9.932118435260621"><ele>1016.0000000000001</ele><time>2026-04-18T11:03:44Z</time></trkpt><trkpt lat="44.47233696387975" lon="9.932002692141625"><ele>1016.0</ele><time>2026-04-18T11:03:46Z</time></trkpt><trkpt lat="44.4723777428833" lon="9.93189968459885"><ele>1016.0</ele><time>2026-04-18T11:03:48Z</time></trkpt><trkpt lat="44.472375512543465" lon="9.93180400637979"><ele>1016.0</ele><time>2026-04-18T11:03:50Z</time></trkpt><trkpt lat="44.47240594751165" lon="9.931676277480053"><ele>1016.0000000000001</ele><time>2026-04-18T11:03:52Z</time></trkpt><trkpt lat="44.472462438932105" lon="9.931560611865217"><ele>1016.0</ele><time>2026-04-18T11:03:54Z</time></trkpt><trkpt lat="44.472478632286744" lon="9.931462417267603"><ele>1017.6666666666667</ele><time>2026-04-18T11:03:57Z</time></trkpt><trkpt lat="44.472491443217244" lon="9.93136817625457"><ele>1019.3333333333334</ele><time>2026-04-18T11:03:57.999Z</time></trkpt><trkpt lat="44.47250110175072" lon="9.931272430784047"><ele>1021.0</ele><time>2026-04-18T11:03:59.999Z</time></trkpt><trkpt lat="44.472479653726005" lon="9.931124354951432"><ele>1022.6666666666667</ele><time>2026-04-18T11:04:01.999Z</time></trkpt><trkpt lat="44.47248199331852" lon="9.93101141740425"><ele>1024.3333333333333</ele><time>2026-04-18T11:04:03.999Z</time></trkpt><trkpt lat="44.47247104819713" lon="9.930896286208748"><ele>1026.0</ele><time>2026-04-18T11:04:05.999Z</time></trkpt><trkpt lat="44.472446253053924" lon="9.930775201838214"><ele>1027.1666666666667</ele><time>2026-04-18T11:04:07.999Z</time></trkpt><trkpt lat="44.47241397040672" lon="9.93063693038851"><ele>1028.3333333333333</ele><time>2026-04-18T11:04:10.999Z</time></trkpt><trkpt lat="44.472382550867096" lon="9.930546066475118"><ele>1029.5</ele><time>2026-04-18T11:04:12.999Z</time></trkpt><trkpt lat="44.47234533604996" lon="9.930453673232407"><ele>1030.6666666666665</ele><time>2026-04-18T11:04:14.999Z</time></trkpt><trkpt lat="44.47231925990456" lon="9.930352966199711"><ele>1031.8333333333333</ele><time>2026-04-18T11:04:16.999Z</time></trkpt><trkpt lat="44.47228537866227" lon="9.930255799152356"><ele>1033.0</ele><time>2026-04-18T11:04:18.999Z</time></trkpt><trkpt lat="44.47225123480912" lon="9.930163751425793"><ele>1033.0</ele><time>2026-04-18T11:04:20.999Z</time></trkpt><trkpt lat="44.472222217572025" lon="9.930067640867815"><ele>1033.0</ele><time>2026-04-18T11:04:22.999Z</time></trkpt><trkpt lat="44.47218145883727" lon="9.929971367983498"><ele>1033.0</ele><time>2026-04-18T11:04:24.999Z</time></trkpt><trkpt lat="44.47214840981903" lon="9.929876331566598"><ele>1033.0</ele><time>2026-04-18T11:04:26.999Z</time></trkpt><trkpt lat="44.47210602576306" lon="9.929792935543572"><ele>1033.0</ele><time>2026-04-18T11:04:28.999Z</time></trkpt><trkpt lat="44.47206917689851" lon="9.929699552339605"><ele>1033.0</ele><time>2026-04-18T11:04:30.999Z</time></trkpt><trkpt lat="44.472030177868206" lon="9.929607699523435"><ele>1034.5</ele><time>2026-04-18T11:04:32.999Z</time></trkpt><trkpt lat="44.47199064074917" lon="9.929516703073023"><ele>1036.0</ele><time>2026-04-18T11:04:34.999Z</time></trkpt><trkpt lat="44.47194381525805" lon="9.92940507717562"><ele>1037.5</ele><time>2026-04-18T11:04:37.999Z</time></trkpt><trkpt lat="44.47191095630091" lon="9.929310505011918"><ele>1039.0</ele><time>2026-04-18T11:04:39.999Z</time></trkpt><trkpt lat="44.471870039632236" lon="9.929226459069207"><ele>1040.5</ele><time>2026-04-18T11:04:41.999Z</time></trkpt><trkpt lat="44.47182521920272" lon="9.9291196782076"><ele>1042.0</ele><time>2026-04-18T11:04:44.999Z</time></trkpt><trkpt lat="44.47178406728977" lon="9.929006759324198"><ele>1042.0</ele><time>2026-04-18T11:04:47.999Z</time></trkpt><trkpt lat="44.47174987235899" lon="9.928891541772131"><ele>1042.0</ele><time>2026-04-18T11:04:50.998Z</time></trkpt><trkpt lat="44.471725293390655" lon="9.928796488466478"><ele>1042.0</ele><time>2026-04-18T11:04:53.998Z</time></trkpt><trkpt lat="44.47168164466336" lon="9.928721329149507"><ele>1042.0</ele><time>2026-04-18T11:04:56.998Z</time></trkpt><trkpt lat="44.471645517768536" lon="9.928617879318661"><ele>1042.0</ele><time>2026-04-18T11:04:58.998Z</time></trkpt><trkpt lat="44.471611035508154" lon="9.928520844036983"><ele>1042.0</ele><time>2026-04-18T11:05:01.998Z</time></trkpt><trkpt lat="44.47155694660776" lon="9.928417874394778"><ele>1042.0</ele><time>2026-04-18T11:05:05.998Z</time></trkpt><trkpt lat="44.471488656260036" lon="9.92838780410015"><ele>1042.0</ele><time>2026-04-18T11:05:08.998Z</time></trkpt><trkpt lat="44.47145641482069" lon="9.928306574256906"><ele>1042.0</ele><time>2026-04-18T11:05:12Z</time></trkpt><trkpt lat="44.47142105396581" lon="9.928231143602321"><ele>1042.0</ele><time>2026-04-18T11:05:16Z</time></trkpt><trkpt lat="44.471453483359085" lon="9.928310328552866"><ele>1042.0</ele><time>2026-04-18T11:12:05Z</time></trkpt><trkpt lat="44.47149353603585" lon="9.928380944040606"><ele>1042.0</ele><time>2026-04-18T11:12:07Z</time></trkpt><trkpt lat="44.47152463855667" lon="9.928459436353789"><ele>1042.0</ele><time>2026-04-18T11:12:09Z</time></trkpt><trkpt lat="44.471572324597034" lon="9.928548306089876"><ele>1042.0</ele><time>2026-04-18T11:12:11Z</time></trkpt><trkpt lat="44.47162271623289" lon="9.928624733024344"><ele>1042.0</ele><time>2026-04-18T11:12:13Z</time></trkpt><trkpt lat="44.47167576536532" lon="9.928705713254333"><ele>1042.0</ele><time>2026-04-18T11:12:15.999Z</time></trkpt><trkpt lat="44.47171245671572" lon="9.92878416438327"><ele>1042.0</ele><time>2026-04-18T11:12:24.999Z</time></trkpt><trkpt lat="44.471774174385615" lon="9.928735114253511"><ele>1042.0</ele><time>2026-04-18T11:13:42Z</time></trkpt><trkpt lat="44.471845507001824" lon="9.928639787016566"><ele>1042.0</ele><time>2026-04-18T11:13:43Z</time></trkpt><trkpt lat="44.471934353466956" lon="9.92855012361896"><ele>1042.0</ele><time>2026-04-18T11:13:45Z</time></trkpt><trkpt lat="44.472017686193894" lon="9.928494516092236"><ele>1042.0</ele><time>2026-04-18T11:13:47Z</time></trkpt><trkpt lat="44.47211684178489" lon="9.928449585055745"><ele>1042.0</ele><time>2026-04-18T11:13:49Z</time></trkpt><trkpt lat="44.47223276263691" lon="9.928229055917551"><ele>1042.0</ele><time>2026-04-18T11:13:51Z</time></trkpt><trkpt lat="44.472298164957714" lon="9.92817982244293"><ele>1040.6666666666665</ele><time>2026-04-18T11:13:52Z</time></trkpt><trkpt lat="44.472254369602744" lon="9.928100448546237"><ele>1039.3333333333333</ele><time>2026-04-18T11:13:55Z</time></trkpt><trkpt lat="44.4719808676167" lon="9.928075570177487"><ele>1038.0</ele><time>2026-04-18T11:13:57.042Z</time></trkpt><trkpt lat="44.471870789862734" lon="9.928066242739018"><ele>1038.0</ele><time>2026-04-18T11:13:58.037Z</time></trkpt><trkpt lat="44.47193668116549" lon="9.928216939488745"><ele>1038.0</ele><time>2026-04-18T11:13:59.038Z</time></trkpt><trkpt lat="44.47185478389903" lon="9.928907266404202"><ele>1040.0</ele><time>2026-04-18T11:14:16.425Z</time></trkpt><trkpt lat="44.47186606312832" lon="9.92843721385418"><ele>1042.0</ele><time>2026-04-18T11:14:18.029Z</time></trkpt><trkpt lat="44.47159955124652" lon="9.92862281442579"><ele>1042.0</ele><time>2026-04-18T11:14:27.028Z</time></trkpt><trkpt lat="44.471679918955516" lon="9.928581384678976"><ele>1042.0</ele><time>2026-04-18T11:14:29.029Z</time></trkpt><trkpt lat="44.47173788724002" lon="9.928538991420293"><ele>1042.0</ele><time>2026-04-18T11:15:27.013Z</time></trkpt><trkpt lat="44.47179283848482" lon="9.928294485383729"><ele>1042.0</ele><time>2026-04-18T11:15:32.013Z</time></trkpt><trkpt lat="44.471779209474434" lon="9.92840915197018"><ele>1042.0</ele><time>2026-04-18T11:15:34.013Z</time></trkpt><trkpt lat="44.47173295299017" lon="9.92850967835744"><ele>1042.0</ele><time>2026-04-18T11:15:38.014Z</time></trkpt><trkpt lat="44.4718053200379" lon="9.92882740094494"><ele>1042.0</ele><time>2026-04-18T11:15:56.06Z</time></trkpt><trkpt lat="44.4717031278083" lon="9.928485789623558"><ele>1042.0</ele><time>2026-04-18T11:16:03.01Z</time></trkpt><trkpt lat="44.47171147219953" lon="9.928839832066743"><ele>1042.0</ele><time>2026-04-18T11:16:23.017Z</time></trkpt><trkpt lat="44.47176570936844" lon="9.928792188607153"><ele>1042.0</ele><time>2026-04-18T11:18:10.998Z</time></trkpt><trkpt lat="44.47181070586375" lon="9.928612791251906"><ele>1042.0</ele><time>2026-04-18T11:18:13.998Z</time></trkpt><trkpt lat="44.4717466147036" lon="9.928568012376498"><ele>1042.0</ele><time>2026-04-18T11:18:22.998Z</time></trkpt><trkpt lat="44.471743713996716" lon="9.928479787559152"><ele>1042.0</ele><time>2026-04-18T11:18:32.998Z</time></trkpt><trkpt lat="44.47172140935411" lon="9.92837653710822"><ele>1042.0</ele><time>2026-04-18T11:18:35.998Z</time></trkpt><trkpt lat="44.471670661178464" lon="9.928307958852459"><ele>1042.0</ele><time>2026-04-18T11:18:40Z</time></trkpt><trkpt lat="44.47174573080875" lon="9.928323612239565"><ele>1042.0</ele><time>2026-04-18T11:18:42Z</time></trkpt><trkpt lat="44.471796167935146" lon="9.928255368291962"><ele>1042.0</ele><time>2026-04-18T11:18:46Z</time></trkpt><trkpt lat="44.471863789048854" lon="9.928207262398878"><ele>1041.3333333333333</ele><time>2026-04-18T11:18:50Z</time></trkpt><trkpt lat="44.4718249644425" lon="9.928117239130316"><ele>1040.6666666666665</ele><time>2026-04-18T11:18:51Z</time></trkpt><trkpt lat="44.471787710038996" lon="9.928028982708485"><ele>1040.0</ele><time>2026-04-18T11:18:53Z</time></trkpt><trkpt lat="44.47177684879657" lon="9.927935495352557"><ele>1039.3333333333333</ele><time>2026-04-18T11:18:55Z</time></trkpt><trkpt lat="44.47191480235818" lon="9.927927736894471"><ele>1038.6666666666667</ele><time>2026-04-18T11:19:10Z</time></trkpt><trkpt lat="44.47197689090342" lon="9.927909297716502"><ele>1038.0</ele><time>2026-04-18T11:20:15.998Z</time></trkpt><trkpt lat="44.47190558360212" lon="9.92803017388665"><ele>1038.0</ele><time>2026-04-18T11:20:25.998Z</time></trkpt><trkpt lat="44.47187345938314" lon="9.928106892062551"><ele>1038.0</ele><time>2026-04-18T11:20:57.021Z</time></trkpt><trkpt lat="44.47184506453232" lon="9.92834115825398"><ele>1038.0</ele><time>2026-04-18T11:21:35.423Z</time></trkpt><trkpt lat="44.47183496785173" lon="9.928571063609127"><ele>1038.0</ele><time>2026-04-18T11:22:01.413Z</time></trkpt><trkpt lat="44.47183159938903" lon="9.928812777959482"><ele>1038.8</ele><time>2026-04-18T11:22:56.403Z</time></trkpt><trkpt lat="44.4718437507975" lon="9.928966110242301"><ele>1039.6</ele><time>2026-04-18T11:23:02.41Z</time></trkpt><trkpt lat="44.47169596905572" lon="9.928882326961514"><ele>1040.4</ele><time>2026-04-18T11:23:06.012Z</time></trkpt><trkpt lat="44.47175790403035" lon="9.92886336623366"><ele>1041.2</ele><time>2026-04-18T11:23:26.014Z</time></trkpt><trkpt lat="44.471778214283866" lon="9.92873614947836"><ele>1042.0</ele><time>2026-04-18T11:24:08.014Z</time></trkpt><trkpt lat="44.471816309415814" lon="9.928636822954923"><ele>1042.0</ele><time>2026-04-18T11:24:59.015Z</time></trkpt><trkpt lat="44.47176052910383" lon="9.928744517474025"><ele>1042.0</ele><time>2026-04-18T11:25:05.995Z</time></trkpt><trkpt lat="44.47176401790706" lon="9.92864126970192"><ele>1042.0</ele><time>2026-04-18T11:35:22.998Z</time></trkpt><trkpt lat="44.47179530676212" lon="9.928534857037478"><ele>1042.0</ele><time>2026-04-18T11:35:25.998Z</time></trkpt><trkpt lat="44.47179010830974" lon="9.928636812808563"><ele>1042.0</ele><time>2026-04-18T11:35:29.998Z</time></trkpt><trkpt lat="44.47174564541258" lon="9.928750040837752"><ele>1042.0</ele><time>2026-04-18T11:38:44.999Z</time></trkpt><trkpt lat="44.47180938670246" lon="9.92876739692297"><ele>1042.0</ele><time>2026-04-18T11:38:55.999Z</time></trkpt><trkpt lat="44.47174530967634" lon="9.928760718348574"><ele>1042.0</ele><time>2026-04-18T11:40:43.999Z</time></trkpt><trkpt lat="44.47172129539638" lon="9.928858656492947"><ele>1042.0</ele><time>2026-04-18T11:41:13.998Z</time></trkpt><trkpt lat="44.471760277866956" lon="9.928968088282803"><ele>1042.0</ele><time>2026-04-18T11:41:16.998Z</time></trkpt><trkpt lat="44.47179888495008" lon="9.929070863654227"><ele>1042.0</ele><time>2026-04-18T11:41:18.998Z</time></trkpt><trkpt lat="44.471834845867846" lon="9.929179682593304"><ele>1042.0</ele><time>2026-04-18T11:41:20.998Z</time></trkpt><trkpt lat="44.47189329755249" lon="9.929286622742547"><ele>1044.2</ele><time>2026-04-18T11:41:22.998Z</time></trkpt><trkpt lat="44.4719271302248" lon="9.92938993246515"><ele>1046.4</ele><time>2026-04-18T11:41:24.998Z</time></trkpt><trkpt lat="44.47196311456155" lon="9.929494368892486"><ele>1048.6</ele><time>2026-04-18T11:41:26.998Z</time></trkpt><trkpt lat="44.4720092038534" lon="9.929611127396516"><ele>1050.8</ele><time>2026-04-18T11:41:28.998Z</time></trkpt><trkpt lat="44.472060583794324" lon="9.929734601469725"><ele>1053.0</ele><time>2026-04-18T11:41:30.998Z</time></trkpt><trkpt lat="44.47211485745073" lon="9.929853916164713"><ele>1049.0</ele><time>2026-04-18T11:41:32.998Z</time></trkpt><trkpt lat="44.472167162670004" lon="9.929985536987967"><ele>1045.0</ele><time>2026-04-18T11:41:34.998Z</time></trkpt><trkpt lat="44.47222638572347" lon="9.93012346221895"><ele>1041.0</ele><time>2026-04-18T11:41:36.998Z</time></trkpt><trkpt lat="44.47228069599213" lon="9.930268440417192"><ele>1037.0</ele><time>2026-04-18T11:41:38.998Z</time></trkpt><trkpt lat="44.472308219653705" lon="9.93034820656471"><ele>1033.0</ele><time>2026-04-18T11:41:39.998Z</time></trkpt><trkpt lat="44.4723366719074" lon="9.930427310773146"><ele>1033.0</ele><time>2026-04-18T11:41:40.998Z</time></trkpt><trkpt lat="44.47236551158407" lon="9.930508843188946"><ele>1033.0</ele><time>2026-04-18T11:41:41.998Z</time></trkpt><trkpt lat="44.47239185276071" lon="9.930593786193755"><ele>1033.0</ele><time>2026-04-18T11:41:42.998Z</time></trkpt><trkpt lat="44.47242520357362" lon="9.930766682460343"><ele>1033.0</ele><time>2026-04-18T11:41:44.998Z</time></trkpt><trkpt lat="44.47243525942378" lon="9.930866463240832"><ele>1033.0</ele><time>2026-04-18T11:41:45.998Z</time></trkpt><trkpt lat="44.47244471588337" lon="9.930966759645246"><ele>1033.0</ele><time>2026-04-18T11:41:46.998Z</time></trkpt><trkpt lat="44.472450256301045" lon="9.931071074632413"><ele>1031.8333333333333</ele><time>2026-04-18T11:41:47.998Z</time></trkpt><trkpt lat="44.47244622580507" lon="9.931175459529458"><ele>1030.6666666666665</ele><time>2026-04-18T11:41:48.998Z</time></trkpt><trkpt lat="44.472439603447334" lon="9.931283271968066"><ele>1029.5</ele><time>2026-04-18T11:41:49.998Z</time></trkpt><trkpt lat="44.47243111076466" lon="9.931390475526701"><ele>1028.3333333333333</ele><time>2026-04-18T11:41:50.998Z</time></trkpt><trkpt lat="44.4724100327785" lon="9.931494013710255"><ele>1027.1666666666667</ele><time>2026-04-18T11:41:51.998Z</time></trkpt><trkpt lat="44.47239047034857" lon="9.931602438306303"><ele>1026.0</ele><time>2026-04-18T11:41:53Z</time></trkpt><trkpt lat="44.4723653137869" lon="9.931708597567411"><ele>1024.3333333333333</ele><time>2026-04-18T11:41:54Z</time></trkpt><trkpt lat="44.47233851321679" lon="9.931810510762512"><ele>1022.6666666666667</ele><time>2026-04-18T11:41:55Z</time></trkpt><trkpt lat="44.472314076606246" lon="9.931914133667076"><ele>1021.0</ele><time>2026-04-18T11:41:56Z</time></trkpt><trkpt lat="44.47229030345128" lon="9.932018472119164"><ele>1019.3333333333334</ele><time>2026-04-18T11:41:57Z</time></trkpt><trkpt lat="44.472265131703395" lon="9.93212545085233"><ele>1017.6666666666667</ele><time>2026-04-18T11:41:58Z</time></trkpt><trkpt lat="44.472237319895775" lon="9.932233172040904"><ele>1016.0</ele><time>2026-04-18T11:41:59Z</time></trkpt><trkpt lat="44.47221295605278" lon="9.93234640075987"><ele>1016.0000000000001</ele><time>2026-04-18T11:42:00Z</time></trkpt><trkpt lat="44.472189089968715" lon="9.932461257036818"><ele>1016.0</ele><time>2026-04-18T11:42:01Z</time></trkpt><trkpt lat="44.47216221147937" lon="9.932575515999101"><ele>1016.0</ele><time>2026-04-18T11:42:02Z</time></trkpt><trkpt lat="44.4721333804198" lon="9.932688898443677"><ele>1016.0</ele><time>2026-04-18T11:42:03Z</time></trkpt><trkpt lat="44.47210225918636" lon="9.932801608097305"><ele>1016.0000000000001</ele><time>2026-04-18T11:42:04Z</time></trkpt><trkpt lat="44.472063914321886" lon="9.932910351737412"><ele>1016.0</ele><time>2026-04-18T11:42:05Z</time></trkpt><trkpt lat="44.47201970094407" lon="9.933014718879607"><ele>1017.5000000000001</ele><time>2026-04-18T11:42:06Z</time></trkpt><trkpt lat="44.47197608532515" lon="9.933120396807379"><ele>1019.0</ele><time>2026-04-18T11:42:07Z</time></trkpt><trkpt lat="44.47192859506689" lon="9.93322333801925"><ele>1020.5</ele><time>2026-04-18T11:42:08Z</time></trkpt><trkpt lat="44.471883701540776" lon="9.93332919246133"><ele>1022.0</ele><time>2026-04-18T11:42:09Z</time></trkpt><trkpt lat="44.47183883677587" lon="9.933431006072063"><ele>1023.5000000000001</ele><time>2026-04-18T11:42:10Z</time></trkpt><trkpt lat="44.47179250146482" lon="9.933536438769002"><ele>1025.0</ele><time>2026-04-18T11:42:10.999Z</time></trkpt><trkpt lat="44.47174891654901" lon="9.933644782950301"><ele>1025.0</ele><time>2026-04-18T11:42:11.999Z</time></trkpt><trkpt lat="44.47170484080636" lon="9.933754370762232"><ele>1025.0</ele><time>2026-04-18T11:42:12.999Z</time></trkpt><trkpt lat="44.47165856109473" lon="9.933857875374272"><ele>1025.0</ele><time>2026-04-18T11:42:13.999Z</time></trkpt><trkpt lat="44.47161255286115" lon="9.933962729968805"><ele>1025.0</ele><time>2026-04-18T11:42:14.999Z</time></trkpt><trkpt lat="44.4715685795185" lon="9.934068505125158"><ele>1025.0</ele><time>2026-04-18T11:42:15.999Z</time></trkpt><trkpt lat="44.47153161670602" lon="9.934174566223591"><ele>1025.0</ele><time>2026-04-18T11:42:16.999Z</time></trkpt><trkpt lat="44.471495737300025" lon="9.934276289619115"><ele>1024.0</ele><time>2026-04-18T11:42:17.999Z</time></trkpt><trkpt lat="44.47146247176878" lon="9.934378912772717"><ele>1023.0</ele><time>2026-04-18T11:42:18.999Z</time></trkpt><trkpt lat="44.47144124284912" lon="9.93448877066342"><ele>1022.0</ele><time>2026-04-18T11:42:19.999Z</time></trkpt><trkpt lat="44.47143011702869" lon="9.93460364708695"><ele>1021.0</ele><time>2026-04-18T11:42:20.999Z</time></trkpt><trkpt lat="44.471411820362725" lon="9.934717536522797"><ele>1020.0000000000001</ele><time>2026-04-18T11:42:21.999Z</time></trkpt><trkpt lat="44.471403570020236" lon="9.934825090536851"><ele>1019.0</ele><time>2026-04-18T11:42:22.999Z</time></trkpt><trkpt lat="44.47139804257908" lon="9.934926678782842"><ele>1019.0000000000001</ele><time>2026-04-18T11:42:23.999Z</time></trkpt><trkpt lat="44.47142044258943" lon="9.935022701233017"><ele>1019.0</ele><time>2026-04-18T11:42:24.999Z</time></trkpt><trkpt lat="44.47145699045426" lon="9.935103872690442"><ele>1019.0000000000001</ele><time>2026-04-18T11:42:25.999Z</time></trkpt><trkpt lat="44.471519913393365" lon="9.93515451288316"><ele>1019.0000000000001</ele><time>2026-04-18T11:42:26.999Z</time></trkpt><trkpt lat="44.471594942441776" lon="9.935172192005458"><ele>1019.0</ele><time>2026-04-18T11:42:27.999Z</time></trkpt><trkpt lat="44.471670758696234" lon="9.93519013103301"><ele>1019.0000000000001</ele><time>2026-04-18T11:42:28.999Z</time></trkpt><trkpt lat="44.47174662231022" lon="9.935190498137242"><ele>1019.0000000000001</ele><time>2026-04-18T11:42:29.999Z</time></trkpt><trkpt lat="44.47181598384731" lon="9.935187555855691"><ele>1019.3333333333334</ele><time>2026-04-18T11:42:30.999Z</time></trkpt><trkpt lat="44.47194028376432" lon="9.935199606031244"><ele>1019.6666666666667</ele><time>2026-04-18T11:42:32.999Z</time></trkpt><trkpt lat="44.47200465991134" lon="9.935232089853478"><ele>1020.0</ele><time>2026-04-18T11:42:33.999Z</time></trkpt><trkpt lat="44.47206392529738" lon="9.935263106288835"><ele>1020.3333333333333</ele><time>2026-04-18T11:42:34.999Z</time></trkpt><trkpt lat="44.47211335816152" lon="9.93532392686313"><ele>1020.6666666666666</ele><time>2026-04-18T11:42:35.999Z</time></trkpt><trkpt lat="44.47216552172465" lon="9.935393487869918"><ele>1021.0</ele><time>2026-04-18T11:42:36.999Z</time></trkpt><trkpt lat="44.47221656953886" lon="9.935458702862686"><ele>1021.0</ele><time>2026-04-18T11:42:37.999Z</time></trkpt><trkpt lat="44.472267980124144" lon="9.935513424856042"><ele>1021.0</ele><time>2026-04-18T11:42:38.999Z</time></trkpt><trkpt lat="44.47231848727571" lon="9.935569677538172"><ele>1021.0</ele><time>2026-04-18T11:42:39.999Z</time></trkpt><trkpt lat="44.47236733393017" lon="9.935630196469962"><ele>1021.0</ele><time>2026-04-18T11:42:40.999Z</time></trkpt><trkpt lat="44.472416121547575" lon="9.935692670486537"><ele>1021.0</ele><time>2026-04-18T11:42:41.999Z</time></trkpt><trkpt lat="44.472467662801265" lon="9.935753793327283"><ele>1021.0</ele><time>2026-04-18T11:42:42.999Z</time></trkpt><trkpt lat="44.47252248829355" lon="9.935809995413653"><ele>1021.0</ele><time>2026-04-18T11:42:43.999Z</time></trkpt><trkpt lat="44.47257293165039" lon="9.93586771815059"><ele>1022.5999999999999</ele><time>2026-04-18T11:42:44.999Z</time></trkpt><trkpt lat="44.472620416737136" lon="9.935927690669228"><ele>1024.1999999999998</ele><time>2026-04-18T11:42:45.999Z</time></trkpt><trkpt lat="44.47270814189254" lon="9.936051959253248"><ele>1025.8000000000002</ele><time>2026-04-18T11:42:47.999Z</time></trkpt><trkpt lat="44.47274481229204" lon="9.936126214377419"><ele>1027.4</ele><time>2026-04-18T11:42:48.999Z</time></trkpt><trkpt lat="44.4727947761728" lon="9.936289056758937"><ele>1029.0</ele><time>2026-04-18T11:42:50.999Z</time></trkpt><trkpt lat="44.47280673270271" lon="9.936387307737306"><ele>1029.0</ele><time>2026-04-18T11:42:51.999Z</time></trkpt><trkpt lat="44.47280511997366" lon="9.93648259092332"><ele>1029.0</ele><time>2026-04-18T11:42:52.999Z</time></trkpt><trkpt lat="44.47279503602066" lon="9.93657658224146"><ele>1029.0</ele><time>2026-04-18T11:42:53.999Z</time></trkpt><trkpt lat="44.47277566678172" lon="9.936665351799885"><ele>1029.0</ele><time>2026-04-18T11:42:54.999Z</time></trkpt><trkpt lat="44.47275241709288" lon="9.936749362443692"><ele>1029.0</ele><time>2026-04-18T11:42:55.999Z</time></trkpt><trkpt lat="44.47272501420613" lon="9.93683219439898"><ele>1029.0</ele><time>2026-04-18T11:42:56.999Z</time></trkpt><trkpt lat="44.4727002450085" lon="9.93691463326799"><ele>1029.0</ele><time>2026-04-18T11:42:57.999Z</time></trkpt><trkpt lat="44.472676409984246" lon="9.936997697624397"><ele>1028.6000000000001</ele><time>2026-04-18T11:42:58.999Z</time></trkpt><trkpt lat="44.47265686537819" lon="9.937081842418186"><ele>1028.2</ele><time>2026-04-18T11:42:59.999Z</time></trkpt><trkpt lat="44.472629513904785" lon="9.937250145255646"><ele>1027.8000000000002</ele><time>2026-04-18T11:43:01.999Z</time></trkpt><trkpt lat="44.4726166577988" lon="9.937425616535375"><ele>1027.4</ele><time>2026-04-18T11:43:03.999Z</time></trkpt><trkpt lat="44.472600467992805" lon="9.937597948971227"><ele>1027.0</ele><time>2026-04-18T11:43:05.999Z</time></trkpt><trkpt lat="44.47259310532196" lon="9.937686154505622"><ele>1026.4285714285716</ele><time>2026-04-18T11:43:06.999Z</time></trkpt><trkpt lat="44.47257727516297" lon="9.937861860974285"><ele>1025.857142857143</ele><time>2026-04-18T11:43:08.998Z</time></trkpt><trkpt lat="44.472567784519285" lon="9.937950173227485"><ele>1025.2857142857142</ele><time>2026-04-18T11:43:09.998Z</time></trkpt><trkpt lat="44.47255652213017" lon="9.938037730328372"><ele>1024.7142857142858</ele><time>2026-04-18T11:43:10.998Z</time></trkpt><trkpt lat="44.472550077288204" lon="9.938128595076932"><ele>1024.142857142857</ele><time>2026-04-18T11:43:11.998Z</time></trkpt><trkpt lat="44.47254222011394" lon="9.938219874172868"><ele>1023.5714285714287</ele><time>2026-04-18T11:43:12.998Z</time></trkpt><trkpt lat="44.472532658611954" lon="9.938310037602623"><ele>1023.0</ele><time>2026-04-18T11:43:13.998Z</time></trkpt><trkpt lat="44.47252262480979" lon="9.938401019385012"><ele>1022.1666666666666</ele><time>2026-04-18T11:43:14.998Z</time></trkpt><trkpt lat="44.47251385840102" lon="9.938489823497362"><ele>1021.3333333333333</ele><time>2026-04-18T11:43:15.998Z</time></trkpt><trkpt lat="44.472493051920814" lon="9.938579569156367"><ele>1020.5</ele><time>2026-04-18T11:43:16.998Z</time></trkpt><trkpt lat="44.472460378332926" lon="9.938657756292235"><ele>1019.6666666666666</ele><time>2026-04-18T11:43:17.998Z</time></trkpt><trkpt lat="44.472417090817316" lon="9.938728109322764"><ele>1018.8333333333333</ele><time>2026-04-18T11:43:18.998Z</time></trkpt><trkpt lat="44.47236632248764" lon="9.9387883158182"><ele>1018.0</ele><time>2026-04-18T11:43:19.998Z</time></trkpt><trkpt lat="44.47226146223286" lon="9.938885111151006"><ele>1017.9999999999999</ele><time>2026-04-18T11:43:21.998Z</time></trkpt><trkpt lat="44.47217784861455" lon="9.939015831575643"><ele>1018.0</ele><time>2026-04-18T11:43:23.998Z</time></trkpt><trkpt lat="44.472148655267816" lon="9.939096489346952"><ele>1018.0</ele><time>2026-04-18T11:43:24.998Z</time></trkpt><trkpt lat="44.47214081526073" lon="9.939190259435227"><ele>1018.0</ele><time>2026-04-18T11:43:25.998Z</time></trkpt><trkpt lat="44.47215006745148" lon="9.939282481563968"><ele>1017.9999999999999</ele><time>2026-04-18T11:43:26.998Z</time></trkpt><trkpt lat="44.472168981866886" lon="9.939367457901884"><ele>1018.0</ele><time>2026-04-18T11:43:27.998Z</time></trkpt><trkpt lat="44.47219166571901" lon="9.93945127341762"><ele>1018.6666666666666</ele><time>2026-04-18T11:43:28.998Z</time></trkpt><trkpt lat="44.47221101352306" lon="9.939545455202174"><ele>1019.3333333333333</ele><time>2026-04-18T11:43:29.998Z</time></trkpt><trkpt lat="44.472221742911685" lon="9.939638232744446"><ele>1020.0</ele><time>2026-04-18T11:43:30.998Z</time></trkpt><trkpt lat="44.472237382833654" lon="9.93973306950253"><ele>1020.6666666666667</ele><time>2026-04-18T11:43:31.998Z</time></trkpt><trkpt lat="44.472279652621005" lon="9.939899331189638"><ele>1021.3333333333334</ele><time>2026-04-18T11:43:33.998Z</time></trkpt><trkpt lat="44.47231252087536" lon="9.93997638012658"><ele>1022.0</ele><time>2026-04-18T11:43:34.998Z</time></trkpt><trkpt lat="44.47241005769082" lon="9.940083023733342"><ele>1024.4285714285713</ele><time>2026-04-18T11:43:36.998Z</time></trkpt><trkpt lat="44.4724691779968" lon="9.940120066482086"><ele>1026.857142857143</ele><time>2026-04-18T11:43:37.998Z</time></trkpt><trkpt lat="44.472531046805564" lon="9.940142545119198"><ele>1029.2857142857142</ele><time>2026-04-18T11:43:38.998Z</time></trkpt><trkpt lat="44.47259553180432" lon="9.940161204393938"><ele>1031.7142857142858</ele><time>2026-04-18T11:43:39.998Z</time></trkpt><trkpt lat="44.472658340362656" lon="9.940170185299893"><ele>1034.142857142857</ele><time>2026-04-18T11:43:40.998Z</time></trkpt><trkpt lat="44.47273023730724" lon="9.940188018157722"><ele>1036.5714285714284</ele><time>2026-04-18T11:43:41.998Z</time></trkpt><trkpt lat="44.47280872689823" lon="9.940206704004185"><ele>1039.0</ele><time>2026-04-18T11:43:42.998Z</time></trkpt><trkpt lat="44.472886698017525" lon="9.940228298780635"><ele>1037.5</ele><time>2026-04-18T11:43:43.998Z</time></trkpt><trkpt lat="44.472968543905495" lon="9.940239618738142"><ele>1036.0</ele><time>2026-04-18T11:43:44.998Z</time></trkpt><trkpt lat="44.47305238670018" lon="9.940244867909648"><ele>1034.5</ele><time>2026-04-18T11:43:45.998Z</time></trkpt><trkpt lat="44.473138631241355" lon="9.940247881314333"><ele>1033.0</ele><time>2026-04-18T11:43:46.998Z</time></trkpt><trkpt lat="44.473226249027526" lon="9.940255288041804"><ele>1031.5</ele><time>2026-04-18T11:43:47.998Z</time></trkpt><trkpt lat="44.473312320734" lon="9.940282164460648"><ele>1030.0</ele><time>2026-04-18T11:43:48.998Z</time></trkpt><trkpt lat="44.4733951017472" lon="9.940333411827043"><ele>1030.0</ele><time>2026-04-18T11:43:49.998Z</time></trkpt><trkpt lat="44.473473090862306" lon="9.94040700598965"><ele>1030.0</ele><time>2026-04-18T11:43:50.998Z</time></trkpt><trkpt lat="44.473540174180854" lon="9.94050749956177"><ele>1030.0</ele><time>2026-04-18T11:43:51.998Z</time></trkpt><trkpt lat="44.473599183880296" lon="9.940619274833097"><ele>1030.0</ele><time>2026-04-18T11:43:52.998Z</time></trkpt><trkpt lat="44.47365229850337" lon="9.940742171198034"><ele>1030.0</ele><time>2026-04-18T11:43:53.998Z</time></trkpt><trkpt lat="44.473706536923245" lon="9.940860472665705"><ele>1032.8</ele><time>2026-04-18T11:43:54.998Z</time></trkpt><trkpt lat="44.47376621018415" lon="9.940972129726235"><ele>1035.6</ele><time>2026-04-18T11:43:55.998Z</time></trkpt><trkpt lat="44.473825388973374" lon="9.941078583244728"><ele>1038.4</ele><time>2026-04-18T11:43:56.998Z</time></trkpt><trkpt lat="44.47389047627428" lon="9.941170278610224"><ele>1041.2</ele><time>2026-04-18T11:43:57.998Z</time></trkpt><trkpt lat="44.47396407159984" lon="9.94125308684335"><ele>1044.0</ele><time>2026-04-18T11:43:59Z</time></trkpt><trkpt lat="44.4740477889801" lon="9.941318779671407"><ele>1038.5</ele><time>2026-04-18T11:44:00Z</time></trkpt><trkpt lat="44.47413817192825" lon="9.941372594599057"><ele>1033.0</ele><time>2026-04-18T11:44:01Z</time></trkpt><trkpt lat="44.47421615517067" lon="9.941427025450077"><ele>1027.5</ele><time>2026-04-18T11:44:02Z</time></trkpt><trkpt lat="44.4742640335481" lon="9.941502961916767"><ele>1022.0</ele><time>2026-04-18T11:44:03Z</time></trkpt><trkpt lat="44.47428077933645" lon="9.941598203979918"><ele>1016.5</ele><time>2026-04-18T11:44:04Z</time></trkpt><trkpt lat="44.474231745995326" lon="9.941720318033688"><ele>1011.0</ele><time>2026-04-18T11:44:05Z</time></trkpt><trkpt lat="44.47415491329551" lon="9.94177713980542"><ele>1008.5999999999999</ele><time>2026-04-18T11:44:06Z</time></trkpt><trkpt lat="44.4740852704516" lon="9.941879872360882"><ele>1006.1999999999999</ele><time>2026-04-18T11:44:07Z</time></trkpt><trkpt lat="44.47399706163105" lon="9.94194656420976"><ele>1003.8000000000001</ele><time>2026-04-18T11:44:08Z</time></trkpt><trkpt lat="44.473927933435604" lon="9.942026893257852"><ele>1001.4000000000001</ele><time>2026-04-18T11:44:09Z</time></trkpt><trkpt lat="44.473855272939375" lon="9.942104765109114"><ele>999.0</ele><time>2026-04-18T11:44:10Z</time></trkpt><trkpt lat="44.473785501915835" lon="9.942189409003085"><ele>1003.2</ele><time>2026-04-18T11:44:11Z</time></trkpt><trkpt lat="44.47371222221056" lon="9.942271850705161"><ele>1007.4000000000001</ele><time>2026-04-18T11:44:12Z</time></trkpt><trkpt lat="44.47365576771665" lon="9.942380055076647"><ele>1011.6</ele><time>2026-04-18T11:44:13Z</time></trkpt><trkpt lat="44.47360071697696" lon="9.942496016790265"><ele>1015.8</ele><time>2026-04-18T11:44:14Z</time></trkpt><trkpt lat="44.47355165761174" lon="9.942602532923182"><ele>1020.0</ele><time>2026-04-18T11:44:15Z</time></trkpt><trkpt lat="44.47354112103518" lon="9.942747086478827"><ele>1020.0</ele><time>2026-04-18T11:44:16Z</time></trkpt><trkpt lat="44.473523411375766" lon="9.942872860960238"><ele>1020.0</ele><time>2026-04-18T11:44:17Z</time></trkpt><trkpt lat="44.473514972180276" lon="9.943007009787836"><ele>1020.0</ele><time>2026-04-18T11:44:18Z</time></trkpt><trkpt lat="44.473515495218315" lon="9.943146592742425"><ele>1020.0</ele><time>2026-04-18T11:44:19Z</time></trkpt><trkpt lat="44.47352757273671" lon="9.94328464273161"><ele>1020.0</ele><time>2026-04-18T11:44:19.999Z</time></trkpt><trkpt lat="44.473557938742374" lon="9.943418884649347"><ele>1019.6</ele><time>2026-04-18T11:44:20.999Z</time></trkpt><trkpt lat="44.47361564344867" lon="9.943551105399848"><ele>1019.2</ele><time>2026-04-18T11:44:21.999Z</time></trkpt><trkpt lat="44.47368257202561" lon="9.943678070311947"><ele>1018.8</ele><time>2026-04-18T11:44:22.999Z</time></trkpt><trkpt lat="44.47374706692019" lon="9.943803523335626"><ele>1018.4</ele><time>2026-04-18T11:44:23.999Z</time></trkpt><trkpt lat="44.47379779547737" lon="9.943942177137478"><ele>1018.0</ele><time>2026-04-18T11:44:24.999Z</time></trkpt><trkpt lat="44.473851242399604" lon="9.944073178560028"><ele>1015.5999999999999</ele><time>2026-04-18T11:44:25.999Z</time></trkpt><trkpt lat="44.47390861725589" lon="9.944210237955643"><ele>1013.1999999999999</ele><time>2026-04-18T11:44:26.999Z</time></trkpt><trkpt lat="44.47396214119261" lon="9.94435101461603"><ele>1010.8</ele><time>2026-04-18T11:44:27.999Z</time></trkpt><trkpt lat="44.4740132029246" lon="9.944490293886984"><ele>1008.4</ele><time>2026-04-18T11:44:28.999Z</time></trkpt><trkpt lat="44.47404945540831" lon="9.94462626410579"><ele>1006.0</ele><time>2026-04-18T11:44:29.999Z</time></trkpt><trkpt lat="44.474084326459774" lon="9.944758710797949"><ele>1006.0</ele><time>2026-04-18T11:44:30.999Z</time></trkpt><trkpt lat="44.47411081914704" lon="9.9448926107787"><ele>1005.9999999999999</ele><time>2026-04-18T11:44:31.999Z</time></trkpt><trkpt lat="44.474147213023755" lon="9.945027329656618"><ele>1005.9999999999999</ele><time>2026-04-18T11:44:32.999Z</time></trkpt><trkpt lat="44.474174182717384" lon="9.945162642201254"><ele>1006.0</ele><time>2026-04-18T11:44:33.999Z</time></trkpt><trkpt lat="44.47420760987355" lon="9.945301051749746"><ele>1006.0</ele><time>2026-04-18T11:44:34.999Z</time></trkpt><trkpt lat="44.474234476290384" lon="9.94543987205951"><ele>1006.5999999999999</ele><time>2026-04-18T11:44:35.999Z</time></trkpt><trkpt lat="44.474260731028956" lon="9.945580831140903"><ele>1007.1999999999999</ele><time>2026-04-18T11:44:36.999Z</time></trkpt><trkpt lat="44.47428653847439" lon="9.94572337104765"><ele>1007.8000000000001</ele><time>2026-04-18T11:44:37.999Z</time></trkpt><trkpt lat="44.47431142038249" lon="9.945862525295974"><ele>1008.4000000000001</ele><time>2026-04-18T11:44:38.999Z</time></trkpt><trkpt lat="44.4743375384975" lon="9.946010854645701"><ele>1009.0</ele><time>2026-04-18T11:44:39.999Z</time></trkpt><trkpt lat="44.474388213802754" lon="9.946139189433286"><ele>1008.0</ele><time>2026-04-18T11:44:40.999Z</time></trkpt><trkpt lat="44.474463676187995" lon="9.946241606000212"><ele>1007.0000000000001</ele><time>2026-04-18T11:44:41.999Z</time></trkpt><trkpt lat="44.47455453957826" lon="9.94631483876734"><ele>1006.0000000000001</ele><time>2026-04-18T11:44:42.999Z</time></trkpt><trkpt lat="44.47464595395074" lon="9.94635994401316"><ele>1005.0</ele><time>2026-04-18T11:44:43.999Z</time></trkpt><trkpt lat="44.474747105869156" lon="9.94639852391219"><ele>1004.0</ele><time>2026-04-18T11:44:44.999Z</time></trkpt><trkpt lat="44.47484977931743" lon="9.946437009036439"><ele>1004.0</ele><time>2026-04-18T11:44:45.999Z</time></trkpt><trkpt lat="44.47496163954263" lon="9.946477971599348"><ele>1004.0000000000001</ele><time>2026-04-18T11:44:46.999Z</time></trkpt><trkpt lat="44.47506503483302" lon="9.946510054804419"><ele>1004.0000000000001</ele><time>2026-04-18T11:44:47.999Z</time></trkpt><trkpt lat="44.47517454399149" lon="9.946539160180276"><ele>1004.0</ele><time>2026-04-18T11:44:48.999Z</time></trkpt><trkpt lat="44.47528070346407" lon="9.946547023604717"><ele>1004.0</ele><time>2026-04-18T11:44:49.999Z</time></trkpt><trkpt lat="44.47538315529952" lon="9.946554798412667"><ele>1005.2</ele><time>2026-04-18T11:44:50.999Z</time></trkpt><trkpt lat="44.47549256964695" lon="9.946570638019837"><ele>1006.4000000000001</ele><time>2026-04-18T11:44:51.999Z</time></trkpt><trkpt lat="44.47559971923871" lon="9.94660038782968"><ele>1007.6</ele><time>2026-04-18T11:44:52.999Z</time></trkpt><trkpt lat="44.47570040508695" lon="9.946641097797725"><ele>1008.8</ele><time>2026-04-18T11:44:53.999Z</time></trkpt><trkpt lat="44.47579259014295" lon="9.946693246196306"><ele>1010.0</ele><time>2026-04-18T11:44:54.999Z</time></trkpt><trkpt lat="44.4758899251644" lon="9.946749456587199"><ele>1010.0</ele><time>2026-04-18T11:44:55.999Z</time></trkpt><trkpt lat="44.47598584812701" lon="9.946801871915117"><ele>1010.0</ele><time>2026-04-18T11:44:56.999Z</time></trkpt><trkpt lat="44.476081918362596" lon="9.94685659328005"><ele>1010.0</ele><time>2026-04-18T11:44:57.999Z</time></trkpt><trkpt lat="44.47617857947896" lon="9.946904899816952"><ele>1010.0</ele><time>2026-04-18T11:44:58.999Z</time></trkpt><trkpt lat="44.476273263222986" lon="9.94695610684157"><ele>1010.0</ele><time>2026-04-18T11:44:59.999Z</time></trkpt><trkpt lat="44.4763663135795" lon="9.947008870334056"><ele>1009.2</ele><time>2026-04-18T11:45:00.999Z</time></trkpt><trkpt lat="44.47644672188813" lon="9.947087762814492"><ele>1008.4</ele><time>2026-04-18T11:45:01.999Z</time></trkpt><trkpt lat="44.476512185787186" lon="9.947178882628544"><ele>1007.5999999999999</ele><time>2026-04-18T11:45:02.999Z</time></trkpt><trkpt lat="44.476576619256086" lon="9.947299102459834"><ele>1006.8</ele><time>2026-04-18T11:45:03.999Z</time></trkpt><trkpt lat="44.476633655141946" lon="9.947424201112925"><ele>1006.0</ele><time>2026-04-18T11:45:04.999Z</time></trkpt><trkpt lat="44.4766881824084" lon="9.947554024739475"><ele>1006.0</ele><time>2026-04-18T11:45:05.999Z</time></trkpt><trkpt lat="44.47673189099439" lon="9.947696644288918"><ele>1005.9999999999999</ele><time>2026-04-18T11:45:06.999Z</time></trkpt><trkpt lat="44.47680185003898" lon="9.947821374733635"><ele>1005.9999999999999</ele><time>2026-04-18T11:45:07.999Z</time></trkpt><trkpt lat="44.47688269766576" lon="9.947923750144362"><ele>1006.0</ele><time>2026-04-18T11:45:08.999Z</time></trkpt><trkpt lat="44.47697197583199" lon="9.94801187640402"><ele>1006.0</ele><time>2026-04-18T11:45:09.999Z</time></trkpt><trkpt lat="44.477068551894256" lon="9.948084400919038"><ele>1003.8</ele><time>2026-04-18T11:45:10.999Z</time></trkpt><trkpt lat="44.47716766698813" lon="9.948144856090677"><ele>1001.5999999999999</ele><time>2026-04-18T11:45:11.999Z</time></trkpt><trkpt lat="44.47727579217589" lon="9.948192056665935"><ele>999.4</ele><time>2026-04-18T11:45:12.999Z</time></trkpt><trkpt lat="44.477378760662226" lon="9.948236803400206"><ele>997.2</ele><time>2026-04-18T11:45:13.999Z</time></trkpt><trkpt lat="44.47747124952718" lon="9.948281913021155"><ele>995.0</ele><time>2026-04-18T11:45:14.998Z</time></trkpt><trkpt lat="44.47753691107819" lon="9.94838762601621"><ele>995.0</ele><time>2026-04-18T11:45:15.998Z</time></trkpt><trkpt lat="44.477582204733984" lon="9.94851412538163"><ele>995.0</ele><time>2026-04-18T11:45:16.998Z</time></trkpt><trkpt lat="44.477625900281396" lon="9.948652739523023"><ele>995.0</ele><time>2026-04-18T11:45:17.998Z</time></trkpt><trkpt lat="44.47765541742168" lon="9.948800117905696"><ele>995.0</ele><time>2026-04-18T11:45:18.998Z</time></trkpt><trkpt lat="44.47767065285356" lon="9.948944224624253"><ele>995.0</ele><time>2026-04-18T11:45:19.998Z</time></trkpt><trkpt lat="44.47767653490019" lon="9.949086201667436"><ele>996.0</ele><time>2026-04-18T11:45:20.998Z</time></trkpt><trkpt lat="44.47766687358524" lon="9.949232305428032"><ele>997.0</ele><time>2026-04-18T11:45:21.998Z</time></trkpt><trkpt lat="44.4776612493037" lon="9.94937785320285"><ele>998.0</ele><time>2026-04-18T11:45:22.998Z</time></trkpt><trkpt lat="44.47766743941897" lon="9.949517985162194"><ele>999.0</ele><time>2026-04-18T11:45:23.998Z</time></trkpt><trkpt lat="44.477702724072735" lon="9.949641103227313"><ele>1000.0</ele><time>2026-04-18T11:45:24.998Z</time></trkpt><trkpt lat="44.477751414655124" lon="9.949772676567541"><ele>1000.0</ele><time>2026-04-18T11:45:25.998Z</time></trkpt><trkpt lat="44.47783325515674" lon="9.949882893458634"><ele>1000.0</ele><time>2026-04-18T11:45:26.998Z</time></trkpt><trkpt lat="44.47792680303728" lon="9.949969885556454"><ele>1000.0</ele><time>2026-04-18T11:45:27.998Z</time></trkpt><trkpt lat="44.47801669423677" lon="9.950034409425372"><ele>1000.0</ele><time>2026-04-18T11:45:28.998Z</time></trkpt><trkpt lat="44.47811352315376" lon="9.950089022416174"><ele>1000.0</ele><time>2026-04-18T11:45:29.998Z</time></trkpt><trkpt lat="44.478208686057364" lon="9.950122803401882"><ele>1000.6</ele><time>2026-04-18T11:45:30.998Z</time></trkpt><trkpt lat="44.47831413744787" lon="9.950123551303196"><ele>1001.2</ele><time>2026-04-18T11:45:31.998Z</time></trkpt><trkpt lat="44.47841689712952" lon="9.950108745340644"><ele>1001.8</ele><time>2026-04-18T11:45:32.998Z</time></trkpt><trkpt lat="44.47852325164416" lon="9.950092294006462"><ele>1002.4</ele><time>2026-04-18T11:45:33.998Z</time></trkpt><trkpt lat="44.478629778167765" lon="9.950074757385083"><ele>1003.0</ele><time>2026-04-18T11:45:34.998Z</time></trkpt><trkpt lat="44.47873562395883" lon="9.95005743390707"><ele>999.2</ele><time>2026-04-18T11:45:35.998Z</time></trkpt><trkpt lat="44.478838444621644" lon="9.950040799348741"><ele>995.4</ele><time>2026-04-18T11:45:36.998Z</time></trkpt><trkpt lat="44.478945036119256" lon="9.950023554737822"><ele>991.6000000000001</ele><time>2026-04-18T11:45:37.998Z</time></trkpt><trkpt lat="44.47905284947287" lon="9.95000611245234"><ele>987.8000000000001</ele><time>2026-04-18T11:45:38.998Z</time></trkpt><trkpt lat="44.479161191525904" lon="9.949988584633882"><ele>984.0</ele><time>2026-04-18T11:45:39.998Z</time></trkpt><trkpt lat="44.479270355047184" lon="9.949970923914673"><ele>984.0</ele><time>2026-04-18T11:45:40.998Z</time></trkpt><trkpt lat="44.47937942862348" lon="9.949953277750073"><ele>984.0000000000001</ele><time>2026-04-18T11:45:41.998Z</time></trkpt><trkpt lat="44.479487681601775" lon="9.949935874666695"><ele>984.0000000000001</ele><time>2026-04-18T11:45:42.998Z</time></trkpt><trkpt lat="44.4795976123927" lon="9.949918450930877"><ele>984.0</ele><time>2026-04-18T11:45:43.998Z</time></trkpt><trkpt lat="44.479704700638585" lon="9.949901477731265"><ele>984.0</ele><time>2026-04-18T11:45:44.998Z</time></trkpt><trkpt lat="44.47980881766854" lon="9.949885535944505"><ele>984.0</ele><time>2026-04-18T11:45:45.998Z</time></trkpt><trkpt lat="44.479911906372976" lon="9.949847944640199"><ele>984.0000000000001</ele><time>2026-04-18T11:45:46.998Z</time></trkpt><trkpt lat="44.48001658144124" lon="9.949838328420487"><ele>984.0000000000001</ele><time>2026-04-18T11:45:47.998Z</time></trkpt><trkpt lat="44.48012195877509" lon="9.949829763719995"><ele>984.0</ele><time>2026-04-18T11:45:48.998Z</time></trkpt><trkpt lat="44.48022686659322" lon="9.94981488462218"><ele>984.0</ele><time>2026-04-18T11:45:49.998Z</time></trkpt><trkpt lat="44.48033053346756" lon="9.949795371418206"><ele>984.2</ele><time>2026-04-18T11:45:50.998Z</time></trkpt><trkpt lat="44.48043549244945" lon="9.949779340638425"><ele>984.4000000000001</ele><time>2026-04-18T11:45:51.998Z</time></trkpt><trkpt lat="44.48053721016974" lon="9.949744299231298"><ele>984.6</ele><time>2026-04-18T11:45:52.998Z</time></trkpt><trkpt lat="44.48063223402462" lon="9.94967538893641"><ele>984.8</ele><time>2026-04-18T11:45:53.998Z</time></trkpt><trkpt lat="44.48071326788914" lon="9.949577295249705"><ele>985.0</ele><time>2026-04-18T11:45:54.998Z</time></trkpt><trkpt lat="44.480782306596566" lon="9.949460217948431"><ele>985.0</ele><time>2026-04-18T11:45:55.998Z</time></trkpt><trkpt lat="44.48085870424784" lon="9.949352401115641"><ele>985.0</ele><time>2026-04-18T11:45:56.998Z</time></trkpt><trkpt lat="44.4809397689042" lon="9.94924618904607"><ele>985.0</ele><time>2026-04-18T11:45:57.998Z</time></trkpt><trkpt lat="44.48102033414479" lon="9.949136772509684"><ele>985.0</ele><time>2026-04-18T11:45:58.998Z</time></trkpt><trkpt lat="44.48110205479373" lon="9.949028091922104"><ele>985.0</ele><time>2026-04-18T11:45:59.998Z</time></trkpt><trkpt lat="44.48118533189378" lon="9.94892020751874"><ele>982.8</ele><time>2026-04-18T11:46:00.998Z</time></trkpt><trkpt lat="44.48126119402232" lon="9.948804507690618"><ele>980.6</ele><time>2026-04-18T11:46:01.998Z</time></trkpt><trkpt lat="44.48133775085168" lon="9.948691830828592"><ele>978.4000000000001</ele><time>2026-04-18T11:46:02.998Z</time></trkpt><trkpt lat="44.481404946131136" lon="9.948585113103688"><ele>976.2</ele><time>2026-04-18T11:46:03.998Z</time></trkpt><trkpt lat="44.481472029266776" lon="9.948498408968494"><ele>974.0</ele><time>2026-04-18T11:46:05Z</time></trkpt><trkpt lat="44.48155270299461" lon="9.94845463728646"><ele>974.0</ele><time>2026-04-18T11:46:06Z</time></trkpt><trkpt lat="44.48164337568426" lon="9.948466752787233"><ele>974.0000000000001</ele><time>2026-04-18T11:46:07Z</time></trkpt><trkpt lat="44.48171795988944" lon="9.948547372497423"><ele>974.0000000000001</ele><time>2026-04-18T11:46:08Z</time></trkpt><trkpt lat="44.4817608108914" lon="9.94867030373402"><ele>974.0</ele><time>2026-04-18T11:46:09Z</time></trkpt><trkpt lat="44.481787651378326" lon="9.948806325213791"><ele>974.0</ele><time>2026-04-18T11:46:10Z</time></trkpt><trkpt lat="44.481823432106" lon="9.948943526597516"><ele>974.0</ele><time>2026-04-18T11:46:11Z</time></trkpt><trkpt lat="44.48188189082116" lon="9.949076572177637"><ele>974.0</ele><time>2026-04-18T11:46:12Z</time></trkpt><trkpt lat="44.48195854686603" lon="9.949190836756657"><ele>974.0</ele><time>2026-04-18T11:46:13Z</time></trkpt><trkpt lat="44.48204986585066" lon="9.949295522092617"><ele>974.0</ele><time>2026-04-18T11:46:14Z</time></trkpt><trkpt lat="44.48214705728894" lon="9.94938973310607"><ele>973.5</ele><time>2026-04-18T11:46:15Z</time></trkpt><trkpt lat="44.482252740776225" lon="9.94948841792503"><ele>973.0</ele><time>2026-04-18T11:46:16Z</time></trkpt><trkpt lat="44.48235693834082" lon="9.949589240500346"><ele>972.5</ele><time>2026-04-18T11:46:17Z</time></trkpt><trkpt lat="44.482459515318645" lon="9.949691844558622"><ele>972.0</ele><time>2026-04-18T11:46:18Z</time></trkpt><trkpt lat="44.4825624986086" lon="9.949795561887031"><ele>972.0</ele><time>2026-04-18T11:46:19Z</time></trkpt><trkpt lat="44.48266838584716" lon="9.949893560803426"><ele>972.0</ele><time>2026-04-18T11:46:20Z</time></trkpt><trkpt lat="44.482772226406205" lon="9.949963613130125"><ele>972.0</ele><time>2026-04-18T11:46:21Z</time></trkpt><trkpt lat="44.48289082868465" lon="9.950003150922186"><ele>972.0</ele><time>2026-04-18T11:46:22Z</time></trkpt><trkpt lat="44.4830114880392" lon="9.950005609771996"><ele>967.75</ele><time>2026-04-18T11:46:23Z</time></trkpt><trkpt lat="44.483131106810845" lon="9.949990441866841"><ele>963.5</ele><time>2026-04-18T11:46:24Z</time></trkpt><trkpt lat="44.48325191895027" lon="9.949988944281644"><ele>959.25</ele><time>2026-04-18T11:46:25Z</time></trkpt><trkpt lat="44.483372030523554" lon="9.950001895931209"><ele>955.0</ele><time>2026-04-18T11:46:26Z</time></trkpt><trkpt lat="44.483495580411365" lon="9.950039618855072"><ele>953.75</ele><time>2026-04-18T11:46:26.999Z</time></trkpt><trkpt lat="44.48361395393387" lon="9.950104353131893"><ele>952.5</ele><time>2026-04-18T11:46:27.999Z</time></trkpt><trkpt lat="44.48372452359111" lon="9.950197711333226"><ele>951.25</ele><time>2026-04-18T11:46:28.999Z</time></trkpt><trkpt lat="44.48382677002176" lon="9.950304311724565"><ele>950.0</ele><time>2026-04-18T11:46:29.999Z</time></trkpt><trkpt lat="44.48391665031227" lon="9.950436442785149"><ele>950.0</ele><time>2026-04-18T11:46:30.999Z</time></trkpt><trkpt lat="44.48399053741359" lon="9.950586231158828"><ele>950.0</ele><time>2026-04-18T11:46:31.999Z</time></trkpt><trkpt lat="44.48405183129141" lon="9.9507463934618"><ele>950.0</ele><time>2026-04-18T11:46:32.999Z</time></trkpt><trkpt lat="44.48409616377102" lon="9.950916964955864"><ele>950.0</ele><time>2026-04-18T11:46:33.999Z</time></trkpt><trkpt lat="44.48413274296679" lon="9.95110158074395"><ele>951.75</ele><time>2026-04-18T11:46:34.999Z</time></trkpt><trkpt lat="44.48416909035956" lon="9.951278212908306"><ele>953.5</ele><time>2026-04-18T11:46:35.999Z</time></trkpt><trkpt lat="44.48421252964022" lon="9.951461654028236"><ele>955.25</ele><time>2026-04-18T11:46:36.999Z</time></trkpt><trkpt lat="44.48425624893377" lon="9.9516474807953"><ele>957.0</ele><time>2026-04-18T11:46:37.999Z</time></trkpt><trkpt lat="44.48431268258307" lon="9.95182414086831"><ele>958.75</ele><time>2026-04-18T11:46:38.999Z</time></trkpt><trkpt lat="44.484385669178295" lon="9.951990244193947"><ele>960.5</ele><time>2026-04-18T11:46:39.999Z</time></trkpt><trkpt lat="44.48446994846127" lon="9.952140496408195"><ele>962.25</ele><time>2026-04-18T11:46:40.999Z</time></trkpt><trkpt lat="44.484556076144244" lon="9.952291680048956"><ele>964.0</ele><time>2026-04-18T11:46:41.999Z</time></trkpt><trkpt lat="44.48463518583278" lon="9.952453408021551"><ele>957.0</ele><time>2026-04-18T11:46:42.999Z</time></trkpt><trkpt lat="44.4847047467975" lon="9.952618137184547"><ele>950.0</ele><time>2026-04-18T11:46:43.999Z</time></trkpt><trkpt lat="44.48477077076156" lon="9.952794250345782"><ele>943.0</ele><time>2026-04-18T11:46:44.999Z</time></trkpt><trkpt lat="44.484833373656286" lon="9.95296641341301"><ele>936.0</ele><time>2026-04-18T11:46:45.999Z</time></trkpt><trkpt lat="44.48488759310463" lon="9.953143673842748"><ele>936.0</ele><time>2026-04-18T11:46:46.999Z</time></trkpt><trkpt lat="44.484938475104045" lon="9.953321827952204"><ele>936.0</ele><time>2026-04-18T11:46:47.999Z</time></trkpt><trkpt lat="44.48496884798292" lon="9.953517828616064"><ele>936.0</ele><time>2026-04-18T11:46:48.999Z</time></trkpt><trkpt lat="44.48498711706142" lon="9.953719530303207"><ele>936.0</ele><time>2026-04-18T11:46:49.999Z</time></trkpt><trkpt lat="44.4849922384095" lon="9.953923069815641"><ele>935.75</ele><time>2026-04-18T11:46:50.999Z</time></trkpt><trkpt lat="44.484986592149205" lon="9.954123658359453"><ele>935.5</ele><time>2026-04-18T11:46:51.999Z</time></trkpt><trkpt lat="44.48496276206209" lon="9.95432286497891"><ele>935.25</ele><time>2026-04-18T11:46:52.999Z</time></trkpt><trkpt lat="44.48492305988814" lon="9.954513047359695"><ele>935.0</ele><time>2026-04-18T11:46:53.999Z</time></trkpt><trkpt lat="44.48488309501134" lon="9.954705164254953"><ele>933.25</ele><time>2026-04-18T11:46:54.999Z</time></trkpt><trkpt lat="44.48484937729146" lon="9.954899223296309"><ele>931.5</ele><time>2026-04-18T11:46:55.999Z</time></trkpt><trkpt lat="44.48480986294138" lon="9.955093489331981"><ele>929.75</ele><time>2026-04-18T11:46:56.999Z</time></trkpt><trkpt lat="44.484775736202636" lon="9.955291028724092"><ele>928.0</ele><time>2026-04-18T11:46:57.999Z</time></trkpt><trkpt lat="44.484734737175664" lon="9.955483570024235"><ele>927.75</ele><time>2026-04-18T11:46:58.999Z</time></trkpt><trkpt lat="44.484683151761296" lon="9.955666695949175"><ele>927.5</ele><time>2026-04-18T11:46:59.999Z</time></trkpt><trkpt lat="44.484630825399734" lon="9.955852851748995"><ele>927.25</ele><time>2026-04-18T11:47:00.999Z</time></trkpt><trkpt lat="44.48458928415282" lon="9.956049661585677"><ele>927.0</ele><time>2026-04-18T11:47:01.999Z</time></trkpt><trkpt lat="44.484559249605425" lon="9.95625812931204"><ele>927.0</ele><time>2026-04-18T11:47:02.999Z</time></trkpt><trkpt lat="44.48453996023034" lon="9.956466092602723"><ele>927.0</ele><time>2026-04-18T11:47:03.999Z</time></trkpt><trkpt lat="44.48452580911913" lon="9.956672621436319"><ele>927.0</ele><time>2026-04-18T11:47:04.999Z</time></trkpt><trkpt lat="44.48450467112126" lon="9.956877923799825"><ele>927.0</ele><time>2026-04-18T11:47:05.999Z</time></trkpt><trkpt lat="44.48448415894942" lon="9.957080128587041"><ele>926.5</ele><time>2026-04-18T11:47:06.999Z</time></trkpt><trkpt lat="44.484464597665614" lon="9.957283406105212"><ele>926.0</ele><time>2026-04-18T11:47:07.999Z</time></trkpt><trkpt lat="44.484443434080376" lon="9.957490012619406"><ele>925.5</ele><time>2026-04-18T11:47:08.999Z</time></trkpt><trkpt lat="44.484422250432004" lon="9.957694077488066"><ele>925.0</ele><time>2026-04-18T11:47:09.999Z</time></trkpt><trkpt lat="44.48440692441969" lon="9.95789483089436"><ele>925.0</ele><time>2026-04-18T11:47:10.999Z</time></trkpt><trkpt lat="44.48439076116664" lon="9.958090658009882"><ele>925.0</ele><time>2026-04-18T11:47:11.999Z</time></trkpt><trkpt lat="44.48437634683369" lon="9.958276367295586"><ele>925.0</ele><time>2026-04-18T11:47:12.999Z</time></trkpt><trkpt lat="44.48438252215341" lon="9.958446527174646"><ele>925.0</ele><time>2026-04-18T11:47:13.999Z</time></trkpt><trkpt lat="44.484426588648084" lon="9.958591136605614"><ele>927.5</ele><time>2026-04-18T11:47:14.999Z</time></trkpt><trkpt lat="44.48450930470336" lon="9.95869245491533"><ele>930.0</ele><time>2026-04-18T11:47:15.999Z</time></trkpt><trkpt lat="44.484606662248154" lon="9.958749547425764"><ele>932.5</ele><time>2026-04-18T11:47:16.999Z</time></trkpt><trkpt lat="44.48472801677452" lon="9.958775493031709"><ele>935.0</ele><time>2026-04-18T11:47:17.999Z</time></trkpt><trkpt lat="44.48484137304668" lon="9.958800544414556"><ele>929.25</ele><time>2026-04-18T11:47:18.999Z</time></trkpt><trkpt lat="44.48495366196087" lon="9.958816676025195"><ele>923.5</ele><time>2026-04-18T11:47:19.999Z</time></trkpt><trkpt lat="44.48506752626172" lon="9.95883282956951"><ele>917.75</ele><time>2026-04-18T11:47:20.998Z</time></trkpt><trkpt lat="44.485185875411496" lon="9.95884706641106"><ele>912.0</ele><time>2026-04-18T11:47:21.998Z</time></trkpt><trkpt lat="44.48530074425553" lon="9.958875595522766"><ele>912.0</ele><time>2026-04-18T11:47:22.998Z</time></trkpt><trkpt lat="44.48540752892382" lon="9.95892642990964"><ele>912.0</ele><time>2026-04-18T11:47:23.998Z</time></trkpt><trkpt lat="44.48549140644421" lon="9.95901265807713"><ele>912.0</ele><time>2026-04-18T11:47:24.998Z</time></trkpt><trkpt lat="44.48555849483236" lon="9.959140380177725"><ele>912.0</ele><time>2026-04-18T11:47:25.998Z</time></trkpt><trkpt lat="44.485599838175126" lon="9.959297800172173"><ele>906.75</ele><time>2026-04-18T11:47:26.998Z</time></trkpt><trkpt lat="44.48560184941185" lon="9.959468444927122"><ele>901.5</ele><time>2026-04-18T11:47:27.998Z</time></trkpt><trkpt lat="44.48558840021127" lon="9.95963309162175"><ele>896.25</ele><time>2026-04-18T11:47:28.998Z</time></trkpt><trkpt lat="44.48560177509893" lon="9.95980233011239"><ele>891.0</ele><time>2026-04-18T11:47:29.998Z</time></trkpt><trkpt lat="44.48561197611692" lon="9.959973116880038"><ele>891.5</ele><time>2026-04-18T11:47:30.998Z</time></trkpt><trkpt lat="44.48562370003965" lon="9.960144112969793"><ele>892.0</ele><time>2026-04-18T11:47:31.998Z</time></trkpt><trkpt lat="44.485640672808884" lon="9.960311353415813"><ele>892.5</ele><time>2026-04-18T11:47:32.998Z</time></trkpt><trkpt lat="44.48566655942817" lon="9.960481312103987"><ele>893.0</ele><time>2026-04-18T11:47:33.998Z</time></trkpt><trkpt lat="44.48569896822212" lon="9.960645259006455"><ele>893.0</ele><time>2026-04-18T11:47:34.998Z</time></trkpt><trkpt lat="44.48572752889188" lon="9.960802781334998"><ele>893.0</ele><time>2026-04-18T11:47:35.998Z</time></trkpt><trkpt lat="44.485753047992674" lon="9.960957208403524"><ele>893.0</ele><time>2026-04-18T11:47:36.998Z</time></trkpt><trkpt lat="44.485776550141644" lon="9.961117338015795"><ele>893.0</ele><time>2026-04-18T11:47:37.998Z</time></trkpt><trkpt lat="44.48580261291191" lon="9.961274638829968"><ele>893.0</ele><time>2026-04-18T11:47:38.998Z</time></trkpt><trkpt lat="44.48582804549645" lon="9.961433282848942"><ele>893.0</ele><time>2026-04-18T11:47:39.998Z</time></trkpt><trkpt lat="44.4858539240806" lon="9.961595630541757"><ele>893.0</ele><time>2026-04-18T11:47:40.998Z</time></trkpt><trkpt lat="44.48587937327452" lon="9.961755602257945"><ele>893.0</ele><time>2026-04-18T11:47:41.998Z</time></trkpt><trkpt lat="44.48590946248199" lon="9.961921393773684"><ele>893.0</ele><time>2026-04-18T11:47:42.998Z</time></trkpt><trkpt lat="44.48593898694584" lon="9.96208839223794"><ele>893.0</ele><time>2026-04-18T11:47:43.998Z</time></trkpt><trkpt lat="44.48596416743362" lon="9.962251442395484"><ele>893.0</ele><time>2026-04-18T11:47:44.998Z</time></trkpt><trkpt lat="44.485989191686684" lon="9.96241167967123"><ele>893.0</ele><time>2026-04-18T11:47:45.998Z</time></trkpt><trkpt lat="44.48601385571765" lon="9.962567086555568"><ele>892.5</ele><time>2026-04-18T11:47:46.998Z</time></trkpt><trkpt lat="44.48602497878348" lon="9.962722805670756"><ele>892.0</ele><time>2026-04-18T11:47:47.998Z</time></trkpt><trkpt lat="44.48601246947512" lon="9.962880058754667"><ele>891.5</ele><time>2026-04-18T11:47:48.998Z</time></trkpt><trkpt lat="44.485974741905814" lon="9.963029163865354"><ele>891.0</ele><time>2026-04-18T11:47:49.998Z</time></trkpt><trkpt lat="44.485918862629184" lon="9.963168510448785"><ele>891.0</ele><time>2026-04-18T11:47:50.998Z</time></trkpt><trkpt lat="44.48586058376398" lon="9.963296889578132"><ele>890.9999999999999</ele><time>2026-04-18T11:47:51.998Z</time></trkpt><trkpt lat="44.4858047935898" lon="9.963423598317881"><ele>890.9999999999999</ele><time>2026-04-18T11:47:52.998Z</time></trkpt><trkpt lat="44.48575098838161" lon="9.963543830830007"><ele>891.0</ele><time>2026-04-18T11:47:53.998Z</time></trkpt><trkpt lat="44.48569931178247" lon="9.963660614218924"><ele>891.0</ele><time>2026-04-18T11:47:54.998Z</time></trkpt><trkpt lat="44.4856504935383" lon="9.963783254903545"><ele>891.0</ele><time>2026-04-18T11:47:55.998Z</time></trkpt><trkpt lat="44.485613877381546" lon="9.963918017659248"><ele>891.0</ele><time>2026-04-18T11:47:56.998Z</time></trkpt><trkpt lat="44.485591131368444" lon="9.964067984562599"><ele>891.0</ele><time>2026-04-18T11:47:57.998Z</time></trkpt><trkpt lat="44.48557928460736" lon="9.964233515053127"><ele>891.0</ele><time>2026-04-18T11:47:58.998Z</time></trkpt><trkpt lat="44.48558650985302" lon="9.964401837661066"><ele>891.0</ele><time>2026-04-18T11:47:59.998Z</time></trkpt><trkpt lat="44.4856143324694" lon="9.964562682887015"><ele>891.0</ele><time>2026-04-18T11:48:00.998Z</time></trkpt><trkpt lat="44.485661272873664" lon="9.964701891493686"><ele>891.0</ele><time>2026-04-18T11:48:01.998Z</time></trkpt><trkpt lat="44.485715645620076" lon="9.964840225417145"><ele>891.0</ele><time>2026-04-18T11:48:02.998Z</time></trkpt><trkpt lat="44.48581320473628" lon="9.964930508478377"><ele>891.0</ele><time>2026-04-18T11:48:03.998Z</time></trkpt><trkpt lat="44.485928386072274" lon="9.964975816957923"><ele>891.0</ele><time>2026-04-18T11:48:04.998Z</time></trkpt><trkpt lat="44.486060824948815" lon="9.964944092920884"><ele>891.0</ele><time>2026-04-18T11:48:05.998Z</time></trkpt><trkpt lat="44.48617531488038" lon="9.964890239242468"><ele>891.0</ele><time>2026-04-18T11:48:06.998Z</time></trkpt><trkpt lat="44.48629827744353" lon="9.96484057454146"><ele>886.6666666666667</ele><time>2026-04-18T11:48:07.998Z</time></trkpt><trkpt lat="44.48644435383754" lon="9.964773392468313"><ele>882.3333333333334</ele><time>2026-04-18T11:48:08.998Z</time></trkpt><trkpt lat="44.48661115209984" lon="9.964722727809022"><ele>878.0</ele><time>2026-04-18T11:48:09.998Z</time></trkpt><trkpt lat="44.486761040293516" lon="9.964690433814278"><ele>878.0</ele><time>2026-04-18T11:48:11Z</time></trkpt><trkpt lat="44.48685392127847" lon="9.964657883545572"><ele>878.0</ele><time>2026-04-18T11:48:12Z</time></trkpt><trkpt lat="44.48696206216696" lon="9.964709109607407"><ele>878.0</ele><time>2026-04-18T11:48:13Z</time></trkpt><trkpt lat="44.487083193796494" lon="9.964788053607696"><ele>878.0</ele><time>2026-04-18T11:48:14Z</time></trkpt><trkpt lat="44.48718348173079" lon="9.964902990863607"><ele>876.0</ele><time>2026-04-18T11:48:15Z</time></trkpt><trkpt lat="44.48727127576967" lon="9.965034459006041"><ele>874.0</ele><time>2026-04-18T11:48:16Z</time></trkpt><trkpt lat="44.487337846427835" lon="9.965184338706653"><ele>872.0</ele><time>2026-04-18T11:48:17Z</time></trkpt><trkpt lat="44.48740226455467" lon="9.965312403527381"><ele>870.0</ele><time>2026-04-18T11:48:18Z</time></trkpt><trkpt lat="44.48747099532697" lon="9.965444573590913"><ele>870.0</ele><time>2026-04-18T11:48:19Z</time></trkpt><trkpt lat="44.48754238196777" lon="9.965581851017479"><ele>870.0</ele><time>2026-04-18T11:48:20Z</time></trkpt><trkpt lat="44.48761286066412" lon="9.965717382232187"><ele>870.0</ele><time>2026-04-18T11:48:21Z</time></trkpt><trkpt lat="44.48769045793673" lon="9.965839111797674"><ele>870.0</ele><time>2026-04-18T11:48:22Z</time></trkpt><trkpt lat="44.48774923637688" lon="9.965974557017935"><ele>871.75</ele><time>2026-04-18T11:48:23Z</time></trkpt><trkpt lat="44.48780549986948" lon="9.966111333533163"><ele>873.5</ele><time>2026-04-18T11:48:24Z</time></trkpt><trkpt lat="44.48789125526589" lon="9.966212503717237"><ele>875.25</ele><time>2026-04-18T11:48:25Z</time></trkpt><trkpt lat="44.48800757527318" lon="9.966264596639732"><ele>877.0</ele><time>2026-04-18T11:48:26Z</time></trkpt><trkpt lat="44.48812203626463" lon="9.966269953388034"><ele>877.0</ele><time>2026-04-18T11:48:27Z</time></trkpt><trkpt lat="44.48823368339364" lon="9.966208108798014"><ele>877.0</ele><time>2026-04-18T11:48:28Z</time></trkpt><trkpt lat="44.488323093337854" lon="9.966155156045621"><ele>877.0</ele><time>2026-04-18T11:48:29Z</time></trkpt><trkpt lat="44.48841672327642" lon="9.966099704103694"><ele>877.0</ele><time>2026-04-18T11:48:30Z</time></trkpt><trkpt lat="44.48850956083186" lon="9.966067420348471"><ele>877.0</ele><time>2026-04-18T11:48:31Z</time></trkpt><trkpt lat="44.48860513592869" lon="9.966036370022875"><ele>877.0</ele><time>2026-04-18T11:48:31.999Z</time></trkpt><trkpt lat="44.488702401569626" lon="9.966077358197476"><ele>877.0</ele><time>2026-04-18T11:48:32.999Z</time></trkpt><trkpt lat="44.48878701622839" lon="9.966154769484609"><ele>877.0</ele><time>2026-04-18T11:48:33.999Z</time></trkpt><trkpt lat="44.48885754125427" lon="9.966258590944381"><ele>877.0</ele><time>2026-04-18T11:48:34.999Z</time></trkpt><trkpt lat="44.48891992780152" lon="9.966361731060188"><ele>877.0</ele><time>2026-04-18T11:48:35.999Z</time></trkpt><trkpt lat="44.4889850374852" lon="9.966465906931393"><ele>877.0</ele><time>2026-04-18T11:48:36.999Z</time></trkpt><trkpt lat="44.48905560839745" lon="9.96655895673006"><ele>877.0</ele><time>2026-04-18T11:48:37.999Z</time></trkpt><trkpt lat="44.48911859243583" lon="9.966677514560327"><ele>877.0</ele><time>2026-04-18T11:48:38.999Z</time></trkpt><trkpt lat="44.48920717575731" lon="9.966768012223444"><ele>877.0</ele><time>2026-04-18T11:48:39.999Z</time></trkpt><trkpt lat="44.48931269131422" lon="9.966814862210214"><ele>877.0</ele><time>2026-04-18T11:48:40.999Z</time></trkpt><trkpt lat="44.48943897186745" lon="9.966791825154619"><ele>877.0</ele><time>2026-04-18T11:48:41.999Z</time></trkpt><trkpt lat="44.48954470458077" lon="9.9667027487"><ele>877.0</ele><time>2026-04-18T11:48:42.999Z</time></trkpt><trkpt lat="44.48961980361373" lon="9.966604420295495"><ele>877.0</ele><time>2026-04-18T11:48:43.999Z</time></trkpt><trkpt lat="44.489695816515315" lon="9.966514459112712"><ele>877.0</ele><time>2026-04-18T11:48:44.999Z</time></trkpt><trkpt lat="44.48977186821592" lon="9.966422025279458"><ele>877.0</ele><time>2026-04-18T11:48:45.999Z</time></trkpt><trkpt lat="44.48984704225416" lon="9.966330211433796"><ele>877.0</ele><time>2026-04-18T11:48:46.999Z</time></trkpt><trkpt lat="44.48992093922198" lon="9.966239957234666"><ele>877.0</ele><time>2026-04-18T11:48:47.999Z</time></trkpt><trkpt lat="44.48999283889742" lon="9.96615470654782"><ele>877.0</ele><time>2026-04-18T11:48:48.999Z</time></trkpt><trkpt lat="44.49007071362039" lon="9.966072992966087"><ele>877.0</ele><time>2026-04-18T11:48:49.999Z</time></trkpt><trkpt lat="44.49014445668692" lon="9.966005320121141"><ele>877.0</ele><time>2026-04-18T11:48:50.999Z</time></trkpt><trkpt lat="44.49022980469985" lon="9.965958201143684"><ele>877.0</ele><time>2026-04-18T11:48:51.999Z</time></trkpt><trkpt lat="44.49031284381997" lon="9.96593659184703"><ele>877.0</ele><time>2026-04-18T11:48:52.999Z</time></trkpt><trkpt lat="44.4904070171639" lon="9.965921645669725"><ele>877.0</ele><time>2026-04-18T11:48:53.999Z</time></trkpt><trkpt lat="44.49050173723061" lon="9.965911209863625"><ele>877.0</ele><time>2026-04-18T11:48:54.999Z</time></trkpt><trkpt lat="44.490595851447985" lon="9.965904093150364"><ele>877.0</ele><time>2026-04-18T11:48:55.999Z</time></trkpt><trkpt lat="44.49069167531682" lon="9.965899509898941"><ele>877.6</ele><time>2026-04-18T11:48:56.999Z</time></trkpt><trkpt lat="44.4907858438836" lon="9.965895005823171"><ele>878.2</ele><time>2026-04-18T11:48:57.999Z</time></trkpt><trkpt lat="44.49087891065372" lon="9.965895975494384"><ele>878.8</ele><time>2026-04-18T11:48:58.999Z</time></trkpt><trkpt lat="44.49097016577886" lon="9.965910082764278"><ele>879.4</ele><time>2026-04-18T11:48:59.999Z</time></trkpt><trkpt lat="44.49106183767848" lon="9.965934459269521"><ele>880.0</ele><time>2026-04-18T11:49:00.999Z</time></trkpt><trkpt lat="44.49115606468358" lon="9.965966024710156"><ele>880.0</ele><time>2026-04-18T11:49:01.999Z</time></trkpt><trkpt lat="44.49124661066224" lon="9.966003703575005"><ele>880.0</ele><time>2026-04-18T11:49:02.999Z</time></trkpt><trkpt lat="44.49133578868377" lon="9.966048213113094"><ele>880.0</ele><time>2026-04-18T11:49:03.999Z</time></trkpt><trkpt lat="44.49142796877295" lon="9.96606818218529"><ele>880.0</ele><time>2026-04-18T11:49:04.999Z</time></trkpt><trkpt lat="44.491512418927364" lon="9.966115823989833"><ele>880.0</ele><time>2026-04-18T11:49:05.999Z</time></trkpt><trkpt lat="44.49159687461096" lon="9.966165801717066"><ele>878.4</ele><time>2026-04-18T11:49:06.999Z</time></trkpt><trkpt lat="44.491683283832494" lon="9.96621225443674"><ele>876.8</ele><time>2026-04-18T11:49:07.999Z</time></trkpt><trkpt lat="44.49177078786463" lon="9.966257514400873"><ele>875.2</ele><time>2026-04-18T11:49:08.999Z</time></trkpt><trkpt lat="44.491856906455865" lon="9.96630113386649"><ele>873.6</ele><time>2026-04-18T11:49:09.999Z</time></trkpt><trkpt lat="44.491936495699846" lon="9.966373583142067"><ele>872.0</ele><time>2026-04-18T11:49:10.999Z</time></trkpt><trkpt lat="44.49202585855214" lon="9.966421687589945"><ele>870.6</ele><time>2026-04-18T11:49:11.999Z</time></trkpt><trkpt lat="44.49211441222273" lon="9.96646919367716"><ele>869.2</ele><time>2026-04-18T11:49:12.999Z</time></trkpt><trkpt lat="44.49219871295004" lon="9.96651575042477"><ele>867.8</ele><time>2026-04-18T11:49:13.999Z</time></trkpt><trkpt lat="44.492282192722406" lon="9.966561556917299"><ele>866.4</ele><time>2026-04-18T11:49:14.999Z</time></trkpt><trkpt lat="44.49236912291484" lon="9.966586170077028"><ele>865.0</ele><time>2026-04-18T11:49:15.999Z</time></trkpt><trkpt lat="44.4924446169981" lon="9.966648822568812"><ele>865.4999999999999</ele><time>2026-04-18T11:49:16.999Z</time></trkpt><trkpt lat="44.49250664359005" lon="9.96673171777483"><ele>866.0</ele><time>2026-04-18T11:49:17.999Z</time></trkpt><trkpt lat="44.49254759269666" lon="9.966841184771278"><ele>866.5</ele><time>2026-04-18T11:49:18.999Z</time></trkpt><trkpt lat="44.49257177037596" lon="9.966957638330909"><ele>867.0</ele><time>2026-04-18T11:49:19.999Z</time></trkpt><trkpt lat="44.49258084183061" lon="9.967076929025337"><ele>867.4999999999999</ele><time>2026-04-18T11:49:20.999Z</time></trkpt><trkpt lat="44.49258233637065" lon="9.967198511830873"><ele>868.0</ele><time>2026-04-18T11:49:21.999Z</time></trkpt><trkpt lat="44.492583977971265" lon="9.967318927605827"><ele>867.9999999999999</ele><time>2026-04-18T11:49:22.999Z</time></trkpt><trkpt lat="44.49258565038226" lon="9.967435958395173"><ele>868.0</ele><time>2026-04-18T11:49:23.999Z</time></trkpt><trkpt lat="44.492590686626166" lon="9.967550224223217"><ele>868.0</ele><time>2026-04-18T11:49:24.998Z</time></trkpt><trkpt lat="44.49259933100122" lon="9.967666902426238"><ele>868.0</ele><time>2026-04-18T11:49:25.998Z</time></trkpt><trkpt lat="44.492615962040084" lon="9.967783433811293"><ele>867.9999999999999</ele><time>2026-04-18T11:49:26.998Z</time></trkpt><trkpt lat="44.49264452839717" lon="9.967892983658539"><ele>868.0</ele><time>2026-04-18T11:49:27.998Z</time></trkpt><trkpt lat="44.49267747470126" lon="9.96800306032212"><ele>868.3333333333333</ele><time>2026-04-18T11:49:28.998Z</time></trkpt><trkpt lat="44.49271042822306" lon="9.968112351046019"><ele>868.6666666666666</ele><time>2026-04-18T11:49:29.998Z</time></trkpt><trkpt lat="44.492739907521624" lon="9.96822428626621"><ele>869.0</ele><time>2026-04-18T11:49:30.998Z</time></trkpt><trkpt lat="44.492768262702526" lon="9.968337186067538"><ele>869.3333333333333</ele><time>2026-04-18T11:49:31.998Z</time></trkpt><trkpt lat="44.49279712650553" lon="9.968445907119392"><ele>869.6666666666666</ele><time>2026-04-18T11:49:32.998Z</time></trkpt><trkpt lat="44.492826257267346" lon="9.968558260257389"><ele>870.0</ele><time>2026-04-18T11:49:33.998Z</time></trkpt><trkpt lat="44.4928528096816" lon="9.968668968761554"><ele>870.1666666666666</ele><time>2026-04-18T11:49:34.998Z</time></trkpt><trkpt lat="44.49288376403116" lon="9.968775567482911"><ele>870.3333333333333</ele><time>2026-04-18T11:49:35.998Z</time></trkpt><trkpt lat="44.49291329861585" lon="9.968882529657634"><ele>870.5</ele><time>2026-04-18T11:49:36.998Z</time></trkpt><trkpt lat="44.49294456315391" lon="9.968984337085827"><ele>870.6666666666666</ele><time>2026-04-18T11:49:37.998Z</time></trkpt><trkpt lat="44.49297434852463" lon="9.969083006958877"><ele>870.8333333333333</ele><time>2026-04-18T11:49:38.998Z</time></trkpt><trkpt lat="44.49300146721175" lon="9.969180749101007"><ele>871.0</ele><time>2026-04-18T11:49:39.998Z</time></trkpt><trkpt lat="44.49303053466412" lon="9.969275120009655"><ele>870.6666666666666</ele><time>2026-04-18T11:49:40.998Z</time></trkpt><trkpt lat="44.49305792744325" lon="9.969374064663857"><ele>870.3333333333333</ele><time>2026-04-18T11:49:41.998Z</time></trkpt><trkpt lat="44.493086568146985" lon="9.969471698906071"><ele>870.0</ele><time>2026-04-18T11:49:42.998Z</time></trkpt><trkpt lat="44.49311446408083" lon="9.96957102016755"><ele>869.6666666666667</ele><time>2026-04-18T11:49:43.998Z</time></trkpt><trkpt lat="44.493144936886914" lon="9.96967164588334"><ele>869.3333333333334</ele><time>2026-04-18T11:49:44.998Z</time></trkpt><trkpt lat="44.49317537276257" lon="9.969773484374777"><ele>869.0</ele><time>2026-04-18T11:49:45.998Z</time></trkpt><trkpt lat="44.49320689896352" lon="9.969876009180132"><ele>869.0000000000001</ele><time>2026-04-18T11:49:46.998Z</time></trkpt><trkpt lat="44.4932383366797" lon="9.96997601914709"><ele>869.0</ele><time>2026-04-18T11:49:47.998Z</time></trkpt><trkpt lat="44.4932687180448" lon="9.970078851025141"><ele>869.0</ele><time>2026-04-18T11:49:48.998Z</time></trkpt><trkpt lat="44.493300557391834" lon="9.970179137419303"><ele>869.0</ele><time>2026-04-18T11:49:49.998Z</time></trkpt><trkpt lat="44.49333712377087" lon="9.97027971670708"><ele>869.0000000000001</ele><time>2026-04-18T11:49:50.998Z</time></trkpt><trkpt lat="44.493377886010094" lon="9.970373576978318"><ele>869.0</ele><time>2026-04-18T11:49:51.998Z</time></trkpt><trkpt lat="44.493429427725275" lon="9.970463305759054"><ele>868.3333333333334</ele><time>2026-04-18T11:49:52.998Z</time></trkpt><trkpt lat="44.49349090142058" lon="9.970539093164042"><ele>867.6666666666667</ele><time>2026-04-18T11:49:53.998Z</time></trkpt><trkpt lat="44.49355897070826" lon="9.970608567498438"><ele>867.0</ele><time>2026-04-18T11:49:54.998Z</time></trkpt><trkpt lat="44.493629519468506" lon="9.970669725422608"><ele>866.3333333333333</ele><time>2026-04-18T11:49:55.998Z</time></trkpt><trkpt lat="44.49369958286543" lon="9.970726027412143"><ele>865.6666666666666</ele><time>2026-04-18T11:49:56.998Z</time></trkpt><trkpt lat="44.493779777829126" lon="9.970794036023841"><ele>865.0</ele><time>2026-04-18T11:49:57.998Z</time></trkpt><trkpt lat="44.49385511328526" lon="9.97086108454906"><ele>866.3333333333333</ele><time>2026-04-18T11:49:58.998Z</time></trkpt><trkpt lat="44.49393095766597" lon="9.970926165296538"><ele>867.6666666666666</ele><time>2026-04-18T11:49:59.998Z</time></trkpt><trkpt lat="44.49400948920419" lon="9.970998200282553"><ele>869.0</ele><time>2026-04-18T11:50:00.998Z</time></trkpt><trkpt lat="44.4940750202134" lon="9.971082491807751"><ele>870.3333333333333</ele><time>2026-04-18T11:50:01.998Z</time></trkpt><trkpt lat="44.4941306914803" lon="9.971183413602681"><ele>871.6666666666666</ele><time>2026-04-18T11:50:02.998Z</time></trkpt><trkpt lat="44.49414238356394" lon="9.971300009145489"><ele>873.0</ele><time>2026-04-18T11:50:03.998Z</time></trkpt><trkpt lat="44.49413360119528" lon="9.971416594951819"><ele>873.0</ele><time>2026-04-18T11:50:04.998Z</time></trkpt><trkpt lat="44.49411460825949" lon="9.971541828585279"><ele>873.0</ele><time>2026-04-18T11:50:05.998Z</time></trkpt><trkpt lat="44.49405656147967" lon="9.971640075788558"><ele>873.0</ele><time>2026-04-18T11:50:06.998Z</time></trkpt><trkpt lat="44.494002199065555" lon="9.971719567045476"><ele>873.0</ele><time>2026-04-18T11:50:07.998Z</time></trkpt><trkpt lat="44.49396813653006" lon="9.971805694030975"><ele>873.0</ele><time>2026-04-18T11:50:08.998Z</time></trkpt><trkpt lat="44.49395672660153" lon="9.971908993409706"><ele>873.0</ele><time>2026-04-18T11:50:09.998Z</time></trkpt><trkpt lat="44.49396113060432" lon="9.972026220357675"><ele>874.3333333333334</ele><time>2026-04-18T11:50:10.998Z</time></trkpt><trkpt lat="44.4939778806489" lon="9.972142391638146"><ele>875.6666666666667</ele><time>2026-04-18T11:50:11.998Z</time></trkpt><trkpt lat="44.494005740719835" lon="9.972251869843316"><ele>877.0</ele><time>2026-04-18T11:50:12.998Z</time></trkpt><trkpt lat="44.49403456739611" lon="9.97236353330769"><ele>878.3333333333334</ele><time>2026-04-18T11:50:13.998Z</time></trkpt><trkpt lat="44.49406537085055" lon="9.972459351296946"><ele>879.6666666666667</ele><time>2026-04-18T11:50:14.998Z</time></trkpt><trkpt lat="44.494117342869295" lon="9.972557766117713"><ele>881.0</ele><time>2026-04-18T11:50:15.998Z</time></trkpt><trkpt lat="44.49418847786847" lon="9.972639612320544"><ele>881.6666666666667</ele><time>2026-04-18T11:50:17Z</time></trkpt><trkpt lat="44.494265783607204" lon="9.972703680430659"><ele>882.3333333333334</ele><time>2026-04-18T11:50:18Z</time></trkpt><trkpt lat="44.494343984688754" lon="9.972756606667767"><ele>883.0</ele><time>2026-04-18T11:50:19Z</time></trkpt><trkpt lat="44.49442182135113" lon="9.972804244523163"><ele>883.6666666666667</ele><time>2026-04-18T11:50:20Z</time></trkpt><trkpt lat="44.49450200258746" lon="9.972858791179233"><ele>884.3333333333334</ele><time>2026-04-18T11:50:21Z</time></trkpt><trkpt lat="44.494582330412634" lon="9.972914506573924"><ele>885.0</ele><time>2026-04-18T11:50:22Z</time></trkpt><trkpt lat="44.49465057239075" lon="9.972965817138565"><ele>885.0</ele><time>2026-04-18T11:50:23Z</time></trkpt><trkpt lat="44.49471425640107" lon="9.97301876956902"><ele>885.0</ele><time>2026-04-18T11:50:24Z</time></trkpt><trkpt lat="44.494792458295585" lon="9.97307366218367"><ele>885.0</ele><time>2026-04-18T11:50:25Z</time></trkpt><trkpt lat="44.49487848124855" lon="9.97312739971678"><ele>885.0</ele><time>2026-04-18T11:50:26Z</time></trkpt><trkpt lat="44.494955662772476" lon="9.973181055615315"><ele>885.0</ele><time>2026-04-18T11:50:27Z</time></trkpt><trkpt lat="44.495030488289856" lon="9.973233997597344"><ele>885.0</ele><time>2026-04-18T11:50:28Z</time></trkpt><trkpt lat="44.495107417155076" lon="9.973288122129077"><ele>885.0</ele><time>2026-04-18T11:50:29Z</time></trkpt><trkpt lat="44.495187650240396" lon="9.973342111283394"><ele>885.0</ele><time>2026-04-18T11:50:30Z</time></trkpt><trkpt lat="44.49526191731739" lon="9.973388056512787"><ele>885.0</ele><time>2026-04-18T11:50:31Z</time></trkpt><trkpt lat="44.495336270131" lon="9.973434817734123"><ele>885.0</ele><time>2026-04-18T11:50:32Z</time></trkpt><trkpt lat="44.49541237944982" lon="9.973481737187761"><ele>885.0</ele><time>2026-04-18T11:50:33Z</time></trkpt><trkpt lat="44.49549180104813" lon="9.973527844351535"><ele>885.0</ele><time>2026-04-18T11:50:34Z</time></trkpt><trkpt lat="44.4955708293949" lon="9.973565736495086"><ele>887.5</ele><time>2026-04-18T11:50:35Z</time></trkpt><trkpt lat="44.49565635523239" lon="9.973597043561552"><ele>890.0</ele><time>2026-04-18T11:50:36Z</time></trkpt><trkpt lat="44.49574079018857" lon="9.973624636415229"><ele>892.5</ele><time>2026-04-18T11:50:36.999Z</time></trkpt><trkpt lat="44.49582335745139" lon="9.97365823371595"><ele>895.0</ele><time>2026-04-18T11:50:37.999Z</time></trkpt><trkpt lat="44.495909455622645" lon="9.973678654813304"><ele>897.5</ele><time>2026-04-18T11:50:38.999Z</time></trkpt><trkpt lat="44.49599122615443" lon="9.973703435806073"><ele>900.0</ele><time>2026-04-18T11:50:39.999Z</time></trkpt><trkpt lat="44.496077041255745" lon="9.97372228881738"><ele>900.0</ele><time>2026-04-18T11:50:40.999Z</time></trkpt><trkpt lat="44.496162662313054" lon="9.973742640882062"><ele>900.0</ele><time>2026-04-18T11:50:41.999Z</time></trkpt><trkpt lat="44.49624655687765" lon="9.973756725343371"><ele>900.0</ele><time>2026-04-18T11:50:42.999Z</time></trkpt><trkpt lat="44.49632461731444" lon="9.973770944356108"><ele>900.0</ele><time>2026-04-18T11:50:43.999Z</time></trkpt><trkpt lat="44.49640453759903" lon="9.973797628413926"><ele>900.0</ele><time>2026-04-18T11:50:44.999Z</time></trkpt><trkpt lat="44.496485308802676" lon="9.973825328840352"><ele>900.0</ele><time>2026-04-18T11:50:45.999Z</time></trkpt><trkpt lat="44.496553744811976" lon="9.973862227613488"><ele>897.6666666666666</ele><time>2026-04-18T11:50:46.999Z</time></trkpt><trkpt lat="44.49662889088302" lon="9.97390473281933"><ele>895.3333333333333</ele><time>2026-04-18T11:50:47.999Z</time></trkpt><trkpt lat="44.49669916256157" lon="9.973945838815071"><ele>893.0</ele><time>2026-04-18T11:50:48.999Z</time></trkpt><trkpt lat="44.49677602946349" lon="9.97400056589168"><ele>890.6666666666666</ele><time>2026-04-18T11:50:49.999Z</time></trkpt><trkpt lat="44.496843917395886" lon="9.974025647004336"><ele>888.3333333333333</ele><time>2026-04-18T11:50:50.999Z</time></trkpt><trkpt lat="44.49691885046593" lon="9.974065486286667"><ele>886.0</ele><time>2026-04-18T11:50:51.999Z</time></trkpt><trkpt lat="44.497006070264504" lon="9.974090850407771"><ele>888.1666666666666</ele><time>2026-04-18T11:50:52.999Z</time></trkpt><trkpt lat="44.49709494411738" lon="9.974104855989381"><ele>890.3333333333333</ele><time>2026-04-18T11:50:53.999Z</time></trkpt><trkpt lat="44.49717856087126" lon="9.974102570988535"><ele>892.5</ele><time>2026-04-18T11:50:54.999Z</time></trkpt><trkpt lat="44.49726591942103" lon="9.974111475536024"><ele>894.6666666666667</ele><time>2026-04-18T11:50:55.999Z</time></trkpt><trkpt lat="44.4973501941228" lon="9.974149246183403"><ele>896.8333333333334</ele><time>2026-04-18T11:50:56.999Z</time></trkpt><trkpt lat="44.49742253314425" lon="9.974209072088401"><ele>899.0</ele><time>2026-04-18T11:50:57.999Z</time></trkpt><trkpt lat="44.49748793293177" lon="9.974294744973168"><ele>899.0000000000001</ele><time>2026-04-18T11:50:58.999Z</time></trkpt><trkpt lat="44.49755058392325" lon="9.974385062061373"><ele>899.0</ele><time>2026-04-18T11:50:59.999Z</time></trkpt><trkpt lat="44.497605020685015" lon="9.974477230087105"><ele>899.0</ele><time>2026-04-18T11:51:00.999Z</time></trkpt><trkpt lat="44.497651284753914" lon="9.974560287717926"><ele>899.0</ele><time>2026-04-18T11:51:01.999Z</time></trkpt><trkpt lat="44.49770828213144" lon="9.974648984750596"><ele>899.0000000000001</ele><time>2026-04-18T11:51:02.999Z</time></trkpt><trkpt lat="44.49776787963239" lon="9.974736580604343"><ele>899.0</ele><time>2026-04-18T11:51:03.999Z</time></trkpt><trkpt lat="44.49782776061613" lon="9.974822009533248"><ele>899.0000000000001</ele><time>2026-04-18T11:51:04.999Z</time></trkpt><trkpt lat="44.49789658282963" lon="9.974901580867156"><ele>899.0</ele><time>2026-04-18T11:51:05.999Z</time></trkpt><trkpt lat="44.49796921480072" lon="9.974966684085748"><ele>899.0</ele><time>2026-04-18T11:51:06.999Z</time></trkpt><trkpt lat="44.49804875503959" lon="9.975014776929049"><ele>899.0</ele><time>2026-04-18T11:51:07.999Z</time></trkpt><trkpt lat="44.49813060281581" lon="9.975052793990237"><ele>899.0000000000001</ele><time>2026-04-18T11:51:08.999Z</time></trkpt><trkpt lat="44.49821559626788" lon="9.975088012347651"><ele>899.0</ele><time>2026-04-18T11:51:09.999Z</time></trkpt><trkpt lat="44.49830074858033" lon="9.975128578652345"><ele>900.6666666666667</ele><time>2026-04-18T11:51:10.999Z</time></trkpt><trkpt lat="44.49838431877534" lon="9.975166712408267"><ele>902.3333333333334</ele><time>2026-04-18T11:51:11.999Z</time></trkpt><trkpt lat="44.49846889452165" lon="9.975209516586643"><ele>904.0</ele><time>2026-04-18T11:51:12.999Z</time></trkpt><trkpt lat="44.498543341475305" lon="9.975252313274162"><ele>905.6666666666667</ele><time>2026-04-18T11:51:13.999Z</time></trkpt><trkpt lat="44.498628022844485" lon="9.975289151068615"><ele>907.3333333333334</ele><time>2026-04-18T11:51:14.999Z</time></trkpt><trkpt lat="44.498710759016774" lon="9.975321351655714"><ele>909.0</ele><time>2026-04-18T11:51:15.999Z</time></trkpt><trkpt lat="44.49878859104952" lon="9.975351185521541"><ele>903.6</ele><time>2026-04-18T11:51:16.999Z</time></trkpt><trkpt lat="44.498870321433444" lon="9.975376855801375"><ele>898.2</ele><time>2026-04-18T11:51:17.999Z</time></trkpt><trkpt lat="44.498972355934484" lon="9.975389319718937"><ele>892.8000000000001</ele><time>2026-04-18T11:51:18.999Z</time></trkpt><trkpt lat="44.49906767328813" lon="9.975397928627244"><ele>887.4000000000001</ele><time>2026-04-18T11:51:19.999Z</time></trkpt><trkpt lat="44.49915571503083" lon="9.97540069294822"><ele>882.0</ele><time>2026-04-18T11:51:20.999Z</time></trkpt><trkpt lat="44.49924697234885" lon="9.975412787961691"><ele>882.0</ele><time>2026-04-18T11:51:21.999Z</time></trkpt><trkpt lat="44.49932773381566" lon="9.975470353611513"><ele>882.0</ele><time>2026-04-18T11:51:22.999Z</time></trkpt><trkpt lat="44.49936788080128" lon="9.9755775056395"><ele>882.0</ele><time>2026-04-18T11:51:23.999Z</time></trkpt><trkpt lat="44.499342185232315" lon="9.975709413976576"><ele>882.0</ele><time>2026-04-18T11:51:24.999Z</time></trkpt><trkpt lat="44.499369615959964" lon="9.97583845475259"><ele>882.0</ele><time>2026-04-18T11:51:25.999Z</time></trkpt><trkpt lat="44.49936888076004" lon="9.975953835985147"><ele>885.1666666666666</ele><time>2026-04-18T11:51:26.999Z</time></trkpt><trkpt lat="44.499373063477265" lon="9.976062444546915"><ele>888.3333333333333</ele><time>2026-04-18T11:51:27.999Z</time></trkpt><trkpt lat="44.49938686102907" lon="9.97617285642634"><ele>891.5</ele><time>2026-04-18T11:51:28.999Z</time></trkpt><trkpt lat="44.4994106506274" lon="9.976282669476385"><ele>894.6666666666666</ele><time>2026-04-18T11:51:29.998Z</time></trkpt><trkpt lat="44.49944905090759" lon="9.976381591800711"><ele>897.8333333333333</ele><time>2026-04-18T11:51:30.998Z</time></trkpt><trkpt lat="44.499471541216636" lon="9.976494959560258"><ele>901.0</ele><time>2026-04-18T11:51:31.998Z</time></trkpt><trkpt lat="44.49950470000124" lon="9.976604356374578"><ele>902.3333333333333</ele><time>2026-04-18T11:51:32.998Z</time></trkpt><trkpt lat="44.499539034761625" lon="9.976715873297469"><ele>903.6666666666666</ele><time>2026-04-18T11:51:33.998Z</time></trkpt><trkpt lat="44.49957193262859" lon="9.976822456005461"><ele>905.0</ele><time>2026-04-18T11:51:34.998Z</time></trkpt><trkpt lat="44.49960491297746" lon="9.97692930621463"><ele>906.3333333333333</ele><time>2026-04-18T11:51:35.998Z</time></trkpt><trkpt lat="44.49963716007579" lon="9.977033780679522"><ele>907.6666666666666</ele><time>2026-04-18T11:51:36.998Z</time></trkpt><trkpt lat="44.499669948472054" lon="9.977140008797813"><ele>909.0</ele><time>2026-04-18T11:51:37.998Z</time></trkpt><trkpt lat="44.49970264982469" lon="9.977245871440287"><ele>901.3333333333334</ele><time>2026-04-18T11:51:38.998Z</time></trkpt><trkpt lat="44.49973171101966" lon="9.977346859547662"><ele>893.6666666666667</ele><time>2026-04-18T11:51:39.998Z</time></trkpt><trkpt lat="44.499753416043994" lon="9.977451459359543"><ele>886.0</ele><time>2026-04-18T11:51:40.998Z</time></trkpt><trkpt lat="44.49977010969599" lon="9.977563952564223"><ele>878.3333333333334</ele><time>2026-04-18T11:51:41.998Z</time></trkpt><trkpt lat="44.49978265466305" lon="9.97768336851923"><ele>870.6666666666667</ele><time>2026-04-18T11:51:42.998Z</time></trkpt><trkpt lat="44.499777148814644" lon="9.977797830350601"><ele>863.0</ele><time>2026-04-18T11:51:43.998Z</time></trkpt><trkpt lat="44.49977236206864" lon="9.977918447740636"><ele>863.0000000000001</ele><time>2026-04-18T11:51:44.998Z</time></trkpt><trkpt lat="44.499765577328574" lon="9.978036839894482"><ele>863.0</ele><time>2026-04-18T11:51:45.998Z</time></trkpt><trkpt lat="44.4997588932958" lon="9.978153474942468"><ele>863.0</ele><time>2026-04-18T11:51:46.998Z</time></trkpt><trkpt lat="44.499751839688265" lon="9.978276559080182"><ele>863.0</ele><time>2026-04-18T11:51:47.998Z</time></trkpt><trkpt lat="44.49974536522178" lon="9.978396419831604"><ele>863.0000000000001</ele><time>2026-04-18T11:51:48.998Z</time></trkpt><trkpt lat="44.49974235390519" lon="9.978524819055117"><ele>863.0</ele><time>2026-04-18T11:51:49.998Z</time></trkpt><trkpt lat="44.49974615636803" lon="9.978650881876279"><ele>863.2</ele><time>2026-04-18T11:51:50.998Z</time></trkpt><trkpt lat="44.49977220766046" lon="9.978779916480988"><ele>863.4</ele><time>2026-04-18T11:51:51.998Z</time></trkpt><trkpt lat="44.49981202370983" lon="9.97890363095699"><ele>863.6000000000001</ele><time>2026-04-18T11:51:52.998Z</time></trkpt><trkpt lat="44.499852265033276" lon="9.979029220232423"><ele>863.8000000000001</ele><time>2026-04-18T11:51:53.998Z</time></trkpt><trkpt lat="44.49989256168331" lon="9.979158915149874"><ele>864.0</ele><time>2026-04-18T11:51:54.998Z</time></trkpt><trkpt lat="44.4999327948518" lon="9.97928840592649"><ele>864.6</ele><time>2026-04-18T11:51:55.998Z</time></trkpt><trkpt lat="44.499974923464606" lon="9.979418285312775"><ele>865.2</ele><time>2026-04-18T11:51:56.998Z</time></trkpt><trkpt lat="44.500019396892505" lon="9.979543040224119"><ele>865.8000000000001</ele><time>2026-04-18T11:51:57.998Z</time></trkpt><trkpt lat="44.50005851457635" lon="9.979666238759474"><ele>866.4000000000001</ele><time>2026-04-18T11:51:58.998Z</time></trkpt><trkpt lat="44.500070938137625" lon="9.979790267141654"><ele>867.0</ele><time>2026-04-18T11:51:59.998Z</time></trkpt><trkpt lat="44.500074968656165" lon="9.979919174355732"><ele>867.4000000000001</ele><time>2026-04-18T11:52:00.998Z</time></trkpt><trkpt lat="44.5000680274611" lon="9.98005094581222"><ele>867.8000000000001</ele><time>2026-04-18T11:52:01.998Z</time></trkpt><trkpt lat="44.500059446271514" lon="9.980190152532002"><ele>868.2</ele><time>2026-04-18T11:52:02.998Z</time></trkpt><trkpt lat="44.50004970495141" lon="9.980330875402043"><ele>868.6</ele><time>2026-04-18T11:52:03.998Z</time></trkpt><trkpt lat="44.500046653900455" lon="9.980470358256063"><ele>869.0</ele><time>2026-04-18T11:52:04.998Z</time></trkpt><trkpt lat="44.500049855549626" lon="9.98060427751941"><ele>869.0</ele><time>2026-04-18T11:52:05.998Z</time></trkpt><trkpt lat="44.500064992972774" lon="9.980730563040812"><ele>869.0000000000001</ele><time>2026-04-18T11:52:06.998Z</time></trkpt><trkpt lat="44.50009355840617" lon="9.980850295209152"><ele>869.0000000000001</ele><time>2026-04-18T11:52:07.998Z</time></trkpt><trkpt lat="44.50015136086685" lon="9.980951732949967"><ele>869.0</ele><time>2026-04-18T11:52:08.998Z</time></trkpt><trkpt lat="44.50020070216327" lon="9.981053912633529"><ele>869.0</ele><time>2026-04-18T11:52:09.998Z</time></trkpt><trkpt lat="44.50025118029604" lon="9.981154586021823"><ele>870.1666666666667</ele><time>2026-04-18T11:52:10.998Z</time></trkpt><trkpt lat="44.50030481389963" lon="9.98124750965449"><ele>871.3333333333334</ele><time>2026-04-18T11:52:11.998Z</time></trkpt><trkpt lat="44.50035583418123" lon="9.981339932934452"><ele>872.5</ele><time>2026-04-18T11:52:12.998Z</time></trkpt><trkpt lat="44.50040997049408" lon="9.981433477004627"><ele>873.6666666666667</ele><time>2026-04-18T11:52:13.998Z</time></trkpt><trkpt lat="44.50047009362128" lon="9.981520664328848"><ele>874.8333333333334</ele><time>2026-04-18T11:52:14.998Z</time></trkpt><trkpt lat="44.500533522848144" lon="9.981606967501719"><ele>876.0</ele><time>2026-04-18T11:52:15.998Z</time></trkpt><trkpt lat="44.500596132516506" lon="9.981698768392212"><ele>876.0</ele><time>2026-04-18T11:52:16.998Z</time></trkpt><trkpt lat="44.50066408818594" lon="9.981785478792244"><ele>875.9999999999999</ele><time>2026-04-18T11:52:17.998Z</time></trkpt><trkpt lat="44.500740261455476" lon="9.98187095710829"><ele>875.9999999999999</ele><time>2026-04-18T11:52:18.998Z</time></trkpt><trkpt lat="44.50081603642616" lon="9.981961205111556"><ele>876.0</ele><time>2026-04-18T11:52:19.998Z</time></trkpt><trkpt lat="44.50089445546519" lon="9.982049164649164"><ele>876.0</ele><time>2026-04-18T11:52:20.998Z</time></trkpt><trkpt lat="44.50097726426958" lon="9.982125642630074"><ele>876.0</ele><time>2026-04-18T11:52:22Z</time></trkpt><trkpt lat="44.50106553254536" lon="9.982186023841479"><ele>875.9999999999999</ele><time>2026-04-18T11:52:23Z</time></trkpt><trkpt lat="44.5011556151978" lon="9.982240974810031"><ele>875.9999999999999</ele><time>2026-04-18T11:52:24Z</time></trkpt><trkpt lat="44.50124372624239" lon="9.982293523646687"><ele>876.0</ele><time>2026-04-18T11:52:25Z</time></trkpt><trkpt lat="44.501328060575595" lon="9.982343625320489"><ele>876.0</ele><time>2026-04-18T11:52:26Z</time></trkpt><trkpt lat="44.501415151581746" lon="9.982387116298723"><ele>873.8</ele><time>2026-04-18T11:52:27Z</time></trkpt><trkpt lat="44.50150282255825" lon="9.982431105939936"><ele>871.5999999999999</ele><time>2026-04-18T11:52:28Z</time></trkpt><trkpt lat="44.50159145798535" lon="9.98248322751829"><ele>869.4</ele><time>2026-04-18T11:52:29Z</time></trkpt><trkpt lat="44.501674656144935" lon="9.982564826948494"><ele>867.2</ele><time>2026-04-18T11:52:30Z</time></trkpt><trkpt lat="44.501726791571244" lon="9.982670448555947"><ele>865.0</ele><time>2026-04-18T11:52:31Z</time></trkpt><trkpt lat="44.501740522574565" lon="9.982799123242264"><ele>865.0</ele><time>2026-04-18T11:52:32Z</time></trkpt><trkpt lat="44.501776347805816" lon="9.982913520707006"><ele>865.0</ele><time>2026-04-18T11:52:33Z</time></trkpt><trkpt lat="44.501797372892796" lon="9.983036560323056"><ele>865.0</ele><time>2026-04-18T11:52:34Z</time></trkpt><trkpt lat="44.50182496124716" lon="9.983159096800303"><ele>865.0</ele><time>2026-04-18T11:52:35Z</time></trkpt><trkpt lat="44.501851878305544" lon="9.98328342562147"><ele>865.0</ele><time>2026-04-18T11:52:36Z</time></trkpt><trkpt lat="44.501873035006334" lon="9.983409151676193"><ele>864.9999999999999</ele><time>2026-04-18T11:52:37Z</time></trkpt><trkpt lat="44.5018588562681" lon="9.983534147097314"><ele>865.0</ele><time>2026-04-18T11:52:38Z</time></trkpt><trkpt lat="44.501851204707194" lon="9.98365603219844"><ele>865.0</ele><time>2026-04-18T11:52:38.999Z</time></trkpt><trkpt lat="44.50183086255011" lon="9.983770929643144"><ele>865.0</ele><time>2026-04-18T11:52:39.999Z</time></trkpt><trkpt lat="44.50181537851256" lon="9.983893394799786"><ele>864.9999999999999</ele><time>2026-04-18T11:52:40.999Z</time></trkpt><trkpt lat="44.50178094979101" lon="9.984005357666101"><ele>865.0</ele><time>2026-04-18T11:52:41.999Z</time></trkpt><trkpt lat="44.501748593500245" lon="9.984123552183405"><ele>863.6</ele><time>2026-04-18T11:52:42.999Z</time></trkpt><trkpt lat="44.501712175656984" lon="9.984234662427333"><ele>862.2</ele><time>2026-04-18T11:52:43.999Z</time></trkpt><trkpt lat="44.501668116149084" lon="9.9843455292533"><ele>860.8</ele><time>2026-04-18T11:52:44.999Z</time></trkpt><trkpt lat="44.501615701274865" lon="9.984449224466868"><ele>859.4</ele><time>2026-04-18T11:52:45.999Z</time></trkpt><trkpt lat="44.501555921881675" lon="9.984558061086139"><ele>858.0</ele><time>2026-04-18T11:52:46.999Z</time></trkpt><trkpt lat="44.50149948462095" lon="9.984657332306375"><ele>858.0</ele><time>2026-04-18T11:52:47.999Z</time></trkpt><trkpt lat="44.501454732020015" lon="9.984770762464464"><ele>858.0</ele><time>2026-04-18T11:52:48.999Z</time></trkpt><trkpt lat="44.501428330368974" lon="9.984900089635026"><ele>858.0</ele><time>2026-04-18T11:52:49.999Z</time></trkpt><trkpt lat="44.50143299929555" lon="9.985037647920288"><ele>858.0</ele><time>2026-04-18T11:52:50.999Z</time></trkpt><trkpt lat="44.50144473341555" lon="9.985180758581901"><ele>858.0</ele><time>2026-04-18T11:52:51.999Z</time></trkpt><trkpt lat="44.501495735368" lon="9.985308678397823"><ele>858.4</ele><time>2026-04-18T11:52:52.999Z</time></trkpt><trkpt lat="44.50157353688892" lon="9.985412222589584"><ele>858.8</ele><time>2026-04-18T11:52:53.999Z</time></trkpt><trkpt lat="44.50166442520263" lon="9.985509413413247"><ele>859.2</ele><time>2026-04-18T11:52:54.999Z</time></trkpt><trkpt lat="44.50175321777554" lon="9.985584732011874"><ele>859.6</ele><time>2026-04-18T11:52:55.999Z</time></trkpt><trkpt lat="44.50183975307861" lon="9.985669615097045"><ele>860.0</ele><time>2026-04-18T11:52:56.999Z</time></trkpt><trkpt lat="44.50191705377677" lon="9.985762738563771"><ele>860.2</ele><time>2026-04-18T11:52:57.999Z</time></trkpt><trkpt lat="44.501985005598854" lon="9.985873919345806"><ele>860.4</ele><time>2026-04-18T11:52:58.999Z</time></trkpt><trkpt lat="44.50204359541046" lon="9.985987158741462"><ele>860.5999999999999</ele><time>2026-04-18T11:52:59.999Z</time></trkpt><trkpt lat="44.502110051787625" lon="9.986096611632277"><ele>860.8</ele><time>2026-04-18T11:53:00.999Z</time></trkpt><trkpt lat="44.50215793983488" lon="9.986219381369201"><ele>861.0</ele><time>2026-04-18T11:53:01.999Z</time></trkpt><trkpt lat="44.502201921196274" lon="9.98634779584443"><ele>861.5999999999999</ele><time>2026-04-18T11:53:02.999Z</time></trkpt><trkpt lat="44.50220553737738" lon="9.986490010019354"><ele>862.1999999999999</ele><time>2026-04-18T11:53:03.999Z</time></trkpt><trkpt lat="44.50217169812535" lon="9.986626706600676"><ele>862.8000000000001</ele><time>2026-04-18T11:53:04.999Z</time></trkpt><trkpt lat="44.502136990841514" lon="9.986747250817709"><ele>863.4000000000001</ele><time>2026-04-18T11:53:05.999Z</time></trkpt><trkpt lat="44.50209558821951" lon="9.986870235115441"><ele>864.0</ele><time>2026-04-18T11:53:06.999Z</time></trkpt><trkpt lat="44.50205911713327" lon="9.98699335372114"><ele>864.0</ele><time>2026-04-18T11:53:07.999Z</time></trkpt><trkpt lat="44.50204365117152" lon="9.987126689288408"><ele>864.0000000000001</ele><time>2026-04-18T11:53:08.999Z</time></trkpt><trkpt lat="44.5020665859013" lon="9.987260975058605"><ele>864.0000000000001</ele><time>2026-04-18T11:53:09.999Z</time></trkpt><trkpt lat="44.50209267990718" lon="9.98739578758323"><ele>864.0</ele><time>2026-04-18T11:53:10.999Z</time></trkpt><trkpt lat="44.50216681439792" lon="9.98749844351951"><ele>864.0</ele><time>2026-04-18T11:53:11.999Z</time></trkpt><trkpt lat="44.50227348002592" lon="9.987543820151286"><ele>864.4000000000001</ele><time>2026-04-18T11:53:12.999Z</time></trkpt><trkpt lat="44.50237982530987" lon="9.987552003602367"><ele>864.8000000000001</ele><time>2026-04-18T11:53:13.999Z</time></trkpt><trkpt lat="44.50247835031422" lon="9.987534233101862"><ele>865.1999999999999</ele><time>2026-04-18T11:53:14.999Z</time></trkpt><trkpt lat="44.50257273092431" lon="9.987514249640615"><ele>865.5999999999999</ele><time>2026-04-18T11:53:15.999Z</time></trkpt><trkpt lat="44.50266690818472" lon="9.98749146762111"><ele>866.0</ele><time>2026-04-18T11:53:16.999Z</time></trkpt><trkpt lat="44.502758217277105" lon="9.98746937946531"><ele>864.0000000000001</ele><time>2026-04-18T11:53:17.999Z</time></trkpt><trkpt lat="44.50284803977543" lon="9.98745223132006"><ele>862.0</ele><time>2026-04-18T11:53:18.999Z</time></trkpt><trkpt lat="44.502938693090165" lon="9.987443209794263"><ele>860.0</ele><time>2026-04-18T11:53:19.999Z</time></trkpt><trkpt lat="44.503020537201266" lon="9.98746528702228"><ele>858.0</ele><time>2026-04-18T11:53:20.999Z</time></trkpt><trkpt lat="44.50309433786394" lon="9.987531631867888"><ele>856.0000000000001</ele><time>2026-04-18T11:53:21.999Z</time></trkpt><trkpt lat="44.50316039611654" lon="9.987618350510862"><ele>854.0</ele><time>2026-04-18T11:53:22.999Z</time></trkpt><trkpt lat="44.503208942051" lon="9.987726395614956"><ele>854.0000000000001</ele><time>2026-04-18T11:53:23.999Z</time></trkpt><trkpt lat="44.503258954039595" lon="9.987830342800887"><ele>854.0</ele><time>2026-04-18T11:53:25Z</time></trkpt><trkpt lat="44.5033099379001" lon="9.987931146876226"><ele>854.0</ele><time>2026-04-18T11:53:26Z</time></trkpt><trkpt lat="44.50335490905744" lon="9.988035434799908"><ele>854.0</ele><time>2026-04-18T11:53:27Z</time></trkpt><trkpt lat="44.50340367892103" lon="9.988136115910393"><ele>854.0000000000001</ele><time>2026-04-18T11:53:28Z</time></trkpt><trkpt lat="44.50345815520605" lon="9.988230596323527"><ele>854.0</ele><time>2026-04-18T11:53:29Z</time></trkpt><trkpt lat="44.50351322124998" lon="9.988321037959375"><ele>853.8333333333334</ele><time>2026-04-18T11:53:30Z</time></trkpt><trkpt lat="44.503576326501026" lon="9.988402066229773"><ele>853.6666666666667</ele><time>2026-04-18T11:53:30.999Z</time></trkpt><trkpt lat="44.50362954864475" lon="9.988491906145677"><ele>853.5</ele><time>2026-04-18T11:53:31.999Z</time></trkpt><trkpt lat="44.50369510816004" lon="9.988562381479635"><ele>853.3333333333333</ele><time>2026-04-18T11:53:32.999Z</time></trkpt><trkpt lat="44.50376090896354" lon="9.988628330924065"><ele>853.1666666666666</ele><time>2026-04-18T11:53:33.999Z</time></trkpt><trkpt lat="44.50383048395165" lon="9.98869160758192"><ele>853.0</ele><time>2026-04-18T11:53:34.999Z</time></trkpt><trkpt lat="44.503906676187135" lon="9.988753502754715"><ele>852.9999999999999</ele><time>2026-04-18T11:53:35.999Z</time></trkpt><trkpt lat="44.50399191288049" lon="9.988791747624147"><ele>853.0</ele><time>2026-04-18T11:53:36.999Z</time></trkpt><trkpt lat="44.50406216809031" lon="9.988864172639511"><ele>853.0</ele><time>2026-04-18T11:53:37.999Z</time></trkpt><trkpt lat="44.50414283085002" lon="9.98890873822049"><ele>853.0</ele><time>2026-04-18T11:53:38.999Z</time></trkpt><trkpt lat="44.50422731106873" lon="9.988938072426368"><ele>852.9999999999999</ele><time>2026-04-18T11:53:39.999Z</time></trkpt><trkpt lat="44.504312819947266" lon="9.988958283407456"><ele>853.0</ele><time>2026-04-18T11:53:40.999Z</time></trkpt><trkpt lat="44.50439655992805" lon="9.988969831326905"><ele>852.9999999999999</ele><time>2026-04-18T11:53:41.999Z</time></trkpt><trkpt lat="44.50447960686164" lon="9.98895557675539"><ele>853.0</ele><time>2026-04-18T11:53:42.999Z</time></trkpt><trkpt lat="44.50456100887689" lon="9.988963470336127"><ele>853.0</ele><time>2026-04-18T11:53:43.999Z</time></trkpt><trkpt lat="44.50463735390794" lon="9.988974425880333"><ele>853.0</ele><time>2026-04-18T11:53:44.999Z</time></trkpt><trkpt lat="44.504714436189275" lon="9.988985335360368"><ele>852.9999999999999</ele><time>2026-04-18T11:53:45.999Z</time></trkpt><trkpt lat="44.50479218932877" lon="9.988992938387874"><ele>853.0</ele><time>2026-04-18T11:53:46.999Z</time></trkpt><trkpt lat="44.504864763292986" lon="9.98899930176992"><ele>852.4285714285714</ele><time>2026-04-18T11:53:47.999Z</time></trkpt><trkpt lat="44.50493676470313" lon="9.98900705537571"><ele>851.8571428571429</ele><time>2026-04-18T11:53:48.999Z</time></trkpt><trkpt lat="44.5050051961358" lon="9.989021272716371"><ele>851.2857142857143</ele><time>2026-04-18T11:53:49.999Z</time></trkpt><trkpt lat="44.50507291436312" lon="9.989048847994074"><ele>850.7142857142858</ele><time>2026-04-18T11:53:50.999Z</time></trkpt><trkpt lat="44.50513801245738" lon="9.989085153811926"><ele>850.1428571428571</ele><time>2026-04-18T11:53:51.999Z</time></trkpt><trkpt lat="44.50520188280232" lon="9.989131475932505"><ele>849.5714285714287</ele><time>2026-04-18T11:53:52.999Z</time></trkpt><trkpt lat="44.50526347574024" lon="9.989186903775636"><ele>849.0</ele><time>2026-04-18T11:53:53.999Z</time></trkpt><trkpt lat="44.50532024599373" lon="9.989248897871073"><ele>849.0</ele><time>2026-04-18T11:53:54.999Z</time></trkpt><trkpt lat="44.50537918561788" lon="9.989313386751412"><ele>849.0</ele><time>2026-04-18T11:53:55.999Z</time></trkpt><trkpt lat="44.50543839218808" lon="9.989381334552482"><ele>849.0</ele><time>2026-04-18T11:53:56.999Z</time></trkpt><trkpt lat="44.50550335335885" lon="9.989444201768345"><ele>849.0</ele><time>2026-04-18T11:53:57.999Z</time></trkpt><trkpt lat="44.505568241641676" lon="9.989510418880135"><ele>849.0</ele><time>2026-04-18T11:53:58.999Z</time></trkpt><trkpt lat="44.505625631922065" lon="9.98958231878121"><ele>849.0</ele><time>2026-04-18T11:53:59.999Z</time></trkpt><trkpt lat="44.50568390471259" lon="9.98965461568849"><ele>848.5714285714287</ele><time>2026-04-18T11:54:00.999Z</time></trkpt><trkpt lat="44.505741638804366" lon="9.989725185853088"><ele>848.1428571428571</ele><time>2026-04-18T11:54:01.999Z</time></trkpt><trkpt lat="44.505800369771215" lon="9.989794105054289"><ele>847.7142857142858</ele><time>2026-04-18T11:54:02.999Z</time></trkpt><trkpt lat="44.50586041673977" lon="9.989854015327255"><ele>847.2857142857143</ele><time>2026-04-18T11:54:03.999Z</time></trkpt><trkpt lat="44.505917721050324" lon="9.989915158661873"><ele>846.8571428571429</ele><time>2026-04-18T11:54:04.999Z</time></trkpt><trkpt lat="44.50597358544658" lon="9.98997959380343"><ele>846.4285714285714</ele><time>2026-04-18T11:54:05.999Z</time></trkpt><trkpt lat="44.50602717753597" lon="9.990046418145369"><ele>846.0</ele><time>2026-04-18T11:54:06.999Z</time></trkpt><trkpt lat="44.506079166100136" lon="9.990107191453722"><ele>846.0</ele><time>2026-04-18T11:54:07.999Z</time></trkpt><trkpt lat="44.50612475106303" lon="9.990177145963193"><ele>846.0</ele><time>2026-04-18T11:54:08.999Z</time></trkpt><trkpt lat="44.50616397602448" lon="9.990251410370547"><ele>846.0</ele><time>2026-04-18T11:54:09.999Z</time></trkpt><trkpt lat="44.50619610316149" lon="9.990334260273983"><ele>846.0</ele><time>2026-04-18T11:54:10.999Z</time></trkpt><trkpt lat="44.50622332448812" lon="9.990415732696988"><ele>846.0</ele><time>2026-04-18T11:54:11.999Z</time></trkpt><trkpt lat="44.506250020328764" lon="9.990498725833861"><ele>846.0</ele><time>2026-04-18T11:54:12.999Z</time></trkpt><trkpt lat="44.50627852926847" lon="9.990577611748751"><ele>846.0</ele><time>2026-04-18T11:54:13.999Z</time></trkpt><trkpt lat="44.50633147299079" lon="9.990728706080548"><ele>845.5</ele><time>2026-04-18T11:54:15.999Z</time></trkpt><trkpt lat="44.50639987141993" lon="9.990867198024524"><ele>845.0</ele><time>2026-04-18T11:54:17.999Z</time></trkpt><trkpt lat="44.506462547373914" lon="9.990967789322374"><ele>844.5</ele><time>2026-04-18T11:54:19.999Z</time></trkpt><trkpt lat="44.50646275055915" lon="9.991056284515295"><ele>844.0</ele><time>2026-04-18T11:54:23.999Z</time></trkpt><trkpt lat="44.506442068856366" lon="9.991147500969959"><ele>843.5</ele><time>2026-04-18T11:55:18Z</time></trkpt><trkpt lat="44.50638581412912" lon="9.99123843498029"><ele>843.0</ele><time>2026-04-18T11:55:21Z</time></trkpt><trkpt lat="44.50634427464487" lon="9.991343186216255"><ele>843.0</ele><time>2026-04-18T11:55:24Z</time></trkpt><trkpt lat="44.50635981625115" lon="9.991438422396408"><ele>843.0</ele><time>2026-04-18T11:55:26Z</time></trkpt><trkpt lat="44.506408536254035" lon="9.991536644104125"><ele>843.0</ele><time>2026-04-18T11:55:28Z</time></trkpt><trkpt lat="44.50648376169297" lon="9.991658083463895"><ele>843.0</ele><time>2026-04-18T11:55:30Z</time></trkpt><trkpt lat="44.50653156035452" lon="9.991722186968563"><ele>843.0</ele><time>2026-04-18T11:55:31Z</time></trkpt><trkpt lat="44.50656634624374" lon="9.99181516848411"><ele>843.0</ele><time>2026-04-18T11:55:32Z</time></trkpt><trkpt lat="44.50661892382867" lon="9.99189134392409"><ele>840.8333333333334</ele><time>2026-04-18T11:55:32.999Z</time></trkpt><trkpt lat="44.50668449778898" lon="9.991963297639963"><ele>838.6666666666667</ele><time>2026-04-18T11:55:33.999Z</time></trkpt><trkpt lat="44.50673741729687" lon="9.992056476229706"><ele>836.5</ele><time>2026-04-18T11:55:34.999Z</time></trkpt><trkpt lat="44.50677735485376" lon="9.99216655493962"><ele>834.3333333333334</ele><time>2026-04-18T11:55:35.999Z</time></trkpt><trkpt lat="44.50682845147617" lon="9.992276363643725"><ele>832.1666666666667</ele><time>2026-04-18T11:55:36.999Z</time></trkpt><trkpt lat="44.50687914033478" lon="9.992385507435104"><ele>830.0</ele><time>2026-04-18T11:55:37.999Z</time></trkpt><trkpt lat="44.506944635500886" lon="9.992488261087493"><ele>830.8333333333334</ele><time>2026-04-18T11:55:38.999Z</time></trkpt><trkpt lat="44.50698694603317" lon="9.99260968164245"><ele>831.6666666666667</ele><time>2026-04-18T11:55:39.999Z</time></trkpt><trkpt lat="44.50703916959254" lon="9.992718511362916"><ele>832.5</ele><time>2026-04-18T11:55:40.999Z</time></trkpt><trkpt lat="44.50708794677378" lon="9.992821113442153"><ele>833.3333333333333</ele><time>2026-04-18T11:55:41.999Z</time></trkpt><trkpt lat="44.50714955186651" lon="9.992912228203407"><ele>834.1666666666666</ele><time>2026-04-18T11:55:42.999Z</time></trkpt><trkpt lat="44.507181026726165" lon="9.99301745719469"><ele>835.0</ele><time>2026-04-18T11:55:43.999Z</time></trkpt><trkpt lat="44.50717527409939" lon="9.993120066604568"><ele>834.9999999999999</ele><time>2026-04-18T11:55:44.999Z</time></trkpt><trkpt lat="44.50711138179347" lon="9.993200531462406"><ele>835.0</ele><time>2026-04-18T11:55:45.999Z</time></trkpt><trkpt lat="44.50705027858797" lon="9.993255794727107"><ele>835.0</ele><time>2026-04-18T11:55:46.999Z</time></trkpt><trkpt lat="44.50696404058786" lon="9.99325663713373"><ele>835.0</ele><time>2026-04-18T11:55:47.999Z</time></trkpt><trkpt lat="44.506889176684794" lon="9.99319761610822"><ele>834.9999999999999</ele><time>2026-04-18T11:55:48.999Z</time></trkpt><trkpt lat="44.50682953684736" lon="9.993108698248134"><ele>835.0</ele><time>2026-04-18T11:55:49.999Z</time></trkpt><trkpt lat="44.50677471266465" lon="9.993011417736367"><ele>832.6</ele><time>2026-04-18T11:55:50.999Z</time></trkpt><trkpt lat="44.50671920056107" lon="9.992907105099073"><ele>830.2</ele><time>2026-04-18T11:55:51.999Z</time></trkpt><trkpt lat="44.50665397023715" lon="9.992809237674981"><ele>827.8</ele><time>2026-04-18T11:55:52.999Z</time></trkpt><trkpt lat="44.506585241064855" lon="9.992711392982201"><ele>825.4</ele><time>2026-04-18T11:55:53.999Z</time></trkpt><trkpt lat="44.50651405558528" lon="9.992609684833548"><ele>823.0</ele><time>2026-04-18T11:55:54.999Z</time></trkpt><trkpt lat="44.50643743212522" lon="9.992509369987836"><ele>821.5</ele><time>2026-04-18T11:55:55.999Z</time></trkpt><trkpt lat="44.506351430931204" lon="9.992415053006043"><ele>820.0</ele><time>2026-04-18T11:55:56.999Z</time></trkpt><trkpt lat="44.506255025139644" lon="9.992329855999852"><ele>818.5</ele><time>2026-04-18T11:55:57.999Z</time></trkpt><trkpt lat="44.50615637466182" lon="9.992243994757402"><ele>817.0</ele><time>2026-04-18T11:55:58.999Z</time></trkpt><trkpt lat="44.50605496184803" lon="9.992149005773062"><ele>817.0</ele><time>2026-04-18T11:55:59.999Z</time></trkpt><trkpt lat="44.50595865191267" lon="9.992054188468735"><ele>817.0</ele><time>2026-04-18T11:56:00.999Z</time></trkpt><trkpt lat="44.50586274235805" lon="9.991969228334856"><ele>817.0</ele><time>2026-04-18T11:56:01.999Z</time></trkpt><trkpt lat="44.505751737055306" lon="9.991918625042066"><ele>817.0</ele><time>2026-04-18T11:56:02.999Z</time></trkpt><trkpt lat="44.50563336037599" lon="9.991922424284121"><ele>817.0</ele><time>2026-04-18T11:56:03.999Z</time></trkpt><trkpt lat="44.5055132177254" lon="9.991977404888878"><ele>817.0</ele><time>2026-04-18T11:56:04.999Z</time></trkpt><trkpt lat="44.505403689412056" lon="9.992060360557765"><ele>817.0</ele><time>2026-04-18T11:56:05.999Z</time></trkpt><trkpt lat="44.50530228884948" lon="9.992167280621876"><ele>817.0</ele><time>2026-04-18T11:56:06.999Z</time></trkpt><trkpt lat="44.505194419418196" lon="9.992265639173423"><ele>815.75</ele><time>2026-04-18T11:56:07.999Z</time></trkpt><trkpt lat="44.505086803506266" lon="9.992364485024398"><ele>814.5</ele><time>2026-04-18T11:56:08.999Z</time></trkpt><trkpt lat="44.50497970722305" lon="9.99245641613449"><ele>813.25</ele><time>2026-04-18T11:56:09.999Z</time></trkpt><trkpt lat="44.50487361524832" lon="9.992541821225737"><ele>812.0</ele><time>2026-04-18T11:56:10.999Z</time></trkpt><trkpt lat="44.504770006712015" lon="9.99261541233188"><ele>807.5</ele><time>2026-04-18T11:56:11.999Z</time></trkpt><trkpt lat="44.50465644040437" lon="9.992659627317671"><ele>803.0</ele><time>2026-04-18T11:56:12.999Z</time></trkpt><trkpt lat="44.504539163673755" lon="9.992680177975833"><ele>798.5</ele><time>2026-04-18T11:56:13.999Z</time></trkpt><trkpt lat="44.50441929610418" lon="9.99266159157564"><ele>794.0</ele><time>2026-04-18T11:56:14.999Z</time></trkpt><trkpt lat="44.50430422013938" lon="9.99263891947219"><ele>794.0</ele><time>2026-04-18T11:56:15.999Z</time></trkpt><trkpt lat="44.50417294197371" lon="9.992584398594174"><ele>794.0</ele><time>2026-04-18T11:56:16.999Z</time></trkpt><trkpt lat="44.50406442723758" lon="9.992532645507852"><ele>794.0</ele><time>2026-04-18T11:56:17.999Z</time></trkpt><trkpt lat="44.50395723697485" lon="9.992495950588092"><ele>794.0</ele><time>2026-04-18T11:56:18.999Z</time></trkpt><trkpt lat="44.503842690847684" lon="9.992487829298017"><ele>794.0</ele><time>2026-04-18T11:56:19.999Z</time></trkpt><trkpt lat="44.50374935235684" lon="9.992551893842293"><ele>794.0</ele><time>2026-04-18T11:56:20.999Z</time></trkpt><trkpt lat="44.50366708648798" lon="9.992650815323328"><ele>794.0</ele><time>2026-04-18T11:56:21.999Z</time></trkpt><trkpt lat="44.50362922740821" lon="9.992767995075521"><ele>794.0</ele><time>2026-04-18T11:56:22.999Z</time></trkpt><trkpt lat="44.50357908316947" lon="9.992893253547283"><ele>794.0</ele><time>2026-04-18T11:56:23.999Z</time></trkpt><trkpt lat="44.50353514172698" lon="9.99300962107778"><ele>796.8000000000001</ele><time>2026-04-18T11:56:24.999Z</time></trkpt><trkpt lat="44.50348896012853" lon="9.993134604473962"><ele>799.6</ele><time>2026-04-18T11:56:25.998Z</time></trkpt><trkpt lat="44.503445457709574" lon="9.993258990403941"><ele>802.4</ele><time>2026-04-18T11:56:26.998Z</time></trkpt><trkpt lat="44.50340578254035" lon="9.993378419812894"><ele>805.2</ele><time>2026-04-18T11:56:27.998Z</time></trkpt><trkpt lat="44.503394085327976" lon="9.993517117322508"><ele>808.0</ele><time>2026-04-18T11:56:28.998Z</time></trkpt><trkpt lat="44.50340030647421" lon="9.993651847092723"><ele>808.6666666666666</ele><time>2026-04-18T11:56:29.998Z</time></trkpt><trkpt lat="44.503421568330104" lon="9.993780018376151"><ele>809.3333333333333</ele><time>2026-04-18T11:56:30.998Z</time></trkpt><trkpt lat="44.50346510919092" lon="9.993897719648318"><ele>810.0</ele><time>2026-04-18T11:56:31.998Z</time></trkpt><trkpt lat="44.50350472188602" lon="9.994002975779306"><ele>810.6666666666667</ele><time>2026-04-18T11:56:33Z</time></trkpt><trkpt lat="44.50354648758206" lon="9.994102133100542"><ele>811.3333333333334</ele><time>2026-04-18T11:56:34Z</time></trkpt><trkpt lat="44.50359230260314" lon="9.994189160422994"><ele>812.0</ele><time>2026-04-18T11:56:35Z</time></trkpt><trkpt lat="44.5036392254205" lon="9.994271877917777"><ele>813.0000000000001</ele><time>2026-04-18T11:56:36Z</time></trkpt><trkpt lat="44.503675738829045" lon="9.994365676170322"><ele>814.0</ele><time>2026-04-18T11:56:37Z</time></trkpt><trkpt lat="44.50370720893747" lon="9.994459009131884"><ele>815.0</ele><time>2026-04-18T11:56:38Z</time></trkpt><trkpt lat="44.50373702526973" lon="9.994557793822668"><ele>816.0</ele><time>2026-04-18T11:56:39Z</time></trkpt><trkpt lat="44.50376954794238" lon="9.994660669705107"><ele>817.0000000000001</ele><time>2026-04-18T11:56:40Z</time></trkpt><trkpt lat="44.50380061421211" lon="9.994764168581494"><ele>818.0</ele><time>2026-04-18T11:56:41Z</time></trkpt><trkpt lat="44.50383544872692" lon="9.994866628257741"><ele>816.6666666666667</ele><time>2026-04-18T11:56:42Z</time></trkpt><trkpt lat="44.50387022970021" lon="9.994963506745671"><ele>815.3333333333334</ele><time>2026-04-18T11:56:43Z</time></trkpt><trkpt lat="44.50390462173801" lon="9.995057900474215"><ele>814.0</ele><time>2026-04-18T11:56:44Z</time></trkpt><trkpt lat="44.503943959791656" lon="9.995140523352896"><ele>812.6666666666667</ele><time>2026-04-18T11:56:45Z</time></trkpt><trkpt lat="44.50401587387891" lon="9.995218301332043"><ele>811.3333333333334</ele><time>2026-04-18T11:56:46Z</time></trkpt><trkpt lat="44.50406487921966" lon="9.995297726530845"><ele>810.0</ele><time>2026-04-18T11:56:47Z</time></trkpt><trkpt lat="44.504115845801785" lon="9.995378292839494"><ele>810.0</ele><time>2026-04-18T11:56:48Z</time></trkpt><trkpt lat="44.50416822514346" lon="9.995459366325141"><ele>810.0</ele><time>2026-04-18T11:56:49Z</time></trkpt><trkpt lat="44.504225043224956" lon="9.995532075228816"><ele>810.0</ele><time>2026-04-18T11:56:50Z</time></trkpt><trkpt lat="44.504279231070804" lon="9.99560985105578"><ele>810.0</ele><time>2026-04-18T11:56:51Z</time></trkpt><trkpt lat="44.5043372300586" lon="9.995683464440772"><ele>810.0</ele><time>2026-04-18T11:56:52Z</time></trkpt><trkpt lat="44.504394984131046" lon="9.995755576760928"><ele>810.0</ele><time>2026-04-18T11:56:53Z</time></trkpt><trkpt lat="44.504449041665715" lon="9.995834608544538"><ele>809.1666666666666</ele><time>2026-04-18T11:56:54Z</time></trkpt><trkpt lat="44.5045073414443" lon="9.995909952765398"><ele>808.3333333333333</ele><time>2026-04-18T11:56:55Z</time></trkpt><trkpt lat="44.50455881322098" lon="9.995990503410807"><ele>807.5</ele><time>2026-04-18T11:56:56Z</time></trkpt><trkpt lat="44.50461278005298" lon="9.99607378911032"><ele>806.6666666666666</ele><time>2026-04-18T11:56:57Z</time></trkpt><trkpt lat="44.50466322564663" lon="9.996155160672844"><ele>805.8333333333333</ele><time>2026-04-18T11:56:58Z</time></trkpt><trkpt lat="44.50471359838547" lon="9.996240600946964"><ele>805.0</ele><time>2026-04-18T11:56:59Z</time></trkpt><trkpt lat="44.50476259707052" lon="9.996319206761685"><ele>805.0</ele><time>2026-04-18T11:57:00Z</time></trkpt><trkpt lat="44.50480966505157" lon="9.99640463624822"><ele>805.0</ele><time>2026-04-18T11:57:01Z</time></trkpt><trkpt lat="44.504850591342134" lon="9.99649289436865"><ele>805.0</ele><time>2026-04-18T11:57:02Z</time></trkpt><trkpt lat="44.50488764217065" lon="9.996579684214781"><ele>805.0</ele><time>2026-04-18T11:57:03Z</time></trkpt><trkpt lat="44.504922354811775" lon="9.99667032021646"><ele>805.0</ele><time>2026-04-18T11:57:04Z</time></trkpt><trkpt lat="44.504958042472346" lon="9.996749406232261"><ele>805.0</ele><time>2026-04-18T11:57:05Z</time></trkpt><trkpt lat="44.50499039807764" lon="9.99683211199989"><ele>805.0</ele><time>2026-04-18T11:57:06Z</time></trkpt><trkpt lat="44.50502134024945" lon="9.996916343102544"><ele>806.4999999999999</ele><time>2026-04-18T11:57:07Z</time></trkpt><trkpt lat="44.5050494570074" lon="9.996999992324191"><ele>808.0</ele><time>2026-04-18T11:57:08Z</time></trkpt><trkpt lat="44.50508562408325" lon="9.997079073185764"><ele>809.5</ele><time>2026-04-18T11:57:09Z</time></trkpt><trkpt lat="44.5051175962763" lon="9.997161183282723"><ele>811.0</ele><time>2026-04-18T11:57:10Z</time></trkpt><trkpt lat="44.505152512412586" lon="9.99724187552748"><ele>812.4999999999999</ele><time>2026-04-18T11:57:11Z</time></trkpt><trkpt lat="44.505188430540464" lon="9.997320307559693"><ele>814.0</ele><time>2026-04-18T11:57:12Z</time></trkpt><trkpt lat="44.50525553580769" lon="9.997475079354242"><ele>813.9999999999999</ele><time>2026-04-18T11:57:14Z</time></trkpt><trkpt lat="44.50530024420688" lon="9.997555193973648"><ele>814.0</ele><time>2026-04-18T11:57:15Z</time></trkpt><trkpt lat="44.505366951922" lon="9.997702995512846"><ele>814.0</ele><time>2026-04-18T11:57:17Z</time></trkpt><trkpt lat="44.50540170430005" lon="9.997785327157821"><ele>814.0</ele><time>2026-04-18T11:57:18Z</time></trkpt><trkpt lat="44.50543352826621" lon="9.997865430127675"><ele>813.9999999999999</ele><time>2026-04-18T11:57:19Z</time></trkpt><trkpt lat="44.50546349527416" lon="9.997947383121323"><ele>814.0</ele><time>2026-04-18T11:57:20Z</time></trkpt><trkpt lat="44.5054999466342" lon="9.998030282622613"><ele>814.0000000000001</ele><time>2026-04-18T11:57:21Z</time></trkpt><trkpt lat="44.50553662040003" lon="9.998115425584322"><ele>814.0</ele><time>2026-04-18T11:57:22Z</time></trkpt><trkpt lat="44.505574119502654" lon="9.998196866359656"><ele>814.0</ele><time>2026-04-18T11:57:23Z</time></trkpt><trkpt lat="44.50561061073624" lon="9.998283920200171"><ele>814.0</ele><time>2026-04-18T11:57:24Z</time></trkpt><trkpt lat="44.5056535927368" lon="9.998365058305083"><ele>814.0</ele><time>2026-04-18T11:57:25Z</time></trkpt><trkpt lat="44.505695946260275" lon="9.998434090440158"><ele>814.0000000000001</ele><time>2026-04-18T11:57:26Z</time></trkpt><trkpt lat="44.50574086596883" lon="9.998515799154813"><ele>814.0</ele><time>2026-04-18T11:57:27Z</time></trkpt><trkpt lat="44.505783284171976" lon="9.998582950013315"><ele>814.0000000000001</ele><time>2026-04-18T11:57:28Z</time></trkpt><trkpt lat="44.50583085113234" lon="9.998654318498962"><ele>814.0</ele><time>2026-04-18T11:57:29Z</time></trkpt><trkpt lat="44.50587879153338" lon="9.998716801475302"><ele>814.0</ele><time>2026-04-18T11:57:30Z</time></trkpt><trkpt lat="44.50592629209968" lon="9.998782554216897"><ele>814.0</ele><time>2026-04-18T11:57:31Z</time></trkpt><trkpt lat="44.50598060458842" lon="9.998846480902914"><ele>814.0</ele><time>2026-04-18T11:57:32Z</time></trkpt><trkpt lat="44.5060320218991" lon="9.998908780171716"><ele>814.0000000000001</ele><time>2026-04-18T11:57:33Z</time></trkpt><trkpt lat="44.50608548118481" lon="9.998973928230876"><ele>814.0</ele><time>2026-04-18T11:57:34Z</time></trkpt><trkpt lat="44.50613896111078" lon="9.999035434418603"><ele>814.0000000000001</ele><time>2026-04-18T11:57:35Z</time></trkpt><trkpt lat="44.506191070690136" lon="9.999098925059947"><ele>814.0</ele><time>2026-04-18T11:57:36Z</time></trkpt><trkpt lat="44.50624758005115" lon="9.999166841624339"><ele>814.0</ele><time>2026-04-18T11:57:36.999Z</time></trkpt><trkpt lat="44.50629835219314" lon="9.999229872117223"><ele>814.0</ele><time>2026-04-18T11:57:37.999Z</time></trkpt><trkpt lat="44.50635446797998" lon="9.999300181389263"><ele>814.0</ele><time>2026-04-18T11:57:38.999Z</time></trkpt><trkpt lat="44.50641324772414" lon="9.999370792969863"><ele>814.0000000000001</ele><time>2026-04-18T11:57:39.999Z</time></trkpt><trkpt lat="44.50647258427188" lon="9.999440805791727"><ele>814.0</ele><time>2026-04-18T11:57:40.999Z</time></trkpt><trkpt lat="44.506534384879316" lon="9.999513762859273"><ele>813.1666666666666</ele><time>2026-04-18T11:57:41.999Z</time></trkpt><trkpt lat="44.50659328590113" lon="9.9995898590875"><ele>812.3333333333333</ele><time>2026-04-18T11:57:42.999Z</time></trkpt><trkpt lat="44.50665267752865" lon="9.999663665989106"><ele>811.5</ele><time>2026-04-18T11:57:43.999Z</time></trkpt><trkpt lat="44.506710642435166" lon="9.999736489171514"><ele>810.6666666666667</ele><time>2026-04-18T11:57:44.999Z</time></trkpt><trkpt lat="44.5067711280013" lon="9.99980497704451"><ele>809.8333333333334</ele><time>2026-04-18T11:57:45.999Z</time></trkpt><trkpt lat="44.50682609725673" lon="9.999873503565023"><ele>809.0</ele><time>2026-04-18T11:57:46.999Z</time></trkpt><trkpt lat="44.506884702954586" lon="9.999938109623184"><ele>809.0000000000001</ele><time>2026-04-18T11:57:47.999Z</time></trkpt><trkpt lat="44.506941303167885" lon="10.000003978581198"><ele>809.0</ele><time>2026-04-18T11:57:48.999Z</time></trkpt><trkpt lat="44.50699858007056" lon="10.000071793637415"><ele>809.0</ele><time>2026-04-18T11:57:49.999Z</time></trkpt><trkpt lat="44.507048950816866" lon="10.000139025968485"><ele>809.0</ele><time>2026-04-18T11:57:50.999Z</time></trkpt><trkpt lat="44.50709955579801" lon="10.000197689115259"><ele>809.0000000000001</ele><time>2026-04-18T11:57:51.999Z</time></trkpt><trkpt lat="44.50715415227429" lon="10.000285374853553"><ele>809.0</ele><time>2026-04-18T11:57:52.999Z</time></trkpt><trkpt lat="44.507245774771754" lon="10.000403179339207"><ele>809.6666666666667</ele><time>2026-04-18T11:57:54.999Z</time></trkpt><trkpt lat="44.50729239135303" lon="10.000469368454041"><ele>810.3333333333334</ele><time>2026-04-18T11:57:55.999Z</time></trkpt><trkpt lat="44.5073309084438" lon="10.000549089295404"><ele>811.0</ele><time>2026-04-18T11:57:56.999Z</time></trkpt><trkpt lat="44.507404517350565" lon="10.000687547144212"><ele>811.6666666666667</ele><time>2026-04-18T11:57:58.999Z</time></trkpt><trkpt lat="44.50743939095823" lon="10.000762217043498"><ele>812.3333333333334</ele><time>2026-04-18T11:57:59.999Z</time></trkpt><trkpt lat="44.50747346780264" lon="10.000842815177823"><ele>813.0</ele><time>2026-04-18T11:58:00.999Z</time></trkpt><trkpt lat="44.50753817666092" lon="10.001004330059986"><ele>813.0</ele><time>2026-04-18T11:58:02.999Z</time></trkpt><trkpt lat="44.50756883873725" lon="10.001082635719357"><ele>813.0</ele><time>2026-04-18T11:58:03.999Z</time></trkpt><trkpt lat="44.507633074811956" lon="10.00124427403206"><ele>813.0</ele><time>2026-04-18T11:58:05.999Z</time></trkpt><trkpt lat="44.507673142336294" lon="10.001332061709983"><ele>813.0</ele><time>2026-04-18T11:58:06.999Z</time></trkpt><trkpt lat="44.50771827022216" lon="10.001416763415689"><ele>813.0</ele><time>2026-04-18T11:58:07.999Z</time></trkpt><trkpt lat="44.507762847318645" lon="10.001508301883144"><ele>813.0</ele><time>2026-04-18T11:58:08.999Z</time></trkpt><trkpt lat="44.50783089369802" lon="10.001586656158496"><ele>813.0</ele><time>2026-04-18T11:58:09.999Z</time></trkpt><trkpt lat="44.50789627349161" lon="10.001654533803377"><ele>813.0</ele><time>2026-04-18T11:58:10.999Z</time></trkpt><trkpt lat="44.50796832733616" lon="10.001704991812975"><ele>813.0</ele><time>2026-04-18T11:58:11.999Z</time></trkpt><trkpt lat="44.508054142720276" lon="10.001726788205296"><ele>813.0</ele><time>2026-04-18T11:58:12.999Z</time></trkpt><trkpt lat="44.50814946950639" lon="10.001739803899268"><ele>813.0</ele><time>2026-04-18T11:58:13.999Z</time></trkpt><trkpt lat="44.50823162989102" lon="10.001783284509383"><ele>813.0</ele><time>2026-04-18T11:58:14.999Z</time></trkpt><trkpt lat="44.508316571340366" lon="10.001818840177716"><ele>811.2</ele><time>2026-04-18T11:58:15.999Z</time></trkpt><trkpt lat="44.50841369124723" lon="10.001874395575394"><ele>809.4</ele><time>2026-04-18T11:58:16.999Z</time></trkpt><trkpt lat="44.50850881690038" lon="10.00193182241116"><ele>807.6</ele><time>2026-04-18T11:58:17.999Z</time></trkpt><trkpt lat="44.50859769715625" lon="10.001989910441994"><ele>805.8000000000001</ele><time>2026-04-18T11:58:18.999Z</time></trkpt><trkpt lat="44.50869755149308" lon="10.002031147760784"><ele>804.0</ele><time>2026-04-18T11:58:19.999Z</time></trkpt><trkpt lat="44.5087880192382" lon="10.002098981287343"><ele>800.6</ele><time>2026-04-18T11:58:20.999Z</time></trkpt><trkpt lat="44.508891696302946" lon="10.002153098542376"><ele>797.2</ele><time>2026-04-18T11:58:21.999Z</time></trkpt><trkpt lat="44.508983441499716" lon="10.002206575833616"><ele>793.8000000000001</ele><time>2026-04-18T11:58:22.999Z</time></trkpt><trkpt lat="44.50907740871622" lon="10.002265915264214"><ele>790.4000000000001</ele><time>2026-04-18T11:58:23.999Z</time></trkpt><trkpt lat="44.50916208414358" lon="10.002311189319718"><ele>787.0</ele><time>2026-04-18T11:58:24.999Z</time></trkpt><trkpt lat="44.50923056900813" lon="10.00238483813703"><ele>789.6</ele><time>2026-04-18T11:58:25.999Z</time></trkpt><trkpt lat="44.50927602963544" lon="10.002498220938804"><ele>792.2</ele><time>2026-04-18T11:58:26.999Z</time></trkpt><trkpt lat="44.50927899162239" lon="10.002625837253277"><ele>794.8</ele><time>2026-04-18T11:58:27.999Z</time></trkpt><trkpt lat="44.50923361405157" lon="10.002754945290503"><ele>797.4</ele><time>2026-04-18T11:58:28.999Z</time></trkpt><trkpt lat="44.50916537101086" lon="10.002864627715367"><ele>800.0</ele><time>2026-04-18T11:58:29.999Z</time></trkpt><trkpt lat="44.50909531266537" lon="10.002958620385401"><ele>800.0</ele><time>2026-04-18T11:58:30.998Z</time></trkpt><trkpt lat="44.509037130856065" lon="10.003070405071618"><ele>800.0</ele><time>2026-04-18T11:58:31.998Z</time></trkpt><trkpt lat="44.5089855243885" lon="10.003186651404205"><ele>800.0</ele><time>2026-04-18T11:58:32.998Z</time></trkpt><trkpt lat="44.5089439840703" lon="10.003301184685466"><ele>800.0</ele><time>2026-04-18T11:58:33.998Z</time></trkpt><trkpt lat="44.50889758245919" lon="10.003426117899192"><ele>800.0</ele><time>2026-04-18T11:58:34.998Z</time></trkpt><trkpt lat="44.50885786612128" lon="10.003553110186253"><ele>799.0</ele><time>2026-04-18T11:58:35.998Z</time></trkpt><trkpt lat="44.50882331490681" lon="10.003684456213254"><ele>798.0</ele><time>2026-04-18T11:58:36.998Z</time></trkpt><trkpt lat="44.508792430070585" lon="10.00380791947949"><ele>797.0</ele><time>2026-04-18T11:58:37.998Z</time></trkpt><trkpt lat="44.50879414950571" lon="10.00393358595941"><ele>796.0</ele><time>2026-04-18T11:58:39Z</time></trkpt><trkpt lat="44.508813741694034" lon="10.00406461164868"><ele>795.0</ele><time>2026-04-18T11:58:40Z</time></trkpt><trkpt lat="44.50888220046361" lon="10.004179314265738"><ele>794.2</ele><time>2026-04-18T11:58:41Z</time></trkpt><trkpt lat="44.50899568541515" lon="10.00421087364479"><ele>793.4</ele><time>2026-04-18T11:58:42Z</time></trkpt><trkpt lat="44.509077748160735" lon="10.00426939361798"><ele>792.5999999999999</ele><time>2026-04-18T11:58:43Z</time></trkpt><trkpt lat="44.50916467611725" lon="10.00431217933686"><ele>791.8</ele><time>2026-04-18T11:58:44Z</time></trkpt><trkpt lat="44.50925203920971" lon="10.004352865367453"><ele>791.0</ele><time>2026-04-18T11:58:45Z</time></trkpt><trkpt lat="44.50934424030892" lon="10.004380192895868"><ele>791.0000000000001</ele><time>2026-04-18T11:58:46Z</time></trkpt><trkpt lat="44.5094392304515" lon="10.004365996496855"><ele>791.0</ele><time>2026-04-18T11:58:47Z</time></trkpt><trkpt lat="44.50951526547577" lon="10.00426671881933"><ele>791.0</ele><time>2026-04-18T11:58:48Z</time></trkpt><trkpt lat="44.50958290619616" lon="10.00419303072328"><ele>791.0</ele><time>2026-04-18T11:58:49Z</time></trkpt><trkpt lat="44.50964980019332" lon="10.004136636540197"><ele>791.0000000000001</ele><time>2026-04-18T11:58:50Z</time></trkpt><trkpt lat="44.50971389449974" lon="10.004079920645294"><ele>791.0</ele><time>2026-04-18T11:58:51Z</time></trkpt><trkpt lat="44.509781779689725" lon="10.00403508595737"><ele>792.3333333333334</ele><time>2026-04-18T11:58:52Z</time></trkpt><trkpt lat="44.509853588873185" lon="10.004018496087056"><ele>793.6666666666667</ele><time>2026-04-18T11:58:53Z</time></trkpt><trkpt lat="44.5099170534236" lon="10.003991271702004"><ele>795.0</ele><time>2026-04-18T11:58:54Z</time></trkpt><trkpt lat="44.509985169016446" lon="10.003997655685227"><ele>796.3333333333333</ele><time>2026-04-18T11:58:55Z</time></trkpt><trkpt lat="44.51003342540153" lon="10.004058049088378"><ele>797.6666666666666</ele><time>2026-04-18T11:58:56Z</time></trkpt><trkpt lat="44.51012528820854" lon="10.004138129087693"><ele>799.0</ele><time>2026-04-18T11:58:58Z</time></trkpt><trkpt lat="44.51021414147464" lon="10.004222347138523"><ele>798.9999999999999</ele><time>2026-04-18T11:59:00Z</time></trkpt><trkpt lat="44.51027010269286" lon="10.004276655035746"><ele>799.0</ele><time>2026-04-18T11:59:01Z</time></trkpt><trkpt lat="44.51036432958852" lon="10.004368097893659"><ele>799.0</ele><time>2026-04-18T11:59:03Z</time></trkpt><trkpt lat="44.51045921949527" lon="10.004459746207079"><ele>799.0</ele><time>2026-04-18T11:59:05Z</time></trkpt><trkpt lat="44.51051443732992" lon="10.00450563578401"><ele>798.9999999999999</ele><time>2026-04-18T11:59:06Z</time></trkpt><trkpt lat="44.51057565722513" lon="10.004543800518343"><ele>799.0</ele><time>2026-04-18T11:59:07Z</time></trkpt><trkpt lat="44.51063771523444" lon="10.004574321888134"><ele>799.2</ele><time>2026-04-18T11:59:08Z</time></trkpt><trkpt lat="44.510765134099" lon="10.004589208711405"><ele>799.4000000000001</ele><time>2026-04-18T11:59:10Z</time></trkpt><trkpt lat="44.51082858103467" lon="10.00457147320755"><ele>799.6</ele><time>2026-04-18T11:59:11Z</time></trkpt><trkpt lat="44.510889717819616" lon="10.004538205114367"><ele>799.8</ele><time>2026-04-18T11:59:12Z</time></trkpt><trkpt lat="44.51094932589332" lon="10.00448444053709"><ele>800.0</ele><time>2026-04-18T11:59:13Z</time></trkpt><trkpt lat="44.511043376866816" lon="10.004370356100644"><ele>800.0</ele><time>2026-04-18T11:59:15Z</time></trkpt><trkpt lat="44.511126404271245" lon="10.004245767733352"><ele>800.0</ele><time>2026-04-18T11:59:17Z</time></trkpt><trkpt lat="44.51120207075765" lon="10.004131396766521"><ele>800.0</ele><time>2026-04-18T11:59:19Z</time></trkpt><trkpt lat="44.51127445317273" lon="10.004022622318363"><ele>800.0</ele><time>2026-04-18T11:59:21Z</time></trkpt><trkpt lat="44.51135357071374" lon="10.003916195620343"><ele>800.0</ele><time>2026-04-18T11:59:23Z</time></trkpt><trkpt lat="44.51143417810869" lon="10.00381153945884"><ele>796.0</ele><time>2026-04-18T11:59:25Z</time></trkpt><trkpt lat="44.51155236125029" lon="10.003817418344932"><ele>792.0</ele><time>2026-04-18T11:59:27Z</time></trkpt><trkpt lat="44.51167009300168" lon="10.003851460279558"><ele>788.0</ele><time>2026-04-18T11:59:29Z</time></trkpt><trkpt lat="44.51178191822079" lon="10.003906548297687"><ele>784.0</ele><time>2026-04-18T11:59:31Z</time></trkpt><trkpt lat="44.511887763257164" lon="10.003953658731959"><ele>784.0</ele><time>2026-04-18T11:59:33Z</time></trkpt><trkpt lat="44.51198603724392" lon="10.004015198301778"><ele>784.0</ele><time>2026-04-18T11:59:35Z</time></trkpt><trkpt lat="44.51209158497221" lon="10.004095729895818"><ele>784.0</ele><time>2026-04-18T11:59:37Z</time></trkpt><trkpt lat="44.512172961337725" lon="10.00420182146727"><ele>784.0</ele><time>2026-04-18T11:59:39Z</time></trkpt><trkpt lat="44.51225548006078" lon="10.004325211404264"><ele>788.5</ele><time>2026-04-18T11:59:40.999Z</time></trkpt><trkpt lat="44.51232610555669" lon="10.004458165229808"><ele>793.0</ele><time>2026-04-18T11:59:42.999Z</time></trkpt><trkpt lat="44.512396971232185" lon="10.004584641370963"><ele>797.5</ele><time>2026-04-18T11:59:44.999Z</time></trkpt><trkpt lat="44.51245487600091" lon="10.004724724403543"><ele>802.0</ele><time>2026-04-18T11:59:46.999Z</time></trkpt><trkpt lat="44.512522327423305" lon="10.004845994118782"><ele>801.9999999999999</ele><time>2026-04-18T11:59:48.999Z</time></trkpt><trkpt lat="44.51260011269487" lon="10.004973383247192"><ele>802.0</ele><time>2026-04-18T11:59:50.999Z</time></trkpt><trkpt lat="44.512689266997754" lon="10.005096044120872"><ele>802.0</ele><time>2026-04-18T11:59:52.999Z</time></trkpt><trkpt lat="44.51274019091879" lon="10.005153846390536"><ele>802.0</ele><time>2026-04-18T11:59:53.999Z</time></trkpt><trkpt lat="44.51279249746244" lon="10.00521028989619"><ele>801.9999999999999</ele><time>2026-04-18T11:59:54.999Z</time></trkpt><trkpt lat="44.51284582579385" lon="10.00526450103651"><ele>802.0</ele><time>2026-04-18T11:59:55.999Z</time></trkpt><trkpt lat="44.51290063865175" lon="10.0053159011695"><ele>801.8571428571429</ele><time>2026-04-18T11:59:56.999Z</time></trkpt><trkpt lat="44.51295575400158" lon="10.005365384396724"><ele>801.7142857142858</ele><time>2026-04-18T11:59:57.999Z</time></trkpt><trkpt lat="44.51301211930908" lon="10.005411548799648"><ele>801.5714285714286</ele><time>2026-04-18T11:59:58.999Z</time></trkpt><trkpt lat="44.51307629119308" lon="10.005456173434844"><ele>801.4285714285714</ele><time>2026-04-18T11:59:59.999Z</time></trkpt><trkpt lat="44.51313843026744" lon="10.005488315190272"><ele>801.2857142857142</ele><time>2026-04-18T12:00:00.999Z</time></trkpt><trkpt lat="44.51321149744626" lon="10.005504527185911"><ele>801.1428571428571</ele><time>2026-04-18T12:00:01.999Z</time></trkpt><trkpt lat="44.51328700712139" lon="10.00550811162862"><ele>801.0</ele><time>2026-04-18T12:00:02.999Z</time></trkpt><trkpt lat="44.513355770984695" lon="10.00548564985739"><ele>801.0</ele><time>2026-04-18T12:00:03.999Z</time></trkpt><trkpt lat="44.51341872872365" lon="10.005468132751318"><ele>801.0</ele><time>2026-04-18T12:00:04.999Z</time></trkpt><trkpt lat="44.51354125424413" lon="10.005420371180474"><ele>801.0</ele><time>2026-04-18T12:00:06.999Z</time></trkpt><trkpt lat="44.51366036611457" lon="10.005412545015592"><ele>801.0</ele><time>2026-04-18T12:00:08.999Z</time></trkpt><trkpt lat="44.51377992551719" lon="10.005433513156932"><ele>801.0</ele><time>2026-04-18T12:00:10.999Z</time></trkpt><trkpt lat="44.51384485270502" lon="10.005442391579383"><ele>800.7142857142857</ele><time>2026-04-18T12:00:11.999Z</time></trkpt><trkpt lat="44.51390089732029" lon="10.005491666533176"><ele>800.4285714285713</ele><time>2026-04-18T12:00:12.999Z</time></trkpt><trkpt lat="44.513969375162056" lon="10.005504559709339"><ele>800.1428571428571</ele><time>2026-04-18T12:00:13.999Z</time></trkpt><trkpt lat="44.51402919057871" lon="10.005543624788727"><ele>799.8571428571429</ele><time>2026-04-18T12:00:14.999Z</time></trkpt><trkpt lat="44.51409209567849" lon="10.005577270125833"><ele>799.5714285714286</ele><time>2026-04-18T12:00:15.999Z</time></trkpt><trkpt lat="44.51415568253942" lon="10.005611553759808"><ele>799.2857142857143</ele><time>2026-04-18T12:00:16.999Z</time></trkpt><trkpt lat="44.514211262315676" lon="10.005661690620885"><ele>799.0</ele><time>2026-04-18T12:00:17.999Z</time></trkpt><trkpt lat="44.51428315238798" lon="10.005677811696588"><ele>799.0</ele><time>2026-04-18T12:00:18.999Z</time></trkpt><trkpt lat="44.51433809623404" lon="10.005731007155086"><ele>799.0</ele><time>2026-04-18T12:00:19.999Z</time></trkpt><trkpt lat="44.514407105199" lon="10.00576872161895"><ele>799.0</ele><time>2026-04-18T12:00:20.999Z</time></trkpt><trkpt lat="44.51447589142289" lon="10.005806314290567"><ele>799.0</ele><time>2026-04-18T12:00:21.999Z</time></trkpt><trkpt lat="44.51454122589174" lon="10.005842020559559"><ele>799.0</ele><time>2026-04-18T12:00:22.999Z</time></trkpt><trkpt lat="44.51460740076539" lon="10.005878186016133"><ele>799.0</ele><time>2026-04-18T12:00:23.999Z</time></trkpt><trkpt lat="44.51467812088513" lon="10.00589358777472"><ele>799.0</ele><time>2026-04-18T12:00:24.999Z</time></trkpt><trkpt lat="44.514739793146866" lon="10.005926512626159"><ele>800.0</ele><time>2026-04-18T12:00:25.999Z</time></trkpt><trkpt lat="44.514802739685706" lon="10.0059851407294"><ele>801.0</ele><time>2026-04-18T12:00:26.999Z</time></trkpt><trkpt lat="44.514875227652404" lon="10.006005596666668"><ele>802.0</ele><time>2026-04-18T12:00:27.999Z</time></trkpt><trkpt lat="44.514939859944825" lon="10.006046637269844"><ele>803.0</ele><time>2026-04-18T12:00:28.999Z</time></trkpt><trkpt lat="44.515004621860086" lon="10.006076147608427"><ele>804.0</ele><time>2026-04-18T12:00:29.999Z</time></trkpt><trkpt lat="44.5150705587573" lon="10.006117123810709"><ele>805.0</ele><time>2026-04-18T12:00:30.999Z</time></trkpt><trkpt lat="44.515134345065746" lon="10.006148449292096"><ele>806.0</ele><time>2026-04-18T12:00:31.999Z</time></trkpt><trkpt lat="44.51520150235028" lon="10.006183113813355"><ele>806.0000000000001</ele><time>2026-04-18T12:00:32.999Z</time></trkpt><trkpt lat="44.5152668659263" lon="10.006226055991192"><ele>806.0</ele><time>2026-04-18T12:00:33.998Z</time></trkpt><trkpt lat="44.51533732366439" lon="10.006246389351617"><ele>806.0</ele><time>2026-04-18T12:00:34.998Z</time></trkpt><trkpt lat="44.51540865753143" lon="10.006257511729947"><ele>806.0</ele><time>2026-04-18T12:00:35.998Z</time></trkpt><trkpt lat="44.51548535200576" lon="10.00625199921085"><ele>806.0000000000001</ele><time>2026-04-18T12:00:36.998Z</time></trkpt><trkpt lat="44.515562047212114" lon="10.006232050427235"><ele>806.0</ele><time>2026-04-18T12:00:37.998Z</time></trkpt><trkpt lat="44.515635522523375" lon="10.006191143578768"><ele>806.0</ele><time>2026-04-18T12:00:38.998Z</time></trkpt><trkpt lat="44.51569634885464" lon="10.00612645915342"><ele>806.0</ele><time>2026-04-18T12:00:39.998Z</time></trkpt><trkpt lat="44.515759348979905" lon="10.00607775509938"><ele>806.0</ele><time>2026-04-18T12:00:40.998Z</time></trkpt><trkpt lat="44.515827489491656" lon="10.006046073458936"><ele>806.0</ele><time>2026-04-18T12:00:41.998Z</time></trkpt><trkpt lat="44.51589209363791" lon="10.005994920069448"><ele>806.0</ele><time>2026-04-18T12:00:42.998Z</time></trkpt><trkpt lat="44.515956206030786" lon="10.005944155128706"><ele>806.0</ele><time>2026-04-18T12:00:43.998Z</time></trkpt><trkpt lat="44.51602438249486" lon="10.0059055112602"><ele>806.0</ele><time>2026-04-18T12:00:45Z</time></trkpt><trkpt lat="44.51609073422802" lon="10.005874419691036"><ele>806.0</ele><time>2026-04-18T12:00:46Z</time></trkpt><trkpt lat="44.51616162750108" lon="10.00587896285376"><ele>806.0</ele><time>2026-04-18T12:00:47Z</time></trkpt><trkpt lat="44.51623041427881" lon="10.005920899846993"><ele>806.0</ele><time>2026-04-18T12:00:48Z</time></trkpt><trkpt lat="44.51629689445684" lon="10.005964790101288"><ele>806.0</ele><time>2026-04-18T12:00:49Z</time></trkpt><trkpt lat="44.516354869299555" lon="10.006015181760278"><ele>806.0</ele><time>2026-04-18T12:00:50Z</time></trkpt><trkpt lat="44.51640662730146" lon="10.006072683782946"><ele>806.0</ele><time>2026-04-18T12:00:51Z</time></trkpt><trkpt lat="44.516472720489986" lon="10.006131826721413"><ele>806.0</ele><time>2026-04-18T12:00:52Z</time></trkpt><trkpt lat="44.51652472060458" lon="10.006196887059367"><ele>804.8333333333334</ele><time>2026-04-18T12:00:53Z</time></trkpt><trkpt lat="44.516601945336674" lon="10.00624881842539"><ele>803.6666666666667</ele><time>2026-04-18T12:00:54Z</time></trkpt><trkpt lat="44.51666921036595" lon="10.006304064382565"><ele>802.5</ele><time>2026-04-18T12:00:55Z</time></trkpt><trkpt lat="44.51673518309414" lon="10.006369445652787"><ele>801.3333333333333</ele><time>2026-04-18T12:00:56Z</time></trkpt><trkpt lat="44.51680322491599" lon="10.006424839490885"><ele>800.1666666666666</ele><time>2026-04-18T12:00:57Z</time></trkpt><trkpt lat="44.516867600329455" lon="10.006476473904282"><ele>799.0</ele><time>2026-04-18T12:00:58Z</time></trkpt><trkpt lat="44.516928205414835" lon="10.006534630292611"><ele>799.0</ele><time>2026-04-18T12:00:59Z</time></trkpt><trkpt lat="44.5169899309615" lon="10.006588315232142"><ele>799.0</ele><time>2026-04-18T12:01:00Z</time></trkpt><trkpt lat="44.517053321080496" lon="10.006639586723717"><ele>799.0</ele><time>2026-04-18T12:01:01Z</time></trkpt><trkpt lat="44.517115387527966" lon="10.006692711357628"><ele>799.0</ele><time>2026-04-18T12:01:02Z</time></trkpt><trkpt lat="44.51718177474682" lon="10.006750185549476"><ele>799.0</ele><time>2026-04-18T12:01:03Z</time></trkpt><trkpt lat="44.51724216639907" lon="10.006805961219875"><ele>799.0</ele><time>2026-04-18T12:01:04Z</time></trkpt><trkpt lat="44.51730035156637" lon="10.006865401978098"><ele>799.0</ele><time>2026-04-18T12:01:05Z</time></trkpt><trkpt lat="44.517358105069015" lon="10.006922754620653"><ele>799.5714285714286</ele><time>2026-04-18T12:01:06Z</time></trkpt><trkpt lat="44.51741811780405" lon="10.006980160900836"><ele>800.1428571428571</ele><time>2026-04-18T12:01:07Z</time></trkpt><trkpt lat="44.51746121089476" lon="10.007053741961307"><ele>800.7142857142857</ele><time>2026-04-18T12:01:08Z</time></trkpt><trkpt lat="44.51751456487103" lon="10.007121473829226"><ele>801.2857142857142</ele><time>2026-04-18T12:01:09Z</time></trkpt><trkpt lat="44.51757182734184" lon="10.007184348649213"><ele>801.8571428571429</ele><time>2026-04-18T12:01:10Z</time></trkpt><trkpt lat="44.517632276408115" lon="10.007242967613877"><ele>802.4285714285713</ele><time>2026-04-18T12:01:11Z</time></trkpt><trkpt lat="44.51769623560011" lon="10.007298550308203"><ele>803.0</ele><time>2026-04-18T12:01:12Z</time></trkpt><trkpt lat="44.51775857541323" lon="10.007339864516716"><ele>803.0000000000001</ele><time>2026-04-18T12:01:13Z</time></trkpt><trkpt lat="44.51782129153807" lon="10.007370676493148"><ele>803.0</ele><time>2026-04-18T12:01:14Z</time></trkpt><trkpt lat="44.517880081366094" lon="10.007426997254479"><ele>803.0</ele><time>2026-04-18T12:01:15Z</time></trkpt><trkpt lat="44.5179463574301" lon="10.007462467496046"><ele>803.0</ele><time>2026-04-18T12:01:16Z</time></trkpt><trkpt lat="44.51802519548487" lon="10.007496096383525"><ele>803.0000000000001</ele><time>2026-04-18T12:01:17Z</time></trkpt><trkpt lat="44.518102808095406" lon="10.007509422335406"><ele>803.0</ele><time>2026-04-18T12:01:18Z</time></trkpt><trkpt lat="44.518201353614415" lon="10.007519267423874"><ele>804.0000000000001</ele><time>2026-04-18T12:01:19Z</time></trkpt><trkpt lat="44.51829320535293" lon="10.007526229293982"><ele>805.0</ele><time>2026-04-18T12:01:20Z</time></trkpt><trkpt lat="44.51836524640042" lon="10.007531689613877"><ele>806.0</ele><time>2026-04-18T12:01:21Z</time></trkpt><trkpt lat="44.518434553500626" lon="10.007536942718339"><ele>807.0</ele><time>2026-04-18T12:01:22Z</time></trkpt><trkpt lat="44.51850608978401" lon="10.00754236478959"><ele>808.0000000000001</ele><time>2026-04-18T12:01:23Z</time></trkpt><trkpt lat="44.51858518342145" lon="10.007548359657962"><ele>809.0</ele><time>2026-04-18T12:01:24Z</time></trkpt><trkpt lat="44.51865876407118" lon="10.007553936677464"><ele>808.8333333333334</ele><time>2026-04-18T12:01:25Z</time></trkpt><trkpt lat="44.51873626201784" lon="10.00755894360436"><ele>808.6666666666667</ele><time>2026-04-18T12:01:26Z</time></trkpt><trkpt lat="44.51881684005782" lon="10.007562265114244"><ele>808.5</ele><time>2026-04-18T12:01:27Z</time></trkpt><trkpt lat="44.51889792764554" lon="10.007560454898982"><ele>808.3333333333333</ele><time>2026-04-18T12:01:28Z</time></trkpt><trkpt lat="44.51897538435799" lon="10.00755143655293"><ele>808.1666666666666</ele><time>2026-04-18T12:01:29Z</time></trkpt><trkpt lat="44.51905561031099" lon="10.007529872344236"><ele>808.0</ele><time>2026-04-18T12:01:30Z</time></trkpt><trkpt lat="44.5191321320843" lon="10.007491894080358"><ele>804.8333333333333</ele><time>2026-04-18T12:01:31Z</time></trkpt><trkpt lat="44.51920399294684" lon="10.007435793593586"><ele>801.6666666666666</ele><time>2026-04-18T12:01:32Z</time></trkpt><trkpt lat="44.51927127629282" lon="10.007351785057923"><ele>798.5</ele><time>2026-04-18T12:01:33Z</time></trkpt><trkpt lat="44.519328792769564" lon="10.007254003149827"><ele>795.3333333333333</ele><time>2026-04-18T12:01:34Z</time></trkpt><trkpt lat="44.519408840438025" lon="10.007191497304762"><ele>792.1666666666666</ele><time>2026-04-18T12:01:35Z</time></trkpt><trkpt lat="44.519483787581486" lon="10.007119993025476"><ele>789.0</ele><time>2026-04-18T12:01:36Z</time></trkpt><trkpt lat="44.51956767308951" lon="10.007066589823888"><ele>789.0</ele><time>2026-04-18T12:01:37Z</time></trkpt><trkpt lat="44.519647295957526" lon="10.00703351290614"><ele>789.0</ele><time>2026-04-18T12:01:38Z</time></trkpt><trkpt lat="44.519726437026925" lon="10.00701790595844"><ele>789.0</ele><time>2026-04-18T12:01:39Z</time></trkpt><trkpt lat="44.519812213305556" lon="10.007002127098604"><ele>789.0</ele><time>2026-04-18T12:01:40Z</time></trkpt><trkpt lat="44.519897746548246" lon="10.007052649567965"><ele>789.0</ele><time>2026-04-18T12:01:41Z</time></trkpt><trkpt lat="44.51997247791449" lon="10.007129532891858"><ele>789.0</ele><time>2026-04-18T12:01:42Z</time></trkpt><trkpt lat="44.52001892431568" lon="10.007221417042993"><ele>789.0</ele><time>2026-04-18T12:01:43Z</time></trkpt><trkpt lat="44.520042752512154" lon="10.007345030903364"><ele>789.0</ele><time>2026-04-18T12:01:44Z</time></trkpt><trkpt lat="44.52008733224758" lon="10.00744422385916"><ele>789.0</ele><time>2026-04-18T12:01:44.999Z</time></trkpt><trkpt lat="44.520076443789264" lon="10.007599203852592"><ele>789.0</ele><time>2026-04-18T12:01:45.999Z</time></trkpt><trkpt lat="44.52008822887708" lon="10.007724140933028"><ele>789.0</ele><time>2026-04-18T12:01:46.999Z</time></trkpt><trkpt lat="44.52010071179285" lon="10.007850067007636"><ele>792.4000000000001</ele><time>2026-04-18T12:01:47.999Z</time></trkpt><trkpt lat="44.520098112485684" lon="10.007978819313175"><ele>795.8</ele><time>2026-04-18T12:01:48.999Z</time></trkpt><trkpt lat="44.52009920280172" lon="10.008112770328866"><ele>799.2</ele><time>2026-04-18T12:01:49.999Z</time></trkpt><trkpt lat="44.520100386671864" lon="10.008247811116627"><ele>802.5999999999999</ele><time>2026-04-18T12:01:50.999Z</time></trkpt><trkpt lat="44.520118761947444" lon="10.0083764984308"><ele>806.0</ele><time>2026-04-18T12:01:51.999Z</time></trkpt><trkpt lat="44.52014038757487" lon="10.008508957846336"><ele>806.5999999999999</ele><time>2026-04-18T12:01:52.999Z</time></trkpt><trkpt lat="44.5202098573802" lon="10.008628696748984"><ele>807.2</ele><time>2026-04-18T12:01:53.999Z</time></trkpt><trkpt lat="44.52031357363798" lon="10.008722850630045"><ele>807.8</ele><time>2026-04-18T12:01:54.999Z</time></trkpt><trkpt lat="44.52037839780903" lon="10.00883858956893"><ele>808.4000000000001</ele><time>2026-04-18T12:01:55.999Z</time></trkpt><trkpt lat="44.520446811863394" lon="10.00895464234829"><ele>809.0</ele><time>2026-04-18T12:01:56.999Z</time></trkpt><trkpt lat="44.52052061496578" lon="10.009065130163227"><ele>804.75</ele><time>2026-04-18T12:01:57.999Z</time></trkpt><trkpt lat="44.52060575916904" lon="10.009174771618175"><ele>800.5</ele><time>2026-04-18T12:01:58.999Z</time></trkpt><trkpt lat="44.52070135986776" lon="10.009272590658696"><ele>796.25</ele><time>2026-04-18T12:01:59.999Z</time></trkpt><trkpt lat="44.52081125855128" lon="10.00935345103948"><ele>792.0</ele><time>2026-04-18T12:02:00.999Z</time></trkpt><trkpt lat="44.52092593676599" lon="10.009413392407058"><ele>792.0</ele><time>2026-04-18T12:02:01.999Z</time></trkpt><trkpt lat="44.52104941567486" lon="10.009451661948647"><ele>792.0</ele><time>2026-04-18T12:02:02.999Z</time></trkpt><trkpt lat="44.52120210029434" lon="10.009469043897122"><ele>792.0</ele><time>2026-04-18T12:02:03.999Z</time></trkpt><trkpt lat="44.521043405446534" lon="10.00967563359111"><ele>792.0</ele><time>2026-04-18T12:02:04.999Z</time></trkpt><trkpt lat="44.52112845271463" lon="10.009719588405535"><ele>792.0</ele><time>2026-04-18T12:02:05.999Z</time></trkpt><trkpt lat="44.52121925780033" lon="10.009769536666274"><ele>792.0</ele><time>2026-04-18T12:02:06.999Z</time></trkpt><trkpt lat="44.52129983064406" lon="10.009839334271842"><ele>792.0</ele><time>2026-04-18T12:02:07.999Z</time></trkpt><trkpt lat="44.52137340204616" lon="10.009923341474611"><ele>792.0</ele><time>2026-04-18T12:02:08.999Z</time></trkpt><trkpt lat="44.521451693734605" lon="10.01001404777693"><ele>791.0</ele><time>2026-04-18T12:02:09.999Z</time></trkpt><trkpt lat="44.521497376894615" lon="10.010138332744479"><ele>790.0</ele><time>2026-04-18T12:02:10.999Z</time></trkpt><trkpt lat="44.52153003780701" lon="10.010277359148109"><ele>789.0</ele><time>2026-04-18T12:02:11.999Z</time></trkpt><trkpt lat="44.52152879908098" lon="10.010414258345332"><ele>788.0</ele><time>2026-04-18T12:02:12.999Z</time></trkpt><trkpt lat="44.521525224187386" lon="10.010554927667759"><ele>787.0</ele><time>2026-04-18T12:02:13.999Z</time></trkpt><trkpt lat="44.52150844124792" lon="10.010691953898581"><ele>787.0</ele><time>2026-04-18T12:02:14.999Z</time></trkpt><trkpt lat="44.521499849964" lon="10.010833217870541"><ele>787.0</ele><time>2026-04-18T12:02:15.999Z</time></trkpt><trkpt lat="44.52149481639154" lon="10.010982730651499"><ele>787.0</ele><time>2026-04-18T12:02:16.999Z</time></trkpt><trkpt lat="44.52149840737378" lon="10.011120107290123"><ele>787.0</ele><time>2026-04-18T12:02:17.999Z</time></trkpt><trkpt lat="44.52149885129147" lon="10.01125408247843"><ele>787.0</ele><time>2026-04-18T12:02:18.999Z</time></trkpt><trkpt lat="44.521502286305996" lon="10.011402287077635"><ele>787.0</ele><time>2026-04-18T12:02:19.999Z</time></trkpt><trkpt lat="44.52152206234977" lon="10.011536532090297"><ele>787.0</ele><time>2026-04-18T12:02:20.999Z</time></trkpt><trkpt lat="44.52155439069355" lon="10.011664164666842"><ele>787.0</ele><time>2026-04-18T12:02:21.999Z</time></trkpt><trkpt lat="44.52159284915917" lon="10.011789574611901"><ele>787.0</ele><time>2026-04-18T12:02:22.999Z</time></trkpt><trkpt lat="44.52163460279311" lon="10.011909838492269"><ele>787.0</ele><time>2026-04-18T12:02:23.999Z</time></trkpt><trkpt lat="44.52167414387982" lon="10.012028177509874"><ele>787.6</ele><time>2026-04-18T12:02:24.999Z</time></trkpt><trkpt lat="44.52171001536626" lon="10.01214276812868"><ele>788.2</ele><time>2026-04-18T12:02:25.999Z</time></trkpt><trkpt lat="44.52175349775494" lon="10.01225399037711"><ele>788.8</ele><time>2026-04-18T12:02:26.999Z</time></trkpt><trkpt lat="44.52178603857678" lon="10.012367976670832"><ele>789.4</ele><time>2026-04-18T12:02:27.999Z</time></trkpt><trkpt lat="44.52181969682519" lon="10.012484812108879"><ele>790.0</ele><time>2026-04-18T12:02:28.999Z</time></trkpt><trkpt lat="44.52184427676683" lon="10.012616266458108"><ele>792.4</ele><time>2026-04-18T12:02:29.999Z</time></trkpt><trkpt lat="44.52186251610269" lon="10.012749852180995"><ele>794.8</ele><time>2026-04-18T12:02:30.999Z</time></trkpt><trkpt lat="44.5218693936617" lon="10.012878879743388"><ele>797.2</ele><time>2026-04-18T12:02:31.999Z</time></trkpt><trkpt lat="44.52187261021311" lon="10.01300741864399"><ele>799.6</ele><time>2026-04-18T12:02:32.999Z</time></trkpt><trkpt lat="44.521878645670306" lon="10.013131686001827"><ele>802.0</ele><time>2026-04-18T12:02:33.999Z</time></trkpt><trkpt lat="44.52188740317007" lon="10.013255266136007"><ele>803.0</ele><time>2026-04-18T12:02:34.999Z</time></trkpt><trkpt lat="44.52189670386688" lon="10.013384492219693"><ele>804.0</ele><time>2026-04-18T12:02:35.999Z</time></trkpt><trkpt lat="44.52190566588999" lon="10.01351999237488"><ele>805.0</ele><time>2026-04-18T12:02:36.999Z</time></trkpt><trkpt lat="44.52191972722517" lon="10.013655113838027"><ele>806.0</ele><time>2026-04-18T12:02:37.999Z</time></trkpt><trkpt lat="44.52194086403031" lon="10.01378793393211"><ele>807.0</ele><time>2026-04-18T12:02:38.999Z</time></trkpt><trkpt lat="44.52198579477391" lon="10.013916671215801"><ele>807.0</ele><time>2026-04-18T12:02:39.998Z</time></trkpt><trkpt lat="44.52204723588258" lon="10.01402585451319"><ele>807.0</ele><time>2026-04-18T12:02:40.998Z</time></trkpt><trkpt lat="44.522118522426865" lon="10.014128427929139"><ele>807.0</ele><time>2026-04-18T12:02:41.998Z</time></trkpt><trkpt lat="44.52217241983086" lon="10.014240852585603"><ele>807.0</ele><time>2026-04-18T12:02:42.998Z</time></trkpt><trkpt lat="44.522235967617696" lon="10.014334862140542"><ele>807.0</ele><time>2026-04-18T12:02:43.998Z</time></trkpt><trkpt lat="44.522312928343325" lon="10.014416465891715"><ele>803.0</ele><time>2026-04-18T12:02:44.998Z</time></trkpt><trkpt lat="44.522404512120914" lon="10.014456206226615"><ele>799.0</ele><time>2026-04-18T12:02:45.998Z</time></trkpt><trkpt lat="44.52250294880504" lon="10.014455012765499"><ele>795.0</ele><time>2026-04-18T12:02:46.998Z</time></trkpt><trkpt lat="44.52258988761887" lon="10.014418955160679"><ele>791.0</ele><time>2026-04-18T12:02:47.998Z</time></trkpt><trkpt lat="44.52266495296207" lon="10.014359348060932"><ele>787.0</ele><time>2026-04-18T12:02:48.998Z</time></trkpt><trkpt lat="44.522729981088816" lon="10.014285803443247"><ele>787.0</ele><time>2026-04-18T12:02:50Z</time></trkpt><trkpt lat="44.522789473838" lon="10.014219121764944"><ele>787.0</ele><time>2026-04-18T12:02:51Z</time></trkpt><trkpt lat="44.52284480874566" lon="10.014149553914375"><ele>787.0</ele><time>2026-04-18T12:02:52Z</time></trkpt><trkpt lat="44.52290841109475" lon="10.014094754005843"><ele>787.0</ele><time>2026-04-18T12:02:53Z</time></trkpt><trkpt lat="44.52296373519978" lon="10.014034324432119"><ele>787.0</ele><time>2026-04-18T12:02:54Z</time></trkpt><trkpt lat="44.52301402829912" lon="10.013973166383424"><ele>787.0</ele><time>2026-04-18T12:02:55Z</time></trkpt><trkpt lat="44.52306292588665" lon="10.013914885732968"><ele>787.0</ele><time>2026-04-18T12:02:56Z</time></trkpt><trkpt lat="44.52311532411964" lon="10.013860980996204"><ele>787.2</ele><time>2026-04-18T12:02:57Z</time></trkpt><trkpt lat="44.5231702332448" lon="10.013812659911679"><ele>787.4000000000001</ele><time>2026-04-18T12:02:58Z</time></trkpt><trkpt lat="44.52327420394917" lon="10.013718150744454"><ele>787.5999999999999</ele><time>2026-04-18T12:03:00Z</time></trkpt><trkpt lat="44.52337494138989" lon="10.013626445337298"><ele>787.8</ele><time>2026-04-18T12:03:02Z</time></trkpt><trkpt lat="44.52348554282465" lon="10.01358643290847"><ele>788.0</ele><time>2026-04-18T12:03:04Z</time></trkpt><trkpt lat="44.52359988060044" lon="10.013579983733681"><ele>788.0</ele><time>2026-04-18T12:03:06Z</time></trkpt><trkpt lat="44.52371272079085" lon="10.013602721293553"><ele>788.0</ele><time>2026-04-18T12:03:08Z</time></trkpt><trkpt lat="44.5238197440259" lon="10.013655437895027"><ele>788.0</ele><time>2026-04-18T12:03:10Z</time></trkpt><trkpt lat="44.523931677293064" lon="10.013717345164507"><ele>788.0</ele><time>2026-04-18T12:03:12Z</time></trkpt><trkpt lat="44.524040054423466" lon="10.013772101212535"><ele>789.2</ele><time>2026-04-18T12:03:14Z</time></trkpt><trkpt lat="44.52414717138124" lon="10.013832462345492"><ele>790.4</ele><time>2026-04-18T12:03:16Z</time></trkpt><trkpt lat="44.5242509132673" lon="10.013887067377276"><ele>791.6</ele><time>2026-04-18T12:03:18Z</time></trkpt><trkpt lat="44.524356333581416" lon="10.01393534231483"><ele>792.8000000000001</ele><time>2026-04-18T12:03:20Z</time></trkpt><trkpt lat="44.52445451820437" lon="10.013981594259302"><ele>794.0</ele><time>2026-04-18T12:03:22Z</time></trkpt><trkpt lat="44.52455641412741" lon="10.014024773510162"><ele>793.6</ele><time>2026-04-18T12:03:24Z</time></trkpt><trkpt lat="44.52463838338329" lon="10.014090072124702"><ele>793.2</ele><time>2026-04-18T12:03:26Z</time></trkpt><trkpt lat="44.524732129715964" lon="10.01416169813277"><ele>792.8000000000001</ele><time>2026-04-18T12:03:28Z</time></trkpt><trkpt lat="44.524821055194785" lon="10.014281090662875"><ele>792.4000000000001</ele><time>2026-04-18T12:03:30Z</time></trkpt><trkpt lat="44.52489170617493" lon="10.014393479877555"><ele>792.0</ele><time>2026-04-18T12:03:32Z</time></trkpt><trkpt lat="44.5249620226901" lon="10.01450515707901"><ele>793.4000000000001</ele><time>2026-04-18T12:03:34Z</time></trkpt><trkpt lat="44.525031322069346" lon="10.01462341519103"><ele>794.8000000000001</ele><time>2026-04-18T12:03:36Z</time></trkpt><trkpt lat="44.525081919638275" lon="10.014732004227874"><ele>796.2</ele><time>2026-04-18T12:03:38Z</time></trkpt><trkpt lat="44.52514156587894" lon="10.014847308253517"><ele>797.6</ele><time>2026-04-18T12:03:40Z</time></trkpt><trkpt lat="44.52520310669652" lon="10.014952853988902"><ele>799.0</ele><time>2026-04-18T12:03:42Z</time></trkpt><trkpt lat="44.52527808669964" lon="10.015066854585276"><ele>799.2</ele><time>2026-04-18T12:03:44Z</time></trkpt><trkpt lat="44.52535658654464" lon="10.015175116638508"><ele>799.4000000000001</ele><time>2026-04-18T12:03:46Z</time></trkpt><trkpt lat="44.5254487026256" lon="10.01525795978926"><ele>799.6</ele><time>2026-04-18T12:03:48Z</time></trkpt><trkpt lat="44.525553011042305" lon="10.015314163971333"><ele>799.8</ele><time>2026-04-18T12:03:49.999Z</time></trkpt><trkpt lat="44.525660815911216" lon="10.015343397595098"><ele>800.0</ele><time>2026-04-18T12:03:51.999Z</time></trkpt><trkpt lat="44.52576001202648" lon="10.015340164489238"><ele>800.0</ele><time>2026-04-18T12:03:53.999Z</time></trkpt><trkpt lat="44.525915668454445" lon="10.015303368296571"><ele>800.0</ele><time>2026-04-18T12:03:56.999Z</time></trkpt><trkpt lat="44.52601074986853" lon="10.015323610819737"><ele>800.0</ele><time>2026-04-18T12:03:58.999Z</time></trkpt><trkpt lat="44.526101659690205" lon="10.015368009320433"><ele>800.0</ele><time>2026-04-18T12:04:00.999Z</time></trkpt><trkpt lat="44.52618581361504" lon="10.015434078413266"><ele>800.0</ele><time>2026-04-18T12:04:02.999Z</time></trkpt><trkpt lat="44.526246098628135" lon="10.015519761841865"><ele>799.2</ele><time>2026-04-18T12:04:04.999Z</time></trkpt><trkpt lat="44.52631130539716" lon="10.015638604499735"><ele>798.4</ele><time>2026-04-18T12:04:06.999Z</time></trkpt><trkpt lat="44.52636254652675" lon="10.015772362924904"><ele>797.5999999999999</ele><time>2026-04-18T12:04:08.999Z</time></trkpt><trkpt lat="44.52641539477378" lon="10.01590648929315"><ele>796.8</ele><time>2026-04-18T12:04:10.999Z</time></trkpt><trkpt lat="44.52646446125892" lon="10.016046690206817"><ele>796.0</ele><time>2026-04-18T12:04:12.999Z</time></trkpt><trkpt lat="44.526520197193996" lon="10.016190576520875"><ele>797.5999999999999</ele><time>2026-04-18T12:04:14.999Z</time></trkpt><trkpt lat="44.52654807934753" lon="10.01634178781733"><ele>799.2</ele><time>2026-04-18T12:04:16.999Z</time></trkpt><trkpt lat="44.52658030738388" lon="10.016418420027955"><ele>800.8</ele><time>2026-04-18T12:04:17.999Z</time></trkpt><trkpt lat="44.52664162850427" lon="10.01657056840939"><ele>802.4000000000001</ele><time>2026-04-18T12:04:19.999Z</time></trkpt><trkpt lat="44.52669144363822" lon="10.01670699380073"><ele>804.0</ele><time>2026-04-18T12:04:21.999Z</time></trkpt><trkpt lat="44.526719844173044" lon="10.016840249289016"><ele>805.25</ele><time>2026-04-18T12:04:23.999Z</time></trkpt><trkpt lat="44.52674747080888" lon="10.016991500717547"><ele>806.5</ele><time>2026-04-18T12:04:25.999Z</time></trkpt><trkpt lat="44.52677792799232" lon="10.017155176067474"><ele>807.75</ele><time>2026-04-18T12:04:27.999Z</time></trkpt><trkpt lat="44.526801750891686" lon="10.01731136003455"><ele>809.0</ele><time>2026-04-18T12:04:29.999Z</time></trkpt><trkpt lat="44.52683116923861" lon="10.0174705170554"><ele>810.0</ele><time>2026-04-18T12:04:31.999Z</time></trkpt><trkpt lat="44.526859200654144" lon="10.017628843324628"><ele>811.0</ele><time>2026-04-18T12:04:33.999Z</time></trkpt><trkpt lat="44.526895937344044" lon="10.017790436292524"><ele>812.0</ele><time>2026-04-18T12:04:35.999Z</time></trkpt><trkpt lat="44.52690895142017" lon="10.01788007078945"><ele>813.0</ele><time>2026-04-18T12:04:36.999Z</time></trkpt><trkpt lat="44.526942507273105" lon="10.018037057281822"><ele>814.0</ele><time>2026-04-18T12:04:38.999Z</time></trkpt><trkpt lat="44.52699003762305" lon="10.018188476079"><ele>815.6</ele><time>2026-04-18T12:04:40.999Z</time></trkpt><trkpt lat="44.52704273794257" lon="10.018348038885117"><ele>817.2</ele><time>2026-04-18T12:04:42.999Z</time></trkpt><trkpt lat="44.527125866150044" lon="10.01848361885228"><ele>818.8000000000001</ele><time>2026-04-18T12:04:44.998Z</time></trkpt><trkpt lat="44.527233496120566" lon="10.018581953455424"><ele>820.4000000000001</ele><time>2026-04-18T12:04:46.998Z</time></trkpt><trkpt lat="44.527289438891955" lon="10.018626682772334"><ele>822.0</ele><time>2026-04-18T12:04:47.998Z</time></trkpt><trkpt lat="44.52739833902116" lon="10.018700787176725"><ele>818.6</ele><time>2026-04-18T12:04:49.998Z</time></trkpt><trkpt lat="44.52750779219724" lon="10.018761336865321"><ele>815.2</ele><time>2026-04-18T12:04:51.998Z</time></trkpt><trkpt lat="44.527577861352825" lon="10.018781677165684"><ele>811.8</ele><time>2026-04-18T12:04:52.998Z</time></trkpt><trkpt lat="44.52768099325025" lon="10.018846975326946"><ele>808.4</ele><time>2026-04-18T12:04:54.998Z</time></trkpt><trkpt lat="44.52774222058418" lon="10.018884473177467"><ele>805.0</ele><time>2026-04-18T12:04:56Z</time></trkpt><trkpt lat="44.527864834783934" lon="10.018912288715251"><ele>804.8333333333333</ele><time>2026-04-18T12:04:58Z</time></trkpt><trkpt lat="44.52793029512495" lon="10.018914085718384"><ele>804.6666666666666</ele><time>2026-04-18T12:04:59Z</time></trkpt><trkpt lat="44.52799548074059" lon="10.018911480125205"><ele>804.5</ele><time>2026-04-18T12:05:00Z</time></trkpt><trkpt lat="44.52805807865708" lon="10.018900774130223"><ele>804.3333333333333</ele><time>2026-04-18T12:05:01Z</time></trkpt><trkpt lat="44.52818264879098" lon="10.018856957071367"><ele>804.1666666666666</ele><time>2026-04-18T12:05:03Z</time></trkpt><trkpt lat="44.5282480947853" lon="10.018840778960778"><ele>804.0</ele><time>2026-04-18T12:05:04Z</time></trkpt><trkpt lat="44.52831258918146" lon="10.018819206574532"><ele>804.0</ele><time>2026-04-18T12:05:05Z</time></trkpt><trkpt lat="44.5284290623646" lon="10.018767735380601"><ele>804.0</ele><time>2026-04-18T12:05:07Z</time></trkpt><trkpt lat="44.52854766398847" lon="10.018716076506104"><ele>804.0</ele><time>2026-04-18T12:05:09Z</time></trkpt><trkpt lat="44.52866572391337" lon="10.018671003106135"><ele>804.0</ele><time>2026-04-18T12:05:11Z</time></trkpt><trkpt lat="44.52878530046923" lon="10.018665692029822"><ele>804.5714285714286</ele><time>2026-04-18T12:05:13Z</time></trkpt><trkpt lat="44.52885016233506" lon="10.018683765373757"><ele>805.1428571428572</ele><time>2026-04-18T12:05:14Z</time></trkpt><trkpt lat="44.52891130406869" lon="10.018716198430363"><ele>805.7142857142858</ele><time>2026-04-18T12:05:15Z</time></trkpt><trkpt lat="44.52896911446733" lon="10.01875636382077"><ele>806.2857142857142</ele><time>2026-04-18T12:05:16Z</time></trkpt><trkpt lat="44.529057019621554" lon="10.018875191001479"><ele>806.8571428571429</ele><time>2026-04-18T12:05:18Z</time></trkpt><trkpt lat="44.52909382542932" lon="10.018947795952634"><ele>807.4285714285714</ele><time>2026-04-18T12:05:19Z</time></trkpt><trkpt lat="44.52912586247735" lon="10.019024783140447"><ele>808.0</ele><time>2026-04-18T12:05:20Z</time></trkpt><trkpt lat="44.529171427388" lon="10.01919421034597"><ele>808.0</ele><time>2026-04-18T12:05:22Z</time></trkpt><trkpt lat="44.529205933041474" lon="10.019358049340921"><ele>808.0</ele><time>2026-04-18T12:05:24Z</time></trkpt><trkpt lat="44.52923709772469" lon="10.019521448172664"><ele>808.0</ele><time>2026-04-18T12:05:26Z</time></trkpt><trkpt lat="44.529257223226345" lon="10.01960650738034"><ele>808.0</ele><time>2026-04-18T12:05:27Z</time></trkpt><trkpt lat="44.52929746202849" lon="10.01976855825506"><ele>808.0</ele><time>2026-04-18T12:05:29Z</time></trkpt><trkpt lat="44.529339337380364" lon="10.01992896875294"><ele>807.5999999999999</ele><time>2026-04-18T12:05:31Z</time></trkpt><trkpt lat="44.52940243032222" lon="10.020076674804779"><ele>807.1999999999999</ele><time>2026-04-18T12:05:33Z</time></trkpt><trkpt lat="44.529443523646535" lon="10.020143857411561"><ele>806.8</ele><time>2026-04-18T12:05:34Z</time></trkpt><trkpt lat="44.52948567442553" lon="10.020210127017615"><ele>806.4</ele><time>2026-04-18T12:05:35Z</time></trkpt><trkpt lat="44.529585240069856" lon="10.02032490814901"><ele>806.0</ele><time>2026-04-18T12:05:37Z</time></trkpt><trkpt lat="44.52969020725998" lon="10.02042602611808"><ele>806.0</ele><time>2026-04-18T12:05:39Z</time></trkpt><trkpt lat="44.5297453021901" lon="10.020470252057388"><ele>806.0</ele><time>2026-04-18T12:05:40Z</time></trkpt><trkpt lat="44.529850241678425" lon="10.020566624290096"><ele>806.0</ele><time>2026-04-18T12:05:42Z</time></trkpt><trkpt lat="44.52990149665106" lon="10.020623631313212"><ele>806.0</ele><time>2026-04-18T12:05:43Z</time></trkpt><trkpt lat="44.53001148484027" lon="10.020730843347794"><ele>806.0</ele><time>2026-04-18T12:05:45Z</time></trkpt><trkpt lat="44.53006400125526" lon="10.020782743964885"><ele>805.6666666666667</ele><time>2026-04-18T12:05:46Z</time></trkpt><trkpt lat="44.530117110687335" lon="10.020840105502213"><ele>805.3333333333334</ele><time>2026-04-18T12:05:47Z</time></trkpt><trkpt lat="44.53016986186862" lon="10.020889054710171"><ele>805.0</ele><time>2026-04-18T12:05:48Z</time></trkpt><trkpt lat="44.53022740555874" lon="10.020940306401119"><ele>804.6666666666667</ele><time>2026-04-18T12:05:49Z</time></trkpt><trkpt lat="44.53032790736944" lon="10.021044447268865"><ele>804.3333333333334</ele><time>2026-04-18T12:05:51Z</time></trkpt><trkpt lat="44.530384355843445" lon="10.02109029921948"><ele>804.0</ele><time>2026-04-18T12:05:52Z</time></trkpt><trkpt lat="44.53048973498065" lon="10.021189203498704"><ele>804.0</ele><time>2026-04-18T12:05:53.999Z</time></trkpt><trkpt lat="44.530539449921946" lon="10.021245950341653"><ele>804.0</ele><time>2026-04-18T12:05:54.999Z</time></trkpt><trkpt lat="44.53059635894466" lon="10.021290195175139"><ele>804.0</ele><time>2026-04-18T12:05:55.999Z</time></trkpt><trkpt lat="44.53064931900396" lon="10.02134085169789"><ele>804.0</ele><time>2026-04-18T12:05:56.999Z</time></trkpt><trkpt lat="44.530705611727655" lon="10.021386506578438"><ele>804.0</ele><time>2026-04-18T12:05:57.999Z</time></trkpt><trkpt lat="44.530809988445405" lon="10.021482728631808"><ele>804.0</ele><time>2026-04-18T12:05:59.999Z</time></trkpt><trkpt lat="44.530879437083726" lon="10.021531153929438"><ele>804.0</ele><time>2026-04-18T12:06:00.999Z</time></trkpt><trkpt lat="44.53099241195576" lon="10.021613981001893"><ele>804.0</ele><time>2026-04-18T12:06:02.999Z</time></trkpt><trkpt lat="44.53105065199132" lon="10.021656423309846"><ele>804.0</ele><time>2026-04-18T12:06:03.999Z</time></trkpt><trkpt lat="44.53111342182333" lon="10.021703760840282"><ele>804.0</ele><time>2026-04-18T12:06:04.999Z</time></trkpt><trkpt lat="44.531174080463785" lon="10.021745246708196"><ele>804.0</ele><time>2026-04-18T12:06:05.999Z</time></trkpt><trkpt lat="44.53123712655467" lon="10.021792152768631"><ele>804.0</ele><time>2026-04-18T12:06:06.999Z</time></trkpt><trkpt lat="44.531293477968845" lon="10.021836051254828"><ele>803.8333333333334</ele><time>2026-04-18T12:06:07.999Z</time></trkpt><trkpt lat="44.53134442561075" lon="10.021909702703244"><ele>803.6666666666667</ele><time>2026-04-18T12:06:08.999Z</time></trkpt><trkpt lat="44.531387495342955" lon="10.021981708585852"><ele>803.5</ele><time>2026-04-18T12:06:09.999Z</time></trkpt><trkpt lat="44.53142022545259" lon="10.022064022705191"><ele>803.3333333333334</ele><time>2026-04-18T12:06:10.999Z</time></trkpt><trkpt lat="44.53144174680373" lon="10.022159235027988"><ele>803.1666666666667</ele><time>2026-04-18T12:06:11.999Z</time></trkpt><trkpt lat="44.53144483098298" lon="10.022255409182627"><ele>803.0</ele><time>2026-04-18T12:06:12.999Z</time></trkpt><trkpt lat="44.531431534791416" lon="10.022440525951762"><ele>803.5714285714286</ele><time>2026-04-18T12:06:14.999Z</time></trkpt><trkpt lat="44.531427096554616" lon="10.022540932258645"><ele>804.1428571428571</ele><time>2026-04-18T12:06:15.999Z</time></trkpt><trkpt lat="44.53142028929509" lon="10.022635141164908"><ele>804.7142857142858</ele><time>2026-04-18T12:06:16.999Z</time></trkpt><trkpt lat="44.53141450706007" lon="10.022724377548078"><ele>805.2857142857142</ele><time>2026-04-18T12:06:17.999Z</time></trkpt><trkpt lat="44.53141412285572" lon="10.022823600774208"><ele>805.8571428571429</ele><time>2026-04-18T12:06:18.999Z</time></trkpt><trkpt lat="44.531410199172036" lon="10.022920643366556"><ele>806.4285714285714</ele><time>2026-04-18T12:06:19.999Z</time></trkpt><trkpt lat="44.53140036611389" lon="10.023017693856152"><ele>807.0</ele><time>2026-04-18T12:06:20.999Z</time></trkpt><trkpt lat="44.53139207214022" lon="10.023115151324758"><ele>807.0</ele><time>2026-04-18T12:06:21.999Z</time></trkpt><trkpt lat="44.53137549068317" lon="10.023204411457062"><ele>807.0</ele><time>2026-04-18T12:06:22.999Z</time></trkpt><trkpt lat="44.5313502181122" lon="10.02328936408046"><ele>807.0</ele><time>2026-04-18T12:06:23.999Z</time></trkpt><trkpt lat="44.53131460432047" lon="10.023370322247173"><ele>807.0</ele><time>2026-04-18T12:06:24.999Z</time></trkpt><trkpt lat="44.531271489020256" lon="10.023438788523109"><ele>807.0</ele><time>2026-04-18T12:06:25.999Z</time></trkpt><trkpt lat="44.53123550489386" lon="10.023511577978352"><ele>807.0</ele><time>2026-04-18T12:06:26.999Z</time></trkpt><trkpt lat="44.53115209351935" lon="10.023647269787862"><ele>811.0</ele><time>2026-04-18T12:06:28.999Z</time></trkpt><trkpt lat="44.531114077028214" lon="10.023718501569121"><ele>815.0</ele><time>2026-04-18T12:06:29.999Z</time></trkpt><trkpt lat="44.53103874124484" lon="10.023853006197962"><ele>819.0</ele><time>2026-04-18T12:06:31.999Z</time></trkpt><trkpt lat="44.530951497073445" lon="10.023986949543326"><ele>823.0</ele><time>2026-04-18T12:06:33.999Z</time></trkpt><trkpt lat="44.53087352503776" lon="10.02411697974363"><ele>827.0</ele><time>2026-04-18T12:06:35.999Z</time></trkpt><trkpt lat="44.53078327813068" lon="10.02423170492474"><ele>827.0</ele><time>2026-04-18T12:06:37.999Z</time></trkpt><trkpt lat="44.530730594088155" lon="10.024282412909852"><ele>827.0</ele><time>2026-04-18T12:06:38.999Z</time></trkpt><trkpt lat="44.53062374752294" lon="10.024364450894003"><ele>827.0</ele><time>2026-04-18T12:06:40.999Z</time></trkpt><trkpt lat="44.5305154128736" lon="10.024418878477315"><ele>827.0</ele><time>2026-04-18T12:06:42.999Z</time></trkpt><trkpt lat="44.53040032311753" lon="10.024469498442345"><ele>827.0</ele><time>2026-04-18T12:06:44.999Z</time></trkpt><trkpt lat="44.53033884163953" lon="10.024498602920117"><ele>830.1666666666667</ele><time>2026-04-18T12:06:45.999Z</time></trkpt><trkpt lat="44.53027262206931" lon="10.024518296011315"><ele>833.3333333333334</ele><time>2026-04-18T12:06:46.998Z</time></trkpt><trkpt lat="44.53021041230437" lon="10.024546852372746"><ele>836.5</ele><time>2026-04-18T12:06:47.998Z</time></trkpt><trkpt lat="44.530090474416824" lon="10.024584666721061"><ele>839.6666666666667</ele><time>2026-04-18T12:06:49.998Z</time></trkpt><trkpt lat="44.53002706675505" lon="10.024609476374662"><ele>842.8333333333334</ele><time>2026-04-18T12:06:50.998Z</time></trkpt><trkpt lat="44.52990883531067" lon="10.02465559982393"><ele>846.0</ele><time>2026-04-18T12:06:52.998Z</time></trkpt><trkpt lat="44.52979820840353" lon="10.0247252640937"><ele>846.0</ele><time>2026-04-18T12:06:54.998Z</time></trkpt><trkpt lat="44.5296895185149" lon="10.024802247433652"><ele>846.0</ele><time>2026-04-18T12:06:56.998Z</time></trkpt><trkpt lat="44.52963694346492" lon="10.024855284749854"><ele>846.0</ele><time>2026-04-18T12:06:57.998Z</time></trkpt><trkpt lat="44.52954802152616" lon="10.024963137375213"><ele>846.0</ele><time>2026-04-18T12:06:59.998Z</time></trkpt><trkpt lat="44.52946729617022" lon="10.025070637424987"><ele>846.0</ele><time>2026-04-18T12:07:02Z</time></trkpt><trkpt lat="44.52938679375427" lon="10.025179151627455"><ele>847.5999999999999</ele><time>2026-04-18T12:07:04Z</time></trkpt><trkpt lat="44.52931330743294" lon="10.025295304397181"><ele>849.2</ele><time>2026-04-18T12:07:06Z</time></trkpt><trkpt lat="44.529242572447394" lon="10.025412050396294"><ele>850.8000000000001</ele><time>2026-04-18T12:07:08Z</time></trkpt><trkpt lat="44.52916074814029" lon="10.025524064333139"><ele>852.4000000000001</ele><time>2026-04-18T12:07:10Z</time></trkpt><trkpt lat="44.529096954082675" lon="10.025654452597836"><ele>854.0</ele><time>2026-04-18T12:07:12Z</time></trkpt><trkpt lat="44.5290353491705" lon="10.025786040233111"><ele>849.75</ele><time>2026-04-18T12:07:14Z</time></trkpt><trkpt lat="44.52899323832678" lon="10.025921709805838"><ele>845.5</ele><time>2026-04-18T12:07:16Z</time></trkpt><trkpt lat="44.52896608924724" lon="10.02606531453104"><ele>841.25</ele><time>2026-04-18T12:07:18Z</time></trkpt><trkpt lat="44.528944955187704" lon="10.026228368588754"><ele>837.0</ele><time>2026-04-18T12:07:20Z</time></trkpt><trkpt lat="44.52891966041523" lon="10.026396922817751"><ele>837.0</ele><time>2026-04-18T12:07:22Z</time></trkpt><trkpt lat="44.52889846310708" lon="10.026569497385118"><ele>837.0</ele><time>2026-04-18T12:07:24Z</time></trkpt><trkpt lat="44.5288850584366" lon="10.026657680187144"><ele>837.0</ele><time>2026-04-18T12:07:25Z</time></trkpt><trkpt lat="44.52887058527647" lon="10.02682749349201"><ele>837.0</ele><time>2026-04-18T12:07:27Z</time></trkpt><trkpt lat="44.528834781533675" lon="10.026989455552206"><ele>837.0</ele><time>2026-04-18T12:07:29Z</time></trkpt><trkpt lat="44.52879209901152" lon="10.027146293863158"><ele>839.5</ele><time>2026-04-18T12:07:31Z</time></trkpt><trkpt lat="44.528740373639344" lon="10.02729719178389"><ele>842.0</ele><time>2026-04-18T12:07:33Z</time></trkpt><trkpt lat="44.528651187172194" lon="10.027405809303689"><ele>844.5</ele><time>2026-04-18T12:07:35Z</time></trkpt><trkpt lat="44.52858022521013" lon="10.027511951136177"><ele>847.0</ele><time>2026-04-18T12:07:37Z</time></trkpt><trkpt lat="44.52849913861755" lon="10.027619465278091"><ele>847.0</ele><time>2026-04-18T12:07:39Z</time></trkpt><trkpt lat="44.52841879285247" lon="10.027727549975024"><ele>847.0</ele><time>2026-04-18T12:07:41Z</time></trkpt><trkpt lat="44.52833582177655" lon="10.027843118985002"><ele>847.0</ele><time>2026-04-18T12:07:43Z</time></trkpt><trkpt lat="44.52825299670422" lon="10.027973202321295"><ele>847.0</ele><time>2026-04-18T12:07:45Z</time></trkpt><trkpt lat="44.52821958897581" lon="10.028049429798019"><ele>847.0</ele><time>2026-04-18T12:07:46Z</time></trkpt><trkpt lat="44.52817112761882" lon="10.028209317730113"><ele>846.9999999999999</ele><time>2026-04-18T12:07:48Z</time></trkpt><trkpt lat="44.528160410716" lon="10.028299459751588"><ele>847.0</ele><time>2026-04-18T12:07:49Z</time></trkpt><trkpt lat="44.52814994279247" lon="10.028469506374957"><ele>847.0</ele><time>2026-04-18T12:07:51Z</time></trkpt><trkpt lat="44.52815592310153" lon="10.028558812961641"><ele>847.0</ele><time>2026-04-18T12:07:52Z</time></trkpt><trkpt lat="44.52818210234183" lon="10.028732448029517"><ele>846.9999999999999</ele><time>2026-04-18T12:07:54Z</time></trkpt><trkpt lat="44.52820320815235" lon="10.02881956325881"><ele>847.0</ele><time>2026-04-18T12:07:55Z</time></trkpt><trkpt lat="44.52825835834399" lon="10.028889200931832"><ele>846.0</ele><time>2026-04-18T12:07:55.999Z</time></trkpt><trkpt lat="44.52828633505947" lon="10.02897319283594"><ele>845.0</ele><time>2026-04-18T12:07:56.999Z</time></trkpt><trkpt lat="44.528292415672226" lon="10.029079577605957"><ele>844.0</ele><time>2026-04-18T12:07:57.999Z</time></trkpt><trkpt lat="44.52832891965309" lon="10.029162321180051"><ele>843.0</ele><time>2026-04-18T12:07:58.999Z</time></trkpt><trkpt lat="44.52836982908193" lon="10.029246898733216"><ele>842.0</ele><time>2026-04-18T12:07:59.999Z</time></trkpt><trkpt lat="44.52841029338163" lon="10.029322159157406"><ele>841.0</ele><time>2026-04-18T12:08:00.999Z</time></trkpt><trkpt lat="44.52845309585423" lon="10.02940109933638"><ele>840.0</ele><time>2026-04-18T12:08:01.999Z</time></trkpt><trkpt lat="44.528493957156556" lon="10.029475724953368"><ele>840.0</ele><time>2026-04-18T12:08:02.999Z</time></trkpt><trkpt lat="44.52853250175587" lon="10.029546119498137"><ele>840.0</ele><time>2026-04-18T12:08:03.999Z</time></trkpt><trkpt lat="44.52857251601492" lon="10.029619198231616"><ele>840.0</ele><time>2026-04-18T12:08:04.999Z</time></trkpt><trkpt lat="44.52861266718659" lon="10.02969152797719"><ele>840.0</ele><time>2026-04-18T12:08:05.999Z</time></trkpt><trkpt lat="44.528688938898036" lon="10.02982701757279"><ele>840.0</ele><time>2026-04-18T12:08:07.999Z</time></trkpt><trkpt lat="44.52876053053051" lon="10.029954193591548"><ele>840.0</ele><time>2026-04-18T12:08:09.999Z</time></trkpt><trkpt lat="44.528833739098346" lon="10.030082706428889"><ele>839.25</ele><time>2026-04-18T12:08:11.999Z</time></trkpt><trkpt lat="44.52890779923412" lon="10.030211440197364"><ele>838.5</ele><time>2026-04-18T12:08:13.999Z</time></trkpt><trkpt lat="44.52898390535359" lon="10.03034088692036"><ele>837.75</ele><time>2026-04-18T12:08:15.999Z</time></trkpt><trkpt lat="44.52906728088179" lon="10.030474865131492"><ele>837.0</ele><time>2026-04-18T12:08:17.999Z</time></trkpt><trkpt lat="44.52915262260013" lon="10.030599883409527"><ele>837.0</ele><time>2026-04-18T12:08:19.999Z</time></trkpt><trkpt lat="44.52919861986309" lon="10.030660421724862"><ele>837.0</ele><time>2026-04-18T12:08:20.999Z</time></trkpt><trkpt lat="44.52924759983562" lon="10.030717547689662"><ele>837.0</ele><time>2026-04-18T12:08:21.999Z</time></trkpt><trkpt lat="44.5293062907391" lon="10.030771706223481"><ele>837.0</ele><time>2026-04-18T12:08:22.999Z</time></trkpt><trkpt lat="44.529362735684835" lon="10.030811200379512"><ele>837.0</ele><time>2026-04-18T12:08:23.999Z</time></trkpt><trkpt lat="44.529426297568854" lon="10.030839445563648"><ele>837.0</ele><time>2026-04-18T12:08:24.999Z</time></trkpt><trkpt lat="44.52949175661839" lon="10.030853508646215"><ele>837.0</ele><time>2026-04-18T12:08:25.999Z</time></trkpt><trkpt lat="44.52955340085552" lon="10.030885444181251"><ele>837.4000000000001</ele><time>2026-04-18T12:08:26.999Z</time></trkpt><trkpt lat="44.52966717358405" lon="10.030941559203207"><ele>837.8000000000001</ele><time>2026-04-18T12:08:28.999Z</time></trkpt><trkpt lat="44.529729154680965" lon="10.030974743479682"><ele>838.2</ele><time>2026-04-18T12:08:29.999Z</time></trkpt><trkpt lat="44.52978888577164" lon="10.031002917547779"><ele>838.6</ele><time>2026-04-18T12:08:30.999Z</time></trkpt><trkpt lat="44.52990033700237" lon="10.031081029540633"><ele>839.0</ele><time>2026-04-18T12:08:32.999Z</time></trkpt><trkpt lat="44.52999976695069" lon="10.031194077476425"><ele>839.0</ele><time>2026-04-18T12:08:34.999Z</time></trkpt><trkpt lat="44.53004146098072" lon="10.031266361315964"><ele>839.0</ele><time>2026-04-18T12:08:35.999Z</time></trkpt><trkpt lat="44.53007951656118" lon="10.03135077788108"><ele>839.0</ele><time>2026-04-18T12:08:36.999Z</time></trkpt><trkpt lat="44.53012122302333" lon="10.031422009780107"><ele>839.0</ele><time>2026-04-18T12:08:37.999Z</time></trkpt><trkpt lat="44.53016005206388" lon="10.031508126312358"><ele>839.0</ele><time>2026-04-18T12:08:38.999Z</time></trkpt><trkpt lat="44.53019931910455" lon="10.031593719616511"><ele>839.0</ele><time>2026-04-18T12:08:39.999Z</time></trkpt><trkpt lat="44.53021763923316" lon="10.031692953198283"><ele>839.0</ele><time>2026-04-18T12:08:40.999Z</time></trkpt><trkpt lat="44.53025577874485" lon="10.03177734229102"><ele>840.0</ele><time>2026-04-18T12:08:41.999Z</time></trkpt><trkpt lat="44.530292501138085" lon="10.031858595847975"><ele>841.0</ele><time>2026-04-18T12:08:42.999Z</time></trkpt><trkpt lat="44.5303301109565" lon="10.031941812978381"><ele>842.0</ele><time>2026-04-18T12:08:43.999Z</time></trkpt><trkpt lat="44.53036556261282" lon="10.032020254871696"><ele>843.0</ele><time>2026-04-18T12:08:44.999Z</time></trkpt><trkpt lat="44.53040200718369" lon="10.032103060334679"><ele>844.0</ele><time>2026-04-18T12:08:45.999Z</time></trkpt><trkpt lat="44.53043856388271" lon="10.032188720419215"><ele>845.0</ele><time>2026-04-18T12:08:46.999Z</time></trkpt><trkpt lat="44.53047408705142" lon="10.032271958865367"><ele>846.0</ele><time>2026-04-18T12:08:47.999Z</time></trkpt><trkpt lat="44.53050871052054" lon="10.032353089065394"><ele>844.8333333333334</ele><time>2026-04-18T12:08:48.999Z</time></trkpt><trkpt lat="44.53054412610168" lon="10.03243607673263"><ele>843.6666666666667</ele><time>2026-04-18T12:08:49.999Z</time></trkpt><trkpt lat="44.53058711201939" lon="10.032515448270953"><ele>842.5</ele><time>2026-04-18T12:08:50.998Z</time></trkpt><trkpt lat="44.53063690360728" lon="10.032591440496217"><ele>841.3333333333334</ele><time>2026-04-18T12:08:51.998Z</time></trkpt><trkpt lat="44.53070055940375" lon="10.032656594692353"><ele>840.1666666666667</ele><time>2026-04-18T12:08:52.998Z</time></trkpt><trkpt lat="44.5307854894765" lon="10.032689664309748"><ele>839.0</ele><time>2026-04-18T12:08:53.998Z</time></trkpt><trkpt lat="44.530877488361114" lon="10.03265585683972"><ele>839.0000000000001</ele><time>2026-04-18T12:08:54.998Z</time></trkpt><trkpt lat="44.530961382666234" lon="10.03263280506744"><ele>839.0</ele><time>2026-04-18T12:08:55.998Z</time></trkpt><trkpt lat="44.531046610102976" lon="10.032601599369967"><ele>839.0</ele><time>2026-04-18T12:08:56.998Z</time></trkpt><trkpt lat="44.531130333175184" lon="10.032571603293333"><ele>839.0</ele><time>2026-04-18T12:08:57.998Z</time></trkpt><trkpt lat="44.5312183652892" lon="10.032539567948202"><ele>839.0000000000001</ele><time>2026-04-18T12:08:58.998Z</time></trkpt><trkpt lat="44.531304832466695" lon="10.032512877086242"><ele>839.0</ele><time>2026-04-18T12:08:59.998Z</time></trkpt><trkpt lat="44.53139429924702" lon="10.032479121795294"><ele>835.8000000000001</ele><time>2026-04-18T12:09:00.998Z</time></trkpt><trkpt lat="44.531481927913816" lon="10.032451791883345"><ele>832.6</ele><time>2026-04-18T12:09:01.998Z</time></trkpt><trkpt lat="44.53157598452083" lon="10.032436396813894"><ele>829.4</ele><time>2026-04-18T12:09:02.998Z</time></trkpt><trkpt lat="44.53167055811342" lon="10.032431794454935"><ele>826.2</ele><time>2026-04-18T12:09:03.998Z</time></trkpt><trkpt lat="44.531766396531026" lon="10.032422079352557"><ele>823.0</ele><time>2026-04-18T12:09:04.998Z</time></trkpt><trkpt lat="44.53186760175688" lon="10.032413409823818"><ele>823.0</ele><time>2026-04-18T12:09:05.998Z</time></trkpt><trkpt lat="44.531970736914026" lon="10.032399012266417"><ele>823.0</ele><time>2026-04-18T12:09:06.998Z</time></trkpt><trkpt lat="44.53207044956243" lon="10.032395847780819"><ele>823.0</ele><time>2026-04-18T12:09:08Z</time></trkpt><trkpt lat="44.53217615277581" lon="10.03239082571553"><ele>823.0</ele><time>2026-04-18T12:09:09Z</time></trkpt><trkpt lat="44.53227672010191" lon="10.032404936408959"><ele>823.0</ele><time>2026-04-18T12:09:10Z</time></trkpt><trkpt lat="44.53237622210539" lon="10.032401530404972"><ele>821.8</ele><time>2026-04-18T12:09:11Z</time></trkpt><trkpt lat="44.53247393886914" lon="10.032396332368114"><ele>820.5999999999999</ele><time>2026-04-18T12:09:12Z</time></trkpt><trkpt lat="44.532572368621466" lon="10.032387785102742"><ele>819.4000000000001</ele><time>2026-04-18T12:09:13Z</time></trkpt><trkpt lat="44.53266963115292" lon="10.032381078530092"><ele>818.2</ele><time>2026-04-18T12:09:14Z</time></trkpt><trkpt lat="44.53276255624264" lon="10.032364347354067"><ele>817.0</ele><time>2026-04-18T12:09:15Z</time></trkpt><trkpt lat="44.53285739043114" lon="10.032348369731267"><ele>819.0</ele><time>2026-04-18T12:09:16Z</time></trkpt><trkpt lat="44.53295179616493" lon="10.03233445778964"><ele>821.0</ele><time>2026-04-18T12:09:17Z</time></trkpt><trkpt lat="44.53304136511717" lon="10.032316652352007"><ele>823.0</ele><time>2026-04-18T12:09:18Z</time></trkpt><trkpt lat="44.5331311828773" lon="10.032306476258062"><ele>825.0</ele><time>2026-04-18T12:09:19Z</time></trkpt><trkpt lat="44.533221212911485" lon="10.03229058784638"><ele>827.0</ele><time>2026-04-18T12:09:20Z</time></trkpt><trkpt lat="44.53331667047772" lon="10.032269961347716"><ele>827.0</ele><time>2026-04-18T12:09:21Z</time></trkpt><trkpt lat="44.533413547340274" lon="10.032249668181924"><ele>827.0</ele><time>2026-04-18T12:09:22Z</time></trkpt><trkpt lat="44.533511051947876" lon="10.032227605271899"><ele>827.0</ele><time>2026-04-18T12:09:23Z</time></trkpt><trkpt lat="44.53360466214929" lon="10.032189912427999"><ele>827.0</ele><time>2026-04-18T12:09:24Z</time></trkpt><trkpt lat="44.53370208820465" lon="10.032153624859792"><ele>827.0</ele><time>2026-04-18T12:09:25Z</time></trkpt><trkpt lat="44.533800195247586" lon="10.032132494429998"><ele>826.6</ele><time>2026-04-18T12:09:26Z</time></trkpt><trkpt lat="44.53389668254353" lon="10.032148175352717"><ele>826.2</ele><time>2026-04-18T12:09:27Z</time></trkpt><trkpt lat="44.53398746021694" lon="10.032196092846215"><ele>825.8</ele><time>2026-04-18T12:09:28Z</time></trkpt><trkpt lat="44.53406848291039" lon="10.0322728911983"><ele>825.4</ele><time>2026-04-18T12:09:29Z</time></trkpt><trkpt lat="44.534119326148854" lon="10.032391221165339"><ele>825.0</ele><time>2026-04-18T12:09:30Z</time></trkpt><trkpt lat="44.53414884487859" lon="10.03251289443974"><ele>826.6</ele><time>2026-04-18T12:09:31Z</time></trkpt><trkpt lat="44.53417417608224" lon="10.032631220378207"><ele>828.2</ele><time>2026-04-18T12:09:32Z</time></trkpt><trkpt lat="44.53419833975979" lon="10.032752755424864"><ele>829.8</ele><time>2026-04-18T12:09:33Z</time></trkpt><trkpt lat="44.53422235475388" lon="10.032875293357323"><ele>831.4</ele><time>2026-04-18T12:09:34Z</time></trkpt><trkpt lat="44.53424581419735" lon="10.032999053390132"><ele>833.0</ele><time>2026-04-18T12:09:35Z</time></trkpt><trkpt lat="44.534269406295486" lon="10.033123689486759"><ele>833.0000000000001</ele><time>2026-04-18T12:09:36Z</time></trkpt><trkpt lat="44.534292930893436" lon="10.033250801465304"><ele>833.0</ele><time>2026-04-18T12:09:37Z</time></trkpt><trkpt lat="44.534315434645364" lon="10.033378234230492"><ele>833.0</ele><time>2026-04-18T12:09:38Z</time></trkpt><trkpt lat="44.53433703644794" lon="10.033500559692563"><ele>833.0</ele><time>2026-04-18T12:09:39Z</time></trkpt><trkpt lat="44.53435798097878" lon="10.033619162925332"><ele>833.0000000000001</ele><time>2026-04-18T12:09:40Z</time></trkpt><trkpt lat="44.534377774720596" lon="10.033731249603473"><ele>833.0</ele><time>2026-04-18T12:09:41Z</time></trkpt><trkpt lat="44.53439728024704" lon="10.033841704463244"><ele>833.3333333333334</ele><time>2026-04-18T12:09:42Z</time></trkpt><trkpt lat="44.53441689787621" lon="10.033951157321097"><ele>833.6666666666667</ele><time>2026-04-18T12:09:43Z</time></trkpt><trkpt lat="44.534435556431276" lon="10.034049588848609"><ele>834.0</ele><time>2026-04-18T12:09:44Z</time></trkpt><trkpt lat="44.534454856473545" lon="10.034150054054097"><ele>834.3333333333333</ele><time>2026-04-18T12:09:45Z</time></trkpt><trkpt lat="44.53447820824059" lon="10.034249626671128"><ele>834.6666666666666</ele><time>2026-04-18T12:09:46Z</time></trkpt><trkpt lat="44.53451294642817" lon="10.034351900826776"><ele>835.0</ele><time>2026-04-18T12:09:47Z</time></trkpt><trkpt lat="44.534563483535045" lon="10.034437960047596"><ele>834.1666666666666</ele><time>2026-04-18T12:09:48Z</time></trkpt><trkpt lat="44.53462578030987" lon="10.034505262063519"><ele>833.3333333333333</ele><time>2026-04-18T12:09:49Z</time></trkpt><trkpt lat="44.53470176027975" lon="10.034545574457407"><ele>832.5</ele><time>2026-04-18T12:09:50Z</time></trkpt><trkpt lat="44.53478553461017" lon="10.034543363314281"><ele>831.6666666666667</ele><time>2026-04-18T12:09:51Z</time></trkpt><trkpt lat="44.534854923551634" lon="10.034539422430528"><ele>830.8333333333334</ele><time>2026-04-18T12:09:52Z</time></trkpt><trkpt lat="44.53492404742056" lon="10.034514673177952"><ele>830.0</ele><time>2026-04-18T12:09:53Z</time></trkpt><trkpt lat="44.534988826832226" lon="10.034472801463927"><ele>830.0</ele><time>2026-04-18T12:09:54Z</time></trkpt><trkpt lat="44.535049625003" lon="10.034418986732506"><ele>830.0</ele><time>2026-04-18T12:09:55Z</time></trkpt><trkpt lat="44.53510423502356" lon="10.034354843148826"><ele>830.0</ele><time>2026-04-18T12:09:56Z</time></trkpt><trkpt lat="44.53518124932199" lon="10.0342194885129"><ele>830.0</ele><time>2026-04-18T12:09:58Z</time></trkpt><trkpt lat="44.535266239703304" lon="10.034093676167645"><ele>830.0</ele><time>2026-04-18T12:10:00Z</time></trkpt><trkpt lat="44.53535992109075" lon="10.033973319058926"><ele>830.5714285714286</ele><time>2026-04-18T12:10:02Z</time></trkpt><trkpt lat="44.53541535416555" lon="10.033920585622521"><ele>831.1428571428571</ele><time>2026-04-18T12:10:03Z</time></trkpt><trkpt lat="44.535479816002784" lon="10.033871732534566"><ele>831.7142857142858</ele><time>2026-04-18T12:10:03.999Z</time></trkpt><trkpt lat="44.53553551866962" lon="10.03382873174566"><ele>832.2857142857142</ele><time>2026-04-18T12:10:04.999Z</time></trkpt><trkpt lat="44.535597284904185" lon="10.033770130568072"><ele>832.8571428571428</ele><time>2026-04-18T12:10:05.999Z</time></trkpt><trkpt lat="44.535654470076175" lon="10.033704641037279"><ele>833.4285714285714</ele><time>2026-04-18T12:10:06.999Z</time></trkpt><trkpt lat="44.53570359526165" lon="10.033622209764413"><ele>834.0</ele><time>2026-04-18T12:10:07.999Z</time></trkpt><trkpt lat="44.53574562951735" lon="10.033533111534535"><ele>834.0</ele><time>2026-04-18T12:10:08.999Z</time></trkpt><trkpt lat="44.5357682614339" lon="10.0334324821858"><ele>834.0</ele><time>2026-04-18T12:10:09.999Z</time></trkpt><trkpt lat="44.53579641928536" lon="10.033337897497265"><ele>834.0</ele><time>2026-04-18T12:10:10.999Z</time></trkpt><trkpt lat="44.535831276817575" lon="10.033251643684737"><ele>834.0</ele><time>2026-04-18T12:10:11.999Z</time></trkpt><trkpt lat="44.53588855628071" lon="10.033186218940974"><ele>834.0</ele><time>2026-04-18T12:10:12.999Z</time></trkpt><trkpt lat="44.5359470668705" lon="10.033125152645452"><ele>834.0</ele><time>2026-04-18T12:10:13.999Z</time></trkpt><trkpt lat="44.53601172666032" lon="10.033066452504539"><ele>834.0</ele><time>2026-04-18T12:10:14.999Z</time></trkpt><trkpt lat="44.53607809476305" lon="10.033010190352263"><ele>834.0</ele><time>2026-04-18T12:10:15.999Z</time></trkpt><trkpt lat="44.53613644366657" lon="10.032951997869443"><ele>834.0</ele><time>2026-04-18T12:10:16.999Z</time></trkpt><trkpt lat="44.536201697402284" lon="10.032893183562901"><ele>834.0</ele><time>2026-04-18T12:10:17.999Z</time></trkpt><trkpt lat="44.536269368866805" lon="10.032842020818478"><ele>834.0</ele><time>2026-04-18T12:10:18.999Z</time></trkpt><trkpt lat="44.53633392326788" lon="10.03277687920106"><ele>834.0</ele><time>2026-04-18T12:10:19.999Z</time></trkpt><trkpt lat="44.53639947155778" lon="10.032719791505167"><ele>834.0</ele><time>2026-04-18T12:10:20.999Z</time></trkpt><trkpt lat="44.536465887190296" lon="10.032665991426057"><ele>834.0</ele><time>2026-04-18T12:10:21.999Z</time></trkpt><trkpt lat="44.53652913748606" lon="10.032603933465973"><ele>834.0</ele><time>2026-04-18T12:10:22.999Z</time></trkpt><trkpt lat="44.53658981724345" lon="10.032538526226585"><ele>834.0</ele><time>2026-04-18T12:10:23.999Z</time></trkpt><trkpt lat="44.536641292275036" lon="10.032466628307812"><ele>834.0</ele><time>2026-04-18T12:10:24.999Z</time></trkpt><trkpt lat="44.53669437598316" lon="10.032388231489104"><ele>834.0</ele><time>2026-04-18T12:10:25.999Z</time></trkpt><trkpt lat="44.536745515196856" lon="10.032300703694348"><ele>834.0</ele><time>2026-04-18T12:10:26.999Z</time></trkpt><trkpt lat="44.536773953171846" lon="10.03218747504678"><ele>832.0</ele><time>2026-04-18T12:10:27.999Z</time></trkpt><trkpt lat="44.53679904192469" lon="10.032074055322676"><ele>830.0</ele><time>2026-04-18T12:10:28.999Z</time></trkpt><trkpt lat="44.53681218584519" lon="10.031956427084351"><ele>828.0</ele><time>2026-04-18T12:10:29.999Z</time></trkpt><trkpt lat="44.53682465991476" lon="10.03185071217626"><ele>826.0</ele><time>2026-04-18T12:10:30.999Z</time></trkpt><trkpt lat="44.53682898341091" lon="10.031741960526091"><ele>824.0</ele><time>2026-04-18T12:10:31.999Z</time></trkpt><trkpt lat="44.53685447721441" lon="10.031636562748488"><ele>822.0</ele><time>2026-04-18T12:10:32.999Z</time></trkpt><trkpt lat="44.53688345515821" lon="10.031535649125274"><ele>822.8333333333334</ele><time>2026-04-18T12:10:33.999Z</time></trkpt><trkpt lat="44.53692458413729" lon="10.031441314750149"><ele>823.6666666666667</ele><time>2026-04-18T12:10:34.999Z</time></trkpt><trkpt lat="44.536977287264186" lon="10.031360393423258"><ele>824.5</ele><time>2026-04-18T12:10:35.999Z</time></trkpt><trkpt lat="44.537048468848056" lon="10.03129938951743"><ele>825.3333333333334</ele><time>2026-04-18T12:10:36.999Z</time></trkpt><trkpt lat="44.53712947818236" lon="10.031271215759658"><ele>826.1666666666667</ele><time>2026-04-18T12:10:37.999Z</time></trkpt><trkpt lat="44.537211481909594" lon="10.03127269484267"><ele>827.0</ele><time>2026-04-18T12:10:38.999Z</time></trkpt><trkpt lat="44.53729239275828" lon="10.031298093931575"><ele>827.0000000000001</ele><time>2026-04-18T12:10:39.999Z</time></trkpt><trkpt lat="44.537369403694754" lon="10.031340649859974"><ele>827.0</ele><time>2026-04-18T12:10:40.999Z</time></trkpt><trkpt lat="44.53744769089077" lon="10.031383232912178"><ele>827.0</ele><time>2026-04-18T12:10:41.999Z</time></trkpt><trkpt lat="44.53752988465981" lon="10.031425424171225"><ele>827.0</ele><time>2026-04-18T12:10:42.999Z</time></trkpt><trkpt lat="44.53761224121969" lon="10.031460861736232"><ele>827.0000000000001</ele><time>2026-04-18T12:10:43.999Z</time></trkpt><trkpt lat="44.53769634714749" lon="10.031498405044662"><ele>827.0</ele><time>2026-04-18T12:10:44.999Z</time></trkpt><trkpt lat="44.53777437238376" lon="10.03153877756413"><ele>827.0000000000001</ele><time>2026-04-18T12:10:45.999Z</time></trkpt><trkpt lat="44.53785542492358" lon="10.031577975403717"><ele>827.0</ele><time>2026-04-18T12:10:46.999Z</time></trkpt><trkpt lat="44.537940919087376" lon="10.031615352260472"><ele>827.0</ele><time>2026-04-18T12:10:47.999Z</time></trkpt><trkpt lat="44.53802608689906" lon="10.031659185910323"><ele>827.0</ele><time>2026-04-18T12:10:48.999Z</time></trkpt><trkpt lat="44.53811060237589" lon="10.031700933031834"><ele>827.0000000000001</ele><time>2026-04-18T12:10:49.999Z</time></trkpt><trkpt lat="44.538192274782816" lon="10.03174418985093"><ele>827.0</ele><time>2026-04-18T12:10:50.999Z</time></trkpt><trkpt lat="44.538277278443815" lon="10.031786118460845"><ele>827.6666666666667</ele><time>2026-04-18T12:10:51.999Z</time></trkpt><trkpt lat="44.538360158250505" lon="10.031832295259237"><ele>828.3333333333334</ele><time>2026-04-18T12:10:52.999Z</time></trkpt><trkpt lat="44.538440939788885" lon="10.031882264938217"><ele>829.0</ele><time>2026-04-18T12:10:53.999Z</time></trkpt><trkpt lat="44.5385193451835" lon="10.031940409456578"><ele>829.6666666666667</ele><time>2026-04-18T12:10:54.999Z</time></trkpt><trkpt lat="44.53859448922506" lon="10.03200387171366"><ele>830.3333333333334</ele><time>2026-04-18T12:10:55.999Z</time></trkpt><trkpt lat="44.53866898548798" lon="10.032065016978336"><ele>831.0</ele><time>2026-04-18T12:10:56.999Z</time></trkpt><trkpt lat="44.538743076829874" lon="10.03212374107359"><ele>829.4</ele><time>2026-04-18T12:10:57.998Z</time></trkpt><trkpt lat="44.53882408626248" lon="10.032185983486244"><ele>827.8</ele><time>2026-04-18T12:10:58.998Z</time></trkpt><trkpt lat="44.53890155144708" lon="10.032253807204846"><ele>826.1999999999999</ele><time>2026-04-18T12:10:59.998Z</time></trkpt><trkpt lat="44.538982583102346" lon="10.032320487335893"><ele>824.5999999999999</ele><time>2026-04-18T12:11:00.998Z</time></trkpt><trkpt lat="44.53906625112595" lon="10.032379120670004"><ele>823.0</ele><time>2026-04-18T12:11:01.998Z</time></trkpt><trkpt lat="44.53914752601658" lon="10.032427979642604"><ele>823.0</ele><time>2026-04-18T12:11:02.998Z</time></trkpt><trkpt lat="44.53925112113184" lon="10.03244686726981"><ele>823.0</ele><time>2026-04-18T12:11:03.998Z</time></trkpt><trkpt lat="44.53935376245735" lon="10.03248041161667"><ele>823.0</ele><time>2026-04-18T12:11:04.998Z</time></trkpt><trkpt lat="44.53944924729107" lon="10.032494382191734"><ele>823.0</ele><time>2026-04-18T12:11:05.998Z</time></trkpt><trkpt lat="44.53954946534718" lon="10.032510399702335"><ele>823.0</ele><time>2026-04-18T12:11:06.998Z</time></trkpt><trkpt lat="44.53966764403431" lon="10.032514953693015"><ele>823.5999999999999</ele><time>2026-04-18T12:11:08.998Z</time></trkpt><trkpt lat="44.5397624264533" lon="10.032540247423999"><ele>824.1999999999999</ele><time>2026-04-18T12:11:09.998Z</time></trkpt><trkpt lat="44.53985876255804" lon="10.03255325528113"><ele>824.8</ele><time>2026-04-18T12:11:10.998Z</time></trkpt><trkpt lat="44.539946942389896" lon="10.03256741931442"><ele>825.4</ele><time>2026-04-18T12:11:11.998Z</time></trkpt><trkpt lat="44.54002995670956" lon="10.032580571246255"><ele>826.0</ele><time>2026-04-18T12:11:12.998Z</time></trkpt><trkpt lat="44.54011416326207" lon="10.03259763361937"><ele>826.0</ele><time>2026-04-18T12:11:14Z</time></trkpt><trkpt lat="44.54020299831413" lon="10.032623079562258"><ele>826.0</ele><time>2026-04-18T12:11:15Z</time></trkpt><trkpt lat="44.5402927581095" lon="10.032631570942138"><ele>826.0</ele><time>2026-04-18T12:11:16Z</time></trkpt><trkpt lat="44.540382127086886" lon="10.032635882676054"><ele>826.0</ele><time>2026-04-18T12:11:17Z</time></trkpt><trkpt lat="44.54047973236671" lon="10.032645810659316"><ele>826.0</ele><time>2026-04-18T12:11:18Z</time></trkpt><trkpt lat="44.540563300439025" lon="10.032623556191108"><ele>826.5999999999999</ele><time>2026-04-18T12:11:19Z</time></trkpt><trkpt lat="44.54065049342851" lon="10.032575287400384"><ele>827.2</ele><time>2026-04-18T12:11:20Z</time></trkpt><trkpt lat="44.540732592716765" lon="10.032521456500529"><ele>827.8</ele><time>2026-04-18T12:11:21Z</time></trkpt><trkpt lat="44.54081179761072" lon="10.03246622071121"><ele>828.4000000000001</ele><time>2026-04-18T12:11:22Z</time></trkpt><trkpt lat="44.54089691149701" lon="10.032404526613437"><ele>829.0</ele><time>2026-04-18T12:11:23Z</time></trkpt><trkpt lat="44.540977645838794" lon="10.032330515239158"><ele>827.4000000000001</ele><time>2026-04-18T12:11:24Z</time></trkpt><trkpt lat="44.54105298093463" lon="10.032268342924496"><ele>825.8</ele><time>2026-04-18T12:11:25Z</time></trkpt><trkpt lat="44.54113048846658" lon="10.032202119548632"><ele>824.2</ele><time>2026-04-18T12:11:26Z</time></trkpt><trkpt lat="44.541212280754394" lon="10.032134698477277"><ele>822.5999999999999</ele><time>2026-04-18T12:11:27Z</time></trkpt><trkpt lat="44.541293518972374" lon="10.032075256187834"><ele>821.0</ele><time>2026-04-18T12:11:28Z</time></trkpt><trkpt lat="44.5413801934386" lon="10.03203627719064"><ele>821.0</ele><time>2026-04-18T12:11:29Z</time></trkpt><trkpt lat="44.54147156020674" lon="10.032041393858288"><ele>821.0</ele><time>2026-04-18T12:11:30Z</time></trkpt><trkpt lat="44.541563662414625" lon="10.032080306336313"><ele>821.0</ele><time>2026-04-18T12:11:31Z</time></trkpt><trkpt lat="44.54164550955089" lon="10.032144155978086"><ele>821.0</ele><time>2026-04-18T12:11:32Z</time></trkpt><trkpt lat="44.541718638708005" lon="10.03221842927553"><ele>821.0</ele><time>2026-04-18T12:11:33Z</time></trkpt><trkpt lat="44.54178241463881" lon="10.032320945270955"><ele>821.0000000000001</ele><time>2026-04-18T12:11:34Z</time></trkpt><trkpt lat="44.54183085542956" lon="10.03243069413194"><ele>821.0</ele><time>2026-04-18T12:11:35Z</time></trkpt><trkpt lat="44.54186860642813" lon="10.032543614660822"><ele>821.0</ele><time>2026-04-18T12:11:36Z</time></trkpt><trkpt lat="44.54191560108134" lon="10.03264394778586"><ele>821.0</ele><time>2026-04-18T12:11:37Z</time></trkpt><trkpt lat="44.54196454998348" lon="10.03273711199876"><ele>821.0000000000001</ele><time>2026-04-18T12:11:38Z</time></trkpt><trkpt lat="44.54201095259687" lon="10.032834242582235"><ele>821.0</ele><time>2026-04-18T12:11:39Z</time></trkpt><trkpt lat="44.542053773366526" lon="10.032933095040514"><ele>820.3333333333334</ele><time>2026-04-18T12:11:40Z</time></trkpt><trkpt lat="44.54209824851279" lon="10.033028473593443"><ele>819.6666666666667</ele><time>2026-04-18T12:11:41Z</time></trkpt><trkpt lat="44.542141509777004" lon="10.03311987189128"><ele>819.0</ele><time>2026-04-18T12:11:42Z</time></trkpt><trkpt lat="44.54219404201658" lon="10.033215318012065"><ele>818.3333333333333</ele><time>2026-04-18T12:11:43Z</time></trkpt><trkpt lat="44.542238598502564" lon="10.033303171095412"><ele>817.6666666666666</ele><time>2026-04-18T12:11:44Z</time></trkpt><trkpt lat="44.54228433454404" lon="10.033381601329845"><ele>817.0</ele><time>2026-04-18T12:11:45Z</time></trkpt><trkpt lat="44.54234898207234" lon="10.033459998955498"><ele>818.6666666666666</ele><time>2026-04-18T12:11:46Z</time></trkpt><trkpt lat="44.54241779929499" lon="10.033529547392167"><ele>820.3333333333333</ele><time>2026-04-18T12:11:47Z</time></trkpt><trkpt lat="44.54248401242455" lon="10.033581407025721"><ele>822.0</ele><time>2026-04-18T12:11:48Z</time></trkpt><trkpt lat="44.542552842093166" lon="10.033637291973125"><ele>823.6666666666667</ele><time>2026-04-18T12:11:49Z</time></trkpt><trkpt lat="44.54261869857035" lon="10.033687440444199"><ele>825.3333333333334</ele><time>2026-04-18T12:11:50Z</time></trkpt><trkpt lat="44.542683467494534" lon="10.03373922482712"><ele>827.0</ele><time>2026-04-18T12:11:51Z</time></trkpt><trkpt lat="44.542744534647156" lon="10.033789889859865"><ele>827.0</ele><time>2026-04-18T12:11:52Z</time></trkpt><trkpt lat="44.542805087844314" lon="10.033841304568455"><ele>827.0</ele><time>2026-04-18T12:11:53Z</time></trkpt><trkpt lat="44.542864465110355" lon="10.033893501326967"><ele>827.0</ele><time>2026-04-18T12:11:54Z</time></trkpt><trkpt lat="44.54292154690984" lon="10.033941997287446"><ele>827.0</ele><time>2026-04-18T12:11:55Z</time></trkpt><trkpt lat="44.542972810251364" lon="10.034002118800801"><ele>827.0</ele><time>2026-04-18T12:11:56Z</time></trkpt><trkpt lat="44.54301953631807" lon="10.03406987919842"><ele>827.0</ele><time>2026-04-18T12:11:57Z</time></trkpt><trkpt lat="44.543061916648625" lon="10.034146091530381"><ele>827.0</ele><time>2026-04-18T12:11:58Z</time></trkpt><trkpt lat="44.54309767362535" lon="10.034221869132692"><ele>826.8571428571429</ele><time>2026-04-18T12:11:59Z</time></trkpt><trkpt lat="44.54312044717226" lon="10.034312291171831"><ele>826.7142857142857</ele><time>2026-04-18T12:12:00Z</time></trkpt><trkpt lat="44.54316327747932" lon="10.034378704343327"><ele>826.5714285714286</ele><time>2026-04-18T12:12:01Z</time></trkpt><trkpt lat="44.54319244370991" lon="10.034464836860256"><ele>826.4285714285714</ele><time>2026-04-18T12:12:02Z</time></trkpt><trkpt lat="44.54322251316653" lon="10.034545537024936"><ele>826.2857142857142</ele><time>2026-04-18T12:12:03Z</time></trkpt><trkpt lat="44.543247449822196" lon="10.034631156878772"><ele>826.1428571428571</ele><time>2026-04-18T12:12:04Z</time></trkpt><trkpt lat="44.54328269332376" lon="10.034714755928368"><ele>826.0</ele><time>2026-04-18T12:12:05Z</time></trkpt><trkpt lat="44.543321715064444" lon="10.034793990209147"><ele>826.0</ele><time>2026-04-18T12:12:06Z</time></trkpt><trkpt lat="44.54337078268659" lon="10.034867172791937"><ele>826.0</ele><time>2026-04-18T12:12:07Z</time></trkpt><trkpt lat="44.543426048030476" lon="10.034930038805303"><ele>826.0</ele><time>2026-04-18T12:12:08Z</time></trkpt><trkpt lat="44.54349183667586" lon="10.034967359345908"><ele>826.0</ele><time>2026-04-18T12:12:08.999Z</time></trkpt><trkpt lat="44.543556713612894" lon="10.035004514046166"><ele>826.0</ele><time>2026-04-18T12:12:09.999Z</time></trkpt><trkpt lat="44.54361692861164" lon="10.035038069972204"><ele>826.0</ele><time>2026-04-18T12:12:10.999Z</time></trkpt><trkpt lat="44.54368243343457" lon="10.03506834718314"><ele>826.0</ele><time>2026-04-18T12:12:11.999Z</time></trkpt><trkpt lat="44.54374905963928" lon="10.035094983095155"><ele>824.9999999999999</ele><time>2026-04-18T12:12:12.999Z</time></trkpt><trkpt lat="44.54381432812929" lon="10.035107339891617"><ele>824.0</ele><time>2026-04-18T12:12:13.999Z</time></trkpt><trkpt lat="44.54388296835202" lon="10.035112730462998"><ele>823.0</ele><time>2026-04-18T12:12:14.999Z</time></trkpt><trkpt lat="44.54395651187353" lon="10.035089386958468"><ele>822.0</ele><time>2026-04-18T12:12:15.999Z</time></trkpt><trkpt lat="44.544019907915" lon="10.035042072283767"><ele>820.9999999999999</ele><time>2026-04-18T12:12:16.999Z</time></trkpt><trkpt lat="44.54414110056315" lon="10.034982355067003"><ele>820.0</ele><time>2026-04-18T12:12:18.999Z</time></trkpt><trkpt lat="44.54420263229184" lon="10.03495172258993"><ele>819.9999999999999</ele><time>2026-04-18T12:12:19.999Z</time></trkpt><trkpt lat="44.54432286077705" lon="10.0349045062768"><ele>820.0</ele><time>2026-04-18T12:12:21.999Z</time></trkpt><trkpt lat="44.54438450337501" lon="10.034869845479282"><ele>820.0</ele><time>2026-04-18T12:12:22.999Z</time></trkpt><trkpt lat="44.54444477938226" lon="10.034841768499962"><ele>820.0</ele><time>2026-04-18T12:12:23.999Z</time></trkpt><trkpt lat="44.544508266287274" lon="10.034809504750184"><ele>819.9999999999999</ele><time>2026-04-18T12:12:24.999Z</time></trkpt><trkpt lat="44.54456920381711" lon="10.034774273658426"><ele>820.0</ele><time>2026-04-18T12:12:25.999Z</time></trkpt><trkpt lat="44.54462775023767" lon="10.034736935212283"><ele>822.1428571428572</ele><time>2026-04-18T12:12:26.999Z</time></trkpt><trkpt lat="44.544683404387065" lon="10.034690124686868"><ele>824.2857142857142</ele><time>2026-04-18T12:12:27.999Z</time></trkpt><trkpt lat="44.54473727608269" lon="10.034639232447926"><ele>826.4285714285714</ele><time>2026-04-18T12:12:28.999Z</time></trkpt><trkpt lat="44.54478640600916" lon="10.034570624428746"><ele>828.5714285714287</ele><time>2026-04-18T12:12:29.999Z</time></trkpt><trkpt lat="44.54483139467328" lon="10.03449947735869"><ele>830.7142857142858</ele><time>2026-04-18T12:12:30.999Z</time></trkpt><trkpt lat="44.544876643657005" lon="10.034430846537507"><ele>832.8571428571429</ele><time>2026-04-18T12:12:31.999Z</time></trkpt><trkpt lat="44.54492092475134" lon="10.03435910797475"><ele>835.0</ele><time>2026-04-18T12:12:32.999Z</time></trkpt><trkpt lat="44.544961977580556" lon="10.034285618811666"><ele>835.0</ele><time>2026-04-18T12:12:33.999Z</time></trkpt><trkpt lat="44.54500503984255" lon="10.034215876702413"><ele>835.0</ele><time>2026-04-18T12:12:34.999Z</time></trkpt><trkpt lat="44.545077183452165" lon="10.034073040567327"><ele>835.0</ele><time>2026-04-18T12:12:36.999Z</time></trkpt><trkpt lat="44.545147928677714" lon="10.033934115169197"><ele>835.0</ele><time>2026-04-18T12:12:38.999Z</time></trkpt><trkpt lat="44.54522184126403" lon="10.033800887968388"><ele>835.0</ele><time>2026-04-18T12:12:40.999Z</time></trkpt><trkpt lat="44.54531270780309" lon="10.033686661317388"><ele>834.5</ele><time>2026-04-18T12:12:42.999Z</time></trkpt><trkpt lat="44.545420438650844" lon="10.03362060447506"><ele>834.0</ele><time>2026-04-18T12:12:44.999Z</time></trkpt><trkpt lat="44.54552677411443" lon="10.033630541183797"><ele>833.5</ele><time>2026-04-18T12:12:46.999Z</time></trkpt><trkpt lat="44.545641805512275" lon="10.033649629114517"><ele>833.0</ele><time>2026-04-18T12:12:48.999Z</time></trkpt><trkpt lat="44.5457535214024" lon="10.033666713172027"><ele>833.0</ele><time>2026-04-18T12:12:50.999Z</time></trkpt><trkpt lat="44.54585968046222" lon="10.03367840211404"><ele>833.0</ele><time>2026-04-18T12:12:52.999Z</time></trkpt><trkpt lat="44.545954086061236" lon="10.03369216290681"><ele>833.0</ele><time>2026-04-18T12:12:54.999Z</time></trkpt><trkpt lat="44.54604056656943" lon="10.033706406730248"><ele>833.0</ele><time>2026-04-18T12:12:56.999Z</time></trkpt><trkpt lat="44.54612879096316" lon="10.033734127023767"><ele>833.0</ele><time>2026-04-18T12:12:58.999Z</time></trkpt><trkpt lat="44.546197824989875" lon="10.033856784812542"><ele>833.4</ele><time>2026-04-18T12:13:00.999Z</time></trkpt><trkpt lat="44.5462492536319" lon="10.034015104221531"><ele>833.8</ele><time>2026-04-18T12:13:02.998Z</time></trkpt><trkpt lat="44.546301055574915" lon="10.03416592624761"><ele>834.2</ele><time>2026-04-18T12:13:04.998Z</time></trkpt><trkpt lat="44.546332738500496" lon="10.034248293862465"><ele>834.6</ele><time>2026-04-18T12:13:05.998Z</time></trkpt><trkpt lat="44.546388081938005" lon="10.03440597346136"><ele>835.0</ele><time>2026-04-18T12:13:07.998Z</time></trkpt><trkpt lat="44.5464181910439" lon="10.034488286554398"><ele>835.4285714285714</ele><time>2026-04-18T12:13:08.998Z</time></trkpt><trkpt lat="44.54644839767696" lon="10.034578033070213"><ele>835.8571428571429</ele><time>2026-04-18T12:13:09.998Z</time></trkpt><trkpt lat="44.54648302785765" lon="10.03466872205043"><ele>836.2857142857142</ele><time>2026-04-18T12:13:10.998Z</time></trkpt><trkpt lat="44.54651821593269" lon="10.034763305352746"><ele>836.7142857142858</ele><time>2026-04-18T12:13:11.998Z</time></trkpt><trkpt lat="44.546553385120106" lon="10.034852730408758"><ele>837.1428571428571</ele><time>2026-04-18T12:13:12.998Z</time></trkpt><trkpt lat="44.54658559551183" lon="10.034936242178036"><ele>837.5714285714286</ele><time>2026-04-18T12:13:13.998Z</time></trkpt><trkpt lat="44.54662395686687" lon="10.035011702489156"><ele>838.0</ele><time>2026-04-18T12:13:14.998Z</time></trkpt><trkpt lat="44.546665130120154" lon="10.035090599230909"><ele>838.2857142857142</ele><time>2026-04-18T12:13:15.998Z</time></trkpt><trkpt lat="44.54671213137501" lon="10.035169118118421"><ele>838.5714285714286</ele><time>2026-04-18T12:13:16.998Z</time></trkpt><trkpt lat="44.546760099617714" lon="10.035246842605417"><ele>838.8571428571429</ele><time>2026-04-18T12:13:17.998Z</time></trkpt><trkpt lat="44.54681259238244" lon="10.035318042088857"><ele>839.1428571428571</ele><time>2026-04-18T12:13:18.998Z</time></trkpt><trkpt lat="44.54686466579329" lon="10.035390133706013"><ele>839.4285714285714</ele><time>2026-04-18T12:13:20Z</time></trkpt><trkpt lat="44.54691546070508" lon="10.03546785942627"><ele>839.7142857142857</ele><time>2026-04-18T12:13:21Z</time></trkpt><trkpt lat="44.546966607950445" lon="10.035543505227677"><ele>840.0</ele><time>2026-04-18T12:13:22Z</time></trkpt><trkpt lat="44.547018135760055" lon="10.035624266468718"><ele>839.1666666666666</ele><time>2026-04-18T12:13:23Z</time></trkpt><trkpt lat="44.54706947344696" lon="10.035697637638773"><ele>838.3333333333333</ele><time>2026-04-18T12:13:24Z</time></trkpt><trkpt lat="44.54712092006935" lon="10.035777811844326"><ele>837.5</ele><time>2026-04-18T12:13:25Z</time></trkpt><trkpt lat="44.54717095073545" lon="10.035864161376312"><ele>836.6666666666666</ele><time>2026-04-18T12:13:26Z</time></trkpt><trkpt lat="44.54721611302743" lon="10.035954356266974"><ele>835.8333333333333</ele><time>2026-04-18T12:13:27Z</time></trkpt><trkpt lat="44.54725356534728" lon="10.03604693991184"><ele>835.0</ele><time>2026-04-18T12:13:28Z</time></trkpt><trkpt lat="44.54729515802912" lon="10.036145042889576"><ele>834.9999999999999</ele><time>2026-04-18T12:13:29Z</time></trkpt><trkpt lat="44.5473281600653" lon="10.03624585560045"><ele>835.0</ele><time>2026-04-18T12:13:30Z</time></trkpt><trkpt lat="44.54736699646555" lon="10.036345289086313"><ele>835.0</ele><time>2026-04-18T12:13:31Z</time></trkpt><trkpt lat="44.54740840404689" lon="10.036440253170232"><ele>835.0</ele><time>2026-04-18T12:13:32Z</time></trkpt><trkpt lat="44.54745557118997" lon="10.036536634841967"><ele>834.9999999999999</ele><time>2026-04-18T12:13:33Z</time></trkpt><trkpt lat="44.54750566167157" lon="10.036631922099241"><ele>835.0</ele><time>2026-04-18T12:13:34Z</time></trkpt><trkpt lat="44.547553180222906" lon="10.0367187034028"><ele>836.1666666666666</ele><time>2026-04-18T12:13:35Z</time></trkpt><trkpt lat="44.547600990041396" lon="10.036806760722715"><ele>837.3333333333333</ele><time>2026-04-18T12:13:36Z</time></trkpt><trkpt lat="44.547649556420986" lon="10.036891349951375"><ele>838.5</ele><time>2026-04-18T12:13:37Z</time></trkpt><trkpt lat="44.54769268499569" lon="10.036969052673664"><ele>839.6666666666667</ele><time>2026-04-18T12:13:38Z</time></trkpt><trkpt lat="44.547742323934784" lon="10.037048447182771"><ele>840.8333333333334</ele><time>2026-04-18T12:13:39Z</time></trkpt><trkpt lat="44.54778671805326" lon="10.03713178550149"><ele>842.0</ele><time>2026-04-18T12:13:40Z</time></trkpt><trkpt lat="44.54784599932651" lon="10.037202105769845"><ele>841.6666666666667</ele><time>2026-04-18T12:13:41Z</time></trkpt><trkpt lat="44.54790710025784" lon="10.037268260742746"><ele>841.3333333333334</ele><time>2026-04-18T12:13:42Z</time></trkpt><trkpt lat="44.547969479723804" lon="10.037335627505367"><ele>841.0</ele><time>2026-04-18T12:13:43Z</time></trkpt><trkpt lat="44.5480326705991" lon="10.037395174843622"><ele>840.6666666666667</ele><time>2026-04-18T12:13:44Z</time></trkpt><trkpt lat="44.548103497471" lon="10.03743597544275"><ele>840.3333333333334</ele><time>2026-04-18T12:13:45Z</time></trkpt><trkpt lat="44.54817342116048" lon="10.037471648701493"><ele>840.0</ele><time>2026-04-18T12:13:46Z</time></trkpt><trkpt lat="44.54824255947284" lon="10.037508127253544"><ele>840.0</ele><time>2026-04-18T12:13:47Z</time></trkpt><trkpt lat="44.548305723843924" lon="10.037533456729705"><ele>840.0</ele><time>2026-04-18T12:13:48Z</time></trkpt><trkpt lat="44.54837322861852" lon="10.037547017088146"><ele>840.0</ele><time>2026-04-18T12:13:49Z</time></trkpt><trkpt lat="44.5484404619906" lon="10.03755123204954"><ele>840.0</ele><time>2026-04-18T12:13:50Z</time></trkpt><trkpt lat="44.54850557839581" lon="10.037558288771299"><ele>840.0</ele><time>2026-04-18T12:13:51Z</time></trkpt><trkpt lat="44.548568836162275" lon="10.037562077733758"><ele>840.0</ele><time>2026-04-18T12:13:52Z</time></trkpt><trkpt lat="44.54868814289621" lon="10.037555927999136"><ele>840.0</ele><time>2026-04-18T12:13:54Z</time></trkpt><trkpt lat="44.54879962150293" lon="10.037544620477004"><ele>839.6</ele><time>2026-04-18T12:13:56Z</time></trkpt><trkpt lat="44.54890559428134" lon="10.037536833295361"><ele>839.2</ele><time>2026-04-18T12:13:58Z</time></trkpt><trkpt lat="44.54901272797937" lon="10.037530977594514"><ele>838.8</ele><time>2026-04-18T12:14:00Z</time></trkpt><trkpt lat="44.54912596482843" lon="10.037530321192481"><ele>838.4</ele><time>2026-04-18T12:14:02Z</time></trkpt><trkpt lat="44.54924552124274" lon="10.037533026341213"><ele>838.0</ele><time>2026-04-18T12:14:04Z</time></trkpt><trkpt lat="44.54937125105953" lon="10.037542262625474"><ele>838.0</ele><time>2026-04-18T12:14:06Z</time></trkpt><trkpt lat="44.54950600291853" lon="10.03754695177502"><ele>838.0</ele><time>2026-04-18T12:14:08Z</time></trkpt><trkpt lat="44.5496303570353" lon="10.037571825358407"><ele>838.0</ele><time>2026-04-18T12:14:10Z</time></trkpt><trkpt lat="44.54969254811497" lon="10.037591302825724"><ele>838.0</ele><time>2026-04-18T12:14:10.999Z</time></trkpt><trkpt lat="44.54976213503792" lon="10.037609290293954"><ele>838.0</ele><time>2026-04-18T12:14:11.999Z</time></trkpt><trkpt lat="44.54987466246338" lon="10.037640086143059"><ele>837.8333333333333</ele><time>2026-04-18T12:14:13.999Z</time></trkpt><trkpt lat="44.54994006263885" lon="10.0376616863995"><ele>837.6666666666666</ele><time>2026-04-18T12:14:14.999Z</time></trkpt><trkpt lat="44.55000339159669" lon="10.037682221878681"><ele>837.5</ele><time>2026-04-18T12:14:15.999Z</time></trkpt><trkpt lat="44.55011366375027" lon="10.037711392062219"><ele>837.3333333333333</ele><time>2026-04-18T12:14:17.999Z</time></trkpt><trkpt lat="44.5501786698145" lon="10.03773624081234"><ele>837.1666666666666</ele><time>2026-04-18T12:14:18.999Z</time></trkpt><trkpt lat="44.55028902711662" lon="10.037789591803605"><ele>837.0</ele><time>2026-04-18T12:14:20.999Z</time></trkpt><trkpt lat="44.55040908903348" lon="10.03783832611204"><ele>836.0</ele><time>2026-04-18T12:14:22.999Z</time></trkpt><trkpt lat="44.55047187771431" lon="10.037864193345333"><ele>835.0</ele><time>2026-04-18T12:14:23.999Z</time></trkpt><trkpt lat="44.55053317565823" lon="10.03789923059983"><ele>834.0</ele><time>2026-04-18T12:14:24.999Z</time></trkpt><trkpt lat="44.55065306914922" lon="10.03794727492058"><ele>833.0</ele><time>2026-04-18T12:14:26.999Z</time></trkpt><trkpt lat="44.55076622068346" lon="10.038010830491817"><ele>832.0</ele><time>2026-04-18T12:14:28.999Z</time></trkpt><trkpt lat="44.55087081742747" lon="10.038095685611868"><ele>832.0</ele><time>2026-04-18T12:14:30.999Z</time></trkpt><trkpt lat="44.550925105900205" lon="10.038156474278006"><ele>832.0</ele><time>2026-04-18T12:14:31.999Z</time></trkpt><trkpt lat="44.5509800867713" lon="10.038221534882501"><ele>832.0</ele><time>2026-04-18T12:14:32.999Z</time></trkpt><trkpt lat="44.55104059308454" lon="10.03828606636897"><ele>832.0</ele><time>2026-04-18T12:14:33.999Z</time></trkpt><trkpt lat="44.551102620812244" lon="10.038352964254695"><ele>832.0</ele><time>2026-04-18T12:14:34.999Z</time></trkpt><trkpt lat="44.55116662709034" lon="10.038409566993002"><ele>832.0</ele><time>2026-04-18T12:14:35.999Z</time></trkpt><trkpt lat="44.55123245428477" lon="10.0384578457955"><ele>832.0</ele><time>2026-04-18T12:14:36.999Z</time></trkpt><trkpt lat="44.551300479435454" lon="10.038484290434315"><ele>831.6666666666666</ele><time>2026-04-18T12:14:37.999Z</time></trkpt><trkpt lat="44.55137429206533" lon="10.038486768784301"><ele>831.3333333333333</ele><time>2026-04-18T12:14:38.999Z</time></trkpt><trkpt lat="44.55144618392883" lon="10.038472289420115"><ele>831.0</ele><time>2026-04-18T12:14:39.999Z</time></trkpt><trkpt lat="44.5515162332616" lon="10.03843043616248"><ele>830.6666666666667</ele><time>2026-04-18T12:14:40.999Z</time></trkpt><trkpt lat="44.55158317672329" lon="10.03836452352857"><ele>830.3333333333334</ele><time>2026-04-18T12:14:41.999Z</time></trkpt><trkpt lat="44.551651825732556" lon="10.038300773917785"><ele>830.0</ele><time>2026-04-18T12:14:42.999Z</time></trkpt><trkpt lat="44.55172161067001" lon="10.038230002180972"><ele>830.0000000000001</ele><time>2026-04-18T12:14:43.999Z</time></trkpt><trkpt lat="44.55178631805836" lon="10.038162358551842"><ele>830.0</ele><time>2026-04-18T12:14:44.999Z</time></trkpt><trkpt lat="44.551849260130595" lon="10.038088707245821"><ele>830.0</ele><time>2026-04-18T12:14:45.999Z</time></trkpt><trkpt lat="44.55190991885005" lon="10.03800625411645"><ele>830.0</ele><time>2026-04-18T12:14:46.999Z</time></trkpt><trkpt lat="44.551965196451164" lon="10.03792115156034"><ele>830.0000000000001</ele><time>2026-04-18T12:14:47.999Z</time></trkpt><trkpt lat="44.552015011551504" lon="10.037824640130246"><ele>830.0</ele><time>2026-04-18T12:14:48.999Z</time></trkpt><trkpt lat="44.55206988636428" lon="10.037738596102445"><ele>829.3333333333334</ele><time>2026-04-18T12:14:49.999Z</time></trkpt><trkpt lat="44.55211569670157" lon="10.037637572252269"><ele>828.6666666666667</ele><time>2026-04-18T12:14:50.999Z</time></trkpt><trkpt lat="44.552151740286284" lon="10.037535094433489"><ele>828.0</ele><time>2026-04-18T12:14:51.999Z</time></trkpt><trkpt lat="44.55219277761507" lon="10.03743647748002"><ele>827.3333333333333</ele><time>2026-04-18T12:14:52.999Z</time></trkpt><trkpt lat="44.552237741454064" lon="10.037343435548784"><ele>826.6666666666666</ele><time>2026-04-18T12:14:53.999Z</time></trkpt><trkpt lat="44.55228254778733" lon="10.037256665504803"><ele>826.0</ele><time>2026-04-18T12:14:54.999Z</time></trkpt><trkpt lat="44.55233417034809" lon="10.037167089534128"><ele>825.9999999999999</ele><time>2026-04-18T12:14:55.999Z</time></trkpt><trkpt lat="44.55239406490928" lon="10.037090733619284"><ele>826.0</ele><time>2026-04-18T12:14:56.999Z</time></trkpt><trkpt lat="44.55246085066601" lon="10.03702260129564"><ele>826.0</ele><time>2026-04-18T12:14:57.999Z</time></trkpt><trkpt lat="44.55253197098321" lon="10.036971946843435"><ele>826.0</ele><time>2026-04-18T12:14:58.999Z</time></trkpt><trkpt lat="44.55261207564092" lon="10.03694890550317"><ele>825.9999999999999</ele><time>2026-04-18T12:14:59.999Z</time></trkpt><trkpt lat="44.55269188724874" lon="10.036938066368615"><ele>826.0</ele><time>2026-04-18T12:15:00.999Z</time></trkpt><trkpt lat="44.5527649739486" lon="10.036940010155318"><ele>826.0</ele><time>2026-04-18T12:15:01.999Z</time></trkpt><trkpt lat="44.55283829634513" lon="10.03695530325045"><ele>826.0</ele><time>2026-04-18T12:15:02.999Z</time></trkpt><trkpt lat="44.55290799243294" lon="10.036974866441417"><ele>826.0</ele><time>2026-04-18T12:15:03.999Z</time></trkpt><trkpt lat="44.55297732114112" lon="10.03699621347942"><ele>826.0</ele><time>2026-04-18T12:15:04.998Z</time></trkpt><trkpt lat="44.553047236868075" lon="10.037011434127143"><ele>826.0</ele><time>2026-04-18T12:15:05.998Z</time></trkpt><trkpt lat="44.55312002043575" lon="10.037019543290754"><ele>826.0</ele><time>2026-04-18T12:15:06.998Z</time></trkpt><trkpt lat="44.553197080680675" lon="10.03698830713283"><ele>826.0</ele><time>2026-04-18T12:15:07.998Z</time></trkpt><trkpt lat="44.55325461479399" lon="10.036930033985838"><ele>825.6666666666666</ele><time>2026-04-18T12:15:08.998Z</time></trkpt><trkpt lat="44.55331030767917" lon="10.036854188578738"><ele>825.3333333333333</ele><time>2026-04-18T12:15:09.998Z</time></trkpt><trkpt lat="44.55334961857087" lon="10.03676468474738"><ele>825.0</ele><time>2026-04-18T12:15:10.998Z</time></trkpt><trkpt lat="44.553365772114645" lon="10.036658622456073"><ele>824.6666666666667</ele><time>2026-04-18T12:15:11.998Z</time></trkpt><trkpt lat="44.55339022881697" lon="10.036551786997013"><ele>824.3333333333334</ele><time>2026-04-18T12:15:12.998Z</time></trkpt><trkpt lat="44.553420774777834" lon="10.036443462213347"><ele>824.0</ele><time>2026-04-18T12:15:13.998Z</time></trkpt><trkpt lat="44.55346502113502" lon="10.036341817989255"><ele>824.0</ele><time>2026-04-18T12:15:14.998Z</time></trkpt><trkpt lat="44.553520252150626" lon="10.036248602780605"><ele>824.0</ele><time>2026-04-18T12:15:15.998Z</time></trkpt><trkpt lat="44.55358258791123" lon="10.036156104452436"><ele>824.0</ele><time>2026-04-18T12:15:16.998Z</time></trkpt><trkpt lat="44.553644189582286" lon="10.036060654331388"><ele>824.0</ele><time>2026-04-18T12:15:17.998Z</time></trkpt><trkpt lat="44.553713650030865" lon="10.03596950977076"><ele>824.0</ele><time>2026-04-18T12:15:18.998Z</time></trkpt><trkpt lat="44.5537843334283" lon="10.035863698660629"><ele>821.2</ele><time>2026-04-18T12:15:19.998Z</time></trkpt><trkpt lat="44.55385795582523" lon="10.035760930518975"><ele>818.4000000000001</ele><time>2026-04-18T12:15:20.998Z</time></trkpt><trkpt lat="44.5539240521283" lon="10.035658534966402"><ele>815.6</ele><time>2026-04-18T12:15:21.998Z</time></trkpt><trkpt lat="44.55400202194908" lon="10.035577045988145"><ele>812.8</ele><time>2026-04-18T12:15:22.998Z</time></trkpt><trkpt lat="44.55409815961955" lon="10.035538273442457"><ele>810.0</ele><time>2026-04-18T12:15:23.998Z</time></trkpt><trkpt lat="44.55420688963342" lon="10.035543706800041"><ele>810.0</ele><time>2026-04-18T12:15:24.998Z</time></trkpt><trkpt lat="44.5543118376258" lon="10.035580117236957"><ele>810.0</ele><time>2026-04-18T12:15:26Z</time></trkpt><trkpt lat="44.5544162224166" lon="10.035629814347988"><ele>810.0</ele><time>2026-04-18T12:15:27Z</time></trkpt><trkpt lat="44.55452111055434" lon="10.035680034114685"><ele>810.0</ele><time>2026-04-18T12:15:28Z</time></trkpt><trkpt lat="44.55462860235527" lon="10.035730899198565"><ele>810.0</ele><time>2026-04-18T12:15:29Z</time></trkpt><trkpt lat="44.55473925958286" lon="10.03577384384036"><ele>812.0</ele><time>2026-04-18T12:15:30Z</time></trkpt><trkpt lat="44.55483962624195" lon="10.035851313779867"><ele>814.0</ele><time>2026-04-18T12:15:31Z</time></trkpt><trkpt lat="44.554929754149875" lon="10.035934082836086"><ele>816.0</ele><time>2026-04-18T12:15:32Z</time></trkpt><trkpt lat="44.555001806919506" lon="10.036048397104121"><ele>818.0</ele><time>2026-04-18T12:15:33Z</time></trkpt><trkpt lat="44.55506415064781" lon="10.036194474858341"><ele>818.0</ele><time>2026-04-18T12:15:34Z</time></trkpt><trkpt lat="44.555134735614885" lon="10.036335873675855"><ele>818.0</ele><time>2026-04-18T12:15:35Z</time></trkpt><trkpt lat="44.555223227187945" lon="10.036463561821035"><ele>818.0</ele><time>2026-04-18T12:15:36Z</time></trkpt><trkpt lat="44.55532104488609" lon="10.036574118119518"><ele>818.0</ele><time>2026-04-18T12:15:37Z</time></trkpt><trkpt lat="44.5554328124526" lon="10.03663636159566"><ele>818.4</ele><time>2026-04-18T12:15:38Z</time></trkpt><trkpt lat="44.55553566153955" lon="10.036698807481486"><ele>818.8</ele><time>2026-04-18T12:15:39Z</time></trkpt><trkpt lat="44.55563831214655" lon="10.036732968919699"><ele>819.2</ele><time>2026-04-18T12:15:40Z</time></trkpt><trkpt lat="44.5557287045252" lon="10.036767287877067"><ele>819.6</ele><time>2026-04-18T12:15:41Z</time></trkpt><trkpt lat="44.55581257061038" lon="10.036784428197755"><ele>820.0</ele><time>2026-04-18T12:15:42Z</time></trkpt><trkpt lat="44.55589764038827" lon="10.03679356834136"><ele>819.9999999999999</ele><time>2026-04-18T12:15:43Z</time></trkpt><trkpt lat="44.555974791263914" lon="10.036777440201018"><ele>820.0</ele><time>2026-04-18T12:15:44Z</time></trkpt><trkpt lat="44.556063329696315" lon="10.036753324881564"><ele>820.0</ele><time>2026-04-18T12:15:45Z</time></trkpt><trkpt lat="44.55614227137188" lon="10.036723847435178"><ele>820.0</ele><time>2026-04-18T12:15:46Z</time></trkpt><trkpt lat="44.55622345385605" lon="10.036694641734323"><ele>819.9999999999999</ele><time>2026-04-18T12:15:47Z</time></trkpt><trkpt lat="44.55630333850229" lon="10.036657105438783"><ele>820.0</ele><time>2026-04-18T12:15:48Z</time></trkpt><trkpt lat="44.556380980481826" lon="10.036618261154794"><ele>818.9999999999999</ele><time>2026-04-18T12:15:49Z</time></trkpt><trkpt lat="44.55646338809943" lon="10.036577280713876"><ele>818.0</ele><time>2026-04-18T12:15:50Z</time></trkpt><trkpt lat="44.556543927560135" lon="10.036548910971625"><ele>817.0</ele><time>2026-04-18T12:15:51Z</time></trkpt><trkpt lat="44.556620060849454" lon="10.036512891598223"><ele>816.0</ele><time>2026-04-18T12:15:52Z</time></trkpt><trkpt lat="44.55669126336036" lon="10.036481099273198"><ele>814.9999999999999</ele><time>2026-04-18T12:15:53Z</time></trkpt><trkpt lat="44.55676157135212" lon="10.036459000591336"><ele>814.0</ele><time>2026-04-18T12:15:54Z</time></trkpt><trkpt lat="44.5568184714312" lon="10.036397714129945"><ele>814.0000000000001</ele><time>2026-04-18T12:15:55Z</time></trkpt><trkpt lat="44.55686949088643" lon="10.036322339787763"><ele>814.0</ele><time>2026-04-18T12:15:56Z</time></trkpt><trkpt lat="44.55691964989174" lon="10.036247296214167"><ele>814.0</ele><time>2026-04-18T12:15:57Z</time></trkpt><trkpt lat="44.55696025719988" lon="10.036163027886019"><ele>814.0</ele><time>2026-04-18T12:15:58Z</time></trkpt><trkpt lat="44.55699202135087" lon="10.036070491031074"><ele>814.0</ele><time>2026-04-18T12:15:59Z</time></trkpt><trkpt lat="44.557029650486726" lon="10.035979776987883"><ele>814.0000000000001</ele><time>2026-04-18T12:16:00Z</time></trkpt><trkpt lat="44.55706626739384" lon="10.035883199923957"><ele>814.0</ele><time>2026-04-18T12:16:01Z</time></trkpt><trkpt lat="44.557099393822085" lon="10.035784074097046"><ele>814.5714285714287</ele><time>2026-04-18T12:16:02Z</time></trkpt><trkpt lat="44.55712225873869" lon="10.035687827541052"><ele>815.1428571428571</ele><time>2026-04-18T12:16:03Z</time></trkpt><trkpt lat="44.55714347330034" lon="10.03559152980102"><ele>815.7142857142858</ele><time>2026-04-18T12:16:04Z</time></trkpt><trkpt lat="44.55715912866005" lon="10.035495724024052"><ele>816.2857142857143</ele><time>2026-04-18T12:16:05Z</time></trkpt><trkpt lat="44.55717998638214" lon="10.035399206771896"><ele>816.8571428571429</ele><time>2026-04-18T12:16:06Z</time></trkpt><trkpt lat="44.557213358792005" lon="10.035305832262793"><ele>817.4285714285714</ele><time>2026-04-18T12:16:07Z</time></trkpt><trkpt lat="44.55725902195667" lon="10.03522176912457"><ele>818.0</ele><time>2026-04-18T12:16:08Z</time></trkpt><trkpt lat="44.557325985515824" lon="10.035161524731299"><ele>818.0</ele><time>2026-04-18T12:16:09Z</time></trkpt><trkpt lat="44.5573997810162" lon="10.03512152348319"><ele>818.0</ele><time>2026-04-18T12:16:10Z</time></trkpt><trkpt lat="44.55746314357553" lon="10.035111833246082"><ele>818.0</ele><time>2026-04-18T12:16:11Z</time></trkpt><trkpt lat="44.55776058704703" lon="10.035451253080844"><ele>818.0000000000001</ele><time>2026-04-18T12:16:16.999Z</time></trkpt><trkpt lat="44.55780904259765" lon="10.035542151512606"><ele>818.0</ele><time>2026-04-18T12:16:17.999Z</time></trkpt><trkpt lat="44.557856018198066" lon="10.035631243189473"><ele>818.0</ele><time>2026-04-18T12:16:18.999Z</time></trkpt><trkpt lat="44.55790488679412" lon="10.03571964926766"><ele>818.0</ele><time>2026-04-18T12:16:19.999Z</time></trkpt><trkpt lat="44.557958170882515" lon="10.0358072817953"><ele>818.0000000000001</ele><time>2026-04-18T12:16:20.999Z</time></trkpt><trkpt lat="44.558013026374375" lon="10.035888521476243"><ele>818.0</ele><time>2026-04-18T12:16:21.999Z</time></trkpt><trkpt lat="44.5580855674839" lon="10.035969258988178"><ele>818.5000000000001</ele><time>2026-04-18T12:16:22.999Z</time></trkpt><trkpt lat="44.55815815684251" lon="10.036025583561889"><ele>819.0</ele><time>2026-04-18T12:16:23.999Z</time></trkpt><trkpt lat="44.558229691357305" lon="10.036073928249541"><ele>819.5</ele><time>2026-04-18T12:16:24.999Z</time></trkpt><trkpt lat="44.558297056998256" lon="10.03611722977161"><ele>820.0</ele><time>2026-04-18T12:16:25.999Z</time></trkpt><trkpt lat="44.55836472701932" lon="10.03616072694969"><ele>820.5000000000001</ele><time>2026-04-18T12:16:26.999Z</time></trkpt><trkpt lat="44.55842891819709" lon="10.036204633719187"><ele>821.0</ele><time>2026-04-18T12:16:27.999Z</time></trkpt><trkpt lat="44.55849284316494" lon="10.03625322783554"><ele>821.0000000000001</ele><time>2026-04-18T12:16:28.999Z</time></trkpt><trkpt lat="44.55855756630693" lon="10.03630954553912"><ele>821.0</ele><time>2026-04-18T12:16:29.999Z</time></trkpt><trkpt lat="44.55861897970942" lon="10.0363742004323"><ele>821.0</ele><time>2026-04-18T12:16:30.999Z</time></trkpt><trkpt lat="44.55867377987843" lon="10.03645349357758"><ele>821.0</ele><time>2026-04-18T12:16:31.999Z</time></trkpt><trkpt lat="44.55872426584635" lon="10.036536516151866"><ele>821.0000000000001</ele><time>2026-04-18T12:16:32.999Z</time></trkpt><trkpt lat="44.558775427425715" lon="10.036620087860468"><ele>821.0</ele><time>2026-04-18T12:16:33.999Z</time></trkpt><trkpt lat="44.558833226866156" lon="10.036705009950639"><ele>820.8</ele><time>2026-04-18T12:16:34.999Z</time></trkpt><trkpt lat="44.55888814325283" lon="10.03678084833424"><ele>820.5999999999999</ele><time>2026-04-18T12:16:35.999Z</time></trkpt><trkpt lat="44.558955594584084" lon="10.036861190827507"><ele>820.4</ele><time>2026-04-18T12:16:36.999Z</time></trkpt><trkpt lat="44.55905820358339" lon="10.036950319658697"><ele>820.2</ele><time>2026-04-18T12:16:37.999Z</time></trkpt><trkpt lat="44.55916173068724" lon="10.036972280994236"><ele>820.0</ele><time>2026-04-18T12:16:38.999Z</time></trkpt><trkpt lat="44.5592777962468" lon="10.036961322962462"><ele>820.0</ele><time>2026-04-18T12:16:39.999Z</time></trkpt><trkpt lat="44.559368117323444" lon="10.036939216454472"><ele>820.0</ele><time>2026-04-18T12:16:40.999Z</time></trkpt><trkpt lat="44.55943087218002" lon="10.036928542830069"><ele>820.0</ele><time>2026-04-18T12:16:41.999Z</time></trkpt><trkpt lat="44.559513496165785" lon="10.036926810506653"><ele>820.0</ele><time>2026-04-18T12:16:43.999Z</time></trkpt><trkpt lat="44.55958180837811" lon="10.036944425589299"><ele>820.0</ele><time>2026-04-18T12:16:44.999Z</time></trkpt><trkpt lat="44.55963052821406" lon="10.037001805595024"><ele>820.0</ele><time>2026-04-18T12:16:45.999Z</time></trkpt><trkpt lat="44.55968780933337" lon="10.037070956211656"><ele>820.0</ele><time>2026-04-18T12:16:46.999Z</time></trkpt><trkpt lat="44.559739669688895" lon="10.037151781753323"><ele>820.4</ele><time>2026-04-18T12:16:47.999Z</time></trkpt><trkpt lat="44.55979618302777" lon="10.037248255485954"><ele>820.8</ele><time>2026-04-18T12:16:48.999Z</time></trkpt><trkpt lat="44.55987755100209" lon="10.037397511045059"><ele>821.2</ele><time>2026-04-18T12:16:50.999Z</time></trkpt><trkpt lat="44.559924341472254" lon="10.0374888178583"><ele>821.6</ele><time>2026-04-18T12:16:51.999Z</time></trkpt><trkpt lat="44.559966982025315" lon="10.037573546200404"><ele>822.0</ele><time>2026-04-18T12:16:52.999Z</time></trkpt><trkpt lat="44.56001097723093" lon="10.037660502110946"><ele>822.0</ele><time>2026-04-18T12:16:53.999Z</time></trkpt><trkpt lat="44.56005760486744" lon="10.037750644168483"><ele>822.0</ele><time>2026-04-18T12:16:54.999Z</time></trkpt><trkpt lat="44.56011186945176" lon="10.037842462706688"><ele>822.0</ele><time>2026-04-18T12:16:55.999Z</time></trkpt><trkpt lat="44.56017715153511" lon="10.03792099434274"><ele>822.0</ele><time>2026-04-18T12:16:56.999Z</time></trkpt><trkpt lat="44.56025208839433" lon="10.03796447550651"><ele>822.0</ele><time>2026-04-18T12:16:57.999Z</time></trkpt><trkpt lat="44.56032209804042" lon="10.038025570944294"><ele>822.0</ele><time>2026-04-18T12:16:58.999Z</time></trkpt><trkpt lat="44.56039447951724" lon="10.038068588198694"><ele>821.8333333333334</ele><time>2026-04-18T12:16:59.999Z</time></trkpt><trkpt lat="44.560465420761716" lon="10.038115789242196"><ele>821.6666666666667</ele><time>2026-04-18T12:17:00.999Z</time></trkpt><trkpt lat="44.560525454642814" lon="10.038182864576074"><ele>821.5</ele><time>2026-04-18T12:17:01.999Z</time></trkpt><trkpt lat="44.560584562824246" lon="10.038241084538392"><ele>821.3333333333334</ele><time>2026-04-18T12:17:02.999Z</time></trkpt><trkpt lat="44.560640645493585" lon="10.03831339586189"><ele>821.1666666666667</ele><time>2026-04-18T12:17:03.999Z</time></trkpt><trkpt lat="44.56069474733916" lon="10.038399897245172"><ele>821.0</ele><time>2026-04-18T12:17:04.999Z</time></trkpt><trkpt lat="44.56074342391448" lon="10.038489522224216"><ele>821.0000000000001</ele><time>2026-04-18T12:17:05.999Z</time></trkpt><trkpt lat="44.56079172871211" lon="10.038587538750088"><ele>821.0</ele><time>2026-04-18T12:17:06.999Z</time></trkpt><trkpt lat="44.56083852722683" lon="10.038690855628973"><ele>821.0</ele><time>2026-04-18T12:17:07.999Z</time></trkpt><trkpt lat="44.56088495221544" lon="10.038792775145904"><ele>821.0</ele><time>2026-04-18T12:17:08.999Z</time></trkpt><trkpt lat="44.56093037387046" lon="10.03889242133242"><ele>821.0000000000001</ele><time>2026-04-18T12:17:09.999Z</time></trkpt><trkpt lat="44.56097432497018" lon="10.03898866538257"><ele>821.0</ele><time>2026-04-18T12:17:10.998Z</time></trkpt><trkpt lat="44.561021923632076" lon="10.039087290262778"><ele>822.0000000000001</ele><time>2026-04-18T12:17:11.998Z</time></trkpt><trkpt lat="44.561069417690305" lon="10.039184525193795"><ele>823.0</ele><time>2026-04-18T12:17:12.998Z</time></trkpt><trkpt lat="44.56111817816574" lon="10.039279409011568"><ele>824.0</ele><time>2026-04-18T12:17:13.998Z</time></trkpt><trkpt lat="44.56116839128518" lon="10.039375001304503"><ele>825.0</ele><time>2026-04-18T12:17:14.998Z</time></trkpt><trkpt lat="44.56121897756733" lon="10.039476206149764"><ele>826.0000000000001</ele><time>2026-04-18T12:17:15.998Z</time></trkpt><trkpt lat="44.561266107904295" lon="10.039574211245375"><ele>827.0</ele><time>2026-04-18T12:17:16.998Z</time></trkpt><trkpt lat="44.561290745728535" lon="10.039674831419282"><ele>827.8</ele><time>2026-04-18T12:17:17.998Z</time></trkpt><trkpt lat="44.56130293842303" lon="10.039776675619818"><ele>828.6</ele><time>2026-04-18T12:17:18.998Z</time></trkpt><trkpt lat="44.56125794245541" lon="10.039959137093037"><ele>829.4</ele><time>2026-04-18T12:17:20.998Z</time></trkpt><trkpt lat="44.561224492423456" lon="10.040074546007325"><ele>830.1999999999999</ele><time>2026-04-18T12:17:21.998Z</time></trkpt><trkpt lat="44.56119093907249" lon="10.04019075170818"><ele>831.0</ele><time>2026-04-18T12:17:22.998Z</time></trkpt><trkpt lat="44.56116047707072" lon="10.040309518018342"><ele>831.0</ele><time>2026-04-18T12:17:23.998Z</time></trkpt><trkpt lat="44.56113295935776" lon="10.040430584240761"><ele>831.0</ele><time>2026-04-18T12:17:24.998Z</time></trkpt><trkpt lat="44.56111492732441" lon="10.040559908548664"><ele>831.0</ele><time>2026-04-18T12:17:25.998Z</time></trkpt><trkpt lat="44.561111077100456" lon="10.040697035638917"><ele>831.0</ele><time>2026-04-18T12:17:26.998Z</time></trkpt><trkpt lat="44.5611605522904" lon="10.040843071955496"><ele>831.0</ele><time>2026-04-18T12:17:27.998Z</time></trkpt><trkpt lat="44.5612150889787" lon="10.040963860695816"><ele>826.1999999999999</ele><time>2026-04-18T12:17:28.998Z</time></trkpt><trkpt lat="44.56126623939273" lon="10.04107986689401"><ele>821.4</ele><time>2026-04-18T12:17:29.998Z</time></trkpt><trkpt lat="44.5613252313544" lon="10.04119380070674"><ele>816.6</ele><time>2026-04-18T12:17:31Z</time></trkpt><trkpt lat="44.56139186622747" lon="10.041304654658951"><ele>811.8</ele><time>2026-04-18T12:17:32Z</time></trkpt><trkpt lat="44.5614515083434" lon="10.0414081151062"><ele>807.0</ele><time>2026-04-18T12:17:33Z</time></trkpt><trkpt lat="44.561533617618124" lon="10.041500381585472"><ele>807.0</ele><time>2026-04-18T12:17:34Z</time></trkpt><trkpt lat="44.56162824865951" lon="10.041563628426164"><ele>807.0</ele><time>2026-04-18T12:17:35Z</time></trkpt><trkpt lat="44.56172083546771" lon="10.041634825669869"><ele>807.0</ele><time>2026-04-18T12:17:36Z</time></trkpt><trkpt lat="44.561802524538905" lon="10.041704969023165"><ele>807.0</ele><time>2026-04-18T12:17:37Z</time></trkpt><trkpt lat="44.56187236887233" lon="10.041788739823936"><ele>807.0</ele><time>2026-04-18T12:17:38Z</time></trkpt><trkpt lat="44.561922013750404" lon="10.041871124947285"><ele>808.0</ele><time>2026-04-18T12:17:39Z</time></trkpt><trkpt lat="44.561909446146885" lon="10.04198336361639"><ele>809.0</ele><time>2026-04-18T12:17:40Z</time></trkpt><trkpt lat="44.56188266653832" lon="10.042121532145403"><ele>810.0</ele><time>2026-04-18T12:17:41Z</time></trkpt><trkpt lat="44.561848976430845" lon="10.042267920937736"><ele>811.0</ele><time>2026-04-18T12:17:42Z</time></trkpt><trkpt lat="44.56182278939652" lon="10.042398893090027"><ele>812.0</ele><time>2026-04-18T12:17:43Z</time></trkpt><trkpt lat="44.56179510030921" lon="10.042536506733898"><ele>812.0</ele><time>2026-04-18T12:17:44Z</time></trkpt><trkpt lat="44.56176531997739" lon="10.04267759376114"><ele>812.0</ele><time>2026-04-18T12:17:45Z</time></trkpt><trkpt lat="44.561735607102314" lon="10.04281836121078"><ele>812.0</ele><time>2026-04-18T12:17:46Z</time></trkpt><trkpt lat="44.56170488268505" lon="10.042963920906665"><ele>812.0</ele><time>2026-04-18T12:17:47Z</time></trkpt><trkpt lat="44.56167462584552" lon="10.043107265512765"><ele>812.0</ele><time>2026-04-18T12:17:48Z</time></trkpt><trkpt lat="44.5616438881138" lon="10.043252888313134"><ele>810.0</ele><time>2026-04-18T12:17:49Z</time></trkpt><trkpt lat="44.561612592599694" lon="10.04340115367369"><ele>808.0</ele><time>2026-04-18T12:17:50Z</time></trkpt><trkpt lat="44.561581135609" lon="10.043550184020877"><ele>806.0</ele><time>2026-04-18T12:17:51Z</time></trkpt><trkpt lat="44.56156077419692" lon="10.043707510645833"><ele>804.0</ele><time>2026-04-18T12:17:52Z</time></trkpt><trkpt lat="44.561529824821235" lon="10.043862683570246"><ele>804.0</ele><time>2026-04-18T12:17:53Z</time></trkpt><trkpt lat="44.56149707264267" lon="10.044012420745723"><ele>804.0</ele><time>2026-04-18T12:17:54Z</time></trkpt><trkpt lat="44.56146171509416" lon="10.04416186166465"><ele>804.0</ele><time>2026-04-18T12:17:55Z</time></trkpt><trkpt lat="44.56143323365627" lon="10.044313069293953"><ele>804.0</ele><time>2026-04-18T12:17:56Z</time></trkpt><trkpt lat="44.56139835756122" lon="10.044467731708362"><ele>802.75</ele><time>2026-04-18T12:17:57Z</time></trkpt><trkpt lat="44.56135705933162" lon="10.04462211102881"><ele>801.5</ele><time>2026-04-18T12:17:58Z</time></trkpt><trkpt lat="44.56132385280994" lon="10.044780826757243"><ele>800.25</ele><time>2026-04-18T12:17:59Z</time></trkpt><trkpt lat="44.56128592382938" lon="10.044934173686087"><ele>799.0</ele><time>2026-04-18T12:18:00Z</time></trkpt><trkpt lat="44.56127949460709" lon="10.04510003185319"><ele>797.75</ele><time>2026-04-18T12:18:01Z</time></trkpt><trkpt lat="44.56125990923575" lon="10.045270085789124"><ele>796.5</ele><time>2026-04-18T12:18:02Z</time></trkpt><trkpt lat="44.561256764591896" lon="10.045440165628003"><ele>795.25</ele><time>2026-04-18T12:18:03Z</time></trkpt><trkpt lat="44.56127102440941" lon="10.045613682957963"><ele>794.0</ele><time>2026-04-18T12:18:04Z</time></trkpt><trkpt lat="44.56130054004084" lon="10.045779639837022"><ele>793.5</ele><time>2026-04-18T12:18:05Z</time></trkpt><trkpt lat="44.56133205192487" lon="10.045946645552588"><ele>793.0</ele><time>2026-04-18T12:18:06Z</time></trkpt><trkpt lat="44.5613732295107" lon="10.04610874235049"><ele>792.5</ele><time>2026-04-18T12:18:07Z</time></trkpt><trkpt lat="44.561411428204565" lon="10.046272480753546"><ele>792.0</ele><time>2026-04-18T12:18:08Z</time></trkpt><trkpt lat="44.56144967527972" lon="10.046435932183805"><ele>792.0</ele><time>2026-04-18T12:18:09Z</time></trkpt><trkpt lat="44.56149859563674" lon="10.046595693077595"><ele>792.0</ele><time>2026-04-18T12:18:10Z</time></trkpt><trkpt lat="44.561569547214845" lon="10.046741699420934"><ele>792.0</ele><time>2026-04-18T12:18:11Z</time></trkpt><trkpt lat="44.56163525970779" lon="10.0468897017445"><ele>792.0</ele><time>2026-04-18T12:18:12Z</time></trkpt><trkpt lat="44.56172437432771" lon="10.04700737111505"><ele>792.75</ele><time>2026-04-18T12:18:13Z</time></trkpt><trkpt lat="44.5618047246983" lon="10.047129272451102"><ele>793.5</ele><time>2026-04-18T12:18:14Z</time></trkpt><trkpt lat="44.56188160333397" lon="10.047261357927063"><ele>794.25</ele><time>2026-04-18T12:18:15Z</time></trkpt><trkpt lat="44.56192421799845" lon="10.047416138340315"><ele>795.0</ele><time>2026-04-18T12:18:16Z</time></trkpt><trkpt lat="44.56196380849118" lon="10.047571169085119"><ele>797.0</ele><time>2026-04-18T12:18:17Z</time></trkpt><trkpt lat="44.56201494541631" lon="10.047724518302651"><ele>799.0</ele><time>2026-04-18T12:18:18Z</time></trkpt><trkpt lat="44.562048669075" lon="10.047888997799674"><ele>801.0</ele><time>2026-04-18T12:18:18.999Z</time></trkpt><trkpt lat="44.56208282172417" lon="10.04805157044134"><ele>803.0</ele><time>2026-04-18T12:18:19.999Z</time></trkpt><trkpt lat="44.56211897626715" lon="10.048216496397979"><ele>797.25</ele><time>2026-04-18T12:18:20.999Z</time></trkpt><trkpt lat="44.56215407267614" lon="10.048378791592851"><ele>791.5</ele><time>2026-04-18T12:18:21.999Z</time></trkpt><trkpt lat="44.56219450482557" lon="10.048536418545066"><ele>785.75</ele><time>2026-04-18T12:18:22.999Z</time></trkpt><trkpt lat="44.56223007694768" lon="10.048694643731379"><ele>780.0</ele><time>2026-04-18T12:18:23.999Z</time></trkpt><trkpt lat="44.56226464736524" lon="10.04884418642004"><ele>780.0</ele><time>2026-04-18T12:18:24.999Z</time></trkpt><trkpt lat="44.56229706400286" lon="10.048995050430367"><ele>780.0</ele><time>2026-04-18T12:18:25.999Z</time></trkpt><trkpt lat="44.56234134005691" lon="10.049137941348098"><ele>780.0</ele><time>2026-04-18T12:18:26.999Z</time></trkpt><trkpt lat="44.56242348336918" lon="10.049251365248839"><ele>780.0</ele><time>2026-04-18T12:18:27.999Z</time></trkpt><trkpt lat="44.562504815916014" lon="10.049349950942613"><ele>780.0</ele><time>2026-04-18T12:18:28.999Z</time></trkpt><trkpt lat="44.56260134192003" lon="10.049419344568848"><ele>780.4</ele><time>2026-04-18T12:18:29.999Z</time></trkpt><trkpt lat="44.56269236469859" lon="10.049489481122823"><ele>780.8</ele><time>2026-04-18T12:18:30.999Z</time></trkpt><trkpt lat="44.56278442119297" lon="10.049563899098677"><ele>781.2</ele><time>2026-04-18T12:18:31.999Z</time></trkpt><trkpt lat="44.56287891811492" lon="10.04963352139503"><ele>781.6</ele><time>2026-04-18T12:18:32.999Z</time></trkpt><trkpt lat="44.562975800942084" lon="10.049698424404466"><ele>782.0</ele><time>2026-04-18T12:18:33.999Z</time></trkpt><trkpt lat="44.563068103361665" lon="10.049784575952092"><ele>781.6</ele><time>2026-04-18T12:18:34.999Z</time></trkpt><trkpt lat="44.56316080364147" lon="10.049857330335882"><ele>781.2</ele><time>2026-04-18T12:18:35.999Z</time></trkpt><trkpt lat="44.56324940350706" lon="10.049930645035142"><ele>780.8</ele><time>2026-04-18T12:18:36.999Z</time></trkpt><trkpt lat="44.563344259318555" lon="10.049997853956675"><ele>780.4</ele><time>2026-04-18T12:18:37.999Z</time></trkpt><trkpt lat="44.56343706201347" lon="10.050080892610834"><ele>780.0</ele><time>2026-04-18T12:18:38.999Z</time></trkpt><trkpt lat="44.56352281194801" lon="10.050149251251158"><ele>780.0</ele><time>2026-04-18T12:18:39.999Z</time></trkpt><trkpt lat="44.563609783821406" lon="10.050224123352553"><ele>780.0</ele><time>2026-04-18T12:18:40.999Z</time></trkpt><trkpt lat="44.56370051920254" lon="10.050289195674969"><ele>780.0</ele><time>2026-04-18T12:18:41.999Z</time></trkpt><trkpt lat="44.56378792730187" lon="10.05036203377665"><ele>780.0</ele><time>2026-04-18T12:18:42.999Z</time></trkpt><trkpt lat="44.56387749298879" lon="10.050431554688277"><ele>780.0</ele><time>2026-04-18T12:18:43.999Z</time></trkpt><trkpt lat="44.563979969167995" lon="10.050473625387422"><ele>778.2</ele><time>2026-04-18T12:18:44.999Z</time></trkpt><trkpt lat="44.56408126253622" lon="10.05051044307454"><ele>776.4</ele><time>2026-04-18T12:18:45.999Z</time></trkpt><trkpt lat="44.564200145976656" lon="10.050511849701728"><ele>774.5999999999999</ele><time>2026-04-18T12:18:46.999Z</time></trkpt><trkpt lat="44.56430216787551" lon="10.05050159295919"><ele>772.8</ele><time>2026-04-18T12:18:47.999Z</time></trkpt><trkpt lat="44.564416510930585" lon="10.050440302067862"><ele>771.0</ele><time>2026-04-18T12:18:48.999Z</time></trkpt><trkpt lat="44.56450745999663" lon="10.050359392708994"><ele>770.8</ele><time>2026-04-18T12:18:49.999Z</time></trkpt><trkpt lat="44.56459756322987" lon="10.050272817360428"><ele>770.5999999999999</ele><time>2026-04-18T12:18:50.999Z</time></trkpt><trkpt lat="44.56468592410653" lon="10.050178544482751"><ele>770.4</ele><time>2026-04-18T12:18:51.999Z</time></trkpt><trkpt lat="44.56477437604629" lon="10.050088246774282"><ele>770.2</ele><time>2026-04-18T12:18:52.999Z</time></trkpt><trkpt lat="44.56486661575677" lon="10.049997148374313"><ele>770.0</ele><time>2026-04-18T12:18:53.999Z</time></trkpt><trkpt lat="44.56496480472622" lon="10.04992301905898"><ele>770.0</ele><time>2026-04-18T12:18:54.999Z</time></trkpt><trkpt lat="44.56507704071683" lon="10.04989236810427"><ele>770.0</ele><time>2026-04-18T12:18:55.999Z</time></trkpt><trkpt lat="44.565194582425875" lon="10.049922201074768"><ele>770.0</ele><time>2026-04-18T12:18:56.999Z</time></trkpt><trkpt lat="44.56530308324024" lon="10.05000854255973"><ele>770.0</ele><time>2026-04-18T12:18:57.999Z</time></trkpt><trkpt lat="44.56537755651244" lon="10.050144760816286"><ele>767.8</ele><time>2026-04-18T12:18:58.999Z</time></trkpt><trkpt lat="44.565425688821776" lon="10.050295379642014"><ele>765.6</ele><time>2026-04-18T12:18:59.999Z</time></trkpt><trkpt lat="44.5654315756791" lon="10.05042090163165"><ele>763.4000000000001</ele><time>2026-04-18T12:19:00.999Z</time></trkpt><trkpt lat="44.56542555863992" lon="10.050551980460721"><ele>761.2</ele><time>2026-04-18T12:19:01.999Z</time></trkpt><trkpt lat="44.565415858925135" lon="10.050718929275842"><ele>759.0</ele><time>2026-04-18T12:19:02.999Z</time></trkpt><trkpt lat="44.56541010227471" lon="10.050884787634471"><ele>759.0</ele><time>2026-04-18T12:19:03.999Z</time></trkpt><trkpt lat="44.565417997009256" lon="10.051048268440088"><ele>759.0</ele><time>2026-04-18T12:19:04.999Z</time></trkpt><trkpt lat="44.565447594206184" lon="10.051199459722532"><ele>759.0</ele><time>2026-04-18T12:19:05.999Z</time></trkpt><trkpt lat="44.56551458364741" lon="10.051327265052869"><ele>759.0</ele><time>2026-04-18T12:19:06.999Z</time></trkpt><trkpt lat="44.565611227196825" lon="10.051426887873207"><ele>759.0</ele><time>2026-04-18T12:19:07.999Z</time></trkpt><trkpt lat="44.56572174817626" lon="10.051491136775502"><ele>759.0</ele><time>2026-04-18T12:19:08.999Z</time></trkpt><trkpt lat="44.56584011461238" lon="10.051494095628053"><ele>759.0</ele><time>2026-04-18T12:19:09.999Z</time></trkpt><trkpt lat="44.565955257499624" lon="10.051467329709025"><ele>759.0</ele><time>2026-04-18T12:19:10.999Z</time></trkpt><trkpt lat="44.56606483251968" lon="10.051398963297894"><ele>759.0</ele><time>2026-04-18T12:19:11.999Z</time></trkpt><trkpt lat="44.56617341532804" lon="10.051314075942281"><ele>759.0</ele><time>2026-04-18T12:19:12.998Z</time></trkpt><trkpt lat="44.56626426913794" lon="10.051212548467097"><ele>759.0</ele><time>2026-04-18T12:19:13.998Z</time></trkpt><trkpt lat="44.566365998320954" lon="10.051120812231474"><ele>759.0</ele><time>2026-04-18T12:19:14.998Z</time></trkpt><trkpt lat="44.566476679986025" lon="10.051038811910718"><ele>759.0</ele><time>2026-04-18T12:19:15.998Z</time></trkpt><trkpt lat="44.56658261136206" lon="10.050955136829396"><ele>759.0</ele><time>2026-04-18T12:19:16.998Z</time></trkpt><trkpt lat="44.56668784224545" lon="10.050877640430617"><ele>759.0</ele><time>2026-04-18T12:19:17.998Z</time></trkpt><trkpt lat="44.56680391075324" lon="10.050848525992986"><ele>759.0</ele><time>2026-04-18T12:19:18.998Z</time></trkpt><trkpt lat="44.56690994730327" lon="10.050827864591994"><ele>759.0</ele><time>2026-04-18T12:19:19.998Z</time></trkpt><trkpt lat="44.567020584524805" lon="10.050823485157915"><ele>759.0</ele><time>2026-04-18T12:19:20.998Z</time></trkpt><trkpt lat="44.56712756517507" lon="10.050853625895757"><ele>759.0</ele><time>2026-04-18T12:19:21.998Z</time></trkpt><trkpt lat="44.56722551791271" lon="10.050917513397431"><ele>759.0</ele><time>2026-04-18T12:19:22.998Z</time></trkpt><trkpt lat="44.56731654568795" lon="10.051031889071336"><ele>757.8000000000001</ele><time>2026-04-18T12:19:23.998Z</time></trkpt><trkpt lat="44.56737919487586" lon="10.051167003252829"><ele>756.6</ele><time>2026-04-18T12:19:24.998Z</time></trkpt><trkpt lat="44.567413637539644" lon="10.05130765698345"><ele>755.4</ele><time>2026-04-18T12:19:25.998Z</time></trkpt><trkpt lat="44.567431516774704" lon="10.051455671835635"><ele>754.2</ele><time>2026-04-18T12:19:26.998Z</time></trkpt><trkpt lat="44.56744008434929" lon="10.051598578001121"><ele>753.0</ele><time>2026-04-18T12:19:27.998Z</time></trkpt><trkpt lat="44.56738598805453" lon="10.05173441634539"><ele>752.5999999999999</ele><time>2026-04-18T12:19:28.998Z</time></trkpt><trkpt lat="44.567314471322184" lon="10.051856849630568"><ele>752.1999999999999</ele><time>2026-04-18T12:19:29.998Z</time></trkpt><trkpt lat="44.56724992847225" lon="10.051980925677162"><ele>751.8</ele><time>2026-04-18T12:19:30.998Z</time></trkpt><trkpt lat="44.56718718817601" lon="10.052102955091495"><ele>751.4</ele><time>2026-04-18T12:19:31.998Z</time></trkpt><trkpt lat="44.567100879454614" lon="10.052213131689681"><ele>751.0</ele><time>2026-04-18T12:19:32.998Z</time></trkpt><trkpt lat="44.567032184218085" lon="10.05234032854665"><ele>752.5</ele><time>2026-04-18T12:19:33.998Z</time></trkpt><trkpt lat="44.566961215551075" lon="10.05247111338913"><ele>754.0</ele><time>2026-04-18T12:19:34.998Z</time></trkpt><trkpt lat="44.566893042271" lon="10.052601224401004"><ele>755.5</ele><time>2026-04-18T12:19:36Z</time></trkpt><trkpt lat="44.56682599142127" lon="10.052730962197234"><ele>757.0</ele><time>2026-04-18T12:19:37Z</time></trkpt><trkpt lat="44.566765525216866" lon="10.05286648297461"><ele>757.0</ele><time>2026-04-18T12:19:38Z</time></trkpt><trkpt lat="44.566718923101625" lon="10.053017210248"><ele>757.0</ele><time>2026-04-18T12:19:39Z</time></trkpt><trkpt lat="44.56669574087312" lon="10.053173716944757"><ele>757.0</ele><time>2026-04-18T12:19:40Z</time></trkpt><trkpt lat="44.56669684536999" lon="10.053338879343004"><ele>757.0</ele><time>2026-04-18T12:19:41Z</time></trkpt><trkpt lat="44.56672043113757" lon="10.053502420973308"><ele>754.5</ele><time>2026-04-18T12:19:42Z</time></trkpt><trkpt lat="44.56676849180694" lon="10.05365296268186"><ele>752.0</ele><time>2026-04-18T12:19:43Z</time></trkpt><trkpt lat="44.56683684393905" lon="10.053787638236335"><ele>749.5</ele><time>2026-04-18T12:19:44Z</time></trkpt><trkpt lat="44.56691731893817" lon="10.05389717071801"><ele>747.0</ele><time>2026-04-18T12:19:45Z</time></trkpt><trkpt lat="44.56701343905684" lon="10.053982716460485"><ele>745.2</ele><time>2026-04-18T12:19:46Z</time></trkpt><trkpt lat="44.56710682884869" lon="10.054042764516208"><ele>743.4000000000001</ele><time>2026-04-18T12:19:47Z</time></trkpt><trkpt lat="44.56718936227643" lon="10.054097721021561"><ele>741.5999999999999</ele><time>2026-04-18T12:19:48Z</time></trkpt><trkpt lat="44.56727448267126" lon="10.054154026697256"><ele>739.8</ele><time>2026-04-18T12:19:49Z</time></trkpt><trkpt lat="44.56735744643888" lon="10.054207106333813"><ele>738.0</ele><time>2026-04-18T12:19:50Z</time></trkpt><trkpt lat="44.56744010930329" lon="10.054259350639663"><ele>738.0</ele><time>2026-04-18T12:19:51Z</time></trkpt><trkpt lat="44.56752227807435" lon="10.05431451718861"><ele>738.0</ele><time>2026-04-18T12:19:52Z</time></trkpt><trkpt lat="44.56759566762602" lon="10.054374867685274"><ele>738.0</ele><time>2026-04-18T12:19:53Z</time></trkpt><trkpt lat="44.56766718425358" lon="10.05444681739736"><ele>738.0</ele><time>2026-04-18T12:19:54Z</time></trkpt><trkpt lat="44.56772527524052" lon="10.05452475356408"><ele>738.0</ele><time>2026-04-18T12:19:55Z</time></trkpt><trkpt lat="44.5677808170128" lon="10.054612000707658"><ele>738.0</ele><time>2026-04-18T12:19:56Z</time></trkpt><trkpt lat="44.56783343271948" lon="10.054706652909173"><ele>738.5999999999999</ele><time>2026-04-18T12:19:57Z</time></trkpt><trkpt lat="44.56788390300933" lon="10.054809226084956"><ele>739.1999999999999</ele><time>2026-04-18T12:19:58Z</time></trkpt><trkpt lat="44.56794106595854" lon="10.054910657644358"><ele>739.8</ele><time>2026-04-18T12:19:59Z</time></trkpt><trkpt lat="44.56800082232472" lon="10.055011546208021"><ele>740.4</ele><time>2026-04-18T12:20:00Z</time></trkpt><trkpt lat="44.568069431730585" lon="10.055107301613726"><ele>741.0</ele><time>2026-04-18T12:20:01Z</time></trkpt><trkpt lat="44.568144903232884" lon="10.055187685243135"><ele>741.0</ele><time>2026-04-18T12:20:02Z</time></trkpt><trkpt lat="44.56822926226969" lon="10.055248667460255"><ele>741.0</ele><time>2026-04-18T12:20:03Z</time></trkpt><trkpt lat="44.56832024359058" lon="10.055289703396275"><ele>741.0</ele><time>2026-04-18T12:20:04Z</time></trkpt><trkpt lat="44.56841457049414" lon="10.055304683037434"><ele>741.0</ele><time>2026-04-18T12:20:05Z</time></trkpt><trkpt lat="44.56850387486177" lon="10.05530993209502"><ele>741.0</ele><time>2026-04-18T12:20:06Z</time></trkpt><trkpt lat="44.56859159050362" lon="10.055250529569612"><ele>741.0</ele><time>2026-04-18T12:20:07Z</time></trkpt><trkpt lat="44.568680419877886" lon="10.055247084050619"><ele>741.0</ele><time>2026-04-18T12:20:08Z</time></trkpt><trkpt lat="44.56876615515622" lon="10.055244768847144"><ele>741.0</ele><time>2026-04-18T12:20:09Z</time></trkpt><trkpt lat="44.568852602414296" lon="10.055248171614409"><ele>741.0</ele><time>2026-04-18T12:20:10Z</time></trkpt><trkpt lat="44.568941606239605" lon="10.055250386651682"><ele>741.0</ele><time>2026-04-18T12:20:11Z</time></trkpt><trkpt lat="44.569039207445414" lon="10.055249905445967"><ele>741.0</ele><time>2026-04-18T12:20:12Z</time></trkpt><trkpt lat="44.56912388519911" lon="10.055234616201343"><ele>740.5999999999999</ele><time>2026-04-18T12:20:13Z</time></trkpt><trkpt lat="44.56922185296699" lon="10.055225094339587"><ele>740.2</ele><time>2026-04-18T12:20:14Z</time></trkpt><trkpt lat="44.56931681474796" lon="10.05521097894164"><ele>739.8</ele><time>2026-04-18T12:20:15Z</time></trkpt><trkpt lat="44.569412520289156" lon="10.055192920722604"><ele>739.4000000000001</ele><time>2026-04-18T12:20:16Z</time></trkpt><trkpt lat="44.569515832952234" lon="10.05517113898259"><ele>739.0</ele><time>2026-04-18T12:20:17Z</time></trkpt><trkpt lat="44.56960876836759" lon="10.055150759440654"><ele>737.0</ele><time>2026-04-18T12:20:18Z</time></trkpt><trkpt lat="44.569697573153675" lon="10.055208353914642"><ele>735.0</ele><time>2026-04-18T12:20:19Z</time></trkpt><trkpt lat="44.56977733411022" lon="10.055255923315748"><ele>733.0</ele><time>2026-04-18T12:20:20Z</time></trkpt><trkpt lat="44.56985235366199" lon="10.05532239554606"><ele>731.0</ele><time>2026-04-18T12:20:21Z</time></trkpt><trkpt lat="44.5699139674677" lon="10.055387316871279"><ele>729.0</ele><time>2026-04-18T12:20:22Z</time></trkpt><trkpt lat="44.56996969986532" lon="10.055446225349815"><ele>727.0</ele><time>2026-04-18T12:20:22.999Z</time></trkpt><trkpt lat="44.570041096020645" lon="10.055518542054292"><ele>727.0</ele><time>2026-04-18T12:20:23.999Z</time></trkpt><trkpt lat="44.57011259462024" lon="10.05557651284252"><ele>727.0</ele><time>2026-04-18T12:20:24.999Z</time></trkpt><trkpt lat="44.57023009369545" lon="10.05564180377508"><ele>727.0</ele><time>2026-04-18T12:20:25.999Z</time></trkpt><trkpt lat="44.57033220401074" lon="10.055689594659995"><ele>727.0</ele><time>2026-04-18T12:20:26.999Z</time></trkpt><trkpt lat="44.570439852386016" lon="10.055734220066961"><ele>727.0</ele><time>2026-04-18T12:20:27.999Z</time></trkpt><trkpt lat="44.57053334816737" lon="10.055758158585718"><ele>723.6</ele><time>2026-04-18T12:20:28.999Z</time></trkpt><trkpt lat="44.5706337376958" lon="10.055770623365612"><ele>720.2</ele><time>2026-04-18T12:20:29.999Z</time></trkpt><trkpt lat="44.5707325836452" lon="10.05577941367108"><ele>716.8</ele><time>2026-04-18T12:20:30.999Z</time></trkpt><trkpt lat="44.57082858808446" lon="10.055785226994029"><ele>713.4</ele><time>2026-04-18T12:20:31.999Z</time></trkpt><trkpt lat="44.57091818157202" lon="10.055787041419856"><ele>710.0</ele><time>2026-04-18T12:20:32.999Z</time></trkpt><trkpt lat="44.57101393358988" lon="10.055783505455842"><ele>710.0</ele><time>2026-04-18T12:20:33.999Z</time></trkpt><trkpt lat="44.57110886456189" lon="10.055764812637506"><ele>710.0</ele><time>2026-04-18T12:20:34.999Z</time></trkpt><trkpt lat="44.57119462399926" lon="10.055742731909865"><ele>710.0</ele><time>2026-04-18T12:20:35.999Z</time></trkpt><trkpt lat="44.57128050786196" lon="10.055721048220223"><ele>710.0</ele><time>2026-04-18T12:20:36.999Z</time></trkpt><trkpt lat="44.571382532795525" lon="10.055699895913172"><ele>710.0</ele><time>2026-04-18T12:20:37.999Z</time></trkpt><trkpt lat="44.5714821357709" lon="10.055687143204166"><ele>709.8</ele><time>2026-04-18T12:20:38.999Z</time></trkpt><trkpt lat="44.57158098779662" lon="10.055678757688122"><ele>709.6</ele><time>2026-04-18T12:20:39.999Z</time></trkpt><trkpt lat="44.57167448603113" lon="10.055670872965731"><ele>709.4000000000001</ele><time>2026-04-18T12:20:40.999Z</time></trkpt><trkpt lat="44.571765178254566" lon="10.055663224877323"><ele>709.2</ele><time>2026-04-18T12:20:41.999Z</time></trkpt><trkpt lat="44.57185990248871" lon="10.055653076221802"><ele>709.0</ele><time>2026-04-18T12:20:42.999Z</time></trkpt><trkpt lat="44.57195693697903" lon="10.055635296930724"><ele>710.0</ele><time>2026-04-18T12:20:43.999Z</time></trkpt><trkpt lat="44.5720554408178" lon="10.055608061869318"><ele>711.0</ele><time>2026-04-18T12:20:44.999Z</time></trkpt><trkpt lat="44.57215423844784" lon="10.055573984232325"><ele>712.0</ele><time>2026-04-18T12:20:45.999Z</time></trkpt><trkpt lat="44.572246756985734" lon="10.055541822813684"><ele>713.0</ele><time>2026-04-18T12:20:46.999Z</time></trkpt><trkpt lat="44.57233535130155" lon="10.055511283615893"><ele>714.0</ele><time>2026-04-18T12:20:47.999Z</time></trkpt><trkpt lat="44.57242296258807" lon="10.055481083213818"><ele>714.0</ele><time>2026-04-18T12:20:48.999Z</time></trkpt><trkpt lat="44.572511239181914" lon="10.055451716158359"><ele>714.0</ele><time>2026-04-18T12:20:49.999Z</time></trkpt><trkpt lat="44.572600406466776" lon="10.055427102533075"><ele>714.0</ele><time>2026-04-18T12:20:50.999Z</time></trkpt><trkpt lat="44.57269741861667" lon="10.055410594523444"><ele>714.0</ele><time>2026-04-18T12:20:51.999Z</time></trkpt><trkpt lat="44.572797530304314" lon="10.055382421545248"><ele>714.0</ele><time>2026-04-18T12:20:52.999Z</time></trkpt><trkpt lat="44.57289628431623" lon="10.055380150070423"><ele>715.2</ele><time>2026-04-18T12:20:53.999Z</time></trkpt><trkpt lat="44.57300222033856" lon="10.055389276067643"><ele>716.4000000000001</ele><time>2026-04-18T12:20:54.999Z</time></trkpt><trkpt lat="44.57310659335007" lon="10.055398353533763"><ele>717.6</ele><time>2026-04-18T12:20:55.999Z</time></trkpt><trkpt lat="44.57321131156752" lon="10.055404928758037"><ele>718.8</ele><time>2026-04-18T12:20:56.999Z</time></trkpt><trkpt lat="44.57331275841015" lon="10.055410036165561"><ele>720.0</ele><time>2026-04-18T12:20:57.999Z</time></trkpt><trkpt lat="44.573412233552844" lon="10.055415548281752"><ele>720.0</ele><time>2026-04-18T12:20:58.999Z</time></trkpt><trkpt lat="44.573512648797035" lon="10.055425721922163"><ele>720.0</ele><time>2026-04-18T12:20:59.999Z</time></trkpt><trkpt lat="44.57360665283427" lon="10.055456914901598"><ele>720.0</ele><time>2026-04-18T12:21:00.999Z</time></trkpt><trkpt lat="44.57368643523447" lon="10.05553000569099"><ele>720.0</ele><time>2026-04-18T12:21:01.999Z</time></trkpt><trkpt lat="44.57375209116488" lon="10.055623603165245"><ele>720.0</ele><time>2026-04-18T12:21:02.999Z</time></trkpt><trkpt lat="44.57380469989999" lon="10.055725552980402"><ele>721.2</ele><time>2026-04-18T12:21:03.999Z</time></trkpt><trkpt lat="44.57385521635726" lon="10.055829766978299"><ele>722.4</ele><time>2026-04-18T12:21:04.999Z</time></trkpt><trkpt lat="44.57390215810707" lon="10.055932715854091"><ele>723.5999999999999</ele><time>2026-04-18T12:21:05.999Z</time></trkpt><trkpt lat="44.57393651528743" lon="10.056050186919885"><ele>724.8</ele><time>2026-04-18T12:21:06.999Z</time></trkpt><trkpt lat="44.57394668102289" lon="10.056180329084366"><ele>726.0</ele><time>2026-04-18T12:21:07.999Z</time></trkpt><trkpt lat="44.5739679778327" lon="10.056304264348643"><ele>726.0</ele><time>2026-04-18T12:21:08.999Z</time></trkpt><trkpt lat="44.57401160589979" lon="10.056418296448122"><ele>726.0</ele><time>2026-04-18T12:21:09.999Z</time></trkpt><trkpt lat="44.57404863752675" lon="10.056537569821284"><ele>726.0</ele><time>2026-04-18T12:21:10.999Z</time></trkpt><trkpt lat="44.574099195917796" lon="10.056649781493972"><ele>726.0</ele><time>2026-04-18T12:21:11.999Z</time></trkpt><trkpt lat="44.57412857043083" lon="10.056776700706926"><ele>726.0</ele><time>2026-04-18T12:21:12.999Z</time></trkpt><trkpt lat="44.57415147241127" lon="10.056898937453557"><ele>727.5999999999999</ele><time>2026-04-18T12:21:13.999Z</time></trkpt><trkpt lat="44.574148227033994" lon="10.057021503637195"><ele>729.2</ele><time>2026-04-18T12:21:14.999Z</time></trkpt><trkpt lat="44.574139463873806" lon="10.057151894358473"><ele>730.8</ele><time>2026-04-18T12:21:15.999Z</time></trkpt><trkpt lat="44.57408790571555" lon="10.057261672234551"><ele>732.4000000000001</ele><time>2026-04-18T12:21:16.998Z</time></trkpt><trkpt lat="44.57404752067518" lon="10.057379078475842"><ele>734.0</ele><time>2026-04-18T12:21:17.998Z</time></trkpt><trkpt lat="44.574006550116735" lon="10.057496038348376"><ele>734.0</ele><time>2026-04-18T12:21:18.998Z</time></trkpt><trkpt lat="44.573965348370834" lon="10.057613925409285"><ele>734.0</ele><time>2026-04-18T12:21:19.998Z</time></trkpt><trkpt lat="44.5739273827014" lon="10.057737081685167"><ele>734.0</ele><time>2026-04-18T12:21:20.998Z</time></trkpt><trkpt lat="44.57390097061678" lon="10.057881094054546"><ele>734.0</ele><time>2026-04-18T12:21:21.998Z</time></trkpt><trkpt lat="44.573904603918386" lon="10.058031108562252"><ele>734.0</ele><time>2026-04-18T12:21:22.998Z</time></trkpt><trkpt lat="44.57393730934745" lon="10.058160103609351"><ele>734.0</ele><time>2026-04-18T12:21:23.998Z</time></trkpt><trkpt lat="44.57398785463335" lon="10.05828138227647"><ele>734.0</ele><time>2026-04-18T12:21:24.998Z</time></trkpt><trkpt lat="44.57404068956495" lon="10.058398042678942"><ele>734.0</ele><time>2026-04-18T12:21:25.998Z</time></trkpt><trkpt lat="44.57409549988894" lon="10.058516604000603"><ele>734.0</ele><time>2026-04-18T12:21:26.998Z</time></trkpt><trkpt lat="44.57414743252647" lon="10.05863023976887"><ele>734.0</ele><time>2026-04-18T12:21:27.998Z</time></trkpt><trkpt lat="44.574198291979364" lon="10.058741527030252"><ele>733.8000000000001</ele><time>2026-04-18T12:21:28.998Z</time></trkpt><trkpt lat="44.574257122156084" lon="10.058852360117859"><ele>733.6</ele><time>2026-04-18T12:21:29.998Z</time></trkpt><trkpt lat="44.57432312556764" lon="10.058959525731003"><ele>733.4</ele><time>2026-04-18T12:21:30.998Z</time></trkpt><trkpt lat="44.57441012361266" lon="10.059035956501871"><ele>733.2</ele><time>2026-04-18T12:21:31.998Z</time></trkpt><trkpt lat="44.57449132148585" lon="10.059117156724591"><ele>733.0</ele><time>2026-04-18T12:21:32.998Z</time></trkpt><trkpt lat="44.5745766142228" lon="10.059192386089073"><ele>732.0</ele><time>2026-04-18T12:21:33.998Z</time></trkpt><trkpt lat="44.574664735630144" lon="10.05926475823755"><ele>731.0</ele><time>2026-04-18T12:21:34.998Z</time></trkpt><trkpt lat="44.574753444383255" lon="10.059329199839564"><ele>730.0</ele><time>2026-04-18T12:21:35.998Z</time></trkpt><trkpt lat="44.57484029250454" lon="10.059396988649867"><ele>729.0</ele><time>2026-04-18T12:21:36.998Z</time></trkpt><trkpt lat="44.57492645457011" lon="10.059470344411515"><ele>728.0</ele><time>2026-04-18T12:21:37.998Z</time></trkpt><trkpt lat="44.57501260926462" lon="10.059542332210272"><ele>728.0</ele><time>2026-04-18T12:21:38.998Z</time></trkpt><trkpt lat="44.575099481827884" lon="10.059611721107013"><ele>728.0</ele><time>2026-04-18T12:21:39.998Z</time></trkpt><trkpt lat="44.57519365819541" lon="10.059664816483044"><ele>728.0</ele><time>2026-04-18T12:21:40.998Z</time></trkpt><trkpt lat="44.575291643862556" lon="10.05969175211032"><ele>728.0</ele><time>2026-04-18T12:21:42Z</time></trkpt><trkpt lat="44.57539374617731" lon="10.059705316871966"><ele>728.0</ele><time>2026-04-18T12:21:43Z</time></trkpt><trkpt lat="44.57549510437835" lon="10.05969634819349"><ele>723.8</ele><time>2026-04-18T12:21:44Z</time></trkpt><trkpt lat="44.57559595516464" lon="10.059691621709543"><ele>719.5999999999999</ele><time>2026-04-18T12:21:45Z</time></trkpt><trkpt lat="44.575702068361984" lon="10.059690428088448"><ele>715.4000000000001</ele><time>2026-04-18T12:21:46Z</time></trkpt><trkpt lat="44.575809226814755" lon="10.059698208132161"><ele>711.2</ele><time>2026-04-18T12:21:47Z</time></trkpt><trkpt lat="44.57590959861712" lon="10.059717898035384"><ele>707.0</ele><time>2026-04-18T12:21:48Z</time></trkpt><trkpt lat="44.575994579490114" lon="10.059752419553355"><ele>707.0</ele><time>2026-04-18T12:21:49Z</time></trkpt><trkpt lat="44.57605592230489" lon="10.059809729930226"><ele>707.0</ele><time>2026-04-18T12:21:50Z</time></trkpt><trkpt lat="44.57611460466221" lon="10.059926995748835"><ele>707.0</ele><time>2026-04-18T12:21:51Z</time></trkpt><trkpt lat="44.576182213166874" lon="10.060023771621589"><ele>707.0</ele><time>2026-04-18T12:21:52Z</time></trkpt><trkpt lat="44.576234699761464" lon="10.060133635989175"><ele>707.0</ele><time>2026-04-18T12:21:53Z</time></trkpt><trkpt lat="44.576294517625016" lon="10.060237570191633"><ele>709.8</ele><time>2026-04-18T12:21:54Z</time></trkpt><trkpt lat="44.576357717925006" lon="10.060321527907375"><ele>712.6</ele><time>2026-04-18T12:21:55Z</time></trkpt><trkpt lat="44.576447333857445" lon="10.06038978563155"><ele>715.4</ele><time>2026-04-18T12:21:56Z</time></trkpt><trkpt lat="44.57654349292196" lon="10.060441845062634"><ele>718.1999999999999</ele><time>2026-04-18T12:21:57Z</time></trkpt><trkpt lat="44.5766402071987" lon="10.060467384523678"><ele>721.0</ele><time>2026-04-18T12:21:58Z</time></trkpt><trkpt lat="44.57673833215717" lon="10.060463473926836"><ele>721.0</ele><time>2026-04-18T12:21:59Z</time></trkpt><trkpt lat="44.576829701410766" lon="10.060448414947338"><ele>721.0</ele><time>2026-04-18T12:22:00Z</time></trkpt><trkpt lat="44.57692209612934" lon="10.060429829361537"><ele>721.0</ele><time>2026-04-18T12:22:01Z</time></trkpt><trkpt lat="44.5770179623239" lon="10.060401471807744"><ele>721.0</ele><time>2026-04-18T12:22:02Z</time></trkpt><trkpt lat="44.577111108984084" lon="10.060366743209313"><ele>721.0</ele><time>2026-04-18T12:22:03Z</time></trkpt><trkpt lat="44.57720282257862" lon="10.060326720752522"><ele>720.4</ele><time>2026-04-18T12:22:04Z</time></trkpt><trkpt lat="44.57729459704448" lon="10.060279970925762"><ele>719.8</ele><time>2026-04-18T12:22:05Z</time></trkpt><trkpt lat="44.57738948662502" lon="10.06023919385937"><ele>719.1999999999999</ele><time>2026-04-18T12:22:06Z</time></trkpt><trkpt lat="44.57748196840374" lon="10.060199096528773"><ele>718.5999999999999</ele><time>2026-04-18T12:22:07Z</time></trkpt><trkpt lat="44.577570186713665" lon="10.060154540066963"><ele>718.0</ele><time>2026-04-18T12:22:08Z</time></trkpt><trkpt lat="44.5776608207497" lon="10.060111615936822"><ele>718.0</ele><time>2026-04-18T12:22:09Z</time></trkpt><trkpt lat="44.57775133141265" lon="10.060075625764194"><ele>718.0</ele><time>2026-04-18T12:22:10Z</time></trkpt><trkpt lat="44.5778407013804" lon="10.060071349642216"><ele>718.0</ele><time>2026-04-18T12:22:11Z</time></trkpt><trkpt lat="44.577915079906084" lon="10.060092490959311"><ele>718.0</ele><time>2026-04-18T12:22:12Z</time></trkpt><trkpt lat="44.577987989861285" lon="10.060165134665635"><ele>718.0</ele><time>2026-04-18T12:22:13Z</time></trkpt><trkpt lat="44.5780397592317" lon="10.060257755471131"><ele>718.0</ele><time>2026-04-18T12:22:14Z</time></trkpt><trkpt lat="44.57807983027693" lon="10.060369519680114"><ele>719.5999999999999</ele><time>2026-04-18T12:22:15Z</time></trkpt><trkpt lat="44.57812433204695" lon="10.060489073908906"><ele>721.1999999999999</ele><time>2026-04-18T12:22:16Z</time></trkpt><trkpt lat="44.57816645776777" lon="10.060601167590326"><ele>722.8</ele><time>2026-04-18T12:22:17Z</time></trkpt><trkpt lat="44.57821732901919" lon="10.060715140815173"><ele>724.4</ele><time>2026-04-18T12:22:18Z</time></trkpt><trkpt lat="44.57827279425724" lon="10.060823962530275"><ele>726.0</ele><time>2026-04-18T12:22:19Z</time></trkpt><trkpt lat="44.578327560556545" lon="10.060935737515885"><ele>726.0</ele><time>2026-04-18T12:22:20Z</time></trkpt><trkpt lat="44.578384661811135" lon="10.061050975372355"><ele>726.0</ele><time>2026-04-18T12:22:21Z</time></trkpt><trkpt lat="44.578445505773175" lon="10.061167650525963"><ele>726.0</ele><time>2026-04-18T12:22:22Z</time></trkpt><trkpt lat="44.578498215855106" lon="10.06128845564543"><ele>726.0</ele><time>2026-04-18T12:22:23Z</time></trkpt><trkpt lat="44.57854668380011" lon="10.06140335003357"><ele>726.0</ele><time>2026-04-18T12:22:24Z</time></trkpt><trkpt lat="44.57858429299979" lon="10.061521413156681"><ele>728.5999999999999</ele><time>2026-04-18T12:22:25Z</time></trkpt><trkpt lat="44.5786014060281" lon="10.061645431413694"><ele>731.2</ele><time>2026-04-18T12:22:25.999Z</time></trkpt><trkpt lat="44.57862872690624" lon="10.061777693669057"><ele>733.8</ele><time>2026-04-18T12:22:26.999Z</time></trkpt><trkpt lat="44.57864612458914" lon="10.06190936122907"><ele>736.4000000000001</ele><time>2026-04-18T12:22:27.999Z</time></trkpt><trkpt lat="44.5786721432755" lon="10.062056352073425"><ele>739.0</ele><time>2026-04-18T12:22:28.999Z</time></trkpt><trkpt lat="44.578663667895476" lon="10.062194194637224"><ele>739.0</ele><time>2026-04-18T12:22:29.999Z</time></trkpt><trkpt lat="44.57866060856402" lon="10.062326454347899"><ele>739.0</ele><time>2026-04-18T12:22:30.999Z</time></trkpt><trkpt lat="44.57866781962136" lon="10.062459352702945"><ele>739.0</ele><time>2026-04-18T12:22:31.999Z</time></trkpt><trkpt lat="44.578666528511334" lon="10.06260067183936"><ele>739.0</ele><time>2026-04-18T12:22:32.999Z</time></trkpt><trkpt lat="44.5786961852378" lon="10.062734307162167"><ele>739.0</ele><time>2026-04-18T12:22:33.999Z</time></trkpt><trkpt lat="44.57874453469685" lon="10.06285649572339"><ele>735.2</ele><time>2026-04-18T12:22:34.999Z</time></trkpt><trkpt lat="44.578806789623435" lon="10.062965953255812"><ele>731.4000000000001</ele><time>2026-04-18T12:22:35.999Z</time></trkpt><trkpt lat="44.57887488871478" lon="10.06306092546425"><ele>727.6</ele><time>2026-04-18T12:22:36.999Z</time></trkpt><trkpt lat="44.5789437362322" lon="10.063155671032867"><ele>723.8</ele><time>2026-04-18T12:22:37.999Z</time></trkpt><trkpt lat="44.57901619497022" lon="10.063250992443612"><ele>720.0</ele><time>2026-04-18T12:22:38.999Z</time></trkpt><trkpt lat="44.57909712071869" lon="10.063319246901225"><ele>720.0</ele><time>2026-04-18T12:22:39.999Z</time></trkpt><trkpt lat="44.57916189202708" lon="10.063410335022775"><ele>720.0</ele><time>2026-04-18T12:22:40.999Z</time></trkpt><trkpt lat="44.57924050494122" lon="10.063491297535025"><ele>720.0</ele><time>2026-04-18T12:22:41.999Z</time></trkpt><trkpt lat="44.57931507458331" lon="10.063572125638405"><ele>720.0</ele><time>2026-04-18T12:22:42.999Z</time></trkpt><trkpt lat="44.57936009961659" lon="10.063688437691672"><ele>720.0</ele><time>2026-04-18T12:22:43.999Z</time></trkpt><trkpt lat="44.579404584190705" lon="10.063780488435551"><ele>720.0</ele><time>2026-04-18T12:22:44.999Z</time></trkpt><trkpt lat="44.57939715075057" lon="10.06394273451503"><ele>720.0</ele><time>2026-04-18T12:22:45.999Z</time></trkpt><trkpt lat="44.57937722887859" lon="10.064068212475256"><ele>720.0</ele><time>2026-04-18T12:22:46.999Z</time></trkpt><trkpt lat="44.579394270443004" lon="10.064181734266604"><ele>720.0</ele><time>2026-04-18T12:22:47.999Z</time></trkpt><trkpt lat="44.57941900488218" lon="10.06429798025489"><ele>720.0</ele><time>2026-04-18T12:22:48.999Z</time></trkpt><trkpt lat="44.57945815124603" lon="10.064406780859498"><ele>724.0</ele><time>2026-04-18T12:22:49.999Z</time></trkpt><trkpt lat="44.57950699536068" lon="10.064514075189207"><ele>728.0</ele><time>2026-04-18T12:22:50.999Z</time></trkpt><trkpt lat="44.57955794685412" lon="10.064618760916673"><ele>732.0</ele><time>2026-04-18T12:22:51.999Z</time></trkpt><trkpt lat="44.57960022743752" lon="10.064727986655651"><ele>736.0</ele><time>2026-04-18T12:22:52.999Z</time></trkpt><trkpt lat="44.57962469850599" lon="10.064851522468844"><ele>740.0</ele><time>2026-04-18T12:22:53.999Z</time></trkpt><trkpt lat="44.579601055884" lon="10.064983026669266"><ele>740.2</ele><time>2026-04-18T12:22:54.999Z</time></trkpt><trkpt lat="44.579554274390475" lon="10.065101397005503"><ele>740.4</ele><time>2026-04-18T12:22:55.999Z</time></trkpt><trkpt lat="44.57950252837483" lon="10.065215352977521"><ele>740.5999999999999</ele><time>2026-04-18T12:22:56.999Z</time></trkpt><trkpt lat="44.57944798224149" lon="10.065331826145671"><ele>740.8</ele><time>2026-04-18T12:22:57.999Z</time></trkpt><trkpt lat="44.579396992673054" lon="10.065451395240567"><ele>741.0</ele><time>2026-04-18T12:22:58.999Z</time></trkpt><trkpt lat="44.57934963927144" lon="10.065576533798527"><ele>741.0</ele><time>2026-04-18T12:22:59.999Z</time></trkpt><trkpt lat="44.57929966629128" lon="10.065700322377666"><ele>741.0</ele><time>2026-04-18T12:23:00.999Z</time></trkpt><trkpt lat="44.57924559715053" lon="10.065823924576327"><ele>741.0</ele><time>2026-04-18T12:23:01.999Z</time></trkpt><trkpt lat="44.579188472420725" lon="10.065944977900172"><ele>741.0</ele><time>2026-04-18T12:23:02.999Z</time></trkpt><trkpt lat="44.57912378259706" lon="10.066060189997096"><ele>741.0</ele><time>2026-04-18T12:23:03.999Z</time></trkpt><trkpt lat="44.57906165418343" lon="10.066176334449427"><ele>737.4</ele><time>2026-04-18T12:23:04.999Z</time></trkpt><trkpt lat="44.57900390352436" lon="10.066300194310607"><ele>733.8</ele><time>2026-04-18T12:23:05.999Z</time></trkpt><trkpt lat="44.578953824800614" lon="10.06643120395803"><ele>730.1999999999999</ele><time>2026-04-18T12:23:06.999Z</time></trkpt><trkpt lat="44.578910985284516" lon="10.066561747977358"><ele>726.5999999999999</ele><time>2026-04-18T12:23:07.999Z</time></trkpt><trkpt lat="44.578868284236634" lon="10.066693328422227"><ele>723.0</ele><time>2026-04-18T12:23:08.999Z</time></trkpt><trkpt lat="44.57882255151098" lon="10.06682103050794"><ele>723.0</ele><time>2026-04-18T12:23:09.999Z</time></trkpt><trkpt lat="44.57875701758694" lon="10.066926449744694"><ele>723.0</ele><time>2026-04-18T12:23:10.999Z</time></trkpt><trkpt lat="44.57866785983677" lon="10.066984533483977"><ele>723.0</ele><time>2026-04-18T12:23:11.999Z</time></trkpt><trkpt lat="44.57856871023451" lon="10.06697551401195"><ele>723.0</ele><time>2026-04-18T12:23:12.999Z</time></trkpt><trkpt lat="44.578479030800395" lon="10.066931939325213"><ele>723.0</ele><time>2026-04-18T12:23:13.999Z</time></trkpt><trkpt lat="44.57839040717661" lon="10.066896752125098"><ele>723.0</ele><time>2026-04-18T12:23:14.999Z</time></trkpt><trkpt lat="44.578297987728" lon="10.066890052558987"><ele>723.0</ele><time>2026-04-18T12:23:15.999Z</time></trkpt><trkpt lat="44.578204370036204" lon="10.066898746279994"><ele>723.0</ele><time>2026-04-18T12:23:16.999Z</time></trkpt><trkpt lat="44.57810830205443" lon="10.066919000495925"><ele>723.0</ele><time>2026-04-18T12:23:17.999Z</time></trkpt><trkpt lat="44.57801198516141" lon="10.066944407064687"><ele>723.0</ele><time>2026-04-18T12:23:18.998Z</time></trkpt><trkpt lat="44.57791550115982" lon="10.066973968328389"><ele>723.0</ele><time>2026-04-18T12:23:19.998Z</time></trkpt><trkpt lat="44.577819286948845" lon="10.06701533736605"><ele>723.0</ele><time>2026-04-18T12:23:20.998Z</time></trkpt><trkpt lat="44.57773368755072" lon="10.067089601565689"><ele>723.0</ele><time>2026-04-18T12:23:21.998Z</time></trkpt><trkpt lat="44.57766273845027" lon="10.067193082832356"><ele>723.0</ele><time>2026-04-18T12:23:22.998Z</time></trkpt><trkpt lat="44.57761790006817" lon="10.06732313706111"><ele>723.0</ele><time>2026-04-18T12:23:23.998Z</time></trkpt><trkpt lat="44.57758601866962" lon="10.067462592835511"><ele>721.0</ele><time>2026-04-18T12:23:24.998Z</time></trkpt><trkpt lat="44.5775507691262" lon="10.067597057288857"><ele>719.0</ele><time>2026-04-18T12:23:25.998Z</time></trkpt><trkpt lat="44.57750929462455" lon="10.067732576179534"><ele>717.0</ele><time>2026-04-18T12:23:26.998Z</time></trkpt><trkpt lat="44.57746585308398" lon="10.067869850490705"><ele>715.0</ele><time>2026-04-18T12:23:27.998Z</time></trkpt><trkpt lat="44.57742312664025" lon="10.068004866811735"><ele>713.0</ele><time>2026-04-18T12:23:28.998Z</time></trkpt><trkpt lat="44.57738826325675" lon="10.068140672087287"><ele>711.2</ele><time>2026-04-18T12:23:29.998Z</time></trkpt><trkpt lat="44.57736366579604" lon="10.06828073148996"><ele>709.4</ele><time>2026-04-18T12:23:30.998Z</time></trkpt><trkpt lat="44.57735403198617" lon="10.068425034532577"><ele>707.6</ele><time>2026-04-18T12:23:31.998Z</time></trkpt><trkpt lat="44.57733335795126" lon="10.068565297874386"><ele>705.8000000000001</ele><time>2026-04-18T12:23:32.998Z</time></trkpt><trkpt lat="44.57729561191711" lon="10.068703177595378"><ele>704.0</ele><time>2026-04-18T12:23:33.998Z</time></trkpt><trkpt lat="44.57724474659543" lon="10.068833913813302"><ele>704.0</ele><time>2026-04-18T12:23:34.998Z</time></trkpt><trkpt lat="44.57720070544744" lon="10.068962963123445"><ele>704.0</ele><time>2026-04-18T12:23:35.998Z</time></trkpt><trkpt lat="44.57715628959071" lon="10.069093221821516"><ele>704.0</ele><time>2026-04-18T12:23:36.998Z</time></trkpt><trkpt lat="44.577113641321944" lon="10.069225050566107"><ele>704.0</ele><time>2026-04-18T12:23:37.998Z</time></trkpt><trkpt lat="44.577077899854544" lon="10.069362927601121"><ele>704.0</ele><time>2026-04-18T12:23:38.998Z</time></trkpt><trkpt lat="44.57703766699224" lon="10.069492026205305"><ele>704.0</ele><time>2026-04-18T12:23:39.998Z</time></trkpt><trkpt lat="44.57699263952356" lon="10.069624303152159"><ele>704.0</ele><time>2026-04-18T12:23:40.998Z</time></trkpt><trkpt lat="44.57692095890224" lon="10.069738843688526"><ele>704.0</ele><time>2026-04-18T12:23:41.998Z</time></trkpt><trkpt lat="44.576864351442914" lon="10.069857948597091"><ele>704.0</ele><time>2026-04-18T12:23:42.998Z</time></trkpt><trkpt lat="44.57680017387655" lon="10.069968589018815"><ele>704.0</ele><time>2026-04-18T12:23:43.998Z</time></trkpt><trkpt lat="44.576712600663576" lon="10.070064477422735"><ele>704.0</ele><time>2026-04-18T12:23:44.998Z</time></trkpt><trkpt lat="44.576609538096" lon="10.070127628589791"><ele>704.0</ele><time>2026-04-18T12:23:45.998Z</time></trkpt><trkpt lat="44.57649374682867" lon="10.070141194409118"><ele>704.0</ele><time>2026-04-18T12:23:47Z</time></trkpt><trkpt lat="44.57639065433157" lon="10.070122902304446"><ele>704.0</ele><time>2026-04-18T12:23:48Z</time></trkpt><trkpt lat="44.576279673022846" lon="10.070085169487221"><ele>704.0</ele><time>2026-04-18T12:23:49Z</time></trkpt><trkpt lat="44.5761714665765" lon="10.070061334388894"><ele>705.8000000000001</ele><time>2026-04-18T12:23:50Z</time></trkpt><trkpt lat="44.576057521956024" lon="10.070076713512805"><ele>707.6</ele><time>2026-04-18T12:23:51Z</time></trkpt><trkpt lat="44.575951080352056" lon="10.070125959178013"><ele>709.4</ele><time>2026-04-18T12:23:52Z</time></trkpt><trkpt lat="44.575850337455904" lon="10.070191002142497"><ele>711.2</ele><time>2026-04-18T12:23:53Z</time></trkpt><trkpt lat="44.57576100858757" lon="10.070264717797045"><ele>713.0</ele><time>2026-04-18T12:23:54Z</time></trkpt><trkpt lat="44.5756766557721" lon="10.070340811188476"><ele>713.0</ele><time>2026-04-18T12:23:55Z</time></trkpt><trkpt lat="44.57558497093527" lon="10.07041095264387"><ele>713.0</ele><time>2026-04-18T12:23:56Z</time></trkpt><trkpt lat="44.57549295232235" lon="10.070480386978126"><ele>713.0</ele><time>2026-04-18T12:23:57Z</time></trkpt><trkpt lat="44.57540383331277" lon="10.07056067742212"><ele>713.0</ele><time>2026-04-18T12:23:58Z</time></trkpt><trkpt lat="44.57532279077621" lon="10.07065956659918"><ele>713.0</ele><time>2026-04-18T12:23:59Z</time></trkpt><trkpt lat="44.575249448721046" lon="10.070769441187961"><ele>711.5999999999999</ele><time>2026-04-18T12:24:00Z</time></trkpt><trkpt lat="44.57517759715245" lon="10.070880821896575"><ele>710.1999999999999</ele><time>2026-04-18T12:24:01Z</time></trkpt><trkpt lat="44.57509861578997" lon="10.070995010951634"><ele>708.8</ele><time>2026-04-18T12:24:02Z</time></trkpt><trkpt lat="44.575025525446414" lon="10.071108038857936"><ele>707.4</ele><time>2026-04-18T12:24:03Z</time></trkpt><trkpt lat="44.574958678224135" lon="10.071218260590499"><ele>706.0</ele><time>2026-04-18T12:24:04Z</time></trkpt><trkpt lat="44.5748922916773" lon="10.071333635700114"><ele>706.0</ele><time>2026-04-18T12:24:05Z</time></trkpt><trkpt lat="44.57483302523983" lon="10.071450531210534"><ele>706.0</ele><time>2026-04-18T12:24:06Z</time></trkpt><trkpt lat="44.57477202151691" lon="10.071569874231653"><ele>706.0</ele><time>2026-04-18T12:24:07Z</time></trkpt><trkpt lat="44.57470012045044" lon="10.071682981948207"><ele>706.0</ele><time>2026-04-18T12:24:08Z</time></trkpt><trkpt lat="44.57463906352068" lon="10.071808641625157"><ele>706.0</ele><time>2026-04-18T12:24:09Z</time></trkpt><trkpt lat="44.57459225817046" lon="10.07193954404877"><ele>707.0</ele><time>2026-04-18T12:24:10Z</time></trkpt><trkpt lat="44.57455285315587" lon="10.072073318638223"><ele>708.0</ele><time>2026-04-18T12:24:11Z</time></trkpt><trkpt lat="44.574514070195896" lon="10.072209994932509"><ele>709.0</ele><time>2026-04-18T12:24:12Z</time></trkpt><trkpt lat="44.57447613734753" lon="10.072349711538438"><ele>710.0</ele><time>2026-04-18T12:24:13Z</time></trkpt><trkpt lat="44.57443698404619" lon="10.07248510147956"><ele>711.0</ele><time>2026-04-18T12:24:14Z</time></trkpt><trkpt lat="44.57439942975423" lon="10.072624544862142"><ele>711.0</ele><time>2026-04-18T12:24:15Z</time></trkpt><trkpt lat="44.574360979968546" lon="10.072758570066075"><ele>711.0</ele><time>2026-04-18T12:24:16Z</time></trkpt><trkpt lat="44.57432045032725" lon="10.07289202602485"><ele>711.0</ele><time>2026-04-18T12:24:17Z</time></trkpt><trkpt lat="44.57427981003948" lon="10.07302522084708"><ele>711.0</ele><time>2026-04-18T12:24:18Z</time></trkpt><trkpt lat="44.574236845686094" lon="10.073158873723965"><ele>711.0</ele><time>2026-04-18T12:24:19Z</time></trkpt><trkpt lat="44.57417697672807" lon="10.073280813436558"><ele>707.8</ele><time>2026-04-18T12:24:20Z</time></trkpt><trkpt lat="44.57409528586335" lon="10.073380340182348"><ele>704.5999999999999</ele><time>2026-04-18T12:24:21Z</time></trkpt><trkpt lat="44.57401683526173" lon="10.073472149419715"><ele>701.4</ele><time>2026-04-18T12:24:22Z</time></trkpt><trkpt lat="44.573934352029696" lon="10.073562975209045"><ele>698.2</ele><time>2026-04-18T12:24:23Z</time></trkpt><trkpt lat="44.57385796446158" lon="10.073660887844543"><ele>695.0</ele><time>2026-04-18T12:24:24Z</time></trkpt><trkpt lat="44.57377659745356" lon="10.073757488656964"><ele>695.0</ele><time>2026-04-18T12:24:25Z</time></trkpt><trkpt lat="44.57369535689825" lon="10.07386178417178"><ele>695.0</ele><time>2026-04-18T12:24:26Z</time></trkpt><trkpt lat="44.57362502239526" lon="10.073981302536405"><ele>695.0</ele><time>2026-04-18T12:24:27Z</time></trkpt><trkpt lat="44.573555173007165" lon="10.074112154340032"><ele>695.0</ele><time>2026-04-18T12:24:28Z</time></trkpt><trkpt lat="44.57351005099412" lon="10.074263521239043"><ele>694.2</ele><time>2026-04-18T12:24:29Z</time></trkpt><trkpt lat="44.573478656086884" lon="10.074410538839553"><ele>693.4</ele><time>2026-04-18T12:24:29.999Z</time></trkpt><trkpt lat="44.57345139501031" lon="10.07455204364731"><ele>692.5999999999999</ele><time>2026-04-18T12:24:30.999Z</time></trkpt><trkpt lat="44.573446179597894" lon="10.074697457889496"><ele>691.8</ele><time>2026-04-18T12:24:31.999Z</time></trkpt><trkpt lat="44.57348999477316" lon="10.074827876971392"><ele>691.0</ele><time>2026-04-18T12:24:32.999Z</time></trkpt><trkpt lat="44.57357019750847" lon="10.074911033739749"><ele>691.0</ele><time>2026-04-18T12:24:33.999Z</time></trkpt><trkpt lat="44.57366190027479" lon="10.074968047879553"><ele>691.0</ele><time>2026-04-18T12:24:34.999Z</time></trkpt><trkpt lat="44.57375513673036" lon="10.075016264079077"><ele>691.0</ele><time>2026-04-18T12:24:35.999Z</time></trkpt><trkpt lat="44.573854319209424" lon="10.075037073410199"><ele>691.0</ele><time>2026-04-18T12:24:36.999Z</time></trkpt><trkpt lat="44.57395095760946" lon="10.075037474077725"><ele>691.0</ele><time>2026-04-18T12:24:37.999Z</time></trkpt><trkpt lat="44.5740454015018" lon="10.075019636408141"><ele>690.4</ele><time>2026-04-18T12:24:38.999Z</time></trkpt><trkpt lat="44.57413894753594" lon="10.07499118771374"><ele>689.8</ele><time>2026-04-18T12:24:39.999Z</time></trkpt><trkpt lat="44.57423213407626" lon="10.074977951547263"><ele>689.1999999999999</ele><time>2026-04-18T12:24:40.999Z</time></trkpt><trkpt lat="44.574330151848116" lon="10.074983732358588"><ele>688.5999999999999</ele><time>2026-04-18T12:24:41.999Z</time></trkpt><trkpt lat="44.574422371729156" lon="10.07499760521882"><ele>688.0</ele><time>2026-04-18T12:24:42.999Z</time></trkpt><trkpt lat="44.57451316264079" lon="10.075023264287234"><ele>687.4</ele><time>2026-04-18T12:24:43.999Z</time></trkpt><trkpt lat="44.5746013596902" lon="10.075059964104163"><ele>686.8</ele><time>2026-04-18T12:24:44.999Z</time></trkpt><trkpt lat="44.57468824711151" lon="10.075101523492192"><ele>686.2</ele><time>2026-04-18T12:24:45.999Z</time></trkpt><trkpt lat="44.57477380730105" lon="10.075148169656817"><ele>685.6</ele><time>2026-04-18T12:24:46.999Z</time></trkpt><trkpt lat="44.57485712938272" lon="10.07519688984854"><ele>685.0</ele><time>2026-04-18T12:24:47.999Z</time></trkpt><trkpt lat="44.57494044583034" lon="10.075248796658583"><ele>685.0</ele><time>2026-04-18T12:24:48.999Z</time></trkpt><trkpt lat="44.5750247665679" lon="10.075295807548112"><ele>685.0</ele><time>2026-04-18T12:24:49.999Z</time></trkpt><trkpt lat="44.57511076311465" lon="10.075333148196234"><ele>685.0</ele><time>2026-04-18T12:24:50.999Z</time></trkpt><trkpt lat="44.57519632151862" lon="10.075375739022867"><ele>685.0</ele><time>2026-04-18T12:24:51.999Z</time></trkpt><trkpt lat="44.575284792413186" lon="10.075407467490733"><ele>685.0</ele><time>2026-04-18T12:24:52.999Z</time></trkpt><trkpt lat="44.5753746241216" lon="10.075429455613547"><ele>684.0</ele><time>2026-04-18T12:24:53.999Z</time></trkpt><trkpt lat="44.575467336676645" lon="10.075427209612462"><ele>683.0</ele><time>2026-04-18T12:24:54.999Z</time></trkpt><trkpt lat="44.575562530528295" lon="10.075413734626238"><ele>682.0</ele><time>2026-04-18T12:24:55.999Z</time></trkpt><trkpt lat="44.57566182410383" lon="10.07541435191552"><ele>681.0</ele><time>2026-04-18T12:24:56.999Z</time></trkpt><trkpt lat="44.575760441275975" lon="10.075413593085512"><ele>680.0</ele><time>2026-04-18T12:24:57.999Z</time></trkpt><trkpt lat="44.57586011541292" lon="10.075411199319063"><ele>680.0</ele><time>2026-04-18T12:24:58.999Z</time></trkpt><trkpt lat="44.575960767960765" lon="10.075409303077704"><ele>680.0</ele><time>2026-04-18T12:24:59.999Z</time></trkpt><trkpt lat="44.57605954186454" lon="10.07541090902903"><ele>680.0</ele><time>2026-04-18T12:25:00.999Z</time></trkpt><trkpt lat="44.57615751030245" lon="10.07542660148077"><ele>680.0</ele><time>2026-04-18T12:25:01.999Z</time></trkpt><trkpt lat="44.576253679519425" lon="10.075456020878605"><ele>680.0</ele><time>2026-04-18T12:25:02.999Z</time></trkpt><trkpt lat="44.57634840843618" lon="10.075502522242441"><ele>679.8</ele><time>2026-04-18T12:25:03.999Z</time></trkpt><trkpt lat="44.576439461521446" lon="10.075567421612817"><ele>679.6</ele><time>2026-04-18T12:25:04.999Z</time></trkpt><trkpt lat="44.576526996469646" lon="10.075637090876953"><ele>679.4000000000001</ele><time>2026-04-18T12:25:05.999Z</time></trkpt><trkpt lat="44.57661293053137" lon="10.075715395028505"><ele>679.2</ele><time>2026-04-18T12:25:06.999Z</time></trkpt><trkpt lat="44.576694677144815" lon="10.07580140277798"><ele>679.0</ele><time>2026-04-18T12:25:07.999Z</time></trkpt><trkpt lat="44.57676542677605" lon="10.075906143277846"><ele>679.6</ele><time>2026-04-18T12:25:08.999Z</time></trkpt><trkpt lat="44.57682868668123" lon="10.076021028014324"><ele>680.2</ele><time>2026-04-18T12:25:09.999Z</time></trkpt><trkpt lat="44.57688213543111" lon="10.07614378836186"><ele>680.8000000000001</ele><time>2026-04-18T12:25:10.999Z</time></trkpt><trkpt lat="44.576930804216985" lon="10.076262644811107"><ele>681.4000000000001</ele><time>2026-04-18T12:25:11.999Z</time></trkpt><trkpt lat="44.576971651814716" lon="10.076389200730189"><ele>682.0</ele><time>2026-04-18T12:25:12.999Z</time></trkpt><trkpt lat="44.57701296406997" lon="10.076508079973177"><ele>680.5</ele><time>2026-04-18T12:25:13.999Z</time></trkpt><trkpt lat="44.57704921288036" lon="10.076615371989798"><ele>679.0</ele><time>2026-04-18T12:25:14.999Z</time></trkpt><trkpt lat="44.57707572191246" lon="10.076705746153346"><ele>677.5</ele><time>2026-04-18T12:25:15.999Z</time></trkpt><trkpt lat="44.57711531731057" lon="10.076849777403094"><ele>676.0</ele><time>2026-04-18T12:25:17.999Z</time></trkpt><trkpt lat="44.577149686449495" lon="10.076945292695896"><ele>674.5</ele><time>2026-04-18T12:25:19.999Z</time></trkpt><trkpt lat="44.57718783383468" lon="10.077024314856645"><ele>673.0</ele><time>2026-04-18T12:25:22.998Z</time></trkpt><trkpt lat="44.577198767465234" lon="10.076935262354104"><ele>673.0</ele><time>2026-04-18T12:25:26.998Z</time></trkpt><trkpt lat="44.57715662213199" lon="10.076867998212558"><ele>673.0</ele><time>2026-04-18T12:25:30.998Z</time></trkpt><trkpt lat="44.577109879538185" lon="10.076798418464888"><ele>673.0</ele><time>2026-04-18T12:25:33.998Z</time></trkpt><trkpt lat="44.57704991258517" lon="10.076749669243128"><ele>673.0</ele><time>2026-04-18T12:26:12Z</time></trkpt><trkpt lat="44.57709820046772" lon="10.076846767024309"><ele>673.0</ele><time>2026-04-18T12:30:46.999Z</time></trkpt><trkpt lat="44.57715872538382" lon="10.07690920996394"><ele>673.0</ele><time>2026-04-18T12:31:07.999Z</time></trkpt><trkpt lat="44.57719897318418" lon="10.077002147869786"><ele>673.0</ele><time>2026-04-18T12:31:11.999Z</time></trkpt><trkpt lat="44.57723962399644" lon="10.077111295149631"><ele>673.0</ele><time>2026-04-18T12:31:14.999Z</time></trkpt><trkpt lat="44.57725510105304" lon="10.07721420152998"><ele>673.0</ele><time>2026-04-18T12:31:16.999Z</time></trkpt><trkpt lat="44.577277892920804" lon="10.077321032298197"><ele>673.0</ele><time>2026-04-18T12:31:18.999Z</time></trkpt><trkpt lat="44.577315864505465" lon="10.07742945791478"><ele>673.0</ele><time>2026-04-18T12:31:20.999Z</time></trkpt><trkpt lat="44.577346372561465" lon="10.077527248031087"><ele>673.0</ele><time>2026-04-18T12:31:22.999Z</time></trkpt><trkpt lat="44.577387130249775" lon="10.077624982687022"><ele>673.0</ele><time>2026-04-18T12:31:24.999Z</time></trkpt><trkpt lat="44.57741500173968" lon="10.077731135691062"><ele>674.0</ele><time>2026-04-18T12:31:26.999Z</time></trkpt><trkpt lat="44.577448582946104" lon="10.077846636994444"><ele>675.0</ele><time>2026-04-18T12:31:28.999Z</time></trkpt><trkpt lat="44.57749530331328" lon="10.077998873811312"><ele>676.0</ele><time>2026-04-18T12:31:30.999Z</time></trkpt><trkpt lat="44.57753926707609" lon="10.07813750155392"><ele>677.0</ele><time>2026-04-18T12:31:32.998Z</time></trkpt><trkpt lat="44.57758543005805" lon="10.078280597338738"><ele>678.0</ele><time>2026-04-18T12:31:34.998Z</time></trkpt><trkpt lat="44.57763053878805" lon="10.07842486602553"><ele>677.0</ele><time>2026-04-18T12:31:36.998Z</time></trkpt><trkpt lat="44.57768040831015" lon="10.078568358387953"><ele>676.0</ele><time>2026-04-18T12:31:38.998Z</time></trkpt><trkpt lat="44.57773473222561" lon="10.078714511626009"><ele>675.0</ele><time>2026-04-18T12:31:40.998Z</time></trkpt><trkpt lat="44.577815533586616" lon="10.07883576009778"><ele>674.0</ele><time>2026-04-18T12:31:42.998Z</time></trkpt><trkpt lat="44.57792698850849" lon="10.078909341695294"><ele>674.0000000000001</ele><time>2026-04-18T12:31:44.998Z</time></trkpt><trkpt lat="44.57799324824043" lon="10.07891498237746"><ele>674.0</ele><time>2026-04-18T12:31:45.998Z</time></trkpt><trkpt lat="44.578055473208046" lon="10.078901123704393"><ele>674.0</ele><time>2026-04-18T12:31:46.998Z</time></trkpt><trkpt lat="44.57812024935712" lon="10.078876141048237"><ele>674.0</ele><time>2026-04-18T12:31:47.998Z</time></trkpt><trkpt lat="44.578179959362586" lon="10.078832365797286"><ele>674.0</ele><time>2026-04-18T12:31:48.998Z</time></trkpt><trkpt lat="44.57823938863465" lon="10.078782516626017"><ele>674.0000000000001</ele><time>2026-04-18T12:31:49.998Z</time></trkpt><trkpt lat="44.578291586345365" lon="10.07871860504704"><ele>674.0</ele><time>2026-04-18T12:31:50.998Z</time></trkpt><trkpt lat="44.57834158724264" lon="10.078654437163785"><ele>674.0</ele><time>2026-04-18T12:31:51.998Z</time></trkpt><trkpt lat="44.578396833603385" lon="10.078585297314453"><ele>674.0</ele><time>2026-04-18T12:31:52.998Z</time></trkpt><trkpt lat="44.578457229816074" lon="10.078523308185703"><ele>674.0</ele><time>2026-04-18T12:31:53.998Z</time></trkpt><trkpt lat="44.57852119932224" lon="10.078458000171814"><ele>674.0</ele><time>2026-04-18T12:31:54.998Z</time></trkpt><trkpt lat="44.578585904198206" lon="10.078393547361921"><ele>674.0</ele><time>2026-04-18T12:31:55.998Z</time></trkpt><trkpt lat="44.578650125174335" lon="10.07832798510102"><ele>674.0</ele><time>2026-04-18T12:31:56.998Z</time></trkpt><trkpt lat="44.57871198277132" lon="10.07824238746489"><ele>673.1666666666666</ele><time>2026-04-18T12:31:57.998Z</time></trkpt><trkpt lat="44.578775474255465" lon="10.078173910068546"><ele>672.3333333333333</ele><time>2026-04-18T12:31:58.998Z</time></trkpt><trkpt lat="44.57884413663288" lon="10.078099788782557"><ele>671.5</ele><time>2026-04-18T12:31:59.998Z</time></trkpt><trkpt lat="44.57891552099136" lon="10.078015240903643"><ele>670.6666666666666</ele><time>2026-04-18T12:32:00.998Z</time></trkpt><trkpt lat="44.57897974686421" lon="10.077933409624338"><ele>669.8333333333334</ele><time>2026-04-18T12:32:01.998Z</time></trkpt><trkpt lat="44.57905357190686" lon="10.077862912372087"><ele>669.0</ele><time>2026-04-18T12:32:02.998Z</time></trkpt><trkpt lat="44.57912059442415" lon="10.077795152866804"><ele>669.0</ele><time>2026-04-18T12:32:03.998Z</time></trkpt><trkpt lat="44.579199555883726" lon="10.077740940937577"><ele>669.0</ele><time>2026-04-18T12:32:04.998Z</time></trkpt><trkpt lat="44.57929195974842" lon="10.07769944585959"><ele>669.0</ele><time>2026-04-18T12:32:05.998Z</time></trkpt><trkpt lat="44.57939607196597" lon="10.077783893347803"><ele>669.0</ele><time>2026-04-18T12:32:07.998Z</time></trkpt><trkpt lat="44.57947376993369" lon="10.077838214283508"><ele>669.0</ele><time>2026-04-18T12:32:09Z</time></trkpt><trkpt lat="44.57957857031772" lon="10.077893279634276"><ele>666.0</ele><time>2026-04-18T12:32:10Z</time></trkpt><trkpt lat="44.5796724405785" lon="10.077939575302615"><ele>663.0</ele><time>2026-04-18T12:32:11Z</time></trkpt><trkpt lat="44.57976987302082" lon="10.07799112949626"><ele>660.0</ele><time>2026-04-18T12:32:12Z</time></trkpt><trkpt lat="44.57990986952881" lon="10.078067509246845"><ele>657.0</ele><time>2026-04-18T12:32:14Z</time></trkpt><trkpt lat="44.58001531001889" lon="10.078125021706748"><ele>657.0</ele><time>2026-04-18T12:32:15Z</time></trkpt><trkpt lat="44.580126439415324" lon="10.078165854783798"><ele>657.0</ele><time>2026-04-18T12:32:17Z</time></trkpt><trkpt lat="44.580192873143524" lon="10.078170972605008"><ele>657.0</ele><time>2026-04-18T12:32:18Z</time></trkpt><trkpt lat="44.580268311922815" lon="10.078159513271881"><ele>657.0</ele><time>2026-04-18T12:32:19Z</time></trkpt><trkpt lat="44.58035922494053" lon="10.078145927792164"><ele>657.0</ele><time>2026-04-18T12:32:20Z</time></trkpt><trkpt lat="44.58044139695889" lon="10.078117718649684"><ele>657.0</ele><time>2026-04-18T12:32:21Z</time></trkpt><trkpt lat="44.58052379375315" lon="10.078092493808471"><ele>657.6666666666666</ele><time>2026-04-18T12:32:22Z</time></trkpt><trkpt lat="44.58061710608394" lon="10.0780781275673"><ele>658.3333333333334</ele><time>2026-04-18T12:32:23Z</time></trkpt><trkpt lat="44.58070640031031" lon="10.078081076723485"><ele>659.0</ele><time>2026-04-18T12:32:24Z</time></trkpt><trkpt lat="44.58080006737309" lon="10.078127099875408"><ele>659.6666666666667</ele><time>2026-04-18T12:32:25Z</time></trkpt><trkpt lat="44.58084478430138" lon="10.078208869994578"><ele>660.3333333333334</ele><time>2026-04-18T12:32:26Z</time></trkpt><trkpt lat="44.58088481642337" lon="10.078321845289736"><ele>661.0</ele><time>2026-04-18T12:32:27Z</time></trkpt><trkpt lat="44.58089932093385" lon="10.07845745004813"><ele>661.0</ele><time>2026-04-18T12:32:28Z</time></trkpt><trkpt lat="44.58085052587618" lon="10.078586297799772"><ele>661.0</ele><time>2026-04-18T12:32:29Z</time></trkpt><trkpt lat="44.580840946413396" lon="10.078708489392621"><ele>661.0</ele><time>2026-04-18T12:32:30Z</time></trkpt><trkpt lat="44.580878708565606" lon="10.078859639263156"><ele>661.0</ele><time>2026-04-18T12:32:31Z</time></trkpt><trkpt lat="44.5809169465142" lon="10.078997148616178"><ele>661.0</ele><time>2026-04-18T12:32:32Z</time></trkpt><trkpt lat="44.58097110799514" lon="10.079130957614622"><ele>661.5999999999999</ele><time>2026-04-18T12:32:33Z</time></trkpt><trkpt lat="44.58103512693647" lon="10.079254708928824"><ele>662.2</ele><time>2026-04-18T12:32:34Z</time></trkpt><trkpt lat="44.58110889954617" lon="10.07937137969921"><ele>662.8</ele><time>2026-04-18T12:32:35Z</time></trkpt><trkpt lat="44.581193987482024" lon="10.079471498657472"><ele>663.4000000000001</ele><time>2026-04-18T12:32:36Z</time></trkpt><trkpt lat="44.58128659954859" lon="10.079563393943998"><ele>664.0</ele><time>2026-04-18T12:32:37Z</time></trkpt><trkpt lat="44.581376592318705" lon="10.079628014216137"><ele>659.25</ele><time>2026-04-18T12:32:38Z</time></trkpt><trkpt lat="44.58148609428916" lon="10.07965796317772"><ele>654.5</ele><time>2026-04-18T12:32:39Z</time></trkpt><trkpt lat="44.5816032768852" lon="10.079637921835728"><ele>649.75</ele><time>2026-04-18T12:32:40Z</time></trkpt><trkpt lat="44.58171265304408" lon="10.079583275763424"><ele>645.0</ele><time>2026-04-18T12:32:41Z</time></trkpt><trkpt lat="44.58182825249597" lon="10.079539559210094"><ele>645.0</ele><time>2026-04-18T12:32:42Z</time></trkpt><trkpt lat="44.581931362095375" lon="10.079496018413824"><ele>645.0</ele><time>2026-04-18T12:32:43Z</time></trkpt><trkpt lat="44.582039281123784" lon="10.079464164344142"><ele>645.0</ele><time>2026-04-18T12:32:43.999Z</time></trkpt><trkpt lat="44.58213415464123" lon="10.079433426151233"><ele>645.0</ele><time>2026-04-18T12:32:44.999Z</time></trkpt><trkpt lat="44.582225280365975" lon="10.079447019804451"><ele>645.0</ele><time>2026-04-18T12:32:45.999Z</time></trkpt><trkpt lat="44.58229577100597" lon="10.079508781123065"><ele>642.4</ele><time>2026-04-18T12:32:46.999Z</time></trkpt><trkpt lat="44.582356651257655" lon="10.079569732734516"><ele>639.8</ele><time>2026-04-18T12:32:47.999Z</time></trkpt><trkpt lat="44.58245340664005" lon="10.079808400012842"><ele>637.2</ele><time>2026-04-18T12:32:48.999Z</time></trkpt><trkpt lat="44.58245857233361" lon="10.079928862229306"><ele>634.6</ele><time>2026-04-18T12:32:49.999Z</time></trkpt><trkpt lat="44.582442542628314" lon="10.080042634151496"><ele>632.0</ele><time>2026-04-18T12:32:50.999Z</time></trkpt><trkpt lat="44.58237244965901" lon="10.080164646480414"><ele>631.8000000000001</ele><time>2026-04-18T12:32:51.999Z</time></trkpt><trkpt lat="44.58230809258105" lon="10.080247759988074"><ele>631.6</ele><time>2026-04-18T12:32:52.999Z</time></trkpt><trkpt lat="44.58223261540712" lon="10.08036017876652"><ele>631.4000000000001</ele><time>2026-04-18T12:32:53.999Z</time></trkpt><trkpt lat="44.582171999351054" lon="10.080479433865365"><ele>631.2</ele><time>2026-04-18T12:32:54.999Z</time></trkpt><trkpt lat="44.582128240196425" lon="10.080627623530022"><ele>631.0</ele><time>2026-04-18T12:32:55.999Z</time></trkpt><trkpt lat="44.58209777947545" lon="10.080776503882138"><ele>626.25</ele><time>2026-04-18T12:32:56.999Z</time></trkpt><trkpt lat="44.582057275273385" lon="10.080930169417343"><ele>621.5</ele><time>2026-04-18T12:32:57.999Z</time></trkpt><trkpt lat="44.58202392190534" lon="10.081080018259911"><ele>616.75</ele><time>2026-04-18T12:32:58.999Z</time></trkpt><trkpt lat="44.58199438768193" lon="10.08123045805776"><ele>612.0</ele><time>2026-04-18T12:32:59.999Z</time></trkpt><trkpt lat="44.58196442612004" lon="10.081383763254058"><ele>619.6</ele><time>2026-04-18T12:33:00.999Z</time></trkpt><trkpt lat="44.58193529497467" lon="10.081537178308373"><ele>627.2</ele><time>2026-04-18T12:33:01.999Z</time></trkpt><trkpt lat="44.58190445190945" lon="10.081685449558561"><ele>634.8</ele><time>2026-04-18T12:33:02.999Z</time></trkpt><trkpt lat="44.58187031320683" lon="10.081831823396122"><ele>642.4</ele><time>2026-04-18T12:33:03.999Z</time></trkpt><trkpt lat="44.58183250864153" lon="10.0819806227033"><ele>650.0</ele><time>2026-04-18T12:33:04.999Z</time></trkpt><trkpt lat="44.58177917486255" lon="10.082118739913192"><ele>650.0</ele><time>2026-04-18T12:33:05.999Z</time></trkpt><trkpt lat="44.58170445148797" lon="10.082250391442178"><ele>650.0</ele><time>2026-04-18T12:33:06.999Z</time></trkpt><trkpt lat="44.58162728006773" lon="10.082379957565923"><ele>650.0</ele><time>2026-04-18T12:33:07.999Z</time></trkpt><trkpt lat="44.58155171328247" lon="10.082500339638704"><ele>650.0</ele><time>2026-04-18T12:33:08.999Z</time></trkpt><trkpt lat="44.58148196865492" lon="10.082635139877462"><ele>643.0</ele><time>2026-04-18T12:33:09.999Z</time></trkpt><trkpt lat="44.58141116849052" lon="10.082747092342336"><ele>636.0</ele><time>2026-04-18T12:33:10.999Z</time></trkpt><trkpt lat="44.58134500416776" lon="10.082884296817959"><ele>629.0</ele><time>2026-04-18T12:33:11.999Z</time></trkpt><trkpt lat="44.58128380067332" lon="10.083030559595272"><ele>622.0</ele><time>2026-04-18T12:33:12.999Z</time></trkpt><trkpt lat="44.58122945620444" lon="10.08317536832977"><ele>629.0</ele><time>2026-04-18T12:33:13.999Z</time></trkpt><trkpt lat="44.581167384262386" lon="10.083315948874997"><ele>636.0</ele><time>2026-04-18T12:33:14.999Z</time></trkpt><trkpt lat="44.58110376075732" lon="10.083453049448858"><ele>643.0</ele><time>2026-04-18T12:33:15.999Z</time></trkpt><trkpt lat="44.58102813828194" lon="10.083588083924555"><ele>650.0</ele><time>2026-04-18T12:33:16.999Z</time></trkpt><trkpt lat="44.58096090235093" lon="10.083727511349215"><ele>650.0</ele><time>2026-04-18T12:33:17.999Z</time></trkpt><trkpt lat="44.580899576919315" lon="10.083876330213142"><ele>650.0</ele><time>2026-04-18T12:33:18.999Z</time></trkpt><trkpt lat="44.58082831341989" lon="10.084010636584784"><ele>650.0</ele><time>2026-04-18T12:33:19.999Z</time></trkpt><trkpt lat="44.580749872390626" lon="10.084144484587727"><ele>650.0</ele><time>2026-04-18T12:33:20.999Z</time></trkpt><trkpt lat="44.58066661929157" lon="10.084277486717069"><ele>656.0</ele><time>2026-04-18T12:33:21.999Z</time></trkpt><trkpt lat="44.58058498686397" lon="10.084412632893995"><ele>662.0</ele><time>2026-04-18T12:33:22.999Z</time></trkpt><trkpt lat="44.580503745218735" lon="10.08455240188797"><ele>668.0</ele><time>2026-04-18T12:33:23.999Z</time></trkpt><trkpt lat="44.580422285479266" lon="10.084694686427481"><ele>674.0</ele><time>2026-04-18T12:33:24.999Z</time></trkpt><trkpt lat="44.58034010515688" lon="10.084835308712062"><ele>665.0</ele><time>2026-04-18T12:33:25.999Z</time></trkpt><trkpt lat="44.58026456626803" lon="10.084981281503577"><ele>656.0</ele><time>2026-04-18T12:33:26.999Z</time></trkpt><trkpt lat="44.580193789594624" lon="10.08512282865888"><ele>647.0</ele><time>2026-04-18T12:33:27.999Z</time></trkpt><trkpt lat="44.58010647813568" lon="10.08525948952987"><ele>638.0</ele><time>2026-04-18T12:33:28.999Z</time></trkpt><trkpt lat="44.58002866831559" lon="10.085403339433132"><ele>638.0</ele><time>2026-04-18T12:33:29.999Z</time></trkpt><trkpt lat="44.57995066241784" lon="10.085547473198726"><ele>638.0</ele><time>2026-04-18T12:33:30.999Z</time></trkpt><trkpt lat="44.5798729584082" lon="10.085676570616894"><ele>638.0</ele><time>2026-04-18T12:33:31.999Z</time></trkpt><trkpt lat="44.57980583696548" lon="10.085814963983283"><ele>638.0</ele><time>2026-04-18T12:33:32.999Z</time></trkpt><trkpt lat="44.5797315191975" lon="10.085947309092552"><ele>643.5</ele><time>2026-04-18T12:33:33.999Z</time></trkpt><trkpt lat="44.579658363560526" lon="10.086084803176888"><ele>649.0</ele><time>2026-04-18T12:33:34.999Z</time></trkpt><trkpt lat="44.579603823468474" lon="10.086236211581527"><ele>654.5</ele><time>2026-04-18T12:33:35.999Z</time></trkpt><trkpt lat="44.57954843525767" lon="10.086392027381484"><ele>660.0</ele><time>2026-04-18T12:33:36.999Z</time></trkpt><trkpt lat="44.57950521548329" lon="10.086550244120616"><ele>653.75</ele><time>2026-04-18T12:33:37.998Z</time></trkpt><trkpt lat="44.579473790519664" lon="10.08670824875783"><ele>647.5</ele><time>2026-04-18T12:33:38.998Z</time></trkpt><trkpt lat="44.57945241851447" lon="10.086872049408893"><ele>641.25</ele><time>2026-04-18T12:33:39.998Z</time></trkpt><trkpt lat="44.57945391892493" lon="10.087039828924366"><ele>635.0</ele><time>2026-04-18T12:33:40.998Z</time></trkpt><trkpt lat="44.57947538834953" lon="10.087199442739196"><ele>627.25</ele><time>2026-04-18T12:33:41.998Z</time></trkpt><trkpt lat="44.579542869491256" lon="10.087336369653285"><ele>619.5</ele><time>2026-04-18T12:33:42.998Z</time></trkpt><trkpt lat="44.579622662918766" lon="10.087456368989837"><ele>611.75</ele><time>2026-04-18T12:33:43.998Z</time></trkpt><trkpt lat="44.579715229653715" lon="10.087555496785354"><ele>604.0</ele><time>2026-04-18T12:33:44.998Z</time></trkpt><trkpt lat="44.57980631018128" lon="10.087646545688985"><ele>604.0</ele><time>2026-04-18T12:33:45.998Z</time></trkpt><trkpt lat="44.579892598829986" lon="10.087740224676535"><ele>604.0</ele><time>2026-04-18T12:33:46.998Z</time></trkpt><trkpt lat="44.5799803660948" lon="10.087816492746228"><ele>604.0</ele><time>2026-04-18T12:33:47.998Z</time></trkpt><trkpt lat="44.58007250071072" lon="10.08786991874104"><ele>604.0</ele><time>2026-04-18T12:33:48.998Z</time></trkpt><trkpt lat="44.58017358506374" lon="10.087887679313411"><ele>604.0</ele><time>2026-04-18T12:33:49.998Z</time></trkpt><trkpt lat="44.58027820863291" lon="10.087867334256805"><ele>602.8</ele><time>2026-04-18T12:33:50.998Z</time></trkpt><trkpt lat="44.580373134489506" lon="10.087795613991045"><ele>601.5999999999999</ele><time>2026-04-18T12:33:51.998Z</time></trkpt><trkpt lat="44.580467452874274" lon="10.087721908843898"><ele>600.4</ele><time>2026-04-18T12:33:52.998Z</time></trkpt><trkpt lat="44.58056225846793" lon="10.087670838442964"><ele>599.1999999999999</ele><time>2026-04-18T12:33:53.998Z</time></trkpt><trkpt lat="44.58066517357299" lon="10.087651218215566"><ele>598.0</ele><time>2026-04-18T12:33:54.998Z</time></trkpt><trkpt lat="44.58077546102425" lon="10.087661294008038"><ele>598.0</ele><time>2026-04-18T12:33:55.998Z</time></trkpt><trkpt lat="44.5808836967603" lon="10.087704099498216"><ele>598.0</ele><time>2026-04-18T12:33:56.998Z</time></trkpt><trkpt lat="44.580981390134106" lon="10.087791845608805"><ele>598.0</ele><time>2026-04-18T12:33:57.998Z</time></trkpt><trkpt lat="44.58106602119305" lon="10.087892275632267"><ele>598.0</ele><time>2026-04-18T12:33:58.998Z</time></trkpt><trkpt lat="44.58114823012539" lon="10.08798584535116"><ele>598.0</ele><time>2026-04-18T12:33:59.998Z</time></trkpt><trkpt lat="44.58123293059231" lon="10.088079036897646"><ele>595.4</ele><time>2026-04-18T12:34:00.998Z</time></trkpt><trkpt lat="44.58130301733951" lon="10.08818504979277"><ele>592.8</ele><time>2026-04-18T12:34:01.998Z</time></trkpt><trkpt lat="44.58135398206406" lon="10.088320136196687"><ele>590.2</ele><time>2026-04-18T12:34:02.998Z</time></trkpt><trkpt lat="44.5813880949688" lon="10.088438840409331"><ele>587.6</ele><time>2026-04-18T12:34:03.998Z</time></trkpt><trkpt lat="44.58144141345788" lon="10.088522517922579"><ele>585.0</ele><time>2026-04-18T12:34:04.998Z</time></trkpt><trkpt lat="44.58146465871212" lon="10.088667977951326"><ele>585.0</ele><time>2026-04-18T12:34:05.998Z</time></trkpt><trkpt lat="44.581479944471845" lon="10.088841291494981"><ele>585.0</ele><time>2026-04-18T12:34:06.998Z</time></trkpt><trkpt lat="44.58150984976774" lon="10.088986483660342"><ele>585.0</ele><time>2026-04-18T12:34:07.998Z</time></trkpt><trkpt lat="44.581556225901764" lon="10.08913044479489"><ele>585.0</ele><time>2026-04-18T12:34:08.998Z</time></trkpt><trkpt lat="44.58158495218247" lon="10.089284982469376"><ele>587.5</ele><time>2026-04-18T12:34:09.998Z</time></trkpt><trkpt lat="44.58162804323515" lon="10.089432197662397"><ele>590.0</ele><time>2026-04-18T12:34:10.998Z</time></trkpt><trkpt lat="44.581675631227284" lon="10.089581747606292"><ele>592.5</ele><time>2026-04-18T12:34:11.998Z</time></trkpt><trkpt lat="44.581729091314465" lon="10.08972467695757"><ele>595.0</ele><time>2026-04-18T12:34:12.998Z</time></trkpt><trkpt lat="44.581782477147165" lon="10.089863203005342"><ele>598.5</ele><time>2026-04-18T12:34:13.998Z</time></trkpt><trkpt lat="44.58187654646737" lon="10.090009555506875"><ele>602.0</ele><time>2026-04-18T12:34:15Z</time></trkpt><trkpt lat="44.58193088785398" lon="10.090144652875615"><ele>605.5</ele><time>2026-04-18T12:34:16Z</time></trkpt><trkpt lat="44.58199667008754" lon="10.09028803221388"><ele>609.0</ele><time>2026-04-18T12:34:17Z</time></trkpt><trkpt lat="44.58205948398507" lon="10.090420087090543"><ele>605.8</ele><time>2026-04-18T12:34:18Z</time></trkpt><trkpt lat="44.582115856072775" lon="10.090564245145648"><ele>602.5999999999999</ele><time>2026-04-18T12:34:19Z</time></trkpt><trkpt lat="44.58217489315968" lon="10.090693599283128"><ele>599.4</ele><time>2026-04-18T12:34:20Z</time></trkpt><trkpt lat="44.58223357288037" lon="10.09082211756466"><ele>596.1999999999999</ele><time>2026-04-18T12:34:21Z</time></trkpt><trkpt lat="44.58229320891906" lon="10.090950206199121"><ele>593.0</ele><time>2026-04-18T12:34:22Z</time></trkpt><trkpt lat="44.582365795496074" lon="10.091051802403333"><ele>593.0</ele><time>2026-04-18T12:34:23Z</time></trkpt><trkpt lat="44.58246832335735" lon="10.09112949578231"><ele>593.0</ele><time>2026-04-18T12:34:24Z</time></trkpt><trkpt lat="44.58257908080139" lon="10.091171298348774"><ele>593.0</ele><time>2026-04-18T12:34:25Z</time></trkpt><trkpt lat="44.58268104085078" lon="10.091172027720665"><ele>593.0</ele><time>2026-04-18T12:34:26Z</time></trkpt><trkpt lat="44.58278309383202" lon="10.091143078579655"><ele>593.0</ele><time>2026-04-18T12:34:27Z</time></trkpt><trkpt lat="44.582888146033596" lon="10.091091608151466"><ele>591.5</ele><time>2026-04-18T12:34:28Z</time></trkpt><trkpt lat="44.58303852992253" lon="10.09096691032324"><ele>590.0</ele><time>2026-04-18T12:34:29Z</time></trkpt><trkpt lat="44.58312249261328" lon="10.090912041131078"><ele>588.5</ele><time>2026-04-18T12:34:30Z</time></trkpt><trkpt lat="44.5832211602961" lon="10.090898352621439"><ele>587.0</ele><time>2026-04-18T12:34:31Z</time></trkpt><trkpt lat="44.583314873666694" lon="10.0908977860897"><ele>587.0</ele><time>2026-04-18T12:34:32Z</time></trkpt><trkpt lat="44.58339675180641" lon="10.09092060317207"><ele>587.0</ele><time>2026-04-18T12:34:33Z</time></trkpt><trkpt lat="44.58349568388503" lon="10.090943382359034"><ele>587.0</ele><time>2026-04-18T12:34:34Z</time></trkpt><trkpt lat="44.58361161321581" lon="10.090938824274897"><ele>587.0</ele><time>2026-04-18T12:34:35Z</time></trkpt><trkpt lat="44.583731749640236" lon="10.090885372953721"><ele>587.0</ele><time>2026-04-18T12:34:36Z</time></trkpt><trkpt lat="44.583838384801616" lon="10.09078265263164"><ele>582.25</ele><time>2026-04-18T12:34:37Z</time></trkpt><trkpt lat="44.58391960324899" lon="10.090645430836215"><ele>577.5</ele><time>2026-04-18T12:34:38Z</time></trkpt><trkpt lat="44.584018583048085" lon="10.090534289740347"><ele>572.75</ele><time>2026-04-18T12:34:39Z</time></trkpt><trkpt lat="44.58412108775557" lon="10.09045029780178"><ele>568.0</ele><time>2026-04-18T12:34:40Z</time></trkpt><trkpt lat="44.58422068114008" lon="10.090353043582468"><ele>568.0</ele><time>2026-04-18T12:34:41Z</time></trkpt><trkpt lat="44.58433404860491" lon="10.090310150420708"><ele>568.0</ele><time>2026-04-18T12:34:42Z</time></trkpt><trkpt lat="44.58443929191079" lon="10.090270422577277"><ele>568.0</ele><time>2026-04-18T12:34:43Z</time></trkpt><trkpt lat="44.58453653521173" lon="10.090235152983272"><ele>568.0</ele><time>2026-04-18T12:34:44Z</time></trkpt><trkpt lat="44.58462264278725" lon="10.09024148209306"><ele>568.0</ele><time>2026-04-18T12:34:45Z</time></trkpt><trkpt lat="44.58470357151893" lon="10.09032207743829"><ele>571.25</ele><time>2026-04-18T12:34:46Z</time></trkpt><trkpt lat="44.584788027628704" lon="10.090445300767064"><ele>574.5</ele><time>2026-04-18T12:34:47Z</time></trkpt><trkpt lat="44.58483548374618" lon="10.090593423236884"><ele>577.75</ele><time>2026-04-18T12:34:48Z</time></trkpt><trkpt lat="44.58490804940969" lon="10.090724780854146"><ele>581.0</ele><time>2026-04-18T12:34:48.999Z</time></trkpt><trkpt lat="44.58500371103131" lon="10.09081269458902"><ele>581.0</ele><time>2026-04-18T12:34:49.999Z</time></trkpt><trkpt lat="44.5851211375383" lon="10.090848148610261"><ele>581.0</ele><time>2026-04-18T12:34:50.999Z</time></trkpt><trkpt lat="44.58524315726441" lon="10.090865677241185"><ele>581.0</ele><time>2026-04-18T12:34:51.999Z</time></trkpt><trkpt lat="44.58534488582679" lon="10.09093699807782"><ele>581.0</ele><time>2026-04-18T12:34:52.999Z</time></trkpt><trkpt lat="44.585444255722166" lon="10.091037792443327"><ele>567.0</ele><time>2026-04-18T12:34:53.999Z</time></trkpt><trkpt lat="44.58550940950933" lon="10.091169457204284"><ele>553.0</ele><time>2026-04-18T12:34:54.999Z</time></trkpt><trkpt lat="44.585597261394085" lon="10.09129943428586"><ele>539.0</ele><time>2026-04-18T12:34:55.999Z</time></trkpt><trkpt lat="44.5856785458401" lon="10.091429715065162"><ele>525.0</ele><time>2026-04-18T12:34:56.999Z</time></trkpt><trkpt lat="44.58575459545466" lon="10.09156386160028"><ele>530.5</ele><time>2026-04-18T12:34:57.999Z</time></trkpt><trkpt lat="44.58580900234474" lon="10.091722122463064"><ele>536.0</ele><time>2026-04-18T12:34:58.999Z</time></trkpt><trkpt lat="44.58581960051727" lon="10.091900308379735"><ele>541.5</ele><time>2026-04-18T12:34:59.999Z</time></trkpt><trkpt lat="44.585794461395814" lon="10.092099694006876"><ele>547.0</ele><time>2026-04-18T12:35:00.999Z</time></trkpt><trkpt lat="44.58579332124468" lon="10.092286054780228"><ele>549.5</ele><time>2026-04-18T12:35:01.999Z</time></trkpt><trkpt lat="44.585793564079715" lon="10.092464581619375"><ele>552.0</ele><time>2026-04-18T12:35:02.999Z</time></trkpt><trkpt lat="44.58577233422014" lon="10.092637090330776"><ele>554.5</ele><time>2026-04-18T12:35:03.999Z</time></trkpt><trkpt lat="44.58571305244003" lon="10.092799350134399"><ele>557.0</ele><time>2026-04-18T12:35:04.999Z</time></trkpt><trkpt lat="44.58564082971871" lon="10.092946299122545"><ele>557.0</ele><time>2026-04-18T12:35:05.999Z</time></trkpt><trkpt lat="44.5855685171463" lon="10.093091307351214"><ele>557.0</ele><time>2026-04-18T12:35:06.999Z</time></trkpt><trkpt lat="44.58551159787079" lon="10.093247299778028"><ele>557.0</ele><time>2026-04-18T12:35:07.999Z</time></trkpt><trkpt lat="44.5854679728953" lon="10.093415742516692"><ele>557.0</ele><time>2026-04-18T12:35:08.999Z</time></trkpt><trkpt lat="44.58542174328299" lon="10.093569089991831"><ele>554.2</ele><time>2026-04-18T12:35:09.999Z</time></trkpt><trkpt lat="44.585383807066655" lon="10.093713447156242"><ele>551.4000000000001</ele><time>2026-04-18T12:35:10.999Z</time></trkpt><trkpt lat="44.58532573476228" lon="10.093835545863943"><ele>548.5999999999999</ele><time>2026-04-18T12:35:11.999Z</time></trkpt><trkpt lat="44.585262238360755" lon="10.093934909067997"><ele>545.8</ele><time>2026-04-18T12:35:12.999Z</time></trkpt><trkpt lat="44.585168473387554" lon="10.093998576421082"><ele>543.0</ele><time>2026-04-18T12:35:13.999Z</time></trkpt><trkpt lat="44.585082748550015" lon="10.094010475262388"><ele>542.4</ele><time>2026-04-18T12:35:14.999Z</time></trkpt><trkpt lat="44.58500703378363" lon="10.094049616184336"><ele>541.8</ele><time>2026-04-18T12:35:15.999Z</time></trkpt><trkpt lat="44.58488659069742" lon="10.094094310732727"><ele>541.2</ele><time>2026-04-18T12:35:16.999Z</time></trkpt><trkpt lat="44.58477077933475" lon="10.094132282230627"><ele>540.6</ele><time>2026-04-18T12:35:17.999Z</time></trkpt><trkpt lat="44.58465664494184" lon="10.09416711924647"><ele>540.0</ele><time>2026-04-18T12:35:18.999Z</time></trkpt><trkpt lat="44.58454382927933" lon="10.094218894827085"><ele>548.0</ele><time>2026-04-18T12:35:19.999Z</time></trkpt><trkpt lat="44.58442913478394" lon="10.094281982211545"><ele>556.0</ele><time>2026-04-18T12:35:20.999Z</time></trkpt><trkpt lat="44.584321877558274" lon="10.09436893638756"><ele>564.0</ele><time>2026-04-18T12:35:21.999Z</time></trkpt><trkpt lat="44.58422506959231" lon="10.094464847567291"><ele>572.0</ele><time>2026-04-18T12:35:22.999Z</time></trkpt><trkpt lat="44.584162568001574" lon="10.09458943659046"><ele>572.0</ele><time>2026-04-18T12:35:23.999Z</time></trkpt><trkpt lat="44.58413400112085" lon="10.094734724057183"><ele>572.0</ele><time>2026-04-18T12:35:24.999Z</time></trkpt><trkpt lat="44.58414086229973" lon="10.094881965059576"><ele>572.0</ele><time>2026-04-18T12:35:25.999Z</time></trkpt><trkpt lat="44.584176387751974" lon="10.09502617160833"><ele>572.0</ele><time>2026-04-18T12:35:26.999Z</time></trkpt><trkpt lat="44.5842400861077" lon="10.095146902930415"><ele>572.0</ele><time>2026-04-18T12:35:27.999Z</time></trkpt><trkpt lat="44.58431397628373" lon="10.095259200513164"><ele>566.2</ele><time>2026-04-18T12:35:28.999Z</time></trkpt><trkpt lat="44.58437877020211" lon="10.095359598882572"><ele>560.4000000000001</ele><time>2026-04-18T12:35:29.999Z</time></trkpt><trkpt lat="44.58443231575281" lon="10.09546371117546"><ele>554.5999999999999</ele><time>2026-04-18T12:35:30.999Z</time></trkpt><trkpt lat="44.58449545657555" lon="10.09557043239279"><ele>548.8</ele><time>2026-04-18T12:35:31.999Z</time></trkpt><trkpt lat="44.584560174528406" lon="10.095672334982202"><ele>543.0</ele><time>2026-04-18T12:35:32.999Z</time></trkpt><trkpt lat="44.58462948809279" lon="10.095772319645421"><ele>540.8</ele><time>2026-04-18T12:35:33.999Z</time></trkpt><trkpt lat="44.584690409331266" lon="10.095884542676362"><ele>538.5999999999999</ele><time>2026-04-18T12:35:34.999Z</time></trkpt><trkpt lat="44.584734772071116" lon="10.095997823698694"><ele>536.4000000000001</ele><time>2026-04-18T12:35:35.999Z</time></trkpt><trkpt lat="44.58476168602855" lon="10.096128846274555"><ele>534.2</ele><time>2026-04-18T12:35:36.999Z</time></trkpt><trkpt lat="44.58476845798366" lon="10.096260594611207"><ele>532.0</ele><time>2026-04-18T12:35:37.999Z</time></trkpt><trkpt lat="44.584780770941464" lon="10.096413802288973"><ele>532.0</ele><time>2026-04-18T12:35:38.999Z</time></trkpt><trkpt lat="44.584794339771655" lon="10.096556694519094"><ele>532.0</ele><time>2026-04-18T12:35:39.999Z</time></trkpt><trkpt lat="44.58481200700371" lon="10.096696492380905"><ele>532.0</ele><time>2026-04-18T12:35:40.999Z</time></trkpt><trkpt lat="44.584844069566486" lon="10.096837544658833"><ele>532.0</ele><time>2026-04-18T12:35:41.998Z</time></trkpt><trkpt lat="44.58490461327896" lon="10.096957249099228"><ele>532.0</ele><time>2026-04-18T12:35:42.998Z</time></trkpt><trkpt lat="44.584991640144025" lon="10.09703908373728"><ele>532.6</ele><time>2026-04-18T12:35:43.998Z</time></trkpt><trkpt lat="44.5850899610225" lon="10.097079829031902"><ele>533.2</ele><time>2026-04-18T12:35:44.998Z</time></trkpt><trkpt lat="44.585189739888776" lon="10.097080841652149"><ele>533.8</ele><time>2026-04-18T12:35:45.998Z</time></trkpt><trkpt lat="44.58528603122405" lon="10.0970465588318"><ele>534.4</ele><time>2026-04-18T12:35:46.998Z</time></trkpt><trkpt lat="44.5853862587934" lon="10.097018007287533"><ele>535.0</ele><time>2026-04-18T12:35:47.998Z</time></trkpt><trkpt lat="44.58548241667545" lon="10.096996966785685"><ele>535.0</ele><time>2026-04-18T12:35:48.998Z</time></trkpt><trkpt lat="44.58557596613857" lon="10.096980943896982"><ele>535.0</ele><time>2026-04-18T12:35:49.998Z</time></trkpt><trkpt lat="44.58567536637028" lon="10.096960415268713"><ele>535.0</ele><time>2026-04-18T12:35:50.998Z</time></trkpt><trkpt lat="44.58576996702753" lon="10.09691005544312"><ele>535.0</ele><time>2026-04-18T12:35:51.998Z</time></trkpt><trkpt lat="44.58585943555833" lon="10.096829893741775"><ele>535.0</ele><time>2026-04-18T12:35:52.998Z</time></trkpt><trkpt lat="44.58594058881915" lon="10.09672835688944"><ele>535.0</ele><time>2026-04-18T12:35:53.998Z</time></trkpt><trkpt lat="44.58601954220876" lon="10.096639006600663"><ele>535.0</ele><time>2026-04-18T12:35:54.998Z</time></trkpt><trkpt lat="44.586106128910856" lon="10.09655828931922"><ele>535.0</ele><time>2026-04-18T12:35:55.998Z</time></trkpt><trkpt lat="44.58620456915669" lon="10.09653435339985"><ele>535.0</ele><time>2026-04-18T12:35:56.998Z</time></trkpt><trkpt lat="44.58632100981208" lon="10.096518857583224"><ele>535.0</ele><time>2026-04-18T12:35:57.998Z</time></trkpt><trkpt lat="44.58642202503733" lon="10.096484114344644"><ele>530.8</ele><time>2026-04-18T12:35:58.998Z</time></trkpt><trkpt lat="44.58651523095183" lon="10.096423646138506"><ele>526.6</ele><time>2026-04-18T12:35:59.998Z</time></trkpt><trkpt lat="44.58660390225517" lon="10.09635436020293"><ele>522.4</ele><time>2026-04-18T12:36:00.998Z</time></trkpt><trkpt lat="44.5867013179723" lon="10.096290557860431"><ele>518.2</ele><time>2026-04-18T12:36:01.998Z</time></trkpt><trkpt lat="44.586796822521585" lon="10.096253208655845"><ele>514.0</ele><time>2026-04-18T12:36:02.998Z</time></trkpt><trkpt lat="44.586899085279754" lon="10.09623370457392"><ele>514.0</ele><time>2026-04-18T12:36:03.998Z</time></trkpt><trkpt lat="44.586995998599704" lon="10.096230714253426"><ele>514.0</ele><time>2026-04-18T12:36:04.998Z</time></trkpt><trkpt lat="44.58709796010085" lon="10.096206552797605"><ele>514.0</ele><time>2026-04-18T12:36:05.998Z</time></trkpt><trkpt lat="44.58719065148138" lon="10.096140308469261"><ele>514.0</ele><time>2026-04-18T12:36:06.998Z</time></trkpt><trkpt lat="44.58727669151808" lon="10.096055537953642"><ele>514.0</ele><time>2026-04-18T12:36:07.998Z</time></trkpt><trkpt lat="44.587351738481146" lon="10.095946628715836"><ele>515.75</ele><time>2026-04-18T12:36:08.998Z</time></trkpt><trkpt lat="44.58743496484916" lon="10.095829079697657"><ele>517.5</ele><time>2026-04-18T12:36:09.998Z</time></trkpt><trkpt lat="44.58752223016785" lon="10.095723499244587"><ele>519.25</ele><time>2026-04-18T12:36:10.998Z</time></trkpt><trkpt lat="44.58762284925062" lon="10.095635789024536"><ele>521.0</ele><time>2026-04-18T12:36:11.998Z</time></trkpt><trkpt lat="44.587721413922914" lon="10.09557255291719"><ele>515.4</ele><time>2026-04-18T12:36:12.998Z</time></trkpt><trkpt lat="44.587832387951394" lon="10.095564296307366"><ele>509.8</ele><time>2026-04-18T12:36:13.998Z</time></trkpt><trkpt lat="44.58793341431817" lon="10.095593477487096"><ele>504.19999999999993</ele><time>2026-04-18T12:36:14.998Z</time></trkpt><trkpt lat="44.588008158686456" lon="10.095678686695411"><ele>498.59999999999997</ele><time>2026-04-18T12:36:15.998Z</time></trkpt><trkpt lat="44.58803207904573" lon="10.095810572608714"><ele>493.0</ele><time>2026-04-18T12:36:16.998Z</time></trkpt><trkpt lat="44.588014727923614" lon="10.095958804332552"><ele>493.0</ele><time>2026-04-18T12:36:17.998Z</time></trkpt><trkpt lat="44.58794440731764" lon="10.096072177309628"><ele>492.99999999999994</ele><time>2026-04-18T12:36:18.998Z</time></trkpt><trkpt lat="44.587859267757665" lon="10.096160571890273"><ele>492.99999999999994</ele><time>2026-04-18T12:36:19.998Z</time></trkpt><trkpt lat="44.58778780772561" lon="10.096245422981223"><ele>493.0</ele><time>2026-04-18T12:36:21Z</time></trkpt><trkpt lat="44.58771592811688" lon="10.096331535562815"><ele>493.0</ele><time>2026-04-18T12:36:22Z</time></trkpt><trkpt lat="44.5876524270608" lon="10.096442796557842"><ele>498.59999999999997</ele><time>2026-04-18T12:36:23Z</time></trkpt><trkpt lat="44.58759479660343" lon="10.096565025647838"><ele>504.19999999999993</ele><time>2026-04-18T12:36:24Z</time></trkpt><trkpt lat="44.58754283279739" lon="10.09669227473332"><ele>509.8</ele><time>2026-04-18T12:36:25Z</time></trkpt><trkpt lat="44.587495846630844" lon="10.096827292291866"><ele>515.4</ele><time>2026-04-18T12:36:26Z</time></trkpt><trkpt lat="44.587449377257805" lon="10.096968782397042"><ele>521.0</ele><time>2026-04-18T12:36:27Z</time></trkpt><trkpt lat="44.587405236481736" lon="10.097111530103751"><ele>522.6</ele><time>2026-04-18T12:36:28Z</time></trkpt><trkpt lat="44.58735205898807" lon="10.097247775992413"><ele>524.2</ele><time>2026-04-18T12:36:29Z</time></trkpt><trkpt lat="44.58729508831094" lon="10.097380173024042"><ele>525.8</ele><time>2026-04-18T12:36:30Z</time></trkpt><trkpt lat="44.58721561807035" lon="10.097494287904869"><ele>527.4</ele><time>2026-04-18T12:36:31Z</time></trkpt><trkpt lat="44.587135337661564" lon="10.097607820448983"><ele>529.0</ele><time>2026-04-18T12:36:32Z</time></trkpt><trkpt lat="44.58705776535899" lon="10.0977305592101"><ele>527.75</ele><time>2026-04-18T12:36:33Z</time></trkpt><trkpt lat="44.58697981709389" lon="10.097853310125261"><ele>526.5</ele><time>2026-04-18T12:36:34Z</time></trkpt><trkpt lat="44.586899052360174" lon="10.097975584481528"><ele>525.25</ele><time>2026-04-18T12:36:35Z</time></trkpt><trkpt lat="44.58683005871192" lon="10.09811121662592"><ele>524.0</ele><time>2026-04-18T12:36:36Z</time></trkpt><trkpt lat="44.58676476142647" lon="10.09825635846726"><ele>524.0</ele><time>2026-04-18T12:36:37Z</time></trkpt><trkpt lat="44.586715386659314" lon="10.098407559376767"><ele>524.0</ele><time>2026-04-18T12:36:38Z</time></trkpt><trkpt lat="44.586650095224755" lon="10.098553306822016"><ele>524.0</ele><time>2026-04-18T12:36:39Z</time></trkpt><trkpt lat="44.586579514448644" lon="10.098695722802844"><ele>524.0</ele><time>2026-04-18T12:36:40Z</time></trkpt><trkpt lat="44.58649375180286" lon="10.09882809496602"><ele>524.0</ele><time>2026-04-18T12:36:41Z</time></trkpt><trkpt lat="44.58642458556938" lon="10.098978036695733"><ele>524.0</ele><time>2026-04-18T12:36:42Z</time></trkpt><trkpt lat="44.58639507431791" lon="10.099152028931535"><ele>524.0</ele><time>2026-04-18T12:36:43Z</time></trkpt><trkpt lat="44.586380789207574" lon="10.099329018922393"><ele>524.0</ele><time>2026-04-18T12:36:44Z</time></trkpt><trkpt lat="44.58638203774763" lon="10.099503201432478"><ele>517.5</ele><time>2026-04-18T12:36:45Z</time></trkpt><trkpt lat="44.58638743145972" lon="10.099683420496772"><ele>511.0</ele><time>2026-04-18T12:36:46Z</time></trkpt><trkpt lat="44.586384614822926" lon="10.099863433125911"><ele>504.5</ele><time>2026-04-18T12:36:47Z</time></trkpt><trkpt lat="44.58638295504848" lon="10.100035131843653"><ele>498.0</ele><time>2026-04-18T12:36:48Z</time></trkpt><trkpt lat="44.58637306618853" lon="10.10022407350291"><ele>494.25</ele><time>2026-04-18T12:36:49Z</time></trkpt><trkpt lat="44.58636661261583" lon="10.100408294047867"><ele>490.5</ele><time>2026-04-18T12:36:50Z</time></trkpt><trkpt lat="44.58635543577445" lon="10.100589065241987"><ele>486.75</ele><time>2026-04-18T12:36:51Z</time></trkpt><trkpt lat="44.58634487891105" lon="10.100771736132696"><ele>483.0</ele><time>2026-04-18T12:36:52Z</time></trkpt><trkpt lat="44.586337750724816" lon="10.100948227579222"><ele>479.25</ele><time>2026-04-18T12:36:53Z</time></trkpt><trkpt lat="44.586326520651994" lon="10.101128818405092"><ele>475.5</ele><time>2026-04-18T12:36:53.999Z</time></trkpt><trkpt lat="44.58632086958835" lon="10.101306257694754"><ele>471.75</ele><time>2026-04-18T12:36:54.999Z</time></trkpt><trkpt lat="44.586306185976156" lon="10.101481884001124"><ele>468.0</ele><time>2026-04-18T12:36:55.999Z</time></trkpt><trkpt lat="44.586310377087685" lon="10.101657341357983"><ele>467.25</ele><time>2026-04-18T12:36:56.999Z</time></trkpt><trkpt lat="44.58633742833016" lon="10.101826830605692"><ele>466.5</ele><time>2026-04-18T12:36:57.999Z</time></trkpt><trkpt lat="44.586377509107685" lon="10.10199419472269"><ele>465.75</ele><time>2026-04-18T12:36:58.999Z</time></trkpt><trkpt lat="44.58640841767156" lon="10.10215592568249"><ele>465.0</ele><time>2026-04-18T12:36:59.999Z</time></trkpt><trkpt lat="44.586447000720874" lon="10.10231483805751"><ele>467.75</ele><time>2026-04-18T12:37:00.999Z</time></trkpt><trkpt lat="44.58648128655186" lon="10.10247389575119"><ele>470.5</ele><time>2026-04-18T12:37:01.999Z</time></trkpt><trkpt lat="44.58653028630847" lon="10.102630352034057"><ele>473.25</ele><time>2026-04-18T12:37:02.999Z</time></trkpt><trkpt lat="44.586581676456845" lon="10.102777461175599"><ele>476.0</ele><time>2026-04-18T12:37:03.999Z</time></trkpt><trkpt lat="44.58661053219473" lon="10.102934970001911"><ele>476.0</ele><time>2026-04-18T12:37:04.999Z</time></trkpt><trkpt lat="44.58662358425303" lon="10.103104891780312"><ele>476.0</ele><time>2026-04-18T12:37:05.999Z</time></trkpt><trkpt lat="44.58662163216009" lon="10.103265678521117"><ele>476.0</ele><time>2026-04-18T12:37:06.999Z</time></trkpt><trkpt lat="44.58663065774288" lon="10.103428338854535"><ele>476.0</ele><time>2026-04-18T12:37:07.999Z</time></trkpt><trkpt lat="44.58663969587867" lon="10.103590679469413"><ele>478.4</ele><time>2026-04-18T12:37:08.999Z</time></trkpt><trkpt lat="44.58665049265295" lon="10.103752062927326"><ele>480.8</ele><time>2026-04-18T12:37:09.999Z</time></trkpt><trkpt lat="44.58666655713549" lon="10.103907647535614"><ele>483.19999999999993</ele><time>2026-04-18T12:37:10.999Z</time></trkpt><trkpt lat="44.58670625196822" lon="10.104030534581826"><ele>485.59999999999997</ele><time>2026-04-18T12:37:11.999Z</time></trkpt><trkpt lat="44.58678230532137" lon="10.1041212072788"><ele>488.0</ele><time>2026-04-18T12:37:12.999Z</time></trkpt><trkpt lat="44.5868847180178" lon="10.104179855631882"><ele>492.59999999999997</ele><time>2026-04-18T12:37:13.999Z</time></trkpt><trkpt lat="44.586994708333414" lon="10.104228636059066"><ele>497.19999999999993</ele><time>2026-04-18T12:37:14.999Z</time></trkpt><trkpt lat="44.58709657265501" lon="10.10429174272851"><ele>501.8</ele><time>2026-04-18T12:37:15.999Z</time></trkpt><trkpt lat="44.58718935872386" lon="10.104352251651441"><ele>506.4</ele><time>2026-04-18T12:37:16.999Z</time></trkpt><trkpt lat="44.58728075982798" lon="10.104416244141458"><ele>511.0</ele><time>2026-04-18T12:37:17.999Z</time></trkpt><trkpt lat="44.587361649291914" lon="10.104503937196506"><ele>504.6</ele><time>2026-04-18T12:37:18.999Z</time></trkpt><trkpt lat="44.587412356847125" lon="10.104615714336948"><ele>498.20000000000005</ele><time>2026-04-18T12:37:19.999Z</time></trkpt><trkpt lat="44.587433339618464" lon="10.104755076111847"><ele>491.79999999999995</ele><time>2026-04-18T12:37:20.999Z</time></trkpt><trkpt lat="44.58739655790094" lon="10.10490872972048"><ele>485.4</ele><time>2026-04-18T12:37:21.999Z</time></trkpt><trkpt lat="44.58737555775642" lon="10.105073740331989"><ele>479.0</ele><time>2026-04-18T12:37:22.999Z</time></trkpt><trkpt lat="44.58738292221722" lon="10.105232171752691"><ele>479.0</ele><time>2026-04-18T12:37:23.999Z</time></trkpt><trkpt lat="44.58743172857619" lon="10.105385708897144"><ele>479.0</ele><time>2026-04-18T12:37:24.999Z</time></trkpt><trkpt lat="44.58750464212007" lon="10.105530369027425"><ele>479.0</ele><time>2026-04-18T12:37:25.999Z</time></trkpt><trkpt lat="44.58759555527086" lon="10.105660693661184"><ele>479.0</ele><time>2026-04-18T12:37:26.999Z</time></trkpt><trkpt lat="44.587663919626856" lon="10.10581111709251"><ele>482.5</ele><time>2026-04-18T12:37:27.999Z</time></trkpt><trkpt lat="44.58771488902435" lon="10.105977988836482"><ele>486.0</ele><time>2026-04-18T12:37:28.999Z</time></trkpt><trkpt lat="44.58775512563415" lon="10.106146466698522"><ele>489.5</ele><time>2026-04-18T12:37:29.999Z</time></trkpt><trkpt lat="44.587812769675686" lon="10.106304504421248"><ele>493.0</ele><time>2026-04-18T12:37:30.999Z</time></trkpt><trkpt lat="44.587893921793146" lon="10.106443839246733"><ele>484.5</ele><time>2026-04-18T12:37:31.999Z</time></trkpt><trkpt lat="44.587983895143445" lon="10.106582005860513"><ele>476.0</ele><time>2026-04-18T12:37:32.999Z</time></trkpt><trkpt lat="44.588071098153435" lon="10.106710860125922"><ele>467.5</ele><time>2026-04-18T12:37:33.999Z</time></trkpt><trkpt lat="44.58817795940354" lon="10.106817425379637"><ele>459.0</ele><time>2026-04-18T12:37:34.999Z</time></trkpt><trkpt lat="44.58828150140569" lon="10.106891400602537"><ele>459.0</ele><time>2026-04-18T12:37:35.999Z</time></trkpt><trkpt lat="44.588370788094366" lon="10.106966106777307"><ele>459.0</ele><time>2026-04-18T12:37:36.999Z</time></trkpt><trkpt lat="44.58842990171452" lon="10.107080242588978"><ele>459.0</ele><time>2026-04-18T12:37:37.999Z</time></trkpt><trkpt lat="44.58842954608819" lon="10.107231635324714"><ele>459.0</ele><time>2026-04-18T12:37:38.999Z</time></trkpt><trkpt lat="44.58839520353433" lon="10.107381421581549"><ele>459.0</ele><time>2026-04-18T12:37:39.999Z</time></trkpt><trkpt lat="44.588329372498414" lon="10.107504032691786"><ele>462.0</ele><time>2026-04-18T12:37:40.999Z</time></trkpt><trkpt lat="44.58827014884203" lon="10.107618225207675"><ele>465.0</ele><time>2026-04-18T12:37:41.999Z</time></trkpt><trkpt lat="44.58824643623019" lon="10.107752588966378"><ele>468.0</ele><time>2026-04-18T12:37:42.999Z</time></trkpt><trkpt lat="44.58826447339104" lon="10.107897026305112"><ele>471.0</ele><time>2026-04-18T12:37:43.999Z</time></trkpt><trkpt lat="44.588315382554015" lon="10.108031837005854"><ele>474.0</ele><time>2026-04-18T12:37:44.999Z</time></trkpt><trkpt lat="44.588381005817" lon="10.108146739364686"><ele>474.0</ele><time>2026-04-18T12:37:45.999Z</time></trkpt><trkpt lat="44.588456900937494" lon="10.108227660478217"><ele>474.0</ele><time>2026-04-18T12:37:46.998Z</time></trkpt><trkpt lat="44.5885725856576" lon="10.108277392157035"><ele>474.0</ele><time>2026-04-18T12:37:47.998Z</time></trkpt><trkpt lat="44.58869374342193" lon="10.10828462388284"><ele>474.0</ele><time>2026-04-18T12:37:48.998Z</time></trkpt><trkpt lat="44.588802010445825" lon="10.108314899573811"><ele>474.0</ele><time>2026-04-18T12:37:49.998Z</time></trkpt><trkpt lat="44.58889610948828" lon="10.108399355393258"><ele>472.2</ele><time>2026-04-18T12:37:50.998Z</time></trkpt><trkpt lat="44.588964781376546" lon="10.108524635924194"><ele>470.4</ele><time>2026-04-18T12:37:51.998Z</time></trkpt><trkpt lat="44.589008687111175" lon="10.10865805423709"><ele>468.6</ele><time>2026-04-18T12:37:52.998Z</time></trkpt><trkpt lat="44.58904416099578" lon="10.10881373737638"><ele>466.8</ele><time>2026-04-18T12:37:53.998Z</time></trkpt><trkpt lat="44.58907495174421" lon="10.108970437432243"><ele>465.0</ele><time>2026-04-18T12:37:54.998Z</time></trkpt><trkpt lat="44.5891035564879" lon="10.109124293836675"><ele>465.0</ele><time>2026-04-18T12:37:55.998Z</time></trkpt><trkpt lat="44.58914166238596" lon="10.109279784181183"><ele>465.0</ele><time>2026-04-18T12:37:56.998Z</time></trkpt><trkpt lat="44.58917645804792" lon="10.109434072489158"><ele>465.0</ele><time>2026-04-18T12:37:57.998Z</time></trkpt><trkpt lat="44.58921667282778" lon="10.109587154031807"><ele>465.0</ele><time>2026-04-18T12:37:58.998Z</time></trkpt><trkpt lat="44.589255036701815" lon="10.10974129667722"><ele>465.0</ele><time>2026-04-18T12:37:59.998Z</time></trkpt><trkpt lat="44.58929406978277" lon="10.109895282078062"><ele>465.0</ele><time>2026-04-18T12:38:00.998Z</time></trkpt><trkpt lat="44.589340461491965" lon="10.110049818068239"><ele>465.0</ele><time>2026-04-18T12:38:01.998Z</time></trkpt><trkpt lat="44.589380643649534" lon="10.11020246942687"><ele>465.0</ele><time>2026-04-18T12:38:02.998Z</time></trkpt><trkpt lat="44.58942055808423" lon="10.110358544223956"><ele>467.75</ele><time>2026-04-18T12:38:03.998Z</time></trkpt><trkpt lat="44.589461730516746" lon="10.110514844255974"><ele>470.5</ele><time>2026-04-18T12:38:04.998Z</time></trkpt><trkpt lat="44.5895055144798" lon="10.110670927038704"><ele>473.25</ele><time>2026-04-18T12:38:05.998Z</time></trkpt><trkpt lat="44.58955371939055" lon="10.11082456411934"><ele>476.0</ele><time>2026-04-18T12:38:06.998Z</time></trkpt><trkpt lat="44.589605855593646" lon="10.110975909339778"><ele>467.25</ele><time>2026-04-18T12:38:07.998Z</time></trkpt><trkpt lat="44.5896887066762" lon="10.111107822530498"><ele>458.5</ele><time>2026-04-18T12:38:08.998Z</time></trkpt><trkpt lat="44.58977378110987" lon="10.111238549200579"><ele>449.75</ele><time>2026-04-18T12:38:09.998Z</time></trkpt><trkpt lat="44.58985377299768" lon="10.111374876790435"><ele>441.0</ele><time>2026-04-18T12:38:10.998Z</time></trkpt><trkpt lat="44.589924994707935" lon="10.11151234231785"><ele>445.0</ele><time>2026-04-18T12:38:11.998Z</time></trkpt><trkpt lat="44.58999234233403" lon="10.111654822785932"><ele>449.0</ele><time>2026-04-18T12:38:12.998Z</time></trkpt><trkpt lat="44.590063685030856" lon="10.111801422773455"><ele>453.0</ele><time>2026-04-18T12:38:13.998Z</time></trkpt><trkpt lat="44.59012653826289" lon="10.11195486011993"><ele>457.0</ele><time>2026-04-18T12:38:14.998Z</time></trkpt><trkpt lat="44.59019985913639" lon="10.112096959327442"><ele>457.0</ele><time>2026-04-18T12:38:15.998Z</time></trkpt><trkpt lat="44.590284158759296" lon="10.112229531449715"><ele>457.0</ele><time>2026-04-18T12:38:16.998Z</time></trkpt><trkpt lat="44.59037841034795" lon="10.112339555793975"><ele>457.0</ele><time>2026-04-18T12:38:17.998Z</time></trkpt><trkpt lat="44.590477371496874" lon="10.112450974952065"><ele>457.0</ele><time>2026-04-18T12:38:18.998Z</time></trkpt><trkpt lat="44.59057325461677" lon="10.112570745622412"><ele>450.75</ele><time>2026-04-18T12:38:19.998Z</time></trkpt><trkpt lat="44.590676796807834" lon="10.112679398267908"><ele>444.5</ele><time>2026-04-18T12:38:20.998Z</time></trkpt><trkpt lat="44.590777024743964" lon="10.112789631855355"><ele>438.25</ele><time>2026-04-18T12:38:21.998Z</time></trkpt><trkpt lat="44.590868739591485" lon="10.11291303984915"><ele>432.0</ele><time>2026-04-18T12:38:22.998Z</time></trkpt><trkpt lat="44.59093672817974" lon="10.113057896390076"><ele>432.0</ele><time>2026-04-18T12:38:23.998Z</time></trkpt><trkpt lat="44.59099984507042" lon="10.113205405423498"><ele>432.0</ele><time>2026-04-18T12:38:24.998Z</time></trkpt><trkpt lat="44.591044565302695" lon="10.113360139257214"><ele>432.0</ele><time>2026-04-18T12:38:25.998Z</time></trkpt><trkpt lat="44.59108017681441" lon="10.11351824100337"><ele>432.0</ele><time>2026-04-18T12:38:27Z</time></trkpt><trkpt lat="44.5910825262753" lon="10.113691746320663"><ele>436.25</ele><time>2026-04-18T12:38:28Z</time></trkpt><trkpt lat="44.59105763695526" lon="10.113854289839146"><ele>440.5</ele><time>2026-04-18T12:38:29Z</time></trkpt><trkpt lat="44.591020215796455" lon="10.114016414785505"><ele>444.75</ele><time>2026-04-18T12:38:30Z</time></trkpt><trkpt lat="44.59095048174084" lon="10.114204343302937"><ele>449.0</ele><time>2026-04-18T12:38:31Z</time></trkpt><trkpt lat="44.59092571220487" lon="10.11437014692937"><ele>449.0</ele><time>2026-04-18T12:38:32Z</time></trkpt><trkpt lat="44.59089710114035" lon="10.114530545023706"><ele>449.0</ele><time>2026-04-18T12:38:33Z</time></trkpt><trkpt lat="44.59086343011045" lon="10.114692943843878"><ele>449.0</ele><time>2026-04-18T12:38:34Z</time></trkpt><trkpt lat="44.59084264530592" lon="10.114858618368414"><ele>449.0</ele><time>2026-04-18T12:38:35Z</time></trkpt><trkpt lat="44.59082607477333" lon="10.115025143286898"><ele>447.25</ele><time>2026-04-18T12:38:36Z</time></trkpt><trkpt lat="44.59082868526574" lon="10.115192562907906"><ele>445.5</ele><time>2026-04-18T12:38:37Z</time></trkpt><trkpt lat="44.590859492669146" lon="10.115359441093311"><ele>443.75</ele><time>2026-04-18T12:38:38Z</time></trkpt><trkpt lat="44.590920552628376" lon="10.11551363498606"><ele>442.0</ele><time>2026-04-18T12:38:39Z</time></trkpt><trkpt lat="44.591010953734454" lon="10.11564138941503"><ele>442.0</ele><time>2026-04-18T12:38:40Z</time></trkpt><trkpt lat="44.59111402551016" lon="10.115747207353872"><ele>442.0</ele><time>2026-04-18T12:38:41Z</time></trkpt><trkpt lat="44.59123206545702" lon="10.115829371361663"><ele>442.0</ele><time>2026-04-18T12:38:42Z</time></trkpt><trkpt lat="44.59134453982794" lon="10.115912150158925"><ele>442.0</ele><time>2026-04-18T12:38:43Z</time></trkpt><trkpt lat="44.59145119088454" lon="10.11599611208185"><ele>438.5</ele><time>2026-04-18T12:38:44Z</time></trkpt><trkpt lat="44.59155831616225" lon="10.116084670796475"><ele>435.0</ele><time>2026-04-18T12:38:45Z</time></trkpt><trkpt lat="44.591670601556096" lon="10.116176975633113"><ele>431.5</ele><time>2026-04-18T12:38:46Z</time></trkpt><trkpt lat="44.59176823447547" lon="10.11627740254655"><ele>428.0</ele><time>2026-04-18T12:38:47Z</time></trkpt><trkpt lat="44.591879772318876" lon="10.11636531933602"><ele>428.0</ele><time>2026-04-18T12:38:48Z</time></trkpt><trkpt lat="44.59198530764131" lon="10.116459464213198"><ele>428.0</ele><time>2026-04-18T12:38:49Z</time></trkpt><trkpt lat="44.592094655734165" lon="10.116548141911695"><ele>428.0</ele><time>2026-04-18T12:38:50Z</time></trkpt><trkpt lat="44.5922008142143" lon="10.11663591696654"><ele>428.0</ele><time>2026-04-18T12:38:51Z</time></trkpt><trkpt lat="44.59230248983927" lon="10.11671786122757"><ele>426.4</ele><time>2026-04-18T12:38:52Z</time></trkpt><trkpt lat="44.59239863431173" lon="10.116802451511477"><ele>424.79999999999995</ele><time>2026-04-18T12:38:53Z</time></trkpt><trkpt lat="44.59249857893406" lon="10.11688281503965"><ele>423.2</ele><time>2026-04-18T12:38:54Z</time></trkpt><trkpt lat="44.59259242297385" lon="10.116962601159868"><ele>421.6</ele><time>2026-04-18T12:38:55Z</time></trkpt><trkpt lat="44.5926835494299" lon="10.117049129890676"><ele>420.0</ele><time>2026-04-18T12:38:56Z</time></trkpt><trkpt lat="44.59277583172536" lon="10.117130004793543"><ele>419.4</ele><time>2026-04-18T12:38:57Z</time></trkpt><trkpt lat="44.592866544068215" lon="10.117207278322857"><ele>418.8</ele><time>2026-04-18T12:38:58Z</time></trkpt><trkpt lat="44.592955320344565" lon="10.117283516316979"><ele>418.20000000000005</ele><time>2026-04-18T12:38:58.999Z</time></trkpt><trkpt lat="44.59304802652485" lon="10.117357014614438"><ele>417.6</ele><time>2026-04-18T12:38:59.999Z</time></trkpt><trkpt lat="44.59313845769296" lon="10.117428924420786"><ele>417.0</ele><time>2026-04-18T12:39:00.999Z</time></trkpt><trkpt lat="44.59322463028674" lon="10.117509765230855"><ele>419.40000000000003</ele><time>2026-04-18T12:39:01.999Z</time></trkpt><trkpt lat="44.59331090681287" lon="10.117586890036112"><ele>421.8</ele><time>2026-04-18T12:39:02.999Z</time></trkpt><trkpt lat="44.59340060830874" lon="10.117656526820875"><ele>424.2</ele><time>2026-04-18T12:39:03.999Z</time></trkpt><trkpt lat="44.59349098099661" lon="10.117725266517017"><ele>426.6</ele><time>2026-04-18T12:39:04.999Z</time></trkpt><trkpt lat="44.593573173115544" lon="10.117808173045997"><ele>429.0</ele><time>2026-04-18T12:39:05.999Z</time></trkpt><trkpt lat="44.593660242955394" lon="10.1178790697094"><ele>427.2</ele><time>2026-04-18T12:39:06.999Z</time></trkpt><trkpt lat="44.59375373958668" lon="10.11794119197574"><ele>425.4</ele><time>2026-04-18T12:39:07.999Z</time></trkpt><trkpt lat="44.59383797039563" lon="10.118012503039711"><ele>423.6</ele><time>2026-04-18T12:39:08.999Z</time></trkpt><trkpt lat="44.59392060942829" lon="10.118083683977018"><ele>421.8</ele><time>2026-04-18T12:39:09.999Z</time></trkpt><trkpt lat="44.59400406369982" lon="10.118145371866715"><ele>420.0</ele><time>2026-04-18T12:39:10.999Z</time></trkpt><trkpt lat="44.59409091538866" lon="10.11819633557645"><ele>421.4</ele><time>2026-04-18T12:39:11.999Z</time></trkpt><trkpt lat="44.59417833733049" lon="10.118235988753792"><ele>422.8</ele><time>2026-04-18T12:39:12.999Z</time></trkpt><trkpt lat="44.59426778409457" lon="10.118266156151934"><ele>424.20000000000005</ele><time>2026-04-18T12:39:13.999Z</time></trkpt><trkpt lat="44.59435812993653" lon="10.118290044256177"><ele>425.6</ele><time>2026-04-18T12:39:14.999Z</time></trkpt><trkpt lat="44.594448632418086" lon="10.118325770627344"><ele>427.0</ele><time>2026-04-18T12:39:15.999Z</time></trkpt><trkpt lat="44.594542629508915" lon="10.118357245953494"><ele>427.0</ele><time>2026-04-18T12:39:16.999Z</time></trkpt><trkpt lat="44.59463386349388" lon="10.118400948550756"><ele>427.00000000000006</ele><time>2026-04-18T12:39:17.999Z</time></trkpt><trkpt lat="44.59472735464766" lon="10.118438847215568"><ele>427.00000000000006</ele><time>2026-04-18T12:39:18.999Z</time></trkpt><trkpt lat="44.594819624309956" lon="10.11847157468544"><ele>427.0</ele><time>2026-04-18T12:39:19.999Z</time></trkpt><trkpt lat="44.59491463948759" lon="10.118510474982635"><ele>427.0</ele><time>2026-04-18T12:39:20.999Z</time></trkpt><trkpt lat="44.59500918304375" lon="10.118540179516032"><ele>427.0</ele><time>2026-04-18T12:39:21.999Z</time></trkpt><trkpt lat="44.59510304128968" lon="10.118572900309069"><ele>427.00000000000006</ele><time>2026-04-18T12:39:22.999Z</time></trkpt><trkpt lat="44.595195809685215" lon="10.118602969681312"><ele>427.00000000000006</ele><time>2026-04-18T12:39:23.999Z</time></trkpt><trkpt lat="44.59528986958473" lon="10.118631894932026"><ele>427.0</ele><time>2026-04-18T12:39:24.999Z</time></trkpt><trkpt lat="44.595383229579596" lon="10.118658203313604"><ele>427.0</ele><time>2026-04-18T12:39:25.999Z</time></trkpt><trkpt lat="44.59547900413617" lon="10.118689755298263"><ele>425.6</ele><time>2026-04-18T12:39:26.999Z</time></trkpt><trkpt lat="44.59557188916676" lon="10.118722138071316"><ele>424.20000000000005</ele><time>2026-04-18T12:39:27.999Z</time></trkpt><trkpt lat="44.595668427558564" lon="10.118753720436944"><ele>422.8</ele><time>2026-04-18T12:39:28.999Z</time></trkpt><trkpt lat="44.59576202441879" lon="10.118791770337152"><ele>421.4</ele><time>2026-04-18T12:39:29.999Z</time></trkpt><trkpt lat="44.59586045115198" lon="10.118833561141894"><ele>420.0</ele><time>2026-04-18T12:39:30.999Z</time></trkpt><trkpt lat="44.59596383117074" lon="10.118875624773741"><ele>420.0</ele><time>2026-04-18T12:39:31.999Z</time></trkpt><trkpt lat="44.596069200684" lon="10.118917742096105"><ele>420.0</ele><time>2026-04-18T12:39:32.999Z</time></trkpt><trkpt lat="44.59618429138335" lon="10.118957259485153"><ele>420.0</ele><time>2026-04-18T12:39:33.999Z</time></trkpt><trkpt lat="44.596289798266724" lon="10.118997479343731"><ele>420.0</ele><time>2026-04-18T12:39:34.999Z</time></trkpt><trkpt lat="44.59639714540704" lon="10.119041471151176"><ele>420.0</ele><time>2026-04-18T12:39:35.999Z</time></trkpt><trkpt lat="44.59650869514513" lon="10.119077208807939"><ele>420.2</ele><time>2026-04-18T12:39:36.999Z</time></trkpt><trkpt lat="44.59661623532066" lon="10.119120227496925"><ele>420.4</ele><time>2026-04-18T12:39:37.999Z</time></trkpt><trkpt lat="44.596725357525706" lon="10.11917136745867"><ele>420.6</ele><time>2026-04-18T12:39:38.999Z</time></trkpt><trkpt lat="44.59682327192223" lon="10.11920348400145"><ele>420.8</ele><time>2026-04-18T12:39:39.999Z</time></trkpt><trkpt lat="44.5969239031934" lon="10.119233704520203"><ele>421.0</ele><time>2026-04-18T12:39:40.999Z</time></trkpt><trkpt lat="44.59702133482767" lon="10.119262585032615"><ele>419.0</ele><time>2026-04-18T12:39:41.999Z</time></trkpt><trkpt lat="44.597122257797636" lon="10.119303806284268"><ele>417.0</ele><time>2026-04-18T12:39:42.999Z</time></trkpt><trkpt lat="44.59722527766485" lon="10.11934301524179"><ele>415.0</ele><time>2026-04-18T12:39:43.999Z</time></trkpt><trkpt lat="44.59732480651877" lon="10.119398482906035"><ele>413.0</ele><time>2026-04-18T12:39:44.999Z</time></trkpt><trkpt lat="44.5974256428792" lon="10.119438761228794"><ele>411.0</ele><time>2026-04-18T12:39:45.999Z</time></trkpt><trkpt lat="44.597531984742815" lon="10.119477772070452"><ele>411.0</ele><time>2026-04-18T12:39:46.999Z</time></trkpt><trkpt lat="44.59763619043979" lon="10.119516131801852"><ele>411.0</ele><time>2026-04-18T12:39:47.999Z</time></trkpt><trkpt lat="44.597740113360004" lon="10.119557744198195"><ele>411.0</ele><time>2026-04-18T12:39:48.999Z</time></trkpt><trkpt lat="44.59784477704038" lon="10.119602580960162"><ele>411.0</ele><time>2026-04-18T12:39:49.999Z</time></trkpt><trkpt lat="44.59795176265646" lon="10.119639364111787"><ele>411.0</ele><time>2026-04-18T12:39:50.999Z</time></trkpt><trkpt lat="44.59805787242002" lon="10.119680009815546"><ele>409.0</ele><time>2026-04-18T12:39:51.998Z</time></trkpt><trkpt lat="44.59816656812887" lon="10.119721244511235"><ele>407.0</ele><time>2026-04-18T12:39:52.998Z</time></trkpt><trkpt lat="44.598275140189536" lon="10.119759121050416"><ele>405.0</ele><time>2026-04-18T12:39:53.998Z</time></trkpt><trkpt lat="44.598383731821045" lon="10.119803003484748"><ele>403.0</ele><time>2026-04-18T12:39:54.998Z</time></trkpt><trkpt lat="44.59849415952945" lon="10.119839056160142"><ele>403.0</ele><time>2026-04-18T12:39:55.998Z</time></trkpt><trkpt lat="44.598606122791566" lon="10.119881771602946"><ele>403.0</ele><time>2026-04-18T12:39:56.998Z</time></trkpt><trkpt lat="44.59872377501324" lon="10.119927756360367"><ele>403.0</ele><time>2026-04-18T12:39:57.998Z</time></trkpt><trkpt lat="44.59883842144307" lon="10.119968807194631"><ele>403.0</ele><time>2026-04-18T12:39:58.998Z</time></trkpt><trkpt lat="44.598954307681346" lon="10.120015182440653"><ele>402.75</ele><time>2026-04-18T12:39:59.998Z</time></trkpt><trkpt lat="44.59907076912139" lon="10.120056372107326"><ele>402.5</ele><time>2026-04-18T12:40:00.998Z</time></trkpt><trkpt lat="44.5991915860884" lon="10.12009253859444"><ele>402.25</ele><time>2026-04-18T12:40:01.998Z</time></trkpt><trkpt lat="44.59930748696282" lon="10.120135946379083"><ele>402.0</ele><time>2026-04-18T12:40:02.998Z</time></trkpt><trkpt lat="44.5994139024605" lon="10.120170636784973"><ele>401.5</ele><time>2026-04-18T12:40:03.998Z</time></trkpt><trkpt lat="44.59953415474913" lon="10.12021630220594"><ele>401.0</ele><time>2026-04-18T12:40:04.998Z</time></trkpt><trkpt lat="44.59965101232157" lon="10.1202648729326"><ele>400.5</ele><time>2026-04-18T12:40:05.998Z</time></trkpt><trkpt lat="44.599769806766105" lon="10.120303997040036"><ele>400.0</ele><time>2026-04-18T12:40:06.998Z</time></trkpt><trkpt lat="44.59988195961747" lon="10.120350603336728"><ele>400.0</ele><time>2026-04-18T12:40:07.998Z</time></trkpt><trkpt lat="44.599991570838704" lon="10.120384795223684"><ele>400.0</ele><time>2026-04-18T12:40:08.998Z</time></trkpt><trkpt lat="44.60009755458238" lon="10.120416520541902"><ele>400.0</ele><time>2026-04-18T12:40:09.998Z</time></trkpt><trkpt lat="44.600201567151615" lon="10.120453835212716"><ele>400.0</ele><time>2026-04-18T12:40:10.998Z</time></trkpt><trkpt lat="44.60027364651288" lon="10.120484262037392"><ele>400.0</ele><time>2026-04-18T12:40:11.998Z</time></trkpt><trkpt lat="44.60036999254156" lon="10.12053139848401"><ele>400.0</ele><time>2026-04-18T12:40:13.998Z</time></trkpt><trkpt lat="44.60045130874374" lon="10.120584543685345"><ele>400.0</ele><time>2026-04-18T12:40:15.998Z</time></trkpt><trkpt lat="44.600529062046355" lon="10.120662491207678"><ele>400.0</ele><time>2026-04-18T12:40:17.998Z</time></trkpt><trkpt lat="44.600609497181196" lon="10.120753580466733"><ele>400.0</ele><time>2026-04-18T12:40:19.998Z</time></trkpt><trkpt lat="44.6006807093583" lon="10.120851180303278"><ele>400.0</ele><time>2026-04-18T12:40:21.998Z</time></trkpt><trkpt lat="44.60073364369459" lon="10.120938400410807"><ele>400.00000000000006</ele><time>2026-04-18T12:40:23.998Z</time></trkpt><trkpt lat="44.60078762576769" lon="10.121030703210122"><ele>400.0</ele><time>2026-04-18T12:40:25.998Z</time></trkpt><trkpt lat="44.60082301652189" lon="10.121127014994627"><ele>400.0</ele><time>2026-04-18T12:40:27.998Z</time></trkpt><trkpt lat="44.6008555935115" lon="10.121213912948637"><ele>400.0</ele><time>2026-04-18T12:40:29.998Z</time></trkpt><trkpt lat="44.60088032085169" lon="10.121308539519253"><ele>400.00000000000006</ele><time>2026-04-18T12:40:32Z</time></trkpt><trkpt lat="44.60092058995736" lon="10.121396499070956"><ele>400.0</ele><time>2026-04-18T12:40:34Z</time></trkpt><trkpt lat="44.600959100791265" lon="10.12148168794701"><ele>400.00000000000006</ele><time>2026-04-18T12:40:36Z</time></trkpt><trkpt lat="44.60101353662704" lon="10.121529616196336"><ele>400.0</ele><time>2026-04-18T12:40:38Z</time></trkpt><trkpt lat="44.601077904788866" lon="10.121585458565432"><ele>400.0</ele><time>2026-04-18T12:40:40Z</time></trkpt><trkpt lat="44.60113784183547" lon="10.121497579579849"><ele>400.0</ele><time>2026-04-18T12:40:41Z</time></trkpt><trkpt lat="44.60115529703914" lon="10.121391717762062"><ele>400.00000000000006</ele><time>2026-04-18T12:40:43Z</time></trkpt><trkpt lat="44.60119496469153" lon="10.12126854269059"><ele>400.0</ele><time>2026-04-18T12:40:45Z</time></trkpt><trkpt lat="44.601203281845" lon="10.12117771312056"><ele>399.50000000000006</ele><time>2026-04-18T12:40:46Z</time></trkpt><trkpt lat="44.601240358840606" lon="10.121091950624717"><ele>399.0</ele><time>2026-04-18T12:40:48Z</time></trkpt><trkpt lat="44.60127371874538" lon="10.120998544704062"><ele>398.5</ele><time>2026-04-18T12:40:50Z</time></trkpt><trkpt lat="44.601344508242576" lon="10.120995171814624"><ele>398.0</ele><time>2026-04-18T12:40:51Z</time></trkpt><trkpt lat="44.60139930634754" lon="10.120890172733606"><ele>397.50000000000006</ele><time>2026-04-18T12:40:54Z</time></trkpt><trkpt lat="44.60145151481609" lon="10.120788624380053"><ele>397.0</ele><time>2026-04-18T12:40:57Z</time></trkpt><trkpt lat="44.60148942443872" lon="10.12069889333398"><ele>397.0</ele><time>2026-04-18T12:41:00Z</time></trkpt><trkpt lat="44.601520764984016" lon="10.120614809564568"><ele>397.0</ele><time>2026-04-18T12:41:02.999Z</time></trkpt><trkpt lat="44.60157211894586" lon="10.120531242597675"><ele>397.0</ele><time>2026-04-18T12:41:06.999Z</time></trkpt><trkpt lat="44.60161086417185" lon="10.120447251560847"><ele>397.0</ele><time>2026-04-18T12:41:10.999Z</time></trkpt><trkpt lat="44.60164691719605" lon="10.120369543064404"><ele>397.0</ele><time>2026-04-18T12:41:55.998Z</time></trkpt><trkpt lat="44.60167694286067" lon="10.120291742008918"><ele>397.0</ele><time>2026-04-18T12:41:58.998Z</time></trkpt><trkpt lat="44.60171095536275" lon="10.120209324999232"><ele>397.0</ele><time>2026-04-18T12:42:00.998Z</time></trkpt><trkpt lat="44.60175688849058" lon="10.120122911185359"><ele>397.0</ele><time>2026-04-18T12:42:02.998Z</time></trkpt><trkpt lat="44.60180693197407" lon="10.120014907103348"><ele>397.0</ele><time>2026-04-18T12:42:04.998Z</time></trkpt><trkpt lat="44.60186413683187" lon="10.119898511744479"><ele>397.0</ele><time>2026-04-18T12:42:06.998Z</time></trkpt><trkpt lat="44.601929017011145" lon="10.119767619181593"><ele>397.0</ele><time>2026-04-18T12:42:08.998Z</time></trkpt><trkpt lat="44.60196278882247" lon="10.119617867155847"><ele>397.0</ele><time>2026-04-18T12:42:10.998Z</time></trkpt><trkpt lat="44.60202518736114" lon="10.119481111170435"><ele>396.20000000000005</ele><time>2026-04-18T12:42:12.998Z</time></trkpt><trkpt lat="44.60210225735353" lon="10.11935013310706"><ele>395.4</ele><time>2026-04-18T12:42:14.998Z</time></trkpt><trkpt lat="44.602169531563945" lon="10.11920504039"><ele>394.6</ele><time>2026-04-18T12:42:16.998Z</time></trkpt><trkpt lat="44.60222324620917" lon="10.119044982553495"><ele>393.79999999999995</ele><time>2026-04-18T12:42:18.998Z</time></trkpt><trkpt lat="44.60225826939367" lon="10.118967720544656"><ele>393.0</ele><time>2026-04-18T12:42:19.998Z</time></trkpt><trkpt lat="44.60229307763175" lon="10.118890932648235"><ele>393.00000000000006</ele><time>2026-04-18T12:42:20.998Z</time></trkpt><trkpt lat="44.60234198901145" lon="10.118824932171528"><ele>393.0</ele><time>2026-04-18T12:42:21.998Z</time></trkpt><trkpt lat="44.602373309826575" lon="10.118747405260994"><ele>393.0</ele><time>2026-04-18T12:42:22.998Z</time></trkpt><trkpt lat="44.60241016269876" lon="10.11867138392409"><ele>393.0</ele><time>2026-04-18T12:42:23.998Z</time></trkpt><trkpt lat="44.602446476610645" lon="10.11859589191287"><ele>393.0</ele><time>2026-04-18T12:42:24.998Z</time></trkpt><trkpt lat="44.60247898982216" lon="10.118515874156019"><ele>393.00000000000006</ele><time>2026-04-18T12:42:25.998Z</time></trkpt><trkpt lat="44.60251404732473" lon="10.118441173208934"><ele>393.0</ele><time>2026-04-18T12:42:26.998Z</time></trkpt><trkpt lat="44.602548696051876" lon="10.118367331039156"><ele>393.3333333333333</ele><time>2026-04-18T12:42:27.998Z</time></trkpt><trkpt lat="44.60261241742661" lon="10.118223320843793"><ele>393.66666666666663</ele><time>2026-04-18T12:42:29.998Z</time></trkpt><trkpt lat="44.602678112243865" lon="10.11807367922407"><ele>394.0</ele><time>2026-04-18T12:42:31.998Z</time></trkpt><trkpt lat="44.602713129692404" lon="10.117998665882123"><ele>394.3333333333333</ele><time>2026-04-18T12:42:32.998Z</time></trkpt><trkpt lat="44.60274650256967" lon="10.117917058441105"><ele>394.66666666666663</ele><time>2026-04-18T12:42:33.998Z</time></trkpt><trkpt lat="44.60277932681038" lon="10.117838728549318"><ele>395.0</ele><time>2026-04-18T12:42:34.998Z</time></trkpt><trkpt lat="44.60281510101074" lon="10.11775792366519"><ele>395.2857142857143</ele><time>2026-04-18T12:42:35.998Z</time></trkpt><trkpt lat="44.60285423912053" lon="10.11768006895078"><ele>395.5714285714286</ele><time>2026-04-18T12:42:36.998Z</time></trkpt><trkpt lat="44.6028907901219" lon="10.11759187769993"><ele>395.8571428571429</ele><time>2026-04-18T12:42:38Z</time></trkpt><trkpt lat="44.60292810310679" lon="10.117507508305195"><ele>396.1428571428571</ele><time>2026-04-18T12:42:39Z</time></trkpt><trkpt lat="44.60296622779633" lon="10.11742725198018"><ele>396.42857142857144</ele><time>2026-04-18T12:42:40Z</time></trkpt><trkpt lat="44.603013278488646" lon="10.117355588309332"><ele>396.7142857142857</ele><time>2026-04-18T12:42:41Z</time></trkpt><trkpt lat="44.6030662741624" lon="10.117287359995812"><ele>397.0</ele><time>2026-04-18T12:42:42Z</time></trkpt><trkpt lat="44.603114517257836" lon="10.117206112395694"><ele>398.33333333333337</ele><time>2026-04-18T12:42:43Z</time></trkpt><trkpt lat="44.60318077433073" lon="10.117153322727232"><ele>399.6666666666667</ele><time>2026-04-18T12:42:44Z</time></trkpt><trkpt lat="44.60325325252043" lon="10.117122515928486"><ele>401.0</ele><time>2026-04-18T12:42:45Z</time></trkpt><trkpt lat="44.60332694809281" lon="10.117086361301066"><ele>402.33333333333337</ele><time>2026-04-18T12:42:46Z</time></trkpt><trkpt lat="44.60339994812928" lon="10.117063455200922"><ele>403.6666666666667</ele><time>2026-04-18T12:42:47Z</time></trkpt><trkpt lat="44.60347470540481" lon="10.117057767037922"><ele>405.0</ele><time>2026-04-18T12:42:48Z</time></trkpt><trkpt lat="44.603549162706294" lon="10.117063356178747"><ele>404.99999999999994</ele><time>2026-04-18T12:42:49Z</time></trkpt><trkpt lat="44.60362239605333" lon="10.117085786514235"><ele>405.0</ele><time>2026-04-18T12:42:50Z</time></trkpt><trkpt lat="44.60368947599076" lon="10.117113241939663"><ele>405.0</ele><time>2026-04-18T12:42:51Z</time></trkpt><trkpt lat="44.60376317184677" lon="10.117140843873239"><ele>405.0</ele><time>2026-04-18T12:42:52Z</time></trkpt><trkpt lat="44.60383130166193" lon="10.1171712240061"><ele>405.0</ele><time>2026-04-18T12:42:53Z</time></trkpt><trkpt lat="44.603898559409046" lon="10.11720465670126"><ele>404.99999999999994</ele><time>2026-04-18T12:42:54Z</time></trkpt><trkpt lat="44.60396650386416" lon="10.117231037992749"><ele>405.0</ele><time>2026-04-18T12:42:55Z</time></trkpt><trkpt lat="44.604038472827426" lon="10.117255525875565"><ele>404.99999999999994</ele><time>2026-04-18T12:42:56Z</time></trkpt><trkpt lat="44.60411030815522" lon="10.11728747000724"><ele>405.0</ele><time>2026-04-18T12:42:57Z</time></trkpt><trkpt lat="44.6041798967615" lon="10.117319430046393"><ele>405.0</ele><time>2026-04-18T12:42:58Z</time></trkpt><trkpt lat="44.60425032731236" lon="10.117349216827359"><ele>405.0</ele><time>2026-04-18T12:42:59Z</time></trkpt><trkpt lat="44.60432137032138" lon="10.117373124298032"><ele>405.0</ele><time>2026-04-18T12:43:00Z</time></trkpt><trkpt lat="44.604389934185086" lon="10.117405730425762"><ele>404.99999999999994</ele><time>2026-04-18T12:43:01Z</time></trkpt><trkpt lat="44.60445963033469" lon="10.117438405560318"><ele>405.0</ele><time>2026-04-18T12:43:02Z</time></trkpt><trkpt lat="44.60453102103529" lon="10.11746684337562"><ele>404.99999999999994</ele><time>2026-04-18T12:43:03Z</time></trkpt><trkpt lat="44.60459748821579" lon="10.117498463946191"><ele>405.0</ele><time>2026-04-18T12:43:04Z</time></trkpt><trkpt lat="44.604664983565016" lon="10.11752605089591"><ele>405.0</ele><time>2026-04-18T12:43:05Z</time></trkpt><trkpt lat="44.60473460783202" lon="10.117555190501797"><ele>405.0</ele><time>2026-04-18T12:43:05.999Z</time></trkpt><trkpt lat="44.60479879281051" lon="10.11759108769287"><ele>405.0</ele><time>2026-04-18T12:43:06.999Z</time></trkpt><trkpt lat="44.604865149870896" lon="10.117622621855428"><ele>404.99999999999994</ele><time>2026-04-18T12:43:07.999Z</time></trkpt><trkpt lat="44.60492882493981" lon="10.117652381167698"><ele>405.0</ele><time>2026-04-18T12:43:08.999Z</time></trkpt><trkpt lat="44.604991716544724" lon="10.117680418767742"><ele>405.0</ele><time>2026-04-18T12:43:09.999Z</time></trkpt><trkpt lat="44.60505602529676" lon="10.117702612920882"><ele>405.0</ele><time>2026-04-18T12:43:10.999Z</time></trkpt><trkpt lat="44.6051170719858" lon="10.117728104185254"><ele>405.0</ele><time>2026-04-18T12:43:11.999Z</time></trkpt><trkpt lat="44.60517808729612" lon="10.117758072149613"><ele>405.0</ele><time>2026-04-18T12:43:12.999Z</time></trkpt><trkpt lat="44.60523941237665" lon="10.117788541346645"><ele>405.0</ele><time>2026-04-18T12:43:13.999Z</time></trkpt><trkpt lat="44.605356781967984" lon="10.117843888476267"><ele>405.0</ele><time>2026-04-18T12:43:15.999Z</time></trkpt><trkpt lat="44.60547451945752" lon="10.11789142262166"><ele>404.4</ele><time>2026-04-18T12:43:17.999Z</time></trkpt><trkpt lat="44.605580868529394" lon="10.11795853804591"><ele>403.8</ele><time>2026-04-18T12:43:19.999Z</time></trkpt><trkpt lat="44.60567490611112" lon="10.118030191792226"><ele>403.20000000000005</ele><time>2026-04-18T12:43:21.999Z</time></trkpt><trkpt lat="44.60575698180991" lon="10.118111632680337"><ele>402.6</ele><time>2026-04-18T12:43:23.999Z</time></trkpt><trkpt lat="44.60583252159315" lon="10.118182629968"><ele>402.0</ele><time>2026-04-18T12:43:25.999Z</time></trkpt><trkpt lat="44.60590218003354" lon="10.118252139033267"><ele>402.0</ele><time>2026-04-18T12:43:27.999Z</time></trkpt><trkpt lat="44.60596975087657" lon="10.118317991159278"><ele>402.0</ele><time>2026-04-18T12:43:29.999Z</time></trkpt><trkpt lat="44.60603076628864" lon="10.118376615571242"><ele>402.0</ele><time>2026-04-18T12:43:31.999Z</time></trkpt><trkpt lat="44.60609391588684" lon="10.118439996840278"><ele>402.0</ele><time>2026-04-18T12:43:33.999Z</time></trkpt><trkpt lat="44.606152211363465" lon="10.118496816193831"><ele>402.0</ele><time>2026-04-18T12:43:36.999Z</time></trkpt><trkpt lat="44.606211652812895" lon="10.118539457830476"><ele>402.0</ele><time>2026-04-18T12:43:38.999Z</time></trkpt><trkpt lat="44.60631194283978" lon="10.118628109181032"><ele>403.1428571428571</ele><time>2026-04-18T12:43:41.999Z</time></trkpt><trkpt lat="44.60638111467468" lon="10.11865858209394"><ele>404.28571428571433</ele><time>2026-04-18T12:43:43.999Z</time></trkpt><trkpt lat="44.60645423819096" lon="10.118662951272483"><ele>405.42857142857144</ele><time>2026-04-18T12:43:45.999Z</time></trkpt><trkpt lat="44.60652130542949" lon="10.118627019814324"><ele>406.57142857142856</ele><time>2026-04-18T12:43:47.999Z</time></trkpt><trkpt lat="44.60657628109969" lon="10.118570396865058"><ele>407.71428571428567</ele><time>2026-04-18T12:43:49.999Z</time></trkpt><trkpt lat="44.60662051425491" lon="10.11848737155758"><ele>408.8571428571429</ele><time>2026-04-18T12:43:51.999Z</time></trkpt><trkpt lat="44.606640986784974" lon="10.118384756249226"><ele>410.0</ele><time>2026-04-18T12:43:53.999Z</time></trkpt><trkpt lat="44.60663539056041" lon="10.118281970209669"><ele>411.2857142857143</ele><time>2026-04-18T12:43:55.999Z</time></trkpt><trkpt lat="44.606615184776544" lon="10.118182585793656"><ele>412.57142857142856</ele><time>2026-04-18T12:43:57.999Z</time></trkpt><trkpt lat="44.60658189395019" lon="10.118089689640575"><ele>413.85714285714283</ele><time>2026-04-18T12:43:59.998Z</time></trkpt><trkpt lat="44.606543409483905" lon="10.118006086536026"><ele>415.1428571428571</ele><time>2026-04-18T12:44:01.998Z</time></trkpt><trkpt lat="44.606506660348515" lon="10.11792334376132"><ele>416.42857142857144</ele><time>2026-04-18T12:44:03.998Z</time></trkpt><trkpt lat="44.606454928837145" lon="10.117820134947404"><ele>417.71428571428567</ele><time>2026-04-18T12:44:06.998Z</time></trkpt><trkpt lat="44.606415963764114" lon="10.11774176410881"><ele>419.0</ele><time>2026-04-18T12:44:08.998Z</time></trkpt><trkpt lat="44.60638102898985" lon="10.117660894442935"><ele>418.99999999999994</ele><time>2026-04-18T12:44:10.998Z</time></trkpt><trkpt lat="44.6063480421747" lon="10.117582227303886"><ele>419.0</ele><time>2026-04-18T12:44:12.998Z</time></trkpt><trkpt lat="44.60631403985298" lon="10.117502423813416"><ele>419.0</ele><time>2026-04-18T12:44:14.998Z</time></trkpt><trkpt lat="44.6062802573401" lon="10.117425677946207"><ele>419.0</ele><time>2026-04-18T12:44:16.998Z</time></trkpt><trkpt lat="44.60623831528856" lon="10.117329702409904"><ele>418.99999999999994</ele><time>2026-04-18T12:44:19.998Z</time></trkpt><trkpt lat="44.606194990804674" lon="10.117219951653118"><ele>419.0</ele><time>2026-04-18T12:44:22.998Z</time></trkpt><trkpt lat="44.60615895725856" lon="10.117110994904044"><ele>419.0</ele><time>2026-04-18T12:44:25.998Z</time></trkpt><trkpt lat="44.6061210337354" lon="10.117023922407219"><ele>419.0</ele><time>2026-04-18T12:44:28.998Z</time></trkpt><trkpt lat="44.60606497932685" lon="10.11695762119807"><ele>419.0</ele><time>2026-04-18T12:44:30.998Z</time></trkpt><trkpt lat="44.605976266117096" lon="10.11691250129982"><ele>419.0</ele><time>2026-04-18T12:44:33.998Z</time></trkpt><trkpt lat="44.60583718776073" lon="10.116760851122077"><ele>419.0</ele><time>2026-04-18T12:44:34.998Z</time></trkpt><trkpt lat="44.60577466767702" lon="10.116727531397633"><ele>418.99999999999994</ele><time>2026-04-18T12:44:36.998Z</time></trkpt><trkpt lat="44.6057062286154" lon="10.116699395807316"><ele>419.0</ele><time>2026-04-18T12:44:38.998Z</time></trkpt><trkpt lat="44.60563907914392" lon="10.116655556356548"><ele>419.0</ele><time>2026-04-18T12:44:40.998Z</time></trkpt><trkpt lat="44.605582272454775" lon="10.116590747793754"><ele>419.0</ele><time>2026-04-18T12:44:42.998Z</time></trkpt><trkpt lat="44.60555181774299" lon="10.11650039683274"><ele>419.0</ele><time>2026-04-18T12:44:45Z</time></trkpt><trkpt lat="44.605549393450154" lon="10.1163968111575"><ele>418.99999999999994</ele><time>2026-04-18T12:44:47Z</time></trkpt><trkpt lat="44.60557631867744" lon="10.116301797986507"><ele>419.0</ele><time>2026-04-18T12:44:49Z</time></trkpt><trkpt lat="44.60562410200217" lon="10.116230342262119"><ele>421.16666666666663</ele><time>2026-04-18T12:44:51Z</time></trkpt><trkpt lat="44.60569127434868" lon="10.116195337101338"><ele>423.3333333333333</ele><time>2026-04-18T12:44:53Z</time></trkpt><trkpt lat="44.60578381449639" lon="10.116230724246845"><ele>425.5</ele><time>2026-04-18T12:44:56Z</time></trkpt><trkpt lat="44.60586180549569" lon="10.116266118075387"><ele>427.66666666666663</ele><time>2026-04-18T12:44:58Z</time></trkpt><trkpt lat="44.605942059671236" lon="10.116325372916437"><ele>429.8333333333333</ele><time>2026-04-18T12:45:00Z</time></trkpt><trkpt lat="44.60601294911832" lon="10.11638238928049"><ele>432.0</ele><time>2026-04-18T12:45:02Z</time></trkpt><trkpt lat="44.6060848291572" lon="10.116434300144965"><ele>432.0</ele><time>2026-04-18T12:45:04Z</time></trkpt><trkpt lat="44.60615744886433" lon="10.116483276277192"><ele>432.0</ele><time>2026-04-18T12:45:06Z</time></trkpt><trkpt lat="44.606232048409474" lon="10.116541311207335"><ele>432.0</ele><time>2026-04-18T12:45:08Z</time></trkpt><trkpt lat="44.6063105694838" lon="10.116604063224974"><ele>432.0</ele><time>2026-04-18T12:45:09.999Z</time></trkpt><trkpt lat="44.6063921802258" lon="10.116664194466743"><ele>432.0</ele><time>2026-04-18T12:45:11.999Z</time></trkpt><trkpt lat="44.60645726825107" lon="10.116720857905644"><ele>432.0</ele><time>2026-04-18T12:45:13.999Z</time></trkpt><trkpt lat="44.60654624592797" lon="10.116769399412206"><ele>431.8</ele><time>2026-04-18T12:45:15.999Z</time></trkpt><trkpt lat="44.60663045198876" lon="10.116821648602624"><ele>431.6</ele><time>2026-04-18T12:45:17.999Z</time></trkpt><trkpt lat="44.60671940730878" lon="10.116835916925465"><ele>431.40000000000003</ele><time>2026-04-18T12:45:19.999Z</time></trkpt><trkpt lat="44.60681738590341" lon="10.116833900976928"><ele>431.20000000000005</ele><time>2026-04-18T12:45:21.999Z</time></trkpt><trkpt lat="44.606912284278735" lon="10.116810419202437"><ele>431.0</ele><time>2026-04-18T12:45:23.999Z</time></trkpt><trkpt lat="44.606996513589316" lon="10.1167772833732"><ele>430.99999999999994</ele><time>2026-04-18T12:45:25.999Z</time></trkpt><trkpt lat="44.60707709676217" lon="10.116737400180499"><ele>431.0</ele><time>2026-04-18T12:45:27.999Z</time></trkpt><trkpt lat="44.60715667782329" lon="10.116693212711693"><ele>431.0</ele><time>2026-04-18T12:45:29.999Z</time></trkpt><trkpt lat="44.60722872533695" lon="10.116656800315948"><ele>431.0</ele><time>2026-04-18T12:45:31.999Z</time></trkpt><trkpt lat="44.607297356249866" lon="10.116619166974697"><ele>430.99999999999994</ele><time>2026-04-18T12:45:33.999Z</time></trkpt><trkpt lat="44.60739264577252" lon="10.11660231385877"><ele>431.0</ele><time>2026-04-18T12:45:35.999Z</time></trkpt><trkpt lat="44.60746553452644" lon="10.116579773566329"><ele>432.5714285714286</ele><time>2026-04-18T12:45:38.999Z</time></trkpt><trkpt lat="44.607532801910665" lon="10.116511330577877"><ele>434.1428571428571</ele><time>2026-04-18T12:45:40.999Z</time></trkpt><trkpt lat="44.60760304548569" lon="10.116478183954737"><ele>435.7142857142857</ele><time>2026-04-18T12:45:42.999Z</time></trkpt><trkpt lat="44.6076714156539" lon="10.116453572837713"><ele>437.28571428571433</ele><time>2026-04-18T12:45:44.999Z</time></trkpt><trkpt lat="44.60773751551905" lon="10.116443897422537"><ele>438.8571428571429</ele><time>2026-04-18T12:45:46.999Z</time></trkpt><trkpt lat="44.60780505278448" lon="10.116447207746228"><ele>440.42857142857144</ele><time>2026-04-18T12:45:48.999Z</time></trkpt><trkpt lat="44.607867787645546" lon="10.116472564908051"><ele>442.0</ele><time>2026-04-18T12:45:50.999Z</time></trkpt><trkpt lat="44.60792668964789" lon="10.116515571242592"><ele>441.1666666666667</ele><time>2026-04-18T12:45:52.999Z</time></trkpt><trkpt lat="44.60797594484381" lon="10.116573949271237"><ele>440.33333333333337</ele><time>2026-04-18T12:45:54.999Z</time></trkpt><trkpt lat="44.60803318300802" lon="10.11667709973099"><ele>439.5</ele><time>2026-04-18T12:45:57.999Z</time></trkpt><trkpt lat="44.60808266323816" lon="10.116752243418873"><ele>438.66666666666663</ele><time>2026-04-18T12:45:59.998Z</time></trkpt><trkpt lat="44.60813126617538" lon="10.116848016792295"><ele>437.8333333333333</ele><time>2026-04-18T12:46:02.998Z</time></trkpt><trkpt lat="44.60818496701895" lon="10.116925290783385"><ele>437.0</ele><time>2026-04-18T12:46:04.998Z</time></trkpt><trkpt lat="44.608247408166484" lon="10.116981791594924"><ele>436.99999999999994</ele><time>2026-04-18T12:46:07.998Z</time></trkpt><trkpt lat="44.608313645579905" lon="10.117015978752146"><ele>437.0</ele><time>2026-04-18T12:46:09.998Z</time></trkpt><trkpt lat="44.60843211690249" lon="10.11701048400126"><ele>437.0</ele><time>2026-04-18T12:46:12.998Z</time></trkpt><trkpt lat="44.60849828098308" lon="10.11696773773407"><ele>437.0</ele><time>2026-04-18T12:46:14.998Z</time></trkpt><trkpt lat="44.608559765383504" lon="10.116901451697462"><ele>436.99999999999994</ele><time>2026-04-18T12:46:16.998Z</time></trkpt><trkpt lat="44.60861285473601" lon="10.11681929155556"><ele>437.0</ele><time>2026-04-18T12:46:18.998Z</time></trkpt><trkpt lat="44.60864752625245" lon="10.11671765262566"><ele>436.66666666666663</ele><time>2026-04-18T12:46:20.998Z</time></trkpt><trkpt lat="44.608659853978246" lon="10.116604908211169"><ele>436.3333333333333</ele><time>2026-04-18T12:46:22.998Z</time></trkpt><trkpt lat="44.608664182307" lon="10.116490698016493"><ele>436.0</ele><time>2026-04-18T12:46:24.998Z</time></trkpt><trkpt lat="44.60865422634616" lon="10.116378640222985"><ele>435.66666666666663</ele><time>2026-04-18T12:46:26.998Z</time></trkpt><trkpt lat="44.608645149922204" lon="10.116239242619711"><ele>435.3333333333333</ele><time>2026-04-18T12:46:29.998Z</time></trkpt><trkpt lat="44.60863356495557" lon="10.11612504971184"><ele>435.0</ele><time>2026-04-18T12:46:31.998Z</time></trkpt><trkpt lat="44.608630222427635" lon="10.116025815778062"><ele>436.00000000000006</ele><time>2026-04-18T12:46:33.998Z</time></trkpt><trkpt lat="44.608597980179056" lon="10.115935512173477"><ele>437.0</ele><time>2026-04-18T12:46:35.998Z</time></trkpt><trkpt lat="44.608588082475485" lon="10.115837785819647"><ele>438.0</ele><time>2026-04-18T12:46:37.998Z</time></trkpt><trkpt lat="44.60857288837615" lon="10.11572984136934"><ele>439.0</ele><time>2026-04-18T12:46:39.998Z</time></trkpt><trkpt lat="44.60855354786387" lon="10.115627247945975"><ele>440.0</ele><time>2026-04-18T12:46:41.998Z</time></trkpt><trkpt lat="44.608535917574955" lon="10.115529118548949"><ele>441.00000000000006</ele><time>2026-04-18T12:46:43.998Z</time></trkpt><trkpt lat="44.60852415276369" lon="10.1154260262141"><ele>442.0</ele><time>2026-04-18T12:46:45.998Z</time></trkpt><trkpt lat="44.6085077242417" lon="10.115315263401758"><ele>443.00000000000006</ele><time>2026-04-18T12:46:47.998Z</time></trkpt><trkpt lat="44.60848599204905" lon="10.115206514322919"><ele>444.0</ele><time>2026-04-18T12:46:50Z</time></trkpt><trkpt lat="44.60846393836829" lon="10.115077353667836"><ele>445.0</ele><time>2026-04-18T12:46:53Z</time></trkpt><trkpt lat="44.608453129466156" lon="10.1149697364359"><ele>446.0</ele><time>2026-04-18T12:46:55Z</time></trkpt><trkpt lat="44.60844838071075" lon="10.114863799709585"><ele>447.00000000000006</ele><time>2026-04-18T12:46:57Z</time></trkpt><trkpt lat="44.60845625480676" lon="10.114758579704034"><ele>448.0</ele><time>2026-04-18T12:46:59Z</time></trkpt><trkpt lat="44.6084829246421" lon="10.114655889554374"><ele>449.0</ele><time>2026-04-18T12:47:01Z</time></trkpt><trkpt lat="44.608518187822035" lon="10.114553461927507"><ele>449.99999999999994</ele><time>2026-04-18T12:47:03Z</time></trkpt><trkpt lat="44.60857728669518" lon="10.114447824300981"><ele>450.99999999999994</ele><time>2026-04-18T12:47:05Z</time></trkpt><trkpt lat="44.60864715808482" lon="10.114367890322335"><ele>452.0</ele><time>2026-04-18T12:47:07Z</time></trkpt><trkpt lat="44.60872745715134" lon="10.114314575681242"><ele>453.0</ele><time>2026-04-18T12:47:09Z</time></trkpt><trkpt lat="44.608820371137604" lon="10.114281533626304"><ele>453.0</ele><time>2026-04-18T12:47:11Z</time></trkpt><trkpt lat="44.60891351104887" lon="10.114291975886449"><ele>452.99999999999994</ele><time>2026-04-18T12:47:12.999Z</time></trkpt><trkpt lat="44.6090071051794" lon="10.114334107783478"><ele>452.99999999999994</ele><time>2026-04-18T12:47:14.999Z</time></trkpt><trkpt lat="44.60909694414581" lon="10.114394404360604"><ele>453.0</ele><time>2026-04-18T12:47:16.999Z</time></trkpt><trkpt lat="44.609178686927024" lon="10.11447339173998"><ele>453.0</ele><time>2026-04-18T12:47:18.999Z</time></trkpt><trkpt lat="44.60925961702539" lon="10.114561957326181"><ele>453.0</ele><time>2026-04-18T12:47:20.999Z</time></trkpt><trkpt lat="44.609345488408614" lon="10.11463639057306"><ele>452.99999999999994</ele><time>2026-04-18T12:47:22.999Z</time></trkpt><trkpt lat="44.60943464272299" lon="10.114705383408143"><ele>452.99999999999994</ele><time>2026-04-18T12:47:24.999Z</time></trkpt><trkpt lat="44.60952731337411" lon="10.114776847777115"><ele>453.0</ele><time>2026-04-18T12:47:26.999Z</time></trkpt><trkpt lat="44.60962399555587" lon="10.114847827968674"><ele>453.0</ele><time>2026-04-18T12:47:28.999Z</time></trkpt><trkpt lat="44.60973141118205" lon="10.114901879541641"><ele>454.0</ele><time>2026-04-18T12:47:30.999Z</time></trkpt><trkpt lat="44.609843018481506" lon="10.114918271515583"><ele>454.99999999999994</ele><time>2026-04-18T12:47:32.999Z</time></trkpt><trkpt lat="44.609956343049696" lon="10.114901873528739"><ele>455.99999999999994</ele><time>2026-04-18T12:47:34.999Z</time></trkpt><trkpt lat="44.61005584522394" lon="10.114846994931225"><ele>457.0</ele><time>2026-04-18T12:47:36.999Z</time></trkpt><trkpt lat="44.61014917197833" lon="10.11477209171795"><ele>458.0</ele><time>2026-04-18T12:47:38.999Z</time></trkpt><trkpt lat="44.610249064318786" lon="10.114699324120261"><ele>457.2</ele><time>2026-04-18T12:47:40.999Z</time></trkpt><trkpt lat="44.61034539534265" lon="10.114625899183867"><ele>456.4</ele><time>2026-04-18T12:47:42.999Z</time></trkpt><trkpt lat="44.61044417963971" lon="10.114567891881602"><ele>455.59999999999997</ele><time>2026-04-18T12:47:44.999Z</time></trkpt><trkpt lat="44.61055747094919" lon="10.114544363937894"><ele>454.79999999999995</ele><time>2026-04-18T12:47:46.999Z</time></trkpt><trkpt lat="44.610671187432565" lon="10.114571609756368"><ele>454.0</ele><time>2026-04-18T12:47:48.999Z</time></trkpt><trkpt lat="44.610775180883245" lon="10.114633284691557"><ele>454.0</ele><time>2026-04-18T12:47:50.999Z</time></trkpt><trkpt lat="44.610878038502584" lon="10.114704008569134"><ele>454.0</ele><time>2026-04-18T12:47:52.999Z</time></trkpt><trkpt lat="44.610985719559565" lon="10.114768559132012"><ele>454.0</ele><time>2026-04-18T12:47:54.999Z</time></trkpt><trkpt lat="44.61109947940523" lon="10.114806648947336"><ele>454.0</ele><time>2026-04-18T12:47:56.999Z</time></trkpt><trkpt lat="44.611212841355666" lon="10.114792887464576"><ele>452.75</ele><time>2026-04-18T12:47:58.999Z</time></trkpt><trkpt lat="44.611309858503816" lon="10.114718283042114"><ele>451.5</ele><time>2026-04-18T12:48:00.999Z</time></trkpt><trkpt lat="44.61139122966656" lon="10.114609429427489"><ele>450.25</ele><time>2026-04-18T12:48:02.999Z</time></trkpt><trkpt lat="44.61146115109305" lon="10.114478311457518"><ele>449.0</ele><time>2026-04-18T12:48:04.998Z</time></trkpt><trkpt lat="44.611528813456246" lon="10.11434629891023"><ele>449.0</ele><time>2026-04-18T12:48:06.998Z</time></trkpt><trkpt lat="44.61159935625886" lon="10.114207031523481"><ele>449.0</ele><time>2026-04-18T12:48:08.998Z</time></trkpt><trkpt lat="44.611666641846476" lon="10.114063674025918"><ele>449.0</ele><time>2026-04-18T12:48:10.998Z</time></trkpt><trkpt lat="44.6117438512464" lon="10.113927227264757"><ele>449.0</ele><time>2026-04-18T12:48:12.998Z</time></trkpt><trkpt lat="44.611839438388316" lon="10.113813015245679"><ele>449.85714285714283</ele><time>2026-04-18T12:48:14.998Z</time></trkpt><trkpt lat="44.611894778620695" lon="10.113767221440469"><ele>450.71428571428567</ele><time>2026-04-18T12:48:15.998Z</time></trkpt><trkpt lat="44.61195684841707" lon="10.113734964595867"><ele>451.57142857142856</ele><time>2026-04-18T12:48:16.998Z</time></trkpt><trkpt lat="44.61202004728082" lon="10.113705506773766"><ele>452.42857142857144</ele><time>2026-04-18T12:48:17.998Z</time></trkpt><trkpt lat="44.61208651989655" lon="10.113684423928337"><ele>453.2857142857143</ele><time>2026-04-18T12:48:18.998Z</time></trkpt><trkpt lat="44.612149497666636" lon="10.113663361367049"><ele>454.1428571428571</ele><time>2026-04-18T12:48:19.998Z</time></trkpt><trkpt lat="44.61221025647446" lon="10.113633962070631"><ele>455.0</ele><time>2026-04-18T12:48:20.998Z</time></trkpt><trkpt lat="44.612332018052214" lon="10.113583071970801"><ele>455.0</ele><time>2026-04-18T12:48:22.998Z</time></trkpt><trkpt lat="44.612393001523216" lon="10.11355748902956"><ele>455.0</ele><time>2026-04-18T12:48:23.998Z</time></trkpt><trkpt lat="44.612508621593946" lon="10.113509712926675"><ele>455.0</ele><time>2026-04-18T12:48:25.998Z</time></trkpt><trkpt lat="44.61257297526806" lon="10.113499797532349"><ele>455.0</ele><time>2026-04-18T12:48:26.998Z</time></trkpt><trkpt lat="44.61263732059184" lon="10.113485375024373"><ele>455.0</ele><time>2026-04-18T12:48:27.998Z</time></trkpt><trkpt lat="44.61270341761041" lon="10.113486220793813"><ele>455.0</ele><time>2026-04-18T12:48:28.998Z</time></trkpt><trkpt lat="44.61277238887012" lon="10.113489377786724"><ele>455.0</ele><time>2026-04-18T12:48:29.998Z</time></trkpt><trkpt lat="44.61283927878085" lon="10.11349590760564"><ele>455.0</ele><time>2026-04-18T12:48:30.998Z</time></trkpt><trkpt lat="44.61290263506333" lon="10.113498350281018"><ele>455.0</ele><time>2026-04-18T12:48:31.998Z</time></trkpt><trkpt lat="44.61296652532118" lon="10.11350018545444"><ele>455.0</ele><time>2026-04-18T12:48:32.998Z</time></trkpt><trkpt lat="44.613031009183466" lon="10.11349756221646"><ele>455.0</ele><time>2026-04-18T12:48:33.998Z</time></trkpt><trkpt lat="44.613155182624425" lon="10.113498628063033"><ele>455.0</ele><time>2026-04-18T12:48:35.998Z</time></trkpt><trkpt lat="44.61321931311845" lon="10.113501873707941"><ele>455.0</ele><time>2026-04-18T12:48:36.998Z</time></trkpt><trkpt lat="44.61328355186907" lon="10.113500464765744"><ele>455.0</ele><time>2026-04-18T12:48:37.998Z</time></trkpt><trkpt lat="44.613347097008585" lon="10.113511507147736"><ele>454.99999999999994</ele><time>2026-04-18T12:48:38.998Z</time></trkpt><trkpt lat="44.613479888857846" lon="10.113567032267229"><ele>455.0</ele><time>2026-04-18T12:48:40.998Z</time></trkpt><trkpt lat="44.61353583250742" lon="10.113632473591196"><ele>455.0</ele><time>2026-04-18T12:48:41.998Z</time></trkpt><trkpt lat="44.61357647243938" lon="10.113723313421852"><ele>455.0</ele><time>2026-04-18T12:48:42.998Z</time></trkpt><trkpt lat="44.613600437229344" lon="10.113825450721848"><ele>454.99999999999994</ele><time>2026-04-18T12:48:43.998Z</time></trkpt><trkpt lat="44.61359928865048" lon="10.113923187067803"><ele>455.0</ele><time>2026-04-18T12:48:44.998Z</time></trkpt><trkpt lat="44.61353632876531" lon="10.11401037857972"><ele>453.8333333333333</ele><time>2026-04-18T12:48:45.998Z</time></trkpt><trkpt lat="44.61351272786283" lon="10.114188277467486"><ele>452.66666666666663</ele><time>2026-04-18T12:48:47.998Z</time></trkpt><trkpt lat="44.61349955571787" lon="10.114281995362441"><ele>451.5</ele><time>2026-04-18T12:48:48.998Z</time></trkpt><trkpt lat="44.613486965057255" lon="10.11437157483101"><ele>450.33333333333337</ele><time>2026-04-18T12:48:49.998Z</time></trkpt><trkpt lat="44.61347397847257" lon="10.114463969548357"><ele>449.1666666666667</ele><time>2026-04-18T12:48:50.998Z</time></trkpt><trkpt lat="44.61346052524652" lon="10.114553288150141"><ele>448.0</ele><time>2026-04-18T12:48:51.998Z</time></trkpt><trkpt lat="44.61344609845173" lon="10.114653067934995"><ele>448.0</ele><time>2026-04-18T12:48:52.998Z</time></trkpt><trkpt lat="44.613432696591005" lon="10.114745759107485"><ele>448.0</ele><time>2026-04-18T12:48:53.998Z</time></trkpt><trkpt lat="44.613418750911556" lon="10.114842209669984"><ele>448.0</ele><time>2026-04-18T12:48:54.998Z</time></trkpt><trkpt lat="44.613404384056906" lon="10.114941571837335"><ele>448.0</ele><time>2026-04-18T12:48:56Z</time></trkpt><trkpt lat="44.61338979473134" lon="10.115038948525484"><ele>448.0</ele><time>2026-04-18T12:48:57Z</time></trkpt><trkpt lat="44.6133765611756" lon="10.115137519542696"><ele>448.0</ele><time>2026-04-18T12:48:58Z</time></trkpt><trkpt lat="44.613363229870096" lon="10.115236818841463"><ele>448.0</ele><time>2026-04-18T12:48:59Z</time></trkpt><trkpt lat="44.6133500176937" lon="10.115335230800012"><ele>448.0</ele><time>2026-04-18T12:49:00Z</time></trkpt><trkpt lat="44.613337112962554" lon="10.115431352736264"><ele>448.0</ele><time>2026-04-18T12:49:01Z</time></trkpt><trkpt lat="44.61332387182614" lon="10.11552998034884"><ele>448.0</ele><time>2026-04-18T12:49:02Z</time></trkpt><trkpt lat="44.61331057889837" lon="10.115628993787052"><ele>448.0</ele><time>2026-04-18T12:49:03Z</time></trkpt><trkpt lat="44.61329732893429" lon="10.115727687220618"><ele>448.0</ele><time>2026-04-18T12:49:04Z</time></trkpt><trkpt lat="44.613283776067995" lon="10.11582146854347"><ele>448.0</ele><time>2026-04-18T12:49:05Z</time></trkpt><trkpt lat="44.61326896895813" lon="10.115919271571702"><ele>448.0</ele><time>2026-04-18T12:49:06Z</time></trkpt><trkpt lat="44.61325401867" lon="10.116018020415575"><ele>447.57142857142856</ele><time>2026-04-18T12:49:07Z</time></trkpt><trkpt lat="44.61323949408555" lon="10.116113957469981"><ele>447.1428571428571</ele><time>2026-04-18T12:49:08Z</time></trkpt><trkpt lat="44.61322446026626" lon="10.116213257987313"><ele>446.7142857142857</ele><time>2026-04-18T12:49:09Z</time></trkpt><trkpt lat="44.61320972702315" lon="10.11631057325273"><ele>446.2857142857143</ele><time>2026-04-18T12:49:10Z</time></trkpt><trkpt lat="44.613194995766655" lon="10.116407875353229"><ele>445.85714285714283</ele><time>2026-04-18T12:49:11Z</time></trkpt><trkpt lat="44.613180020520296" lon="10.116506789029492"><ele>445.42857142857144</ele><time>2026-04-18T12:49:12Z</time></trkpt><trkpt lat="44.61317036610145" lon="10.11660889730103"><ele>445.0</ele><time>2026-04-18T12:49:13Z</time></trkpt><trkpt lat="44.613161952859286" lon="10.116711868853246"><ele>444.8571428571429</ele><time>2026-04-18T12:49:14Z</time></trkpt><trkpt lat="44.61315829229691" lon="10.116814414831993"><ele>444.71428571428567</ele><time>2026-04-18T12:49:15Z</time></trkpt><trkpt lat="44.61316853806963" lon="10.116917867544482"><ele>444.57142857142856</ele><time>2026-04-18T12:49:16Z</time></trkpt><trkpt lat="44.61319186760609" lon="10.117012153767103"><ele>444.42857142857144</ele><time>2026-04-18T12:49:16.999Z</time></trkpt><trkpt lat="44.613229865509" lon="10.117097160780915"><ele>444.28571428571433</ele><time>2026-04-18T12:49:17.999Z</time></trkpt><trkpt lat="44.61328619992063" lon="10.117161196596982"><ele>444.1428571428571</ele><time>2026-04-18T12:49:18.999Z</time></trkpt><trkpt lat="44.61333629720823" lon="10.117225632779913"><ele>444.0</ele><time>2026-04-18T12:49:19.999Z</time></trkpt><trkpt lat="44.61339037053238" lon="10.11728090199825"><ele>444.0</ele><time>2026-04-18T12:49:20.999Z</time></trkpt><trkpt lat="44.61344405942058" lon="10.117332295373412"><ele>444.0</ele><time>2026-04-18T12:49:21.999Z</time></trkpt><trkpt lat="44.61349976363188" lon="10.117382840975948"><ele>444.0</ele><time>2026-04-18T12:49:22.999Z</time></trkpt><trkpt lat="44.61355549489531" lon="10.117435758842076"><ele>444.0</ele><time>2026-04-18T12:49:23.999Z</time></trkpt><trkpt lat="44.61366453048841" lon="10.117528947143262"><ele>444.0</ele><time>2026-04-18T12:49:25.999Z</time></trkpt><trkpt lat="44.61375249043482" lon="10.117648540076996"><ele>444.0</ele><time>2026-04-18T12:49:27.999Z</time></trkpt><trkpt lat="44.61381530540926" lon="10.117780048243109"><ele>443.79999999999995</ele><time>2026-04-18T12:49:29.999Z</time></trkpt><trkpt lat="44.613835637015725" lon="10.117920536415548"><ele>443.59999999999997</ele><time>2026-04-18T12:49:31.999Z</time></trkpt><trkpt lat="44.61385046876864" lon="10.118046387176255"><ele>443.4</ele><time>2026-04-18T12:49:33.999Z</time></trkpt><trkpt lat="44.613863685164034" lon="10.118178163567302"><ele>443.2</ele><time>2026-04-18T12:49:35.999Z</time></trkpt><trkpt lat="44.61389705289" lon="10.118312667693647"><ele>443.0</ele><time>2026-04-18T12:49:37.999Z</time></trkpt><trkpt lat="44.61394648900778" lon="10.118417139317781"><ele>444.8333333333333</ele><time>2026-04-18T12:49:39.999Z</time></trkpt><trkpt lat="44.614011000074576" lon="10.118499386001002"><ele>446.66666666666663</ele><time>2026-04-18T12:49:41.999Z</time></trkpt><trkpt lat="44.614094106077175" lon="10.11854729217481"><ele>448.5</ele><time>2026-04-18T12:49:43.999Z</time></trkpt><trkpt lat="44.61418015804945" lon="10.118595878993403"><ele>450.33333333333337</ele><time>2026-04-18T12:49:45.999Z</time></trkpt><trkpt lat="44.61424722146968" lon="10.118618589719947"><ele>452.1666666666667</ele><time>2026-04-18T12:49:47.999Z</time></trkpt><trkpt lat="44.614335938146205" lon="10.118644732512832"><ele>454.0</ele><time>2026-04-18T12:49:49.999Z</time></trkpt><trkpt lat="44.61442895695331" lon="10.118681409153071"><ele>454.4</ele><time>2026-04-18T12:49:51.999Z</time></trkpt><trkpt lat="44.61451042729259" lon="10.118737066512436"><ele>454.79999999999995</ele><time>2026-04-18T12:49:53.999Z</time></trkpt><trkpt lat="44.61458747120797" lon="10.11881948956739"><ele>455.20000000000005</ele><time>2026-04-18T12:49:55.999Z</time></trkpt><trkpt lat="44.61466444298898" lon="10.118941701006753"><ele>455.6</ele><time>2026-04-18T12:49:57.999Z</time></trkpt><trkpt lat="44.614724529388056" lon="10.119070136419625"><ele>456.0</ele><time>2026-04-18T12:49:59.999Z</time></trkpt><trkpt lat="44.61478425554995" lon="10.119199377545522"><ele>456.0</ele><time>2026-04-18T12:50:01.999Z</time></trkpt><trkpt lat="44.61484453122468" lon="10.119327568654363"><ele>456.0</ele><time>2026-04-18T12:50:03.999Z</time></trkpt><trkpt lat="44.614906971869374" lon="10.119469439670404"><ele>456.0</ele><time>2026-04-18T12:50:05.999Z</time></trkpt><trkpt lat="44.61497950144463" lon="10.119610936606513"><ele>456.0</ele><time>2026-04-18T12:50:07.999Z</time></trkpt><trkpt lat="44.61505828070115" lon="10.119745032040521"><ele>456.0</ele><time>2026-04-18T12:50:09.998Z</time></trkpt><trkpt lat="44.61510388761036" lon="10.119809108993584"><ele>455.99999999999994</ele><time>2026-04-18T12:50:10.998Z</time></trkpt><trkpt lat="44.61515461926504" lon="10.119861639720984"><ele>456.0</ele><time>2026-04-18T12:50:11.998Z</time></trkpt><trkpt lat="44.615209603647536" lon="10.119912306479028"><ele>456.0</ele><time>2026-04-18T12:50:12.998Z</time></trkpt><trkpt lat="44.615270461153685" lon="10.11995015968077"><ele>455.99999999999994</ele><time>2026-04-18T12:50:13.998Z</time></trkpt><trkpt lat="44.61533573284635" lon="10.119969185646406"><ele>456.0</ele><time>2026-04-18T12:50:14.998Z</time></trkpt><trkpt lat="44.61540003035487" lon="10.119971449662671"><ele>456.0</ele><time>2026-04-18T12:50:15.998Z</time></trkpt><trkpt lat="44.615465119885464" lon="10.119959990146702"><ele>456.1666666666667</ele><time>2026-04-18T12:50:16.998Z</time></trkpt><trkpt lat="44.615588199824025" lon="10.119913543640061"><ele>456.33333333333337</ele><time>2026-04-18T12:50:18.998Z</time></trkpt><trkpt lat="44.61565368835992" lon="10.119895138946584"><ele>456.5</ele><time>2026-04-18T12:50:19.998Z</time></trkpt><trkpt lat="44.61572272397908" lon="10.119887023732314"><ele>456.6666666666667</ele><time>2026-04-18T12:50:20.998Z</time></trkpt><trkpt lat="44.61579487389963" lon="10.11988658137214"><ele>456.83333333333337</ele><time>2026-04-18T12:50:21.998Z</time></trkpt><trkpt lat="44.61586541990352" lon="10.11990071226854"><ele>457.0</ele><time>2026-04-18T12:50:22.998Z</time></trkpt><trkpt lat="44.615934257760394" lon="10.119935937119617"><ele>457.00000000000006</ele><time>2026-04-18T12:50:23.998Z</time></trkpt><trkpt lat="44.61599914846491" lon="10.11998269636204"><ele>457.0</ele><time>2026-04-18T12:50:24.998Z</time></trkpt><trkpt lat="44.61606449615847" lon="10.120037973730039"><ele>457.0</ele><time>2026-04-18T12:50:25.998Z</time></trkpt><trkpt lat="44.61612965271057" lon="10.12010750709994"><ele>457.0</ele><time>2026-04-18T12:50:26.998Z</time></trkpt><trkpt lat="44.61619809329433" lon="10.120175356231792"><ele>457.00000000000006</ele><time>2026-04-18T12:50:27.998Z</time></trkpt><trkpt lat="44.61626664466963" lon="10.120249854691744"><ele>457.0</ele><time>2026-04-18T12:50:28.998Z</time></trkpt><trkpt lat="44.61633718428498" lon="10.120324575021606"><ele>455.20000000000005</ele><time>2026-04-18T12:50:29.998Z</time></trkpt><trkpt lat="44.616410324291714" lon="10.120405326723782"><ele>453.40000000000003</ele><time>2026-04-18T12:50:30.998Z</time></trkpt><trkpt lat="44.61648561406497" lon="10.120479525161112"><ele>451.59999999999997</ele><time>2026-04-18T12:50:31.998Z</time></trkpt><trkpt lat="44.61656494848651" lon="10.120551471950591"><ele>449.79999999999995</ele><time>2026-04-18T12:50:32.998Z</time></trkpt><trkpt lat="44.61664343876546" lon="10.12063208108879"><ele>448.0</ele><time>2026-04-18T12:50:33.998Z</time></trkpt><trkpt lat="44.61672497367536" lon="10.12070941794997"><ele>448.2</ele><time>2026-04-18T12:50:34.998Z</time></trkpt><trkpt lat="44.61681590819948" lon="10.120772024361424"><ele>448.4</ele><time>2026-04-18T12:50:35.998Z</time></trkpt><trkpt lat="44.61691417947354" lon="10.120801975316308"><ele>448.59999999999997</ele><time>2026-04-18T12:50:36.998Z</time></trkpt><trkpt lat="44.61701717641575" lon="10.120814002869256"><ele>448.79999999999995</ele><time>2026-04-18T12:50:37.998Z</time></trkpt><trkpt lat="44.617121425690115" lon="10.12078239113773"><ele>449.0</ele><time>2026-04-18T12:50:38.998Z</time></trkpt><trkpt lat="44.61722212805818" lon="10.120719186822194"><ele>447.25</ele><time>2026-04-18T12:50:39.998Z</time></trkpt><trkpt lat="44.61731031483477" lon="10.120632731513458"><ele>445.5</ele><time>2026-04-18T12:50:40.998Z</time></trkpt><trkpt lat="44.61738930597622" lon="10.120526414303317"><ele>443.75</ele><time>2026-04-18T12:50:41.998Z</time></trkpt><trkpt lat="44.6174756686117" lon="10.120418698711502"><ele>442.0</ele><time>2026-04-18T12:50:42.998Z</time></trkpt><trkpt lat="44.617570829007214" lon="10.120319495010714"><ele>442.0</ele><time>2026-04-18T12:50:43.998Z</time></trkpt><trkpt lat="44.6176677863176" lon="10.120218095418673"><ele>442.0</ele><time>2026-04-18T12:50:44.998Z</time></trkpt><trkpt lat="44.61776143664674" lon="10.120114020383818"><ele>442.0</ele><time>2026-04-18T12:50:45.998Z</time></trkpt><trkpt lat="44.6178603412937" lon="10.120024228676881"><ele>442.0</ele><time>2026-04-18T12:50:46.998Z</time></trkpt><trkpt lat="44.617968270136565" lon="10.119946038497782"><ele>441.25</ele><time>2026-04-18T12:50:47.998Z</time></trkpt><trkpt lat="44.61808563184" lon="10.119902736095007"><ele>440.5</ele><time>2026-04-18T12:50:48.998Z</time></trkpt><trkpt lat="44.6182117819886" lon="10.119887093840227"><ele>439.75</ele><time>2026-04-18T12:50:49.998Z</time></trkpt><trkpt lat="44.618337693898674" lon="10.119902780470321"><ele>439.0</ele><time>2026-04-18T12:50:50.998Z</time></trkpt><trkpt lat="44.6184597790676" lon="10.119922616155979"><ele>439.0</ele><time>2026-04-18T12:50:51.998Z</time></trkpt><trkpt lat="44.618578620329416" lon="10.11997324666974"><ele>439.0</ele><time>2026-04-18T12:50:52.998Z</time></trkpt><trkpt lat="44.618684050190204" lon="10.1200686493791"><ele>439.0</ele><time>2026-04-18T12:50:53.998Z</time></trkpt><trkpt lat="44.61878325517526" lon="10.12017196543757"><ele>439.0</ele><time>2026-04-18T12:50:54.998Z</time></trkpt><trkpt lat="44.618875006552884" lon="10.120271481610308"><ele>437.5</ele><time>2026-04-18T12:50:55.998Z</time></trkpt><trkpt lat="44.61896383672893" lon="10.120368490104108"><ele>436.0</ele><time>2026-04-18T12:50:56.998Z</time></trkpt><trkpt lat="44.619062530371735" lon="10.120461306613516"><ele>434.5</ele><time>2026-04-18T12:50:57.998Z</time></trkpt><trkpt lat="44.61915793728287" lon="10.12054511135002"><ele>433.0</ele><time>2026-04-18T12:50:58.998Z</time></trkpt><trkpt lat="44.6192618288674" lon="10.120596645405444"><ele>433.0</ele><time>2026-04-18T12:50:59.998Z</time></trkpt><trkpt lat="44.61937135381378" lon="10.120619604415008"><ele>433.0</ele><time>2026-04-18T12:51:00.998Z</time></trkpt><trkpt lat="44.61948749709402" lon="10.120597740883701"><ele>433.0</ele><time>2026-04-18T12:51:02Z</time></trkpt><trkpt lat="44.61959019194172" lon="10.120533196534877"><ele>433.0</ele><time>2026-04-18T12:51:03Z</time></trkpt><trkpt lat="44.61966829349785" lon="10.120420372195204"><ele>433.4</ele><time>2026-04-18T12:51:04Z</time></trkpt><trkpt lat="44.61973608383343" lon="10.120297952013576"><ele>433.79999999999995</ele><time>2026-04-18T12:51:05Z</time></trkpt><trkpt lat="44.61980275664733" lon="10.120177771933369"><ele>434.2</ele><time>2026-04-18T12:51:06Z</time></trkpt><trkpt lat="44.61987296520484" lon="10.120059184297"><ele>434.6</ele><time>2026-04-18T12:51:07Z</time></trkpt><trkpt lat="44.61993641829684" lon="10.119931835391911"><ele>435.0</ele><time>2026-04-18T12:51:08Z</time></trkpt><trkpt lat="44.62000271869798" lon="10.119804077198982"><ele>432.75</ele><time>2026-04-18T12:51:09Z</time></trkpt><trkpt lat="44.62007316761152" lon="10.11967907542548"><ele>430.5</ele><time>2026-04-18T12:51:10Z</time></trkpt><trkpt lat="44.620144288010124" lon="10.11955019763101"><ele>428.25</ele><time>2026-04-18T12:51:11Z</time></trkpt><trkpt lat="44.62021545211789" lon="10.119419235583418"><ele>426.0</ele><time>2026-04-18T12:51:12Z</time></trkpt><trkpt lat="44.62029395828033" lon="10.119289327124878"><ele>426.25</ele><time>2026-04-18T12:51:13Z</time></trkpt><trkpt lat="44.62036242708188" lon="10.119148335565436"><ele>426.5</ele><time>2026-04-18T12:51:14Z</time></trkpt><trkpt lat="44.620431320222025" lon="10.119013097577698"><ele>426.75</ele><time>2026-04-18T12:51:15Z</time></trkpt><trkpt lat="44.62050219943437" lon="10.118887673944853"><ele>427.0</ele><time>2026-04-18T12:51:16Z</time></trkpt><trkpt lat="44.620581249481596" lon="10.11879996547827"><ele>425.0</ele><time>2026-04-18T12:51:17Z</time></trkpt><trkpt lat="44.6206818422764" lon="10.1187590775785"><ele>423.00000000000006</ele><time>2026-04-18T12:51:18Z</time></trkpt><trkpt lat="44.62079624735987" lon="10.118773912809543"><ele>421.0</ele><time>2026-04-18T12:51:19Z</time></trkpt><trkpt lat="44.62090310102746" lon="10.118825336036062"><ele>419.0</ele><time>2026-04-18T12:51:20Z</time></trkpt><trkpt lat="44.62100956073195" lon="10.118867760506301"><ele>417.0</ele><time>2026-04-18T12:51:20.999Z</time></trkpt><trkpt lat="44.62111710700465" lon="10.118902723169946"><ele>415.6</ele><time>2026-04-18T12:51:21.999Z</time></trkpt><trkpt lat="44.62122525547913" lon="10.11893216457081"><ele>414.20000000000005</ele><time>2026-04-18T12:51:22.999Z</time></trkpt><trkpt lat="44.621334534013" lon="10.118962923609656"><ele>412.8</ele><time>2026-04-18T12:51:23.999Z</time></trkpt><trkpt lat="44.62144167877143" lon="10.119000788228677"><ele>411.4</ele><time>2026-04-18T12:51:24.999Z</time></trkpt><trkpt lat="44.62155449655441" lon="10.119030051509624"><ele>410.0</ele><time>2026-04-18T12:51:25.999Z</time></trkpt><trkpt lat="44.62166788009127" lon="10.119064309205227"><ele>411.5</ele><time>2026-04-18T12:51:26.999Z</time></trkpt><trkpt lat="44.62178098635309" lon="10.119099372875986"><ele>413.0</ele><time>2026-04-18T12:51:27.999Z</time></trkpt><trkpt lat="44.62189268557006" lon="10.119125747169706"><ele>414.5</ele><time>2026-04-18T12:51:28.999Z</time></trkpt><trkpt lat="44.622009289738784" lon="10.119149886804575"><ele>416.0</ele><time>2026-04-18T12:51:29.999Z</time></trkpt><trkpt lat="44.62212382444127" lon="10.119165541782651"><ele>416.0</ele><time>2026-04-18T12:51:30.999Z</time></trkpt><trkpt lat="44.62223957094817" lon="10.119170191406658"><ele>416.0</ele><time>2026-04-18T12:51:31.999Z</time></trkpt><trkpt lat="44.62235193924672" lon="10.119165035600469"><ele>416.0</ele><time>2026-04-18T12:51:32.999Z</time></trkpt><trkpt lat="44.62246586018261" lon="10.119155629382412"><ele>416.0</ele><time>2026-04-18T12:51:33.999Z</time></trkpt><trkpt lat="44.62258039510421" lon="10.119145808247515"><ele>416.0</ele><time>2026-04-18T12:51:34.999Z</time></trkpt><trkpt lat="44.62269462815136" lon="10.119132027154986"><ele>416.0</ele><time>2026-04-18T12:51:35.999Z</time></trkpt><trkpt lat="44.62280784701208" lon="10.119121689807761"><ele>416.0</ele><time>2026-04-18T12:51:36.999Z</time></trkpt><trkpt lat="44.62292088798077" lon="10.119114406215706"><ele>416.0</ele><time>2026-04-18T12:51:37.999Z</time></trkpt><trkpt lat="44.623036161120986" lon="10.119113291348079"><ele>413.75</ele><time>2026-04-18T12:51:38.999Z</time></trkpt><trkpt lat="44.62315420518345" lon="10.119125028037075"><ele>411.5</ele><time>2026-04-18T12:51:39.999Z</time></trkpt><trkpt lat="44.623268137169795" lon="10.119150458159467"><ele>409.25</ele><time>2026-04-18T12:51:40.999Z</time></trkpt><trkpt lat="44.62338163244866" lon="10.119173923465148"><ele>407.0</ele><time>2026-04-18T12:51:41.999Z</time></trkpt><trkpt lat="44.6234993163993" lon="10.119201605663964"><ele>407.0</ele><time>2026-04-18T12:51:42.999Z</time></trkpt><trkpt lat="44.62361604541358" lon="10.119216166543008"><ele>407.0</ele><time>2026-04-18T12:51:43.999Z</time></trkpt><trkpt lat="44.6237338684698" lon="10.119266001441657"><ele>407.0</ele><time>2026-04-18T12:51:44.999Z</time></trkpt><trkpt lat="44.623846257386575" lon="10.119319030704583"><ele>407.0</ele><time>2026-04-18T12:51:45.999Z</time></trkpt><trkpt lat="44.62395493467705" lon="10.119388903241639"><ele>405.25</ele><time>2026-04-18T12:51:46.999Z</time></trkpt><trkpt lat="44.62406400878321" lon="10.119461569273144"><ele>403.5</ele><time>2026-04-18T12:51:47.999Z</time></trkpt><trkpt lat="44.624173895783564" lon="10.119533953589029"><ele>401.75</ele><time>2026-04-18T12:51:48.999Z</time></trkpt><trkpt lat="44.624284082482134" lon="10.119610369847056"><ele>400.0</ele><time>2026-04-18T12:51:49.999Z</time></trkpt><trkpt lat="44.624392370244045" lon="10.119695846166687"><ele>399.75</ele><time>2026-04-18T12:51:50.999Z</time></trkpt><trkpt lat="44.624497142554986" lon="10.119773791858082"><ele>399.5</ele><time>2026-04-18T12:51:51.999Z</time></trkpt><trkpt lat="44.62459891437201" lon="10.11985297381064"><ele>399.25</ele><time>2026-04-18T12:51:52.999Z</time></trkpt><trkpt lat="44.62469775366467" lon="10.119917146031284"><ele>399.0</ele><time>2026-04-18T12:51:53.999Z</time></trkpt><trkpt lat="44.62480295914339" lon="10.119952342876338"><ele>399.0</ele><time>2026-04-18T12:51:54.999Z</time></trkpt><trkpt lat="44.624894809701615" lon="10.119916437783854"><ele>399.0</ele><time>2026-04-18T12:51:55.999Z</time></trkpt><trkpt lat="44.6249653331038" lon="10.119819093009157"><ele>399.0</ele><time>2026-04-18T12:51:56.999Z</time></trkpt><trkpt lat="44.62499464320543" lon="10.11967608845668"><ele>399.0</ele><time>2026-04-18T12:51:57.999Z</time></trkpt><trkpt lat="44.6249680573274" lon="10.119528140869228"><ele>399.0</ele><time>2026-04-18T12:51:58.999Z</time></trkpt><trkpt lat="44.62490233345697" lon="10.119400368721776"><ele>397.6</ele><time>2026-04-18T12:51:59.999Z</time></trkpt><trkpt lat="44.624814343295235" lon="10.119311082538937"><ele>396.2</ele><time>2026-04-18T12:52:00.999Z</time></trkpt><trkpt lat="44.624727483440324" lon="10.119235307949982"><ele>394.8</ele><time>2026-04-18T12:52:01.999Z</time></trkpt><trkpt lat="44.62464619344942" lon="10.119154541254714"><ele>393.40000000000003</ele><time>2026-04-18T12:52:02.999Z</time></trkpt><trkpt lat="44.62456710694197" lon="10.119059287496576"><ele>392.0</ele><time>2026-04-18T12:52:03.999Z</time></trkpt><trkpt lat="44.62448182062082" lon="10.118970707063108"><ele>392.20000000000005</ele><time>2026-04-18T12:52:04.999Z</time></trkpt><trkpt lat="44.624396600804936" lon="10.118886279581446"><ele>392.4</ele><time>2026-04-18T12:52:05.999Z</time></trkpt><trkpt lat="44.624311732611076" lon="10.11879021636989"><ele>392.6</ele><time>2026-04-18T12:52:06.999Z</time></trkpt><trkpt lat="44.624241045852614" lon="10.118664293358364"><ele>392.79999999999995</ele><time>2026-04-18T12:52:07.999Z</time></trkpt><trkpt lat="44.62419373044069" lon="10.118508845084824"><ele>393.0</ele><time>2026-04-18T12:52:08.999Z</time></trkpt><trkpt lat="44.6241818057239" lon="10.11833533438957"><ele>391.0</ele><time>2026-04-18T12:52:09.999Z</time></trkpt><trkpt lat="44.62421198045251" lon="10.118159163985313"><ele>389.0</ele><time>2026-04-18T12:52:10.999Z</time></trkpt><trkpt lat="44.624260717777496" lon="10.118002547063032"><ele>387.0</ele><time>2026-04-18T12:52:11.999Z</time></trkpt><trkpt lat="44.62431472982315" lon="10.117849985348949"><ele>385.0</ele><time>2026-04-18T12:52:12.999Z</time></trkpt><trkpt lat="44.624340488594626" lon="10.117693081437345"><ele>385.0</ele><time>2026-04-18T12:52:13.998Z</time></trkpt><trkpt lat="44.62435511563651" lon="10.117527443754225"><ele>385.0</ele><time>2026-04-18T12:52:14.998Z</time></trkpt><trkpt lat="44.62435899161689" lon="10.117365049640178"><ele>385.0</ele><time>2026-04-18T12:52:15.998Z</time></trkpt><trkpt lat="44.62434561921057" lon="10.117200124906248"><ele>385.0</ele><time>2026-04-18T12:52:16.998Z</time></trkpt><trkpt lat="44.62433907637033" lon="10.117042071369136"><ele>384.2</ele><time>2026-04-18T12:52:17.998Z</time></trkpt><trkpt lat="44.62432631760048" lon="10.116886176556429"><ele>383.4</ele><time>2026-04-18T12:52:18.998Z</time></trkpt><trkpt lat="44.6243118066413" lon="10.116735061250838"><ele>382.6</ele><time>2026-04-18T12:52:19.998Z</time></trkpt><trkpt lat="44.6243034645714" lon="10.116584986437463"><ele>381.8</ele><time>2026-04-18T12:52:20.998Z</time></trkpt><trkpt lat="44.624288826621296" lon="10.11644449256957"><ele>381.0</ele><time>2026-04-18T12:52:21.998Z</time></trkpt><trkpt lat="44.624274630758" lon="10.116307325936832"><ele>380.4</ele><time>2026-04-18T12:52:22.998Z</time></trkpt><trkpt lat="44.62426786090298" lon="10.116162082897459"><ele>379.8</ele><time>2026-04-18T12:52:23.998Z</time></trkpt><trkpt lat="44.624263019734606" lon="10.11601214624324"><ele>379.2</ele><time>2026-04-18T12:52:24.998Z</time></trkpt><trkpt lat="44.62426038180702" lon="10.115867212923373"><ele>378.59999999999997</ele><time>2026-04-18T12:52:25.998Z</time></trkpt><trkpt lat="44.62424976862834" lon="10.115732889395655"><ele>378.0</ele><time>2026-04-18T12:52:26.998Z</time></trkpt><trkpt lat="44.62422796708843" lon="10.115593366767026"><ele>376.4</ele><time>2026-04-18T12:52:27.998Z</time></trkpt><trkpt lat="44.62418395197296" lon="10.11545965698688"><ele>374.79999999999995</ele><time>2026-04-18T12:52:28.998Z</time></trkpt><trkpt lat="44.624122552309565" lon="10.115334961685841"><ele>373.2</ele><time>2026-04-18T12:52:29.998Z</time></trkpt><trkpt lat="44.6240454970871" lon="10.115233277670177"><ele>371.6</ele><time>2026-04-18T12:52:30.998Z</time></trkpt><trkpt lat="44.62394726321356" lon="10.115164464468842"><ele>370.0</ele><time>2026-04-18T12:52:31.998Z</time></trkpt><trkpt lat="44.62384546248272" lon="10.115114258070498"><ele>370.0</ele><time>2026-04-18T12:52:32.998Z</time></trkpt><trkpt lat="44.62374004917895" lon="10.115086178308625"><ele>370.0</ele><time>2026-04-18T12:52:33.998Z</time></trkpt><trkpt lat="44.623637052860275" lon="10.115052453232813"><ele>370.0</ele><time>2026-04-18T12:52:34.998Z</time></trkpt><trkpt lat="44.62354479238221" lon="10.11504215036448"><ele>370.0</ele><time>2026-04-18T12:52:35.998Z</time></trkpt><trkpt lat="44.62347491240414" lon="10.1150276935282"><ele>370.0</ele><time>2026-04-18T12:52:36.998Z</time></trkpt><trkpt lat="44.62340861828161" lon="10.114979993239695"><ele>368.8</ele><time>2026-04-18T12:52:37.998Z</time></trkpt><trkpt lat="44.623366894212666" lon="10.11488058028061"><ele>367.6</ele><time>2026-04-18T12:52:38.998Z</time></trkpt><trkpt lat="44.62335990244101" lon="10.114762116642714"><ele>366.4</ele><time>2026-04-18T12:52:39.998Z</time></trkpt><trkpt lat="44.6233900145018" lon="10.114640107026533"><ele>365.2</ele><time>2026-04-18T12:52:40.998Z</time></trkpt><trkpt lat="44.62345862825074" lon="10.11454327078144"><ele>364.0</ele><time>2026-04-18T12:52:41.998Z</time></trkpt><trkpt lat="44.62355225131327" lon="10.11448355225624"><ele>363.4</ele><time>2026-04-18T12:52:42.998Z</time></trkpt><trkpt lat="44.62365723625717" lon="10.114471457681642"><ele>362.79999999999995</ele><time>2026-04-18T12:52:43.998Z</time></trkpt><trkpt lat="44.62376051691327" lon="10.114460700512463"><ele>362.20000000000005</ele><time>2026-04-18T12:52:44.998Z</time></trkpt><trkpt lat="44.62385754885752" lon="10.114433497232184"><ele>361.6</ele><time>2026-04-18T12:52:45.998Z</time></trkpt><trkpt lat="44.62396040585612" lon="10.11440409482844"><ele>361.0</ele><time>2026-04-18T12:52:46.998Z</time></trkpt><trkpt lat="44.62407415451182" lon="10.11438775837442"><ele>361.0</ele><time>2026-04-18T12:52:47.998Z</time></trkpt><trkpt lat="44.62418627634179" lon="10.114375678912882"><ele>361.0</ele><time>2026-04-18T12:52:48.998Z</time></trkpt><trkpt lat="44.624296991888436" lon="10.114370493596333"><ele>361.0</ele><time>2026-04-18T12:52:49.998Z</time></trkpt><trkpt lat="44.62440274857599" lon="10.114349753613318"><ele>361.0</ele><time>2026-04-18T12:52:50.998Z</time></trkpt><trkpt lat="44.62451269664901" lon="10.114334070690276"><ele>361.0</ele><time>2026-04-18T12:52:51.998Z</time></trkpt><trkpt lat="44.62462067138213" lon="10.114293685337486"><ele>360.0</ele><time>2026-04-18T12:52:52.998Z</time></trkpt><trkpt lat="44.62473132625853" lon="10.114256567328102"><ele>359.0</ele><time>2026-04-18T12:52:53.998Z</time></trkpt><trkpt lat="44.62484476148904" lon="10.11422224434698"><ele>358.0</ele><time>2026-04-18T12:52:54.998Z</time></trkpt><trkpt lat="44.62495602686951" lon="10.114193520469415"><ele>357.0</ele><time>2026-04-18T12:52:55.998Z</time></trkpt><trkpt lat="44.625065279704835" lon="10.114214562965333"><ele>357.0</ele><time>2026-04-18T12:52:56.998Z</time></trkpt><trkpt lat="44.62517007802953" lon="10.114275838533295"><ele>357.0</ele><time>2026-04-18T12:52:57.998Z</time></trkpt><trkpt lat="44.625258603647865" lon="10.11438300973528"><ele>357.0</ele><time>2026-04-18T12:52:58.998Z</time></trkpt><trkpt lat="44.625333735237234" lon="10.114510381924644"><ele>357.0</ele><time>2026-04-18T12:52:59.998Z</time></trkpt><trkpt lat="44.6254039801285" lon="10.114637625185102"><ele>356.40000000000003</ele><time>2026-04-18T12:53:00.998Z</time></trkpt><trkpt lat="44.62547187769496" lon="10.114760103707807"><ele>355.8</ele><time>2026-04-18T12:53:01.998Z</time></trkpt><trkpt lat="44.6255489007772" lon="10.11485178376242"><ele>355.2</ele><time>2026-04-18T12:53:02.998Z</time></trkpt><trkpt lat="44.62563313320922" lon="10.114917058036498"><ele>354.6</ele><time>2026-04-18T12:53:03.998Z</time></trkpt><trkpt lat="44.625727653472154" lon="10.114933482070567"><ele>354.0</ele><time>2026-04-18T12:53:04.998Z</time></trkpt><trkpt lat="44.62582090625996" lon="10.114903386068272"><ele>352.79999999999995</ele><time>2026-04-18T12:53:05.998Z</time></trkpt><trkpt lat="44.6259063793766" lon="10.11484604002601"><ele>351.59999999999997</ele><time>2026-04-18T12:53:06.997Z</time></trkpt><trkpt lat="44.625994596358204" lon="10.114788294534947"><ele>350.4</ele><time>2026-04-18T12:53:08Z</time></trkpt><trkpt lat="44.62608894237928" lon="10.114732344513142"><ele>349.2</ele><time>2026-04-18T12:53:09Z</time></trkpt><trkpt lat="44.62618658799935" lon="10.114679657054532"><ele>348.0</ele><time>2026-04-18T12:53:10Z</time></trkpt><trkpt lat="44.626285613338275" lon="10.11461781142435"><ele>346.5</ele><time>2026-04-18T12:53:11Z</time></trkpt><trkpt lat="44.6263848191922" lon="10.114538813962879"><ele>345.0</ele><time>2026-04-18T12:53:12Z</time></trkpt><trkpt lat="44.62649319138256" lon="10.114475511147198"><ele>343.5</ele><time>2026-04-18T12:53:13Z</time></trkpt><trkpt lat="44.62659512460292" lon="10.114400811485813"><ele>342.0</ele><time>2026-04-18T12:53:14Z</time></trkpt><trkpt lat="44.62667495604041" lon="10.114299195802255"><ele>342.0</ele><time>2026-04-18T12:53:15Z</time></trkpt><trkpt lat="44.62671069622109" lon="10.114165669826013"><ele>342.0</ele><time>2026-04-18T12:53:16Z</time></trkpt><trkpt lat="44.6266924935056" lon="10.1140214857159"><ele>342.0</ele><time>2026-04-18T12:53:17Z</time></trkpt><trkpt lat="44.62664342477405" lon="10.113888395911838"><ele>342.0</ele><time>2026-04-18T12:53:18Z</time></trkpt><trkpt lat="44.62652647832639" lon="10.11382089654088"><ele>342.0</ele><time>2026-04-18T12:53:19Z</time></trkpt><trkpt lat="44.62642999064142" lon="10.113763826438152"><ele>342.20000000000005</ele><time>2026-04-18T12:53:20Z</time></trkpt><trkpt lat="44.626341528496944" lon="10.113703761339325"><ele>342.4</ele><time>2026-04-18T12:53:21Z</time></trkpt><trkpt lat="44.62625389315366" lon="10.113631365904627"><ele>342.6</ele><time>2026-04-18T12:53:22Z</time></trkpt><trkpt lat="44.62617853372887" lon="10.113527465808776"><ele>342.79999999999995</ele><time>2026-04-18T12:53:23Z</time></trkpt><trkpt lat="44.62609340104272" lon="10.113434454113573"><ele>343.0</ele><time>2026-04-18T12:53:24Z</time></trkpt><trkpt lat="44.62605332442655" lon="10.11327494460905"><ele>341.5</ele><time>2026-04-18T12:53:24.999Z</time></trkpt><trkpt lat="44.626059043786135" lon="10.113106233725508"><ele>340.0</ele><time>2026-04-18T12:53:25.999Z</time></trkpt><trkpt lat="44.626047546887364" lon="10.112943616750197"><ele>338.5</ele><time>2026-04-18T12:53:26.999Z</time></trkpt><trkpt lat="44.62604568990884" lon="10.11278187253199"><ele>337.0</ele><time>2026-04-18T12:53:27.999Z</time></trkpt><trkpt lat="44.62605910244549" lon="10.112614988403724"><ele>337.0</ele><time>2026-04-18T12:53:28.999Z</time></trkpt><trkpt lat="44.62611063751721" lon="10.112470330088891"><ele>337.0</ele><time>2026-04-18T12:53:29.999Z</time></trkpt><trkpt lat="44.62620336442306" lon="10.112346008515566"><ele>337.0</ele><time>2026-04-18T12:53:30.999Z</time></trkpt><trkpt lat="44.62632210404859" lon="10.112261223767728"><ele>337.0</ele><time>2026-04-18T12:53:31.999Z</time></trkpt><trkpt lat="44.62645106789825" lon="10.112218065715568"><ele>334.0</ele><time>2026-04-18T12:53:32.999Z</time></trkpt><trkpt lat="44.62657941027861" lon="10.112184141676122"><ele>331.0</ele><time>2026-04-18T12:53:33.999Z</time></trkpt><trkpt lat="44.626702664700964" lon="10.11212649511179"><ele>328.0</ele><time>2026-04-18T12:53:34.999Z</time></trkpt><trkpt lat="44.626827663734765" lon="10.112070591465189"><ele>325.0</ele><time>2026-04-18T12:53:35.999Z</time></trkpt><trkpt lat="44.62695120659203" lon="10.112006536070497"><ele>324.75</ele><time>2026-04-18T12:53:36.999Z</time></trkpt><trkpt lat="44.62707294627687" lon="10.11193971152187"><ele>324.5</ele><time>2026-04-18T12:53:37.999Z</time></trkpt><trkpt lat="44.62720300326588" lon="10.111891268526263"><ele>324.25</ele><time>2026-04-18T12:53:38.999Z</time></trkpt><trkpt lat="44.62733361405231" lon="10.111848037327128"><ele>324.0</ele><time>2026-04-18T12:53:39.999Z</time></trkpt><trkpt lat="44.62746003557218" lon="10.111792024974513"><ele>324.0</ele><time>2026-04-18T12:53:40.999Z</time></trkpt><trkpt lat="44.627590769897765" lon="10.11173733314829"><ele>324.0</ele><time>2026-04-18T12:53:41.999Z</time></trkpt><trkpt lat="44.62771472819355" lon="10.111681949463485"><ele>324.0</ele><time>2026-04-18T12:53:42.999Z</time></trkpt><trkpt lat="44.62784300600704" lon="10.111633950020279"><ele>324.0</ele><time>2026-04-18T12:53:43.999Z</time></trkpt><trkpt lat="44.62797022458344" lon="10.111579917351055"><ele>321.5</ele><time>2026-04-18T12:53:44.999Z</time></trkpt><trkpt lat="44.62809356762216" lon="10.111504800074664"><ele>319.0</ele><time>2026-04-18T12:53:45.999Z</time></trkpt><trkpt lat="44.62819405307759" lon="10.111383835912234"><ele>316.5</ele><time>2026-04-18T12:53:46.999Z</time></trkpt><trkpt lat="44.62826626071183" lon="10.111223501424343"><ele>314.0</ele><time>2026-04-18T12:53:47.999Z</time></trkpt><trkpt lat="44.628309529189714" lon="10.111046136642354"><ele>314.0</ele><time>2026-04-18T12:53:48.999Z</time></trkpt><trkpt lat="44.62831187961305" lon="10.110874980464189"><ele>314.0</ele><time>2026-04-18T12:53:49.999Z</time></trkpt><trkpt lat="44.628300043287176" lon="10.110703409050725"><ele>314.0</ele><time>2026-04-18T12:53:50.999Z</time></trkpt><trkpt lat="44.62825604586444" lon="10.110547257912614"><ele>314.0</ele><time>2026-04-18T12:53:51.999Z</time></trkpt><trkpt lat="44.628174119001706" lon="10.110413084803959"><ele>313.25</ele><time>2026-04-18T12:53:52.999Z</time></trkpt><trkpt lat="44.628072993443276" lon="10.110300673133384"><ele>312.5</ele><time>2026-04-18T12:53:53.999Z</time></trkpt><trkpt lat="44.627965097592416" lon="10.11021098162612"><ele>311.75</ele><time>2026-04-18T12:53:54.999Z</time></trkpt><trkpt lat="44.62787311840121" lon="10.110099389074103"><ele>311.0</ele><time>2026-04-18T12:53:55.999Z</time></trkpt><trkpt lat="44.627765230903854" lon="10.110014559469725"><ele>311.0</ele><time>2026-04-18T12:53:56.999Z</time></trkpt><trkpt lat="44.627666728039124" lon="10.109910884145155"><ele>311.0</ele><time>2026-04-18T12:53:57.999Z</time></trkpt><trkpt lat="44.62756488742996" lon="10.1098031028361"><ele>311.0</ele><time>2026-04-18T12:53:58.999Z</time></trkpt><trkpt lat="44.627490061234944" lon="10.1096577565514"><ele>311.0</ele><time>2026-04-18T12:53:59.999Z</time></trkpt><trkpt lat="44.62742161022433" lon="10.109512596321494"><ele>310.75</ele><time>2026-04-18T12:54:00.999Z</time></trkpt><trkpt lat="44.62741030020498" lon="10.109324241238534"><ele>310.5</ele><time>2026-04-18T12:54:01.999Z</time></trkpt><trkpt lat="44.62741479391252" lon="10.109145434872218"><ele>310.25</ele><time>2026-04-18T12:54:02.999Z</time></trkpt><trkpt lat="44.62746810278961" lon="10.108973457297177"><ele>310.0</ele><time>2026-04-18T12:54:03.999Z</time></trkpt><trkpt lat="44.627551127215945" lon="10.108823267000341"><ele>310.0</ele><time>2026-04-18T12:54:04.999Z</time></trkpt><trkpt lat="44.6276409478869" lon="10.10869305923154"><ele>310.0</ele><time>2026-04-18T12:54:05.999Z</time></trkpt><trkpt lat="44.62775514099496" lon="10.108604793357555"><ele>310.0</ele><time>2026-04-18T12:54:06.999Z</time></trkpt><trkpt lat="44.62787886790577" lon="10.108551042908806"><ele>310.0</ele><time>2026-04-18T12:54:07.999Z</time></trkpt><trkpt lat="44.62800241093242" lon="10.108511497576128"><ele>308.75</ele><time>2026-04-18T12:54:08.999Z</time></trkpt><trkpt lat="44.62811219331735" lon="10.1084646189769"><ele>307.5</ele><time>2026-04-18T12:54:09.999Z</time></trkpt><trkpt lat="44.62822168917817" lon="10.10841977208984"><ele>306.25</ele><time>2026-04-18T12:54:10.999Z</time></trkpt><trkpt lat="44.628330036462515" lon="10.108370571476938"><ele>305.0</ele><time>2026-04-18T12:54:11.999Z</time></trkpt><trkpt lat="44.628431327956356" lon="10.108314899686524"><ele>305.0</ele><time>2026-04-18T12:54:12.999Z</time></trkpt><trkpt lat="44.62853996964349" lon="10.10826536390082"><ele>305.0</ele><time>2026-04-18T12:54:13.999Z</time></trkpt><trkpt lat="44.62864421279392" lon="10.108212493455792"><ele>305.0</ele><time>2026-04-18T12:54:14.999Z</time></trkpt><trkpt lat="44.62875049500873" lon="10.108162207838612"><ele>305.0</ele><time>2026-04-18T12:54:15.999Z</time></trkpt><trkpt lat="44.62884876842262" lon="10.108096120472496"><ele>305.0</ele><time>2026-04-18T12:54:16.999Z</time></trkpt><trkpt lat="44.628943949055305" lon="10.108026201182003"><ele>304.0</ele><time>2026-04-18T12:54:17.998Z</time></trkpt><trkpt lat="44.629040706003714" lon="10.107951718647719"><ele>303.0</ele><time>2026-04-18T12:54:18.998Z</time></trkpt><trkpt lat="44.62913502760333" lon="10.107863229381822"><ele>302.0</ele><time>2026-04-18T12:54:19.998Z</time></trkpt><trkpt lat="44.62922739265058" lon="10.107768614954365"><ele>301.0</ele><time>2026-04-18T12:54:20.998Z</time></trkpt><trkpt lat="44.62932820844084" lon="10.107689577815934"><ele>301.0</ele><time>2026-04-18T12:54:21.998Z</time></trkpt><trkpt lat="44.6294340471434" lon="10.107626411630143"><ele>301.0</ele><time>2026-04-18T12:54:22.998Z</time></trkpt><trkpt lat="44.62954553506816" lon="10.107593218573488"><ele>301.0</ele><time>2026-04-18T12:54:23.998Z</time></trkpt><trkpt lat="44.629660304471805" lon="10.10757122216495"><ele>301.0</ele><time>2026-04-18T12:54:24.998Z</time></trkpt><trkpt lat="44.62977272225286" lon="10.107564119730991"><ele>300.0</ele><time>2026-04-18T12:54:25.998Z</time></trkpt><trkpt lat="44.6298920742555" lon="10.107577498499586"><ele>299.0</ele><time>2026-04-18T12:54:26.998Z</time></trkpt><trkpt lat="44.63000369511006" lon="10.10759504958442"><ele>298.0</ele><time>2026-04-18T12:54:27.998Z</time></trkpt><trkpt lat="44.63012245686214" lon="10.107615178733665"><ele>297.0</ele><time>2026-04-18T12:54:28.998Z</time></trkpt><trkpt lat="44.63023829325461" lon="10.10762469423241"><ele>296.5</ele><time>2026-04-18T12:54:29.998Z</time></trkpt><trkpt lat="44.63035911533045" lon="10.107645526246998"><ele>296.0</ele><time>2026-04-18T12:54:30.998Z</time></trkpt><trkpt lat="44.63047951493783" lon="10.107673720048444"><ele>295.5</ele><time>2026-04-18T12:54:31.998Z</time></trkpt><trkpt lat="44.630597485473864" lon="10.107719114950914"><ele>295.0</ele><time>2026-04-18T12:54:32.998Z</time></trkpt><trkpt lat="44.630713046246925" lon="10.10777867023905"><ele>295.0</ele><time>2026-04-18T12:54:33.998Z</time></trkpt><trkpt lat="44.63082214307038" lon="10.107854423895187"><ele>295.0</ele><time>2026-04-18T12:54:34.998Z</time></trkpt><trkpt lat="44.63093210550589" lon="10.10792912019078"><ele>295.0</ele><time>2026-04-18T12:54:35.998Z</time></trkpt><trkpt lat="44.63104627257992" lon="10.107996778023235"><ele>295.0</ele><time>2026-04-18T12:54:36.998Z</time></trkpt><trkpt lat="44.631160728190125" lon="10.108059704687008"><ele>294.0</ele><time>2026-04-18T12:54:37.998Z</time></trkpt><trkpt lat="44.63127325664355" lon="10.108129893176152"><ele>293.0</ele><time>2026-04-18T12:54:38.998Z</time></trkpt><trkpt lat="44.631387020272946" lon="10.10818067564877"><ele>292.0</ele><time>2026-04-18T12:54:39.998Z</time></trkpt><trkpt lat="44.63150764903521" lon="10.108205467344145"><ele>291.0</ele><time>2026-04-18T12:54:40.998Z</time></trkpt><trkpt lat="44.63163004810963" lon="10.108202539033956"><ele>291.0</ele><time>2026-04-18T12:54:41.998Z</time></trkpt><trkpt lat="44.63174688557612" lon="10.108154686675146"><ele>291.0</ele><time>2026-04-18T12:54:42.998Z</time></trkpt><trkpt lat="44.63185048123514" lon="10.108073012973014"><ele>291.0</ele><time>2026-04-18T12:54:43.998Z</time></trkpt><trkpt lat="44.63194194946656" lon="10.107980431939211"><ele>291.0</ele><time>2026-04-18T12:54:44.998Z</time></trkpt><trkpt lat="44.632040727984894" lon="10.107911548275743"><ele>291.0</ele><time>2026-04-18T12:54:45.998Z</time></trkpt><trkpt lat="44.632142442486945" lon="10.107855439175674"><ele>291.0</ele><time>2026-04-18T12:54:46.998Z</time></trkpt><trkpt lat="44.63224404718251" lon="10.107799388275652"><ele>291.0</ele><time>2026-04-18T12:54:47.998Z</time></trkpt><trkpt lat="44.63234174590791" lon="10.107737651212652"><ele>291.0</ele><time>2026-04-18T12:54:48.998Z</time></trkpt><trkpt lat="44.6324341356673" lon="10.107679013292444"><ele>291.0</ele><time>2026-04-18T12:54:49.998Z</time></trkpt><trkpt lat="44.63253239969591" lon="10.107643646333676"><ele>291.0</ele><time>2026-04-18T12:54:50.998Z</time></trkpt><trkpt lat="44.632637462775904" lon="10.10765586693081"><ele>291.0</ele><time>2026-04-18T12:54:51.998Z</time></trkpt><trkpt lat="44.632736164410026" lon="10.107714432644192"><ele>291.0</ele><time>2026-04-18T12:54:52.998Z</time></trkpt><trkpt lat="44.63283209386178" lon="10.107771852104571"><ele>291.0</ele><time>2026-04-18T12:54:53.998Z</time></trkpt><trkpt lat="44.63292359809589" lon="10.10781829053313"><ele>291.0</ele><time>2026-04-18T12:54:54.998Z</time></trkpt><trkpt lat="44.63301887806234" lon="10.10786774583489"><ele>293.0</ele><time>2026-04-18T12:54:55.998Z</time></trkpt><trkpt lat="44.633115325106786" lon="10.10791166255318"><ele>295.0</ele><time>2026-04-18T12:54:56.998Z</time></trkpt><trkpt lat="44.633209851790404" lon="10.107970862047848"><ele>297.0</ele><time>2026-04-18T12:54:57.998Z</time></trkpt><trkpt lat="44.63330074240441" lon="10.10802429636741"><ele>299.0</ele><time>2026-04-18T12:54:58.998Z</time></trkpt><trkpt lat="44.63339057008135" lon="10.108096985798586"><ele>301.0</ele><time>2026-04-18T12:54:59.998Z</time></trkpt><trkpt lat="44.63347398439218" lon="10.10818210773446"><ele>299.2</ele><time>2026-04-18T12:55:00.998Z</time></trkpt><trkpt lat="44.6335478321619" lon="10.10828178604563"><ele>297.40000000000003</ele><time>2026-04-18T12:55:01.998Z</time></trkpt><trkpt lat="44.63362028397401" lon="10.108383373946191"><ele>295.6</ele><time>2026-04-18T12:55:02.998Z</time></trkpt><trkpt lat="44.63368997105422" lon="10.108478304145702"><ele>293.8</ele><time>2026-04-18T12:55:03.998Z</time></trkpt><trkpt lat="44.633768619419016" lon="10.108563006677112"><ele>292.0</ele><time>2026-04-18T12:55:04.998Z</time></trkpt><trkpt lat="44.63384810973781" lon="10.108642384545153"><ele>292.0</ele><time>2026-04-18T12:55:05.998Z</time></trkpt><trkpt lat="44.633942005228576" lon="10.108693967174174"><ele>292.0</ele><time>2026-04-18T12:55:06.998Z</time></trkpt><trkpt lat="44.63403256536169" lon="10.108750267465705"><ele>292.0</ele><time>2026-04-18T12:55:07.998Z</time></trkpt><trkpt lat="44.63413137086529" lon="10.108770370170532"><ele>292.0</ele><time>2026-04-18T12:55:08.998Z</time></trkpt><trkpt lat="44.634225107515114" lon="10.10877922975859"><ele>292.0</ele><time>2026-04-18T12:55:09.998Z</time></trkpt><trkpt lat="44.63431962274293" lon="10.108760316224739"><ele>292.0</ele><time>2026-04-18T12:55:10.997Z</time></trkpt><trkpt lat="44.63440706319822" lon="10.10873998276535"><ele>292.0</ele><time>2026-04-18T12:55:11.997Z</time></trkpt><trkpt lat="44.63448909382739" lon="10.108696311015745"><ele>292.0</ele><time>2026-04-18T12:55:12.997Z</time></trkpt><trkpt lat="44.63456742417768" lon="10.108646184953317"><ele>292.0</ele><time>2026-04-18T12:55:14Z</time></trkpt><trkpt lat="44.63464417732417" lon="10.108585982306574"><ele>292.0</ele><time>2026-04-18T12:55:15Z</time></trkpt><trkpt lat="44.63471703622958" lon="10.108538468444006"><ele>292.0</ele><time>2026-04-18T12:55:16Z</time></trkpt><trkpt lat="44.63478424126355" lon="10.108475607471208"><ele>291.8333333333333</ele><time>2026-04-18T12:55:17Z</time></trkpt><trkpt lat="44.63485593900415" lon="10.108435489703629"><ele>291.66666666666663</ele><time>2026-04-18T12:55:18Z</time></trkpt><trkpt lat="44.63493321951999" lon="10.108407225899342"><ele>291.5</ele><time>2026-04-18T12:55:19Z</time></trkpt><trkpt lat="44.63501169247647" lon="10.108396607508622"><ele>291.3333333333333</ele><time>2026-04-18T12:55:20Z</time></trkpt><trkpt lat="44.635090321879375" lon="10.10842096669902"><ele>291.1666666666667</ele><time>2026-04-18T12:55:21Z</time></trkpt><trkpt lat="44.63517204876059" lon="10.10846614402864"><ele>291.0</ele><time>2026-04-18T12:55:22Z</time></trkpt><trkpt lat="44.63525099999167" lon="10.108525225609851"><ele>290.0</ele><time>2026-04-18T12:55:23Z</time></trkpt><trkpt lat="44.63533245360914" lon="10.108580201972146"><ele>289.0</ele><time>2026-04-18T12:55:24Z</time></trkpt><trkpt lat="44.63541473916864" lon="10.108635277287462"><ele>288.0</ele><time>2026-04-18T12:55:25Z</time></trkpt><trkpt lat="44.63550240588334" lon="10.108689747916248"><ele>287.0</ele><time>2026-04-18T12:55:26Z</time></trkpt><trkpt lat="44.63558909727879" lon="10.108755721165151"><ele>286.0</ele><time>2026-04-18T12:55:27Z</time></trkpt><trkpt lat="44.63568254149601" lon="10.108818405264763"><ele>286.0</ele><time>2026-04-18T12:55:28Z</time></trkpt><trkpt lat="44.63577786230844" lon="10.108874615791326"><ele>286.0</ele><time>2026-04-18T12:55:29Z</time></trkpt><trkpt lat="44.63588361370623" lon="10.108898606278744"><ele>286.0</ele><time>2026-04-18T12:55:29.999Z</time></trkpt><trkpt lat="44.63599366902875" lon="10.10887886888547"><ele>286.0</ele><time>2026-04-18T12:55:30.999Z</time></trkpt><trkpt lat="44.63609881423029" lon="10.108813363904916"><ele>286.0</ele><time>2026-04-18T12:55:31.999Z</time></trkpt><trkpt lat="44.63619683297867" lon="10.10872051550475"><ele>282.75</ele><time>2026-04-18T12:55:32.999Z</time></trkpt><trkpt lat="44.63628460801715" lon="10.108610464526793"><ele>279.5</ele><time>2026-04-18T12:55:33.999Z</time></trkpt><trkpt lat="44.636378025556155" lon="10.10850933755399"><ele>276.25</ele><time>2026-04-18T12:55:34.999Z</time></trkpt><trkpt lat="44.63647776592084" lon="10.10841382463905"><ele>273.0</ele><time>2026-04-18T12:55:35.999Z</time></trkpt><trkpt lat="44.636576133754254" lon="10.108317436057625"><ele>273.75</ele><time>2026-04-18T12:55:36.999Z</time></trkpt><trkpt lat="44.63667249598053" lon="10.108213479554173"><ele>274.5</ele><time>2026-04-18T12:55:37.999Z</time></trkpt><trkpt lat="44.636765916229976" lon="10.108121444258552"><ele>275.25</ele><time>2026-04-18T12:55:38.999Z</time></trkpt><trkpt lat="44.63685986913714" lon="10.108032977027218"><ele>276.0</ele><time>2026-04-18T12:55:39.999Z</time></trkpt><trkpt lat="44.63695231577009" lon="10.107945589136895"><ele>276.0</ele><time>2026-04-18T12:55:40.999Z</time></trkpt><trkpt lat="44.63704155238253" lon="10.107858208201044"><ele>276.0</ele><time>2026-04-18T12:55:41.999Z</time></trkpt><trkpt lat="44.6371247268965" lon="10.107766918431363"><ele>276.0</ele><time>2026-04-18T12:55:42.999Z</time></trkpt><trkpt lat="44.63720951640256" lon="10.107689268609924"><ele>276.0</ele><time>2026-04-18T12:55:43.999Z</time></trkpt><trkpt lat="44.63729201201874" lon="10.107619859763975"><ele>276.0</ele><time>2026-04-18T12:55:44.999Z</time></trkpt><trkpt lat="44.63738219216976" lon="10.107567684757175"><ele>276.0</ele><time>2026-04-18T12:55:45.999Z</time></trkpt><trkpt lat="44.63747571923809" lon="10.107540914501518"><ele>276.0</ele><time>2026-04-18T12:55:46.999Z</time></trkpt><trkpt lat="44.63757126806235" lon="10.107551028538802"><ele>276.0</ele><time>2026-04-18T12:55:47.999Z</time></trkpt><trkpt lat="44.637659140671985" lon="10.107595602568768"><ele>276.0</ele><time>2026-04-18T12:55:48.999Z</time></trkpt><trkpt lat="44.637738264691805" lon="10.10767112913229"><ele>276.0</ele><time>2026-04-18T12:55:49.999Z</time></trkpt><trkpt lat="44.63781017458993" lon="10.107759898943533"><ele>276.2</ele><time>2026-04-18T12:55:50.999Z</time></trkpt><trkpt lat="44.637872336184934" lon="10.107856099099653"><ele>276.40000000000003</ele><time>2026-04-18T12:55:51.999Z</time></trkpt><trkpt lat="44.63793609519932" lon="10.107958643723292"><ele>276.6</ele><time>2026-04-18T12:55:52.999Z</time></trkpt><trkpt lat="44.63799484812164" lon="10.10807725972041"><ele>276.8</ele><time>2026-04-18T12:55:53.999Z</time></trkpt><trkpt lat="44.63805028788261" lon="10.108195096527764"><ele>277.0</ele><time>2026-04-18T12:55:54.999Z</time></trkpt><trkpt lat="44.63810505787463" lon="10.108319896529702"><ele>276.6</ele><time>2026-04-18T12:55:55.999Z</time></trkpt><trkpt lat="44.638134216839966" lon="10.108458843188586"><ele>276.2</ele><time>2026-04-18T12:55:56.999Z</time></trkpt><trkpt lat="44.6381568069715" lon="10.108605628879475"><ele>275.8</ele><time>2026-04-18T12:55:57.999Z</time></trkpt><trkpt lat="44.63818320921386" lon="10.108748859788209"><ele>275.4</ele><time>2026-04-18T12:55:58.999Z</time></trkpt><trkpt lat="44.6382123650437" lon="10.108892684173652"><ele>275.0</ele><time>2026-04-18T12:55:59.999Z</time></trkpt><trkpt lat="44.63824504009676" lon="10.109033742934734"><ele>274.0</ele><time>2026-04-18T12:56:00.999Z</time></trkpt><trkpt lat="44.638282685542976" lon="10.109175024440109"><ele>273.0</ele><time>2026-04-18T12:56:01.999Z</time></trkpt><trkpt lat="44.63832634141241" lon="10.109310642766518"><ele>272.0</ele><time>2026-04-18T12:56:02.999Z</time></trkpt><trkpt lat="44.63837613405159" lon="10.109445388424255"><ele>271.0</ele><time>2026-04-18T12:56:03.999Z</time></trkpt><trkpt lat="44.63844297251003" lon="10.109571002311027"><ele>270.0</ele><time>2026-04-18T12:56:04.999Z</time></trkpt><trkpt lat="44.6385052724013" lon="10.109698505834672"><ele>270.0</ele><time>2026-04-18T12:56:05.999Z</time></trkpt><trkpt lat="44.638577910963555" lon="10.109810799373077"><ele>270.0</ele><time>2026-04-18T12:56:06.999Z</time></trkpt><trkpt lat="44.63864681318838" lon="10.109927573531658"><ele>270.0</ele><time>2026-04-18T12:56:07.999Z</time></trkpt><trkpt lat="44.638715759448225" lon="10.110046152287953"><ele>270.0</ele><time>2026-04-18T12:56:08.999Z</time></trkpt><trkpt lat="44.63878523561389" lon="10.110165823025369"><ele>270.0</ele><time>2026-04-18T12:56:09.999Z</time></trkpt><trkpt lat="44.63885509635729" lon="10.11028703590086"><ele>269.4</ele><time>2026-04-18T12:56:10.999Z</time></trkpt><trkpt lat="44.6389264877094" lon="10.110401366267002"><ele>268.8</ele><time>2026-04-18T12:56:11.999Z</time></trkpt><trkpt lat="44.63899521772788" lon="10.110515953750824"><ele>268.2</ele><time>2026-04-18T12:56:12.999Z</time></trkpt><trkpt lat="44.639065632157234" lon="10.110634238484106"><ele>267.6</ele><time>2026-04-18T12:56:13.999Z</time></trkpt><trkpt lat="44.639134970444225" lon="10.11074584979817"><ele>267.0</ele><time>2026-04-18T12:56:14.999Z</time></trkpt><trkpt lat="44.639206871835896" lon="10.110850130253548"><ele>267.4</ele><time>2026-04-18T12:56:15.999Z</time></trkpt><trkpt lat="44.63928252786429" lon="10.110952189813036"><ele>267.79999999999995</ele><time>2026-04-18T12:56:16.999Z</time></trkpt><trkpt lat="44.63935674157408" lon="10.111050645239288"><ele>268.2</ele><time>2026-04-18T12:56:17.999Z</time></trkpt><trkpt lat="44.63943322502629" lon="10.111147680862695"><ele>268.59999999999997</ele><time>2026-04-18T12:56:18.999Z</time></trkpt><trkpt lat="44.6395074601607" lon="10.111252942520984"><ele>269.0</ele><time>2026-04-18T12:56:19.999Z</time></trkpt><trkpt lat="44.639582099709976" lon="10.111355681593228"><ele>269.0</ele><time>2026-04-18T12:56:20.999Z</time></trkpt><trkpt lat="44.639659481910314" lon="10.111454569274105"><ele>269.0</ele><time>2026-04-18T12:56:21.999Z</time></trkpt><trkpt lat="44.6397326290767" lon="10.111565315721665"><ele>269.0</ele><time>2026-04-18T12:56:22.998Z</time></trkpt><trkpt lat="44.63980716003859" lon="10.111668868420526"><ele>269.0</ele><time>2026-04-18T12:56:23.998Z</time></trkpt><trkpt lat="44.63988337604903" lon="10.111772988810802"><ele>269.0</ele><time>2026-04-18T12:56:24.998Z</time></trkpt><trkpt lat="44.639957252548804" lon="10.11187240844352"><ele>268.8</ele><time>2026-04-18T12:56:25.998Z</time></trkpt><trkpt lat="44.64003303268255" lon="10.111978283441692"><ele>268.59999999999997</ele><time>2026-04-18T12:56:26.998Z</time></trkpt><trkpt lat="44.64010522326659" lon="10.112082313745134"><ele>268.4</ele><time>2026-04-18T12:56:27.998Z</time></trkpt><trkpt lat="44.640183364554254" lon="10.112179573504132"><ele>268.2</ele><time>2026-04-18T12:56:28.998Z</time></trkpt><trkpt lat="44.64025775464348" lon="10.112282335972168"><ele>268.0</ele><time>2026-04-18T12:56:29.998Z</time></trkpt><trkpt lat="44.640329325509775" lon="10.112386577534032"><ele>266.6</ele><time>2026-04-18T12:56:30.998Z</time></trkpt><trkpt lat="44.640402340546785" lon="10.112485881567702"><ele>265.20000000000005</ele><time>2026-04-18T12:56:31.998Z</time></trkpt><trkpt lat="44.640474984966815" lon="10.112576945388767"><ele>263.8</ele><time>2026-04-18T12:56:32.998Z</time></trkpt><trkpt lat="44.64053885138357" lon="10.112681415402317"><ele>262.40000000000003</ele><time>2026-04-18T12:56:33.998Z</time></trkpt><trkpt lat="44.640594497848085" lon="10.112801192378107"><ele>261.0</ele><time>2026-04-18T12:56:34.998Z</time></trkpt><trkpt lat="44.64064782885766" lon="10.112919575800111"><ele>261.0</ele><time>2026-04-18T12:56:35.998Z</time></trkpt><trkpt lat="44.64069607571306" lon="10.113043917892897"><ele>261.0</ele><time>2026-04-18T12:56:36.998Z</time></trkpt><trkpt lat="44.64073885699859" lon="10.11317496082395"><ele>261.0</ele><time>2026-04-18T12:56:37.998Z</time></trkpt><trkpt lat="44.64078118912398" lon="10.113307770314666"><ele>261.0</ele><time>2026-04-18T12:56:38.998Z</time></trkpt><trkpt lat="44.640830433841835" lon="10.11343687277967"><ele>261.0</ele><time>2026-04-18T12:56:39.998Z</time></trkpt><trkpt lat="44.64087732719017" lon="10.113567850718805"><ele>260.2</ele><time>2026-04-18T12:56:40.998Z</time></trkpt><trkpt lat="44.64092736320674" lon="10.113694460788109"><ele>259.40000000000003</ele><time>2026-04-18T12:56:41.998Z</time></trkpt><trkpt lat="44.64097677055511" lon="10.113822893694671"><ele>258.6</ele><time>2026-04-18T12:56:42.998Z</time></trkpt><trkpt lat="44.64102253896369" lon="10.11395089734596"><ele>257.8</ele><time>2026-04-18T12:56:43.998Z</time></trkpt><trkpt lat="44.641072079268426" lon="10.114082046666145"><ele>257.0</ele><time>2026-04-18T12:56:44.998Z</time></trkpt><trkpt lat="44.641123842575695" lon="10.114210531476754"><ele>257.6</ele><time>2026-04-18T12:56:45.998Z</time></trkpt><trkpt lat="44.64117440289022" lon="10.114341889896293"><ele>258.2</ele><time>2026-04-18T12:56:46.998Z</time></trkpt><trkpt lat="44.6412232514711" lon="10.114474470346282"><ele>258.8</ele><time>2026-04-18T12:56:47.998Z</time></trkpt><trkpt lat="44.64127304858295" lon="10.11460656865514"><ele>259.4</ele><time>2026-04-18T12:56:48.998Z</time></trkpt><trkpt lat="44.64131765828985" lon="10.114736533100956"><ele>260.0</ele><time>2026-04-18T12:56:49.998Z</time></trkpt><trkpt lat="44.64136526809721" lon="10.114865600553141"><ele>259.0</ele><time>2026-04-18T12:56:50.998Z</time></trkpt><trkpt lat="44.6414112737568" lon="10.11499425648876"><ele>258.0</ele><time>2026-04-18T12:56:51.998Z</time></trkpt><trkpt lat="44.64145885913392" lon="10.115120502349631"><ele>257.0</ele><time>2026-04-18T12:56:52.998Z</time></trkpt><trkpt lat="44.6415076827492" lon="10.115243142057272"><ele>256.0</ele><time>2026-04-18T12:56:53.998Z</time></trkpt><trkpt lat="44.641557202416536" lon="10.11536586717364"><ele>255.0</ele><time>2026-04-18T12:56:54.998Z</time></trkpt><trkpt lat="44.64160687186727" lon="10.115487828993603"><ele>255.0</ele><time>2026-04-18T12:56:55.998Z</time></trkpt><trkpt lat="44.64165601052308" lon="10.115620599969393"><ele>255.0</ele><time>2026-04-18T12:56:56.998Z</time></trkpt><trkpt lat="44.64170731105321" lon="10.11575180668514"><ele>255.0</ele><time>2026-04-18T12:56:57.998Z</time></trkpt><trkpt lat="44.641757036713656" lon="10.115882770151748"><ele>255.0</ele><time>2026-04-18T12:56:58.998Z</time></trkpt><trkpt lat="44.64180550159591" lon="10.11602004563025"><ele>255.0</ele><time>2026-04-18T12:56:59.998Z</time></trkpt><trkpt lat="44.64185964057222" lon="10.116151345704944"><ele>254.8</ele><time>2026-04-18T12:57:00.998Z</time></trkpt><trkpt lat="44.64191886703136" lon="10.116278819634534"><ele>254.6</ele><time>2026-04-18T12:57:01.998Z</time></trkpt><trkpt lat="44.64197944368861" lon="10.11640082179088"><ele>254.39999999999998</ele><time>2026-04-18T12:57:02.998Z</time></trkpt><trkpt lat="44.642050625919055" lon="10.116531908112885"><ele>254.2</ele><time>2026-04-18T12:57:03.998Z</time></trkpt><trkpt lat="44.64211872931885" lon="10.11664279403517"><ele>254.0</ele><time>2026-04-18T12:57:04.998Z</time></trkpt><trkpt lat="44.642193506076175" lon="10.11675222207979"><ele>253.0</ele><time>2026-04-18T12:57:05.998Z</time></trkpt><trkpt lat="44.64227051450367" lon="10.116855542804505"><ele>251.99999999999997</ele><time>2026-04-18T12:57:06.998Z</time></trkpt><trkpt lat="44.642359291150484" lon="10.116956618787386"><ele>250.99999999999997</ele><time>2026-04-18T12:57:07.998Z</time></trkpt><trkpt lat="44.6424423969714" lon="10.117052455086943"><ele>250.0</ele><time>2026-04-18T12:57:08.998Z</time></trkpt><trkpt lat="44.64250378252522" lon="10.117165360488729"><ele>249.0</ele><time>2026-04-18T12:57:09.998Z</time></trkpt><trkpt lat="44.64257920173529" lon="10.117266478313327"><ele>249.0</ele><time>2026-04-18T12:57:10.998Z</time></trkpt><trkpt lat="44.64266282351322" lon="10.117355871220198"><ele>248.99999999999997</ele><time>2026-04-18T12:57:11.998Z</time></trkpt><trkpt lat="44.64274675308712" lon="10.117450322615326"><ele>248.99999999999997</ele><time>2026-04-18T12:57:12.998Z</time></trkpt><trkpt lat="44.64283412254793" lon="10.117537158765764"><ele>249.0</ele><time>2026-04-18T12:57:13.998Z</time></trkpt><trkpt lat="44.64292170382487" lon="10.117615023100626"><ele>249.0</ele><time>2026-04-18T12:57:14.998Z</time></trkpt><trkpt lat="44.643011333860116" lon="10.117688488652549"><ele>249.2</ele><time>2026-04-18T12:57:15.997Z</time></trkpt><trkpt lat="44.64310060482399" lon="10.117765042753906"><ele>249.39999999999998</ele><time>2026-04-18T12:57:16.997Z</time></trkpt><trkpt lat="44.643191384973676" lon="10.117841960090013"><ele>249.6</ele><time>2026-04-18T12:57:17.997Z</time></trkpt><trkpt lat="44.64328034769571" lon="10.117921885099925"><ele>249.8</ele><time>2026-04-18T12:57:19Z</time></trkpt><trkpt lat="44.643368126171985" lon="10.118008172686569"><ele>250.0</ele><time>2026-04-18T12:57:20Z</time></trkpt><trkpt lat="44.64345307074798" lon="10.118083768621196"><ele>250.0</ele><time>2026-04-18T12:57:21Z</time></trkpt><trkpt lat="44.64354124227276" lon="10.118157458186417"><ele>250.0</ele><time>2026-04-18T12:57:22Z</time></trkpt><trkpt lat="44.643621045808764" lon="10.118229749085707"><ele>250.0</ele><time>2026-04-18T12:57:23Z</time></trkpt><trkpt lat="44.643709070498275" lon="10.118296282129243"><ele>250.0</ele><time>2026-04-18T12:57:24Z</time></trkpt><trkpt lat="44.64379775389981" lon="10.118362165233103"><ele>250.0</ele><time>2026-04-18T12:57:25Z</time></trkpt><trkpt lat="44.6438923637726" lon="10.118420617422565"><ele>248.4</ele><time>2026-04-18T12:57:26Z</time></trkpt><trkpt lat="44.64399684140631" lon="10.118418393646893"><ele>246.8</ele><time>2026-04-18T12:57:27Z</time></trkpt><trkpt lat="44.64409257906151" lon="10.118434307614523"><ele>245.2</ele><time>2026-04-18T12:57:28Z</time></trkpt><trkpt lat="44.64420273705424" lon="10.11845387460963"><ele>243.6</ele><time>2026-04-18T12:57:29Z</time></trkpt><trkpt lat="44.64431255932894" lon="10.118478225715013"><ele>242.0</ele><time>2026-04-18T12:57:30Z</time></trkpt><trkpt lat="44.644419613448896" lon="10.118505752008046"><ele>242.0</ele><time>2026-04-18T12:57:31Z</time></trkpt><trkpt lat="44.64451797493343" lon="10.11855819640074"><ele>242.0</ele><time>2026-04-18T12:57:32Z</time></trkpt><trkpt lat="44.64461966546414" lon="10.118603277265327"><ele>242.0</ele><time>2026-04-18T12:57:33Z</time></trkpt><trkpt lat="44.644718037058226" lon="10.118642333739274"><ele>242.0</ele><time>2026-04-18T12:57:33.999Z</time></trkpt><trkpt lat="44.64481290002126" lon="10.118683223546462"><ele>242.0</ele><time>2026-04-18T12:57:34.999Z</time></trkpt><trkpt lat="44.64490022137889" lon="10.118745880617784"><ele>242.0</ele><time>2026-04-18T12:57:35.999Z</time></trkpt><trkpt lat="44.64498572405082" lon="10.118818429429275"><ele>242.0</ele><time>2026-04-18T12:57:36.999Z</time></trkpt><trkpt lat="44.64506506325634" lon="10.118896070984537"><ele>242.0</ele><time>2026-04-18T12:57:37.999Z</time></trkpt><trkpt lat="44.645147845313396" lon="10.11897646116401"><ele>242.0</ele><time>2026-04-18T12:57:38.999Z</time></trkpt><trkpt lat="44.64523258901305" lon="10.119062796425695"><ele>242.0</ele><time>2026-04-18T12:57:39.999Z</time></trkpt><trkpt lat="44.645322299351484" lon="10.119145607679826"><ele>241.39999999999998</ele><time>2026-04-18T12:57:40.999Z</time></trkpt><trkpt lat="44.64541131495191" lon="10.11923322705547"><ele>240.79999999999998</ele><time>2026-04-18T12:57:41.999Z</time></trkpt><trkpt lat="44.64549505951809" lon="10.119327304232066"><ele>240.2</ele><time>2026-04-18T12:57:42.999Z</time></trkpt><trkpt lat="44.64558254669895" lon="10.11942068690321"><ele>239.6</ele><time>2026-04-18T12:57:43.999Z</time></trkpt><trkpt lat="44.645673234623445" lon="10.119498797520448"><ele>239.0</ele><time>2026-04-18T12:57:44.999Z</time></trkpt><trkpt lat="44.64577025155127" lon="10.119557919175003"><ele>239.0</ele><time>2026-04-18T12:57:45.999Z</time></trkpt><trkpt lat="44.645869860069816" lon="10.11961570097228"><ele>238.99999999999997</ele><time>2026-04-18T12:57:46.999Z</time></trkpt><trkpt lat="44.645971777723624" lon="10.119668273143995"><ele>238.99999999999997</ele><time>2026-04-18T12:57:47.999Z</time></trkpt><trkpt lat="44.6460817584469" lon="10.119708168368449"><ele>239.0</ele><time>2026-04-18T12:57:48.999Z</time></trkpt><trkpt lat="44.64617691739673" lon="10.119760478270011"><ele>239.0</ele><time>2026-04-18T12:57:49.999Z</time></trkpt><trkpt lat="44.646275647392656" lon="10.11981570922448"><ele>238.2</ele><time>2026-04-18T12:57:50.999Z</time></trkpt><trkpt lat="44.646377004113695" lon="10.119866566586454"><ele>237.39999999999998</ele><time>2026-04-18T12:57:51.999Z</time></trkpt><trkpt lat="44.64647919474612" lon="10.119911160045575"><ele>236.6</ele><time>2026-04-18T12:57:52.999Z</time></trkpt><trkpt lat="44.64658089758711" lon="10.119953711281621"><ele>235.8</ele><time>2026-04-18T12:57:53.999Z</time></trkpt><trkpt lat="44.646684564956345" lon="10.11999634334506"><ele>235.0</ele><time>2026-04-18T12:57:54.999Z</time></trkpt><trkpt lat="44.64678773782468" lon="10.120035117731303"><ele>234.8</ele><time>2026-04-18T12:57:55.999Z</time></trkpt><trkpt lat="44.64689198467043" lon="10.120078114601002"><ele>234.6</ele><time>2026-04-18T12:57:56.999Z</time></trkpt><trkpt lat="44.646996538897326" lon="10.120112719962172"><ele>234.39999999999998</ele><time>2026-04-18T12:57:57.999Z</time></trkpt><trkpt lat="44.6470980434475" lon="10.120154949873028"><ele>234.2</ele><time>2026-04-18T12:57:58.999Z</time></trkpt><trkpt lat="44.64719781051046" lon="10.12019539859364"><ele>234.0</ele><time>2026-04-18T12:57:59.999Z</time></trkpt><trkpt lat="44.64729865948403" lon="10.12023755217921"><ele>234.0</ele><time>2026-04-18T12:58:00.999Z</time></trkpt><trkpt lat="44.64740072790256" lon="10.120272655559141"><ele>233.99999999999997</ele><time>2026-04-18T12:58:01.999Z</time></trkpt><trkpt lat="44.647501873040895" lon="10.120310682600152"><ele>233.99999999999997</ele><time>2026-04-18T12:58:02.999Z</time></trkpt><trkpt lat="44.647601025199464" lon="10.120353732854035"><ele>234.0</ele><time>2026-04-18T12:58:03.999Z</time></trkpt><trkpt lat="44.64770252685089" lon="10.120386934228954"><ele>234.0</ele><time>2026-04-18T12:58:04.999Z</time></trkpt><trkpt lat="44.64780272687207" lon="10.120428344582246"><ele>235.6</ele><time>2026-04-18T12:58:05.999Z</time></trkpt><trkpt lat="44.64790392584046" lon="10.120463765917153"><ele>237.2</ele><time>2026-04-18T12:58:06.999Z</time></trkpt><trkpt lat="44.648004014376" lon="10.120499835998732"><ele>238.79999999999998</ele><time>2026-04-18T12:58:07.999Z</time></trkpt><trkpt lat="44.64810257023042" lon="10.120531166871055"><ele>240.39999999999998</ele><time>2026-04-18T12:58:08.999Z</time></trkpt><trkpt lat="44.64819996208264" lon="10.120575008860294"><ele>242.0</ele><time>2026-04-18T12:58:09.999Z</time></trkpt><trkpt lat="44.648293524827785" lon="10.120610867152202"><ele>242.0</ele><time>2026-04-18T12:58:10.999Z</time></trkpt><trkpt lat="44.64838684138648" lon="10.120643983490908"><ele>242.0</ele><time>2026-04-18T12:58:11.999Z</time></trkpt><trkpt lat="44.64847875098733" lon="10.120682683907201"><ele>242.0</ele><time>2026-04-18T12:58:12.999Z</time></trkpt><trkpt lat="44.648568836667096" lon="10.120718261217883"><ele>242.0</ele><time>2026-04-18T12:58:13.999Z</time></trkpt><trkpt lat="44.64866110521857" lon="10.120746929212288"><ele>242.0</ele><time>2026-04-18T12:58:14.999Z</time></trkpt><trkpt lat="44.648754888921864" lon="10.120786633389672"><ele>240.0</ele><time>2026-04-18T12:58:15.999Z</time></trkpt><trkpt lat="44.64884772752258" lon="10.12082363103989"><ele>238.0</ele><time>2026-04-18T12:58:16.999Z</time></trkpt><trkpt lat="44.64894277258687" lon="10.12086629707175"><ele>236.0</ele><time>2026-04-18T12:58:17.999Z</time></trkpt><trkpt lat="44.64903981647142" lon="10.120897258143009"><ele>234.0</ele><time>2026-04-18T12:58:18.999Z</time></trkpt><trkpt lat="44.64913540854128" lon="10.120933322343378"><ele>232.0</ele><time>2026-04-18T12:58:19.999Z</time></trkpt><trkpt lat="44.649231890703696" lon="10.120971522376793"><ele>232.0</ele><time>2026-04-18T12:58:20.999Z</time></trkpt><trkpt lat="44.64932398604212" lon="10.12101251290657"><ele>232.0</ele><time>2026-04-18T12:58:21.999Z</time></trkpt><trkpt lat="44.64941765786393" lon="10.121053889709216"><ele>232.0</ele><time>2026-04-18T12:58:22.999Z</time></trkpt><trkpt lat="44.64951285631926" lon="10.121078883306053"><ele>232.0</ele><time>2026-04-18T12:58:23.999Z</time></trkpt><trkpt lat="44.64960611865276" lon="10.121110462008195"><ele>232.0</ele><time>2026-04-18T12:58:24.999Z</time></trkpt><trkpt lat="44.649699304668175" lon="10.121146978700398"><ele>232.0</ele><time>2026-04-18T12:58:25.999Z</time></trkpt><trkpt lat="44.64979113421958" lon="10.121184262017753"><ele>232.0</ele><time>2026-04-18T12:58:26.998Z</time></trkpt><trkpt lat="44.64988225056085" lon="10.12122082604751"><ele>232.0</ele><time>2026-04-18T12:58:27.998Z</time></trkpt><trkpt lat="44.649973929085675" lon="10.12125552799669"><ele>232.0</ele><time>2026-04-18T12:58:28.998Z</time></trkpt><trkpt lat="44.65006581779778" lon="10.121296829219729"><ele>232.0</ele><time>2026-04-18T12:58:29.998Z</time></trkpt><trkpt lat="44.65015423297539" lon="10.121329910623224"><ele>232.0</ele><time>2026-04-18T12:58:30.998Z</time></trkpt><trkpt lat="44.650240957766364" lon="10.121378210495024"><ele>232.0</ele><time>2026-04-18T12:58:31.998Z</time></trkpt><trkpt lat="44.65031848694732" lon="10.121444245244206"><ele>232.0</ele><time>2026-04-18T12:58:32.998Z</time></trkpt><trkpt lat="44.65039858335447" lon="10.121510055850642"><ele>232.0</ele><time>2026-04-18T12:58:33.998Z</time></trkpt><trkpt lat="44.65047385642299" lon="10.121577104621512"><ele>232.0</ele><time>2026-04-18T12:58:34.998Z</time></trkpt><trkpt lat="44.65054678272874" lon="10.12165207307011"><ele>231.83333333333331</ele><time>2026-04-18T12:58:35.998Z</time></trkpt><trkpt lat="44.650617937831775" lon="10.121714255642429"><ele>231.66666666666666</ele><time>2026-04-18T12:58:36.998Z</time></trkpt><trkpt lat="44.650693208454385" lon="10.121764945047895"><ele>231.5</ele><time>2026-04-18T12:58:37.998Z</time></trkpt><trkpt lat="44.65076805419943" lon="10.121805035629155"><ele>231.33333333333331</ele><time>2026-04-18T12:58:38.998Z</time></trkpt><trkpt lat="44.65084673457816" lon="10.121835994549194"><ele>231.16666666666666</ele><time>2026-04-18T12:58:39.998Z</time></trkpt><trkpt lat="44.650926728227965" lon="10.12185053301407"><ele>231.0</ele><time>2026-04-18T12:58:40.998Z</time></trkpt><trkpt lat="44.65100734826525" lon="10.121845765312232"><ele>231.0</ele><time>2026-04-18T12:58:41.998Z</time></trkpt><trkpt lat="44.65108991900942" lon="10.121825175682169"><ele>231.0</ele><time>2026-04-18T12:58:42.998Z</time></trkpt><trkpt lat="44.65117141913921" lon="10.121797137906528"><ele>231.0</ele><time>2026-04-18T12:58:43.998Z</time></trkpt><trkpt lat="44.6512559296259" lon="10.12175944020106"><ele>231.0</ele><time>2026-04-18T12:58:44.998Z</time></trkpt><trkpt lat="44.651344011839456" lon="10.121728905173146"><ele>231.0</ele><time>2026-04-18T12:58:45.998Z</time></trkpt><trkpt lat="44.65143053931914" lon="10.12169482561201"><ele>231.0</ele><time>2026-04-18T12:58:46.998Z</time></trkpt><trkpt lat="44.65151629112276" lon="10.121664857799082"><ele>231.16666666666666</ele><time>2026-04-18T12:58:47.998Z</time></trkpt><trkpt lat="44.65160188682044" lon="10.121636658811031"><ele>231.33333333333331</ele><time>2026-04-18T12:58:48.998Z</time></trkpt><trkpt lat="44.65169061282813" lon="10.121625722606751"><ele>231.5</ele><time>2026-04-18T12:58:49.998Z</time></trkpt><trkpt lat="44.65177872093531" lon="10.121637101631007"><ele>231.66666666666666</ele><time>2026-04-18T12:58:50.998Z</time></trkpt><trkpt lat="44.65186418901877" lon="10.12165491891237"><ele>231.83333333333331</ele><time>2026-04-18T12:58:51.998Z</time></trkpt><trkpt lat="44.65194672075688" lon="10.121689078561431"><ele>232.0</ele><time>2026-04-18T12:58:52.998Z</time></trkpt><trkpt lat="44.652029379918105" lon="10.121723134093846"><ele>231.99999999999997</ele><time>2026-04-18T12:58:53.998Z</time></trkpt><trkpt lat="44.65211224230581" lon="10.121760475873636"><ele>232.0</ele><time>2026-04-18T12:58:54.999Z</time></trkpt><trkpt lat="44.652192937541514" lon="10.121805604899038"><ele>232.0</ele><time>2026-04-18T12:58:55.999Z</time></trkpt><trkpt lat="44.6522696354956" lon="10.121865011825093"><ele>232.0</ele><time>2026-04-18T12:58:56.999Z</time></trkpt><trkpt lat="44.652341426213695" lon="10.121939805939524"><ele>231.99999999999997</ele><time>2026-04-18T12:58:57.999Z</time></trkpt><trkpt lat="44.65240247267607" lon="10.122030320369552"><ele>232.0</ele><time>2026-04-18T12:58:58.999Z</time></trkpt><trkpt lat="44.65245922177299" lon="10.12212954361535"><ele>231.99999999999997</ele><time>2026-04-18T12:58:59.999Z</time></trkpt><trkpt lat="44.65250758433767" lon="10.12223827426558"><ele>232.0</ele><time>2026-04-18T12:59:00.999Z</time></trkpt><trkpt lat="44.65254458120412" lon="10.122348985980384"><ele>232.0</ele><time>2026-04-18T12:59:01.999Z</time></trkpt><trkpt lat="44.6525791060674" lon="10.122462714266941"><ele>232.0</ele><time>2026-04-18T12:59:02.999Z</time></trkpt><trkpt lat="44.65262343611625" lon="10.122565081268819"><ele>231.99999999999997</ele><time>2026-04-18T12:59:03.999Z</time></trkpt><trkpt lat="44.652673512103604" lon="10.122664817920091"><ele>232.0</ele><time>2026-04-18T12:59:04.999Z</time></trkpt><trkpt lat="44.652729914286944" lon="10.122749472952874"><ele>231.99999999999997</ele><time>2026-04-18T12:59:05.999Z</time></trkpt><trkpt lat="44.65279367813917" lon="10.12282363584885"><ele>232.0</ele><time>2026-04-18T12:59:06.999Z</time></trkpt><trkpt lat="44.652867152665316" lon="10.122874093114588"><ele>232.0</ele><time>2026-04-18T12:59:07.999Z</time></trkpt><trkpt lat="44.65294160319795" lon="10.12292643595981"><ele>232.0</ele><time>2026-04-18T12:59:08.999Z</time></trkpt><trkpt lat="44.65301743944577" lon="10.122978138858306"><ele>231.99999999999997</ele><time>2026-04-18T12:59:09.999Z</time></trkpt><trkpt lat="44.65309724935735" lon="10.123031334543791"><ele>232.0</ele><time>2026-04-18T12:59:10.999Z</time></trkpt><trkpt lat="44.65317189092528" lon="10.123089057539373"><ele>231.99999999999997</ele><time>2026-04-18T12:59:11.999Z</time></trkpt><trkpt lat="44.653246938637174" lon="10.123144233985892"><ele>232.0</ele><time>2026-04-18T12:59:12.999Z</time></trkpt><trkpt lat="44.6533260835971" lon="10.12319034480915"><ele>232.0</ele><time>2026-04-18T12:59:13.999Z</time></trkpt><trkpt lat="44.65340057499638" lon="10.123248371763257"><ele>232.0</ele><time>2026-04-18T12:59:14.999Z</time></trkpt><trkpt lat="44.65347912636724" lon="10.123292913164974"><ele>231.99999999999997</ele><time>2026-04-18T12:59:15.999Z</time></trkpt><trkpt lat="44.65355699884083" lon="10.123345834838092"><ele>232.0</ele><time>2026-04-18T12:59:16.999Z</time></trkpt><trkpt lat="44.65363563972184" lon="10.12338488253404"><ele>230.39999999999998</ele><time>2026-04-18T12:59:17.999Z</time></trkpt><trkpt lat="44.653720465372615" lon="10.123419985596666"><ele>228.79999999999998</ele><time>2026-04-18T12:59:18.999Z</time></trkpt><trkpt lat="44.65380595755499" lon="10.123455882877407"><ele>227.2</ele><time>2026-04-18T12:59:19.998Z</time></trkpt><trkpt lat="44.65389303392999" lon="10.12350714980922"><ele>225.6</ele><time>2026-04-18T12:59:20.998Z</time></trkpt><trkpt lat="44.65398124008079" lon="10.12353815579617"><ele>224.0</ele><time>2026-04-18T12:59:21.998Z</time></trkpt><trkpt lat="44.65407141386343" lon="10.123577157577177"><ele>224.0</ele><time>2026-04-18T12:59:22.998Z</time></trkpt><trkpt lat="44.65416249677385" lon="10.123621493276312"><ele>223.99999999999997</ele><time>2026-04-18T12:59:23.998Z</time></trkpt><trkpt lat="44.65425858446076" lon="10.123666706813482"><ele>223.99999999999997</ele><time>2026-04-18T12:59:25Z</time></trkpt><trkpt lat="44.65435558612226" lon="10.12371953287798"><ele>224.0</ele><time>2026-04-18T12:59:26Z</time></trkpt><trkpt lat="44.6544588983073" lon="10.123766021922526"><ele>224.0</ele><time>2026-04-18T12:59:27Z</time></trkpt><trkpt lat="44.654558922957804" lon="10.123818976346579"><ele>224.6</ele><time>2026-04-18T12:59:28Z</time></trkpt><trkpt lat="44.65466001037685" lon="10.123893997486006"><ele>225.2</ele><time>2026-04-18T12:59:29Z</time></trkpt><trkpt lat="44.65474874450718" lon="10.123984877596428"><ele>225.79999999999998</ele><time>2026-04-18T12:59:30Z</time></trkpt><trkpt lat="44.65483541031369" lon="10.124085438146908"><ele>226.39999999999998</ele><time>2026-04-18T12:59:31Z</time></trkpt><trkpt lat="44.65491063778535" lon="10.12420204899707"><ele>227.0</ele><time>2026-04-18T12:59:32Z</time></trkpt><trkpt lat="44.65497304796023" lon="10.124340262979297"><ele>225.5</ele><time>2026-04-18T12:59:33Z</time></trkpt><trkpt lat="44.65503495802377" lon="10.124471690927443"><ele>224.0</ele><time>2026-04-18T12:59:34Z</time></trkpt><trkpt lat="44.65511931706915" lon="10.124586471842736"><ele>222.5</ele><time>2026-04-18T12:59:35Z</time></trkpt><trkpt lat="44.65521718344603" lon="10.124673530312249"><ele>221.0</ele><time>2026-04-18T12:59:36Z</time></trkpt><trkpt lat="44.65533831670669" lon="10.124722172450968"><ele>219.75</ele><time>2026-04-18T12:59:37Z</time></trkpt><trkpt lat="44.655467012122" lon="10.124750388689494"><ele>218.5</ele><time>2026-04-18T12:59:38Z</time></trkpt><trkpt lat="44.65559707267643" lon="10.124739778321615"><ele>217.25</ele><time>2026-04-18T12:59:39Z</time></trkpt><trkpt lat="44.65572796047447" lon="10.124721696662213"><ele>216.0</ele><time>2026-04-18T12:59:40Z</time></trkpt><trkpt lat="44.65586153677839" lon="10.124704723742761"><ele>216.0</ele><time>2026-04-18T12:59:41Z</time></trkpt><trkpt lat="44.65599893656815" lon="10.124707258231387"><ele>216.0</ele><time>2026-04-18T12:59:42Z</time></trkpt><trkpt lat="44.65613455811103" lon="10.124725753097987"><ele>216.0</ele><time>2026-04-18T12:59:43Z</time></trkpt><trkpt lat="44.656264074371876" lon="10.12479186736067"><ele>216.0</ele><time>2026-04-18T12:59:44Z</time></trkpt><trkpt lat="44.656381235240744" lon="10.124880404878601"><ele>213.75</ele><time>2026-04-18T12:59:45Z</time></trkpt><trkpt lat="44.65648867975518" lon="10.124976596473568"><ele>211.5</ele><time>2026-04-18T12:59:46Z</time></trkpt><trkpt lat="44.65659124203867" lon="10.125062969575369"><ele>209.25</ele><time>2026-04-18T12:59:47Z</time></trkpt><trkpt lat="44.656693946926325" lon="10.125135304471788"><ele>207.0</ele><time>2026-04-18T12:59:48Z</time></trkpt><trkpt lat="44.65679054553105" lon="10.125219725009"><ele>207.0</ele><time>2026-04-18T12:59:49Z</time></trkpt><trkpt lat="44.65688604410928" lon="10.125311823028252"><ele>207.0</ele><time>2026-04-18T12:59:50Z</time></trkpt><trkpt lat="44.656983371410384" lon="10.125382502576757"><ele>207.0</ele><time>2026-04-18T12:59:51Z</time></trkpt><trkpt lat="44.65707876495213" lon="10.125467282341692"><ele>207.0</ele><time>2026-04-18T12:59:52Z</time></trkpt><trkpt lat="44.65717429296008" lon="10.125549349000067"><ele>207.0</ele><time>2026-04-18T12:59:53Z</time></trkpt><trkpt lat="44.657266797669465" lon="10.125636970635929"><ele>207.0</ele><time>2026-04-18T12:59:54Z</time></trkpt><trkpt lat="44.65736112359264" lon="10.125718539282667"><ele>207.0</ele><time>2026-04-18T12:59:55Z</time></trkpt><trkpt lat="44.65745776692267" lon="10.125785666444576"><ele>207.0</ele><time>2026-04-18T12:59:56Z</time></trkpt><trkpt lat="44.657551428495395" lon="10.125865938560258"><ele>207.0</ele><time>2026-04-18T12:59:57Z</time></trkpt><trkpt lat="44.65764528550246" lon="10.125935476078986"><ele>207.0</ele><time>2026-04-18T12:59:58Z</time></trkpt><trkpt lat="44.6577349664018" lon="10.126011817812417"><ele>207.0</ele><time>2026-04-18T12:59:59Z</time></trkpt><trkpt lat="44.657823660136714" lon="10.126076520680177"><ele>207.0</ele><time>2026-04-18T13:00:00Z</time></trkpt><trkpt lat="44.6579149335187" lon="10.126139737790087"><ele>207.0</ele><time>2026-04-18T13:00:01Z</time></trkpt><trkpt lat="44.65800099166319" lon="10.126196815609003"><ele>207.0</ele><time>2026-04-18T13:00:02Z</time></trkpt><trkpt lat="44.658087319752994" lon="10.126254213015393"><ele>206.66666666666666</ele><time>2026-04-18T13:00:03Z</time></trkpt><trkpt lat="44.6581749877816" lon="10.126304650006391"><ele>206.33333333333331</ele><time>2026-04-18T13:00:04Z</time></trkpt><trkpt lat="44.65825902798329" lon="10.126338975369977"><ele>206.0</ele><time>2026-04-18T13:00:05Z</time></trkpt><trkpt lat="44.65834304419734" lon="10.126377552137207"><ele>205.66666666666666</ele><time>2026-04-18T13:00:06Z</time></trkpt><trkpt lat="44.65842265607997" lon="10.126419164023824"><ele>205.33333333333331</ele><time>2026-04-18T13:00:07Z</time></trkpt><trkpt lat="44.65850392688176" lon="10.126452642221361"><ele>205.0</ele><time>2026-04-18T13:00:08Z</time></trkpt><trkpt lat="44.65858911355712" lon="10.126484047440739"><ele>205.16666666666666</ele><time>2026-04-18T13:00:09Z</time></trkpt><trkpt lat="44.65867415092893" lon="10.126511221474672"><ele>205.33333333333331</ele><time>2026-04-18T13:00:10Z</time></trkpt><trkpt lat="44.65875239921538" lon="10.126520637118878"><ele>205.5</ele><time>2026-04-18T13:00:11Z</time></trkpt><trkpt lat="44.658833278520035" lon="10.12655114560038"><ele>205.66666666666669</ele><time>2026-04-18T13:00:12Z</time></trkpt><trkpt lat="44.658912785936394" lon="10.12658133793793"><ele>205.83333333333334</ele><time>2026-04-18T13:00:13Z</time></trkpt><trkpt lat="44.65898505133441" lon="10.12660352595067"><ele>206.0</ele><time>2026-04-18T13:00:14Z</time></trkpt><trkpt lat="44.65905585638667" lon="10.126625471802859"><ele>206.57142857142856</ele><time>2026-04-18T13:00:15Z</time></trkpt><trkpt lat="44.65913128426171" lon="10.126642536445907"><ele>207.14285714285714</ele><time>2026-04-18T13:00:16Z</time></trkpt><trkpt lat="44.65920782651785" lon="10.12665941611082"><ele>207.71428571428572</ele><time>2026-04-18T13:00:17Z</time></trkpt><trkpt lat="44.6592823126954" lon="10.126658595889753"><ele>208.28571428571428</ele><time>2026-04-18T13:00:18Z</time></trkpt><trkpt lat="44.65935768600113" lon="10.126649516182619"><ele>208.85714285714286</ele><time>2026-04-18T13:00:19Z</time></trkpt><trkpt lat="44.659428372706316" lon="10.126630154708891"><ele>209.42857142857142</ele><time>2026-04-18T13:00:20Z</time></trkpt><trkpt lat="44.65949567284429" lon="10.126601349571429"><ele>210.0</ele><time>2026-04-18T13:00:21Z</time></trkpt><trkpt lat="44.65955669533292" lon="10.126570084169852"><ele>210.0</ele><time>2026-04-18T13:00:22Z</time></trkpt><trkpt lat="44.659676051512974" lon="10.126522908936408"><ele>210.0</ele><time>2026-04-18T13:00:24Z</time></trkpt><trkpt lat="44.659735614841345" lon="10.126490394027538"><ele>210.0</ele><time>2026-04-18T13:00:25Z</time></trkpt><trkpt lat="44.65979326780668" lon="10.126454561912064"><ele>210.0</ele><time>2026-04-18T13:00:26Z</time></trkpt><trkpt lat="44.65985117996377" lon="10.126417667382572"><ele>210.0</ele><time>2026-04-18T13:00:27Z</time></trkpt><trkpt lat="44.65991192584517" lon="10.12638527128287"><ele>210.0</ele><time>2026-04-18T13:00:28Z</time></trkpt><trkpt lat="44.65997451421711" lon="10.126356290905052"><ele>210.0</ele><time>2026-04-18T13:00:29Z</time></trkpt><trkpt lat="44.66003932923494" lon="10.126323656514078"><ele>210.0</ele><time>2026-04-18T13:00:30Z</time></trkpt><trkpt lat="44.6601030621338" lon="10.126290632667105"><ele>210.0</ele><time>2026-04-18T13:00:30.999Z</time></trkpt><trkpt lat="44.66016251841683" lon="10.126252986253517"><ele>210.0</ele><time>2026-04-18T13:00:31.999Z</time></trkpt><trkpt lat="44.66022215126871" lon="10.126219759719842"><ele>210.0</ele><time>2026-04-18T13:00:32.999Z</time></trkpt><trkpt lat="44.6602836844408" lon="10.126185266875376"><ele>210.0</ele><time>2026-04-18T13:00:33.999Z</time></trkpt><trkpt lat="44.660346130982575" lon="10.126149906018638"><ele>210.0</ele><time>2026-04-18T13:00:34.999Z</time></trkpt><trkpt lat="44.660408510956586" lon="10.126111488557315"><ele>210.0</ele><time>2026-04-18T13:00:35.999Z</time></trkpt><trkpt lat="44.66047353779109" lon="10.126071502330982"><ele>210.0</ele><time>2026-04-18T13:00:36.999Z</time></trkpt><trkpt lat="44.660537723222866" lon="10.126032952229188"><ele>210.0</ele><time>2026-04-18T13:00:37.999Z</time></trkpt><trkpt lat="44.66060297737017" lon="10.125999614968995"><ele>210.0</ele><time>2026-04-18T13:00:38.999Z</time></trkpt><trkpt lat="44.66067203994613" lon="10.125971963352917"><ele>210.0</ele><time>2026-04-18T13:00:39.999Z</time></trkpt><trkpt lat="44.660741099159374" lon="10.12594366900981"><ele>210.0</ele><time>2026-04-18T13:00:40.999Z</time></trkpt><trkpt lat="44.660816438921" lon="10.12591574690993"><ele>210.0</ele><time>2026-04-18T13:00:41.999Z</time></trkpt><trkpt lat="44.66088722027148" lon="10.125886017584518"><ele>210.0</ele><time>2026-04-18T13:00:42.999Z</time></trkpt><trkpt lat="44.660962697668346" lon="10.125865408213828"><ele>210.0</ele><time>2026-04-18T13:00:43.999Z</time></trkpt><trkpt lat="44.66103758707279" lon="10.125838791815054"><ele>210.0</ele><time>2026-04-18T13:00:44.999Z</time></trkpt><trkpt lat="44.66111602305087" lon="10.125810002641789"><ele>210.0</ele><time>2026-04-18T13:00:45.999Z</time></trkpt><trkpt lat="44.66119461746232" lon="10.125779430464272"><ele>210.0</ele><time>2026-04-18T13:00:46.999Z</time></trkpt><trkpt lat="44.6612746710517" lon="10.125752682847638"><ele>210.0</ele><time>2026-04-18T13:00:47.999Z</time></trkpt><trkpt lat="44.661353850251224" lon="10.125730254979548"><ele>210.0</ele><time>2026-04-18T13:00:48.999Z</time></trkpt><trkpt lat="44.66143554589993" lon="10.12570779708085"><ele>208.66666666666666</ele><time>2026-04-18T13:00:49.999Z</time></trkpt><trkpt lat="44.66151465360118" lon="10.125680166690742"><ele>207.33333333333331</ele><time>2026-04-18T13:00:50.999Z</time></trkpt><trkpt lat="44.66159426078164" lon="10.125652654470567"><ele>206.0</ele><time>2026-04-18T13:00:51.999Z</time></trkpt><trkpt lat="44.66167459130759" lon="10.125630197740415"><ele>204.66666666666666</ele><time>2026-04-18T13:00:52.999Z</time></trkpt><trkpt lat="44.66175872160517" lon="10.125607013310574"><ele>203.33333333333331</ele><time>2026-04-18T13:00:53.999Z</time></trkpt><trkpt lat="44.66184271578639" lon="10.125582048067923"><ele>202.0</ele><time>2026-04-18T13:00:54.999Z</time></trkpt><trkpt lat="44.661928790943755" lon="10.12555793868829"><ele>202.16666666666666</ele><time>2026-04-18T13:00:55.999Z</time></trkpt><trkpt lat="44.662011496833784" lon="10.125526039051842"><ele>202.33333333333331</ele><time>2026-04-18T13:00:56.999Z</time></trkpt><trkpt lat="44.662096273105924" lon="10.125500352891406"><ele>202.5</ele><time>2026-04-18T13:00:57.999Z</time></trkpt><trkpt lat="44.66217855506978" lon="10.125471250910117"><ele>202.66666666666669</ele><time>2026-04-18T13:00:58.999Z</time></trkpt><trkpt lat="44.66226133916138" lon="10.125450815461267"><ele>202.83333333333334</ele><time>2026-04-18T13:00:59.999Z</time></trkpt><trkpt lat="44.662344423385186" lon="10.125421073649091"><ele>203.0</ele><time>2026-04-18T13:01:00.999Z</time></trkpt><trkpt lat="44.662426890476866" lon="10.125392493174784"><ele>203.00000000000003</ele><time>2026-04-18T13:01:01.999Z</time></trkpt><trkpt lat="44.66251001783687" lon="10.125367118607807"><ele>203.0</ele><time>2026-04-18T13:01:02.999Z</time></trkpt><trkpt lat="44.662593805963695" lon="10.125340715738366"><ele>203.0</ele><time>2026-04-18T13:01:03.999Z</time></trkpt><trkpt lat="44.66267751725584" lon="10.125316790862506"><ele>203.0</ele><time>2026-04-18T13:01:04.999Z</time></trkpt><trkpt lat="44.66275961396213" lon="10.125294721037404"><ele>203.00000000000003</ele><time>2026-04-18T13:01:05.999Z</time></trkpt><trkpt lat="44.662843494871595" lon="10.125274216927167"><ele>203.0</ele><time>2026-04-18T13:01:06.999Z</time></trkpt><trkpt lat="44.66292752787594" lon="10.125252085985807"><ele>203.66666666666669</ele><time>2026-04-18T13:01:07.999Z</time></trkpt><trkpt lat="44.66300988023711" lon="10.125222052987457"><ele>204.33333333333334</ele><time>2026-04-18T13:01:08.999Z</time></trkpt><trkpt lat="44.66309030920609" lon="10.125181018146511"><ele>205.0</ele><time>2026-04-18T13:01:09.999Z</time></trkpt><trkpt lat="44.66316962903066" lon="10.125129938474837"><ele>205.66666666666669</ele><time>2026-04-18T13:01:10.999Z</time></trkpt><trkpt lat="44.66323990779782" lon="10.125063723127528"><ele>206.33333333333334</ele><time>2026-04-18T13:01:11.999Z</time></trkpt><trkpt lat="44.66330540914958" lon="10.124989459249267"><ele>207.0</ele><time>2026-04-18T13:01:12.999Z</time></trkpt><trkpt lat="44.6633625757532" lon="10.124900300685177"><ele>206.8</ele><time>2026-04-18T13:01:13.999Z</time></trkpt><trkpt lat="44.66342243253898" lon="10.124808676659582"><ele>206.6</ele><time>2026-04-18T13:01:14.999Z</time></trkpt><trkpt lat="44.663473321103126" lon="10.12470559533114"><ele>206.4</ele><time>2026-04-18T13:01:15.999Z</time></trkpt><trkpt lat="44.663527015373695" lon="10.124604281200725"><ele>206.20000000000002</ele><time>2026-04-18T13:01:16.999Z</time></trkpt><trkpt lat="44.6635831305488" lon="10.124496636176328"><ele>206.0</ele><time>2026-04-18T13:01:17.999Z</time></trkpt><trkpt lat="44.66363868999033" lon="10.124388590741418"><ele>206.0</ele><time>2026-04-18T13:01:18.999Z</time></trkpt><trkpt lat="44.663697605204064" lon="10.12428245371854"><ele>206.0</ele><time>2026-04-18T13:01:19.999Z</time></trkpt><trkpt lat="44.663759286423286" lon="10.124177033523972"><ele>206.0</ele><time>2026-04-18T13:01:20.999Z</time></trkpt><trkpt lat="44.66381968470341" lon="10.124073417937801"><ele>206.0</ele><time>2026-04-18T13:01:21.999Z</time></trkpt><trkpt lat="44.66388322804751" lon="10.123975310832089"><ele>206.0</ele><time>2026-04-18T13:01:22.999Z</time></trkpt><trkpt lat="44.663952964080316" lon="10.123882901206702"><ele>204.8</ele><time>2026-04-18T13:01:23.998Z</time></trkpt><trkpt lat="44.66402514458205" lon="10.12379762039688"><ele>203.60000000000002</ele><time>2026-04-18T13:01:24.998Z</time></trkpt><trkpt lat="44.66409885266499" lon="10.12371958109663"><ele>202.4</ele><time>2026-04-18T13:01:25.998Z</time></trkpt><trkpt lat="44.664175676624765" lon="10.123643621392374"><ele>201.2</ele><time>2026-04-18T13:01:26.998Z</time></trkpt><trkpt lat="44.664247571359354" lon="10.123562779186408"><ele>200.0</ele><time>2026-04-18T13:01:27.998Z</time></trkpt><trkpt lat="44.664321683425506" lon="10.123483949142873"><ele>200.0</ele><time>2026-04-18T13:01:28.998Z</time></trkpt><trkpt lat="44.66439561863399" lon="10.12340752252643"><ele>200.0</ele><time>2026-04-18T13:01:29.998Z</time></trkpt><trkpt lat="44.6644683555946" lon="10.123326823065245"><ele>200.0</ele><time>2026-04-18T13:01:31Z</time></trkpt><trkpt lat="44.664541324227585" lon="10.123246219049475"><ele>200.0</ele><time>2026-04-18T13:01:32Z</time></trkpt><trkpt lat="44.664614261705864" lon="10.123165690006008"><ele>200.0</ele><time>2026-04-18T13:01:33Z</time></trkpt><trkpt lat="44.66469067960475" lon="10.123083936787216"><ele>199.8</ele><time>2026-04-18T13:01:34Z</time></trkpt><trkpt lat="44.66476743146546" lon="10.12300286763286"><ele>199.6</ele><time>2026-04-18T13:01:35Z</time></trkpt><trkpt lat="44.66484343273647" lon="10.122920097819156"><ele>199.39999999999998</ele><time>2026-04-18T13:01:36Z</time></trkpt><trkpt lat="44.66492160723737" lon="10.1228373136979"><ele>199.2</ele><time>2026-04-18T13:01:37Z</time></trkpt><trkpt lat="44.66499861173869" lon="10.122753598766506"><ele>199.0</ele><time>2026-04-18T13:01:38Z</time></trkpt><trkpt lat="44.665075151705075" lon="10.12267318687905"><ele>199.0</ele><time>2026-04-18T13:01:39Z</time></trkpt><trkpt lat="44.66515286054744" lon="10.122590946855432"><ele>199.0</ele><time>2026-04-18T13:01:40Z</time></trkpt><trkpt lat="44.66522824184644" lon="10.122507848131889"><ele>199.0</ele><time>2026-04-18T13:01:41Z</time></trkpt><trkpt lat="44.66530334026383" lon="10.122430476385347"><ele>199.0</ele><time>2026-04-18T13:01:42Z</time></trkpt><trkpt lat="44.66537633596222" lon="10.122347206617823"><ele>199.0</ele><time>2026-04-18T13:01:43Z</time></trkpt><trkpt lat="44.66544889689965" lon="10.122267082949184"><ele>199.2</ele><time>2026-04-18T13:01:44Z</time></trkpt><trkpt lat="44.66552062260109" lon="10.122186294978842"><ele>199.39999999999998</ele><time>2026-04-18T13:01:45Z</time></trkpt><trkpt lat="44.665590321974804" lon="10.122104809738534"><ele>199.6</ele><time>2026-04-18T13:01:46Z</time></trkpt><trkpt lat="44.665661056219434" lon="10.122027171276684"><ele>199.8</ele><time>2026-04-18T13:01:47Z</time></trkpt><trkpt lat="44.66573730275159" lon="10.121948431818202"><ele>200.0</ele><time>2026-04-18T13:01:48Z</time></trkpt><trkpt lat="44.66581024726266" lon="10.121864693751807"><ele>200.0</ele><time>2026-04-18T13:01:49Z</time></trkpt><trkpt lat="44.66588557066117" lon="10.121785151573812"><ele>200.0</ele><time>2026-04-18T13:01:50Z</time></trkpt><trkpt lat="44.665959933877105" lon="10.12170303581231"><ele>200.0</ele><time>2026-04-18T13:01:51Z</time></trkpt><trkpt lat="44.66603150500769" lon="10.121621143854307"><ele>200.0</ele><time>2026-04-18T13:01:52Z</time></trkpt><trkpt lat="44.66610515722583" lon="10.121544401133052"><ele>200.0</ele><time>2026-04-18T13:01:53Z</time></trkpt><trkpt lat="44.66618166700157" lon="10.121467757462709"><ele>199.8</ele><time>2026-04-18T13:01:54Z</time></trkpt><trkpt lat="44.66626375462545" lon="10.121400414537765"><ele>199.6</ele><time>2026-04-18T13:01:55Z</time></trkpt><trkpt lat="44.666341420936554" lon="10.12132578499731"><ele>199.39999999999998</ele><time>2026-04-18T13:01:56Z</time></trkpt><trkpt lat="44.666419765125504" lon="10.121256368895965"><ele>199.2</ele><time>2026-04-18T13:01:57Z</time></trkpt><trkpt lat="44.66650085981173" lon="10.121195064929543"><ele>199.0</ele><time>2026-04-18T13:01:58Z</time></trkpt><trkpt lat="44.66658262369364" lon="10.121132128717479"><ele>199.0</ele><time>2026-04-18T13:01:59Z</time></trkpt><trkpt lat="44.66666593859519" lon="10.121067844027166"><ele>199.0</ele><time>2026-04-18T13:02:00Z</time></trkpt><trkpt lat="44.666752080009864" lon="10.121008627705866"><ele>199.0</ele><time>2026-04-18T13:02:01Z</time></trkpt><trkpt lat="44.66683976828355" lon="10.120945391268688"><ele>199.0</ele><time>2026-04-18T13:02:02Z</time></trkpt><trkpt lat="44.66693014795549" lon="10.120885980308792"><ele>199.0</ele><time>2026-04-18T13:02:03Z</time></trkpt><trkpt lat="44.66701959314411" lon="10.120826802592099"><ele>199.0</ele><time>2026-04-18T13:02:04Z</time></trkpt><trkpt lat="44.6671121691832" lon="10.120769699675444"><ele>199.0</ele><time>2026-04-18T13:02:05Z</time></trkpt><trkpt lat="44.66720657526474" lon="10.120712899147916"><ele>199.0</ele><time>2026-04-18T13:02:06Z</time></trkpt><trkpt lat="44.66730251799461" lon="10.120653800777605"><ele>199.0</ele><time>2026-04-18T13:02:07Z</time></trkpt><trkpt lat="44.66740121634851" lon="10.120593682336763"><ele>199.0</ele><time>2026-04-18T13:02:08Z</time></trkpt><trkpt lat="44.66750401831333" lon="10.120531937370904"><ele>198.25</ele><time>2026-04-18T13:02:09Z</time></trkpt><trkpt lat="44.66760708306565" lon="10.120467884054033"><ele>197.5</ele><time>2026-04-18T13:02:10Z</time></trkpt><trkpt lat="44.667715076193616" lon="10.120400558835538"><ele>196.75</ele><time>2026-04-18T13:02:11Z</time></trkpt><trkpt lat="44.667824408251285" lon="10.120330444992675"><ele>196.0</ele><time>2026-04-18T13:02:12Z</time></trkpt><trkpt lat="44.66793843947166" lon="10.120262401848063"><ele>194.0</ele><time>2026-04-18T13:02:13Z</time></trkpt><trkpt lat="44.66805570568148" lon="10.12019561823852"><ele>192.0</ele><time>2026-04-18T13:02:14Z</time></trkpt><trkpt lat="44.668174561942635" lon="10.12012274191749"><ele>190.0</ele><time>2026-04-18T13:02:15Z</time></trkpt><trkpt lat="44.66828810505054" lon="10.12007611123279"><ele>188.0</ele><time>2026-04-18T13:02:16Z</time></trkpt><trkpt lat="44.6684051879968" lon="10.12000540204478"><ele>188.0</ele><time>2026-04-18T13:02:17Z</time></trkpt><trkpt lat="44.66852659079842" lon="10.119946714429254"><ele>188.0</ele><time>2026-04-18T13:02:18Z</time></trkpt><trkpt lat="44.66864865464911" lon="10.11991708276927"><ele>188.0</ele><time>2026-04-18T13:02:19Z</time></trkpt><trkpt lat="44.66877257078402" lon="10.11988832067036"><ele>188.0</ele><time>2026-04-18T13:02:20Z</time></trkpt><trkpt lat="44.66888650110287" lon="10.119855974152626"><ele>188.2</ele><time>2026-04-18T13:02:21Z</time></trkpt><trkpt lat="44.668992550728724" lon="10.11983222457566"><ele>188.4</ele><time>2026-04-18T13:02:22Z</time></trkpt><trkpt lat="44.66909112346495" lon="10.119807637583273"><ele>188.6</ele><time>2026-04-18T13:02:23Z</time></trkpt><trkpt lat="44.669185396982584" lon="10.119775462030566"><ele>188.79999999999998</ele><time>2026-04-18T13:02:24Z</time></trkpt><trkpt lat="44.66927760998213" lon="10.11973643383976"><ele>189.0</ele><time>2026-04-18T13:02:25Z</time></trkpt><trkpt lat="44.66936716187931" lon="10.119684794045757"><ele>190.16666666666666</ele><time>2026-04-18T13:02:26Z</time></trkpt><trkpt lat="44.66945391094906" lon="10.119635345273286"><ele>191.33333333333331</ele><time>2026-04-18T13:02:27Z</time></trkpt><trkpt lat="44.66953685909635" lon="10.11959052758626"><ele>192.5</ele><time>2026-04-18T13:02:28Z</time></trkpt><trkpt lat="44.6696148780185" lon="10.11955184936179"><ele>193.66666666666666</ele><time>2026-04-18T13:02:29Z</time></trkpt><trkpt lat="44.6696913923085" lon="10.119506079121965"><ele>194.83333333333331</ele><time>2026-04-18T13:02:30Z</time></trkpt><trkpt lat="44.66976425050433" lon="10.119466252866049"><ele>196.0</ele><time>2026-04-18T13:02:31Z</time></trkpt><trkpt lat="44.66983231495263" lon="10.119425873509025"><ele>196.0</ele><time>2026-04-18T13:02:32Z</time></trkpt><trkpt lat="44.66990193874765" lon="10.119390531351938"><ele>196.0</ele><time>2026-04-18T13:02:33Z</time></trkpt><trkpt lat="44.66996733735928" lon="10.119358490496932"><ele>196.0</ele><time>2026-04-18T13:02:34Z</time></trkpt><trkpt lat="44.67003413646097" lon="10.11932591226907"><ele>196.0</ele><time>2026-04-18T13:02:35Z</time></trkpt><trkpt lat="44.670094535406314" lon="10.119293219376287"><ele>196.0</ele><time>2026-04-18T13:02:35.999Z</time></trkpt><trkpt lat="44.67015705316794" lon="10.119264897349389"><ele>196.0</ele><time>2026-04-18T13:02:36.999Z</time></trkpt><trkpt lat="44.67021920184775" lon="10.119236590569345"><ele>196.0</ele><time>2026-04-18T13:02:37.999Z</time></trkpt><trkpt lat="44.670328707919104" lon="10.119160062606433"><ele>195.99999999999997</ele><time>2026-04-18T13:02:39.999Z</time></trkpt><trkpt lat="44.67039172598167" lon="10.119126724934585"><ele>196.0</ele><time>2026-04-18T13:02:40.999Z</time></trkpt><trkpt lat="44.670454513987885" lon="10.119096574230408"><ele>196.0</ele><time>2026-04-18T13:02:41.999Z</time></trkpt><trkpt lat="44.670514905464486" lon="10.119065345213333"><ele>196.0</ele><time>2026-04-18T13:02:42.999Z</time></trkpt><trkpt lat="44.67057491011684" lon="10.119029228729804"><ele>195.99999999999997</ele><time>2026-04-18T13:02:43.999Z</time></trkpt><trkpt lat="44.67063531091897" lon="10.11899357277018"><ele>196.0</ele><time>2026-04-18T13:02:44.999Z</time></trkpt><trkpt lat="44.67075449451909" lon="10.118928099447597"><ele>196.0</ele><time>2026-04-18T13:02:46.999Z</time></trkpt><trkpt lat="44.670815434382845" lon="10.118896103009586"><ele>196.0</ele><time>2026-04-18T13:02:47.999Z</time></trkpt><trkpt lat="44.67087848263618" lon="10.118864489875934"><ele>196.0</ele><time>2026-04-18T13:02:48.999Z</time></trkpt><trkpt lat="44.67094228048644" lon="10.118830208134048"><ele>196.0</ele><time>2026-04-18T13:02:49.999Z</time></trkpt><trkpt lat="44.671008065814746" lon="10.118793044155703"><ele>196.0</ele><time>2026-04-18T13:02:50.999Z</time></trkpt><trkpt lat="44.67107063698769" lon="10.118755834952983"><ele>196.0</ele><time>2026-04-18T13:02:51.999Z</time></trkpt><trkpt lat="44.67113585152788" lon="10.118718292551963"><ele>196.0</ele><time>2026-04-18T13:02:52.999Z</time></trkpt><trkpt lat="44.67119913187325" lon="10.11867832020554"><ele>196.14285714285714</ele><time>2026-04-18T13:02:53.999Z</time></trkpt><trkpt lat="44.67126113091603" lon="10.118640894891897"><ele>196.28571428571428</ele><time>2026-04-18T13:02:54.999Z</time></trkpt><trkpt lat="44.671325136026915" lon="10.11860462809602"><ele>196.42857142857144</ele><time>2026-04-18T13:02:55.999Z</time></trkpt><trkpt lat="44.671390122368884" lon="10.118570565793124"><ele>196.57142857142856</ele><time>2026-04-18T13:02:56.999Z</time></trkpt><trkpt lat="44.67145395354765" lon="10.118540547182533"><ele>196.71428571428572</ele><time>2026-04-18T13:02:57.999Z</time></trkpt><trkpt lat="44.67151818142436" lon="10.118506780673616"><ele>196.85714285714286</ele><time>2026-04-18T13:02:58.999Z</time></trkpt><trkpt lat="44.67158162702329" lon="10.118471554745792"><ele>197.0</ele><time>2026-04-18T13:02:59.999Z</time></trkpt><trkpt lat="44.67164641893229" lon="10.118438995051411"><ele>197.0</ele><time>2026-04-18T13:03:00.999Z</time></trkpt><trkpt lat="44.67171258301511" lon="10.118405811514627"><ele>197.0</ele><time>2026-04-18T13:03:01.999Z</time></trkpt><trkpt lat="44.671778288645285" lon="10.11837011140596"><ele>197.0</ele><time>2026-04-18T13:03:02.999Z</time></trkpt><trkpt lat="44.67184324471168" lon="10.118333328202159"><ele>197.0</ele><time>2026-04-18T13:03:03.999Z</time></trkpt><trkpt lat="44.67190928808977" lon="10.118299010526899"><ele>197.0</ele><time>2026-04-18T13:03:04.999Z</time></trkpt><trkpt lat="44.67197197913439" lon="10.11825466973147"><ele>197.0</ele><time>2026-04-18T13:03:05.999Z</time></trkpt><trkpt lat="44.67203497292101" lon="10.118209412146975"><ele>197.0</ele><time>2026-04-18T13:03:06.999Z</time></trkpt><trkpt lat="44.67209251927071" lon="10.118150480287277"><ele>197.0</ele><time>2026-04-18T13:03:07.999Z</time></trkpt><trkpt lat="44.6721462957812" lon="10.11808426342981"><ele>197.0</ele><time>2026-04-18T13:03:08.999Z</time></trkpt><trkpt lat="44.672195714347176" lon="10.11801446046712"><ele>197.0</ele><time>2026-04-18T13:03:09.999Z</time></trkpt><trkpt lat="44.67224272034033" lon="10.117939858022147"><ele>197.0</ele><time>2026-04-18T13:03:10.999Z</time></trkpt><trkpt lat="44.67228819673436" lon="10.117860484574786"><ele>197.0</ele><time>2026-04-18T13:03:11.999Z</time></trkpt><trkpt lat="44.6723298367046" lon="10.117776116910164"><ele>197.0</ele><time>2026-04-18T13:03:12.999Z</time></trkpt><trkpt lat="44.672366278077575" lon="10.117690379096219"><ele>197.0</ele><time>2026-04-18T13:03:13.999Z</time></trkpt><trkpt lat="44.672402141687364" lon="10.11760698759046"><ele>197.00000000000003</ele><time>2026-04-18T13:03:14.999Z</time></trkpt><trkpt lat="44.67243901366682" lon="10.117513214412615"><ele>197.0</ele><time>2026-04-18T13:03:15.999Z</time></trkpt><trkpt lat="44.67247298817889" lon="10.117413123045026"><ele>197.0</ele><time>2026-04-18T13:03:16.999Z</time></trkpt><trkpt lat="44.672506197196796" lon="10.11730825524201"><ele>197.0</ele><time>2026-04-18T13:03:17.999Z</time></trkpt><trkpt lat="44.672545427359054" lon="10.117206074353629"><ele>197.00000000000003</ele><time>2026-04-18T13:03:18.999Z</time></trkpt><trkpt lat="44.67258065538173" lon="10.117099802389344"><ele>197.0</ele><time>2026-04-18T13:03:19.999Z</time></trkpt><trkpt lat="44.67262232930102" lon="10.11699219062295"><ele>196.66666666666669</ele><time>2026-04-18T13:03:20.999Z</time></trkpt><trkpt lat="44.67266043331001" lon="10.116883423126005"><ele>196.33333333333334</ele><time>2026-04-18T13:03:21.999Z</time></trkpt><trkpt lat="44.672697650607624" lon="10.11677367042454"><ele>196.0</ele><time>2026-04-18T13:03:22.999Z</time></trkpt><trkpt lat="44.67273761186433" lon="10.116662874304232"><ele>195.66666666666669</ele><time>2026-04-18T13:03:23.999Z</time></trkpt><trkpt lat="44.672779531658726" lon="10.116556596919557"><ele>195.33333333333334</ele><time>2026-04-18T13:03:24.999Z</time></trkpt><trkpt lat="44.67281880549425" lon="10.116449213271604"><ele>195.0</ele><time>2026-04-18T13:03:25.999Z</time></trkpt><trkpt lat="44.67285589016784" lon="10.116341992786307"><ele>195.0</ele><time>2026-04-18T13:03:26.999Z</time></trkpt><trkpt lat="44.67289336802457" lon="10.116238273101088"><ele>195.0</ele><time>2026-04-18T13:03:27.998Z</time></trkpt><trkpt lat="44.67293199607292" lon="10.116131331647054"><ele>195.0</ele><time>2026-04-18T13:03:28.998Z</time></trkpt><trkpt lat="44.67296667890534" lon="10.116022624383438"><ele>195.0</ele><time>2026-04-18T13:03:29.998Z</time></trkpt><trkpt lat="44.672999238152066" lon="10.115908410939667"><ele>195.0</ele><time>2026-04-18T13:03:30.998Z</time></trkpt><trkpt lat="44.67301197778676" lon="10.115779323895925"><ele>195.0</ele><time>2026-04-18T13:03:31.998Z</time></trkpt><trkpt lat="44.67301428870654" lon="10.115647596012167"><ele>194.6</ele><time>2026-04-18T13:03:32.998Z</time></trkpt><trkpt lat="44.67300035977407" lon="10.115508526635404"><ele>194.2</ele><time>2026-04-18T13:03:33.998Z</time></trkpt><trkpt lat="44.67297218295789" lon="10.115370351742385"><ele>193.8</ele><time>2026-04-18T13:03:34.998Z</time></trkpt><trkpt lat="44.672932267769056" lon="10.115230985912643"><ele>193.4</ele><time>2026-04-18T13:03:35.998Z</time></trkpt><trkpt lat="44.67288763265383" lon="10.115094329816614"><ele>193.0</ele><time>2026-04-18T13:03:37Z</time></trkpt><trkpt lat="44.67284384123349" lon="10.114952238030199"><ele>192.25</ele><time>2026-04-18T13:03:38Z</time></trkpt><trkpt lat="44.67280061896993" lon="10.11480832385683"><ele>191.5</ele><time>2026-04-18T13:03:39Z</time></trkpt><trkpt lat="44.672765719163834" lon="10.114654924722846"><ele>190.75</ele><time>2026-04-18T13:03:40Z</time></trkpt><trkpt lat="44.672755215298146" lon="10.114493169200799"><ele>190.0</ele><time>2026-04-18T13:03:41Z</time></trkpt><trkpt lat="44.672774920354996" lon="10.114328655139442"><ele>190.0</ele><time>2026-04-18T13:03:42Z</time></trkpt><trkpt lat="44.672814647061465" lon="10.114171777197756"><ele>190.0</ele><time>2026-04-18T13:03:43Z</time></trkpt><trkpt lat="44.67286729615062" lon="10.114023331661615"><ele>190.0</ele><time>2026-04-18T13:03:44Z</time></trkpt><trkpt lat="44.67291848709095" lon="10.113876588780233"><ele>190.0</ele><time>2026-04-18T13:03:45Z</time></trkpt><trkpt lat="44.67295420659036" lon="10.113726542452016"><ele>190.6</ele><time>2026-04-18T13:03:46Z</time></trkpt><trkpt lat="44.67296248230636" lon="10.113570570025553"><ele>191.2</ele><time>2026-04-18T13:03:47Z</time></trkpt><trkpt lat="44.67294610814741" lon="10.113414012956635"><ele>191.8</ele><time>2026-04-18T13:03:48Z</time></trkpt><trkpt lat="44.67290342622228" lon="10.113270571432475"><ele>192.4</ele><time>2026-04-18T13:03:49Z</time></trkpt><trkpt lat="44.67285645894654" lon="10.113136163251662"><ele>193.0</ele><time>2026-04-18T13:03:50Z</time></trkpt><trkpt lat="44.672819043540954" lon="10.113002988452692"><ele>193.2</ele><time>2026-04-18T13:03:51Z</time></trkpt><trkpt lat="44.67278690272007" lon="10.112873308593816"><ele>193.4</ele><time>2026-04-18T13:03:52Z</time></trkpt><trkpt lat="44.67276346583935" lon="10.112736788748357"><ele>193.6</ele><time>2026-04-18T13:03:53Z</time></trkpt><trkpt lat="44.672744306840556" lon="10.112604160117513"><ele>193.79999999999998</ele><time>2026-04-18T13:03:54Z</time></trkpt><trkpt lat="44.67273882049771" lon="10.112466950979156"><ele>194.0</ele><time>2026-04-18T13:03:55Z</time></trkpt><trkpt lat="44.67274468153284" lon="10.11232930615025"><ele>193.79999999999998</ele><time>2026-04-18T13:03:56Z</time></trkpt><trkpt lat="44.67275881925844" lon="10.112197241498686"><ele>193.6</ele><time>2026-04-18T13:03:57Z</time></trkpt><trkpt lat="44.672785062364994" lon="10.11206642619476"><ele>193.4</ele><time>2026-04-18T13:03:58Z</time></trkpt><trkpt lat="44.67282137440212" lon="10.111942116166302"><ele>193.2</ele><time>2026-04-18T13:03:59Z</time></trkpt><trkpt lat="44.6728694468871" lon="10.11182670674384"><ele>193.0</ele><time>2026-04-18T13:04:00Z</time></trkpt><trkpt lat="44.67292562753793" lon="10.111718419504433"><ele>193.0</ele><time>2026-04-18T13:04:01Z</time></trkpt><trkpt lat="44.67297902155126" lon="10.11160938693051"><ele>193.0</ele><time>2026-04-18T13:04:02Z</time></trkpt><trkpt lat="44.673031402910986" lon="10.111499598510255"><ele>193.0</ele><time>2026-04-18T13:04:03Z</time></trkpt><trkpt lat="44.67308522428482" lon="10.111387582747323"><ele>193.0</ele><time>2026-04-18T13:04:04Z</time></trkpt><trkpt lat="44.673129915994046" lon="10.11127479152262"><ele>193.0</ele><time>2026-04-18T13:04:05Z</time></trkpt><trkpt lat="44.673180896950846" lon="10.111165678919525"><ele>192.4</ele><time>2026-04-18T13:04:06Z</time></trkpt><trkpt lat="44.673228550591496" lon="10.111050360302675"><ele>191.8</ele><time>2026-04-18T13:04:07Z</time></trkpt><trkpt lat="44.67326622638231" lon="10.110929454315563"><ele>191.2</ele><time>2026-04-18T13:04:08Z</time></trkpt><trkpt lat="44.67328091818423" lon="10.110791740387063"><ele>190.6</ele><time>2026-04-18T13:04:09Z</time></trkpt><trkpt lat="44.67326542521484" lon="10.110650874304715"><ele>190.0</ele><time>2026-04-18T13:04:10Z</time></trkpt><trkpt lat="44.673230426800146" lon="10.110511016586788"><ele>190.0</ele><time>2026-04-18T13:04:11Z</time></trkpt><trkpt lat="44.673197911215695" lon="10.110377539991292"><ele>190.0</ele><time>2026-04-18T13:04:12Z</time></trkpt><trkpt lat="44.673167647899035" lon="10.110240752958957"><ele>190.0</ele><time>2026-04-18T13:04:13Z</time></trkpt><trkpt lat="44.67314090877061" lon="10.1101083860468"><ele>190.0</ele><time>2026-04-18T13:04:14Z</time></trkpt><trkpt lat="44.673115154181524" lon="10.109973121929876"><ele>190.0</ele><time>2026-04-18T13:04:15Z</time></trkpt><trkpt lat="44.673087823353605" lon="10.10983751147379"><ele>190.8</ele><time>2026-04-18T13:04:16Z</time></trkpt><trkpt lat="44.673056842394274" lon="10.109705408932834"><ele>191.6</ele><time>2026-04-18T13:04:17Z</time></trkpt><trkpt lat="44.67301630851628" lon="10.10957485315162"><ele>192.39999999999998</ele><time>2026-04-18T13:04:18Z</time></trkpt><trkpt lat="44.672961825062366" lon="10.109453605246332"><ele>193.2</ele><time>2026-04-18T13:04:19Z</time></trkpt><trkpt lat="44.67292022323175" lon="10.109329617046384"><ele>194.0</ele><time>2026-04-18T13:04:20Z</time></trkpt><trkpt lat="44.672827086011296" lon="10.109237549702703"><ele>191.79999999999998</ele><time>2026-04-18T13:04:21Z</time></trkpt><trkpt lat="44.672758716442836" lon="10.10913066487046"><ele>189.6</ele><time>2026-04-18T13:04:22Z</time></trkpt><trkpt lat="44.67270341124727" lon="10.109008921545906"><ele>187.4</ele><time>2026-04-18T13:04:23Z</time></trkpt><trkpt lat="44.672662200585854" lon="10.108865793785233"><ele>185.2</ele><time>2026-04-18T13:04:24Z</time></trkpt><trkpt lat="44.67262994752764" lon="10.108712358190308"><ele>183.0</ele><time>2026-04-18T13:04:25Z</time></trkpt><trkpt lat="44.672610372071546" lon="10.108562324270974"><ele>183.0</ele><time>2026-04-18T13:04:26Z</time></trkpt><trkpt lat="44.672599474740856" lon="10.108410632532937"><ele>183.0</ele><time>2026-04-18T13:04:27Z</time></trkpt><trkpt lat="44.67257541899635" lon="10.108263167427054"><ele>183.0</ele><time>2026-04-18T13:04:28Z</time></trkpt><trkpt lat="44.67255106965226" lon="10.10811468751215"><ele>183.0</ele><time>2026-04-18T13:04:29Z</time></trkpt><trkpt lat="44.6725278059204" lon="10.107966667104336"><ele>183.0</ele><time>2026-04-18T13:04:30Z</time></trkpt><trkpt lat="44.672506985048294" lon="10.107821026895708"><ele>183.8</ele><time>2026-04-18T13:04:31Z</time></trkpt><trkpt lat="44.67248657489173" lon="10.107674404256988"><ele>184.60000000000002</ele><time>2026-04-18T13:04:32Z</time></trkpt><trkpt lat="44.67246133353726" lon="10.107532439500238"><ele>185.39999999999998</ele><time>2026-04-18T13:04:33Z</time></trkpt><trkpt lat="44.67243706811703" lon="10.107390782569484"><ele>186.2</ele><time>2026-04-18T13:04:34Z</time></trkpt><trkpt lat="44.67241433780198" lon="10.107251067494392"><ele>187.0</ele><time>2026-04-18T13:04:35Z</time></trkpt><trkpt lat="44.67239084090123" lon="10.10710847472939"><ele>188.0</ele><time>2026-04-18T13:04:36Z</time></trkpt><trkpt lat="44.67236599251944" lon="10.106973015171521"><ele>189.0</ele><time>2026-04-18T13:04:37Z</time></trkpt><trkpt lat="44.67234369553229" lon="10.106832708634327"><ele>190.0</ele><time>2026-04-18T13:04:38Z</time></trkpt><trkpt lat="44.6723153107383" lon="10.106693778413893"><ele>191.0</ele><time>2026-04-18T13:04:38.999Z</time></trkpt><trkpt lat="44.67228852752086" lon="10.106556070183514"><ele>192.0</ele><time>2026-04-18T13:04:39.999Z</time></trkpt><trkpt lat="44.67227239337534" lon="10.106416596176018"><ele>192.39999999999998</ele><time>2026-04-18T13:04:40.999Z</time></trkpt><trkpt lat="44.6722599777484" lon="10.10627456761986"><ele>192.79999999999998</ele><time>2026-04-18T13:04:41.999Z</time></trkpt><trkpt lat="44.67224977610297" lon="10.106132136617665"><ele>193.2</ele><time>2026-04-18T13:04:42.999Z</time></trkpt><trkpt lat="44.67224207584791" lon="10.105990099500625"><ele>193.6</ele><time>2026-04-18T13:04:43.999Z</time></trkpt><trkpt lat="44.67221046377919" lon="10.105842752760282"><ele>194.0</ele><time>2026-04-18T13:04:44.999Z</time></trkpt><trkpt lat="44.672163511307104" lon="10.105708989842892"><ele>194.0</ele><time>2026-04-18T13:04:45.999Z</time></trkpt><trkpt lat="44.672113670201696" lon="10.105572164026963"><ele>194.0</ele><time>2026-04-18T13:04:46.999Z</time></trkpt><trkpt lat="44.67207093427623" lon="10.105431830924774"><ele>194.0</ele><time>2026-04-18T13:04:47.999Z</time></trkpt><trkpt lat="44.67202302852048" lon="10.105295968043805"><ele>194.0</ele><time>2026-04-18T13:04:48.999Z</time></trkpt><trkpt lat="44.67197209401052" lon="10.105164362909626"><ele>194.0</ele><time>2026-04-18T13:04:49.999Z</time></trkpt><trkpt lat="44.6719295053868" lon="10.105023879708149"><ele>191.0</ele><time>2026-04-18T13:04:50.999Z</time></trkpt><trkpt lat="44.671882996826554" lon="10.104890909040623"><ele>188.0</ele><time>2026-04-18T13:04:51.999Z</time></trkpt><trkpt lat="44.671826539773406" lon="10.104763894494782"><ele>185.0</ele><time>2026-04-18T13:04:52.999Z</time></trkpt><trkpt lat="44.671762999436154" lon="10.104646743735707"><ele>182.0</ele><time>2026-04-18T13:04:53.999Z</time></trkpt><trkpt lat="44.671689670931045" lon="10.10454033149564"><ele>179.0</ele><time>2026-04-18T13:04:54.999Z</time></trkpt><trkpt lat="44.671610150416754" lon="10.104438979605897"><ele>179.0</ele><time>2026-04-18T13:04:55.999Z</time></trkpt><trkpt lat="44.67152671067215" lon="10.10434342593808"><ele>179.0</ele><time>2026-04-18T13:04:56.999Z</time></trkpt><trkpt lat="44.67144480835845" lon="10.10424439849821"><ele>179.0</ele><time>2026-04-18T13:04:57.999Z</time></trkpt><trkpt lat="44.67138167556556" lon="10.104130374935618"><ele>179.0</ele><time>2026-04-18T13:04:58.999Z</time></trkpt><trkpt lat="44.671349308225025" lon="10.103982318438987"><ele>179.0</ele><time>2026-04-18T13:04:59.999Z</time></trkpt><trkpt lat="44.6713569396265" lon="10.103821748055966"><ele>177.25</ele><time>2026-04-18T13:05:00.999Z</time></trkpt><trkpt lat="44.67141432688037" lon="10.103672357021084"><ele>175.5</ele><time>2026-04-18T13:05:01.999Z</time></trkpt><trkpt lat="44.67151156774413" lon="10.103568930573655"><ele>173.75</ele><time>2026-04-18T13:05:02.999Z</time></trkpt><trkpt lat="44.67161628235134" lon="10.103502413121698"><ele>172.0</ele><time>2026-04-18T13:05:03.999Z</time></trkpt><trkpt lat="44.67172406197012" lon="10.10344787795059"><ele>172.0</ele><time>2026-04-18T13:05:04.999Z</time></trkpt><trkpt lat="44.67182707887676" lon="10.103383061220024"><ele>172.0</ele><time>2026-04-18T13:05:05.999Z</time></trkpt><trkpt lat="44.67192520063888" lon="10.103305492763495"><ele>172.0</ele><time>2026-04-18T13:05:06.999Z</time></trkpt><trkpt lat="44.672020420090114" lon="10.103224461608148"><ele>172.0</ele><time>2026-04-18T13:05:07.999Z</time></trkpt><trkpt lat="44.67211333971784" lon="10.103141240989295"><ele>172.0</ele><time>2026-04-18T13:05:08.999Z</time></trkpt><trkpt lat="44.6722122605701" lon="10.103059698112533"><ele>171.0</ele><time>2026-04-18T13:05:09.999Z</time></trkpt><trkpt lat="44.67230856732575" lon="10.102972304143453"><ele>170.0</ele><time>2026-04-18T13:05:10.999Z</time></trkpt><trkpt lat="44.67240088924854" lon="10.102881726110107"><ele>169.0</ele><time>2026-04-18T13:05:11.999Z</time></trkpt><trkpt lat="44.67249352211309" lon="10.102792606480486"><ele>168.0</ele><time>2026-04-18T13:05:12.999Z</time></trkpt><trkpt lat="44.67258610854289" lon="10.102713813207284"><ele>167.0</ele><time>2026-04-18T13:05:13.999Z</time></trkpt><trkpt lat="44.6726767063533" lon="10.102629192266981"><ele>167.0</ele><time>2026-04-18T13:05:14.999Z</time></trkpt><trkpt lat="44.67275975935909" lon="10.102532650788582"><ele>167.0</ele><time>2026-04-18T13:05:15.999Z</time></trkpt><trkpt lat="44.67284933238272" lon="10.102451358476033"><ele>167.0</ele><time>2026-04-18T13:05:16.999Z</time></trkpt><trkpt lat="44.672917799307854" lon="10.102325835342064"><ele>167.0</ele><time>2026-04-18T13:05:17.999Z</time></trkpt><trkpt lat="44.67296422167971" lon="10.102177814192862"><ele>167.0</ele><time>2026-04-18T13:05:18.999Z</time></trkpt><trkpt lat="44.67300157846555" lon="10.102028979654797"><ele>166.6</ele><time>2026-04-18T13:05:19.999Z</time></trkpt><trkpt lat="44.673040076149135" lon="10.101879156984372"><ele>166.2</ele><time>2026-04-18T13:05:20.999Z</time></trkpt><trkpt lat="44.67308035314416" lon="10.101735570439855"><ele>165.8</ele><time>2026-04-18T13:05:21.999Z</time></trkpt><trkpt lat="44.67312591008955" lon="10.101592386387894"><ele>165.4</ele><time>2026-04-18T13:05:22.999Z</time></trkpt><trkpt lat="44.673160912475076" lon="10.10144647724693"><ele>165.0</ele><time>2026-04-18T13:05:23.999Z</time></trkpt><trkpt lat="44.67320560881114" lon="10.10131817133291"><ele>165.0</ele><time>2026-04-18T13:05:24.999Z</time></trkpt><trkpt lat="44.67327163363648" lon="10.101200351541282"><ele>165.0</ele><time>2026-04-18T13:05:25.999Z</time></trkpt><trkpt lat="44.67334896498676" lon="10.10110764337968"><ele>165.0</ele><time>2026-04-18T13:05:26.999Z</time></trkpt><trkpt lat="44.67343400261696" lon="10.101027213674"><ele>165.0</ele><time>2026-04-18T13:05:27.999Z</time></trkpt><trkpt lat="44.67352935859946" lon="10.100966912506516"><ele>165.0</ele><time>2026-04-18T13:05:28.999Z</time></trkpt><trkpt lat="44.67362370672935" lon="10.10090592466303"><ele>165.8</ele><time>2026-04-18T13:05:29.999Z</time></trkpt><trkpt lat="44.67371724500492" lon="10.100844141553258"><ele>166.6</ele><time>2026-04-18T13:05:30.999Z</time></trkpt><trkpt lat="44.673807098960005" lon="10.100780517264122"><ele>167.39999999999998</ele><time>2026-04-18T13:05:31.998Z</time></trkpt><trkpt lat="44.67389998549133" lon="10.100712799342197"><ele>168.2</ele><time>2026-04-18T13:05:32.998Z</time></trkpt><trkpt lat="44.67399159984784" lon="10.100646037597475"><ele>169.0</ele><time>2026-04-18T13:05:33.998Z</time></trkpt><trkpt lat="44.67408371014425" lon="10.100594856007644"><ele>167.2</ele><time>2026-04-18T13:05:34.998Z</time></trkpt><trkpt lat="44.67417997828781" lon="10.100557142415534"><ele>165.39999999999998</ele><time>2026-04-18T13:05:35.998Z</time></trkpt><trkpt lat="44.674280003293866" lon="10.10053502707846"><ele>163.6</ele><time>2026-04-18T13:05:36.998Z</time></trkpt><trkpt lat="44.67438876669449" lon="10.10054075957879"><ele>161.8</ele><time>2026-04-18T13:05:37.998Z</time></trkpt><trkpt lat="44.6745047012406" lon="10.10054649298076"><ele>160.0</ele><time>2026-04-18T13:05:38.998Z</time></trkpt><trkpt lat="44.67461058239528" lon="10.100591965147666"><ele>160.0</ele><time>2026-04-18T13:05:39.998Z</time></trkpt><trkpt lat="44.67470815331443" lon="10.100594432032473"><ele>160.0</ele><time>2026-04-18T13:05:40.998Z</time></trkpt><trkpt lat="44.67480461978786" lon="10.100582683453869"><ele>160.0</ele><time>2026-04-18T13:05:41.998Z</time></trkpt><trkpt lat="44.67489999470027" lon="10.100553537087333"><ele>160.0</ele><time>2026-04-18T13:05:43Z</time></trkpt><trkpt lat="44.67499071700816" lon="10.100505007876126"><ele>160.0</ele><time>2026-04-18T13:05:44Z</time></trkpt><trkpt lat="44.675077776495776" lon="10.100434585604903"><ele>160.0</ele><time>2026-04-18T13:05:45Z</time></trkpt><trkpt lat="44.67515135165644" lon="10.100343711389069"><ele>160.0</ele><time>2026-04-18T13:05:46Z</time></trkpt><trkpt lat="44.67521539074206" lon="10.100241816578112"><ele>160.0</ele><time>2026-04-18T13:05:47Z</time></trkpt><trkpt lat="44.675280635232696" lon="10.100139566959006"><ele>160.0</ele><time>2026-04-18T13:05:48Z</time></trkpt><trkpt lat="44.675344462111234" lon="10.100034548028185"><ele>160.0</ele><time>2026-04-18T13:05:49Z</time></trkpt><trkpt lat="44.67541178529894" lon="10.099932659881157"><ele>159.8</ele><time>2026-04-18T13:05:50Z</time></trkpt><trkpt lat="44.67547681962728" lon="10.099830209757654"><ele>159.6</ele><time>2026-04-18T13:05:51Z</time></trkpt><trkpt lat="44.67554105397164" lon="10.099726565991018"><ele>159.4</ele><time>2026-04-18T13:05:52Z</time></trkpt><trkpt lat="44.675605569436755" lon="10.099624139134667"><ele>159.2</ele><time>2026-04-18T13:05:53Z</time></trkpt><trkpt lat="44.675675839585594" lon="10.099527293609526"><ele>159.0</ele><time>2026-04-18T13:05:54Z</time></trkpt><trkpt lat="44.67575278685668" lon="10.099442340721671"><ele>159.0</ele><time>2026-04-18T13:05:55Z</time></trkpt><trkpt lat="44.675837379102994" lon="10.099372114660325"><ele>159.0</ele><time>2026-04-18T13:05:56Z</time></trkpt><trkpt lat="44.675929587233746" lon="10.0993241892178"><ele>159.0</ele><time>2026-04-18T13:05:57Z</time></trkpt><trkpt lat="44.676021941278364" lon="10.099282871581396"><ele>159.0</ele><time>2026-04-18T13:05:58Z</time></trkpt><trkpt lat="44.676112817888175" lon="10.099247675419672"><ele>159.0</ele><time>2026-04-18T13:05:59Z</time></trkpt><trkpt lat="44.67620300016518" lon="10.099210556523637"><ele>158.4</ele><time>2026-04-18T13:06:00Z</time></trkpt><trkpt lat="44.67629648104153" lon="10.099172474584499"><ele>157.8</ele><time>2026-04-18T13:06:01Z</time></trkpt><trkpt lat="44.67639184184319" lon="10.099135720082943"><ele>157.2</ele><time>2026-04-18T13:06:02Z</time></trkpt><trkpt lat="44.67648771409225" lon="10.09909024784854"><ele>156.6</ele><time>2026-04-18T13:06:03Z</time></trkpt><trkpt lat="44.676580407092814" lon="10.099042949053482"><ele>156.0</ele><time>2026-04-18T13:06:04Z</time></trkpt><trkpt lat="44.67667484421463" lon="10.098992779311555"><ele>156.0</ele><time>2026-04-18T13:06:05Z</time></trkpt><trkpt lat="44.67677082356089" lon="10.098947803875534"><ele>156.0</ele><time>2026-04-18T13:06:06Z</time></trkpt><trkpt lat="44.67686914915446" lon="10.098909357721388"><ele>156.0</ele><time>2026-04-18T13:06:07Z</time></trkpt><trkpt lat="44.67696419375981" lon="10.098883870379948"><ele>156.0</ele><time>2026-04-18T13:06:08Z</time></trkpt><trkpt lat="44.67706523325772" lon="10.0988506311959"><ele>156.0</ele><time>2026-04-18T13:06:09Z</time></trkpt><trkpt lat="44.67716197825368" lon="10.09881043123936"><ele>156.2</ele><time>2026-04-18T13:06:10Z</time></trkpt><trkpt lat="44.67725704792988" lon="10.098775284817101"><ele>156.39999999999998</ele><time>2026-04-18T13:06:11Z</time></trkpt><trkpt lat="44.677354604159554" lon="10.098747363764652"><ele>156.6</ele><time>2026-04-18T13:06:12Z</time></trkpt><trkpt lat="44.67745002072855" lon="10.09871226003599"><ele>156.79999999999998</ele><time>2026-04-18T13:06:13Z</time></trkpt><trkpt lat="44.67754493989726" lon="10.098678160440159"><ele>157.0</ele><time>2026-04-18T13:06:14Z</time></trkpt><trkpt lat="44.6776402506621" lon="10.098648250298506"><ele>157.0</ele><time>2026-04-18T13:06:15Z</time></trkpt><trkpt lat="44.67772764553215" lon="10.098610090276939"><ele>157.0</ele><time>2026-04-18T13:06:16Z</time></trkpt><trkpt lat="44.6778161708369" lon="10.098569414510962"><ele>157.0</ele><time>2026-04-18T13:06:17Z</time></trkpt><trkpt lat="44.67790528322241" lon="10.098528778448674"><ele>157.0</ele><time>2026-04-18T13:06:18Z</time></trkpt><trkpt lat="44.677991047624346" lon="10.098475160481652"><ele>157.0</ele><time>2026-04-18T13:06:19Z</time></trkpt><trkpt lat="44.67807386394089" lon="10.098409671322722"><ele>157.5</ele><time>2026-04-18T13:06:20Z</time></trkpt><trkpt lat="44.67814149851815" lon="10.098331792772905"><ele>158.0</ele><time>2026-04-18T13:06:21Z</time></trkpt><trkpt lat="44.67821828934642" lon="10.098248421874278"><ele>158.5</ele><time>2026-04-18T13:06:22Z</time></trkpt><trkpt lat="44.67829228634105" lon="10.098173592478298"><ele>159.0</ele><time>2026-04-18T13:06:23Z</time></trkpt><trkpt lat="44.67836565552942" lon="10.098110089905147"><ele>159.5</ele><time>2026-04-18T13:06:24Z</time></trkpt><trkpt lat="44.67844164650043" lon="10.098053667998206"><ele>160.0</ele><time>2026-04-18T13:06:25Z</time></trkpt><trkpt lat="44.67852769074021" lon="10.098022299262704"><ele>159.83333333333334</ele><time>2026-04-18T13:06:26Z</time></trkpt><trkpt lat="44.67860650493431" lon="10.097994793224698"><ele>159.66666666666669</ele><time>2026-04-18T13:06:27Z</time></trkpt><trkpt lat="44.67868574895977" lon="10.097983319240418"><ele>159.5</ele><time>2026-04-18T13:06:28Z</time></trkpt><trkpt lat="44.67876959920409" lon="10.097980033634574"><ele>159.33333333333334</ele><time>2026-04-18T13:06:29Z</time></trkpt><trkpt lat="44.6788511445066" lon="10.09796686335052"><ele>159.16666666666666</ele><time>2026-04-18T13:06:30Z</time></trkpt><trkpt lat="44.67893212907925" lon="10.097959304615527"><ele>159.0</ele><time>2026-04-18T13:06:31Z</time></trkpt><trkpt lat="44.67900776860429" lon="10.097941304023893"><ele>159.0</ele><time>2026-04-18T13:06:32Z</time></trkpt><trkpt lat="44.67907944050525" lon="10.097920239090765"><ele>159.0</ele><time>2026-04-18T13:06:33Z</time></trkpt><trkpt lat="44.67914352916822" lon="10.097913643519501"><ele>159.0</ele><time>2026-04-18T13:06:34Z</time></trkpt><trkpt lat="44.6792102593309" lon="10.097884412593155"><ele>159.0</ele><time>2026-04-18T13:06:35Z</time></trkpt><trkpt lat="44.679282244866975" lon="10.097848250901125"><ele>159.0</ele><time>2026-04-18T13:06:36Z</time></trkpt><trkpt lat="44.67935227425595" lon="10.097812676784828"><ele>159.0</ele><time>2026-04-18T13:06:37Z</time></trkpt><trkpt lat="44.67942435066046" lon="10.09778283340775"><ele>159.0</ele><time>2026-04-18T13:06:38Z</time></trkpt><trkpt lat="44.67949742518195" lon="10.097747198394517"><ele>159.28571428571428</ele><time>2026-04-18T13:06:39Z</time></trkpt><trkpt lat="44.67956947479258" lon="10.097712885102133"><ele>159.57142857142858</ele><time>2026-04-18T13:06:40Z</time></trkpt><trkpt lat="44.67964013590793" lon="10.097675682778252"><ele>159.85714285714286</ele><time>2026-04-18T13:06:41Z</time></trkpt><trkpt lat="44.67971197889362" lon="10.097640380927594"><ele>160.14285714285714</ele><time>2026-04-18T13:06:41.999Z</time></trkpt><trkpt lat="44.67978095710814" lon="10.097605073547088"><ele>160.42857142857144</ele><time>2026-04-18T13:06:42.999Z</time></trkpt><trkpt lat="44.67985006407429" lon="10.097571628532764"><ele>160.71428571428572</ele><time>2026-04-18T13:06:43.999Z</time></trkpt><trkpt lat="44.67991999453041" lon="10.097536921128949"><ele>161.0</ele><time>2026-04-18T13:06:44.999Z</time></trkpt><trkpt lat="44.679991228930206" lon="10.097503531713556"><ele>161.0</ele><time>2026-04-18T13:06:45.999Z</time></trkpt><trkpt lat="44.68006200683395" lon="10.097464332005945"><ele>161.0</ele><time>2026-04-18T13:06:46.999Z</time></trkpt><trkpt lat="44.68013662304489" lon="10.09742424432195"><ele>161.0</ele><time>2026-04-18T13:06:47.999Z</time></trkpt><trkpt lat="44.68020991988887" lon="10.097380508519752"><ele>161.0</ele><time>2026-04-18T13:06:48.999Z</time></trkpt><trkpt lat="44.680282129294426" lon="10.097326926078464"><ele>161.0</ele><time>2026-04-18T13:06:49.999Z</time></trkpt><trkpt lat="44.68035302263533" lon="10.097260387783237"><ele>161.0</ele><time>2026-04-18T13:06:50.999Z</time></trkpt><trkpt lat="44.68041802906433" lon="10.097180052375089"><ele>160.4</ele><time>2026-04-18T13:06:51.999Z</time></trkpt><trkpt lat="44.68048021341594" lon="10.097093558354135"><ele>159.8</ele><time>2026-04-18T13:06:52.999Z</time></trkpt><trkpt lat="44.6805367531088" lon="10.096996380384562"><ele>159.20000000000002</ele><time>2026-04-18T13:06:53.999Z</time></trkpt><trkpt lat="44.68059030188575" lon="10.096893810166456"><ele>158.60000000000002</ele><time>2026-04-18T13:06:54.999Z</time></trkpt><trkpt lat="44.680643374243566" lon="10.096781444934058"><ele>158.0</ele><time>2026-04-18T13:06:55.999Z</time></trkpt><trkpt lat="44.680699358809115" lon="10.096661359422871"><ele>156.4</ele><time>2026-04-18T13:06:56.999Z</time></trkpt><trkpt lat="44.68075183960396" lon="10.096533779880723"><ele>154.8</ele><time>2026-04-18T13:06:57.999Z</time></trkpt><trkpt lat="44.68080865087756" lon="10.096404112000606"><ele>153.2</ele><time>2026-04-18T13:06:58.999Z</time></trkpt><trkpt lat="44.680865596825036" lon="10.096270421430896"><ele>151.6</ele><time>2026-04-18T13:06:59.999Z</time></trkpt><trkpt lat="44.680929774499255" lon="10.096144333093331"><ele>150.0</ele><time>2026-04-18T13:07:00.999Z</time></trkpt><trkpt lat="44.68101249543484" lon="10.096037340704136"><ele>150.0</ele><time>2026-04-18T13:07:01.999Z</time></trkpt><trkpt lat="44.681116626002556" lon="10.09596719057172"><ele>150.0</ele><time>2026-04-18T13:07:02.999Z</time></trkpt><trkpt lat="44.68123150263272" lon="10.09593649001845"><ele>150.0</ele><time>2026-04-18T13:07:03.999Z</time></trkpt><trkpt lat="44.68134583275307" lon="10.095931896029708"><ele>150.0</ele><time>2026-04-18T13:07:04.999Z</time></trkpt><trkpt lat="44.681447894685185" lon="10.095929326241968"><ele>150.0</ele><time>2026-04-18T13:07:05.999Z</time></trkpt><trkpt lat="44.68155298475347" lon="10.09591145035121"><ele>150.0</ele><time>2026-04-18T13:07:06.999Z</time></trkpt><trkpt lat="44.68165351133369" lon="10.095890203993392"><ele>150.0</ele><time>2026-04-18T13:07:07.999Z</time></trkpt><trkpt lat="44.68174318740864" lon="10.0958212676022"><ele>150.0</ele><time>2026-04-18T13:07:08.999Z</time></trkpt><trkpt lat="44.68186014191893" lon="10.095853894729325"><ele>150.0</ele><time>2026-04-18T13:07:09.999Z</time></trkpt><trkpt lat="44.68195853114193" lon="10.095859019518812"><ele>150.0</ele><time>2026-04-18T13:07:10.999Z</time></trkpt><trkpt lat="44.68205945479295" lon="10.095871712201369"><ele>149.8</ele><time>2026-04-18T13:07:11.999Z</time></trkpt><trkpt lat="44.68215305237577" lon="10.095882537976557"><ele>149.6</ele><time>2026-04-18T13:07:12.999Z</time></trkpt><trkpt lat="44.68224705606583" lon="10.095905952048298"><ele>149.4</ele><time>2026-04-18T13:07:13.999Z</time></trkpt><trkpt lat="44.68233485973615" lon="10.095927664800197"><ele>149.2</ele><time>2026-04-18T13:07:14.999Z</time></trkpt><trkpt lat="44.68242275427757" lon="10.095947431843713"><ele>149.0</ele><time>2026-04-18T13:07:15.999Z</time></trkpt><trkpt lat="44.68250933415857" lon="10.095969704391376"><ele>149.0</ele><time>2026-04-18T13:07:16.999Z</time></trkpt><trkpt lat="44.682594297018866" lon="10.095988359425245"><ele>149.0</ele><time>2026-04-18T13:07:17.999Z</time></trkpt><trkpt lat="44.68267860697147" lon="10.09600535055219"><ele>149.0</ele><time>2026-04-18T13:07:18.999Z</time></trkpt><trkpt lat="44.682762698774674" lon="10.096023674470398"><ele>149.0</ele><time>2026-04-18T13:07:19.999Z</time></trkpt><trkpt lat="44.68284747370911" lon="10.096042290296396"><ele>149.0</ele><time>2026-04-18T13:07:20.999Z</time></trkpt><trkpt lat="44.68293349637918" lon="10.096063743048001"><ele>149.0</ele><time>2026-04-18T13:07:21.999Z</time></trkpt><trkpt lat="44.683020579171924" lon="10.096084166874679"><ele>148.5</ele><time>2026-04-18T13:07:22.999Z</time></trkpt><trkpt lat="44.6831095605429" lon="10.096104920497034"><ele>148.0</ele><time>2026-04-18T13:07:23.999Z</time></trkpt><trkpt lat="44.68319537447405" lon="10.096127524777321"><ele>147.5</ele><time>2026-04-18T13:07:24.999Z</time></trkpt><trkpt lat="44.68328367998617" lon="10.096151313037536"><ele>147.0</ele><time>2026-04-18T13:07:25.999Z</time></trkpt><trkpt lat="44.68337205016693" lon="10.09617073389217"><ele>146.5</ele><time>2026-04-18T13:07:26.999Z</time></trkpt><trkpt lat="44.68345800292907" lon="10.096187223183493"><ele>146.0</ele><time>2026-04-18T13:07:27.999Z</time></trkpt><trkpt lat="44.68354590326093" lon="10.096203613873627"><ele>146.0</ele><time>2026-04-18T13:07:28.999Z</time></trkpt><trkpt lat="44.683633245880195" lon="10.096225006453306"><ele>146.0</ele><time>2026-04-18T13:07:29.999Z</time></trkpt><trkpt lat="44.68372107373943" lon="10.096245863647567"><ele>146.0</ele><time>2026-04-18T13:07:30.999Z</time></trkpt><trkpt lat="44.68380529946135" lon="10.096267810246609"><ele>146.0</ele><time>2026-04-18T13:07:31.999Z</time></trkpt><trkpt lat="44.683889950256855" lon="10.096289363559707"><ele>146.0</ele><time>2026-04-18T13:07:32.999Z</time></trkpt><trkpt lat="44.68397362444054" lon="10.096307253629437"><ele>146.0</ele><time>2026-04-18T13:07:33.999Z</time></trkpt><trkpt lat="44.68405681802146" lon="10.09633007450148"><ele>146.0</ele><time>2026-04-18T13:07:34.999Z</time></trkpt><trkpt lat="44.68414374754282" lon="10.096353105914838"><ele>146.0</ele><time>2026-04-18T13:07:35.998Z</time></trkpt><trkpt lat="44.684230881828064" lon="10.096371219971521"><ele>146.0</ele><time>2026-04-18T13:07:36.998Z</time></trkpt><trkpt lat="44.68431405654217" lon="10.096390087418358"><ele>146.0</ele><time>2026-04-18T13:07:37.998Z</time></trkpt><trkpt lat="44.68439648748264" lon="10.096409298558195"><ele>146.0</ele><time>2026-04-18T13:07:38.998Z</time></trkpt><trkpt lat="44.68447643779886" lon="10.096431242093795"><ele>146.0</ele><time>2026-04-18T13:07:39.998Z</time></trkpt><trkpt lat="44.68455768166103" lon="10.096449403234201"><ele>145.83333333333331</ele><time>2026-04-18T13:07:40.998Z</time></trkpt><trkpt lat="44.684637258795135" lon="10.096464802720048"><ele>145.66666666666666</ele><time>2026-04-18T13:07:41.998Z</time></trkpt><trkpt lat="44.68471832236113" lon="10.096482796175888"><ele>145.5</ele><time>2026-04-18T13:07:42.998Z</time></trkpt><trkpt lat="44.684798863250165" lon="10.09650685995952"><ele>145.33333333333334</ele><time>2026-04-18T13:07:43.998Z</time></trkpt><trkpt lat="44.684881115994386" lon="10.096527618539957"><ele>145.16666666666669</ele><time>2026-04-18T13:07:44.998Z</time></trkpt><trkpt lat="44.68496420033739" lon="10.096549141887559"><ele>145.0</ele><time>2026-04-18T13:07:45.998Z</time></trkpt><trkpt lat="44.68504909124284" lon="10.096567510221508"><ele>145.0</ele><time>2026-04-18T13:07:46.998Z</time></trkpt><trkpt lat="44.6851334568475" lon="10.096586191035266"><ele>145.0</ele><time>2026-04-18T13:07:48Z</time></trkpt><trkpt lat="44.685217860566105" lon="10.09660583074935"><ele>145.0</ele><time>2026-04-18T13:07:49Z</time></trkpt><trkpt lat="44.685298293851424" lon="10.096620325750944"><ele>145.0</ele><time>2026-04-18T13:07:50Z</time></trkpt><trkpt lat="44.685383801750476" lon="10.096636575112942"><ele>145.0</ele><time>2026-04-18T13:07:51Z</time></trkpt><trkpt lat="44.685467312477385" lon="10.096656711472969"><ele>145.0</ele><time>2026-04-18T13:07:52Z</time></trkpt><trkpt lat="44.685549358641374" lon="10.096675908259034"><ele>145.5</ele><time>2026-04-18T13:07:53Z</time></trkpt><trkpt lat="44.68563001483992" lon="10.096692168432348"><ele>146.0</ele><time>2026-04-18T13:07:54Z</time></trkpt><trkpt lat="44.68571041915655" lon="10.096709538507955"><ele>146.5</ele><time>2026-04-18T13:07:55Z</time></trkpt><trkpt lat="44.68579337523556" lon="10.096729583108626"><ele>147.0</ele><time>2026-04-18T13:07:56Z</time></trkpt><trkpt lat="44.68587678466774" lon="10.096747098535246"><ele>147.5</ele><time>2026-04-18T13:07:57Z</time></trkpt><trkpt lat="44.68595918479975" lon="10.096764354341582"><ele>148.0</ele><time>2026-04-18T13:07:58Z</time></trkpt><trkpt lat="44.686040968122185" lon="10.09678127557254"><ele>147.5</ele><time>2026-04-18T13:07:59Z</time></trkpt><trkpt lat="44.68612282808015" lon="10.096796345699994"><ele>147.0</ele><time>2026-04-18T13:08:00Z</time></trkpt><trkpt lat="44.68620455463619" lon="10.096817528421953"><ele>146.5</ele><time>2026-04-18T13:08:01Z</time></trkpt><trkpt lat="44.68628634227153" lon="10.096835126491168"><ele>146.0</ele><time>2026-04-18T13:08:02Z</time></trkpt><trkpt lat="44.686366862325286" lon="10.096853182291953"><ele>145.5</ele><time>2026-04-18T13:08:03Z</time></trkpt><trkpt lat="44.68645071974502" lon="10.096873320522594"><ele>145.0</ele><time>2026-04-18T13:08:04Z</time></trkpt><trkpt lat="44.686533267524474" lon="10.096895074644848"><ele>145.0</ele><time>2026-04-18T13:08:05Z</time></trkpt><trkpt lat="44.68661563398494" lon="10.096913753349769"><ele>145.0</ele><time>2026-04-18T13:08:06Z</time></trkpt><trkpt lat="44.68669874810655" lon="10.096930122057985"><ele>145.0</ele><time>2026-04-18T13:08:07Z</time></trkpt><trkpt lat="44.686783497026106" lon="10.09695018947055"><ele>145.0</ele><time>2026-04-18T13:08:08Z</time></trkpt><trkpt lat="44.68686791480876" lon="10.09696702092027"><ele>145.0</ele><time>2026-04-18T13:08:09Z</time></trkpt><trkpt lat="44.686952031265875" lon="10.096986868907061"><ele>145.0</ele><time>2026-04-18T13:08:10Z</time></trkpt><trkpt lat="44.68703442483399" lon="10.0970085738768"><ele>144.5</ele><time>2026-04-18T13:08:11Z</time></trkpt><trkpt lat="44.68712099642123" lon="10.097027600886378"><ele>144.0</ele><time>2026-04-18T13:08:12Z</time></trkpt><trkpt lat="44.68721246255104" lon="10.097044089426737"><ele>143.5</ele><time>2026-04-18T13:08:13Z</time></trkpt><trkpt lat="44.68729488485992" lon="10.0970720364284"><ele>143.0</ele><time>2026-04-18T13:08:14Z</time></trkpt><trkpt lat="44.68737441981425" lon="10.097088209941411"><ele>142.5</ele><time>2026-04-18T13:08:15Z</time></trkpt><trkpt lat="44.68744683943559" lon="10.097106704759307"><ele>142.0</ele><time>2026-04-18T13:08:16Z</time></trkpt><trkpt lat="44.68752012685886" lon="10.09711544551125"><ele>142.0</ele><time>2026-04-18T13:08:17Z</time></trkpt><trkpt lat="44.687591891005376" lon="10.097129766362734"><ele>142.0</ele><time>2026-04-18T13:08:18Z</time></trkpt><trkpt lat="44.68766360837207" lon="10.097146023157572"><ele>142.0</ele><time>2026-04-18T13:08:19Z</time></trkpt><trkpt lat="44.68774273186045" lon="10.09716643944065"><ele>142.0</ele><time>2026-04-18T13:08:20Z</time></trkpt><trkpt lat="44.68781800802344" lon="10.097179985793224"><ele>142.0</ele><time>2026-04-18T13:08:21Z</time></trkpt><trkpt lat="44.68789226824581" lon="10.0971925609062"><ele>142.0</ele><time>2026-04-18T13:08:22Z</time></trkpt><trkpt lat="44.68796865954087" lon="10.09720431696982"><ele>141.79999999999998</ele><time>2026-04-18T13:08:23Z</time></trkpt><trkpt lat="44.6880413630103" lon="10.097234110678288"><ele>141.6</ele><time>2026-04-18T13:08:24Z</time></trkpt><trkpt lat="44.688117231939835" lon="10.097243598599333"><ele>141.39999999999998</ele><time>2026-04-18T13:08:25Z</time></trkpt><trkpt lat="44.688188943480554" lon="10.097265057446657"><ele>141.2</ele><time>2026-04-18T13:08:26Z</time></trkpt><trkpt lat="44.68831054286994" lon="10.097294126282783"><ele>141.0</ele><time>2026-04-18T13:08:28Z</time></trkpt><trkpt lat="44.68842738126442" lon="10.097323621474974"><ele>141.0</ele><time>2026-04-18T13:08:30Z</time></trkpt><trkpt lat="44.68854271288426" lon="10.09734257681322"><ele>141.0</ele><time>2026-04-18T13:08:32Z</time></trkpt><trkpt lat="44.688670045078226" lon="10.097374635367975"><ele>141.0</ele><time>2026-04-18T13:08:34Z</time></trkpt><trkpt lat="44.68876572884616" lon="10.097382621339763"><ele>141.0</ele><time>2026-04-18T13:08:36Z</time></trkpt><trkpt lat="44.68882875549686" lon="10.097396832022921"><ele>141.0</ele><time>2026-04-18T13:08:37Z</time></trkpt><trkpt lat="44.68890676086493" lon="10.097415964712821"><ele>143.0</ele><time>2026-04-18T13:08:38Z</time></trkpt><trkpt lat="44.68899482155488" lon="10.097421136032969"><ele>145.0</ele><time>2026-04-18T13:08:40Z</time></trkpt><trkpt lat="44.68910580835539" lon="10.097454984274467"><ele>147.0</ele><time>2026-04-18T13:08:42Z</time></trkpt><trkpt lat="44.689170514510074" lon="10.097467438394828"><ele>149.0</ele><time>2026-04-18T13:08:43Z</time></trkpt><trkpt lat="44.68928371127524" lon="10.09750624502715"><ele>151.0</ele><time>2026-04-18T13:08:45Z</time></trkpt><trkpt lat="44.68939750805079" lon="10.097529317116845"><ele>151.8</ele><time>2026-04-18T13:08:46.999Z</time></trkpt><trkpt lat="44.68950649025087" lon="10.097558558378154"><ele>152.6</ele><time>2026-04-18T13:08:48.999Z</time></trkpt><trkpt lat="44.68958146491339" lon="10.09758755764432"><ele>153.4</ele><time>2026-04-18T13:08:50.999Z</time></trkpt><trkpt lat="44.689663352543334" lon="10.09763879147405"><ele>154.2</ele><time>2026-04-18T13:08:52.999Z</time></trkpt><trkpt lat="44.68975312916897" lon="10.09771550404155"><ele>155.0</ele><time>2026-04-18T13:08:54.999Z</time></trkpt><trkpt lat="44.68984195147227" lon="10.0978029235725"><ele>155.0</ele><time>2026-04-18T13:08:56.999Z</time></trkpt><trkpt lat="44.689911530886555" lon="10.097897028130213"><ele>155.0</ele><time>2026-04-18T13:08:58.999Z</time></trkpt><trkpt lat="44.689981689242565" lon="10.097993226187144"><ele>155.0</ele><time>2026-04-18T13:09:00.999Z</time></trkpt><trkpt lat="44.69003676857419" lon="10.098082309140958"><ele>155.0</ele><time>2026-04-18T13:09:03.999Z</time></trkpt><trkpt lat="44.69006163192644" lon="10.09816997335064"><ele>155.0</ele><time>2026-04-18T13:09:07.999Z</time></trkpt><trkpt lat="44.690116352625424" lon="10.098238253104464"><ele>155.0</ele><time>2026-04-18T13:12:22Z</time></trkpt><trkpt lat="44.69018150087772" lon="10.098322523719588"><ele>155.2</ele><time>2026-04-18T13:12:26Z</time></trkpt><trkpt lat="44.69026341116222" lon="10.098396721184892"><ele>155.4</ele><time>2026-04-18T13:12:29Z</time></trkpt><trkpt lat="44.690356183847676" lon="10.098426026496345"><ele>155.6</ele><time>2026-04-18T13:12:31Z</time></trkpt><trkpt lat="44.69043544540401" lon="10.098465230191419"><ele>155.8</ele><time>2026-04-18T13:12:33Z</time></trkpt><trkpt lat="44.69049658012464" lon="10.098506884368021"><ele>156.0</ele><time>2026-04-18T13:12:34Z</time></trkpt><trkpt lat="44.69059702734436" lon="10.098565391184039"><ele>156.0</ele><time>2026-04-18T13:12:36Z</time></trkpt><trkpt lat="44.69067606196795" lon="10.098645053282883"><ele>156.0</ele><time>2026-04-18T13:12:38Z</time></trkpt><trkpt lat="44.69075615024586" lon="10.0987205362678"><ele>156.0</ele><time>2026-04-18T13:12:40Z</time></trkpt><trkpt lat="44.690858473422885" lon="10.09881866669238"><ele>156.0</ele><time>2026-04-18T13:12:42Z</time></trkpt><trkpt lat="44.69091452804614" lon="10.09887415023584"><ele>156.0</ele><time>2026-04-18T13:12:43Z</time></trkpt><trkpt lat="44.69096455282592" lon="10.098928982183455"><ele>156.0</ele><time>2026-04-18T13:12:44Z</time></trkpt><trkpt lat="44.69102542096404" lon="10.098979738723243"><ele>156.0</ele><time>2026-04-18T13:12:45Z</time></trkpt><trkpt lat="44.69108704669629" lon="10.099040993307693"><ele>156.0</ele><time>2026-04-18T13:12:46Z</time></trkpt><trkpt lat="44.691149038780395" lon="10.099099862603623"><ele>156.0</ele><time>2026-04-18T13:12:47Z</time></trkpt><trkpt lat="44.69121585593993" lon="10.099164625608193"><ele>156.0</ele><time>2026-04-18T13:12:48Z</time></trkpt><trkpt lat="44.69126959289324" lon="10.099233383031809"><ele>156.0</ele><time>2026-04-18T13:12:49Z</time></trkpt><trkpt lat="44.6913262266193" lon="10.099300916595311"><ele>156.0</ele><time>2026-04-18T13:12:50Z</time></trkpt><trkpt lat="44.691382797046714" lon="10.099363166536355"><ele>154.5</ele><time>2026-04-18T13:12:51Z</time></trkpt><trkpt lat="44.69147573553386" lon="10.099450844505064"><ele>153.0</ele><time>2026-04-18T13:12:53Z</time></trkpt><trkpt lat="44.69155549090692" lon="10.099557812894185"><ele>151.5</ele><time>2026-04-18T13:12:54.999Z</time></trkpt><trkpt lat="44.691591120867734" lon="10.09963223559581"><ele>150.0</ele><time>2026-04-18T13:12:56.999Z</time></trkpt><trkpt lat="44.69163006787777" lon="10.099735661862494"><ele>148.5</ele><time>2026-04-18T13:12:59.999Z</time></trkpt><trkpt lat="44.69168828421718" lon="10.099782397656458"><ele>147.0</ele><time>2026-04-18T13:13:02.999Z</time></trkpt><trkpt lat="44.691692404102554" lon="10.099641314053025"><ele>147.0</ele><time>2026-04-18T13:13:04.999Z</time></trkpt><trkpt lat="44.691754403173384" lon="10.099568967025084"><ele>147.0</ele><time>2026-04-18T13:13:06.999Z</time></trkpt><trkpt lat="44.691847843979644" lon="10.099510339335714"><ele>147.0</ele><time>2026-04-18T13:13:08.999Z</time></trkpt><trkpt lat="44.691940244565245" lon="10.099464053566297"><ele>147.0</ele><time>2026-04-18T13:13:10.999Z</time></trkpt><trkpt lat="44.692049268791365" lon="10.099421406004923"><ele>147.0</ele><time>2026-04-18T13:13:12.999Z</time></trkpt><trkpt lat="44.69216719183239" lon="10.09937712428447"><ele>146.16666666666666</ele><time>2026-04-18T13:13:14.999Z</time></trkpt><trkpt lat="44.69228746391797" lon="10.099329982954897"><ele>145.33333333333334</ele><time>2026-04-18T13:13:16.999Z</time></trkpt><trkpt lat="44.69235193221322" lon="10.099304313478497"><ele>144.5</ele><time>2026-04-18T13:13:17.999Z</time></trkpt><trkpt lat="44.69242325786506" lon="10.099296856555041"><ele>143.66666666666669</ele><time>2026-04-18T13:13:18.999Z</time></trkpt><trkpt lat="44.69249231734941" lon="10.099259685907205"><ele>142.83333333333334</ele><time>2026-04-18T13:13:19.999Z</time></trkpt><trkpt lat="44.6925539784761" lon="10.099193335895853"><ele>142.0</ele><time>2026-04-18T13:13:20.999Z</time></trkpt><trkpt lat="44.69261798860609" lon="10.099134748407382"><ele>142.0</ele><time>2026-04-18T13:13:21.999Z</time></trkpt><trkpt lat="44.69267909432215" lon="10.099067847611298"><ele>142.0</ele><time>2026-04-18T13:13:22.999Z</time></trkpt><trkpt lat="44.692747716277815" lon="10.099009926932245"><ele>142.0</ele><time>2026-04-18T13:13:23.999Z</time></trkpt><trkpt lat="44.69278827330916" lon="10.098911897018459"><ele>142.0</ele><time>2026-04-18T13:13:24.999Z</time></trkpt><trkpt lat="44.69285014585636" lon="10.098839167926595"><ele>142.0</ele><time>2026-04-18T13:13:25.999Z</time></trkpt><trkpt lat="44.69289705139157" lon="10.098745073691182"><ele>142.0</ele><time>2026-04-18T13:13:26.999Z</time></trkpt><trkpt lat="44.69294653538666" lon="10.098651803081717"><ele>141.5</ele><time>2026-04-18T13:13:27.999Z</time></trkpt><trkpt lat="44.692995564804505" lon="10.098558027467549"><ele>141.0</ele><time>2026-04-18T13:13:28.999Z</time></trkpt><trkpt lat="44.69304930460094" lon="10.098464301095612"><ele>140.5</ele><time>2026-04-18T13:13:29.999Z</time></trkpt><trkpt lat="44.69310095442969" lon="10.098372153728585"><ele>140.0</ele><time>2026-04-18T13:13:30.999Z</time></trkpt><trkpt lat="44.693149679226146" lon="10.09827812348673"><ele>139.5</ele><time>2026-04-18T13:13:31.999Z</time></trkpt><trkpt lat="44.69319949184615" lon="10.09818519199811"><ele>139.0</ele><time>2026-04-18T13:13:32.999Z</time></trkpt><trkpt lat="44.69325209880262" lon="10.098094291366417"><ele>139.0</ele><time>2026-04-18T13:13:33.999Z</time></trkpt><trkpt lat="44.693305777041466" lon="10.098007049699335"><ele>139.0</ele><time>2026-04-18T13:13:34.999Z</time></trkpt><trkpt lat="44.69334620745889" lon="10.097904082366798"><ele>139.0</ele><time>2026-04-18T13:13:35.999Z</time></trkpt><trkpt lat="44.69340951755342" lon="10.097826688674303"><ele>139.0</ele><time>2026-04-18T13:13:36.999Z</time></trkpt><trkpt lat="44.69345953829389" lon="10.097732345919853"><ele>139.0</ele><time>2026-04-18T13:13:37.999Z</time></trkpt><trkpt lat="44.693510188681" lon="10.097646884981234"><ele>139.0</ele><time>2026-04-18T13:13:38.999Z</time></trkpt><trkpt lat="44.693556981716576" lon="10.097558636305717"><ele>138.66666666666669</ele><time>2026-04-18T13:13:39.999Z</time></trkpt><trkpt lat="44.69360651301488" lon="10.097471110966252"><ele>138.33333333333334</ele><time>2026-04-18T13:13:40.999Z</time></trkpt><trkpt lat="44.693649988744866" lon="10.0973864455661"><ele>138.0</ele><time>2026-04-18T13:13:41.999Z</time></trkpt><trkpt lat="44.693694415668105" lon="10.097304299578655"><ele>137.66666666666666</ele><time>2026-04-18T13:13:42.999Z</time></trkpt><trkpt lat="44.693741503400084" lon="10.09722359265442"><ele>137.33333333333331</ele><time>2026-04-18T13:13:43.999Z</time></trkpt><trkpt lat="44.693785433267" lon="10.097138838005465"><ele>137.0</ele><time>2026-04-18T13:13:44.999Z</time></trkpt><trkpt lat="44.6938330371243" lon="10.097053109672121"><ele>137.0</ele><time>2026-04-18T13:13:45.999Z</time></trkpt><trkpt lat="44.693879746468426" lon="10.09697176540022"><ele>137.0</ele><time>2026-04-18T13:13:46.999Z</time></trkpt><trkpt lat="44.69392644847246" lon="10.096888494444979"><ele>137.0</ele><time>2026-04-18T13:13:47.998Z</time></trkpt><trkpt lat="44.69396807288231" lon="10.096799633767901"><ele>137.0</ele><time>2026-04-18T13:13:48.998Z</time></trkpt><trkpt lat="44.69401627812715" lon="10.096718784812449"><ele>137.0</ele><time>2026-04-18T13:13:49.998Z</time></trkpt><trkpt lat="44.69405135662923" lon="10.09662635031985"><ele>137.0</ele><time>2026-04-18T13:13:50.998Z</time></trkpt><trkpt lat="44.69411133167272" lon="10.096554959096279"><ele>136.5</ele><time>2026-04-18T13:13:51.998Z</time></trkpt><trkpt lat="44.69413263898369" lon="10.09644206881295"><ele>136.0</ele><time>2026-04-18T13:13:52.998Z</time></trkpt><trkpt lat="44.69418065484603" lon="10.096355778226995"><ele>135.5</ele><time>2026-04-18T13:13:53.998Z</time></trkpt><trkpt lat="44.69425376236666" lon="10.096294302015927"><ele>135.0</ele><time>2026-04-18T13:13:54.998Z</time></trkpt><trkpt lat="44.69429831309349" lon="10.096206941226232"><ele>134.5</ele><time>2026-04-18T13:13:55.998Z</time></trkpt><trkpt lat="44.694347764190745" lon="10.096120021163388"><ele>134.0</ele><time>2026-04-18T13:13:56.998Z</time></trkpt><trkpt lat="44.694398810594244" lon="10.096033045628406"><ele>133.83333333333331</ele><time>2026-04-18T13:13:57.998Z</time></trkpt><trkpt lat="44.69444455846167" lon="10.095945130927557"><ele>133.66666666666666</ele><time>2026-04-18T13:13:58.998Z</time></trkpt><trkpt lat="44.69449199756623" lon="10.09585583543468"><ele>133.5</ele><time>2026-04-18T13:13:59.998Z</time></trkpt><trkpt lat="44.694541542946126" lon="10.095771133708457"><ele>133.33333333333334</ele><time>2026-04-18T13:14:00.998Z</time></trkpt><trkpt lat="44.69459087900802" lon="10.095681942055256"><ele>133.16666666666669</ele><time>2026-04-18T13:14:01.998Z</time></trkpt><trkpt lat="44.69464045979256" lon="10.095595207782756"><ele>133.0</ele><time>2026-04-18T13:14:02.998Z</time></trkpt><trkpt lat="44.69469021366849" lon="10.095505228608955"><ele>133.0</ele><time>2026-04-18T13:14:04Z</time></trkpt><trkpt lat="44.69474079112599" lon="10.095415881028824"><ele>133.0</ele><time>2026-04-18T13:14:05Z</time></trkpt><trkpt lat="44.69479024927025" lon="10.095326837820279"><ele>133.0</ele><time>2026-04-18T13:14:06Z</time></trkpt><trkpt lat="44.694842572269415" lon="10.095234527382846"><ele>133.0</ele><time>2026-04-18T13:14:07Z</time></trkpt><trkpt lat="44.694893505512084" lon="10.095142824078591"><ele>133.0</ele><time>2026-04-18T13:14:08Z</time></trkpt><trkpt lat="44.694943797279585" lon="10.09505208336494"><ele>133.0</ele><time>2026-04-18T13:14:09Z</time></trkpt><trkpt lat="44.69499281344315" lon="10.094960846020747"><ele>133.0</ele><time>2026-04-18T13:14:10Z</time></trkpt><trkpt lat="44.69504633638756" lon="10.094868686710825"><ele>133.0</ele><time>2026-04-18T13:14:11Z</time></trkpt><trkpt lat="44.695097202339966" lon="10.094776957892297"><ele>133.0</ele><time>2026-04-18T13:14:12Z</time></trkpt><trkpt lat="44.69514608319244" lon="10.094687719868107"><ele>133.0</ele><time>2026-04-18T13:14:13Z</time></trkpt><trkpt lat="44.69519378392514" lon="10.094596671600984"><ele>133.0</ele><time>2026-04-18T13:14:14Z</time></trkpt><trkpt lat="44.6952442564968" lon="10.094506899022939"><ele>133.0</ele><time>2026-04-18T13:14:15Z</time></trkpt><trkpt lat="44.69529639222377" lon="10.094415434984606"><ele>132.83333333333334</ele><time>2026-04-18T13:14:16Z</time></trkpt><trkpt lat="44.69533476668175" lon="10.094310173504782"><ele>132.66666666666669</ele><time>2026-04-18T13:14:17Z</time></trkpt><trkpt lat="44.695386247114726" lon="10.094217236318583"><ele>132.5</ele><time>2026-04-18T13:14:18Z</time></trkpt><trkpt lat="44.69545081782718" lon="10.09413847713579"><ele>132.33333333333334</ele><time>2026-04-18T13:14:19Z</time></trkpt><trkpt lat="44.695498880762464" lon="10.094044299731816"><ele>132.16666666666666</ele><time>2026-04-18T13:14:20Z</time></trkpt><trkpt lat="44.69555151401215" lon="10.093954670095545"><ele>132.0</ele><time>2026-04-18T13:14:21Z</time></trkpt><trkpt lat="44.69559989463753" lon="10.093860237948707"><ele>132.0</ele><time>2026-04-18T13:14:22Z</time></trkpt><trkpt lat="44.695652079791046" lon="10.093771654014864"><ele>132.0</ele><time>2026-04-18T13:14:23Z</time></trkpt><trkpt lat="44.6957027273873" lon="10.093677180632373"><ele>132.0</ele><time>2026-04-18T13:14:24Z</time></trkpt><trkpt lat="44.69575253005376" lon="10.093584344739508"><ele>132.0</ele><time>2026-04-18T13:14:25Z</time></trkpt><trkpt lat="44.69580659745462" lon="10.09349076767383"><ele>132.0</ele><time>2026-04-18T13:14:26Z</time></trkpt><trkpt lat="44.69585721222529" lon="10.093396329044392"><ele>132.0</ele><time>2026-04-18T13:14:27Z</time></trkpt><trkpt lat="44.69591059143063" lon="10.093302798798554"><ele>132.33333333333334</ele><time>2026-04-18T13:14:28Z</time></trkpt><trkpt lat="44.69596181282899" lon="10.093210510378364"><ele>132.66666666666666</ele><time>2026-04-18T13:14:29Z</time></trkpt><trkpt lat="44.69600965003644" lon="10.093115112126181"><ele>133.0</ele><time>2026-04-18T13:14:30Z</time></trkpt><trkpt lat="44.69606366824159" lon="10.093023609906464"><ele>133.33333333333331</ele><time>2026-04-18T13:14:31Z</time></trkpt><trkpt lat="44.69611558067815" lon="10.09293161065848"><ele>133.66666666666666</ele><time>2026-04-18T13:14:32Z</time></trkpt><trkpt lat="44.6961683488643" lon="10.09283794582412"><ele>134.0</ele><time>2026-04-18T13:14:33Z</time></trkpt><trkpt lat="44.69621768706427" lon="10.092742729503813"><ele>134.0</ele><time>2026-04-18T13:14:34Z</time></trkpt><trkpt lat="44.69627247056513" lon="10.092649938742161"><ele>134.0</ele><time>2026-04-18T13:14:35Z</time></trkpt><trkpt lat="44.69632425298744" lon="10.092555739707212"><ele>134.0</ele><time>2026-04-18T13:14:36Z</time></trkpt><trkpt lat="44.69637752147908" lon="10.092460482344084"><ele>134.0</ele><time>2026-04-18T13:14:37Z</time></trkpt><trkpt lat="44.696429508628704" lon="10.09236473445429"><ele>134.0</ele><time>2026-04-18T13:14:38Z</time></trkpt><trkpt lat="44.69648282608415" lon="10.092271961807823"><ele>134.0</ele><time>2026-04-18T13:14:39Z</time></trkpt><trkpt lat="44.69653354855948" lon="10.092176120799083"><ele>134.66666666666666</ele><time>2026-04-18T13:14:40Z</time></trkpt><trkpt lat="44.696585857402695" lon="10.092082200146855"><ele>135.33333333333331</ele><time>2026-04-18T13:14:41Z</time></trkpt><trkpt lat="44.69663637518754" lon="10.091988874987049"><ele>136.0</ele><time>2026-04-18T13:14:42Z</time></trkpt><trkpt lat="44.696688891074" lon="10.091896679070024"><ele>136.66666666666666</ele><time>2026-04-18T13:14:43Z</time></trkpt><trkpt lat="44.69674004997845" lon="10.091805707806863"><ele>137.33333333333334</ele><time>2026-04-18T13:14:44Z</time></trkpt><trkpt lat="44.69679043735149" lon="10.091715094502955"><ele>138.0</ele><time>2026-04-18T13:14:45Z</time></trkpt><trkpt lat="44.69684273207022" lon="10.091624396748843"><ele>138.66666666666666</ele><time>2026-04-18T13:14:46Z</time></trkpt><trkpt lat="44.69688041940415" lon="10.09152066644064"><ele>139.33333333333334</ele><time>2026-04-18T13:14:47Z</time></trkpt><trkpt lat="44.69693037314752" lon="10.091430244886958"><ele>140.0</ele><time>2026-04-18T13:14:48Z</time></trkpt><trkpt lat="44.69697977207243" lon="10.091339162021791"><ele>140.66666666666669</ele><time>2026-04-18T13:14:49Z</time></trkpt><trkpt lat="44.697029971355555" lon="10.09124709673299"><ele>141.33333333333334</ele><time>2026-04-18T13:14:50Z</time></trkpt><trkpt lat="44.69708097906292" lon="10.091158174304402"><ele>142.0</ele><time>2026-04-18T13:14:51Z</time></trkpt><trkpt lat="44.69713141629482" lon="10.091071420396684"><ele>142.0</ele><time>2026-04-18T13:14:52Z</time></trkpt><trkpt lat="44.697180962480516" lon="10.09098619947539"><ele>142.0</ele><time>2026-04-18T13:14:53Z</time></trkpt><trkpt lat="44.69722993034211" lon="10.09090257518527"><ele>142.0</ele><time>2026-04-18T13:14:54Z</time></trkpt><trkpt lat="44.69727902841137" lon="10.090819116214213"><ele>142.0</ele><time>2026-04-18T13:14:55Z</time></trkpt><trkpt lat="44.697325833730524" lon="10.090738004051579"><ele>142.0</ele><time>2026-04-18T13:14:56Z</time></trkpt><trkpt lat="44.697372167384906" lon="10.090657709322441"><ele>142.0</ele><time>2026-04-18T13:14:56.999Z</time></trkpt><trkpt lat="44.697417883099945" lon="10.090578190869303"><ele>142.28571428571428</ele><time>2026-04-18T13:14:57.999Z</time></trkpt><trkpt lat="44.69746359048188" lon="10.09049856440642"><ele>142.57142857142856</ele><time>2026-04-18T13:14:58.999Z</time></trkpt><trkpt lat="44.697507573718035" lon="10.090418857671274"><ele>142.85714285714286</ele><time>2026-04-18T13:14:59.999Z</time></trkpt><trkpt lat="44.697551718660044" lon="10.09033974651211"><ele>143.14285714285714</ele><time>2026-04-18T13:15:00.999Z</time></trkpt><trkpt lat="44.69759574102359" lon="10.090260849929791"><ele>143.42857142857144</ele><time>2026-04-18T13:15:01.999Z</time></trkpt><trkpt lat="44.697639178319335" lon="10.090182275565905"><ele>143.71428571428572</ele><time>2026-04-18T13:15:02.999Z</time></trkpt><trkpt lat="44.6976833842076" lon="10.09010312144692"><ele>144.0</ele><time>2026-04-18T13:15:03.999Z</time></trkpt><trkpt lat="44.697725553272804" lon="10.090026327155607"><ele>144.00000000000003</ele><time>2026-04-18T13:15:04.999Z</time></trkpt><trkpt lat="44.69776727285425" lon="10.08995043421126"><ele>144.0</ele><time>2026-04-18T13:15:05.999Z</time></trkpt><trkpt lat="44.69780770176571" lon="10.089876889498619"><ele>144.0</ele><time>2026-04-18T13:15:06.999Z</time></trkpt><trkpt lat="44.69784976790982" lon="10.08979988050427"><ele>144.0</ele><time>2026-04-18T13:15:07.999Z</time></trkpt><trkpt lat="44.697889739611384" lon="10.089726014279643"><ele>144.0</ele><time>2026-04-18T13:15:08.999Z</time></trkpt><trkpt lat="44.69792957479577" lon="10.089653709158217"><ele>144.00000000000003</ele><time>2026-04-18T13:15:09.999Z</time></trkpt><trkpt lat="44.69796946970358" lon="10.089581295637434"><ele>144.0</ele><time>2026-04-18T13:15:10.999Z</time></trkpt><trkpt lat="44.69806527009977" lon="10.089447412319656"><ele>144.71428571428572</ele><time>2026-04-18T13:15:12.999Z</time></trkpt><trkpt lat="44.69811433838836" lon="10.08938823669952"><ele>145.42857142857144</ele><time>2026-04-18T13:15:13.999Z</time></trkpt><trkpt lat="44.69819558536963" lon="10.089385366384537"><ele>146.14285714285714</ele><time>2026-04-18T13:15:14.999Z</time></trkpt><trkpt lat="44.69825757122256" lon="10.089366204028787"><ele>146.85714285714286</ele><time>2026-04-18T13:15:15.999Z</time></trkpt><trkpt lat="44.6983213005934" lon="10.0893525316854"><ele>147.57142857142856</ele><time>2026-04-18T13:15:16.999Z</time></trkpt><trkpt lat="44.69838564983357" lon="10.089345659874406"><ele>148.28571428571428</ele><time>2026-04-18T13:15:17.999Z</time></trkpt><trkpt lat="44.698453224006414" lon="10.089352247851545"><ele>149.0</ele><time>2026-04-18T13:15:18.999Z</time></trkpt><trkpt lat="44.69851827625193" lon="10.089376003275612"><ele>149.0</ele><time>2026-04-18T13:15:19.999Z</time></trkpt><trkpt lat="44.698583347535944" lon="10.089406001964614"><ele>149.0</ele><time>2026-04-18T13:15:20.999Z</time></trkpt><trkpt lat="44.698645690043136" lon="10.089451231735861"><ele>149.0</ele><time>2026-04-18T13:15:21.999Z</time></trkpt><trkpt lat="44.69870847067359" lon="10.089494250347403"><ele>149.0</ele><time>2026-04-18T13:15:22.999Z</time></trkpt><trkpt lat="44.698766349926125" lon="10.089540184325296"><ele>149.0</ele><time>2026-04-18T13:15:23.999Z</time></trkpt><trkpt lat="44.69881955146732" lon="10.089597125332226"><ele>149.0</ele><time>2026-04-18T13:15:24.999Z</time></trkpt><trkpt lat="44.69887719809862" lon="10.089655501909782"><ele>149.0</ele><time>2026-04-18T13:15:25.999Z</time></trkpt><trkpt lat="44.69893203814546" lon="10.089711153582945"><ele>149.0</ele><time>2026-04-18T13:15:26.999Z</time></trkpt><trkpt lat="44.69898776654959" lon="10.089770759244395"><ele>149.0</ele><time>2026-04-18T13:15:27.999Z</time></trkpt><trkpt lat="44.69904823496633" lon="10.089828078123665"><ele>149.0</ele><time>2026-04-18T13:15:28.999Z</time></trkpt><trkpt lat="44.69910424078904" lon="10.089893971938446"><ele>149.0</ele><time>2026-04-18T13:15:29.999Z</time></trkpt><trkpt lat="44.699161765737145" lon="10.08995072824783"><ele>149.0</ele><time>2026-04-18T13:15:30.999Z</time></trkpt><trkpt lat="44.699220973616804" lon="10.090011736983726"><ele>149.0</ele><time>2026-04-18T13:15:31.999Z</time></trkpt><trkpt lat="44.69927886178976" lon="10.090073019391477"><ele>149.0</ele><time>2026-04-18T13:15:32.999Z</time></trkpt><trkpt lat="44.69933850887465" lon="10.09013491104168"><ele>149.0</ele><time>2026-04-18T13:15:33.999Z</time></trkpt><trkpt lat="44.69939723383115" lon="10.09019519327112"><ele>149.0</ele><time>2026-04-18T13:15:34.999Z</time></trkpt><trkpt lat="44.6994574631032" lon="10.090258535850031"><ele>149.0</ele><time>2026-04-18T13:15:35.999Z</time></trkpt><trkpt lat="44.69951878586173" lon="10.09031863722563"><ele>149.0</ele><time>2026-04-18T13:15:36.999Z</time></trkpt><trkpt lat="44.69958115766668" lon="10.090378588096232"><ele>149.0</ele><time>2026-04-18T13:15:37.999Z</time></trkpt><trkpt lat="44.69964054608673" lon="10.090441526875876"><ele>149.0</ele><time>2026-04-18T13:15:38.999Z</time></trkpt><trkpt lat="44.69970018536395" lon="10.090502629193153"><ele>149.0</ele><time>2026-04-18T13:15:39.999Z</time></trkpt><trkpt lat="44.69976071869149" lon="10.090567720371917"><ele>148.83333333333331</ele><time>2026-04-18T13:15:40.999Z</time></trkpt><trkpt lat="44.69982058832163" lon="10.090630783397259"><ele>148.66666666666666</ele><time>2026-04-18T13:15:41.999Z</time></trkpt><trkpt lat="44.699880215036366" lon="10.090696810911973"><ele>148.5</ele><time>2026-04-18T13:15:42.999Z</time></trkpt><trkpt lat="44.69994372405768" lon="10.09076109090626"><ele>148.33333333333334</ele><time>2026-04-18T13:15:43.999Z</time></trkpt><trkpt lat="44.700005509321954" lon="10.090820038962358"><ele>148.16666666666669</ele><time>2026-04-18T13:15:44.999Z</time></trkpt><trkpt lat="44.7000667090934" lon="10.090882250897995"><ele>148.0</ele><time>2026-04-18T13:15:45.999Z</time></trkpt><trkpt lat="44.70012721268187" lon="10.090944415376807"><ele>148.0</ele><time>2026-04-18T13:15:46.999Z</time></trkpt><trkpt lat="44.700186553719746" lon="10.091007486889607"><ele>148.0</ele><time>2026-04-18T13:15:47.999Z</time></trkpt><trkpt lat="44.70025157312831" lon="10.091069484854975"><ele>148.0</ele><time>2026-04-18T13:15:48.999Z</time></trkpt><trkpt lat="44.700312144016124" lon="10.091128836001886"><ele>148.0</ele><time>2026-04-18T13:15:49.999Z</time></trkpt><trkpt lat="44.7003712177317" lon="10.09118742455217"><ele>148.0</ele><time>2026-04-18T13:15:50.998Z</time></trkpt><trkpt lat="44.70042969844008" lon="10.091252770428767"><ele>148.0</ele><time>2026-04-18T13:15:51.998Z</time></trkpt><trkpt lat="44.70048199674344" lon="10.091323576809925"><ele>148.0</ele><time>2026-04-18T13:15:52.998Z</time></trkpt><trkpt lat="44.70053068277736" lon="10.091402164532873"><ele>147.83333333333334</ele><time>2026-04-18T13:15:53.998Z</time></trkpt><trkpt lat="44.700599111621074" lon="10.091471766504569"><ele>147.66666666666669</ele><time>2026-04-18T13:15:54.998Z</time></trkpt><trkpt lat="44.70066055358634" lon="10.091536280767134"><ele>147.5</ele><time>2026-04-18T13:15:55.998Z</time></trkpt><trkpt lat="44.700732819463965" lon="10.091591841261897"><ele>147.33333333333334</ele><time>2026-04-18T13:15:56.998Z</time></trkpt><trkpt lat="44.70080144715747" lon="10.091645240034236"><ele>147.16666666666666</ele><time>2026-04-18T13:15:57.998Z</time></trkpt><trkpt lat="44.70087286464037" lon="10.091713630980802"><ele>147.0</ele><time>2026-04-18T13:15:58.998Z</time></trkpt><trkpt lat="44.70094257464537" lon="10.091772588808631"><ele>147.0</ele><time>2026-04-18T13:15:59.998Z</time></trkpt><trkpt lat="44.701013853775116" lon="10.091835588366422"><ele>147.0</ele><time>2026-04-18T13:16:00.998Z</time></trkpt><trkpt lat="44.70108322301334" lon="10.091903959570525"><ele>147.0</ele><time>2026-04-18T13:16:01.998Z</time></trkpt><trkpt lat="44.70115163992917" lon="10.091974067899537"><ele>147.0</ele><time>2026-04-18T13:16:02.998Z</time></trkpt><trkpt lat="44.70121911966125" lon="10.09204514600562"><ele>147.0</ele><time>2026-04-18T13:16:03.998Z</time></trkpt><trkpt lat="44.701290921466146" lon="10.092115944370656"><ele>147.0</ele><time>2026-04-18T13:16:04.998Z</time></trkpt><trkpt lat="44.701362707145194" lon="10.092186198605514"><ele>146.83333333333334</ele><time>2026-04-18T13:16:05.998Z</time></trkpt><trkpt lat="44.70143543351281" lon="10.092254727970914"><ele>146.66666666666666</ele><time>2026-04-18T13:16:06.998Z</time></trkpt><trkpt lat="44.70150662499543" lon="10.092330223517811"><ele>146.5</ele><time>2026-04-18T13:16:07.998Z</time></trkpt><trkpt lat="44.7015720330319" lon="10.092410484366065"><ele>146.33333333333331</ele><time>2026-04-18T13:16:09Z</time></trkpt><trkpt lat="44.701639435604434" lon="10.092487365180101"><ele>146.16666666666666</ele><time>2026-04-18T13:16:10Z</time></trkpt><trkpt lat="44.701699578228535" lon="10.092544182237978"><ele>146.0</ele><time>2026-04-18T13:16:11Z</time></trkpt><trkpt lat="44.70176838998249" lon="10.092606264432781"><ele>146.0</ele><time>2026-04-18T13:16:12Z</time></trkpt><trkpt lat="44.7018301882286" lon="10.092668533732802"><ele>146.0</ele><time>2026-04-18T13:16:13Z</time></trkpt><trkpt lat="44.701895648568566" lon="10.09273809739558"><ele>146.0</ele><time>2026-04-18T13:16:14Z</time></trkpt><trkpt lat="44.701959751524775" lon="10.092796274197209"><ele>146.0</ele><time>2026-04-18T13:16:15Z</time></trkpt><trkpt lat="44.702020620066506" lon="10.092852400260094"><ele>146.0</ele><time>2026-04-18T13:16:16Z</time></trkpt><trkpt lat="44.702081535559685" lon="10.092916591617726"><ele>146.0</ele><time>2026-04-18T13:16:17Z</time></trkpt><trkpt lat="44.70214270840743" lon="10.092975044462946"><ele>146.28571428571428</ele><time>2026-04-18T13:16:18Z</time></trkpt><trkpt lat="44.70220292599795" lon="10.09303834037356"><ele>146.57142857142858</ele><time>2026-04-18T13:16:19Z</time></trkpt><trkpt lat="44.70226427221833" lon="10.093101279745472"><ele>146.85714285714286</ele><time>2026-04-18T13:16:20Z</time></trkpt><trkpt lat="44.70232425248495" lon="10.093160558457994"><ele>147.14285714285714</ele><time>2026-04-18T13:16:21Z</time></trkpt><trkpt lat="44.702383134971186" lon="10.093213222241197"><ele>147.42857142857142</ele><time>2026-04-18T13:16:22Z</time></trkpt><trkpt lat="44.70244351489587" lon="10.093264086943114"><ele>147.71428571428572</ele><time>2026-04-18T13:16:23Z</time></trkpt><trkpt lat="44.70250654183145" lon="10.093342553226044"><ele>148.0</ele><time>2026-04-18T13:16:24Z</time></trkpt><trkpt lat="44.70256318373528" lon="10.093409227615696"><ele>148.0</ele><time>2026-04-18T13:16:25Z</time></trkpt><trkpt lat="44.702623289399845" lon="10.09346664778103"><ele>148.0</ele><time>2026-04-18T13:16:26Z</time></trkpt><trkpt lat="44.70268253805646" lon="10.093523926692319"><ele>148.0</ele><time>2026-04-18T13:16:27Z</time></trkpt><trkpt lat="44.70274275313479" lon="10.093586273046629"><ele>148.0</ele><time>2026-04-18T13:16:28Z</time></trkpt><trkpt lat="44.702805821564084" lon="10.09365596128962"><ele>148.0</ele><time>2026-04-18T13:16:29Z</time></trkpt><trkpt lat="44.70286471348521" lon="10.093714763164927"><ele>148.0</ele><time>2026-04-18T13:16:30Z</time></trkpt><trkpt lat="44.70292584072374" lon="10.093778918726349"><ele>148.0</ele><time>2026-04-18T13:16:31Z</time></trkpt><trkpt lat="44.70298700088049" lon="10.093843510418903"><ele>147.57142857142858</ele><time>2026-04-18T13:16:32Z</time></trkpt><trkpt lat="44.70304585145866" lon="10.09389530805769"><ele>147.14285714285714</ele><time>2026-04-18T13:16:33Z</time></trkpt><trkpt lat="44.703102775768286" lon="10.093954767397161"><ele>146.71428571428572</ele><time>2026-04-18T13:16:34Z</time></trkpt><trkpt lat="44.70316417669211" lon="10.094010820882916"><ele>146.28571428571428</ele><time>2026-04-18T13:16:35Z</time></trkpt><trkpt lat="44.70322525556264" lon="10.094062141209568"><ele>145.85714285714286</ele><time>2026-04-18T13:16:36Z</time></trkpt><trkpt lat="44.70327800148131" lon="10.09413061278514"><ele>145.42857142857144</ele><time>2026-04-18T13:16:37Z</time></trkpt><trkpt lat="44.703341420298365" lon="10.094189388760151"><ele>145.0</ele><time>2026-04-18T13:16:38Z</time></trkpt><trkpt lat="44.70340004920363" lon="10.09425398863116"><ele>145.0</ele><time>2026-04-18T13:16:39Z</time></trkpt><trkpt lat="44.70346628516103" lon="10.094314426128498"><ele>145.0</ele><time>2026-04-18T13:16:40Z</time></trkpt><trkpt lat="44.70352809990102" lon="10.09436921074791"><ele>145.0</ele><time>2026-04-18T13:16:41Z</time></trkpt><trkpt lat="44.703588449245075" lon="10.094429736190015"><ele>145.0</ele><time>2026-04-18T13:16:42Z</time></trkpt><trkpt lat="44.70364591087634" lon="10.094487178609418"><ele>145.0</ele><time>2026-04-18T13:16:43Z</time></trkpt><trkpt lat="44.70371044565435" lon="10.094546555287357"><ele>145.0</ele><time>2026-04-18T13:16:44Z</time></trkpt><trkpt lat="44.70377005680065" lon="10.094609799166355"><ele>145.0</ele><time>2026-04-18T13:16:45Z</time></trkpt><trkpt lat="44.70383346401644" lon="10.094672507055048"><ele>145.0</ele><time>2026-04-18T13:16:46Z</time></trkpt><trkpt lat="44.70389303256743" lon="10.094743497818273"><ele>145.0</ele><time>2026-04-18T13:16:47Z</time></trkpt><trkpt lat="44.70395525308365" lon="10.094810019705053"><ele>145.0</ele><time>2026-04-18T13:16:48Z</time></trkpt><trkpt lat="44.70401647106118" lon="10.094890580062778"><ele>145.0</ele><time>2026-04-18T13:16:49Z</time></trkpt><trkpt lat="44.70407758422897" lon="10.094983025504163"><ele>145.0</ele><time>2026-04-18T13:16:50Z</time></trkpt><trkpt lat="44.704133093754145" lon="10.095064789941231"><ele>145.0</ele><time>2026-04-18T13:16:51Z</time></trkpt><trkpt lat="44.704190833050525" lon="10.095151640110698"><ele>145.0</ele><time>2026-04-18T13:16:52Z</time></trkpt><trkpt lat="44.704248255954845" lon="10.0952383096411"><ele>145.0</ele><time>2026-04-18T13:16:53Z</time></trkpt><trkpt lat="44.70429710047221" lon="10.095327904239264"><ele>145.0</ele><time>2026-04-18T13:16:54Z</time></trkpt><trkpt lat="44.70435187997176" lon="10.095429834777946"><ele>145.0</ele><time>2026-04-18T13:16:55Z</time></trkpt><trkpt lat="44.704402667026514" lon="10.095520280851598"><ele>145.0</ele><time>2026-04-18T13:16:56Z</time></trkpt><trkpt lat="44.70445220262378" lon="10.095616067598256"><ele>145.0</ele><time>2026-04-18T13:16:57Z</time></trkpt><trkpt lat="44.704500131474646" lon="10.095710359215357"><ele>144.83333333333334</ele><time>2026-04-18T13:16:58Z</time></trkpt><trkpt lat="44.704545816548766" lon="10.095808303414909"><ele>144.66666666666669</ele><time>2026-04-18T13:16:59Z</time></trkpt><trkpt lat="44.70459385564926" lon="10.095905155136677"><ele>144.5</ele><time>2026-04-18T13:17:00Z</time></trkpt><trkpt lat="44.7046413928985" lon="10.096002257841738"><ele>144.33333333333334</ele><time>2026-04-18T13:17:00.999Z</time></trkpt><trkpt lat="44.70468625271226" lon="10.09610077609483"><ele>144.16666666666666</ele><time>2026-04-18T13:17:01.999Z</time></trkpt><trkpt lat="44.704733305197394" lon="10.096191797923574"><ele>144.0</ele><time>2026-04-18T13:17:02.999Z</time></trkpt><trkpt lat="44.704781891762615" lon="10.096290794171324"><ele>144.0</ele><time>2026-04-18T13:17:03.999Z</time></trkpt><trkpt lat="44.70482759345605" lon="10.096382756684653"><ele>144.0</ele><time>2026-04-18T13:17:04.999Z</time></trkpt><trkpt lat="44.7048734284762" lon="10.096480373371795"><ele>144.0</ele><time>2026-04-18T13:17:05.999Z</time></trkpt><trkpt lat="44.70492052326786" lon="10.09657396326539"><ele>144.0</ele><time>2026-04-18T13:17:06.999Z</time></trkpt><trkpt lat="44.704966553550214" lon="10.096669936397882"><ele>144.0</ele><time>2026-04-18T13:17:07.999Z</time></trkpt><trkpt lat="44.705006791151256" lon="10.096763409133217"><ele>144.0</ele><time>2026-04-18T13:17:08.999Z</time></trkpt><trkpt lat="44.70505607955684" lon="10.096861263835159"><ele>144.0</ele><time>2026-04-18T13:17:09.999Z</time></trkpt><trkpt lat="44.70509968007114" lon="10.096953318172591"><ele>144.0</ele><time>2026-04-18T13:17:10.999Z</time></trkpt><trkpt lat="44.70514607407251" lon="10.097046090321449"><ele>144.0</ele><time>2026-04-18T13:17:11.999Z</time></trkpt><trkpt lat="44.70519168293966" lon="10.09714115314729"><ele>144.0</ele><time>2026-04-18T13:17:12.999Z</time></trkpt><trkpt lat="44.705245813274054" lon="10.0972348353755"><ele>144.0</ele><time>2026-04-18T13:17:13.999Z</time></trkpt><trkpt lat="44.70528954729431" lon="10.09733453890213"><ele>144.0</ele><time>2026-04-18T13:17:14.999Z</time></trkpt><trkpt lat="44.705335396814746" lon="10.09743153731146"><ele>144.0</ele><time>2026-04-18T13:17:15.999Z</time></trkpt><trkpt lat="44.70538367586765" lon="10.097531653646868"><ele>144.0</ele><time>2026-04-18T13:17:16.999Z</time></trkpt><trkpt lat="44.70542733352282" lon="10.097631849423555"><ele>144.0</ele><time>2026-04-18T13:17:17.999Z</time></trkpt><trkpt lat="44.70548078976069" lon="10.09772481532788"><ele>144.0</ele><time>2026-04-18T13:17:18.999Z</time></trkpt><trkpt lat="44.70552949132567" lon="10.097824144840027"><ele>144.0</ele><time>2026-04-18T13:17:19.999Z</time></trkpt><trkpt lat="44.705577761275514" lon="10.097921018240791"><ele>144.0</ele><time>2026-04-18T13:17:20.999Z</time></trkpt><trkpt lat="44.70563702141246" lon="10.098011634844028"><ele>144.0</ele><time>2026-04-18T13:17:21.999Z</time></trkpt><trkpt lat="44.705693255228205" lon="10.09809699620128"><ele>144.0</ele><time>2026-04-18T13:17:22.999Z</time></trkpt><trkpt lat="44.705756432721834" lon="10.0981778758946"><ele>144.0</ele><time>2026-04-18T13:17:23.999Z</time></trkpt><trkpt lat="44.70582869250782" lon="10.098245551091736"><ele>144.0</ele><time>2026-04-18T13:17:24.999Z</time></trkpt><trkpt lat="44.705897894989064" lon="10.098312201073721"><ele>144.0</ele><time>2026-04-18T13:17:25.999Z</time></trkpt><trkpt lat="44.70597508164147" lon="10.098375398987425"><ele>144.0</ele><time>2026-04-18T13:17:26.999Z</time></trkpt><trkpt lat="44.70605553491119" lon="10.098430416585352"><ele>144.16666666666666</ele><time>2026-04-18T13:17:27.999Z</time></trkpt><trkpt lat="44.70613217494488" lon="10.098484140935945"><ele>144.33333333333334</ele><time>2026-04-18T13:17:28.999Z</time></trkpt><trkpt lat="44.70621296199438" lon="10.098538851040372"><ele>144.5</ele><time>2026-04-18T13:17:29.999Z</time></trkpt><trkpt lat="44.706290661557134" lon="10.098591654518254"><ele>144.66666666666669</ele><time>2026-04-18T13:17:30.999Z</time></trkpt><trkpt lat="44.70637059209711" lon="10.098642027243468"><ele>144.83333333333334</ele><time>2026-04-18T13:17:31.999Z</time></trkpt><trkpt lat="44.706448554103034" lon="10.098689688385019"><ele>145.0</ele><time>2026-04-18T13:17:32.999Z</time></trkpt><trkpt lat="44.70652415006025" lon="10.098740044018674"><ele>145.0</ele><time>2026-04-18T13:17:33.999Z</time></trkpt><trkpt lat="44.70659764095173" lon="10.098791328287689"><ele>145.0</ele><time>2026-04-18T13:17:34.999Z</time></trkpt><trkpt lat="44.70667446017611" lon="10.09884524650112"><ele>145.0</ele><time>2026-04-18T13:17:35.999Z</time></trkpt><trkpt lat="44.706749319115715" lon="10.09889916404479"><ele>145.0</ele><time>2026-04-18T13:17:36.999Z</time></trkpt><trkpt lat="44.70681937416496" lon="10.098954103762543"><ele>145.0</ele><time>2026-04-18T13:17:37.999Z</time></trkpt><trkpt lat="44.70689283102248" lon="10.099007402945892"><ele>145.0</ele><time>2026-04-18T13:17:38.999Z</time></trkpt><trkpt lat="44.70697123845723" lon="10.099056900465538"><ele>144.83333333333334</ele><time>2026-04-18T13:17:39.999Z</time></trkpt><trkpt lat="44.70704168544782" lon="10.09911780932152"><ele>144.66666666666669</ele><time>2026-04-18T13:17:40.999Z</time></trkpt><trkpt lat="44.70710919530601" lon="10.099183605479565"><ele>144.5</ele><time>2026-04-18T13:17:41.999Z</time></trkpt><trkpt lat="44.70717640414668" lon="10.099254606228527"><ele>144.33333333333334</ele><time>2026-04-18T13:17:42.999Z</time></trkpt><trkpt lat="44.7072418310618" lon="10.099332885443005"><ele>144.16666666666666</ele><time>2026-04-18T13:17:43.999Z</time></trkpt><trkpt lat="44.707305579001314" lon="10.099419412694475"><ele>144.0</ele><time>2026-04-18T13:17:44.999Z</time></trkpt><trkpt lat="44.70736947053312" lon="10.099503045849424"><ele>144.0</ele><time>2026-04-18T13:17:45.999Z</time></trkpt><trkpt lat="44.707432704631" lon="10.09959108347581"><ele>144.0</ele><time>2026-04-18T13:17:46.999Z</time></trkpt><trkpt lat="44.70749826420471" lon="10.09967646857834"><ele>144.0</ele><time>2026-04-18T13:17:47.999Z</time></trkpt><trkpt lat="44.707564056590286" lon="10.099766624528554"><ele>144.0</ele><time>2026-04-18T13:17:48.999Z</time></trkpt><trkpt lat="44.707632998880904" lon="10.099855267050136"><ele>144.0</ele><time>2026-04-18T13:17:49.999Z</time></trkpt><trkpt lat="44.707701912019694" lon="10.099946455481374"><ele>143.0</ele><time>2026-04-18T13:17:50.999Z</time></trkpt><trkpt lat="44.707772758137644" lon="10.100040127489697"><ele>142.0</ele><time>2026-04-18T13:17:51.999Z</time></trkpt><trkpt lat="44.7078443925928" lon="10.100134771587578"><ele>141.0</ele><time>2026-04-18T13:17:52.999Z</time></trkpt><trkpt lat="44.70791626945959" lon="10.100228552905811"><ele>140.0</ele><time>2026-04-18T13:17:53.999Z</time></trkpt><trkpt lat="44.707988859593705" lon="10.100323726740879"><ele>139.0</ele><time>2026-04-18T13:17:54.998Z</time></trkpt><trkpt lat="44.708060331985926" lon="10.100415619599643"><ele>139.0</ele><time>2026-04-18T13:17:55.998Z</time></trkpt><trkpt lat="44.70812967007931" lon="10.100508939821294"><ele>139.0</ele><time>2026-04-18T13:17:56.998Z</time></trkpt><trkpt lat="44.70819852828883" lon="10.100601207417927"><ele>139.0</ele><time>2026-04-18T13:17:57.998Z</time></trkpt><trkpt lat="44.70826991328788" lon="10.100692755952851"><ele>139.0</ele><time>2026-04-18T13:17:58.998Z</time></trkpt><trkpt lat="44.708341559786795" lon="10.100785228495953"><ele>139.0</ele><time>2026-04-18T13:17:59.998Z</time></trkpt><trkpt lat="44.70841391682957" lon="10.100874237338337"><ele>138.4</ele><time>2026-04-18T13:18:00.998Z</time></trkpt><trkpt lat="44.70849166502024" lon="10.100951455134654"><ele>137.8</ele><time>2026-04-18T13:18:01.998Z</time></trkpt><trkpt lat="44.70857547076237" lon="10.101015736593475"><ele>137.2</ele><time>2026-04-18T13:18:02.998Z</time></trkpt><trkpt lat="44.70866810991778" lon="10.10105585487822"><ele>136.6</ele><time>2026-04-18T13:18:03.998Z</time></trkpt><trkpt lat="44.708763822757874" lon="10.101063946014062"><ele>136.0</ele><time>2026-04-18T13:18:04.998Z</time></trkpt><trkpt lat="44.70885539302364" lon="10.101067522528693"><ele>135.66666666666669</ele><time>2026-04-18T13:18:05.998Z</time></trkpt><trkpt lat="44.708947294175985" lon="10.101058363286125"><ele>135.33333333333334</ele><time>2026-04-18T13:18:06.998Z</time></trkpt><trkpt lat="44.70903685953475" lon="10.101059257193466"><ele>135.0</ele><time>2026-04-18T13:18:07.998Z</time></trkpt><trkpt lat="44.70912664882123" lon="10.1010616697624"><ele>134.66666666666666</ele><time>2026-04-18T13:18:08.998Z</time></trkpt><trkpt lat="44.709213934764925" lon="10.101065113492146"><ele>134.33333333333331</ele><time>2026-04-18T13:18:09.998Z</time></trkpt><trkpt lat="44.70929928567768" lon="10.101071558568945"><ele>134.0</ele><time>2026-04-18T13:18:10.998Z</time></trkpt><trkpt lat="44.709386842595706" lon="10.101070931231085"><ele>134.16666666666666</ele><time>2026-04-18T13:18:11.998Z</time></trkpt><trkpt lat="44.70947091961252" lon="10.101062485623903"><ele>134.33333333333331</ele><time>2026-04-18T13:18:12.998Z</time></trkpt><trkpt lat="44.70955436516109" lon="10.101058544036777"><ele>134.5</ele><time>2026-04-18T13:18:14Z</time></trkpt><trkpt lat="44.70963653907199" lon="10.101061740430023"><ele>134.66666666666666</ele><time>2026-04-18T13:18:15Z</time></trkpt><trkpt lat="44.70971841085259" lon="10.10106151183454"><ele>134.83333333333334</ele><time>2026-04-18T13:18:16Z</time></trkpt><trkpt lat="44.70980093298719" lon="10.101062489766631"><ele>135.0</ele><time>2026-04-18T13:18:17Z</time></trkpt><trkpt lat="44.709881691627345" lon="10.101059392054431"><ele>135.0</ele><time>2026-04-18T13:18:18Z</time></trkpt><trkpt lat="44.709963284196085" lon="10.101061396943129"><ele>135.0</ele><time>2026-04-18T13:18:19Z</time></trkpt><trkpt lat="44.710045735155596" lon="10.101061604992474"><ele>135.0</ele><time>2026-04-18T13:18:20Z</time></trkpt><trkpt lat="44.71012600931427" lon="10.10106043336474"><ele>135.0</ele><time>2026-04-18T13:18:21Z</time></trkpt><trkpt lat="44.710209023052265" lon="10.101060353398198"><ele>135.0</ele><time>2026-04-18T13:18:22Z</time></trkpt><trkpt lat="44.71028780620053" lon="10.101060924044354"><ele>135.0</ele><time>2026-04-18T13:18:23Z</time></trkpt><trkpt lat="44.71036825598617" lon="10.101058135809735"><ele>135.33333333333334</ele><time>2026-04-18T13:18:24Z</time></trkpt><trkpt lat="44.71044686211502" lon="10.101053950126904"><ele>135.66666666666666</ele><time>2026-04-18T13:18:25Z</time></trkpt><trkpt lat="44.710526330948724" lon="10.10104880428945"><ele>136.0</ele><time>2026-04-18T13:18:26Z</time></trkpt><trkpt lat="44.710605503803635" lon="10.101053543152709"><ele>136.33333333333331</ele><time>2026-04-18T13:18:27Z</time></trkpt><trkpt lat="44.71068183860596" lon="10.10105656781936"><ele>136.66666666666666</ele><time>2026-04-18T13:18:28Z</time></trkpt><trkpt lat="44.71075879908772" lon="10.101059291145074"><ele>137.0</ele><time>2026-04-18T13:18:29Z</time></trkpt><trkpt lat="44.710835614341384" lon="10.101066387130382"><ele>137.0</ele><time>2026-04-18T13:18:30Z</time></trkpt><trkpt lat="44.710911613170374" lon="10.101075996232987"><ele>137.0</ele><time>2026-04-18T13:18:31Z</time></trkpt><trkpt lat="44.71098671467636" lon="10.101092660282625"><ele>137.0</ele><time>2026-04-18T13:18:32Z</time></trkpt><trkpt lat="44.711059358695096" lon="10.101112908057274"><ele>137.0</ele><time>2026-04-18T13:18:33Z</time></trkpt><trkpt lat="44.711132864315026" lon="10.101140801783728"><ele>137.0</ele><time>2026-04-18T13:18:34Z</time></trkpt><trkpt lat="44.71120220210003" lon="10.101184533002268"><ele>137.0</ele><time>2026-04-18T13:18:35Z</time></trkpt><trkpt lat="44.711271592321545" lon="10.101213193873301"><ele>137.5</ele><time>2026-04-18T13:18:36Z</time></trkpt><trkpt lat="44.711340938138235" lon="10.101257470317515"><ele>138.0</ele><time>2026-04-18T13:18:37Z</time></trkpt><trkpt lat="44.711408671079134" lon="10.101299768587847"><ele>138.5</ele><time>2026-04-18T13:18:38Z</time></trkpt><trkpt lat="44.71147737297419" lon="10.101349326901598"><ele>139.0</ele><time>2026-04-18T13:18:39Z</time></trkpt><trkpt lat="44.71154181839385" lon="10.1014008944619"><ele>139.5</ele><time>2026-04-18T13:18:40Z</time></trkpt><trkpt lat="44.7116101509552" lon="10.101451529619261"><ele>140.0</ele><time>2026-04-18T13:18:41Z</time></trkpt><trkpt lat="44.711678504734984" lon="10.10149487040218"><ele>140.0</ele><time>2026-04-18T13:18:42Z</time></trkpt><trkpt lat="44.71174814658222" lon="10.101550178508106"><ele>140.0</ele><time>2026-04-18T13:18:43Z</time></trkpt><trkpt lat="44.71181986725312" lon="10.101600039499317"><ele>140.0</ele><time>2026-04-18T13:18:44Z</time></trkpt><trkpt lat="44.71188653170285" lon="10.101646382844619"><ele>140.0</ele><time>2026-04-18T13:18:45Z</time></trkpt><trkpt lat="44.71195754854769" lon="10.101697083027162"><ele>140.0</ele><time>2026-04-18T13:18:46Z</time></trkpt><trkpt lat="44.712033154318284" lon="10.101749554406531"><ele>140.0</ele><time>2026-04-18T13:18:47Z</time></trkpt><trkpt lat="44.71210458454417" lon="10.101802568277973"><ele>139.66666666666666</ele><time>2026-04-18T13:18:48Z</time></trkpt><trkpt lat="44.71217883554269" lon="10.101859714168848"><ele>139.33333333333331</ele><time>2026-04-18T13:18:49Z</time></trkpt><trkpt lat="44.71224836104927" lon="10.101914959615918"><ele>139.0</ele><time>2026-04-18T13:18:50Z</time></trkpt><trkpt lat="44.71231880039486" lon="10.101972317958385"><ele>138.66666666666666</ele><time>2026-04-18T13:18:51Z</time></trkpt><trkpt lat="44.71239203593801" lon="10.102023786638306"><ele>138.33333333333334</ele><time>2026-04-18T13:18:52Z</time></trkpt><trkpt lat="44.712463809200116" lon="10.102078611448393"><ele>138.0</ele><time>2026-04-18T13:18:53Z</time></trkpt><trkpt lat="44.71253584356022" lon="10.10213131249089"><ele>138.0</ele><time>2026-04-18T13:18:54Z</time></trkpt><trkpt lat="44.71260527097176" lon="10.10219077985517"><ele>138.0</ele><time>2026-04-18T13:18:55Z</time></trkpt><trkpt lat="44.71267757144064" lon="10.102244895256911"><ele>138.0</ele><time>2026-04-18T13:18:56Z</time></trkpt><trkpt lat="44.712749925139526" lon="10.102297209199035"><ele>138.0</ele><time>2026-04-18T13:18:57Z</time></trkpt><trkpt lat="44.712823212716565" lon="10.102352767258068"><ele>138.0</ele><time>2026-04-18T13:18:58Z</time></trkpt><trkpt lat="44.7128951998666" lon="10.102406412640839"><ele>138.0</ele><time>2026-04-18T13:18:59Z</time></trkpt><trkpt lat="44.712966113197375" lon="10.102458938761872"><ele>137.66666666666666</ele><time>2026-04-18T13:19:00Z</time></trkpt><trkpt lat="44.71303755346112" lon="10.102511523318935"><ele>137.33333333333334</ele><time>2026-04-18T13:19:01Z</time></trkpt><trkpt lat="44.71310863834934" lon="10.102569897215854"><ele>137.0</ele><time>2026-04-18T13:19:02Z</time></trkpt><trkpt lat="44.71318152757075" lon="10.102618980281035"><ele>136.66666666666669</ele><time>2026-04-18T13:19:02.999Z</time></trkpt><trkpt lat="44.71325177905947" lon="10.102677289208422"><ele>136.33333333333334</ele><time>2026-04-18T13:19:03.999Z</time></trkpt><trkpt lat="44.7133218497294" lon="10.102727113793769"><ele>136.0</ele><time>2026-04-18T13:19:04.999Z</time></trkpt><trkpt lat="44.71339463108656" lon="10.10278404990499"><ele>136.0</ele><time>2026-04-18T13:19:05.999Z</time></trkpt><trkpt lat="44.71346239210173" lon="10.102840846186611"><ele>136.0</ele><time>2026-04-18T13:19:06.999Z</time></trkpt><trkpt lat="44.713532961470655" lon="10.102896402009813"><ele>136.0</ele><time>2026-04-18T13:19:07.999Z</time></trkpt><trkpt lat="44.71360429162238" lon="10.102952304985276"><ele>136.0</ele><time>2026-04-18T13:19:08.999Z</time></trkpt><trkpt lat="44.713671369280114" lon="10.103012986025046"><ele>136.0</ele><time>2026-04-18T13:19:09.999Z</time></trkpt><trkpt lat="44.71374184699597" lon="10.10306820198681"><ele>136.0</ele><time>2026-04-18T13:19:10.999Z</time></trkpt><trkpt lat="44.713813317969596" lon="10.103117141310305"><ele>136.0</ele><time>2026-04-18T13:19:11.999Z</time></trkpt><trkpt lat="44.71388392878062" lon="10.103172814447811"><ele>136.0</ele><time>2026-04-18T13:19:12.999Z</time></trkpt><trkpt lat="44.713956695624496" lon="10.103228457569966"><ele>136.0</ele><time>2026-04-18T13:19:13.999Z</time></trkpt><trkpt lat="44.71402477777159" lon="10.103283529567552"><ele>136.0</ele><time>2026-04-18T13:19:14.999Z</time></trkpt><trkpt lat="44.714095268508764" lon="10.103337485044113"><ele>136.0</ele><time>2026-04-18T13:19:15.999Z</time></trkpt><trkpt lat="44.714164942310425" lon="10.103391768664807"><ele>136.0</ele><time>2026-04-18T13:19:16.999Z</time></trkpt><trkpt lat="44.71423807522253" lon="10.103443077091132"><ele>136.0</ele><time>2026-04-18T13:19:17.999Z</time></trkpt><trkpt lat="44.714311902364194" lon="10.103495902435862"><ele>136.0</ele><time>2026-04-18T13:19:18.999Z</time></trkpt><trkpt lat="44.71438805155532" lon="10.103548400897733"><ele>136.0</ele><time>2026-04-18T13:19:19.999Z</time></trkpt><trkpt lat="44.71445891673721" lon="10.103603513945263"><ele>136.0</ele><time>2026-04-18T13:19:20.999Z</time></trkpt><trkpt lat="44.71453190249481" lon="10.10366026094202"><ele>136.0</ele><time>2026-04-18T13:19:21.999Z</time></trkpt><trkpt lat="44.71460765432252" lon="10.103714951335164"><ele>136.0</ele><time>2026-04-18T13:19:22.999Z</time></trkpt><trkpt lat="44.714682174530076" lon="10.103768546712178"><ele>136.16666666666669</ele><time>2026-04-18T13:19:23.999Z</time></trkpt><trkpt lat="44.714756488520194" lon="10.103825639624722"><ele>136.33333333333334</ele><time>2026-04-18T13:19:24.999Z</time></trkpt><trkpt lat="44.7148301916591" lon="10.103883758803208"><ele>136.5</ele><time>2026-04-18T13:19:25.999Z</time></trkpt><trkpt lat="44.71490868330658" lon="10.103943053495831"><ele>136.66666666666666</ele><time>2026-04-18T13:19:26.999Z</time></trkpt><trkpt lat="44.714983627052646" lon="10.103999584171687"><ele>136.83333333333331</ele><time>2026-04-18T13:19:27.999Z</time></trkpt><trkpt lat="44.7150615870063" lon="10.104057176921854"><ele>137.0</ele><time>2026-04-18T13:19:28.999Z</time></trkpt><trkpt lat="44.71513698735922" lon="10.104115322927473"><ele>137.0</ele><time>2026-04-18T13:19:29.999Z</time></trkpt><trkpt lat="44.715210435088" lon="10.104176358050138"><ele>137.0</ele><time>2026-04-18T13:19:30.999Z</time></trkpt><trkpt lat="44.715290178303505" lon="10.10423862404361"><ele>137.0</ele><time>2026-04-18T13:19:31.999Z</time></trkpt><trkpt lat="44.71536977206632" lon="10.104297691771302"><ele>137.0</ele><time>2026-04-18T13:19:32.999Z</time></trkpt><trkpt lat="44.7154465328627" lon="10.104356940935439"><ele>137.0</ele><time>2026-04-18T13:19:33.999Z</time></trkpt><trkpt lat="44.715523185214636" lon="10.104414636357399"><ele>137.0</ele><time>2026-04-18T13:19:34.999Z</time></trkpt><trkpt lat="44.715600814478655" lon="10.10447316353262"><ele>137.0</ele><time>2026-04-18T13:19:35.999Z</time></trkpt><trkpt lat="44.715680317057874" lon="10.104529869847761"><ele>137.0</ele><time>2026-04-18T13:19:36.999Z</time></trkpt><trkpt lat="44.715759054434116" lon="10.104589445204107"><ele>137.0</ele><time>2026-04-18T13:19:37.999Z</time></trkpt><trkpt lat="44.715839899181546" lon="10.104649795780164"><ele>137.0</ele><time>2026-04-18T13:19:38.999Z</time></trkpt><trkpt lat="44.715919309302464" lon="10.104706640227294"><ele>137.0</ele><time>2026-04-18T13:19:39.999Z</time></trkpt><trkpt lat="44.71599749585842" lon="10.104758073599143"><ele>137.0</ele><time>2026-04-18T13:19:40.999Z</time></trkpt><trkpt lat="44.7160763491713" lon="10.10480186426799"><ele>137.4</ele><time>2026-04-18T13:19:41.999Z</time></trkpt><trkpt lat="44.71615499087863" lon="10.10483986169471"><ele>137.79999999999998</ele><time>2026-04-18T13:19:42.999Z</time></trkpt><trkpt lat="44.71623529657087" lon="10.10487493258718"><ele>138.2</ele><time>2026-04-18T13:19:43.999Z</time></trkpt><trkpt lat="44.716339331830646" lon="10.104900357061823"><ele>138.6</ele><time>2026-04-18T13:19:44.999Z</time></trkpt><trkpt lat="44.716443330185726" lon="10.104930622653919"><ele>139.0</ele><time>2026-04-18T13:19:45.999Z</time></trkpt><trkpt lat="44.716536083834136" lon="10.104950297639677"><ele>137.8</ele><time>2026-04-18T13:19:46.999Z</time></trkpt><trkpt lat="44.71662834398447" lon="10.1049689669406"><ele>136.60000000000002</ele><time>2026-04-18T13:19:47.999Z</time></trkpt><trkpt lat="44.71672461034705" lon="10.104981770689568"><ele>135.4</ele><time>2026-04-18T13:19:48.999Z</time></trkpt><trkpt lat="44.716824071244034" lon="10.104987523326256"><ele>134.20000000000002</ele><time>2026-04-18T13:19:49.999Z</time></trkpt><trkpt lat="44.71691278645442" lon="10.104992922524172"><ele>133.0</ele><time>2026-04-18T13:19:50.999Z</time></trkpt><trkpt lat="44.71700518149907" lon="10.104991139444186"><ele>133.0</ele><time>2026-04-18T13:19:51.999Z</time></trkpt><trkpt lat="44.71710989619686" lon="10.104989201866683"><ele>133.0</ele><time>2026-04-18T13:19:52.999Z</time></trkpt><trkpt lat="44.717216627222484" lon="10.10498854172751"><ele>133.0</ele><time>2026-04-18T13:19:53.999Z</time></trkpt><trkpt lat="44.71732774568472" lon="10.104985897421152"><ele>133.0</ele><time>2026-04-18T13:19:54.999Z</time></trkpt><trkpt lat="44.717447026635476" lon="10.104980116350216"><ele>133.0</ele><time>2026-04-18T13:19:55.999Z</time></trkpt><trkpt lat="44.71755845071191" lon="10.105025398430756"><ele>133.0</ele><time>2026-04-18T13:19:56.998Z</time></trkpt><trkpt lat="44.717675177796984" lon="10.10506956734072"><ele>133.0</ele><time>2026-04-18T13:19:57.998Z</time></trkpt><trkpt lat="44.71778524306698" lon="10.105135056754783"><ele>133.0</ele><time>2026-04-18T13:19:58.998Z</time></trkpt><trkpt lat="44.71790766980056" lon="10.105224842733262"><ele>133.0</ele><time>2026-04-18T13:20:01.998Z</time></trkpt><trkpt lat="44.71798662946741" lon="10.10527349222846"><ele>133.5</ele><time>2026-04-18T13:20:02.998Z</time></trkpt><trkpt lat="44.71806725525192" lon="10.10532733984095"><ele>134.0</ele><time>2026-04-18T13:20:03.998Z</time></trkpt><trkpt lat="44.718144795385626" lon="10.105386563615838"><ele>134.5</ele><time>2026-04-18T13:20:04.998Z</time></trkpt><trkpt lat="44.71822405998967" lon="10.105446819989453"><ele>135.0</ele><time>2026-04-18T13:20:05.998Z</time></trkpt><trkpt lat="44.71830665455462" lon="10.10549967231121"><ele>135.5</ele><time>2026-04-18T13:20:06.998Z</time></trkpt><trkpt lat="44.71837822798468" lon="10.105556811293008"><ele>136.0</ele><time>2026-04-18T13:20:07.998Z</time></trkpt><trkpt lat="44.718455221436855" lon="10.105621328430571"><ele>136.0</ele><time>2026-04-18T13:20:08.998Z</time></trkpt><trkpt lat="44.71853122826822" lon="10.10568012192041"><ele>136.0</ele><time>2026-04-18T13:20:09.998Z</time></trkpt><trkpt lat="44.71860752437546" lon="10.105738708566424"><ele>136.0</ele><time>2026-04-18T13:20:10.998Z</time></trkpt><trkpt lat="44.71868211110563" lon="10.105800130936036"><ele>136.0</ele><time>2026-04-18T13:20:11.998Z</time></trkpt><trkpt lat="44.71876096385861" lon="10.105861873592874"><ele>136.0</ele><time>2026-04-18T13:20:12.998Z</time></trkpt><trkpt lat="44.718835607322305" lon="10.10591879643569"><ele>136.0</ele><time>2026-04-18T13:20:13.998Z</time></trkpt><trkpt lat="44.71890855818509" lon="10.10597513912506"><ele>135.33333333333334</ele><time>2026-04-18T13:20:14.998Z</time></trkpt><trkpt lat="44.718981923137676" lon="10.106027849822514"><ele>134.66666666666669</ele><time>2026-04-18T13:20:15.998Z</time></trkpt><trkpt lat="44.71905958456133" lon="10.106085897110988"><ele>134.0</ele><time>2026-04-18T13:20:16.998Z</time></trkpt><trkpt lat="44.719133301510595" lon="10.106145875780792"><ele>133.33333333333334</ele><time>2026-04-18T13:20:17.998Z</time></trkpt><trkpt lat="44.71920515221908" lon="10.106198925624447"><ele>132.66666666666666</ele><time>2026-04-18T13:20:18.998Z</time></trkpt><trkpt lat="44.719276010013246" lon="10.106258643802278"><ele>132.0</ele><time>2026-04-18T13:20:20Z</time></trkpt><trkpt lat="44.719347598122894" lon="10.106325796003182"><ele>131.83333333333334</ele><time>2026-04-18T13:20:21Z</time></trkpt><trkpt lat="44.7194240216973" lon="10.106396556664711"><ele>131.66666666666666</ele><time>2026-04-18T13:20:22Z</time></trkpt><trkpt lat="44.719495104269335" lon="10.106464796174695"><ele>131.5</ele><time>2026-04-18T13:20:23Z</time></trkpt><trkpt lat="44.719565931926525" lon="10.106536133992197"><ele>131.33333333333331</ele><time>2026-04-18T13:20:24Z</time></trkpt><trkpt lat="44.71963467557476" lon="10.10660674883381"><ele>131.16666666666666</ele><time>2026-04-18T13:20:25Z</time></trkpt><trkpt lat="44.719703009496136" lon="10.106680307687785"><ele>131.0</ele><time>2026-04-18T13:20:26Z</time></trkpt><trkpt lat="44.71976634237708" lon="10.106759012890205"><ele>131.0</ele><time>2026-04-18T13:20:27Z</time></trkpt><trkpt lat="44.719832445155205" lon="10.106836581471292"><ele>131.0</ele><time>2026-04-18T13:20:28Z</time></trkpt><trkpt lat="44.7198986874799" lon="10.106911618602735"><ele>131.0</ele><time>2026-04-18T13:20:29Z</time></trkpt><trkpt lat="44.71995918829053" lon="10.106992912318626"><ele>131.0</ele><time>2026-04-18T13:20:30Z</time></trkpt><trkpt lat="44.72002501938534" lon="10.107073497617602"><ele>131.0</ele><time>2026-04-18T13:20:31Z</time></trkpt><trkpt lat="44.72008572241205" lon="10.107162763046642"><ele>131.0</ele><time>2026-04-18T13:20:32Z</time></trkpt><trkpt lat="44.72014921738322" lon="10.107242974600618"><ele>131.0</ele><time>2026-04-18T13:20:33Z</time></trkpt><trkpt lat="44.72021178355804" lon="10.107322193884972"><ele>131.0</ele><time>2026-04-18T13:20:34Z</time></trkpt><trkpt lat="44.72027516011333" lon="10.107404559648685"><ele>131.0</ele><time>2026-04-18T13:20:35Z</time></trkpt><trkpt lat="44.72033636770977" lon="10.10748676574651"><ele>131.0</ele><time>2026-04-18T13:20:36Z</time></trkpt><trkpt lat="44.72040164245019" lon="10.107564257965894"><ele>131.0</ele><time>2026-04-18T13:20:37Z</time></trkpt><trkpt lat="44.7204633664645" lon="10.10765006319395"><ele>131.0</ele><time>2026-04-18T13:20:38Z</time></trkpt><trkpt lat="44.720524997833635" lon="10.107732936490976"><ele>131.0</ele><time>2026-04-18T13:20:39Z</time></trkpt><trkpt lat="44.72058648012382" lon="10.107816103911995"><ele>131.0</ele><time>2026-04-18T13:20:40Z</time></trkpt><trkpt lat="44.720647892080514" lon="10.107898972349536"><ele>131.0</ele><time>2026-04-18T13:20:41Z</time></trkpt><trkpt lat="44.72071231666631" lon="10.107981991671362"><ele>131.0</ele><time>2026-04-18T13:20:42Z</time></trkpt><trkpt lat="44.72077697022341" lon="10.108059963311051"><ele>131.0</ele><time>2026-04-18T13:20:43Z</time></trkpt><trkpt lat="44.72084076784123" lon="10.108139755776252"><ele>131.0</ele><time>2026-04-18T13:20:44Z</time></trkpt><trkpt lat="44.720904615471056" lon="10.108220042710885"><ele>131.0</ele><time>2026-04-18T13:20:45Z</time></trkpt><trkpt lat="44.72097151125016" lon="10.108294177978784"><ele>131.0</ele><time>2026-04-18T13:20:46Z</time></trkpt><trkpt lat="44.721044221610995" lon="10.10836324174039"><ele>131.0</ele><time>2026-04-18T13:20:47Z</time></trkpt><trkpt lat="44.7211201499219" lon="10.108432216083635"><ele>131.0</ele><time>2026-04-18T13:20:48Z</time></trkpt><trkpt lat="44.72118734999953" lon="10.108496817384795"><ele>131.0</ele><time>2026-04-18T13:20:49Z</time></trkpt><trkpt lat="44.7212545064188" lon="10.108559163959072"><ele>131.0</ele><time>2026-04-18T13:20:50Z</time></trkpt><trkpt lat="44.72132668230019" lon="10.108617070451485"><ele>131.0</ele><time>2026-04-18T13:20:51Z</time></trkpt><trkpt lat="44.721403953473185" lon="10.108674654634289"><ele>131.0</ele><time>2026-04-18T13:20:52Z</time></trkpt><trkpt lat="44.72147636380214" lon="10.10872944430224"><ele>131.0</ele><time>2026-04-18T13:20:53Z</time></trkpt><trkpt lat="44.721548725004055" lon="10.108782465069782"><ele>131.0</ele><time>2026-04-18T13:20:54Z</time></trkpt><trkpt lat="44.72162076980023" lon="10.108839165572661"><ele>131.0</ele><time>2026-04-18T13:20:55Z</time></trkpt><trkpt lat="44.72169054134817" lon="10.108895413693487"><ele>131.0</ele><time>2026-04-18T13:20:56Z</time></trkpt><trkpt lat="44.72175944690248" lon="10.108954105641162"><ele>131.0</ele><time>2026-04-18T13:20:57Z</time></trkpt><trkpt lat="44.721831609541084" lon="10.109012155907815"><ele>131.0</ele><time>2026-04-18T13:20:58Z</time></trkpt><trkpt lat="44.7219017447245" lon="10.109059974057896"><ele>131.0</ele><time>2026-04-18T13:20:59Z</time></trkpt><trkpt lat="44.72196814897613" lon="10.109116684011806"><ele>131.0</ele><time>2026-04-18T13:21:00Z</time></trkpt><trkpt lat="44.7220343341696" lon="10.109174646538754"><ele>131.0</ele><time>2026-04-18T13:21:01Z</time></trkpt><trkpt lat="44.72210203359336" lon="10.109230767609592"><ele>131.0</ele><time>2026-04-18T13:21:02Z</time></trkpt><trkpt lat="44.72217000373029" lon="10.109287974220209"><ele>131.0</ele><time>2026-04-18T13:21:03Z</time></trkpt><trkpt lat="44.72223878203872" lon="10.109338329718293"><ele>131.0</ele><time>2026-04-18T13:21:04Z</time></trkpt><trkpt lat="44.72230630895026" lon="10.109392235312962"><ele>131.0</ele><time>2026-04-18T13:21:05Z</time></trkpt><trkpt lat="44.722375772338246" lon="10.109444111254872"><ele>131.0</ele><time>2026-04-18T13:21:06Z</time></trkpt><trkpt lat="44.72244081479647" lon="10.1094999250766"><ele>131.0</ele><time>2026-04-18T13:21:07Z</time></trkpt><trkpt lat="44.72250602608701" lon="10.109553149265732"><ele>131.0</ele><time>2026-04-18T13:21:07.999Z</time></trkpt><trkpt lat="44.722573061037764" lon="10.109600755908682"><ele>131.0</ele><time>2026-04-18T13:21:08.999Z</time></trkpt><trkpt lat="44.72263638059838" lon="10.109649971364407"><ele>131.0</ele><time>2026-04-18T13:21:09.999Z</time></trkpt><trkpt lat="44.722697071595206" lon="10.10969760800467"><ele>131.0</ele><time>2026-04-18T13:21:10.999Z</time></trkpt><trkpt lat="44.72276059896831" lon="10.1097494173348"><ele>131.0</ele><time>2026-04-18T13:21:11.999Z</time></trkpt><trkpt lat="44.722820427440325" lon="10.109802292051373"><ele>131.0</ele><time>2026-04-18T13:21:12.999Z</time></trkpt><trkpt lat="44.72288551966121" lon="10.109850019393884"><ele>131.0</ele><time>2026-04-18T13:21:13.999Z</time></trkpt><trkpt lat="44.7229449708919" lon="10.10989807426609"><ele>131.0</ele><time>2026-04-18T13:21:14.999Z</time></trkpt><trkpt lat="44.72300701633123" lon="10.109951994497225"><ele>131.14285714285714</ele><time>2026-04-18T13:21:15.999Z</time></trkpt><trkpt lat="44.7230682079744" lon="10.109998017382694"><ele>131.2857142857143</ele><time>2026-04-18T13:21:16.999Z</time></trkpt><trkpt lat="44.723129817375224" lon="10.110045052526791"><ele>131.42857142857144</ele><time>2026-04-18T13:21:17.999Z</time></trkpt><trkpt lat="44.723189816675806" lon="10.110093924421367"><ele>131.57142857142858</ele><time>2026-04-18T13:21:18.999Z</time></trkpt><trkpt lat="44.72325366560362" lon="10.110141154312458"><ele>131.71428571428572</ele><time>2026-04-18T13:21:19.999Z</time></trkpt><trkpt lat="44.723313142289875" lon="10.110189194305056"><ele>131.85714285714286</ele><time>2026-04-18T13:21:20.999Z</time></trkpt><trkpt lat="44.723377491111265" lon="10.110239963573102"><ele>132.0</ele><time>2026-04-18T13:21:21.999Z</time></trkpt><trkpt lat="44.72343469407493" lon="10.110281159021687"><ele>132.0</ele><time>2026-04-18T13:21:22.999Z</time></trkpt><trkpt lat="44.7234998349867" lon="10.110319644292751"><ele>132.0</ele><time>2026-04-18T13:21:23.999Z</time></trkpt><trkpt lat="44.723562861506274" lon="10.110363224431314"><ele>132.0</ele><time>2026-04-18T13:21:24.999Z</time></trkpt><trkpt lat="44.72362805129015" lon="10.110401426811354"><ele>132.0</ele><time>2026-04-18T13:21:25.999Z</time></trkpt><trkpt lat="44.72369372772885" lon="10.110436235672509"><ele>132.0</ele><time>2026-04-18T13:21:26.999Z</time></trkpt><trkpt lat="44.72376059721615" lon="10.110479427778811"><ele>132.0</ele><time>2026-04-18T13:21:27.999Z</time></trkpt><trkpt lat="44.72382259713043" lon="10.110514701951985"><ele>132.0</ele><time>2026-04-18T13:21:28.999Z</time></trkpt><trkpt lat="44.72388868169037" lon="10.110554877125246"><ele>132.16666666666666</ele><time>2026-04-18T13:21:29.999Z</time></trkpt><trkpt lat="44.723959847266826" lon="10.11059216905513"><ele>132.33333333333334</ele><time>2026-04-18T13:21:30.999Z</time></trkpt><trkpt lat="44.72402988177179" lon="10.110627645135999"><ele>132.5</ele><time>2026-04-18T13:21:31.999Z</time></trkpt><trkpt lat="44.72410178559289" lon="10.11066826041555"><ele>132.66666666666669</ele><time>2026-04-18T13:21:32.999Z</time></trkpt><trkpt lat="44.724173252257394" lon="10.110709765710412"><ele>132.83333333333334</ele><time>2026-04-18T13:21:33.999Z</time></trkpt><trkpt lat="44.72424448384424" lon="10.110749880687642"><ele>133.0</ele><time>2026-04-18T13:21:34.999Z</time></trkpt><trkpt lat="44.72431920784603" lon="10.110797649920947"><ele>133.0</ele><time>2026-04-18T13:21:35.999Z</time></trkpt><trkpt lat="44.72439093812396" lon="10.110850663788197"><ele>133.0</ele><time>2026-04-18T13:21:36.999Z</time></trkpt><trkpt lat="44.72445710100454" lon="10.11091376235914"><ele>133.0</ele><time>2026-04-18T13:21:37.999Z</time></trkpt><trkpt lat="44.72451280472055" lon="10.110988170377238"><ele>133.0</ele><time>2026-04-18T13:21:38.999Z</time></trkpt><trkpt lat="44.72455951576104" lon="10.11107721138566"><ele>133.0</ele><time>2026-04-18T13:21:39.999Z</time></trkpt><trkpt lat="44.724594765288124" lon="10.11117547334203"><ele>133.0</ele><time>2026-04-18T13:21:40.999Z</time></trkpt><trkpt lat="44.72462668837742" lon="10.1112734909333"><ele>133.16666666666669</ele><time>2026-04-18T13:21:41.999Z</time></trkpt><trkpt lat="44.72465835568185" lon="10.111370911875783"><ele>133.33333333333334</ele><time>2026-04-18T13:21:42.999Z</time></trkpt><trkpt lat="44.724695578893424" lon="10.111465686888353"><ele>133.5</ele><time>2026-04-18T13:21:43.999Z</time></trkpt><trkpt lat="44.724730415585455" lon="10.111563968776684"><ele>133.66666666666666</ele><time>2026-04-18T13:21:44.999Z</time></trkpt><trkpt lat="44.724760909593435" lon="10.11166071792948"><ele>133.83333333333331</ele><time>2026-04-18T13:21:45.999Z</time></trkpt><trkpt lat="44.724789373720014" lon="10.111755520744406"><ele>134.0</ele><time>2026-04-18T13:21:46.999Z</time></trkpt><trkpt lat="44.72482338897953" lon="10.11184931675538"><ele>134.0</ele><time>2026-04-18T13:21:47.999Z</time></trkpt><trkpt lat="44.724855621586855" lon="10.111947099336382"><ele>134.0</ele><time>2026-04-18T13:21:48.999Z</time></trkpt><trkpt lat="44.7248945037807" lon="10.112042997299659"><ele>134.0</ele><time>2026-04-18T13:21:49.999Z</time></trkpt><trkpt lat="44.7249346311811" lon="10.112125252946193"><ele>134.0</ele><time>2026-04-18T13:21:50.999Z</time></trkpt><trkpt lat="44.72497247269887" lon="10.112207598461627"><ele>134.0</ele><time>2026-04-18T13:21:51.999Z</time></trkpt><trkpt lat="44.725009212789224" lon="10.112289225584131"><ele>134.0</ele><time>2026-04-18T13:21:52.999Z</time></trkpt><trkpt lat="44.72504304959674" lon="10.112375833315198"><ele>134.0</ele><time>2026-04-18T13:21:53.999Z</time></trkpt><trkpt lat="44.72507623523147" lon="10.11245775053132"><ele>134.0</ele><time>2026-04-18T13:21:54.999Z</time></trkpt><trkpt lat="44.7251212507638" lon="10.11254262155109"><ele>134.0</ele><time>2026-04-18T13:21:55.999Z</time></trkpt><trkpt lat="44.72517003412554" lon="10.112620268810408"><ele>134.0</ele><time>2026-04-18T13:21:56.999Z</time></trkpt><trkpt lat="44.72521557993544" lon="10.112706616065559"><ele>134.0</ele><time>2026-04-18T13:21:57.999Z</time></trkpt><trkpt lat="44.72526737126723" lon="10.112784197409077"><ele>134.0</ele><time>2026-04-18T13:21:58.999Z</time></trkpt><trkpt lat="44.72531450949498" lon="10.11286095330759"><ele>134.0</ele><time>2026-04-18T13:21:59.999Z</time></trkpt><trkpt lat="44.72535987118594" lon="10.112944658354142"><ele>134.0</ele><time>2026-04-18T13:22:00.999Z</time></trkpt><trkpt lat="44.72540933538408" lon="10.113022799353908"><ele>134.0</ele><time>2026-04-18T13:22:01.998Z</time></trkpt><trkpt lat="44.7254622126987" lon="10.113099310061205"><ele>134.0</ele><time>2026-04-18T13:22:02.998Z</time></trkpt><trkpt lat="44.7255176367687" lon="10.11316886411621"><ele>134.0</ele><time>2026-04-18T13:22:03.998Z</time></trkpt><trkpt lat="44.72556178654064" lon="10.11324153878579"><ele>134.0</ele><time>2026-04-18T13:22:04.998Z</time></trkpt><trkpt lat="44.72561235543073" lon="10.113319578736014"><ele>134.0</ele><time>2026-04-18T13:22:05.998Z</time></trkpt><trkpt lat="44.725663635720984" lon="10.113394820373026"><ele>134.0</ele><time>2026-04-18T13:22:06.998Z</time></trkpt><trkpt lat="44.7257135724972" lon="10.113473406766381"><ele>134.0</ele><time>2026-04-18T13:22:07.998Z</time></trkpt><trkpt lat="44.72576918274409" lon="10.113542023781848"><ele>133.83333333333331</ele><time>2026-04-18T13:22:08.998Z</time></trkpt><trkpt lat="44.72581818797714" lon="10.113606645860877"><ele>133.66666666666666</ele><time>2026-04-18T13:22:09.998Z</time></trkpt><trkpt lat="44.72587176415906" lon="10.1136913126525"><ele>133.5</ele><time>2026-04-18T13:22:10.998Z</time></trkpt><trkpt lat="44.725929532001686" lon="10.113770133265088"><ele>133.33333333333334</ele><time>2026-04-18T13:22:11.998Z</time></trkpt><trkpt lat="44.72598595123859" lon="10.113842269284758"><ele>133.16666666666669</ele><time>2026-04-18T13:22:12.998Z</time></trkpt><trkpt lat="44.7260408042389" lon="10.11392255671774"><ele>133.0</ele><time>2026-04-18T13:22:13.998Z</time></trkpt><trkpt lat="44.72609307017037" lon="10.11399813337659"><ele>133.33333333333334</ele><time>2026-04-18T13:22:14.998Z</time></trkpt><trkpt lat="44.726149454074616" lon="10.114074184862085"><ele>133.66666666666669</ele><time>2026-04-18T13:22:15.998Z</time></trkpt><trkpt lat="44.726210454271836" lon="10.114152448288957"><ele>134.0</ele><time>2026-04-18T13:22:16.998Z</time></trkpt><trkpt lat="44.72626221088625" lon="10.114232237996251"><ele>134.33333333333334</ele><time>2026-04-18T13:22:17.998Z</time></trkpt><trkpt lat="44.72631531641418" lon="10.114305580797687"><ele>134.66666666666666</ele><time>2026-04-18T13:22:18.998Z</time></trkpt><trkpt lat="44.72637259607546" lon="10.114384032045574"><ele>135.0</ele><time>2026-04-18T13:22:19.998Z</time></trkpt><trkpt lat="44.72642877060917" lon="10.114460843262918"><ele>135.0</ele><time>2026-04-18T13:22:20.998Z</time></trkpt><trkpt lat="44.7264860893882" lon="10.114541858724147"><ele>135.0</ele><time>2026-04-18T13:22:21.998Z</time></trkpt><trkpt lat="44.72654082926263" lon="10.114623212562696"><ele>135.0</ele><time>2026-04-18T13:22:22.998Z</time></trkpt><trkpt lat="44.72659265543138" lon="10.114706173715437"><ele>135.0</ele><time>2026-04-18T13:22:23.998Z</time></trkpt><trkpt lat="44.7266463182357" lon="10.114790305783927"><ele>135.0</ele><time>2026-04-18T13:22:24.998Z</time></trkpt><trkpt lat="44.726702391112575" lon="10.114875112694081"><ele>135.0</ele><time>2026-04-18T13:22:26Z</time></trkpt><trkpt lat="44.7267571102327" lon="10.114958519739318"><ele>135.16666666666666</ele><time>2026-04-18T13:22:27Z</time></trkpt><trkpt lat="44.7268116566365" lon="10.115043264133716"><ele>135.33333333333334</ele><time>2026-04-18T13:22:28Z</time></trkpt><trkpt lat="44.726870325640796" lon="10.115126564437888"><ele>135.5</ele><time>2026-04-18T13:22:29Z</time></trkpt><trkpt lat="44.7269243678307" lon="10.115211090150376"><ele>135.66666666666669</ele><time>2026-04-18T13:22:30Z</time></trkpt><trkpt lat="44.72698351043205" lon="10.115291651919533"><ele>135.83333333333334</ele><time>2026-04-18T13:22:31Z</time></trkpt><trkpt lat="44.72703846908569" lon="10.115375778478752"><ele>136.0</ele><time>2026-04-18T13:22:32Z</time></trkpt><trkpt lat="44.72709561759988" lon="10.115454221107651"><ele>136.0</ele><time>2026-04-18T13:22:33Z</time></trkpt><trkpt lat="44.72714793243492" lon="10.115534087176584"><ele>136.0</ele><time>2026-04-18T13:22:34Z</time></trkpt><trkpt lat="44.727200128327475" lon="10.115613365346112"><ele>136.0</ele><time>2026-04-18T13:22:35Z</time></trkpt><trkpt lat="44.727256807276554" lon="10.115696783676961"><ele>136.0</ele><time>2026-04-18T13:22:36Z</time></trkpt><trkpt lat="44.727315442056984" lon="10.11577745493421"><ele>136.0</ele><time>2026-04-18T13:22:37Z</time></trkpt><trkpt lat="44.7273730979889" lon="10.11586212857465"><ele>136.0</ele><time>2026-04-18T13:22:38Z</time></trkpt><trkpt lat="44.72742849960255" lon="10.115948863827606"><ele>136.16666666666669</ele><time>2026-04-18T13:22:39Z</time></trkpt><trkpt lat="44.727487628163395" lon="10.116030501326218"><ele>136.33333333333334</ele><time>2026-04-18T13:22:40Z</time></trkpt><trkpt lat="44.72753818791587" lon="10.116118155933645"><ele>136.5</ele><time>2026-04-18T13:22:41Z</time></trkpt><trkpt lat="44.72759424810997" lon="10.116195776798394"><ele>136.66666666666666</ele><time>2026-04-18T13:22:42Z</time></trkpt><trkpt lat="44.7276551678052" lon="10.11628210861564"><ele>136.83333333333331</ele><time>2026-04-18T13:22:43Z</time></trkpt><trkpt lat="44.72770846976998" lon="10.11636407480329"><ele>137.0</ele><time>2026-04-18T13:22:44Z</time></trkpt><trkpt lat="44.72776898095076" lon="10.116450836552652"><ele>137.0</ele><time>2026-04-18T13:22:45Z</time></trkpt><trkpt lat="44.727825582404854" lon="10.116536901180075"><ele>137.0</ele><time>2026-04-18T13:22:46Z</time></trkpt><trkpt lat="44.72788642783404" lon="10.116620525446065"><ele>137.0</ele><time>2026-04-18T13:22:47Z</time></trkpt><trkpt lat="44.72794922499676" lon="10.116704307941985"><ele>137.0</ele><time>2026-04-18T13:22:48Z</time></trkpt><trkpt lat="44.72801549252497" lon="10.116795720765385"><ele>137.0</ele><time>2026-04-18T13:22:49Z</time></trkpt><trkpt lat="44.72808327332224" lon="10.11688336932649"><ele>137.0</ele><time>2026-04-18T13:22:50Z</time></trkpt><trkpt lat="44.72811765868288" lon="10.116963883396384"><ele>136.16666666666666</ele><time>2026-04-18T13:22:51Z</time></trkpt><trkpt lat="44.7281809944925" lon="10.117050515285728"><ele>135.33333333333331</ele><time>2026-04-18T13:22:52Z</time></trkpt><trkpt lat="44.728241707956414" lon="10.117134684722918"><ele>134.5</ele><time>2026-04-18T13:22:53Z</time></trkpt><trkpt lat="44.72830135299102" lon="10.11722412972875"><ele>133.66666666666666</ele><time>2026-04-18T13:22:54Z</time></trkpt><trkpt lat="44.72835803184393" lon="10.117311620101672"><ele>132.83333333333334</ele><time>2026-04-18T13:22:55Z</time></trkpt><trkpt lat="44.72842118257675" lon="10.117397814914797"><ele>132.0</ele><time>2026-04-18T13:22:56Z</time></trkpt><trkpt lat="44.72848507186666" lon="10.117480074774335"><ele>131.5</ele><time>2026-04-18T13:22:57Z</time></trkpt><trkpt lat="44.72854917970038" lon="10.117571617919625"><ele>131.0</ele><time>2026-04-18T13:22:58Z</time></trkpt><trkpt lat="44.7286165939285" lon="10.117644983304695"><ele>130.5</ele><time>2026-04-18T13:22:59Z</time></trkpt><trkpt lat="44.72867639388367" lon="10.117740764822958"><ele>130.0</ele><time>2026-04-18T13:23:00Z</time></trkpt><trkpt lat="44.72873268219789" lon="10.117830532621355"><ele>129.5</ele><time>2026-04-18T13:23:01Z</time></trkpt><trkpt lat="44.72879902937574" lon="10.117894437294211"><ele>129.0</ele><time>2026-04-18T13:23:02Z</time></trkpt><trkpt lat="44.72886337785015" lon="10.117986889713514"><ele>129.83333333333334</ele><time>2026-04-18T13:23:03Z</time></trkpt><trkpt lat="44.728921417635405" lon="10.118083038947969"><ele>130.66666666666666</ele><time>2026-04-18T13:23:04Z</time></trkpt><trkpt lat="44.72897618691154" lon="10.118174909915226"><ele>131.5</ele><time>2026-04-18T13:23:05Z</time></trkpt><trkpt lat="44.72903677063493" lon="10.118263051230043"><ele>132.33333333333331</ele><time>2026-04-18T13:23:06Z</time></trkpt><trkpt lat="44.7290951855027" lon="10.118344235553213"><ele>133.16666666666666</ele><time>2026-04-18T13:23:07Z</time></trkpt><trkpt lat="44.729153063923526" lon="10.118429184593907"><ele>134.0</ele><time>2026-04-18T13:23:08Z</time></trkpt><trkpt lat="44.72920771050079" lon="10.118513304922615"><ele>134.0</ele><time>2026-04-18T13:23:09Z</time></trkpt><trkpt lat="44.72926366629411" lon="10.11859329179089"><ele>134.0</ele><time>2026-04-18T13:23:10Z</time></trkpt><trkpt lat="44.7293141788825" lon="10.11867586727418"><ele>134.0</ele><time>2026-04-18T13:23:11Z</time></trkpt><trkpt lat="44.72937111541512" lon="10.118756771762524"><ele>134.0</ele><time>2026-04-18T13:23:12Z</time></trkpt><trkpt lat="44.72942331116869" lon="10.11883989003063"><ele>134.0</ele><time>2026-04-18T13:23:13Z</time></trkpt><trkpt lat="44.7294804099954" lon="10.118922063443412"><ele>134.0</ele><time>2026-04-18T13:23:13.999Z</time></trkpt><trkpt lat="44.7295337512434" lon="10.119006975656152"><ele>134.0</ele><time>2026-04-18T13:23:14.999Z</time></trkpt><trkpt lat="44.72959236627912" lon="10.11909196619179"><ele>134.0</ele><time>2026-04-18T13:23:15.999Z</time></trkpt><trkpt lat="44.729655660761914" lon="10.119173769926155"><ele>134.0</ele><time>2026-04-18T13:23:16.999Z</time></trkpt><trkpt lat="44.729714641066415" lon="10.119256294765158"><ele>134.0</ele><time>2026-04-18T13:23:17.999Z</time></trkpt><trkpt lat="44.72977760675296" lon="10.11934502053735"><ele>134.0</ele><time>2026-04-18T13:23:18.999Z</time></trkpt><trkpt lat="44.72982959459631" lon="10.11941716378563"><ele>134.0</ele><time>2026-04-18T13:23:19.999Z</time></trkpt><trkpt lat="44.729893004051256" lon="10.11949836695346"><ele>134.0</ele><time>2026-04-18T13:23:20.999Z</time></trkpt><trkpt lat="44.72995364425678" lon="10.119579279745235"><ele>134.0</ele><time>2026-04-18T13:23:21.999Z</time></trkpt><trkpt lat="44.730020028919725" lon="10.119658066440179"><ele>134.0</ele><time>2026-04-18T13:23:22.999Z</time></trkpt><trkpt lat="44.730084993146626" lon="10.11973572047864"><ele>134.0</ele><time>2026-04-18T13:23:23.999Z</time></trkpt><trkpt lat="44.73015100290075" lon="10.11981019271037"><ele>134.0</ele><time>2026-04-18T13:23:24.999Z</time></trkpt><trkpt lat="44.73021800826998" lon="10.119881643346647"><ele>134.0</ele><time>2026-04-18T13:23:25.999Z</time></trkpt><trkpt lat="44.730284887613664" lon="10.119950384542797"><ele>133.33333333333331</ele><time>2026-04-18T13:23:26.999Z</time></trkpt><trkpt lat="44.730355749518175" lon="10.12002314608445"><ele>132.66666666666666</ele><time>2026-04-18T13:23:27.999Z</time></trkpt><trkpt lat="44.73042155505445" lon="10.120090474038964"><ele>132.0</ele><time>2026-04-18T13:23:28.999Z</time></trkpt><trkpt lat="44.73049350421811" lon="10.120160987852316"><ele>131.33333333333334</ele><time>2026-04-18T13:23:29.999Z</time></trkpt><trkpt lat="44.73055921289873" lon="10.120231267742541"><ele>130.66666666666669</ele><time>2026-04-18T13:23:30.999Z</time></trkpt><trkpt lat="44.73062970761831" lon="10.120300043159974"><ele>130.0</ele><time>2026-04-18T13:23:31.999Z</time></trkpt><trkpt lat="44.73070000733932" lon="10.120374679154542"><ele>130.0</ele><time>2026-04-18T13:23:32.999Z</time></trkpt><trkpt lat="44.73076471786178" lon="10.120440717696702"><ele>130.0</ele><time>2026-04-18T13:23:33.999Z</time></trkpt><trkpt lat="44.730835207096106" lon="10.120512873766383"><ele>130.0</ele><time>2026-04-18T13:23:34.999Z</time></trkpt><trkpt lat="44.73090021159459" lon="10.12058109043313"><ele>130.0</ele><time>2026-04-18T13:23:35.999Z</time></trkpt><trkpt lat="44.7309707210473" lon="10.120653603295231"><ele>130.0</ele><time>2026-04-18T13:23:36.999Z</time></trkpt><trkpt lat="44.731037247849066" lon="10.120722325974361"><ele>130.0</ele><time>2026-04-18T13:23:37.999Z</time></trkpt><trkpt lat="44.7311043389322" lon="10.12079496224611"><ele>130.33333333333334</ele><time>2026-04-18T13:23:38.999Z</time></trkpt><trkpt lat="44.7311721295938" lon="10.120860112954778"><ele>130.66666666666669</ele><time>2026-04-18T13:23:39.999Z</time></trkpt><trkpt lat="44.73124048478899" lon="10.12093186292849"><ele>131.0</ele><time>2026-04-18T13:23:40.999Z</time></trkpt><trkpt lat="44.73130769749905" lon="10.120998395382218"><ele>131.33333333333334</ele><time>2026-04-18T13:23:41.999Z</time></trkpt><trkpt lat="44.73137894517238" lon="10.121072210443106"><ele>131.66666666666666</ele><time>2026-04-18T13:23:42.999Z</time></trkpt><trkpt lat="44.731447345724824" lon="10.121143374825008"><ele>132.0</ele><time>2026-04-18T13:23:43.999Z</time></trkpt><trkpt lat="44.73151564296139" lon="10.121216778322323"><ele>132.0</ele><time>2026-04-18T13:23:44.999Z</time></trkpt><trkpt lat="44.73158435180025" lon="10.121288596847759"><ele>132.0</ele><time>2026-04-18T13:23:45.999Z</time></trkpt><trkpt lat="44.73165241752458" lon="10.121360362716194"><ele>132.0</ele><time>2026-04-18T13:23:46.999Z</time></trkpt><trkpt lat="44.73171449503793" lon="10.121437616650166"><ele>132.0</ele><time>2026-04-18T13:23:47.999Z</time></trkpt><trkpt lat="44.73178660012086" lon="10.12152518091523"><ele>132.0</ele><time>2026-04-18T13:23:48.999Z</time></trkpt><trkpt lat="44.73185332991351" lon="10.121601477520638"><ele>132.0</ele><time>2026-04-18T13:23:49.999Z</time></trkpt><trkpt lat="44.73192050590577" lon="10.121684581212461"><ele>132.16666666666666</ele><time>2026-04-18T13:23:50.999Z</time></trkpt><trkpt lat="44.731985497887486" lon="10.121769722279831"><ele>132.33333333333334</ele><time>2026-04-18T13:23:51.999Z</time></trkpt><trkpt lat="44.732055237935946" lon="10.12185307898058"><ele>132.5</ele><time>2026-04-18T13:23:52.999Z</time></trkpt><trkpt lat="44.73211932317444" lon="10.12193342961957"><ele>132.66666666666669</ele><time>2026-04-18T13:23:53.999Z</time></trkpt><trkpt lat="44.73219237570388" lon="10.122012741776803"><ele>132.83333333333334</ele><time>2026-04-18T13:23:54.999Z</time></trkpt><trkpt lat="44.732259098318984" lon="10.122100016924465"><ele>133.0</ele><time>2026-04-18T13:23:55.999Z</time></trkpt><trkpt lat="44.732331114638576" lon="10.122188258848816"><ele>133.0</ele><time>2026-04-18T13:23:56.999Z</time></trkpt><trkpt lat="44.732401139434444" lon="10.12227608546848"><ele>133.0</ele><time>2026-04-18T13:23:57.999Z</time></trkpt><trkpt lat="44.73247831639869" lon="10.122361108589182"><ele>133.0</ele><time>2026-04-18T13:23:58.999Z</time></trkpt><trkpt lat="44.73255039866863" lon="10.122447107174407"><ele>133.0</ele><time>2026-04-18T13:23:59.999Z</time></trkpt><trkpt lat="44.732620971712976" lon="10.122532167278072"><ele>133.0</ele><time>2026-04-18T13:24:00.999Z</time></trkpt><trkpt lat="44.73269513653454" lon="10.122614145821547"><ele>132.20000000000002</ele><time>2026-04-18T13:24:01.999Z</time></trkpt><trkpt lat="44.732774480310994" lon="10.122692142238346"><ele>131.4</ele><time>2026-04-18T13:24:02.999Z</time></trkpt><trkpt lat="44.73285338036926" lon="10.122761920714302"><ele>130.60000000000002</ele><time>2026-04-18T13:24:03.999Z</time></trkpt><trkpt lat="44.73293845925441" lon="10.12283081622408"><ele>129.8</ele><time>2026-04-18T13:24:04.999Z</time></trkpt><trkpt lat="44.73302625852322" lon="10.122892338722066"><ele>129.0</ele><time>2026-04-18T13:24:05.999Z</time></trkpt><trkpt lat="44.73311907188443" lon="10.12295164509451"><ele>129.0</ele><time>2026-04-18T13:24:06.999Z</time></trkpt><trkpt lat="44.73320768803258" lon="10.123018846540326"><ele>129.0</ele><time>2026-04-18T13:24:07.998Z</time></trkpt><trkpt lat="44.733300346656755" lon="10.12308532816391"><ele>129.0</ele><time>2026-04-18T13:24:08.998Z</time></trkpt><trkpt lat="44.73339226074416" lon="10.123147507882672"><ele>129.0</ele><time>2026-04-18T13:24:09.998Z</time></trkpt><trkpt lat="44.73348483432483" lon="10.123213655682095"><ele>129.0</ele><time>2026-04-18T13:24:10.998Z</time></trkpt><trkpt lat="44.73357791008558" lon="10.123275452648862"><ele>127.6</ele><time>2026-04-18T13:24:11.998Z</time></trkpt><trkpt lat="44.73366970429046" lon="10.12334078645817"><ele>126.2</ele><time>2026-04-18T13:24:12.998Z</time></trkpt><trkpt lat="44.73376144578447" lon="10.123404991767337"><ele>124.79999999999998</ele><time>2026-04-18T13:24:13.998Z</time></trkpt><trkpt lat="44.733855260669635" lon="10.123475276035403"><ele>123.39999999999999</ele><time>2026-04-18T13:24:14.998Z</time></trkpt><trkpt lat="44.73394745940919" lon="10.12353104119577"><ele>122.0</ele><time>2026-04-18T13:24:15.998Z</time></trkpt><trkpt lat="44.73403474304524" lon="10.123593262583004"><ele>122.0</ele><time>2026-04-18T13:24:16.998Z</time></trkpt><trkpt lat="44.7341226349302" lon="10.123653884132311"><ele>121.99999999999999</ele><time>2026-04-18T13:24:17.998Z</time></trkpt><trkpt lat="44.734208276494556" lon="10.123709995986403"><ele>121.99999999999999</ele><time>2026-04-18T13:24:18.998Z</time></trkpt><trkpt lat="44.73429258223847" lon="10.123771075514966"><ele>122.0</ele><time>2026-04-18T13:24:19.998Z</time></trkpt><trkpt lat="44.73437753992578" lon="10.123820000570444"><ele>122.0</ele><time>2026-04-18T13:24:20.998Z</time></trkpt><trkpt lat="44.73445724067246" lon="10.123885098598283"><ele>121.39999999999999</ele><time>2026-04-18T13:24:21.998Z</time></trkpt><trkpt lat="44.73454133967748" lon="10.123943086325163"><ele>120.79999999999998</ele><time>2026-04-18T13:24:22.998Z</time></trkpt><trkpt lat="44.73462121403593" lon="10.124000088820639"><ele>120.2</ele><time>2026-04-18T13:24:23.998Z</time></trkpt><trkpt lat="44.734699310948805" lon="10.124061261429768"><ele>119.6</ele><time>2026-04-18T13:24:24.998Z</time></trkpt><trkpt lat="44.73477850434769" lon="10.124115613229518"><ele>119.0</ele><time>2026-04-18T13:24:25.998Z</time></trkpt><trkpt lat="44.73485444581752" lon="10.124182412584304"><ele>118.99999999999999</ele><time>2026-04-18T13:24:26.998Z</time></trkpt><trkpt lat="44.73492921782363" lon="10.124238770542195"><ele>119.0</ele><time>2026-04-18T13:24:27.998Z</time></trkpt><trkpt lat="44.7350013347635" lon="10.124297391830408"><ele>119.0</ele><time>2026-04-18T13:24:28.998Z</time></trkpt><trkpt lat="44.73507273468065" lon="10.124361373356708"><ele>119.0</ele><time>2026-04-18T13:24:29.998Z</time></trkpt><trkpt lat="44.735145602089304" lon="10.124425172120842"><ele>118.99999999999999</ele><time>2026-04-18T13:24:31Z</time></trkpt><trkpt lat="44.735216641985495" lon="10.124479426418436"><ele>119.0</ele><time>2026-04-18T13:24:32Z</time></trkpt><trkpt lat="44.73528565792652" lon="10.124542033938363"><ele>119.33333333333333</ele><time>2026-04-18T13:24:33Z</time></trkpt><trkpt lat="44.73535708888231" lon="10.12460026605136"><ele>119.66666666666666</ele><time>2026-04-18T13:24:34Z</time></trkpt><trkpt lat="44.73542595342952" lon="10.124663397071652"><ele>120.0</ele><time>2026-04-18T13:24:35Z</time></trkpt><trkpt lat="44.73549532120474" lon="10.124727649909909"><ele>120.33333333333334</ele><time>2026-04-18T13:24:36Z</time></trkpt><trkpt lat="44.735567842708825" lon="10.124782170634614"><ele>120.66666666666667</ele><time>2026-04-18T13:24:37Z</time></trkpt><trkpt lat="44.73564000863793" lon="10.124841220872641"><ele>121.0</ele><time>2026-04-18T13:24:38Z</time></trkpt><trkpt lat="44.73571268721364" lon="10.124906398353879"><ele>121.00000000000001</ele><time>2026-04-18T13:24:39Z</time></trkpt><trkpt lat="44.735784396091354" lon="10.124966161613218"><ele>121.0</ele><time>2026-04-18T13:24:40Z</time></trkpt><trkpt lat="44.7358557916849" lon="10.125024365785997"><ele>121.0</ele><time>2026-04-18T13:24:41Z</time></trkpt><trkpt lat="44.73592752305159" lon="10.125081442942427"><ele>121.0</ele><time>2026-04-18T13:24:42Z</time></trkpt><trkpt lat="44.73599896867842" lon="10.125141427187963"><ele>121.00000000000001</ele><time>2026-04-18T13:24:43Z</time></trkpt><trkpt lat="44.73607181793134" lon="10.125198667245906"><ele>121.0</ele><time>2026-04-18T13:24:44Z</time></trkpt><trkpt lat="44.73614239466732" lon="10.125258587320792"><ele>122.00000000000001</ele><time>2026-04-18T13:24:45Z</time></trkpt><trkpt lat="44.736213283442204" lon="10.12531975790145"><ele>123.0</ele><time>2026-04-18T13:24:46Z</time></trkpt><trkpt lat="44.736284931422375" lon="10.125380093516425"><ele>124.0</ele><time>2026-04-18T13:24:47Z</time></trkpt><trkpt lat="44.73635830749074" lon="10.125441708933078"><ele>125.0</ele><time>2026-04-18T13:24:48Z</time></trkpt><trkpt lat="44.73643206216816" lon="10.125504112622876"><ele>126.00000000000001</ele><time>2026-04-18T13:24:49Z</time></trkpt><trkpt lat="44.7365068994976" lon="10.12556184988092"><ele>127.0</ele><time>2026-04-18T13:24:50Z</time></trkpt><trkpt lat="44.73658312925306" lon="10.125627773639712"><ele>127.00000000000001</ele><time>2026-04-18T13:24:51Z</time></trkpt><trkpt lat="44.73666103845675" lon="10.12569455720403"><ele>127.0</ele><time>2026-04-18T13:24:52Z</time></trkpt><trkpt lat="44.73673701576476" lon="10.125758376290817"><ele>127.0</ele><time>2026-04-18T13:24:53Z</time></trkpt><trkpt lat="44.73681352703944" lon="10.125828789970052"><ele>127.0</ele><time>2026-04-18T13:24:54Z</time></trkpt><trkpt lat="44.73688423235805" lon="10.125891364777438"><ele>127.00000000000001</ele><time>2026-04-18T13:24:55Z</time></trkpt><trkpt lat="44.7369604430564" lon="10.125959402061794"><ele>127.0</ele><time>2026-04-18T13:24:56Z</time></trkpt><trkpt lat="44.73703436270598" lon="10.126025225641456"><ele>126.66666666666667</ele><time>2026-04-18T13:24:57Z</time></trkpt><trkpt lat="44.73710882757622" lon="10.126095041904078"><ele>126.33333333333334</ele><time>2026-04-18T13:24:58Z</time></trkpt><trkpt lat="44.73717887862612" lon="10.126165751227719"><ele>126.0</ele><time>2026-04-18T13:24:59Z</time></trkpt><trkpt lat="44.73724667128586" lon="10.126226313172046"><ele>125.66666666666666</ele><time>2026-04-18T13:25:00Z</time></trkpt><trkpt lat="44.7373180960136" lon="10.126296756763326"><ele>125.33333333333333</ele><time>2026-04-18T13:25:01Z</time></trkpt><trkpt lat="44.73739066699367" lon="10.126367567648693"><ele>125.0</ele><time>2026-04-18T13:25:02Z</time></trkpt><trkpt lat="44.73746009839037" lon="10.126434678398512"><ele>124.99999999999999</ele><time>2026-04-18T13:25:03Z</time></trkpt><trkpt lat="44.7375311842674" lon="10.12650790073415"><ele>125.0</ele><time>2026-04-18T13:25:04Z</time></trkpt><trkpt lat="44.73760044431329" lon="10.126577515172873"><ele>125.0</ele><time>2026-04-18T13:25:05Z</time></trkpt><trkpt lat="44.737673866883185" lon="10.126650223476931"><ele>125.0</ele><time>2026-04-18T13:25:06Z</time></trkpt><trkpt lat="44.737741655293796" lon="10.12672100728866"><ele>124.99999999999999</ele><time>2026-04-18T13:25:07Z</time></trkpt><trkpt lat="44.73780680444572" lon="10.126803094075468"><ele>125.0</ele><time>2026-04-18T13:25:08Z</time></trkpt><trkpt lat="44.73787008952271" lon="10.126874568230779"><ele>124.83333333333333</ele><time>2026-04-18T13:25:09Z</time></trkpt><trkpt lat="44.73793302753744" lon="10.126954520271143"><ele>124.66666666666666</ele><time>2026-04-18T13:25:10Z</time></trkpt><trkpt lat="44.73799590225751" lon="10.127040004589718"><ele>124.5</ele><time>2026-04-18T13:25:11Z</time></trkpt><trkpt lat="44.73805419493307" lon="10.12712300105974"><ele>124.33333333333334</ele><time>2026-04-18T13:25:12Z</time></trkpt><trkpt lat="44.73811296032829" lon="10.127204318013858"><ele>124.16666666666667</ele><time>2026-04-18T13:25:13Z</time></trkpt><trkpt lat="44.73817222337183" lon="10.127292804773525"><ele>124.0</ele><time>2026-04-18T13:25:14Z</time></trkpt><trkpt lat="44.73823205403802" lon="10.127381995124928"><ele>124.16666666666667</ele><time>2026-04-18T13:25:15Z</time></trkpt><trkpt lat="44.73828710773024" lon="10.127472724679917"><ele>124.33333333333334</ele><time>2026-04-18T13:25:15.999Z</time></trkpt><trkpt lat="44.73834527816482" lon="10.127564181709296"><ele>124.5</ele><time>2026-04-18T13:25:16.999Z</time></trkpt><trkpt lat="44.738405198515565" lon="10.127654774728963"><ele>124.66666666666666</ele><time>2026-04-18T13:25:17.999Z</time></trkpt><trkpt lat="44.73846430732483" lon="10.127741511134936"><ele>124.83333333333333</ele><time>2026-04-18T13:25:18.999Z</time></trkpt><trkpt lat="44.738523977384475" lon="10.127825534121994"><ele>125.0</ele><time>2026-04-18T13:25:19.999Z</time></trkpt><trkpt lat="44.73858195716038" lon="10.127916571468868"><ele>124.99999999999999</ele><time>2026-04-18T13:25:20.999Z</time></trkpt><trkpt lat="44.73864061703288" lon="10.128008671740563"><ele>125.0</ele><time>2026-04-18T13:25:21.999Z</time></trkpt><trkpt lat="44.73870290482557" lon="10.128089980252323"><ele>125.0</ele><time>2026-04-18T13:25:22.999Z</time></trkpt><trkpt lat="44.73875769961158" lon="10.12818643312324"><ele>125.0</ele><time>2026-04-18T13:25:23.999Z</time></trkpt><trkpt lat="44.73881665583801" lon="10.128271600854738"><ele>124.99999999999999</ele><time>2026-04-18T13:25:24.999Z</time></trkpt><trkpt lat="44.73887954096783" lon="10.128367313450049"><ele>125.0</ele><time>2026-04-18T13:25:25.999Z</time></trkpt><trkpt lat="44.738935630336634" lon="10.128465114049678"><ele>124.49999999999999</ele><time>2026-04-18T13:25:26.999Z</time></trkpt><trkpt lat="44.738999734069864" lon="10.128549527393604"><ele>124.0</ele><time>2026-04-18T13:25:27.999Z</time></trkpt><trkpt lat="44.73905827190673" lon="10.128644364341682"><ele>123.5</ele><time>2026-04-18T13:25:28.999Z</time></trkpt><trkpt lat="44.73912034325173" lon="10.128734216966453"><ele>123.0</ele><time>2026-04-18T13:25:29.999Z</time></trkpt><trkpt lat="44.73918174549559" lon="10.128821624338713"><ele>122.49999999999999</ele><time>2026-04-18T13:25:30.999Z</time></trkpt><trkpt lat="44.739247393487" lon="10.128902122862703"><ele>122.0</ele><time>2026-04-18T13:25:31.999Z</time></trkpt><trkpt lat="44.73930964431162" lon="10.12898871192501"><ele>121.33333333333333</ele><time>2026-04-18T13:25:32.999Z</time></trkpt><trkpt lat="44.73937433009244" lon="10.129073024228838"><ele>120.66666666666666</ele><time>2026-04-18T13:25:33.999Z</time></trkpt><trkpt lat="44.7394380863819" lon="10.12915563051155"><ele>120.0</ele><time>2026-04-18T13:25:34.999Z</time></trkpt><trkpt lat="44.73950524735828" lon="10.129232756084544"><ele>119.33333333333334</ele><time>2026-04-18T13:25:35.999Z</time></trkpt><trkpt lat="44.73957156910072" lon="10.129301584228973"><ele>118.66666666666667</ele><time>2026-04-18T13:25:36.999Z</time></trkpt><trkpt lat="44.73963859784848" lon="10.129371125910074"><ele>118.0</ele><time>2026-04-18T13:25:37.999Z</time></trkpt><trkpt lat="44.73971387965056" lon="10.129437615322392"><ele>117.83333333333334</ele><time>2026-04-18T13:25:38.999Z</time></trkpt><trkpt lat="44.73978404923487" lon="10.129508855016708"><ele>117.66666666666667</ele><time>2026-04-18T13:25:39.999Z</time></trkpt><trkpt lat="44.739852165314254" lon="10.129578962398945"><ele>117.5</ele><time>2026-04-18T13:25:40.999Z</time></trkpt><trkpt lat="44.73991937798609" lon="10.129649135542921"><ele>117.33333333333334</ele><time>2026-04-18T13:25:41.999Z</time></trkpt><trkpt lat="44.739986778066765" lon="10.129715932450724"><ele>117.16666666666667</ele><time>2026-04-18T13:25:42.999Z</time></trkpt><trkpt lat="44.74005160074191" lon="10.129775718895715"><ele>117.0</ele><time>2026-04-18T13:25:43.999Z</time></trkpt><trkpt lat="44.74011050297577" lon="10.129839940191935"><ele>116.83333333333333</ele><time>2026-04-18T13:25:44.999Z</time></trkpt><trkpt lat="44.7401635086857" lon="10.129896935136221"><ele>116.66666666666666</ele><time>2026-04-18T13:25:45.999Z</time></trkpt><trkpt lat="44.74020451772979" lon="10.129995442991294"><ele>116.5</ele><time>2026-04-18T13:25:46.999Z</time></trkpt><trkpt lat="44.74026896806242" lon="10.130070553522486"><ele>116.33333333333333</ele><time>2026-04-18T13:25:47.999Z</time></trkpt><trkpt lat="44.74035211358535" lon="10.130114329201072"><ele>116.16666666666666</ele><time>2026-04-18T13:25:48.999Z</time></trkpt><trkpt lat="44.74043484867859" lon="10.130132957040017"><ele>116.0</ele><time>2026-04-18T13:25:49.999Z</time></trkpt><trkpt lat="44.740520913048755" lon="10.130143850388977"><ele>115.99999999999999</ele><time>2026-04-18T13:25:50.999Z</time></trkpt><trkpt lat="44.740606715424" lon="10.130166548118"><ele>116.0</ele><time>2026-04-18T13:25:51.999Z</time></trkpt><trkpt lat="44.74069556832337" lon="10.13020019673266"><ele>116.0</ele><time>2026-04-18T13:25:52.999Z</time></trkpt><trkpt lat="44.74077662717557" lon="10.130243354908693"><ele>116.0</ele><time>2026-04-18T13:25:53.999Z</time></trkpt><trkpt lat="44.74086085002833" lon="10.130279946099664"><ele>115.99999999999999</ele><time>2026-04-18T13:25:54.999Z</time></trkpt><trkpt lat="44.740940505484495" lon="10.130325371249768"><ele>116.0</ele><time>2026-04-18T13:25:55.999Z</time></trkpt><trkpt lat="44.74101371653604" lon="10.130381381733818"><ele>115.66666666666666</ele><time>2026-04-18T13:25:56.999Z</time></trkpt><trkpt lat="44.74108538530665" lon="10.130435802190906"><ele>115.33333333333333</ele><time>2026-04-18T13:25:57.999Z</time></trkpt><trkpt lat="44.741163927029376" lon="10.130479774643943"><ele>115.0</ele><time>2026-04-18T13:25:58.999Z</time></trkpt><trkpt lat="44.74123975327223" lon="10.130545139612904"><ele>114.66666666666666</ele><time>2026-04-18T13:25:59.999Z</time></trkpt><trkpt lat="44.74131595724585" lon="10.130608905514244"><ele>114.33333333333333</ele><time>2026-04-18T13:26:00.999Z</time></trkpt><trkpt lat="44.741388142907454" lon="10.130674161006365"><ele>114.0</ele><time>2026-04-18T13:26:01.999Z</time></trkpt><trkpt lat="44.741463736543025" lon="10.130726652776753"><ele>114.0</ele><time>2026-04-18T13:26:02.999Z</time></trkpt><trkpt lat="44.741538039758666" lon="10.130781750527417"><ele>114.0</ele><time>2026-04-18T13:26:03.999Z</time></trkpt><trkpt lat="44.74161402047314" lon="10.13082908886747"><ele>114.0</ele><time>2026-04-18T13:26:04.999Z</time></trkpt><trkpt lat="44.74168508773168" lon="10.13088122566392"><ele>114.0</ele><time>2026-04-18T13:26:05.999Z</time></trkpt><trkpt lat="44.74175331832824" lon="10.130934617452803"><ele>114.0</ele><time>2026-04-18T13:26:06.999Z</time></trkpt><trkpt lat="44.74183159818535" lon="10.130991763789394"><ele>114.0</ele><time>2026-04-18T13:26:07.999Z</time></trkpt><trkpt lat="44.74189914321965" lon="10.131044017358386"><ele>114.66666666666667</ele><time>2026-04-18T13:26:08.999Z</time></trkpt><trkpt lat="44.74197623969302" lon="10.13110198583716"><ele>115.33333333333334</ele><time>2026-04-18T13:26:09.998Z</time></trkpt><trkpt lat="44.74205039940948" lon="10.131172940221564"><ele>116.0</ele><time>2026-04-18T13:26:10.998Z</time></trkpt><trkpt lat="44.742124773787786" lon="10.131231619576637"><ele>116.66666666666667</ele><time>2026-04-18T13:26:11.998Z</time></trkpt><trkpt lat="44.74219423511264" lon="10.131290087945583"><ele>117.33333333333334</ele><time>2026-04-18T13:26:12.998Z</time></trkpt><trkpt lat="44.74226848049108" lon="10.131350438608274"><ele>118.0</ele><time>2026-04-18T13:26:13.998Z</time></trkpt><trkpt lat="44.74234300555155" lon="10.131409145355928"><ele>118.00000000000001</ele><time>2026-04-18T13:26:14.998Z</time></trkpt><trkpt lat="44.74241653833636" lon="10.13146829026731"><ele>118.0</ele><time>2026-04-18T13:26:15.998Z</time></trkpt><trkpt lat="44.74248974119524" lon="10.131525471784299"><ele>118.0</ele><time>2026-04-18T13:26:16.998Z</time></trkpt><trkpt lat="44.74256250447348" lon="10.131579654778223"><ele>118.0</ele><time>2026-04-18T13:26:17.998Z</time></trkpt><trkpt lat="44.74263428373986" lon="10.131636269799309"><ele>118.00000000000001</ele><time>2026-04-18T13:26:18.998Z</time></trkpt><trkpt lat="44.74270389994868" lon="10.131693417317189"><ele>118.0</ele><time>2026-04-18T13:26:19.998Z</time></trkpt><trkpt lat="44.74277419887941" lon="10.131759044441386"><ele>118.33333333333334</ele><time>2026-04-18T13:26:20.998Z</time></trkpt><trkpt lat="44.74284889459236" lon="10.131816548946418"><ele>118.66666666666667</ele><time>2026-04-18T13:26:21.998Z</time></trkpt><trkpt lat="44.74291983812553" lon="10.131875712238076"><ele>119.0</ele><time>2026-04-18T13:26:22.998Z</time></trkpt><trkpt lat="44.742995476034544" lon="10.131938258598186"><ele>119.33333333333334</ele><time>2026-04-18T13:26:23.998Z</time></trkpt><trkpt lat="44.74306736364601" lon="10.13200065345712"><ele>119.66666666666667</ele><time>2026-04-18T13:26:24.998Z</time></trkpt><trkpt lat="44.74314157624716" lon="10.132060983702305"><ele>120.0</ele><time>2026-04-18T13:26:25.998Z</time></trkpt><trkpt lat="44.743214238963716" lon="10.132122433423335"><ele>120.0</ele><time>2026-04-18T13:26:26.998Z</time></trkpt><trkpt lat="44.743288365828654" lon="10.132180398407076"><ele>120.0</ele><time>2026-04-18T13:26:27.998Z</time></trkpt><trkpt lat="44.74336129538918" lon="10.132244106428521"><ele>120.0</ele><time>2026-04-18T13:26:28.998Z</time></trkpt><trkpt lat="44.74343583369043" lon="10.132301660689658"><ele>120.0</ele><time>2026-04-18T13:26:29.998Z</time></trkpt><trkpt lat="44.743510026556145" lon="10.132365170814086"><ele>120.0</ele><time>2026-04-18T13:26:30.998Z</time></trkpt><trkpt lat="44.74358349055279" lon="10.132420700491185"><ele>120.0</ele><time>2026-04-18T13:26:31.998Z</time></trkpt><trkpt lat="44.74365767660961" lon="10.132478711689135"><ele>120.0</ele><time>2026-04-18T13:26:32.998Z</time></trkpt><trkpt lat="44.743731031039374" lon="10.132540484532406"><ele>120.0</ele><time>2026-04-18T13:26:33.998Z</time></trkpt><trkpt lat="44.74380461079431" lon="10.132606899106793"><ele>120.0</ele><time>2026-04-18T13:26:34.998Z</time></trkpt><trkpt lat="44.74387706278198" lon="10.132664584187781"><ele>120.0</ele><time>2026-04-18T13:26:35.998Z</time></trkpt><trkpt lat="44.743952334436976" lon="10.13272181117658"><ele>120.0</ele><time>2026-04-18T13:26:37Z</time></trkpt><trkpt lat="44.74402656584432" lon="10.132783572850627"><ele>120.0</ele><time>2026-04-18T13:26:38Z</time></trkpt><trkpt lat="44.744100639928334" lon="10.132843816103996"><ele>120.0</ele><time>2026-04-18T13:26:39Z</time></trkpt><trkpt lat="44.74417473660844" lon="10.132901871151617"><ele>120.0</ele><time>2026-04-18T13:26:40Z</time></trkpt><trkpt lat="44.74424799946677" lon="10.132962346310597"><ele>120.0</ele><time>2026-04-18T13:26:41Z</time></trkpt><trkpt lat="44.74432263349477" lon="10.13302248674864"><ele>120.0</ele><time>2026-04-18T13:26:42Z</time></trkpt><trkpt lat="44.74439627595866" lon="10.133082132196055"><ele>120.0</ele><time>2026-04-18T13:26:43Z</time></trkpt><trkpt lat="44.744470460461876" lon="10.13314518358369"><ele>120.0</ele><time>2026-04-18T13:26:44Z</time></trkpt><trkpt lat="44.744545137116944" lon="10.133200303456702"><ele>120.16666666666667</ele><time>2026-04-18T13:26:45Z</time></trkpt><trkpt lat="44.74461699387183" lon="10.133269612988686"><ele>120.33333333333334</ele><time>2026-04-18T13:26:46Z</time></trkpt><trkpt lat="44.744688842914314" lon="10.133330152948899"><ele>120.5</ele><time>2026-04-18T13:26:47Z</time></trkpt><trkpt lat="44.74476090864659" lon="10.133397702828772"><ele>120.66666666666667</ele><time>2026-04-18T13:26:48Z</time></trkpt><trkpt lat="44.74483362688827" lon="10.133462822150731"><ele>120.83333333333334</ele><time>2026-04-18T13:26:49Z</time></trkpt><trkpt lat="44.74490440487621" lon="10.133521782928876"><ele>121.0</ele><time>2026-04-18T13:26:50Z</time></trkpt><trkpt lat="44.74497720658686" lon="10.133595158823443"><ele>121.00000000000001</ele><time>2026-04-18T13:26:51Z</time></trkpt><trkpt lat="44.74504041612399" lon="10.133666425999376"><ele>121.0</ele><time>2026-04-18T13:26:52Z</time></trkpt><trkpt lat="44.74511331671861" lon="10.133729593276824"><ele>121.0</ele><time>2026-04-18T13:26:53Z</time></trkpt><trkpt lat="44.74518203436995" lon="10.133798289792738"><ele>121.0</ele><time>2026-04-18T13:26:54Z</time></trkpt><trkpt lat="44.74524971120055" lon="10.133863945620513"><ele>121.00000000000001</ele><time>2026-04-18T13:26:55Z</time></trkpt><trkpt lat="44.74531738549314" lon="10.133938727288061"><ele>121.0</ele><time>2026-04-18T13:26:56Z</time></trkpt><trkpt lat="44.745385263245346" lon="10.134008710596495"><ele>121.33333333333334</ele><time>2026-04-18T13:26:57Z</time></trkpt><trkpt lat="44.74545002286318" lon="10.134080294717828"><ele>121.66666666666667</ele><time>2026-04-18T13:26:58Z</time></trkpt><trkpt lat="44.74551958402921" lon="10.134159390130547"><ele>122.0</ele><time>2026-04-18T13:26:59Z</time></trkpt><trkpt lat="44.745582067833354" lon="10.134227102247994"><ele>122.33333333333334</ele><time>2026-04-18T13:27:00Z</time></trkpt><trkpt lat="44.745648097335476" lon="10.13430285229579"><ele>122.66666666666667</ele><time>2026-04-18T13:27:01Z</time></trkpt><trkpt lat="44.745713500526406" lon="10.134377326860923"><ele>123.0</ele><time>2026-04-18T13:27:02Z</time></trkpt><trkpt lat="44.7457804155557" lon="10.134455036481775"><ele>123.0</ele><time>2026-04-18T13:27:03Z</time></trkpt><trkpt lat="44.74584483749052" lon="10.13453136004309"><ele>123.0</ele><time>2026-04-18T13:27:04Z</time></trkpt><trkpt lat="44.74590624670239" lon="10.134607961144726"><ele>123.0</ele><time>2026-04-18T13:27:05Z</time></trkpt><trkpt lat="44.745966879101694" lon="10.134687004044105"><ele>123.0</ele><time>2026-04-18T13:27:06Z</time></trkpt><trkpt lat="44.7460305093771" lon="10.134762914293031"><ele>123.0</ele><time>2026-04-18T13:27:07Z</time></trkpt><trkpt lat="44.74609089442438" lon="10.134837213835818"><ele>123.0</ele><time>2026-04-18T13:27:08Z</time></trkpt><trkpt lat="44.74615000833585" lon="10.134914634839973"><ele>123.0</ele><time>2026-04-18T13:27:09Z</time></trkpt><trkpt lat="44.746213886052786" lon="10.134988751339417"><ele>123.0</ele><time>2026-04-18T13:27:10Z</time></trkpt><trkpt lat="44.74627514338598" lon="10.135066327983205"><ele>123.0</ele><time>2026-04-18T13:27:11Z</time></trkpt><trkpt lat="44.746337961913035" lon="10.135147966325404"><ele>123.0</ele><time>2026-04-18T13:27:12Z</time></trkpt><trkpt lat="44.746401478017695" lon="10.13522400043344"><ele>123.0</ele><time>2026-04-18T13:27:13Z</time></trkpt><trkpt lat="44.74646312705623" lon="10.135291485317703"><ele>123.0</ele><time>2026-04-18T13:27:14Z</time></trkpt><trkpt lat="44.74652820071439" lon="10.135380309779043"><ele>123.0</ele><time>2026-04-18T13:27:15Z</time></trkpt><trkpt lat="44.74659038350496" lon="10.135451519516812"><ele>123.0</ele><time>2026-04-18T13:27:16Z</time></trkpt><trkpt lat="44.74665562464611" lon="10.135534382834608"><ele>123.0</ele><time>2026-04-18T13:27:17Z</time></trkpt><trkpt lat="44.746718915096366" lon="10.135617055863017"><ele>123.0</ele><time>2026-04-18T13:27:18Z</time></trkpt><trkpt lat="44.74678141070782" lon="10.135691351361004"><ele>123.0</ele><time>2026-04-18T13:27:19Z</time></trkpt><trkpt lat="44.74684647171658" lon="10.135774274598335"><ele>123.0</ele><time>2026-04-18T13:27:19.999Z</time></trkpt><trkpt lat="44.74690754114434" lon="10.135845332178022"><ele>123.5</ele><time>2026-04-18T13:27:20.999Z</time></trkpt><trkpt lat="44.746971351284095" lon="10.1359335962522"><ele>124.0</ele><time>2026-04-18T13:27:21.999Z</time></trkpt><trkpt lat="44.74703390865919" lon="10.136007236891505"><ele>124.5</ele><time>2026-04-18T13:27:22.999Z</time></trkpt><trkpt lat="44.747097004540215" lon="10.136085738246356"><ele>125.0</ele><time>2026-04-18T13:27:23.999Z</time></trkpt><trkpt lat="44.74716092133303" lon="10.136164521029077"><ele>125.5</ele><time>2026-04-18T13:27:24.999Z</time></trkpt><trkpt lat="44.74722643652146" lon="10.136248920225983"><ele>126.0</ele><time>2026-04-18T13:27:25.999Z</time></trkpt><trkpt lat="44.74728783993722" lon="10.136324943956142"><ele>126.0</ele><time>2026-04-18T13:27:26.999Z</time></trkpt><trkpt lat="44.74735255050538" lon="10.13640228005656"><ele>126.0</ele><time>2026-04-18T13:27:27.999Z</time></trkpt><trkpt lat="44.74741361531884" lon="10.136482917802061"><ele>126.0</ele><time>2026-04-18T13:27:28.999Z</time></trkpt><trkpt lat="44.7474756066655" lon="10.13655444457663"><ele>126.0</ele><time>2026-04-18T13:27:29.999Z</time></trkpt><trkpt lat="44.7475413756509" lon="10.136637546207485"><ele>126.0</ele><time>2026-04-18T13:27:30.999Z</time></trkpt><trkpt lat="44.74760511461356" lon="10.136711232254788"><ele>126.0</ele><time>2026-04-18T13:27:31.999Z</time></trkpt><trkpt lat="44.74766496729294" lon="10.136784746495328"><ele>126.33333333333333</ele><time>2026-04-18T13:27:32.999Z</time></trkpt><trkpt lat="44.74772692086816" lon="10.13686838635572"><ele>126.66666666666666</ele><time>2026-04-18T13:27:33.999Z</time></trkpt><trkpt lat="44.74778790933985" lon="10.13694108633347"><ele>127.0</ele><time>2026-04-18T13:27:34.999Z</time></trkpt><trkpt lat="44.747852273479104" lon="10.13702252478127"><ele>127.33333333333333</ele><time>2026-04-18T13:27:35.999Z</time></trkpt><trkpt lat="44.747916608224635" lon="10.137100666158952"><ele>127.66666666666666</ele><time>2026-04-18T13:27:36.999Z</time></trkpt><trkpt lat="44.7479758212481" lon="10.137172273450101"><ele>128.0</ele><time>2026-04-18T13:27:37.999Z</time></trkpt><trkpt lat="44.748036046364724" lon="10.137252309698603"><ele>127.99999999999999</ele><time>2026-04-18T13:27:38.999Z</time></trkpt><trkpt lat="44.7481030928397" lon="10.137328628379425"><ele>128.0</ele><time>2026-04-18T13:27:39.999Z</time></trkpt><trkpt lat="44.74816788323372" lon="10.137397263417732"><ele>128.0</ele><time>2026-04-18T13:27:40.999Z</time></trkpt><trkpt lat="44.74822857518706" lon="10.137480645029179"><ele>128.0</ele><time>2026-04-18T13:27:41.999Z</time></trkpt><trkpt lat="44.748292634550786" lon="10.1375577331856"><ele>127.99999999999999</ele><time>2026-04-18T13:27:42.999Z</time></trkpt><trkpt lat="44.748358437140126" lon="10.137642412990179"><ele>128.0</ele><time>2026-04-18T13:27:43.999Z</time></trkpt><trkpt lat="44.74842018170512" lon="10.137716469232496"><ele>128.33333333333331</ele><time>2026-04-18T13:27:44.999Z</time></trkpt><trkpt lat="44.748481871589846" lon="10.137798813760552"><ele>128.66666666666666</ele><time>2026-04-18T13:27:45.999Z</time></trkpt><trkpt lat="44.74854708852853" lon="10.137873304748346"><ele>129.0</ele><time>2026-04-18T13:27:46.999Z</time></trkpt><trkpt lat="44.748611377272184" lon="10.137957981380065"><ele>129.33333333333334</ele><time>2026-04-18T13:27:47.999Z</time></trkpt><trkpt lat="44.74867351457105" lon="10.138028215452705"><ele>129.66666666666669</ele><time>2026-04-18T13:27:48.999Z</time></trkpt><trkpt lat="44.74873818546769" lon="10.138113913021169"><ele>130.0</ele><time>2026-04-18T13:27:49.999Z</time></trkpt><trkpt lat="44.74880042781322" lon="10.13819375228865"><ele>128.16666666666669</ele><time>2026-04-18T13:27:50.999Z</time></trkpt><trkpt lat="44.74886553255558" lon="10.138273599976818"><ele>126.33333333333334</ele><time>2026-04-18T13:27:51.999Z</time></trkpt><trkpt lat="44.74893234666542" lon="10.138353646848964"><ele>124.5</ele><time>2026-04-18T13:27:52.999Z</time></trkpt><trkpt lat="44.748996840812126" lon="10.13843224904534"><ele>122.66666666666666</ele><time>2026-04-18T13:27:53.999Z</time></trkpt><trkpt lat="44.749062673864195" lon="10.138510598885219"><ele>120.83333333333333</ele><time>2026-04-18T13:27:54.999Z</time></trkpt><trkpt lat="44.7491283967594" lon="10.138596056462047"><ele>119.0</ele><time>2026-04-18T13:27:55.999Z</time></trkpt><trkpt lat="44.74919192649586" lon="10.138681125765476"><ele>118.99999999999999</ele><time>2026-04-18T13:27:56.999Z</time></trkpt><trkpt lat="44.749258452819284" lon="10.138770220726228"><ele>119.0</ele><time>2026-04-18T13:27:57.999Z</time></trkpt><trkpt lat="44.74932587676801" lon="10.13885493472093"><ele>119.0</ele><time>2026-04-18T13:27:58.999Z</time></trkpt><trkpt lat="44.74939318274719" lon="10.138938974432255"><ele>119.0</ele><time>2026-04-18T13:27:59.999Z</time></trkpt><trkpt lat="44.749460392312244" lon="10.139023286550215"><ele>118.99999999999999</ele><time>2026-04-18T13:28:00.999Z</time></trkpt><trkpt lat="44.74952396335383" lon="10.139102970942053"><ele>119.0</ele><time>2026-04-18T13:28:01.999Z</time></trkpt><trkpt lat="44.74959082154301" lon="10.139184767628283"><ele>119.4</ele><time>2026-04-18T13:28:02.999Z</time></trkpt><trkpt lat="44.74965699430117" lon="10.139269724844812"><ele>119.80000000000001</ele><time>2026-04-18T13:28:03.999Z</time></trkpt><trkpt lat="44.74972317824081" lon="10.139354440662075"><ele>120.19999999999999</ele><time>2026-04-18T13:28:04.999Z</time></trkpt><trkpt lat="44.74978928088641" lon="10.13943605392845"><ele>120.6</ele><time>2026-04-18T13:28:05.999Z</time></trkpt><trkpt lat="44.749857235322644" lon="10.139522873482532"><ele>121.0</ele><time>2026-04-18T13:28:06.999Z</time></trkpt><trkpt lat="44.74992572304915" lon="10.139607668976856"><ele>121.00000000000001</ele><time>2026-04-18T13:28:07.999Z</time></trkpt><trkpt lat="44.74999130060832" lon="10.139693071652982"><ele>121.0</ele><time>2026-04-18T13:28:08.999Z</time></trkpt><trkpt lat="44.75005668944466" lon="10.139780682214244"><ele>121.0</ele><time>2026-04-18T13:28:09.999Z</time></trkpt><trkpt lat="44.75012368265945" lon="10.13986034022163"><ele>121.0</ele><time>2026-04-18T13:28:10.999Z</time></trkpt><trkpt lat="44.750192860937375" lon="10.139944148760327"><ele>121.00000000000001</ele><time>2026-04-18T13:28:11.999Z</time></trkpt><trkpt lat="44.75025940068603" lon="10.140024565339557"><ele>121.0</ele><time>2026-04-18T13:28:12.999Z</time></trkpt><trkpt lat="44.75032513614156" lon="10.140103932256771"><ele>121.66666666666667</ele><time>2026-04-18T13:28:13.999Z</time></trkpt><trkpt lat="44.750397090514774" lon="10.1401842002944"><ele>122.33333333333334</ele><time>2026-04-18T13:28:14.998Z</time></trkpt><trkpt lat="44.750468888836345" lon="10.140260981062514"><ele>123.0</ele><time>2026-04-18T13:28:15.998Z</time></trkpt><trkpt lat="44.750537393926855" lon="10.14033514131942"><ele>123.66666666666666</ele><time>2026-04-18T13:28:16.998Z</time></trkpt><trkpt lat="44.75061084449119" lon="10.140397165804169"><ele>124.33333333333333</ele><time>2026-04-18T13:28:17.998Z</time></trkpt><trkpt lat="44.750685862383826" lon="10.140468570409647"><ele>125.0</ele><time>2026-04-18T13:28:18.998Z</time></trkpt><trkpt lat="44.75075981860249" lon="10.140538426960083"><ele>124.99999999999999</ele><time>2026-04-18T13:28:19.998Z</time></trkpt><trkpt lat="44.75083654994324" lon="10.140598171983791"><ele>125.0</ele><time>2026-04-18T13:28:20.998Z</time></trkpt><trkpt lat="44.75091237635953" lon="10.14066047530178"><ele>125.0</ele><time>2026-04-18T13:28:21.998Z</time></trkpt><trkpt lat="44.75098454459069" lon="10.140710166527207"><ele>125.0</ele><time>2026-04-18T13:28:22.998Z</time></trkpt><trkpt lat="44.75106137408089" lon="10.140768046267743"><ele>124.99999999999999</ele><time>2026-04-18T13:28:23.998Z</time></trkpt><trkpt lat="44.75113538165413" lon="10.14081969358681"><ele>125.0</ele><time>2026-04-18T13:28:24.998Z</time></trkpt><trkpt lat="44.75120972683933" lon="10.140874034859673"><ele>124.57142857142857</ele><time>2026-04-18T13:28:25.998Z</time></trkpt><trkpt lat="44.75128144929358" lon="10.140920511554"><ele>124.14285714285714</ele><time>2026-04-18T13:28:26.998Z</time></trkpt><trkpt lat="44.751355158174746" lon="10.140960725698445"><ele>123.71428571428571</ele><time>2026-04-18T13:28:27.998Z</time></trkpt><trkpt lat="44.751428423155815" lon="10.140995349063953"><ele>123.28571428571428</ele><time>2026-04-18T13:28:28.998Z</time></trkpt><trkpt lat="44.75149883658172" lon="10.141024983966997"><ele>122.85714285714286</ele><time>2026-04-18T13:28:29.998Z</time></trkpt><trkpt lat="44.7515602788969" lon="10.141057172739993"><ele>122.42857142857142</ele><time>2026-04-18T13:28:30.998Z</time></trkpt><trkpt lat="44.75162538123761" lon="10.14109529755433"><ele>121.99999999999999</ele><time>2026-04-18T13:28:31.998Z</time></trkpt><trkpt lat="44.75169089975353" lon="10.141126078508183"><ele>121.99999999999999</ele><time>2026-04-18T13:28:32.998Z</time></trkpt><trkpt lat="44.75175596860704" lon="10.141157685192145"><ele>122.0</ele><time>2026-04-18T13:28:33.998Z</time></trkpt><trkpt lat="44.75181836259384" lon="10.141189149664484"><ele>121.99999999999999</ele><time>2026-04-18T13:28:34.998Z</time></trkpt><trkpt lat="44.75188216204473" lon="10.1412205121525"><ele>121.99999999999999</ele><time>2026-04-18T13:28:35.998Z</time></trkpt><trkpt lat="44.751942992265676" lon="10.141249618480026"><ele>122.0</ele><time>2026-04-18T13:28:36.998Z</time></trkpt><trkpt lat="44.75200635038933" lon="10.141279100370813"><ele>121.99999999999999</ele><time>2026-04-18T13:28:37.998Z</time></trkpt><trkpt lat="44.75206879738823" lon="10.141308742138188"><ele>121.99999999999999</ele><time>2026-04-18T13:28:38.998Z</time></trkpt><trkpt lat="44.75213055189825" lon="10.14133595881895"><ele>121.19999999999999</ele><time>2026-04-18T13:28:39.998Z</time></trkpt><trkpt lat="44.75219204051118" lon="10.141361953665433"><ele>120.39999999999999</ele><time>2026-04-18T13:28:40.998Z</time></trkpt><trkpt lat="44.75225504663074" lon="10.141385479804"><ele>119.60000000000001</ele><time>2026-04-18T13:28:41.998Z</time></trkpt><trkpt lat="44.75237425880952" lon="10.141419717550146"><ele>118.80000000000001</ele><time>2026-04-18T13:28:44Z</time></trkpt><trkpt lat="44.75249052243643" lon="10.141450634280977"><ele>118.0</ele><time>2026-04-18T13:28:46Z</time></trkpt><trkpt lat="44.752604832689066" lon="10.141465195965392"><ele>117.25</ele><time>2026-04-18T13:28:48Z</time></trkpt><trkpt lat="44.75272315404141" lon="10.141475866007001"><ele>116.5</ele><time>2026-04-18T13:28:50Z</time></trkpt><trkpt lat="44.752837027473284" lon="10.141484656889105"><ele>115.75</ele><time>2026-04-18T13:28:52Z</time></trkpt><trkpt lat="44.75294939967389" lon="10.141489824711266"><ele>115.0</ele><time>2026-04-18T13:28:54Z</time></trkpt><trkpt lat="44.75306415504915" lon="10.141484263931579"><ele>115.0</ele><time>2026-04-18T13:28:56Z</time></trkpt><trkpt lat="44.75317431724142" lon="10.141469191517883"><ele>115.0</ele><time>2026-04-18T13:28:58Z</time></trkpt><trkpt lat="44.75328566918474" lon="10.141451746152775"><ele>115.0</ele><time>2026-04-18T13:29:00Z</time></trkpt><trkpt lat="44.75338802158969" lon="10.14142518638902"><ele>115.0</ele><time>2026-04-18T13:29:02Z</time></trkpt><trkpt lat="44.753491084461835" lon="10.141393661064775"><ele>115.0</ele><time>2026-04-18T13:29:04Z</time></trkpt><trkpt lat="44.753591489205284" lon="10.141363054602856"><ele>118.0</ele><time>2026-04-18T13:29:06Z</time></trkpt><trkpt lat="44.753695978080934" lon="10.141317587094397"><ele>121.0</ele><time>2026-04-18T13:29:08Z</time></trkpt><trkpt lat="44.75379944696613" lon="10.141278723262147"><ele>124.0</ele><time>2026-04-18T13:29:10Z</time></trkpt><trkpt lat="44.75390275935416" lon="10.141233451054564"><ele>127.0</ele><time>2026-04-18T13:29:12Z</time></trkpt><trkpt lat="44.754009616001106" lon="10.14118923200548"><ele>130.0</ele><time>2026-04-18T13:29:14Z</time></trkpt><trkpt lat="44.75411053254729" lon="10.141146955049654"><ele>130.0</ele><time>2026-04-18T13:29:16Z</time></trkpt><trkpt lat="44.754213364266256" lon="10.141111389803312"><ele>130.0</ele><time>2026-04-18T13:29:18Z</time></trkpt><trkpt lat="44.75431495144049" lon="10.141071786332395"><ele>130.0</ele><time>2026-04-18T13:29:20Z</time></trkpt><trkpt lat="44.754416713982295" lon="10.141041567567644"><ele>130.0</ele><time>2026-04-18T13:29:22Z</time></trkpt><trkpt lat="44.754512887312494" lon="10.141015230689376"><ele>130.0</ele><time>2026-04-18T13:29:23.999Z</time></trkpt><trkpt lat="44.75461751936339" lon="10.14099238675937"><ele>131.0</ele><time>2026-04-18T13:29:25.999Z</time></trkpt><trkpt lat="44.754713271227324" lon="10.140976844951831"><ele>132.0</ele><time>2026-04-18T13:29:27.999Z</time></trkpt><trkpt lat="44.75480661379958" lon="10.140961024946282"><ele>133.0</ele><time>2026-04-18T13:29:29.999Z</time></trkpt><trkpt lat="44.75490023805148" lon="10.14096765334603"><ele>134.0</ele><time>2026-04-18T13:29:31.999Z</time></trkpt><trkpt lat="44.75499624620643" lon="10.140958493146204"><ele>135.0</ele><time>2026-04-18T13:29:33.999Z</time></trkpt><trkpt lat="44.7550869375609" lon="10.140945604195874"><ele>135.0</ele><time>2026-04-18T13:29:35.999Z</time></trkpt><trkpt lat="44.75518581453012" lon="10.140935502848418"><ele>135.0</ele><time>2026-04-18T13:29:37.999Z</time></trkpt><trkpt lat="44.75528694784748" lon="10.140933142297522"><ele>135.0</ele><time>2026-04-18T13:29:39.999Z</time></trkpt><trkpt lat="44.75538757487423" lon="10.14092609065043"><ele>135.0</ele><time>2026-04-18T13:29:41.999Z</time></trkpt><trkpt lat="44.75547061791297" lon="10.140911566895438"><ele>135.0</ele><time>2026-04-18T13:29:43.999Z</time></trkpt><trkpt lat="44.75556441648673" lon="10.140889859002556"><ele>135.6</ele><time>2026-04-18T13:29:45.999Z</time></trkpt><trkpt lat="44.755656019097394" lon="10.140859130144719"><ele>136.2</ele><time>2026-04-18T13:29:47.999Z</time></trkpt><trkpt lat="44.7557490415522" lon="10.140821286880252"><ele>136.8</ele><time>2026-04-18T13:29:49.999Z</time></trkpt><trkpt lat="44.75586800058014" lon="10.140798091782324"><ele>137.4</ele><time>2026-04-18T13:29:52.999Z</time></trkpt><trkpt lat="44.755963500128516" lon="10.140757673655438"><ele>138.0</ele><time>2026-04-18T13:29:55.999Z</time></trkpt><trkpt lat="44.75616473062817" lon="10.140775682560584"><ele>138.0</ele><time>2026-04-18T13:30:03.999Z</time></trkpt><trkpt lat="44.75646194505714" lon="10.140771817503712"><ele>138.0</ele><time>2026-04-18T13:30:05.999Z</time></trkpt><trkpt lat="44.756544731291136" lon="10.140768594201948"><ele>138.0</ele><time>2026-04-18T13:30:06.999Z</time></trkpt><trkpt lat="44.75671531239776" lon="10.140727985927452"><ele>138.0</ele><time>2026-04-18T13:30:08.999Z</time></trkpt><trkpt lat="44.75680030641531" lon="10.140724980652019"><ele>138.0</ele><time>2026-04-18T13:30:09.999Z</time></trkpt><trkpt lat="44.7571189074474" lon="10.14073075432517"><ele>138.0</ele><time>2026-04-18T13:30:12.999Z</time></trkpt><trkpt lat="44.757220907168964" lon="10.140744991544409"><ele>137.5</ele><time>2026-04-18T13:30:13.999Z</time></trkpt><trkpt lat="44.75743894146607" lon="10.140728060675771"><ele>137.0</ele><time>2026-04-18T13:30:15.999Z</time></trkpt><trkpt lat="44.75754246735154" lon="10.140727533244789"><ele>136.5</ele><time>2026-04-18T13:30:16.999Z</time></trkpt><trkpt lat="44.75765040424402" lon="10.140732677622806"><ele>136.0</ele><time>2026-04-18T13:30:17.998Z</time></trkpt><trkpt lat="44.75775599175821" lon="10.140735977871064"><ele>135.4</ele><time>2026-04-18T13:30:18.998Z</time></trkpt><trkpt lat="44.757858154164126" lon="10.140738472185015"><ele>134.8</ele><time>2026-04-18T13:30:19.998Z</time></trkpt><trkpt lat="44.75796174004696" lon="10.140740984219383"><ele>134.20000000000002</ele><time>2026-04-18T13:30:20.998Z</time></trkpt><trkpt lat="44.75806481145562" lon="10.140738905846659"><ele>133.6</ele><time>2026-04-18T13:30:21.998Z</time></trkpt><trkpt lat="44.758166130728085" lon="10.140741366571332"><ele>133.0</ele><time>2026-04-18T13:30:22.998Z</time></trkpt><trkpt lat="44.75826547827916" lon="10.140735864508237"><ele>133.0</ele><time>2026-04-18T13:30:23.998Z</time></trkpt><trkpt lat="44.758368235530746" lon="10.140737933797217"><ele>133.0</ele><time>2026-04-18T13:30:24.998Z</time></trkpt><trkpt lat="44.75847359100895" lon="10.14074151084146"><ele>133.0</ele><time>2026-04-18T13:30:25.998Z</time></trkpt><trkpt lat="44.75857357583986" lon="10.140739930923996"><ele>133.0</ele><time>2026-04-18T13:30:26.998Z</time></trkpt><trkpt lat="44.75867541255883" lon="10.140732691743304"><ele>133.0</ele><time>2026-04-18T13:30:27.998Z</time></trkpt><trkpt lat="44.75877671175435" lon="10.140740074904752"><ele>132.4</ele><time>2026-04-18T13:30:28.998Z</time></trkpt><trkpt lat="44.75887617062889" lon="10.140733665847911"><ele>131.8</ele><time>2026-04-18T13:30:29.998Z</time></trkpt><trkpt lat="44.75897436987239" lon="10.140724514375918"><ele>131.2</ele><time>2026-04-18T13:30:30.998Z</time></trkpt><trkpt lat="44.7590661760722" lon="10.14071955474863"><ele>130.6</ele><time>2026-04-18T13:30:31.998Z</time></trkpt><trkpt lat="44.75915492641715" lon="10.140715352685922"><ele>130.0</ele><time>2026-04-18T13:30:32.998Z</time></trkpt><trkpt lat="44.75923583179885" lon="10.140697214909308"><ele>129.75</ele><time>2026-04-18T13:30:33.998Z</time></trkpt><trkpt lat="44.75945466052121" lon="10.140760279640494"><ele>129.5</ele><time>2026-04-18T13:30:34.998Z</time></trkpt><trkpt lat="44.75954673961511" lon="10.140737495698186"><ele>129.25</ele><time>2026-04-18T13:30:35.998Z</time></trkpt><trkpt lat="44.75963400518541" lon="10.14071062051383"><ele>129.0</ele><time>2026-04-18T13:30:36.998Z</time></trkpt><trkpt lat="44.75971891974047" lon="10.140678447529819"><ele>129.5</ele><time>2026-04-18T13:30:37.998Z</time></trkpt><trkpt lat="44.759802818814514" lon="10.140647914015013"><ele>130.0</ele><time>2026-04-18T13:30:38.998Z</time></trkpt><trkpt lat="44.75988854284187" lon="10.140625340509832"><ele>130.5</ele><time>2026-04-18T13:30:39.998Z</time></trkpt><trkpt lat="44.75996059944672" lon="10.140595169379386"><ele>131.0</ele><time>2026-04-18T13:30:40.998Z</time></trkpt><trkpt lat="44.760034354791536" lon="10.140573916643879"><ele>131.5</ele><time>2026-04-18T13:30:41.998Z</time></trkpt><trkpt lat="44.76010696159528" lon="10.140554244635867"><ele>132.0</ele><time>2026-04-18T13:30:42.998Z</time></trkpt><trkpt lat="44.76017797371988" lon="10.140541356359257"><ele>132.14285714285714</ele><time>2026-04-18T13:30:43.998Z</time></trkpt><trkpt lat="44.7602551501435" lon="10.140530290952395"><ele>132.28571428571428</ele><time>2026-04-18T13:30:44.998Z</time></trkpt><trkpt lat="44.76032023084056" lon="10.14052703152134"><ele>132.42857142857144</ele><time>2026-04-18T13:30:45.998Z</time></trkpt><trkpt lat="44.760396405477294" lon="10.14051865985192"><ele>132.57142857142856</ele><time>2026-04-18T13:30:46.998Z</time></trkpt><trkpt lat="44.76047290308242" lon="10.14051216375722"><ele>132.71428571428572</ele><time>2026-04-18T13:30:47.998Z</time></trkpt><trkpt lat="44.76054386979841" lon="10.140504997135952"><ele>132.85714285714286</ele><time>2026-04-18T13:30:49Z</time></trkpt><trkpt lat="44.76060743098088" lon="10.140492047692733"><ele>133.0</ele><time>2026-04-18T13:30:50Z</time></trkpt><trkpt lat="44.76067819139429" lon="10.14049816451019"><ele>133.0</ele><time>2026-04-18T13:30:51Z</time></trkpt><trkpt lat="44.760744182441115" lon="10.140499826940495"><ele>133.0</ele><time>2026-04-18T13:30:52Z</time></trkpt><trkpt lat="44.760813251819776" lon="10.140500258777449"><ele>133.0</ele><time>2026-04-18T13:30:53Z</time></trkpt><trkpt lat="44.760883007966136" lon="10.140495115030259"><ele>133.0</ele><time>2026-04-18T13:30:54Z</time></trkpt><trkpt lat="44.7609462132786" lon="10.140490788958024"><ele>133.0</ele><time>2026-04-18T13:30:55Z</time></trkpt><trkpt lat="44.761076187777725" lon="10.140477337579943"><ele>133.0</ele><time>2026-04-18T13:30:57Z</time></trkpt><trkpt lat="44.76114184580152" lon="10.140475447077987"><ele>132.85714285714286</ele><time>2026-04-18T13:30:58Z</time></trkpt><trkpt lat="44.76121162486396" lon="10.140464514314907"><ele>132.71428571428572</ele><time>2026-04-18T13:30:59Z</time></trkpt><trkpt lat="44.76128565393116" lon="10.140459888406363"><ele>132.57142857142856</ele><time>2026-04-18T13:31:00Z</time></trkpt><trkpt lat="44.76136066178155" lon="10.14045733491067"><ele>132.42857142857144</ele><time>2026-04-18T13:31:01Z</time></trkpt><trkpt lat="44.76143167658726" lon="10.140454443647617"><ele>132.28571428571428</ele><time>2026-04-18T13:31:02Z</time></trkpt><trkpt lat="44.76150231268254" lon="10.140452938607488"><ele>132.14285714285714</ele><time>2026-04-18T13:31:03Z</time></trkpt><trkpt lat="44.76158163483004" lon="10.140438772320463"><ele>132.0</ele><time>2026-04-18T13:31:04Z</time></trkpt><trkpt lat="44.76166039542782" lon="10.140428197696954"><ele>132.0</ele><time>2026-04-18T13:31:05Z</time></trkpt><trkpt lat="44.761742632830014" lon="10.140428694343072"><ele>132.0</ele><time>2026-04-18T13:31:06Z</time></trkpt><trkpt lat="44.76182083233152" lon="10.140422231224987"><ele>132.0</ele><time>2026-04-18T13:31:07Z</time></trkpt><trkpt lat="44.76190009169149" lon="10.140417990102346"><ele>132.0</ele><time>2026-04-18T13:31:08Z</time></trkpt><trkpt lat="44.76197886488404" lon="10.14041668421785"><ele>132.0</ele><time>2026-04-18T13:31:09Z</time></trkpt><trkpt lat="44.762063150893574" lon="10.140426753144954"><ele>132.0</ele><time>2026-04-18T13:31:10Z</time></trkpt><trkpt lat="44.76214432104061" lon="10.140419627168187"><ele>131.83333333333334</ele><time>2026-04-18T13:31:11Z</time></trkpt><trkpt lat="44.762229186344555" lon="10.140415653647972"><ele>131.66666666666666</ele><time>2026-04-18T13:31:12Z</time></trkpt><trkpt lat="44.762314694223825" lon="10.14041097102624"><ele>131.5</ele><time>2026-04-18T13:31:13Z</time></trkpt><trkpt lat="44.762395774177634" lon="10.140407970856394"><ele>131.33333333333331</ele><time>2026-04-18T13:31:14Z</time></trkpt><trkpt lat="44.762477727578776" lon="10.140401490556634"><ele>131.16666666666666</ele><time>2026-04-18T13:31:15Z</time></trkpt><trkpt lat="44.76255681750365" lon="10.14038935369829"><ele>131.0</ele><time>2026-04-18T13:31:16Z</time></trkpt><trkpt lat="44.76263630738629" lon="10.140383351541876"><ele>130.66666666666666</ele><time>2026-04-18T13:31:17Z</time></trkpt><trkpt lat="44.76271675511308" lon="10.1403914984048"><ele>130.33333333333331</ele><time>2026-04-18T13:31:18Z</time></trkpt><trkpt lat="44.7627940048558" lon="10.140381703619084"><ele>130.0</ele><time>2026-04-18T13:31:19Z</time></trkpt><trkpt lat="44.76287278073645" lon="10.140383770592928"><ele>129.66666666666666</ele><time>2026-04-18T13:31:20Z</time></trkpt><trkpt lat="44.7629492580399" lon="10.140374438035717"><ele>129.33333333333334</ele><time>2026-04-18T13:31:21Z</time></trkpt><trkpt lat="44.76302617088513" lon="10.140367025349171"><ele>129.0</ele><time>2026-04-18T13:31:22Z</time></trkpt><trkpt lat="44.76309823208897" lon="10.140354440976589"><ele>129.0</ele><time>2026-04-18T13:31:23Z</time></trkpt><trkpt lat="44.763173051958574" lon="10.140348178787647"><ele>129.0</ele><time>2026-04-18T13:31:24Z</time></trkpt><trkpt lat="44.76324776229051" lon="10.140328588309963"><ele>129.0</ele><time>2026-04-18T13:31:25Z</time></trkpt><trkpt lat="44.76332455511113" lon="10.140310124367074"><ele>129.0</ele><time>2026-04-18T13:31:26Z</time></trkpt><trkpt lat="44.76340368894999" lon="10.140284123769753"><ele>129.0</ele><time>2026-04-18T13:31:26.999Z</time></trkpt><trkpt lat="44.763482671948694" lon="10.140254905009991"><ele>129.0</ele><time>2026-04-18T13:31:27.999Z</time></trkpt><trkpt lat="44.76355999295768" lon="10.14022511541569"><ele>129.33333333333334</ele><time>2026-04-18T13:31:28.999Z</time></trkpt><trkpt lat="44.76363852569346" lon="10.140199499528517"><ele>129.66666666666666</ele><time>2026-04-18T13:31:29.999Z</time></trkpt><trkpt lat="44.76371671581842" lon="10.140168204410486"><ele>130.0</ele><time>2026-04-18T13:31:30.999Z</time></trkpt><trkpt lat="44.7637932546736" lon="10.14013826239135"><ele>130.33333333333331</ele><time>2026-04-18T13:31:31.999Z</time></trkpt><trkpt lat="44.76387127755372" lon="10.140108772408109"><ele>130.66666666666666</ele><time>2026-04-18T13:31:32.999Z</time></trkpt><trkpt lat="44.76394561310068" lon="10.14007772552817"><ele>131.0</ele><time>2026-04-18T13:31:33.999Z</time></trkpt><trkpt lat="44.76402127905476" lon="10.140037672054818"><ele>131.0</ele><time>2026-04-18T13:31:34.999Z</time></trkpt><trkpt lat="44.76409876336289" lon="10.140034195863782"><ele>131.0</ele><time>2026-04-18T13:31:35.999Z</time></trkpt><trkpt lat="44.764170178473364" lon="10.140020700090538"><ele>131.0</ele><time>2026-04-18T13:31:36.999Z</time></trkpt><trkpt lat="44.76423884506514" lon="10.140009595808422"><ele>131.0</ele><time>2026-04-18T13:31:37.999Z</time></trkpt><trkpt lat="44.764309896194966" lon="10.140002494002514"><ele>131.0</ele><time>2026-04-18T13:31:38.999Z</time></trkpt><trkpt lat="44.76437458928163" lon="10.140002621355684"><ele>131.0</ele><time>2026-04-18T13:31:39.999Z</time></trkpt><trkpt lat="44.76444152654709" lon="10.140010443818218"><ele>131.0</ele><time>2026-04-18T13:31:40.999Z</time></trkpt><trkpt lat="44.76450668599628" lon="10.140020901311388"><ele>131.2</ele><time>2026-04-18T13:31:41.999Z</time></trkpt><trkpt lat="44.764628489923865" lon="10.140046648323725"><ele>131.39999999999998</ele><time>2026-04-18T13:31:43.999Z</time></trkpt><trkpt lat="44.76469265229023" lon="10.140061615545234"><ele>131.6</ele><time>2026-04-18T13:31:44.999Z</time></trkpt><trkpt lat="44.764810371029526" lon="10.140090237380281"><ele>131.79999999999998</ele><time>2026-04-18T13:31:46.999Z</time></trkpt><trkpt lat="44.76487261005455" lon="10.140103948461903"><ele>132.0</ele><time>2026-04-18T13:31:47.999Z</time></trkpt><trkpt lat="44.764991378693225" lon="10.140138905187053"><ele>132.0</ele><time>2026-04-18T13:31:49.999Z</time></trkpt><trkpt lat="44.765107248459174" lon="10.140165854989002"><ele>132.0</ele><time>2026-04-18T13:31:51.999Z</time></trkpt><trkpt lat="44.76522286046634" lon="10.140190043575831"><ele>132.0</ele><time>2026-04-18T13:31:53.999Z</time></trkpt><trkpt lat="44.76533601344285" lon="10.14023326225599"><ele>132.0</ele><time>2026-04-18T13:31:55.999Z</time></trkpt><trkpt lat="44.76545177905487" lon="10.140269885372991"><ele>133.0</ele><time>2026-04-18T13:31:57.999Z</time></trkpt><trkpt lat="44.76556682597121" lon="10.140296667251356"><ele>134.0</ele><time>2026-04-18T13:31:59.999Z</time></trkpt><trkpt lat="44.76567720366355" lon="10.14033537032473"><ele>135.0</ele><time>2026-04-18T13:32:01.999Z</time></trkpt><trkpt lat="44.76578678662362" lon="10.1403684647409"><ele>136.0</ele><time>2026-04-18T13:32:03.999Z</time></trkpt><trkpt lat="44.76589302931758" lon="10.140399728750692"><ele>136.0</ele><time>2026-04-18T13:32:05.999Z</time></trkpt><trkpt lat="44.766008611253845" lon="10.140427115853715"><ele>136.0</ele><time>2026-04-18T13:32:07.999Z</time></trkpt><trkpt lat="44.766118488936954" lon="10.14046658895646"><ele>136.0</ele><time>2026-04-18T13:32:09.999Z</time></trkpt><trkpt lat="44.766227271251395" lon="10.140499962899401"><ele>136.0</ele><time>2026-04-18T13:32:11.999Z</time></trkpt><trkpt lat="44.76633291882305" lon="10.14053273488706"><ele>136.4</ele><time>2026-04-18T13:32:13.999Z</time></trkpt><trkpt lat="44.766433634758954" lon="10.140570417493619"><ele>136.8</ele><time>2026-04-18T13:32:15.999Z</time></trkpt><trkpt lat="44.76653906076784" lon="10.14060972072158"><ele>137.20000000000002</ele><time>2026-04-18T13:32:17.999Z</time></trkpt><trkpt lat="44.766636755653806" lon="10.140641557454495"><ele>137.6</ele><time>2026-04-18T13:32:19.999Z</time></trkpt><trkpt lat="44.76671703692438" lon="10.140666225661436"><ele>138.0</ele><time>2026-04-18T13:32:22.998Z</time></trkpt><trkpt lat="44.766829136641974" lon="10.140727781257553"><ele>138.20000000000002</ele><time>2026-04-18T13:32:23.998Z</time></trkpt><trkpt lat="44.766918241344456" lon="10.14077145100771"><ele>138.4</ele><time>2026-04-18T13:32:25.998Z</time></trkpt><trkpt lat="44.76700284851454" lon="10.140806406099928"><ele>138.60000000000002</ele><time>2026-04-18T13:32:27.998Z</time></trkpt><trkpt lat="44.7670703395304" lon="10.140865092562567"><ele>138.8</ele><time>2026-04-18T13:32:29.998Z</time></trkpt><trkpt lat="44.76712023753706" lon="10.140981491597056"><ele>139.0</ele><time>2026-04-18T13:32:31.998Z</time></trkpt><trkpt lat="44.767186494245315" lon="10.141096033382322"><ele>139.0</ele><time>2026-04-18T13:32:33.998Z</time></trkpt><trkpt lat="44.76724931869489" lon="10.141231073837352"><ele>139.0</ele><time>2026-04-18T13:32:35.998Z</time></trkpt><trkpt lat="44.767338861973336" lon="10.14134116973863"><ele>139.0</ele><time>2026-04-18T13:32:37.998Z</time></trkpt><trkpt lat="44.767386548049345" lon="10.141399221438768"><ele>139.0</ele><time>2026-04-18T13:32:38.998Z</time></trkpt><trkpt lat="44.76743187064258" lon="10.14146673026114"><ele>139.0</ele><time>2026-04-18T13:32:39.998Z</time></trkpt><trkpt lat="44.76747993049675" lon="10.141534144444899"><ele>139.0</ele><time>2026-04-18T13:32:40.998Z</time></trkpt><trkpt lat="44.767529475886654" lon="10.141597750299871"><ele>138.71428571428572</ele><time>2026-04-18T13:32:41.998Z</time></trkpt><trkpt lat="44.76757990829481" lon="10.14170268912872"><ele>138.42857142857144</ele><time>2026-04-18T13:32:42.998Z</time></trkpt><trkpt lat="44.7676277194086" lon="10.141774486352883"><ele>138.14285714285717</ele><time>2026-04-18T13:32:43.998Z</time></trkpt><trkpt lat="44.76767627351064" lon="10.141840413712393"><ele>137.85714285714286</ele><time>2026-04-18T13:32:44.998Z</time></trkpt><trkpt lat="44.767728692824164" lon="10.141898725717546"><ele>137.57142857142858</ele><time>2026-04-18T13:32:45.998Z</time></trkpt><trkpt lat="44.76777854296479" lon="10.14196830612895"><ele>137.2857142857143</ele><time>2026-04-18T13:32:46.998Z</time></trkpt><trkpt lat="44.767828538286665" lon="10.142044341865835"><ele>137.0</ele><time>2026-04-18T13:32:47.998Z</time></trkpt><trkpt lat="44.76788520095019" lon="10.142122308182651"><ele>137.0</ele><time>2026-04-18T13:32:48.998Z</time></trkpt><trkpt lat="44.767942324737945" lon="10.142206877981733"><ele>137.0</ele><time>2026-04-18T13:32:49.998Z</time></trkpt><trkpt lat="44.76799680822374" lon="10.142280041026522"><ele>137.0</ele><time>2026-04-18T13:32:50.998Z</time></trkpt><trkpt lat="44.76804471744382" lon="10.14236692983846"><ele>137.0</ele><time>2026-04-18T13:32:51.998Z</time></trkpt><trkpt lat="44.76809505515027" lon="10.142460195864647"><ele>137.0</ele><time>2026-04-18T13:32:52.998Z</time></trkpt><trkpt lat="44.768148581422835" lon="10.142549924471204"><ele>137.0</ele><time>2026-04-18T13:32:53.998Z</time></trkpt><trkpt lat="44.768194336522676" lon="10.142645882459725"><ele>137.0</ele><time>2026-04-18T13:32:55Z</time></trkpt><trkpt lat="44.76824089359965" lon="10.142736728302374"><ele>137.0</ele><time>2026-04-18T13:32:56Z</time></trkpt><trkpt lat="44.768287813988145" lon="10.14283375454482"><ele>137.0</ele><time>2026-04-18T13:32:57Z</time></trkpt><trkpt lat="44.76833827852546" lon="10.142938674278488"><ele>137.0</ele><time>2026-04-18T13:32:58Z</time></trkpt><trkpt lat="44.768385771867706" lon="10.143032021305402"><ele>137.0</ele><time>2026-04-18T13:32:59Z</time></trkpt><trkpt lat="44.76843294508749" lon="10.143121334592403"><ele>137.0</ele><time>2026-04-18T13:33:00Z</time></trkpt><trkpt lat="44.76848286754714" lon="10.143216487989918"><ele>137.0</ele><time>2026-04-18T13:33:01Z</time></trkpt><trkpt lat="44.76853162253897" lon="10.143306753580768"><ele>137.0</ele><time>2026-04-18T13:33:02Z</time></trkpt><trkpt lat="44.76858226321025" lon="10.143393098144832"><ele>137.0</ele><time>2026-04-18T13:33:03Z</time></trkpt><trkpt lat="44.768635313285706" lon="10.143473888880573"><ele>137.0</ele><time>2026-04-18T13:33:04Z</time></trkpt><trkpt lat="44.76868461460043" lon="10.143554297245322"><ele>137.0</ele><time>2026-04-18T13:33:05Z</time></trkpt><trkpt lat="44.768736169928026" lon="10.14363249542529"><ele>137.0</ele><time>2026-04-18T13:33:06Z</time></trkpt><trkpt lat="44.76879032102652" lon="10.143703040387118"><ele>137.0</ele><time>2026-04-18T13:33:07Z</time></trkpt><trkpt lat="44.76883976830416" lon="10.143785571470717"><ele>137.0</ele><time>2026-04-18T13:33:08Z</time></trkpt><trkpt lat="44.76889419933208" lon="10.143864102648577"><ele>137.0</ele><time>2026-04-18T13:33:09Z</time></trkpt><trkpt lat="44.76894924665908" lon="10.143943942117073"><ele>137.0</ele><time>2026-04-18T13:33:10Z</time></trkpt><trkpt lat="44.76900623836389" lon="10.144024519893257"><ele>137.0</ele><time>2026-04-18T13:33:11Z</time></trkpt><trkpt lat="44.76905924136295" lon="10.144103957942496"><ele>137.0</ele><time>2026-04-18T13:33:12Z</time></trkpt><trkpt lat="44.76911360176234" lon="10.144185432226942"><ele>136.83333333333331</ele><time>2026-04-18T13:33:13Z</time></trkpt><trkpt lat="44.769168555779636" lon="10.144267346658209"><ele>136.66666666666666</ele><time>2026-04-18T13:33:14Z</time></trkpt><trkpt lat="44.76922542619467" lon="10.144349263273341"><ele>136.5</ele><time>2026-04-18T13:33:15Z</time></trkpt><trkpt lat="44.769283979460845" lon="10.14443031596655"><ele>136.33333333333334</ele><time>2026-04-18T13:33:16Z</time></trkpt><trkpt lat="44.76933961041148" lon="10.144518415539844"><ele>136.16666666666669</ele><time>2026-04-18T13:33:17Z</time></trkpt><trkpt lat="44.769398502900735" lon="10.1446049505179"><ele>136.0</ele><time>2026-04-18T13:33:18Z</time></trkpt><trkpt lat="44.76946141585762" lon="10.144692851466296"><ele>136.0</ele><time>2026-04-18T13:33:19Z</time></trkpt><trkpt lat="44.76952226029948" lon="10.14477831235265"><ele>136.0</ele><time>2026-04-18T13:33:20Z</time></trkpt><trkpt lat="44.769580597634054" lon="10.144870244620376"><ele>136.0</ele><time>2026-04-18T13:33:21Z</time></trkpt><trkpt lat="44.76964189719287" lon="10.144963418166087"><ele>136.0</ele><time>2026-04-18T13:33:22Z</time></trkpt><trkpt lat="44.76970811052226" lon="10.145048688326915"><ele>136.0</ele><time>2026-04-18T13:33:23Z</time></trkpt><trkpt lat="44.76976826463775" lon="10.145145221071704"><ele>136.0</ele><time>2026-04-18T13:33:24Z</time></trkpt><trkpt lat="44.76982971442463" lon="10.145238235984317"><ele>136.0</ele><time>2026-04-18T13:33:25Z</time></trkpt><trkpt lat="44.76989189320915" lon="10.145329036281566"><ele>136.0</ele><time>2026-04-18T13:33:26Z</time></trkpt><trkpt lat="44.76995470939464" lon="10.145422881591848"><ele>136.0</ele><time>2026-04-18T13:33:27Z</time></trkpt><trkpt lat="44.77001852569393" lon="10.145510126865137"><ele>136.0</ele><time>2026-04-18T13:33:28Z</time></trkpt><trkpt lat="44.77008019515988" lon="10.14560343617335"><ele>136.0</ele><time>2026-04-18T13:33:29Z</time></trkpt><trkpt lat="44.7701413230354" lon="10.14569364372228"><ele>136.0</ele><time>2026-04-18T13:33:30Z</time></trkpt><trkpt lat="44.770200878985335" lon="10.145782902336288"><ele>135.16666666666669</ele><time>2026-04-18T13:33:31Z</time></trkpt><trkpt lat="44.77026146104385" lon="10.145872071033036"><ele>134.33333333333334</ele><time>2026-04-18T13:33:32Z</time></trkpt><trkpt lat="44.77032008972917" lon="10.145961617118656"><ele>133.5</ele><time>2026-04-18T13:33:33Z</time></trkpt><trkpt lat="44.770379742794006" lon="10.146048094690183"><ele>132.66666666666666</ele><time>2026-04-18T13:33:34Z</time></trkpt><trkpt lat="44.77043665166557" lon="10.1461343337601"><ele>131.83333333333331</ele><time>2026-04-18T13:33:34.999Z</time></trkpt><trkpt lat="44.77049456536706" lon="10.14622419895906"><ele>131.0</ele><time>2026-04-18T13:33:35.999Z</time></trkpt><trkpt lat="44.77055286639971" lon="10.146309086452984"><ele>131.0</ele><time>2026-04-18T13:33:36.999Z</time></trkpt><trkpt lat="44.7706104102775" lon="10.146391620295304"><ele>131.0</ele><time>2026-04-18T13:33:37.999Z</time></trkpt><trkpt lat="44.770670163949006" lon="10.146471549571755"><ele>131.0</ele><time>2026-04-18T13:33:38.999Z</time></trkpt><trkpt lat="44.77072827638562" lon="10.146552643778339"><ele>131.0</ele><time>2026-04-18T13:33:39.999Z</time></trkpt><trkpt lat="44.77078649060008" lon="10.146637971912433"><ele>131.0</ele><time>2026-04-18T13:33:40.999Z</time></trkpt><trkpt lat="44.770848922380246" lon="10.146724633346786"><ele>131.0</ele><time>2026-04-18T13:33:41.999Z</time></trkpt><trkpt lat="44.770912733754564" lon="10.146811951253973"><ele>130.8</ele><time>2026-04-18T13:33:42.999Z</time></trkpt><trkpt lat="44.77097725104465" lon="10.14689985929694"><ele>130.6</ele><time>2026-04-18T13:33:43.999Z</time></trkpt><trkpt lat="44.771045285424094" lon="10.14698628163499"><ele>130.4</ele><time>2026-04-18T13:33:44.999Z</time></trkpt><trkpt lat="44.77110845535617" lon="10.147077160836547"><ele>130.2</ele><time>2026-04-18T13:33:45.999Z</time></trkpt><trkpt lat="44.77117657491433" lon="10.14716168294477"><ele>130.0</ele><time>2026-04-18T13:33:46.999Z</time></trkpt><trkpt lat="44.77124230213608" lon="10.147248039762774"><ele>129.8</ele><time>2026-04-18T13:33:47.999Z</time></trkpt><trkpt lat="44.771307994203966" lon="10.147335957885499"><ele>129.6</ele><time>2026-04-18T13:33:48.999Z</time></trkpt><trkpt lat="44.77137636652816" lon="10.147422607490784"><ele>129.4</ele><time>2026-04-18T13:33:49.999Z</time></trkpt><trkpt lat="44.771441733779014" lon="10.147513018716332"><ele>129.2</ele><time>2026-04-18T13:33:50.999Z</time></trkpt><trkpt lat="44.77150662848067" lon="10.147599644724771"><ele>129.0</ele><time>2026-04-18T13:33:51.999Z</time></trkpt><trkpt lat="44.77158229221719" lon="10.147682142888065"><ele>128.83333333333334</ele><time>2026-04-18T13:33:52.999Z</time></trkpt><trkpt lat="44.77164324239426" lon="10.147774085784668"><ele>128.66666666666666</ele><time>2026-04-18T13:33:53.999Z</time></trkpt><trkpt lat="44.7717106069037" lon="10.147861333935834"><ele>128.5</ele><time>2026-04-18T13:33:54.999Z</time></trkpt><trkpt lat="44.77177681446443" lon="10.147947054724359"><ele>128.33333333333331</ele><time>2026-04-18T13:33:55.999Z</time></trkpt><trkpt lat="44.77184159649075" lon="10.14803106790594"><ele>128.16666666666666</ele><time>2026-04-18T13:33:56.999Z</time></trkpt><trkpt lat="44.77190351311139" lon="10.14811960874422"><ele>128.0</ele><time>2026-04-18T13:33:57.999Z</time></trkpt><trkpt lat="44.77197284958783" lon="10.148205474780006"><ele>127.66666666666666</ele><time>2026-04-18T13:33:58.999Z</time></trkpt><trkpt lat="44.77203892685209" lon="10.148290973684896"><ele>127.33333333333333</ele><time>2026-04-18T13:33:59.999Z</time></trkpt><trkpt lat="44.77210434167396" lon="10.148378517597559"><ele>127.0</ele><time>2026-04-18T13:34:00.999Z</time></trkpt><trkpt lat="44.77216802381737" lon="10.148467242138915"><ele>126.66666666666666</ele><time>2026-04-18T13:34:01.999Z</time></trkpt><trkpt lat="44.77223245492898" lon="10.148549322635631"><ele>126.33333333333333</ele><time>2026-04-18T13:34:02.999Z</time></trkpt><trkpt lat="44.77229754190111" lon="10.148634458011665"><ele>126.0</ele><time>2026-04-18T13:34:03.999Z</time></trkpt><trkpt lat="44.772360948473015" lon="10.148718895733834"><ele>126.0</ele><time>2026-04-18T13:34:04.999Z</time></trkpt><trkpt lat="44.772424551018666" lon="10.148801944260937"><ele>126.0</ele><time>2026-04-18T13:34:05.999Z</time></trkpt><trkpt lat="44.77248945463816" lon="10.148882472978311"><ele>126.0</ele><time>2026-04-18T13:34:06.999Z</time></trkpt><trkpt lat="44.77255563787118" lon="10.148963194482933"><ele>126.0</ele><time>2026-04-18T13:34:07.999Z</time></trkpt><trkpt lat="44.772623344742975" lon="10.149051524734174"><ele>126.0</ele><time>2026-04-18T13:34:08.999Z</time></trkpt><trkpt lat="44.77269112572714" lon="10.149145181939103"><ele>126.0</ele><time>2026-04-18T13:34:09.999Z</time></trkpt><trkpt lat="44.77275952211369" lon="10.14923381183333"><ele>126.19999999999999</ele><time>2026-04-18T13:34:10.999Z</time></trkpt><trkpt lat="44.772829654462015" lon="10.149328271074516"><ele>126.39999999999999</ele><time>2026-04-18T13:34:11.999Z</time></trkpt><trkpt lat="44.77289844973485" lon="10.149424501863555"><ele>126.6</ele><time>2026-04-18T13:34:12.999Z</time></trkpt><trkpt lat="44.77296746346489" lon="10.149523025910398"><ele>126.8</ele><time>2026-04-18T13:34:13.999Z</time></trkpt><trkpt lat="44.77303709048893" lon="10.149617461835707"><ele>127.0</ele><time>2026-04-18T13:34:14.999Z</time></trkpt><trkpt lat="44.77310514086836" lon="10.149709372931412"><ele>127.0</ele><time>2026-04-18T13:34:15.999Z</time></trkpt><trkpt lat="44.77317495664765" lon="10.149798105508681"><ele>126.99999999999999</ele><time>2026-04-18T13:34:16.999Z</time></trkpt><trkpt lat="44.77324434038869" lon="10.149881380072538"><ele>126.99999999999999</ele><time>2026-04-18T13:34:17.999Z</time></trkpt><trkpt lat="44.77331090042322" lon="10.149966405372979"><ele>127.0</ele><time>2026-04-18T13:34:18.999Z</time></trkpt><trkpt lat="44.77337421890429" lon="10.150052448796645"><ele>127.0</ele><time>2026-04-18T13:34:19.999Z</time></trkpt><trkpt lat="44.77343907452164" lon="10.150137960327632"><ele>127.00000000000001</ele><time>2026-04-18T13:34:20.999Z</time></trkpt><trkpt lat="44.77350207409853" lon="10.150224531581443"><ele>127.0</ele><time>2026-04-18T13:34:21.999Z</time></trkpt><trkpt lat="44.77356410562605" lon="10.150314162709037"><ele>127.0</ele><time>2026-04-18T13:34:22.999Z</time></trkpt><trkpt lat="44.77362877082906" lon="10.150397740334652"><ele>127.0</ele><time>2026-04-18T13:34:23.999Z</time></trkpt><trkpt lat="44.773698040134896" lon="10.150484865929226"><ele>127.00000000000001</ele><time>2026-04-18T13:34:24.999Z</time></trkpt><trkpt lat="44.77376290199229" lon="10.150571175479865"><ele>127.0</ele><time>2026-04-18T13:34:25.999Z</time></trkpt><trkpt lat="44.77383030175769" lon="10.15066050546864"><ele>126.19999999999999</ele><time>2026-04-18T13:34:26.999Z</time></trkpt><trkpt lat="44.77389408602866" lon="10.15075045471802"><ele>125.39999999999999</ele><time>2026-04-18T13:34:27.999Z</time></trkpt><trkpt lat="44.77396151893589" lon="10.150843236418604"><ele>124.60000000000001</ele><time>2026-04-18T13:34:28.999Z</time></trkpt><trkpt lat="44.77402926417156" lon="10.150928478673727"><ele>123.80000000000001</ele><time>2026-04-18T13:34:29.998Z</time></trkpt><trkpt lat="44.77409619802488" lon="10.15102239360945"><ele>123.0</ele><time>2026-04-18T13:34:30.998Z</time></trkpt><trkpt lat="44.77416481730864" lon="10.151106778277438"><ele>123.0</ele><time>2026-04-18T13:34:31.998Z</time></trkpt><trkpt lat="44.774232050447644" lon="10.151196358469255"><ele>123.00000000000001</ele><time>2026-04-18T13:34:32.998Z</time></trkpt><trkpt lat="44.77430474950274" lon="10.151279683384754"><ele>123.00000000000001</ele><time>2026-04-18T13:34:33.998Z</time></trkpt><trkpt lat="44.77436666645363" lon="10.151377931671545"><ele>123.0</ele><time>2026-04-18T13:34:34.998Z</time></trkpt><trkpt lat="44.77443323590428" lon="10.15146916738489"><ele>123.0</ele><time>2026-04-18T13:34:35.998Z</time></trkpt><trkpt lat="44.774500611448396" lon="10.151558618670311"><ele>122.60000000000001</ele><time>2026-04-18T13:34:36.998Z</time></trkpt><trkpt lat="44.77456775780244" lon="10.151644932144439"><ele>122.20000000000002</ele><time>2026-04-18T13:34:37.998Z</time></trkpt><trkpt lat="44.77463412837677" lon="10.151736657589545"><ele>121.8</ele><time>2026-04-18T13:34:38.998Z</time></trkpt><trkpt lat="44.77470223577278" lon="10.151825866659143"><ele>121.4</ele><time>2026-04-18T13:34:39.998Z</time></trkpt><trkpt lat="44.77476840947044" lon="10.151913896359138"><ele>121.0</ele><time>2026-04-18T13:34:40.998Z</time></trkpt><trkpt lat="44.77483531310602" lon="10.151999055623987"><ele>121.0</ele><time>2026-04-18T13:34:41.998Z</time></trkpt><trkpt lat="44.77490024028842" lon="10.152091488831728"><ele>121.0</ele><time>2026-04-18T13:34:42.998Z</time></trkpt><trkpt lat="44.7749709055032" lon="10.152177282127408"><ele>121.0</ele><time>2026-04-18T13:34:43.998Z</time></trkpt><trkpt lat="44.775036319608034" lon="10.152270580913518"><ele>121.0</ele><time>2026-04-18T13:34:44.998Z</time></trkpt><trkpt lat="44.77510441112231" lon="10.152362348379684"><ele>121.0</ele><time>2026-04-18T13:34:45.998Z</time></trkpt><trkpt lat="44.77517484191325" lon="10.15244826201691"><ele>121.0</ele><time>2026-04-18T13:34:46.998Z</time></trkpt><trkpt lat="44.77524410874282" lon="10.152539936475296"><ele>121.0</ele><time>2026-04-18T13:34:47.998Z</time></trkpt><trkpt lat="44.77531558612969" lon="10.152627161331157"><ele>121.0</ele><time>2026-04-18T13:34:48.998Z</time></trkpt><trkpt lat="44.775383003152356" lon="10.152720050846037"><ele>121.0</ele><time>2026-04-18T13:34:49.998Z</time></trkpt><trkpt lat="44.775451804090366" lon="10.152808799056096"><ele>121.0</ele><time>2026-04-18T13:34:50.998Z</time></trkpt><trkpt lat="44.77551927113587" lon="10.152895941832583"><ele>121.00000000000001</ele><time>2026-04-18T13:34:51.998Z</time></trkpt><trkpt lat="44.77558431781302" lon="10.152987064999554"><ele>121.0</ele><time>2026-04-18T13:34:52.998Z</time></trkpt><trkpt lat="44.775651999148735" lon="10.15307055657171"><ele>121.0</ele><time>2026-04-18T13:34:53.998Z</time></trkpt><trkpt lat="44.77571514919787" lon="10.153156529511092"><ele>121.0</ele><time>2026-04-18T13:34:54.998Z</time></trkpt><trkpt lat="44.77577853280212" lon="10.1532421690947"><ele>121.00000000000001</ele><time>2026-04-18T13:34:55.998Z</time></trkpt><trkpt lat="44.775840936028914" lon="10.153326384034687"><ele>121.0</ele><time>2026-04-18T13:34:56.998Z</time></trkpt><trkpt lat="44.77590516179774" lon="10.153409501218428"><ele>121.00000000000001</ele><time>2026-04-18T13:34:57.998Z</time></trkpt><trkpt lat="44.77596993068374" lon="10.153487418851663"><ele>121.0</ele><time>2026-04-18T13:34:58.998Z</time></trkpt><trkpt lat="44.776032210009994" lon="10.153573326356359"><ele>121.0</ele><time>2026-04-18T13:35:00Z</time></trkpt><trkpt lat="44.77610203429891" lon="10.153648567105606"><ele>121.0</ele><time>2026-04-18T13:35:01Z</time></trkpt><trkpt lat="44.77616670938708" lon="10.153734162571482"><ele>121.00000000000001</ele><time>2026-04-18T13:35:02Z</time></trkpt><trkpt lat="44.77623691479669" lon="10.153819028652013"><ele>121.0</ele><time>2026-04-18T13:35:03Z</time></trkpt><trkpt lat="44.776303882690925" lon="10.153906100417613"><ele>121.0</ele><time>2026-04-18T13:35:04Z</time></trkpt><trkpt lat="44.77637370673753" lon="10.153988481502054"><ele>121.0</ele><time>2026-04-18T13:35:05Z</time></trkpt><trkpt lat="44.776444248825186" lon="10.154070926860108"><ele>121.0</ele><time>2026-04-18T13:35:06Z</time></trkpt><trkpt lat="44.77651295022949" lon="10.154152699038965"><ele>121.0</ele><time>2026-04-18T13:35:07Z</time></trkpt><trkpt lat="44.77658123464079" lon="10.154237744336552"><ele>121.0</ele><time>2026-04-18T13:35:08Z</time></trkpt><trkpt lat="44.77665547049774" lon="10.154317815259843"><ele>120.6</ele><time>2026-04-18T13:35:09Z</time></trkpt><trkpt lat="44.776725873852655" lon="10.154404955350225"><ele>120.19999999999999</ele><time>2026-04-18T13:35:10Z</time></trkpt><trkpt lat="44.77679534337421" lon="10.15449617457482"><ele>119.80000000000001</ele><time>2026-04-18T13:35:11Z</time></trkpt><trkpt lat="44.77686746250617" lon="10.154586450380359"><ele>119.4</ele><time>2026-04-18T13:35:12Z</time></trkpt><trkpt lat="44.77694189232939" lon="10.154677506368026"><ele>119.0</ele><time>2026-04-18T13:35:13Z</time></trkpt><trkpt lat="44.77701739996409" lon="10.15476920433458"><ele>118.80000000000001</ele><time>2026-04-18T13:35:14Z</time></trkpt><trkpt lat="44.777098463196104" lon="10.15485629522084"><ele>118.60000000000001</ele><time>2026-04-18T13:35:15Z</time></trkpt><trkpt lat="44.77717361429938" lon="10.154948152221563"><ele>118.4</ele><time>2026-04-18T13:35:16Z</time></trkpt><trkpt lat="44.77724807764041" lon="10.155042528370238"><ele>118.2</ele><time>2026-04-18T13:35:17Z</time></trkpt><trkpt lat="44.77732164558631" lon="10.155135770387915"><ele>118.0</ele><time>2026-04-18T13:35:18Z</time></trkpt><trkpt lat="44.77740283595685" lon="10.155222649510321"><ele>117.60000000000001</ele><time>2026-04-18T13:35:19Z</time></trkpt><trkpt lat="44.77747994599729" lon="10.155311256318532"><ele>117.20000000000002</ele><time>2026-04-18T13:35:20Z</time></trkpt><trkpt lat="44.77755917255688" lon="10.155403233895976"><ele>116.8</ele><time>2026-04-18T13:35:21Z</time></trkpt><trkpt lat="44.77763725891888" lon="10.155493272576896"><ele>116.4</ele><time>2026-04-18T13:35:22Z</time></trkpt><trkpt lat="44.77771816310777" lon="10.15557771401342"><ele>116.0</ele><time>2026-04-18T13:35:23Z</time></trkpt><trkpt lat="44.77778947198567" lon="10.155687510153061"><ele>116.0</ele><time>2026-04-18T13:35:24Z</time></trkpt><trkpt lat="44.77787126054093" lon="10.155770099330507"><ele>116.0</ele><time>2026-04-18T13:35:25Z</time></trkpt><trkpt lat="44.77793823922396" lon="10.155872878666052"><ele>116.0</ele><time>2026-04-18T13:35:26Z</time></trkpt><trkpt lat="44.77801148701306" lon="10.155962582120768"><ele>116.0</ele><time>2026-04-18T13:35:27Z</time></trkpt><trkpt lat="44.77808347597481" lon="10.156050453240342"><ele>116.0</ele><time>2026-04-18T13:35:28Z</time></trkpt><trkpt lat="44.778159606902214" lon="10.15611737382761"><ele>116.0</ele><time>2026-04-18T13:35:29Z</time></trkpt><trkpt lat="44.778223302904415" lon="10.15621075718107"><ele>116.0</ele><time>2026-04-18T13:35:30Z</time></trkpt><trkpt lat="44.7782904145048" lon="10.156299258980038"><ele>116.0</ele><time>2026-04-18T13:35:31Z</time></trkpt><trkpt lat="44.778356573488274" lon="10.156386134467352"><ele>116.0</ele><time>2026-04-18T13:35:32Z</time></trkpt><trkpt lat="44.778424001074136" lon="10.156474845438593"><ele>116.0</ele><time>2026-04-18T13:35:33Z</time></trkpt><trkpt lat="44.77848883758034" lon="10.15656470332191"><ele>115.4</ele><time>2026-04-18T13:35:34Z</time></trkpt><trkpt lat="44.77855747355829" lon="10.156653392131261"><ele>114.8</ele><time>2026-04-18T13:35:35Z</time></trkpt><trkpt lat="44.77862592996681" lon="10.156747526298853"><ele>114.20000000000002</ele><time>2026-04-18T13:35:36Z</time></trkpt><trkpt lat="44.778695116367324" lon="10.156843932631226"><ele>113.60000000000001</ele><time>2026-04-18T13:35:37Z</time></trkpt><trkpt lat="44.77876218217464" lon="10.15693835890503"><ele>113.0</ele><time>2026-04-18T13:35:38Z</time></trkpt><trkpt lat="44.77882838649923" lon="10.15703522627443"><ele>113.0</ele><time>2026-04-18T13:35:38.999Z</time></trkpt><trkpt lat="44.77889138998935" lon="10.157135628516563"><ele>113.00000000000001</ele><time>2026-04-18T13:35:39.999Z</time></trkpt><trkpt lat="44.77894890876431" lon="10.157232115718541"><ele>113.00000000000001</ele><time>2026-04-18T13:35:40.999Z</time></trkpt><trkpt lat="44.77901908481002" lon="10.157323969273847"><ele>113.0</ele><time>2026-04-18T13:35:41.999Z</time></trkpt><trkpt lat="44.77908039530839" lon="10.157426142076075"><ele>113.0</ele><time>2026-04-18T13:35:42.999Z</time></trkpt><trkpt lat="44.77914271603414" lon="10.157527432613902"><ele>113.0</ele><time>2026-04-18T13:35:43.999Z</time></trkpt><trkpt lat="44.7792081527228" lon="10.157629557526748"><ele>113.00000000000001</ele><time>2026-04-18T13:35:44.999Z</time></trkpt><trkpt lat="44.77928361313804" lon="10.157732133312713"><ele>113.00000000000001</ele><time>2026-04-18T13:35:45.999Z</time></trkpt><trkpt lat="44.77935708896652" lon="10.157823872116257"><ele>113.0</ele><time>2026-04-18T13:35:46.999Z</time></trkpt><trkpt lat="44.77942880439905" lon="10.157914014863069"><ele>113.0</ele><time>2026-04-18T13:35:47.999Z</time></trkpt><trkpt lat="44.77949929339228" lon="10.158008279696288"><ele>113.0</ele><time>2026-04-18T13:35:48.999Z</time></trkpt><trkpt lat="44.779573292646134" lon="10.15809933471264"><ele>113.00000000000001</ele><time>2026-04-18T13:35:49.999Z</time></trkpt><trkpt lat="44.77964612929428" lon="10.158188734987194"><ele>113.00000000000001</ele><time>2026-04-18T13:35:50.999Z</time></trkpt><trkpt lat="44.779715573280875" lon="10.15827331929161"><ele>113.0</ele><time>2026-04-18T13:35:51.999Z</time></trkpt><trkpt lat="44.77977820677155" lon="10.158353919803831"><ele>113.0</ele><time>2026-04-18T13:35:52.999Z</time></trkpt><trkpt lat="44.77984436136375" lon="10.158428630974148"><ele>112.49999999999999</ele><time>2026-04-18T13:35:53.999Z</time></trkpt><trkpt lat="44.779907615097315" lon="10.158501942933743"><ele>112.0</ele><time>2026-04-18T13:35:54.999Z</time></trkpt><trkpt lat="44.77996021734883" lon="10.158585103273227"><ele>111.5</ele><time>2026-04-18T13:35:55.999Z</time></trkpt><trkpt lat="44.7800010782547" lon="10.158667565224231"><ele>111.0</ele><time>2026-04-18T13:35:56.999Z</time></trkpt><trkpt lat="44.78003216976804" lon="10.158754937317001"><ele>110.49999999999999</ele><time>2026-04-18T13:35:57.999Z</time></trkpt><trkpt lat="44.78005265612342" lon="10.158854270255265"><ele>110.0</ele><time>2026-04-18T13:35:58.999Z</time></trkpt><trkpt lat="44.7800645386069" lon="10.158961771654761"><ele>109.83333333333333</ele><time>2026-04-18T13:35:59.999Z</time></trkpt><trkpt lat="44.78008662360828" lon="10.159067445146007"><ele>109.66666666666666</ele><time>2026-04-18T13:36:00.999Z</time></trkpt><trkpt lat="44.780131749306676" lon="10.159161674217097"><ele>109.5</ele><time>2026-04-18T13:36:01.999Z</time></trkpt><trkpt lat="44.78018941522723" lon="10.159243606219587"><ele>109.33333333333334</ele><time>2026-04-18T13:36:02.999Z</time></trkpt><trkpt lat="44.78025613740869" lon="10.159306435575848"><ele>109.16666666666667</ele><time>2026-04-18T13:36:03.999Z</time></trkpt><trkpt lat="44.78032384915909" lon="10.159356471702385"><ele>109.0</ele><time>2026-04-18T13:36:04.999Z</time></trkpt><trkpt lat="44.7803984899413" lon="10.159383821446747"><ele>109.0</ele><time>2026-04-18T13:36:05.999Z</time></trkpt><trkpt lat="44.78047371862686" lon="10.159379139746138"><ele>109.0</ele><time>2026-04-18T13:36:06.999Z</time></trkpt><trkpt lat="44.78054529343199" lon="10.159340618892026"><ele>109.0</ele><time>2026-04-18T13:36:07.999Z</time></trkpt><trkpt lat="44.78060524170026" lon="10.159272403610204"><ele>109.0</ele><time>2026-04-18T13:36:08.999Z</time></trkpt><trkpt lat="44.78062676103993" lon="10.159166355663872"><ele>109.0</ele><time>2026-04-18T13:36:09.999Z</time></trkpt><trkpt lat="44.78064924760524" lon="10.159075132818149"><ele>109.0</ele><time>2026-04-18T13:36:10.999Z</time></trkpt><trkpt lat="44.78065536522349" lon="10.158979244839067"><ele>109.0</ele><time>2026-04-18T13:36:11.999Z</time></trkpt><trkpt lat="44.78065009677317" lon="10.15888144022806"><ele>109.0</ele><time>2026-04-18T13:36:12.999Z</time></trkpt><trkpt lat="44.78065279586213" lon="10.15878373270383"><ele>109.0</ele><time>2026-04-18T13:36:13.999Z</time></trkpt><trkpt lat="44.78080485719502" lon="10.158619605118265"><ele>109.0</ele><time>2026-04-18T13:36:15.999Z</time></trkpt><trkpt lat="44.7808697311592" lon="10.158558149048526"><ele>109.0</ele><time>2026-04-18T13:36:16.999Z</time></trkpt><trkpt lat="44.78093344383212" lon="10.158494914323564"><ele>109.0</ele><time>2026-04-18T13:36:17.999Z</time></trkpt><trkpt lat="44.78099007839928" lon="10.158423216821829"><ele>108.85714285714286</ele><time>2026-04-18T13:36:18.999Z</time></trkpt><trkpt lat="44.781049423333016" lon="10.158354996787077"><ele>108.71428571428572</ele><time>2026-04-18T13:36:19.999Z</time></trkpt><trkpt lat="44.781107186044366" lon="10.158283787397478"><ele>108.57142857142857</ele><time>2026-04-18T13:36:20.999Z</time></trkpt><trkpt lat="44.781163443222695" lon="10.158221387237647"><ele>108.42857142857143</ele><time>2026-04-18T13:36:21.999Z</time></trkpt><trkpt lat="44.781219430105935" lon="10.158161148252708"><ele>108.28571428571428</ele><time>2026-04-18T13:36:22.999Z</time></trkpt><trkpt lat="44.781275895233875" lon="10.158099717909959"><ele>108.14285714285714</ele><time>2026-04-18T13:36:23.999Z</time></trkpt><trkpt lat="44.78133513488384" lon="10.15803646354883"><ele>108.0</ele><time>2026-04-18T13:36:24.999Z</time></trkpt><trkpt lat="44.781388872510696" lon="10.157967936494764"><ele>108.42857142857143</ele><time>2026-04-18T13:36:25.999Z</time></trkpt><trkpt lat="44.7814439461893" lon="10.157901055876827"><ele>108.85714285714286</ele><time>2026-04-18T13:36:26.999Z</time></trkpt><trkpt lat="44.78149997977961" lon="10.15783713114242"><ele>109.28571428571428</ele><time>2026-04-18T13:36:27.999Z</time></trkpt><trkpt lat="44.78155407912375" lon="10.157777116159123"><ele>109.71428571428572</ele><time>2026-04-18T13:36:28.999Z</time></trkpt><trkpt lat="44.781607744002905" lon="10.157718190919597"><ele>110.14285714285715</ele><time>2026-04-18T13:36:29.999Z</time></trkpt><trkpt lat="44.7816606146936" lon="10.157654647105273"><ele>110.57142857142857</ele><time>2026-04-18T13:36:30.999Z</time></trkpt><trkpt lat="44.78171116613165" lon="10.15759148921828"><ele>111.0</ele><time>2026-04-18T13:36:31.999Z</time></trkpt><trkpt lat="44.781766782185024" lon="10.157528636696176"><ele>111.0</ele><time>2026-04-18T13:36:32.999Z</time></trkpt><trkpt lat="44.78181900532686" lon="10.157465473231683"><ele>111.0</ele><time>2026-04-18T13:36:33.999Z</time></trkpt><trkpt lat="44.78187127329563" lon="10.157404039554907"><ele>111.0</ele><time>2026-04-18T13:36:34.998Z</time></trkpt><trkpt lat="44.781929051525395" lon="10.157344438457182"><ele>111.0</ele><time>2026-04-18T13:36:35.998Z</time></trkpt><trkpt lat="44.78198345197747" lon="10.157281898521099"><ele>111.0</ele><time>2026-04-18T13:36:36.998Z</time></trkpt><trkpt lat="44.78203552627796" lon="10.157217778200637"><ele>111.0</ele><time>2026-04-18T13:36:37.998Z</time></trkpt><trkpt lat="44.78208726151545" lon="10.157153807273637"><ele>111.0</ele><time>2026-04-18T13:36:38.998Z</time></trkpt><trkpt lat="44.782139507108106" lon="10.157088245705783"><ele>111.14285714285714</ele><time>2026-04-18T13:36:39.998Z</time></trkpt><trkpt lat="44.78219527670327" lon="10.157030090450334"><ele>111.28571428571429</ele><time>2026-04-18T13:36:40.998Z</time></trkpt><trkpt lat="44.78224844784168" lon="10.156965770095454"><ele>111.42857142857143</ele><time>2026-04-18T13:36:41.998Z</time></trkpt><trkpt lat="44.782302871398336" lon="10.156904027577689"><ele>111.57142857142857</ele><time>2026-04-18T13:36:42.998Z</time></trkpt><trkpt lat="44.782359436252335" lon="10.15684234354855"><ele>111.71428571428572</ele><time>2026-04-18T13:36:43.998Z</time></trkpt><trkpt lat="44.78241715146302" lon="10.156781176843019"><ele>111.85714285714286</ele><time>2026-04-18T13:36:44.998Z</time></trkpt><trkpt lat="44.782474183858504" lon="10.156716647853129"><ele>112.0</ele><time>2026-04-18T13:36:45.998Z</time></trkpt><trkpt lat="44.78253094173848" lon="10.156650911927315"><ele>112.0</ele><time>2026-04-18T13:36:46.998Z</time></trkpt><trkpt lat="44.78258779834026" lon="10.156583196161014"><ele>112.0</ele><time>2026-04-18T13:36:47.998Z</time></trkpt><trkpt lat="44.782647330631434" lon="10.156515764150639"><ele>112.0</ele><time>2026-04-18T13:36:48.998Z</time></trkpt><trkpt lat="44.78270452121379" lon="10.15644882909846"><ele>112.0</ele><time>2026-04-18T13:36:49.998Z</time></trkpt><trkpt lat="44.782761229694806" lon="10.156381986642433"><ele>112.0</ele><time>2026-04-18T13:36:50.998Z</time></trkpt><trkpt lat="44.78281733565521" lon="10.156312210116626"><ele>112.0</ele><time>2026-04-18T13:36:51.998Z</time></trkpt><trkpt lat="44.782874926596435" lon="10.156243681338397"><ele>112.0</ele><time>2026-04-18T13:36:52.998Z</time></trkpt><trkpt lat="44.78293476677892" lon="10.156177142166326"><ele>111.66666666666667</ele><time>2026-04-18T13:36:53.998Z</time></trkpt><trkpt lat="44.782997220767705" lon="10.156108158662446"><ele>111.33333333333334</ele><time>2026-04-18T13:36:54.998Z</time></trkpt><trkpt lat="44.78305554814466" lon="10.156037359596715"><ele>111.0</ele><time>2026-04-18T13:36:55.998Z</time></trkpt><trkpt lat="44.7831164342841" lon="10.155970261759954"><ele>110.66666666666666</ele><time>2026-04-18T13:36:56.998Z</time></trkpt><trkpt lat="44.783176216931274" lon="10.155901667626791"><ele>110.33333333333333</ele><time>2026-04-18T13:36:57.998Z</time></trkpt><trkpt lat="44.78323739754175" lon="10.155833980275391"><ele>110.0</ele><time>2026-04-18T13:36:58.998Z</time></trkpt><trkpt lat="44.78329661142575" lon="10.15576319275087"><ele>109.99999999999999</ele><time>2026-04-18T13:36:59.998Z</time></trkpt><trkpt lat="44.783358261607766" lon="10.155689798576505"><ele>110.0</ele><time>2026-04-18T13:37:00.998Z</time></trkpt><trkpt lat="44.78342072832163" lon="10.155617628916392"><ele>110.0</ele><time>2026-04-18T13:37:01.998Z</time></trkpt><trkpt lat="44.78348551424723" lon="10.155544329885108"><ele>110.0</ele><time>2026-04-18T13:37:02.998Z</time></trkpt><trkpt lat="44.78354953089633" lon="10.155467353496881"><ele>109.99999999999999</ele><time>2026-04-18T13:37:03.998Z</time></trkpt><trkpt lat="44.78361527803071" lon="10.155391336804621"><ele>110.0</ele><time>2026-04-18T13:37:04.998Z</time></trkpt><trkpt lat="44.78368039628897" lon="10.155311602801637"><ele>109.66666666666666</ele><time>2026-04-18T13:37:06Z</time></trkpt><trkpt lat="44.783745887721366" lon="10.155233327167629"><ele>109.33333333333333</ele><time>2026-04-18T13:37:07Z</time></trkpt><trkpt lat="44.78381066753961" lon="10.155158566613306"><ele>109.0</ele><time>2026-04-18T13:37:08Z</time></trkpt><trkpt lat="44.783874499057525" lon="10.155083932247358"><ele>108.66666666666666</ele><time>2026-04-18T13:37:09Z</time></trkpt><trkpt lat="44.7839401303281" lon="10.155008585183879"><ele>108.33333333333333</ele><time>2026-04-18T13:37:10Z</time></trkpt><trkpt lat="44.784004048663064" lon="10.154933064873525"><ele>108.0</ele><time>2026-04-18T13:37:11Z</time></trkpt><trkpt lat="44.78406760672795" lon="10.154852402531693"><ele>108.0</ele><time>2026-04-18T13:37:12Z</time></trkpt><trkpt lat="44.78413403030949" lon="10.154775158370212"><ele>108.0</ele><time>2026-04-18T13:37:13Z</time></trkpt><trkpt lat="44.7842071948591" lon="10.154701142934623"><ele>108.0</ele><time>2026-04-18T13:37:14Z</time></trkpt><trkpt lat="44.78427173128302" lon="10.154618400846743"><ele>108.0</ele><time>2026-04-18T13:37:15Z</time></trkpt><trkpt lat="44.7843394560075" lon="10.15453675255938"><ele>108.0</ele><time>2026-04-18T13:37:16Z</time></trkpt><trkpt lat="44.78440699335534" lon="10.154454116588356"><ele>108.0</ele><time>2026-04-18T13:37:17Z</time></trkpt><trkpt lat="44.784483755829356" lon="10.154375918098355"><ele>108.0</ele><time>2026-04-18T13:37:18Z</time></trkpt><trkpt lat="44.78455033165283" lon="10.15429189276637"><ele>108.0</ele><time>2026-04-18T13:37:19Z</time></trkpt><trkpt lat="44.78462872096179" lon="10.15421248572844"><ele>108.0</ele><time>2026-04-18T13:37:20Z</time></trkpt><trkpt lat="44.78469338013837" lon="10.154134419735062"><ele>108.0</ele><time>2026-04-18T13:37:21Z</time></trkpt><trkpt lat="44.78475991174226" lon="10.154057162364385"><ele>108.0</ele><time>2026-04-18T13:37:22Z</time></trkpt><trkpt lat="44.78482665455774" lon="10.153978267113265"><ele>108.0</ele><time>2026-04-18T13:37:23Z</time></trkpt><trkpt lat="44.78488915029876" lon="10.153903908246397"><ele>107.83333333333333</ele><time>2026-04-18T13:37:24Z</time></trkpt><trkpt lat="44.7849553314746" lon="10.153829256799588"><ele>107.66666666666666</ele><time>2026-04-18T13:37:25Z</time></trkpt><trkpt lat="44.78501785960036" lon="10.153753724534877"><ele>107.5</ele><time>2026-04-18T13:37:26Z</time></trkpt><trkpt lat="44.78508166817071" lon="10.153674921949005"><ele>107.33333333333333</ele><time>2026-04-18T13:37:27Z</time></trkpt><trkpt lat="44.785148979440635" lon="10.153598940564713"><ele>107.16666666666666</ele><time>2026-04-18T13:37:28Z</time></trkpt><trkpt lat="44.78521890169787" lon="10.153522090687655"><ele>107.0</ele><time>2026-04-18T13:37:29Z</time></trkpt><trkpt lat="44.785284957608305" lon="10.153443899613078"><ele>106.99999999999999</ele><time>2026-04-18T13:37:30Z</time></trkpt><trkpt lat="44.78535069031664" lon="10.153366375332816"><ele>107.0</ele><time>2026-04-18T13:37:31Z</time></trkpt><trkpt lat="44.785415832968376" lon="10.153291972708123"><ele>107.0</ele><time>2026-04-18T13:37:32Z</time></trkpt><trkpt lat="44.785477505041584" lon="10.153216725805251"><ele>107.0</ele><time>2026-04-18T13:37:33Z</time></trkpt><trkpt lat="44.785543047323586" lon="10.153139012611256"><ele>106.99999999999999</ele><time>2026-04-18T13:37:34Z</time></trkpt><trkpt lat="44.785615644882505" lon="10.153068101593922"><ele>107.0</ele><time>2026-04-18T13:37:35Z</time></trkpt><trkpt lat="44.78567561314934" lon="10.1529868497008"><ele>106.83333333333333</ele><time>2026-04-18T13:37:36Z</time></trkpt><trkpt lat="44.78574301653642" lon="10.152911782974567"><ele>106.66666666666666</ele><time>2026-04-18T13:37:37Z</time></trkpt><trkpt lat="44.7858092446545" lon="10.152833989959905"><ele>106.5</ele><time>2026-04-18T13:37:38Z</time></trkpt><trkpt lat="44.785875356487836" lon="10.152757352505471"><ele>106.33333333333334</ele><time>2026-04-18T13:37:39Z</time></trkpt><trkpt lat="44.785939961396146" lon="10.152679969357326"><ele>106.16666666666667</ele><time>2026-04-18T13:37:40Z</time></trkpt><trkpt lat="44.78600857369983" lon="10.152598959225486"><ele>106.0</ele><time>2026-04-18T13:37:41Z</time></trkpt><trkpt lat="44.78608001155637" lon="10.152523388057206"><ele>106.0</ele><time>2026-04-18T13:37:41.999Z</time></trkpt><trkpt lat="44.78614276771988" lon="10.15243938238924"><ele>106.0</ele><time>2026-04-18T13:37:42.999Z</time></trkpt><trkpt lat="44.78621756288094" lon="10.15236251900238"><ele>106.0</ele><time>2026-04-18T13:37:43.999Z</time></trkpt><trkpt lat="44.78628694260936" lon="10.152281233687368"><ele>106.0</ele><time>2026-04-18T13:37:44.999Z</time></trkpt><trkpt lat="44.78635095560363" lon="10.152195522668581"><ele>106.0</ele><time>2026-04-18T13:37:45.999Z</time></trkpt><trkpt lat="44.7864262885979" lon="10.1521206637223"><ele>106.00000000000001</ele><time>2026-04-18T13:37:46.999Z</time></trkpt><trkpt lat="44.786494415884704" lon="10.152041372236084"><ele>106.0</ele><time>2026-04-18T13:37:47.999Z</time></trkpt><trkpt lat="44.7865635135187" lon="10.151962253376748"><ele>106.0</ele><time>2026-04-18T13:37:48.999Z</time></trkpt><trkpt lat="44.78662669890414" lon="10.151882270956746"><ele>106.0</ele><time>2026-04-18T13:37:49.999Z</time></trkpt><trkpt lat="44.786694423279876" lon="10.151804057043478"><ele>106.00000000000001</ele><time>2026-04-18T13:37:50.999Z</time></trkpt><trkpt lat="44.786759844468335" lon="10.151728613109888"><ele>106.0</ele><time>2026-04-18T13:37:51.999Z</time></trkpt><trkpt lat="44.786826775966254" lon="10.151652527970294"><ele>106.00000000000001</ele><time>2026-04-18T13:37:52.999Z</time></trkpt><trkpt lat="44.786896396896566" lon="10.15157712051453"><ele>106.0</ele><time>2026-04-18T13:37:53.999Z</time></trkpt><trkpt lat="44.7869581333757" lon="10.151501439957048"><ele>106.0</ele><time>2026-04-18T13:37:54.999Z</time></trkpt><trkpt lat="44.78702452065067" lon="10.15142667639726"><ele>106.0</ele><time>2026-04-18T13:37:55.999Z</time></trkpt><trkpt lat="44.78709109287486" lon="10.151347355156513"><ele>106.00000000000001</ele><time>2026-04-18T13:37:56.999Z</time></trkpt><trkpt lat="44.78715682495715" lon="10.15126966137925"><ele>106.0</ele><time>2026-04-18T13:37:57.999Z</time></trkpt><trkpt lat="44.78723177229339" lon="10.151191869039858"><ele>106.00000000000001</ele><time>2026-04-18T13:37:58.999Z</time></trkpt><trkpt lat="44.78729582964404" lon="10.151110500717872"><ele>106.0</ele><time>2026-04-18T13:37:59.999Z</time></trkpt><trkpt lat="44.78736445346884" lon="10.151030146289726"><ele>106.0</ele><time>2026-04-18T13:38:00.999Z</time></trkpt><trkpt lat="44.787431632076824" lon="10.150951187774844"><ele>106.0</ele><time>2026-04-18T13:38:01.999Z</time></trkpt><trkpt lat="44.787501863289755" lon="10.150873621786038"><ele>106.00000000000001</ele><time>2026-04-18T13:38:02.999Z</time></trkpt><trkpt lat="44.78756918892138" lon="10.150794315632705"><ele>106.0</ele><time>2026-04-18T13:38:03.999Z</time></trkpt><trkpt lat="44.78763752714756" lon="10.150718206367326"><ele>105.50000000000001</ele><time>2026-04-18T13:38:04.999Z</time></trkpt><trkpt lat="44.78770145804714" lon="10.150643328607854"><ele>105.0</ele><time>2026-04-18T13:38:05.999Z</time></trkpt><trkpt lat="44.78776514670729" lon="10.150569867987528"><ele>104.5</ele><time>2026-04-18T13:38:06.999Z</time></trkpt><trkpt lat="44.78782981734932" lon="10.150496213862308"><ele>104.0</ele><time>2026-04-18T13:38:07.999Z</time></trkpt><trkpt lat="44.78789946458298" lon="10.150420114225142"><ele>103.50000000000001</ele><time>2026-04-18T13:38:08.999Z</time></trkpt><trkpt lat="44.7879699912065" lon="10.150338191603547"><ele>103.0</ele><time>2026-04-18T13:38:09.999Z</time></trkpt><trkpt lat="44.788047448171746" lon="10.150253506161823"><ele>103.0</ele><time>2026-04-18T13:38:10.999Z</time></trkpt><trkpt lat="44.788119903138536" lon="10.150175402870916"><ele>103.0</ele><time>2026-04-18T13:38:11.999Z</time></trkpt><trkpt lat="44.78818130287382" lon="10.15009026893586"><ele>103.0</ele><time>2026-04-18T13:38:12.999Z</time></trkpt><trkpt lat="44.7882540706255" lon="10.15000221033029"><ele>103.0</ele><time>2026-04-18T13:38:13.999Z</time></trkpt><trkpt lat="44.788330126388175" lon="10.149915597378094"><ele>103.0</ele><time>2026-04-18T13:38:14.999Z</time></trkpt><trkpt lat="44.78840643446709" lon="10.149828533619758"><ele>102.80000000000001</ele><time>2026-04-18T13:38:15.999Z</time></trkpt><trkpt lat="44.78848403132132" lon="10.149739365729369"><ele>102.6</ele><time>2026-04-18T13:38:16.999Z</time></trkpt><trkpt lat="44.788563404024465" lon="10.149651713619855"><ele>102.4</ele><time>2026-04-18T13:38:17.999Z</time></trkpt><trkpt lat="44.78864237476681" lon="10.149563378325631"><ele>102.19999999999999</ele><time>2026-04-18T13:38:18.999Z</time></trkpt><trkpt lat="44.78872416980507" lon="10.149474939455486"><ele>102.0</ele><time>2026-04-18T13:38:19.999Z</time></trkpt><trkpt lat="44.78880511314042" lon="10.149388389066187"><ele>101.6</ele><time>2026-04-18T13:38:20.999Z</time></trkpt><trkpt lat="44.78888027147554" lon="10.149282495711837"><ele>101.19999999999999</ele><time>2026-04-18T13:38:21.999Z</time></trkpt><trkpt lat="44.788941522197604" lon="10.149203755547308"><ele>100.8</ele><time>2026-04-18T13:38:22.999Z</time></trkpt><trkpt lat="44.78902127246807" lon="10.14911369406827"><ele>100.4</ele><time>2026-04-18T13:38:23.999Z</time></trkpt><trkpt lat="44.78910150913645" lon="10.14902573724323"><ele>100.0</ele><time>2026-04-18T13:38:24.999Z</time></trkpt><trkpt lat="44.78917406151239" lon="10.148942706464313"><ele>100.0</ele><time>2026-04-18T13:38:25.999Z</time></trkpt><trkpt lat="44.789251090153584" lon="10.148854553676605"><ele>100.0</ele><time>2026-04-18T13:38:26.999Z</time></trkpt><trkpt lat="44.78931998607425" lon="10.148770858068152"><ele>100.0</ele><time>2026-04-18T13:38:27.999Z</time></trkpt><trkpt lat="44.78939220708575" lon="10.1486813587344"><ele>100.0</ele><time>2026-04-18T13:38:28.999Z</time></trkpt><trkpt lat="44.789464137606046" lon="10.148593506436956"><ele>100.0</ele><time>2026-04-18T13:38:29.999Z</time></trkpt><trkpt lat="44.78953757018364" lon="10.148511928628691"><ele>99.8</ele><time>2026-04-18T13:38:30.999Z</time></trkpt><trkpt lat="44.78961313443093" lon="10.148431463955975"><ele>99.6</ele><time>2026-04-18T13:38:31.999Z</time></trkpt><trkpt lat="44.78968436560194" lon="10.148351267131142"><ele>99.4</ele><time>2026-04-18T13:38:32.999Z</time></trkpt><trkpt lat="44.789754099605034" lon="10.148271349267356"><ele>99.2</ele><time>2026-04-18T13:38:33.999Z</time></trkpt><trkpt lat="44.78982185543205" lon="10.148190788787037"><ele>99.0</ele><time>2026-04-18T13:38:34.999Z</time></trkpt><trkpt lat="44.78989706975928" lon="10.148106911000967"><ele>98.80000000000001</ele><time>2026-04-18T13:38:35.999Z</time></trkpt><trkpt lat="44.78996677497476" lon="10.148024685983737"><ele>98.60000000000001</ele><time>2026-04-18T13:38:36.998Z</time></trkpt><trkpt lat="44.79003475800193" lon="10.14794157042983"><ele>98.4</ele><time>2026-04-18T13:38:37.998Z</time></trkpt><trkpt lat="44.79010252324384" lon="10.147859349973176"><ele>98.2</ele><time>2026-04-18T13:38:38.998Z</time></trkpt><trkpt lat="44.79017410588953" lon="10.147778068210426"><ele>98.0</ele><time>2026-04-18T13:38:39.998Z</time></trkpt><trkpt lat="44.79024373324495" lon="10.147697937015563"><ele>98.0</ele><time>2026-04-18T13:38:40.998Z</time></trkpt><trkpt lat="44.790317526027394" lon="10.147616440604077"><ele>98.0</ele><time>2026-04-18T13:38:41.998Z</time></trkpt><trkpt lat="44.79039192189085" lon="10.147536947338999"><ele>98.0</ele><time>2026-04-18T13:38:42.998Z</time></trkpt><trkpt lat="44.790452735225735" lon="10.147437680471963"><ele>98.0</ele><time>2026-04-18T13:38:43.998Z</time></trkpt><trkpt lat="44.790539181848686" lon="10.147404202471542"><ele>98.0</ele><time>2026-04-18T13:38:44.998Z</time></trkpt><trkpt lat="44.7906417889554" lon="10.147338051715455"><ele>97.83333333333333</ele><time>2026-04-18T13:38:45.998Z</time></trkpt><trkpt lat="44.79072841520659" lon="10.147349327545903"><ele>97.66666666666666</ele><time>2026-04-18T13:38:47.998Z</time></trkpt><trkpt lat="44.790793880112986" lon="10.147278506115569"><ele>97.5</ele><time>2026-04-18T13:38:48.998Z</time></trkpt><trkpt lat="44.79084291777788" lon="10.14718151587942"><ele>97.33333333333334</ele><time>2026-04-18T13:38:49.998Z</time></trkpt><trkpt lat="44.79087737135997" lon="10.147074779421263"><ele>97.16666666666667</ele><time>2026-04-18T13:38:50.998Z</time></trkpt><trkpt lat="44.79091907134569" lon="10.146971889145211"><ele>97.0</ele><time>2026-04-18T13:38:51.998Z</time></trkpt><trkpt lat="44.79097564291158" lon="10.14688451857911"><ele>97.16666666666667</ele><time>2026-04-18T13:38:52.998Z</time></trkpt><trkpt lat="44.79103502653849" lon="10.146799105065908"><ele>97.33333333333334</ele><time>2026-04-18T13:38:53.998Z</time></trkpt><trkpt lat="44.79109884557922" lon="10.146716784060832"><ele>97.5</ele><time>2026-04-18T13:38:54.998Z</time></trkpt><trkpt lat="44.791162710867205" lon="10.14664102622163"><ele>97.66666666666666</ele><time>2026-04-18T13:38:55.998Z</time></trkpt><trkpt lat="44.79122598922543" lon="10.146566627795503"><ele>97.83333333333333</ele><time>2026-04-18T13:38:56.998Z</time></trkpt><trkpt lat="44.791297592239076" lon="10.146489233948527"><ele>98.0</ele><time>2026-04-18T13:38:57.998Z</time></trkpt><trkpt lat="44.79136620017704" lon="10.146415584587603"><ele>98.16666666666666</ele><time>2026-04-18T13:38:58.998Z</time></trkpt><trkpt lat="44.79143033221998" lon="10.146333328195595"><ele>98.33333333333333</ele><time>2026-04-18T13:38:59.998Z</time></trkpt><trkpt lat="44.79149730745267" lon="10.146250563221079"><ele>98.5</ele><time>2026-04-18T13:39:00.998Z</time></trkpt><trkpt lat="44.79155634635208" lon="10.146178100701558"><ele>98.66666666666666</ele><time>2026-04-18T13:39:01.998Z</time></trkpt><trkpt lat="44.7916189492595" lon="10.14610052665242"><ele>98.83333333333333</ele><time>2026-04-18T13:39:02.998Z</time></trkpt><trkpt lat="44.79168027282444" lon="10.14602806054072"><ele>99.0</ele><time>2026-04-18T13:39:03.998Z</time></trkpt><trkpt lat="44.79174444029176" lon="10.145954464442648"><ele>99.0</ele><time>2026-04-18T13:39:04.998Z</time></trkpt><trkpt lat="44.79180220660272" lon="10.145891318664795"><ele>99.0</ele><time>2026-04-18T13:39:05.998Z</time></trkpt><trkpt lat="44.79186121604816" lon="10.145826604237833"><ele>99.0</ele><time>2026-04-18T13:39:06.998Z</time></trkpt><trkpt lat="44.791925270274625" lon="10.14575176175109"><ele>99.0</ele><time>2026-04-18T13:39:07.998Z</time></trkpt><trkpt lat="44.79201862407147" lon="10.145648393954291"><ele>99.0</ele><time>2026-04-18T13:39:09.998Z</time></trkpt><trkpt lat="44.79207147100787" lon="10.145580675866706"><ele>99.0</ele><time>2026-04-18T13:39:10.998Z</time></trkpt><trkpt lat="44.79212776405067" lon="10.145515853812583"><ele>99.71428571428572</ele><time>2026-04-18T13:39:12Z</time></trkpt><trkpt lat="44.79218652802966" lon="10.145449321948096"><ele>100.42857142857142</ele><time>2026-04-18T13:39:13Z</time></trkpt><trkpt lat="44.7922407898771" lon="10.145380263641153"><ele>101.14285714285714</ele><time>2026-04-18T13:39:14Z</time></trkpt><trkpt lat="44.792296136730144" lon="10.145315550441017"><ele>101.85714285714286</ele><time>2026-04-18T13:39:15Z</time></trkpt><trkpt lat="44.79234588832439" lon="10.145251701681701"><ele>102.57142857142858</ele><time>2026-04-18T13:39:16Z</time></trkpt><trkpt lat="44.7923989148575" lon="10.14518894152198"><ele>103.28571428571428</ele><time>2026-04-18T13:39:17Z</time></trkpt><trkpt lat="44.79245169618982" lon="10.145130089672902"><ele>104.0</ele><time>2026-04-18T13:39:18Z</time></trkpt><trkpt lat="44.79250143122126" lon="10.145069110620884"><ele>104.0</ele><time>2026-04-18T13:39:19Z</time></trkpt><trkpt lat="44.792556136275216" lon="10.145013238940317"><ele>104.0</ele><time>2026-04-18T13:39:20Z</time></trkpt><trkpt lat="44.79260808099142" lon="10.144949148843404"><ele>104.0</ele><time>2026-04-18T13:39:21Z</time></trkpt><trkpt lat="44.792655684638916" lon="10.144884299718429"><ele>104.0</ele><time>2026-04-18T13:39:22Z</time></trkpt><trkpt lat="44.79270916637514" lon="10.144820072972532"><ele>104.0</ele><time>2026-04-18T13:39:23Z</time></trkpt><trkpt lat="44.792762937169186" lon="10.144756586876051"><ele>104.0</ele><time>2026-04-18T13:39:24Z</time></trkpt><trkpt lat="44.7928191185348" lon="10.144698777418128"><ele>104.0</ele><time>2026-04-18T13:39:25Z</time></trkpt><trkpt lat="44.79287330301325" lon="10.144638457720225"><ele>104.71428571428571</ele><time>2026-04-18T13:39:26Z</time></trkpt><trkpt lat="44.79292492236303" lon="10.144579321451882"><ele>105.42857142857143</ele><time>2026-04-18T13:39:27Z</time></trkpt><trkpt lat="44.792974846484" lon="10.144516045878168"><ele>106.14285714285714</ele><time>2026-04-18T13:39:28Z</time></trkpt><trkpt lat="44.793023908506704" lon="10.144457254705191"><ele>106.85714285714286</ele><time>2026-04-18T13:39:29Z</time></trkpt><trkpt lat="44.793070902384954" lon="10.144395611950895"><ele>107.57142857142858</ele><time>2026-04-18T13:39:30Z</time></trkpt><trkpt lat="44.793123105987206" lon="10.144338476724505"><ele>108.28571428571429</ele><time>2026-04-18T13:39:31Z</time></trkpt><trkpt lat="44.793177243210884" lon="10.144283177304642"><ele>109.0</ele><time>2026-04-18T13:39:32Z</time></trkpt><trkpt lat="44.79322715727806" lon="10.144221774285239"><ele>109.0</ele><time>2026-04-18T13:39:33Z</time></trkpt><trkpt lat="44.79328150436747" lon="10.144160639050456"><ele>109.0</ele><time>2026-04-18T13:39:34Z</time></trkpt><trkpt lat="44.793333855531145" lon="10.14409502387566"><ele>109.0</ele><time>2026-04-18T13:39:35Z</time></trkpt><trkpt lat="44.793387246512125" lon="10.144034382017928"><ele>109.0</ele><time>2026-04-18T13:39:36Z</time></trkpt><trkpt lat="44.793440802797534" lon="10.143973709926186"><ele>109.0</ele><time>2026-04-18T13:39:37Z</time></trkpt><trkpt lat="44.79349631957482" lon="10.143908898597877"><ele>109.0</ele><time>2026-04-18T13:39:38Z</time></trkpt><trkpt lat="44.79354886151055" lon="10.143845309701504"><ele>109.0</ele><time>2026-04-18T13:39:39Z</time></trkpt><trkpt lat="44.79360302276735" lon="10.143784047315355"><ele>108.57142857142857</ele><time>2026-04-18T13:39:40Z</time></trkpt><trkpt lat="44.79365452871211" lon="10.14372040451804"><ele>108.14285714285714</ele><time>2026-04-18T13:39:41Z</time></trkpt><trkpt lat="44.79370697092641" lon="10.143658525180204"><ele>107.71428571428572</ele><time>2026-04-18T13:39:42Z</time></trkpt><trkpt lat="44.79375897168378" lon="10.143598913077344"><ele>107.28571428571428</ele><time>2026-04-18T13:39:43Z</time></trkpt><trkpt lat="44.7938115997389" lon="10.143540112856382"><ele>106.85714285714285</ele><time>2026-04-18T13:39:44Z</time></trkpt><trkpt lat="44.79386571244627" lon="10.143481967271038"><ele>106.42857142857143</ele><time>2026-04-18T13:39:45Z</time></trkpt><trkpt lat="44.79391877352959" lon="10.143420289640696"><ele>106.0</ele><time>2026-04-18T13:39:46Z</time></trkpt><trkpt lat="44.793973991871646" lon="10.143353950292653"><ele>106.0</ele><time>2026-04-18T13:39:46.999Z</time></trkpt><trkpt lat="44.79402969825817" lon="10.143293794966073"><ele>106.0</ele><time>2026-04-18T13:39:47.999Z</time></trkpt><trkpt lat="44.794084437797565" lon="10.143227673420956"><ele>106.0</ele><time>2026-04-18T13:39:48.999Z</time></trkpt><trkpt lat="44.7941412272215" lon="10.143161838267334"><ele>106.0</ele><time>2026-04-18T13:39:49.999Z</time></trkpt><trkpt lat="44.794198679753755" lon="10.14309592896335"><ele>106.0</ele><time>2026-04-18T13:39:50.999Z</time></trkpt><trkpt lat="44.79425781775782" lon="10.14302838629895"><ele>106.0</ele><time>2026-04-18T13:39:51.999Z</time></trkpt><trkpt lat="44.794312604961384" lon="10.142958142508538"><ele>106.0</ele><time>2026-04-18T13:39:52.999Z</time></trkpt><trkpt lat="44.79437022091038" lon="10.142892748329858"><ele>105.83333333333334</ele><time>2026-04-18T13:39:53.999Z</time></trkpt><trkpt lat="44.79442727247088" lon="10.142825781768536"><ele>105.66666666666667</ele><time>2026-04-18T13:39:54.999Z</time></trkpt><trkpt lat="44.79448349081809" lon="10.142758604653656"><ele>105.5</ele><time>2026-04-18T13:39:55.999Z</time></trkpt><trkpt lat="44.79454231731492" lon="10.142692667729953"><ele>105.33333333333334</ele><time>2026-04-18T13:39:56.999Z</time></trkpt><trkpt lat="44.79460450745933" lon="10.142625679877758"><ele>105.16666666666667</ele><time>2026-04-18T13:39:57.999Z</time></trkpt><trkpt lat="44.79466352561974" lon="10.142552975912546"><ele>105.0</ele><time>2026-04-18T13:39:58.999Z</time></trkpt><trkpt lat="44.79472696774304" lon="10.142480149567461"><ele>105.0</ele><time>2026-04-18T13:39:59.999Z</time></trkpt><trkpt lat="44.794786149914465" lon="10.142404557184902"><ele>105.0</ele><time>2026-04-18T13:40:00.999Z</time></trkpt><trkpt lat="44.79484370339766" lon="10.1423273709992"><ele>105.0</ele><time>2026-04-18T13:40:01.999Z</time></trkpt><trkpt lat="44.794898989194806" lon="10.142247457750782"><ele>105.0</ele><time>2026-04-18T13:40:02.999Z</time></trkpt><trkpt lat="44.794960587153916" lon="10.142175527563351"><ele>105.0</ele><time>2026-04-18T13:40:03.999Z</time></trkpt><trkpt lat="44.795019397897974" lon="10.142099539730802"><ele>105.0</ele><time>2026-04-18T13:40:04.999Z</time></trkpt><trkpt lat="44.79507886027136" lon="10.142020098328027"><ele>104.83333333333333</ele><time>2026-04-18T13:40:05.999Z</time></trkpt><trkpt lat="44.79513823888657" lon="10.141940878734207"><ele>104.66666666666666</ele><time>2026-04-18T13:40:06.999Z</time></trkpt><trkpt lat="44.795197343281544" lon="10.141857193231058"><ele>104.5</ele><time>2026-04-18T13:40:07.999Z</time></trkpt><trkpt lat="44.7952528337642" lon="10.141773881660301"><ele>104.33333333333333</ele><time>2026-04-18T13:40:08.999Z</time></trkpt><trkpt lat="44.795313774203635" lon="10.141694946573665"><ele>104.16666666666666</ele><time>2026-04-18T13:40:09.999Z</time></trkpt><trkpt lat="44.79537322075006" lon="10.141617364822228"><ele>104.0</ele><time>2026-04-18T13:40:10.999Z</time></trkpt><trkpt lat="44.79543396593032" lon="10.141537073923248"><ele>103.66666666666666</ele><time>2026-04-18T13:40:11.999Z</time></trkpt><trkpt lat="44.795492867938535" lon="10.141455839214876"><ele>103.33333333333333</ele><time>2026-04-18T13:40:12.999Z</time></trkpt><trkpt lat="44.795555852776225" lon="10.141371764874167"><ele>103.0</ele><time>2026-04-18T13:40:13.999Z</time></trkpt><trkpt lat="44.79561141796328" lon="10.141280308646675"><ele>102.66666666666666</ele><time>2026-04-18T13:40:14.999Z</time></trkpt><trkpt lat="44.79567136112319" lon="10.141189192799647"><ele>102.33333333333333</ele><time>2026-04-18T13:40:15.999Z</time></trkpt><trkpt lat="44.79573041438986" lon="10.141098454277616"><ele>102.0</ele><time>2026-04-18T13:40:16.999Z</time></trkpt><trkpt lat="44.7957893351875" lon="10.141006467915012"><ele>102.0</ele><time>2026-04-18T13:40:17.999Z</time></trkpt><trkpt lat="44.795841758788114" lon="10.140910857874356"><ele>102.0</ele><time>2026-04-18T13:40:18.999Z</time></trkpt><trkpt lat="44.79590008948338" lon="10.14081563935136"><ele>102.0</ele><time>2026-04-18T13:40:19.999Z</time></trkpt><trkpt lat="44.7959599778832" lon="10.140728577885985"><ele>102.0</ele><time>2026-04-18T13:40:20.999Z</time></trkpt><trkpt lat="44.796017461384174" lon="10.14064169868219"><ele>102.0</ele><time>2026-04-18T13:40:21.999Z</time></trkpt><trkpt lat="44.796073977960816" lon="10.140544289161866"><ele>102.0</ele><time>2026-04-18T13:40:22.999Z</time></trkpt><trkpt lat="44.796127963615945" lon="10.140454515723349"><ele>102.16666666666667</ele><time>2026-04-18T13:40:23.999Z</time></trkpt><trkpt lat="44.79618041110971" lon="10.140366474478805"><ele>102.33333333333334</ele><time>2026-04-18T13:40:24.999Z</time></trkpt><trkpt lat="44.796229734740706" lon="10.140277702997151"><ele>102.5</ele><time>2026-04-18T13:40:25.999Z</time></trkpt><trkpt lat="44.796281654092944" lon="10.140194804117057"><ele>102.66666666666667</ele><time>2026-04-18T13:40:26.999Z</time></trkpt><trkpt lat="44.79633117569623" lon="10.140108855851663"><ele>102.83333333333334</ele><time>2026-04-18T13:40:27.999Z</time></trkpt><trkpt lat="44.79637791712761" lon="10.140019664427763"><ele>103.0</ele><time>2026-04-18T13:40:28.999Z</time></trkpt><trkpt lat="44.79641934230025" lon="10.139924946777954"><ele>103.50000000000001</ele><time>2026-04-18T13:40:29.999Z</time></trkpt><trkpt lat="44.796460267902205" lon="10.139826208050692"><ele>104.0</ele><time>2026-04-18T13:40:30.999Z</time></trkpt><trkpt lat="44.79649069971987" lon="10.139728201851105"><ele>104.5</ele><time>2026-04-18T13:40:31.999Z</time></trkpt><trkpt lat="44.796519572497814" lon="10.139631427825252"><ele>105.0</ele><time>2026-04-18T13:40:32.999Z</time></trkpt><trkpt lat="44.79654435224873" lon="10.139531021296055"><ele>105.50000000000001</ele><time>2026-04-18T13:40:33.999Z</time></trkpt><trkpt lat="44.796564666975534" lon="10.139429978886472"><ele>106.0</ele><time>2026-04-18T13:40:34.999Z</time></trkpt><trkpt lat="44.79658130702948" lon="10.139328329304174"><ele>106.0</ele><time>2026-04-18T13:40:35.999Z</time></trkpt><trkpt lat="44.79659517923419" lon="10.13922933675736"><ele>106.0</ele><time>2026-04-18T13:40:36.999Z</time></trkpt><trkpt lat="44.79660426550106" lon="10.139124958930077"><ele>106.0</ele><time>2026-04-18T13:40:37.999Z</time></trkpt><trkpt lat="44.79661375185376" lon="10.139016875845007"><ele>106.0</ele><time>2026-04-18T13:40:38.999Z</time></trkpt><trkpt lat="44.796622337972316" lon="10.138923201627497"><ele>106.0</ele><time>2026-04-18T13:40:39.999Z</time></trkpt><trkpt lat="44.79662110420032" lon="10.138821522241907"><ele>106.0</ele><time>2026-04-18T13:40:40.999Z</time></trkpt><trkpt lat="44.79662347094833" lon="10.138715775480307"><ele>106.0</ele><time>2026-04-18T13:40:41.999Z</time></trkpt><trkpt lat="44.7966303500313" lon="10.138611087218582"><ele>106.16666666666667</ele><time>2026-04-18T13:40:42.998Z</time></trkpt><trkpt lat="44.796632620706035" lon="10.138503795630008"><ele>106.33333333333334</ele><time>2026-04-18T13:40:43.998Z</time></trkpt><trkpt lat="44.79664005340922" lon="10.138395568501549"><ele>106.5</ele><time>2026-04-18T13:40:44.998Z</time></trkpt><trkpt lat="44.7966435637602" lon="10.138285442423724"><ele>106.66666666666666</ele><time>2026-04-18T13:40:45.998Z</time></trkpt><trkpt lat="44.79664823997494" lon="10.138173089880931"><ele>106.83333333333333</ele><time>2026-04-18T13:40:46.998Z</time></trkpt><trkpt lat="44.79664855410951" lon="10.138063736484575"><ele>107.0</ele><time>2026-04-18T13:40:47.998Z</time></trkpt><trkpt lat="44.79665302685302" lon="10.137950261232605"><ele>107.16666666666666</ele><time>2026-04-18T13:40:48.998Z</time></trkpt><trkpt lat="44.79665740654831" lon="10.137841495253335"><ele>107.33333333333333</ele><time>2026-04-18T13:40:49.998Z</time></trkpt><trkpt lat="44.79666091955619" lon="10.137732757485127"><ele>107.5</ele><time>2026-04-18T13:40:50.998Z</time></trkpt><trkpt lat="44.79666520047029" lon="10.137627199120717"><ele>107.66666666666666</ele><time>2026-04-18T13:40:51.998Z</time></trkpt><trkpt lat="44.79666669871863" lon="10.137515267716143"><ele>107.83333333333333</ele><time>2026-04-18T13:40:52.998Z</time></trkpt><trkpt lat="44.79666872735367" lon="10.137408113594926"><ele>108.0</ele><time>2026-04-18T13:40:53.998Z</time></trkpt><trkpt lat="44.7966706476909" lon="10.137303844004567"><ele>108.0</ele><time>2026-04-18T13:40:54.998Z</time></trkpt><trkpt lat="44.796674508949266" lon="10.137196507806083"><ele>108.0</ele><time>2026-04-18T13:40:55.998Z</time></trkpt><trkpt lat="44.79667953283478" lon="10.137088292357058"><ele>108.0</ele><time>2026-04-18T13:40:56.998Z</time></trkpt><trkpt lat="44.796679594485624" lon="10.136982479425885"><ele>108.0</ele><time>2026-04-18T13:40:57.998Z</time></trkpt><trkpt lat="44.79668156714485" lon="10.136879887858676"><ele>108.0</ele><time>2026-04-18T13:40:58.998Z</time></trkpt><trkpt lat="44.796686260524226" lon="10.136776052342302"><ele>108.0</ele><time>2026-04-18T13:40:59.998Z</time></trkpt><trkpt lat="44.79669168474653" lon="10.136669326130713"><ele>108.0</ele><time>2026-04-18T13:41:00.998Z</time></trkpt><trkpt lat="44.79669723971071" lon="10.136561719427764"><ele>108.0</ele><time>2026-04-18T13:41:01.998Z</time></trkpt><trkpt lat="44.79670105560175" lon="10.136454908611894"><ele>108.0</ele><time>2026-04-18T13:41:02.998Z</time></trkpt><trkpt lat="44.79670491107689" lon="10.136344996096907"><ele>108.0</ele><time>2026-04-18T13:41:03.998Z</time></trkpt><trkpt lat="44.796709628881466" lon="10.136232895391721"><ele>108.0</ele><time>2026-04-18T13:41:04.998Z</time></trkpt><trkpt lat="44.796709471436145" lon="10.136122218686037"><ele>108.0</ele><time>2026-04-18T13:41:05.998Z</time></trkpt><trkpt lat="44.79671477434272" lon="10.136009456252394"><ele>108.0</ele><time>2026-04-18T13:41:06.998Z</time></trkpt><trkpt lat="44.79671675142067" lon="10.135899836551234"><ele>108.0</ele><time>2026-04-18T13:41:07.998Z</time></trkpt><trkpt lat="44.796721738781144" lon="10.135789765815339"><ele>108.0</ele><time>2026-04-18T13:41:08.998Z</time></trkpt><trkpt lat="44.79672647458003" lon="10.13568034232521"><ele>108.0</ele><time>2026-04-18T13:41:09.998Z</time></trkpt><trkpt lat="44.79673120975951" lon="10.135570198674628"><ele>108.0</ele><time>2026-04-18T13:41:10.998Z</time></trkpt><trkpt lat="44.79673678515476" lon="10.135461284811699"><ele>108.0</ele><time>2026-04-18T13:41:11.998Z</time></trkpt><trkpt lat="44.79673940990737" lon="10.135356814770825"><ele>108.0</ele><time>2026-04-18T13:41:12.998Z</time></trkpt><trkpt lat="44.796741534879004" lon="10.135254793546995"><ele>108.0</ele><time>2026-04-18T13:41:13.998Z</time></trkpt><trkpt lat="44.79675044046606" lon="10.135151561976798"><ele>108.0</ele><time>2026-04-18T13:41:14.998Z</time></trkpt><trkpt lat="44.796762158608146" lon="10.13504534038384"><ele>108.0</ele><time>2026-04-18T13:41:15.998Z</time></trkpt><trkpt lat="44.79677652506274" lon="10.134937865397957"><ele>108.0</ele><time>2026-04-18T13:41:17Z</time></trkpt><trkpt lat="44.796791837716995" lon="10.134830499453383"><ele>108.0</ele><time>2026-04-18T13:41:18Z</time></trkpt><trkpt lat="44.79681652644798" lon="10.134725355987289"><ele>108.0</ele><time>2026-04-18T13:41:19Z</time></trkpt><trkpt lat="44.79682402872374" lon="10.134610873935781"><ele>108.0</ele><time>2026-04-18T13:41:20Z</time></trkpt><trkpt lat="44.796864059461335" lon="10.134512604920015"><ele>108.0</ele><time>2026-04-18T13:41:21Z</time></trkpt><trkpt lat="44.79687682617373" lon="10.134397875045181"><ele>108.0</ele><time>2026-04-18T13:41:22Z</time></trkpt><trkpt lat="44.79691910800982" lon="10.13430130576248"><ele>108.0</ele><time>2026-04-18T13:41:23Z</time></trkpt><trkpt lat="44.796951010728286" lon="10.134200306612515"><ele>108.0</ele><time>2026-04-18T13:41:24Z</time></trkpt><trkpt lat="44.79698309007516" lon="10.134103002957074"><ele>108.0</ele><time>2026-04-18T13:41:25Z</time></trkpt><trkpt lat="44.797015635284154" lon="10.1340057024615"><ele>108.0</ele><time>2026-04-18T13:41:26Z</time></trkpt><trkpt lat="44.79704646551934" lon="10.133911781061368"><ele>108.0</ele><time>2026-04-18T13:41:27Z</time></trkpt><trkpt lat="44.79708391102623" lon="10.133818839463387"><ele>108.0</ele><time>2026-04-18T13:41:28Z</time></trkpt><trkpt lat="44.797121692210936" lon="10.133725515597789"><ele>108.0</ele><time>2026-04-18T13:41:29Z</time></trkpt><trkpt lat="44.797162508003844" lon="10.133634428936844"><ele>108.0</ele><time>2026-04-18T13:41:30Z</time></trkpt><trkpt lat="44.79720643502102" lon="10.133544590803607"><ele>108.0</ele><time>2026-04-18T13:41:31Z</time></trkpt><trkpt lat="44.79725229119542" lon="10.133457019840616"><ele>108.0</ele><time>2026-04-18T13:41:32Z</time></trkpt><trkpt lat="44.797303704860454" lon="10.133371886597162"><ele>108.0</ele><time>2026-04-18T13:41:33Z</time></trkpt><trkpt lat="44.79735696346446" lon="10.133285384979146"><ele>108.0</ele><time>2026-04-18T13:41:34Z</time></trkpt><trkpt lat="44.79741167263327" lon="10.133207354906887"><ele>108.0</ele><time>2026-04-18T13:41:35Z</time></trkpt><trkpt lat="44.79746901058495" lon="10.13313299748907"><ele>108.0</ele><time>2026-04-18T13:41:36Z</time></trkpt><trkpt lat="44.79752661087572" lon="10.133054623033601"><ele>107.83333333333333</ele><time>2026-04-18T13:41:37Z</time></trkpt><trkpt lat="44.79758745873109" lon="10.132982404214339"><ele>107.66666666666666</ele><time>2026-04-18T13:41:38Z</time></trkpt><trkpt lat="44.79764992698836" lon="10.132907784372533"><ele>107.5</ele><time>2026-04-18T13:41:39Z</time></trkpt><trkpt lat="44.79771424330857" lon="10.132838264915613"><ele>107.33333333333333</ele><time>2026-04-18T13:41:40Z</time></trkpt><trkpt lat="44.79778168158045" lon="10.132766826644454"><ele>107.16666666666666</ele><time>2026-04-18T13:41:41Z</time></trkpt><trkpt lat="44.797844785920454" lon="10.132699217454729"><ele>107.0</ele><time>2026-04-18T13:41:42Z</time></trkpt><trkpt lat="44.79791056537159" lon="10.13263061380261"><ele>106.99999999999999</ele><time>2026-04-18T13:41:43Z</time></trkpt><trkpt lat="44.79797742135445" lon="10.132559694022014"><ele>107.0</ele><time>2026-04-18T13:41:44Z</time></trkpt><trkpt lat="44.79804695015865" lon="10.132489870607849"><ele>107.0</ele><time>2026-04-18T13:41:45Z</time></trkpt><trkpt lat="44.79811568626399" lon="10.132417196414742"><ele>107.0</ele><time>2026-04-18T13:41:46Z</time></trkpt><trkpt lat="44.79818021910486" lon="10.132340954157758"><ele>106.99999999999999</ele><time>2026-04-18T13:41:47Z</time></trkpt><trkpt lat="44.798248576554684" lon="10.132265340564123"><ele>107.0</ele><time>2026-04-18T13:41:48Z</time></trkpt><trkpt lat="44.798317023407" lon="10.132191178184822"><ele>106.99999999999999</ele><time>2026-04-18T13:41:48.999Z</time></trkpt><trkpt lat="44.798385083458484" lon="10.132118098040639"><ele>107.0</ele><time>2026-04-18T13:41:49.999Z</time></trkpt><trkpt lat="44.79845404276791" lon="10.132043885014705"><ele>107.0</ele><time>2026-04-18T13:41:50.999Z</time></trkpt><trkpt lat="44.79852322963789" lon="10.131966278946297"><ele>107.0</ele><time>2026-04-18T13:41:51.999Z</time></trkpt><trkpt lat="44.798595692628005" lon="10.131887499271068"><ele>106.99999999999999</ele><time>2026-04-18T13:41:52.999Z</time></trkpt><trkpt lat="44.798672090343096" lon="10.131808436442638"><ele>107.0</ele><time>2026-04-18T13:41:53.999Z</time></trkpt><trkpt lat="44.79874558018088" lon="10.13172850404383"><ele>107.0</ele><time>2026-04-18T13:41:54.999Z</time></trkpt><trkpt lat="44.79882048139123" lon="10.131647364264827"><ele>106.99999999999999</ele><time>2026-04-18T13:41:55.999Z</time></trkpt><trkpt lat="44.79890011203658" lon="10.131564031917586"><ele>106.99999999999999</ele><time>2026-04-18T13:41:56.999Z</time></trkpt><trkpt lat="44.7989791556076" lon="10.131476691911201"><ele>107.0</ele><time>2026-04-18T13:41:57.999Z</time></trkpt><trkpt lat="44.799061048314194" lon="10.131388524283485"><ele>107.0</ele><time>2026-04-18T13:41:58.999Z</time></trkpt><trkpt lat="44.79914397984622" lon="10.131300260997763"><ele>107.25</ele><time>2026-04-18T13:41:59.999Z</time></trkpt><trkpt lat="44.79923080805512" lon="10.131203911625954"><ele>107.5</ele><time>2026-04-18T13:42:00.999Z</time></trkpt><trkpt lat="44.79931922051356" lon="10.131105242654934"><ele>107.75</ele><time>2026-04-18T13:42:01.999Z</time></trkpt><trkpt lat="44.799411563884824" lon="10.131007866803886"><ele>108.0</ele><time>2026-04-18T13:42:02.999Z</time></trkpt><trkpt lat="44.799501594151685" lon="10.1309101748893"><ele>107.0</ele><time>2026-04-18T13:42:03.999Z</time></trkpt><trkpt lat="44.799591833225605" lon="10.13081686978907"><ele>106.0</ele><time>2026-04-18T13:42:04.999Z</time></trkpt><trkpt lat="44.79968374266343" lon="10.130717176197743"><ele>105.0</ele><time>2026-04-18T13:42:05.999Z</time></trkpt><trkpt lat="44.79977757186374" lon="10.130614902494264"><ele>104.0</ele><time>2026-04-18T13:42:06.999Z</time></trkpt><trkpt lat="44.79987350550804" lon="10.130515427268179"><ele>102.80000000000001</ele><time>2026-04-18T13:42:07.999Z</time></trkpt><trkpt lat="44.79996235761992" lon="10.130408784280066"><ele>101.60000000000001</ele><time>2026-04-18T13:42:08.999Z</time></trkpt><trkpt lat="44.800057971832835" lon="10.13030555514574"><ele>100.4</ele><time>2026-04-18T13:42:09.999Z</time></trkpt><trkpt lat="44.80015702725792" lon="10.130197904286483"><ele>99.2</ele><time>2026-04-18T13:42:10.999Z</time></trkpt><trkpt lat="44.80021396926537" lon="10.130133857922413"><ele>98.0</ele><time>2026-04-18T13:42:11.999Z</time></trkpt><trkpt lat="44.80030332783155" lon="10.130040210175606"><ele>97.60000000000001</ele><time>2026-04-18T13:42:12.999Z</time></trkpt><trkpt lat="44.8003952615557" lon="10.1299387893174"><ele>97.2</ele><time>2026-04-18T13:42:13.999Z</time></trkpt><trkpt lat="44.80048564426382" lon="10.12983411872038"><ele>96.8</ele><time>2026-04-18T13:42:14.999Z</time></trkpt><trkpt lat="44.80056914975595" lon="10.129746169381626"><ele>96.4</ele><time>2026-04-18T13:42:15.999Z</time></trkpt><trkpt lat="44.80064968231812" lon="10.129657482936855"><ele>96.0</ele><time>2026-04-18T13:42:16.999Z</time></trkpt><trkpt lat="44.80072695879507" lon="10.129572079969758"><ele>96.0</ele><time>2026-04-18T13:42:17.999Z</time></trkpt><trkpt lat="44.80080020609527" lon="10.129492366045508"><ele>96.0</ele><time>2026-04-18T13:42:18.999Z</time></trkpt><trkpt lat="44.8008724293034" lon="10.12941440975015"><ele>96.0</ele><time>2026-04-18T13:42:19.999Z</time></trkpt><trkpt lat="44.80093900176949" lon="10.129340897349667"><ele>96.0</ele><time>2026-04-18T13:42:20.999Z</time></trkpt><trkpt lat="44.801004301941916" lon="10.129270168931981"><ele>96.0</ele><time>2026-04-18T13:42:21.999Z</time></trkpt><trkpt lat="44.80108187010179" lon="10.129189029119077"><ele>96.0</ele><time>2026-04-18T13:42:22.999Z</time></trkpt><trkpt lat="44.80115762576255" lon="10.12910851208811"><ele>96.99999999999999</ele><time>2026-04-18T13:42:23.999Z</time></trkpt><trkpt lat="44.8012203317433" lon="10.129042010540404"><ele>98.0</ele><time>2026-04-18T13:42:24.999Z</time></trkpt><trkpt lat="44.80127750100424" lon="10.128976427925348"><ele>99.0</ele><time>2026-04-18T13:42:25.999Z</time></trkpt><trkpt lat="44.80133382241689" lon="10.12891294666596"><ele>100.0</ele><time>2026-04-18T13:42:26.999Z</time></trkpt><trkpt lat="44.801390677159496" lon="10.12884729961299"><ele>101.0</ele><time>2026-04-18T13:42:27.999Z</time></trkpt><trkpt lat="44.8014497106251" lon="10.128781721132007"><ele>101.99999999999999</ele><time>2026-04-18T13:42:28.999Z</time></trkpt><trkpt lat="44.801507970579834" lon="10.128718957134428"><ele>103.0</ele><time>2026-04-18T13:42:29.999Z</time></trkpt><trkpt lat="44.801569384363354" lon="10.128657491700626"><ele>103.00000000000001</ele><time>2026-04-18T13:42:30.999Z</time></trkpt><trkpt lat="44.801623613136684" lon="10.128596951742571"><ele>103.0</ele><time>2026-04-18T13:42:31.999Z</time></trkpt><trkpt lat="44.801684010685356" lon="10.128525947428168"><ele>103.0</ele><time>2026-04-18T13:42:32.999Z</time></trkpt><trkpt lat="44.8017853742372" lon="10.128423037814402"><ele>103.0</ele><time>2026-04-18T13:42:34.999Z</time></trkpt><trkpt lat="44.80184022003369" lon="10.128365752035618"><ele>103.00000000000001</ele><time>2026-04-18T13:42:35.999Z</time></trkpt><trkpt lat="44.80189220528128" lon="10.12830796086326"><ele>103.0</ele><time>2026-04-18T13:42:36.999Z</time></trkpt><trkpt lat="44.801947321670404" lon="10.128251654097749"><ele>103.4</ele><time>2026-04-18T13:42:37.999Z</time></trkpt><trkpt lat="44.80200071981874" lon="10.128194164231195"><ele>103.80000000000001</ele><time>2026-04-18T13:42:38.999Z</time></trkpt><trkpt lat="44.80210693862458" lon="10.128093114726394"><ele>104.2</ele><time>2026-04-18T13:42:40.999Z</time></trkpt><trkpt lat="44.80215912410033" lon="10.128034636222642"><ele>104.6</ele><time>2026-04-18T13:42:41.999Z</time></trkpt><trkpt lat="44.80224744247962" lon="10.127916656027248"><ele>105.0</ele><time>2026-04-18T13:42:43.999Z</time></trkpt><trkpt lat="44.80234070243551" lon="10.127802014380885"><ele>105.0</ele><time>2026-04-18T13:42:45.998Z</time></trkpt><trkpt lat="44.802388361923946" lon="10.127739603625292"><ele>105.0</ele><time>2026-04-18T13:42:46.998Z</time></trkpt><trkpt lat="44.80242443850838" lon="10.127664042454288"><ele>105.0</ele><time>2026-04-18T13:42:47.998Z</time></trkpt><trkpt lat="44.80246340018604" lon="10.12758891203405"><ele>105.0</ele><time>2026-04-18T13:42:48.998Z</time></trkpt><trkpt lat="44.80250299821048" lon="10.127510727983282"><ele>105.0</ele><time>2026-04-18T13:42:49.998Z</time></trkpt><trkpt lat="44.80253981853797" lon="10.127431335146289"><ele>105.0</ele><time>2026-04-18T13:42:50.998Z</time></trkpt><trkpt lat="44.80257438479963" lon="10.127352044436016"><ele>105.0</ele><time>2026-04-18T13:42:51.998Z</time></trkpt><trkpt lat="44.8026036453185" lon="10.127269415548804"><ele>105.28571428571429</ele><time>2026-04-18T13:42:52.998Z</time></trkpt><trkpt lat="44.80263119559271" lon="10.12718205385855"><ele>105.57142857142857</ele><time>2026-04-18T13:42:53.998Z</time></trkpt><trkpt lat="44.802654121533145" lon="10.127093045981146"><ele>105.85714285714286</ele><time>2026-04-18T13:42:54.998Z</time></trkpt><trkpt lat="44.80267339832137" lon="10.127000637762364"><ele>106.14285714285714</ele><time>2026-04-18T13:42:55.998Z</time></trkpt><trkpt lat="44.802695591032" lon="10.126910070012398"><ele>106.42857142857143</ele><time>2026-04-18T13:42:56.998Z</time></trkpt><trkpt lat="44.8027107479817" lon="10.126815277457801"><ele>106.71428571428572</ele><time>2026-04-18T13:42:57.998Z</time></trkpt><trkpt lat="44.802722086971826" lon="10.12672503598812"><ele>107.0</ele><time>2026-04-18T13:42:58.998Z</time></trkpt><trkpt lat="44.802730190793596" lon="10.126632328564304"><ele>107.33333333333333</ele><time>2026-04-18T13:42:59.998Z</time></trkpt><trkpt lat="44.802740353183" lon="10.126456752313032"><ele>107.66666666666666</ele><time>2026-04-18T13:43:01.998Z</time></trkpt><trkpt lat="44.8027431962604" lon="10.126366605428435"><ele>108.0</ele><time>2026-04-18T13:43:02.998Z</time></trkpt><trkpt lat="44.80274059152521" lon="10.126272856020728"><ele>108.33333333333334</ele><time>2026-04-18T13:43:03.998Z</time></trkpt><trkpt lat="44.802734679566875" lon="10.126181907044634"><ele>108.66666666666667</ele><time>2026-04-18T13:43:04.998Z</time></trkpt><trkpt lat="44.80272950173736" lon="10.126091012109281"><ele>109.0</ele><time>2026-04-18T13:43:05.998Z</time></trkpt><trkpt lat="44.80270878137552" lon="10.125919008338643"><ele>109.0</ele><time>2026-04-18T13:43:07.998Z</time></trkpt><trkpt lat="44.80268780953373" lon="10.125745811298646"><ele>109.0</ele><time>2026-04-18T13:43:09.998Z</time></trkpt><trkpt lat="44.80266696385565" lon="10.125573870696064"><ele>109.0</ele><time>2026-04-18T13:43:11.998Z</time></trkpt><trkpt lat="44.80264116960284" lon="10.125403907501019"><ele>109.0</ele><time>2026-04-18T13:43:13.998Z</time></trkpt><trkpt lat="44.802619555469164" lon="10.125243092808777"><ele>108.75</ele><time>2026-04-18T13:43:15.998Z</time></trkpt><trkpt lat="44.80259615250508" lon="10.125086766170629"><ele>108.5</ele><time>2026-04-18T13:43:17.998Z</time></trkpt><trkpt lat="44.80257139539437" lon="10.12492721710207"><ele>108.25</ele><time>2026-04-18T13:43:19.998Z</time></trkpt><trkpt lat="44.80252990870572" lon="10.12476297248918"><ele>108.0</ele><time>2026-04-18T13:43:22Z</time></trkpt><trkpt lat="44.802505323537" lon="10.124592935168057"><ele>107.75</ele><time>2026-04-18T13:43:24Z</time></trkpt><trkpt lat="44.8025003290205" lon="10.124415695970075"><ele>107.5</ele><time>2026-04-18T13:43:26Z</time></trkpt><trkpt lat="44.802477034301866" lon="10.12424685391001"><ele>107.25</ele><time>2026-04-18T13:43:28Z</time></trkpt><trkpt lat="44.802452929847206" lon="10.124076118701588"><ele>107.0</ele><time>2026-04-18T13:43:30Z</time></trkpt><trkpt lat="44.80242645686856" lon="10.123910499891538"><ele>107.0</ele><time>2026-04-18T13:43:32Z</time></trkpt><trkpt lat="44.80240383676264" lon="10.12375419648917"><ele>107.0</ele><time>2026-04-18T13:43:34Z</time></trkpt><trkpt lat="44.802382353077824" lon="10.123587378233136"><ele>107.0</ele><time>2026-04-18T13:43:36Z</time></trkpt><trkpt lat="44.802354260005814" lon="10.123417247562415"><ele>107.0</ele><time>2026-04-18T13:43:38Z</time></trkpt><trkpt lat="44.8023328561068" lon="10.12325071788582"><ele>108.0</ele><time>2026-04-18T13:43:40Z</time></trkpt><trkpt lat="44.8023087666647" lon="10.123088525134479"><ele>109.0</ele><time>2026-04-18T13:43:42Z</time></trkpt><trkpt lat="44.80228668665466" lon="10.122920487054781"><ele>110.0</ele><time>2026-04-18T13:43:44Z</time></trkpt><trkpt lat="44.80226424322418" lon="10.122757075085229"><ele>111.0</ele><time>2026-04-18T13:43:46Z</time></trkpt><trkpt lat="44.80222512187495" lon="10.122600980701664"><ele>111.0</ele><time>2026-04-18T13:43:48Z</time></trkpt><trkpt lat="44.802202468503374" lon="10.122439590170938"><ele>111.0</ele><time>2026-04-18T13:43:50Z</time></trkpt><trkpt lat="44.80219527272024" lon="10.12227427967039"><ele>111.0</ele><time>2026-04-18T13:43:52Z</time></trkpt><trkpt lat="44.802157661521335" lon="10.122118455010035"><ele>111.0</ele><time>2026-04-18T13:43:53.999Z</time></trkpt><trkpt lat="44.80215178825015" lon="10.121956463658043"><ele>112.25</ele><time>2026-04-18T13:43:55.999Z</time></trkpt><trkpt lat="44.80211397222866" lon="10.121805330390554"><ele>113.5</ele><time>2026-04-18T13:43:57.999Z</time></trkpt><trkpt lat="44.80209247255398" lon="10.12165170824592"><ele>114.75</ele><time>2026-04-18T13:43:59.999Z</time></trkpt><trkpt lat="44.80206971515807" lon="10.121490615735896"><ele>116.0</ele><time>2026-04-18T13:44:01.999Z</time></trkpt><trkpt lat="44.80204966722694" lon="10.121334645272514"><ele>116.19999999999999</ele><time>2026-04-18T13:44:03.999Z</time></trkpt><trkpt lat="44.80203027278164" lon="10.121181949206022"><ele>116.39999999999999</ele><time>2026-04-18T13:44:05.999Z</time></trkpt><trkpt lat="44.80201165944554" lon="10.121028002714372"><ele>116.6</ele><time>2026-04-18T13:44:07.999Z</time></trkpt><trkpt lat="44.80199484608509" lon="10.120888589541364"><ele>116.8</ele><time>2026-04-18T13:44:09.999Z</time></trkpt><trkpt lat="44.80197964591147" lon="10.120757267664084"><ele>117.0</ele><time>2026-04-18T13:44:11.999Z</time></trkpt><trkpt lat="44.80196739925091" lon="10.120651462699655"><ele>117.0</ele><time>2026-04-18T13:44:13.999Z</time></trkpt><trkpt lat="44.80208413095712" lon="10.120603280605195"><ele>116.99999999999999</ele><time>2026-04-18T13:44:19.999Z</time></trkpt><trkpt lat="44.80214449665514" lon="10.120660012451356"><ele>116.99999999999999</ele><time>2026-04-18T13:44:23.999Z</time></trkpt><trkpt lat="44.802191900041244" lon="10.120467106181167"><ele>117.0</ele><time>2026-04-18T13:44:25.999Z</time></trkpt><trkpt lat="44.80220253508196" lon="10.120365880861035"><ele>117.0</ele><time>2026-04-18T13:44:28.999Z</time></trkpt><trkpt lat="44.80219758176169" lon="10.120258071481734"><ele>117.0</ele><time>2026-04-18T13:44:31.999Z</time></trkpt><trkpt lat="44.80219450125125" lon="10.120144053552535"><ele>117.0</ele><time>2026-04-18T13:44:34.999Z</time></trkpt><trkpt lat="44.80214781754168" lon="10.120079278467706"><ele>117.0</ele><time>2026-04-18T13:44:37.999Z</time></trkpt><trkpt lat="44.802074615397395" lon="10.120022565001166"><ele>117.0</ele><time>2026-04-18T13:44:41.999Z</time></trkpt><trkpt lat="44.80200688625497" lon="10.119967337931099"><ele>117.0</ele><time>2026-04-18T13:44:45.999Z</time></trkpt><trkpt lat="44.801952088836124" lon="10.119889690932178"><ele>117.0</ele><time>2026-04-18T13:44:49.998Z</time></trkpt><trkpt lat="44.80193788344237" lon="10.119788784259722"><ele>117.0</ele><time>2026-04-18T13:45:16.998Z</time></trkpt><trkpt lat="44.80195481072417" lon="10.119693388435056"><ele>117.0</ele><time>2026-04-18T13:45:19.998Z</time></trkpt><trkpt lat="44.80193876569186" lon="10.119581192702228"><ele>117.0</ele><time>2026-04-18T13:45:22.998Z</time></trkpt><trkpt lat="44.80187908179621" lon="10.119496966982386"><ele>117.0</ele><time>2026-04-18T13:45:25.998Z</time></trkpt><trkpt lat="44.80183525862765" lon="10.119425720834567"><ele>117.0</ele><time>2026-04-18T13:45:29Z</time></trkpt><trkpt lat="44.80180064286246" lon="10.119333643007232"><ele>117.0</ele><time>2026-04-18T13:45:31Z</time></trkpt><trkpt lat="44.8017977192343" lon="10.119206163595273"><ele>117.8</ele><time>2026-04-18T13:45:33Z</time></trkpt><trkpt lat="44.80177499797283" lon="10.119081256162774"><ele>118.6</ele><time>2026-04-18T13:45:35Z</time></trkpt><trkpt lat="44.80176282281769" lon="10.118961674072676"><ele>119.39999999999999</ele><time>2026-04-18T13:45:37Z</time></trkpt><trkpt lat="44.801744804452284" lon="10.118833652793693"><ele>120.19999999999999</ele><time>2026-04-18T13:45:39Z</time></trkpt><trkpt lat="44.801729958020516" lon="10.118686840413568"><ele>121.0</ele><time>2026-04-18T13:45:41Z</time></trkpt><trkpt lat="44.80171141724817" lon="10.118557635322396"><ele>121.0</ele><time>2026-04-18T13:45:43Z</time></trkpt><trkpt lat="44.80169457237467" lon="10.118436660629508"><ele>121.0</ele><time>2026-04-18T13:45:45Z</time></trkpt><trkpt lat="44.80168662189483" lon="10.118318537967859"><ele>121.0</ele><time>2026-04-18T13:45:47Z</time></trkpt><trkpt lat="44.80167551138078" lon="10.118186808297006"><ele>121.0</ele><time>2026-04-18T13:45:49Z</time></trkpt><trkpt lat="44.80166204916858" lon="10.118049513936198"><ele>121.0</ele><time>2026-04-18T13:45:51Z</time></trkpt><trkpt lat="44.80162782479998" lon="10.117910810339756"><ele>121.0</ele><time>2026-04-18T13:45:53Z</time></trkpt><trkpt lat="44.80159259672995" lon="10.117768161433931"><ele>121.0</ele><time>2026-04-18T13:45:55Z</time></trkpt><trkpt lat="44.80158845056514" lon="10.11761842048366"><ele>121.0</ele><time>2026-04-18T13:45:57Z</time></trkpt><trkpt lat="44.80156183143275" lon="10.117470883687036"><ele>121.0</ele><time>2026-04-18T13:45:58.999Z</time></trkpt><trkpt lat="44.8015367934383" lon="10.117324630403523"><ele>121.0</ele><time>2026-04-18T13:46:00.999Z</time></trkpt><trkpt lat="44.80151657769864" lon="10.117178837274277"><ele>121.5</ele><time>2026-04-18T13:46:02.999Z</time></trkpt><trkpt lat="44.80149876648258" lon="10.117060027511757"><ele>122.0</ele><time>2026-04-18T13:46:05.999Z</time></trkpt><trkpt lat="44.801452639706426" lon="10.116874463712286"><ele>122.5</ele><time>2026-04-18T13:46:06.999Z</time></trkpt><trkpt lat="44.80143517397942" lon="10.116718231666724"><ele>123.0</ele><time>2026-04-18T13:46:08.999Z</time></trkpt><trkpt lat="44.80141505042015" lon="10.116561460949447"><ele>123.0</ele><time>2026-04-18T13:46:10.999Z</time></trkpt><trkpt lat="44.80139669818858" lon="10.116405578844516"><ele>123.0</ele><time>2026-04-18T13:46:12.999Z</time></trkpt><trkpt lat="44.80137276409034" lon="10.116255233523445"><ele>123.0</ele><time>2026-04-18T13:46:14.999Z</time></trkpt><trkpt lat="44.80134829529769" lon="10.116097283253314"><ele>123.0</ele><time>2026-04-18T13:46:16.999Z</time></trkpt><trkpt lat="44.80132211960992" lon="10.115931349673753"><ele>123.0</ele><time>2026-04-18T13:46:18.999Z</time></trkpt><trkpt lat="44.801302370908296" lon="10.115766455590418"><ele>123.0</ele><time>2026-04-18T13:46:20.999Z</time></trkpt><trkpt lat="44.801283481836215" lon="10.11559600899531"><ele>123.0</ele><time>2026-04-18T13:46:22.999Z</time></trkpt><trkpt lat="44.80127319677848" lon="10.11550780495326"><ele>123.0</ele><time>2026-04-18T13:46:23.999Z</time></trkpt><trkpt lat="44.80125970303112" lon="10.115420092897692"><ele>123.0</ele><time>2026-04-18T13:46:24.999Z</time></trkpt><trkpt lat="44.8012803472794" lon="10.115318181337285"><ele>123.0</ele><time>2026-04-18T13:46:25.999Z</time></trkpt><trkpt lat="44.80126982731229" lon="10.11522636707319"><ele>123.0</ele><time>2026-04-18T13:46:26.999Z</time></trkpt><trkpt lat="44.801260201639295" lon="10.115128090146463"><ele>123.0</ele><time>2026-04-18T13:46:27.999Z</time></trkpt><trkpt lat="44.801251300051774" lon="10.115026813954001"><ele>123.0</ele><time>2026-04-18T13:46:28.999Z</time></trkpt><trkpt lat="44.80123546116275" lon="10.11491246751839"><ele>123.0</ele><time>2026-04-18T13:46:29.999Z</time></trkpt><trkpt lat="44.80122460979778" lon="10.11479340103757"><ele>123.0</ele><time>2026-04-18T13:46:30.999Z</time></trkpt><trkpt lat="44.801207379782355" lon="10.11466942038439"><ele>123.0</ele><time>2026-04-18T13:46:31.999Z</time></trkpt><trkpt lat="44.801191721066225" lon="10.114543144132837"><ele>122.60000000000001</ele><time>2026-04-18T13:46:32.999Z</time></trkpt><trkpt lat="44.80117788130021" lon="10.114413064541509"><ele>122.20000000000002</ele><time>2026-04-18T13:46:33.999Z</time></trkpt><trkpt lat="44.80117037624368" lon="10.114275325007137"><ele>121.8</ele><time>2026-04-18T13:46:34.999Z</time></trkpt><trkpt lat="44.801163658824144" lon="10.114136302376613"><ele>121.4</ele><time>2026-04-18T13:46:35.999Z</time></trkpt><trkpt lat="44.80115490957952" lon="10.114023228831092"><ele>121.0</ele><time>2026-04-18T13:46:36.999Z</time></trkpt><trkpt lat="44.801147753126465" lon="10.1138723256943"><ele>118.8</ele><time>2026-04-18T13:46:37.999Z</time></trkpt><trkpt lat="44.80114091430735" lon="10.113725112475864"><ele>116.6</ele><time>2026-04-18T13:46:38.999Z</time></trkpt><trkpt lat="44.80112723366341" lon="10.11357732994928"><ele>114.4</ele><time>2026-04-18T13:46:39.999Z</time></trkpt><trkpt lat="44.80107854819758" lon="10.113438227224945"><ele>112.2</ele><time>2026-04-18T13:46:40.999Z</time></trkpt><trkpt lat="44.80104391593988" lon="10.113291179808087"><ele>110.0</ele><time>2026-04-18T13:46:41.999Z</time></trkpt><trkpt lat="44.80101574410199" lon="10.113144570457585"><ele>111.25</ele><time>2026-04-18T13:46:42.999Z</time></trkpt><trkpt lat="44.80095716016699" lon="10.11301116484861"><ele>112.5</ele><time>2026-04-18T13:46:43.999Z</time></trkpt><trkpt lat="44.800897193373956" lon="10.112886690482608"><ele>113.75</ele><time>2026-04-18T13:46:44.999Z</time></trkpt><trkpt lat="44.80083003647996" lon="10.112751107709355"><ele>115.0</ele><time>2026-04-18T13:46:45.999Z</time></trkpt><trkpt lat="44.80076640452709" lon="10.112614646184056"><ele>115.0</ele><time>2026-04-18T13:46:46.999Z</time></trkpt><trkpt lat="44.80069567920434" lon="10.112487525017631"><ele>115.0</ele><time>2026-04-18T13:46:47.999Z</time></trkpt><trkpt lat="44.800626191823106" lon="10.112350451991482"><ele>115.0</ele><time>2026-04-18T13:46:48.999Z</time></trkpt><trkpt lat="44.800560539507096" lon="10.11221977310092"><ele>115.0</ele><time>2026-04-18T13:46:49.999Z</time></trkpt><trkpt lat="44.800523961764554" lon="10.112077693173191"><ele>114.5</ele><time>2026-04-18T13:46:50.999Z</time></trkpt><trkpt lat="44.80049479315219" lon="10.111929649482226"><ele>114.0</ele><time>2026-04-18T13:46:51.999Z</time></trkpt><trkpt lat="44.800565878850676" lon="10.111792050055772"><ele>113.5</ele><time>2026-04-18T13:46:52.998Z</time></trkpt><trkpt lat="44.800621670666" lon="10.111645450967247"><ele>113.0</ele><time>2026-04-18T13:46:53.998Z</time></trkpt><trkpt lat="44.80069862917087" lon="10.11150221857437"><ele>113.0</ele><time>2026-04-18T13:46:54.998Z</time></trkpt><trkpt lat="44.80073870518782" lon="10.111349885327291"><ele>113.00000000000001</ele><time>2026-04-18T13:46:55.998Z</time></trkpt><trkpt lat="44.80075958510153" lon="10.111197397009464"><ele>113.00000000000001</ele><time>2026-04-18T13:46:56.998Z</time></trkpt><trkpt lat="44.80078015647639" lon="10.111048943806157"><ele>113.0</ele><time>2026-04-18T13:46:57.998Z</time></trkpt><trkpt lat="44.80080143335376" lon="10.110908233350758"><ele>113.0</ele><time>2026-04-18T13:46:58.998Z</time></trkpt><trkpt lat="44.80081950946197" lon="10.110769964134086"><ele>112.2</ele><time>2026-04-18T13:46:59.998Z</time></trkpt><trkpt lat="44.800846212587736" lon="10.110640136642372"><ele>111.4</ele><time>2026-04-18T13:47:00.998Z</time></trkpt><trkpt lat="44.80086652348635" lon="10.1105105397108"><ele>110.60000000000001</ele><time>2026-04-18T13:47:01.998Z</time></trkpt><trkpt lat="44.80088650298294" lon="10.110381890006433"><ele>109.80000000000001</ele><time>2026-04-18T13:47:02.998Z</time></trkpt><trkpt lat="44.80091409247011" lon="10.110258061935042"><ele>109.0</ele><time>2026-04-18T13:47:03.998Z</time></trkpt><trkpt lat="44.80094190760148" lon="10.110143127483683"><ele>109.0</ele><time>2026-04-18T13:47:04.998Z</time></trkpt><trkpt lat="44.800965543936634" lon="10.110030039627413"><ele>109.0</ele><time>2026-04-18T13:47:05.998Z</time></trkpt><trkpt lat="44.8009850403337" lon="10.109923216481963"><ele>109.0</ele><time>2026-04-18T13:47:06.998Z</time></trkpt><trkpt lat="44.80100947948306" lon="10.109820349435633"><ele>109.0</ele><time>2026-04-18T13:47:07.998Z</time></trkpt><trkpt lat="44.80103620600255" lon="10.10972749593104"><ele>109.0</ele><time>2026-04-18T13:47:08.998Z</time></trkpt><trkpt lat="44.801064189790594" lon="10.10963651592307"><ele>109.0</ele><time>2026-04-18T13:47:09.998Z</time></trkpt><trkpt lat="44.801095421870954" lon="10.109549763708555"><ele>109.0</ele><time>2026-04-18T13:47:10.998Z</time></trkpt><trkpt lat="44.80112586451829" lon="10.109468537707961"><ele>110.80000000000001</ele><time>2026-04-18T13:47:11.998Z</time></trkpt><trkpt lat="44.80116625528293" lon="10.109398853752952"><ele>112.60000000000001</ele><time>2026-04-18T13:47:12.998Z</time></trkpt><trkpt lat="44.80125373596844" lon="10.109275119688135"><ele>114.4</ele><time>2026-04-18T13:47:14.998Z</time></trkpt><trkpt lat="44.801332044732845" lon="10.109166986983002"><ele>116.2</ele><time>2026-04-18T13:47:16.998Z</time></trkpt><trkpt lat="44.80141403116525" lon="10.109070242150306"><ele>118.0</ele><time>2026-04-18T13:47:18.998Z</time></trkpt><trkpt lat="44.80149268280087" lon="10.108987139067265"><ele>119.16666666666667</ele><time>2026-04-18T13:47:20.998Z</time></trkpt><trkpt lat="44.801568924715895" lon="10.10891034185738"><ele>120.33333333333334</ele><time>2026-04-18T13:47:22.998Z</time></trkpt><trkpt lat="44.80163217625477" lon="10.10882625863447"><ele>121.5</ele><time>2026-04-18T13:47:24.998Z</time></trkpt><trkpt lat="44.8016964252301" lon="10.108758712737059"><ele>122.66666666666666</ele><time>2026-04-18T13:47:26.998Z</time></trkpt><trkpt lat="44.80176593362456" lon="10.108697277564143"><ele>123.83333333333333</ele><time>2026-04-18T13:47:28.998Z</time></trkpt><trkpt lat="44.80183571253455" lon="10.108633552614435"><ele>125.0</ele><time>2026-04-18T13:47:30.998Z</time></trkpt><trkpt lat="44.80190665735563" lon="10.10857229087629"><ele>125.57142857142857</ele><time>2026-04-18T13:47:33Z</time></trkpt><trkpt lat="44.801972463546086" lon="10.108508903771144"><ele>126.14285714285714</ele><time>2026-04-18T13:47:35Z</time></trkpt><trkpt lat="44.80203735384597" lon="10.108451804711736"><ele>126.71428571428571</ele><time>2026-04-18T13:47:37Z</time></trkpt><trkpt lat="44.8021073892302" lon="10.108397266170043"><ele>127.28571428571428</ele><time>2026-04-18T13:47:39Z</time></trkpt><trkpt lat="44.80216589580765" lon="10.108328901070548"><ele>127.85714285714286</ele><time>2026-04-18T13:47:41Z</time></trkpt><trkpt lat="44.802219278037924" lon="10.108270312588312"><ele>128.42857142857142</ele><time>2026-04-18T13:47:43Z</time></trkpt><trkpt lat="44.80227599309626" lon="10.108214903730651"><ele>129.0</ele><time>2026-04-18T13:47:45Z</time></trkpt><trkpt lat="44.80235893279258" lon="10.10814030316992"><ele>129.14285714285714</ele><time>2026-04-18T13:47:48Z</time></trkpt><trkpt lat="44.80241461500371" lon="10.108089859414262"><ele>129.28571428571428</ele><time>2026-04-18T13:47:50Z</time></trkpt><trkpt lat="44.80246889008315" lon="10.108043564133395"><ele>129.42857142857144</ele><time>2026-04-18T13:47:52Z</time></trkpt><trkpt lat="44.8025264608883" lon="10.107999080508744"><ele>129.57142857142856</ele><time>2026-04-18T13:47:54Z</time></trkpt><trkpt lat="44.80257727616754" lon="10.107943964322802"><ele>129.71428571428572</ele><time>2026-04-18T13:47:56Z</time></trkpt><trkpt lat="44.80265523990529" lon="10.107882276012894"><ele>129.85714285714286</ele><time>2026-04-18T13:47:59Z</time></trkpt><trkpt lat="44.802711223139326" lon="10.107838495939427"><ele>130.0</ele><time>2026-04-18T13:48:00.999Z</time></trkpt><trkpt lat="44.80276763208111" lon="10.107793730873336"><ele>130.16666666666669</ele><time>2026-04-18T13:48:02.999Z</time></trkpt><trkpt lat="44.802820895224464" lon="10.107746195366135"><ele>130.33333333333334</ele><time>2026-04-18T13:48:04.999Z</time></trkpt><trkpt lat="44.802875771805475" lon="10.107696397973948"><ele>130.5</ele><time>2026-04-18T13:48:06.999Z</time></trkpt><trkpt lat="44.80295085841393" lon="10.107623016331459"><ele>130.66666666666666</ele><time>2026-04-18T13:48:09.999Z</time></trkpt><trkpt lat="44.803025139707145" lon="10.107537780490038"><ele>130.83333333333331</ele><time>2026-04-18T13:48:12.999Z</time></trkpt><trkpt lat="44.80307813149754" lon="10.107474747745762"><ele>131.0</ele><time>2026-04-18T13:48:14.999Z</time></trkpt><trkpt lat="44.80312507950925" lon="10.107401391765706"><ele>131.14285714285714</ele><time>2026-04-18T13:48:16.999Z</time></trkpt><trkpt lat="44.80316823637983" lon="10.107328378517696"><ele>131.2857142857143</ele><time>2026-04-18T13:48:18.999Z</time></trkpt><trkpt lat="44.80320900709668" lon="10.107238798224445"><ele>131.42857142857144</ele><time>2026-04-18T13:48:20.999Z</time></trkpt><trkpt lat="44.80324416027891" lon="10.107151927877393"><ele>131.57142857142858</ele><time>2026-04-18T13:48:22.999Z</time></trkpt><trkpt lat="44.80327632819335" lon="10.10705813814782"><ele>131.71428571428572</ele><time>2026-04-18T13:48:24.999Z</time></trkpt><trkpt lat="44.803307850334264" lon="10.106967510042193"><ele>131.85714285714286</ele><time>2026-04-18T13:48:26.999Z</time></trkpt><trkpt lat="44.803340773796926" lon="10.106867892631124"><ele>132.0</ele><time>2026-04-18T13:48:28.999Z</time></trkpt><trkpt lat="44.80337279381787" lon="10.106768895884752"><ele>132.0</ele><time>2026-04-18T13:48:30.999Z</time></trkpt><trkpt lat="44.80340680626044" lon="10.106665666378767"><ele>132.0</ele><time>2026-04-18T13:48:32.999Z</time></trkpt><trkpt lat="44.803434081983255" lon="10.106552134528135"><ele>132.0</ele><time>2026-04-18T13:48:34.999Z</time></trkpt><trkpt lat="44.80346989671394" lon="10.106429717142461"><ele>132.0</ele><time>2026-04-18T13:48:36.999Z</time></trkpt><trkpt lat="44.80351145799153" lon="10.106312969880367"><ele>132.0</ele><time>2026-04-18T13:48:38.999Z</time></trkpt><trkpt lat="44.80355426522745" lon="10.106180876584698"><ele>132.0</ele><time>2026-04-18T13:48:40.999Z</time></trkpt><trkpt lat="44.80359448707954" lon="10.106041645845043"><ele>132.0</ele><time>2026-04-18T13:48:42.999Z</time></trkpt><trkpt lat="44.80363648971992" lon="10.10590095415155"><ele>132.0</ele><time>2026-04-18T13:48:44.999Z</time></trkpt><trkpt lat="44.80367931432071" lon="10.105759146454838"><ele>132.0</ele><time>2026-04-18T13:48:46.999Z</time></trkpt><trkpt lat="44.80372039363513" lon="10.105614643787767"><ele>132.0</ele><time>2026-04-18T13:48:48.999Z</time></trkpt><trkpt lat="44.80376516869604" lon="10.105467359682098"><ele>132.0</ele><time>2026-04-18T13:48:50.999Z</time></trkpt><trkpt lat="44.803807467037714" lon="10.10531628022567"><ele>132.0</ele><time>2026-04-18T13:48:52.999Z</time></trkpt><trkpt lat="44.803836063802585" lon="10.105236293843904"><ele>132.0</ele><time>2026-04-18T13:48:53.998Z</time></trkpt><trkpt lat="44.80388407377443" lon="10.105079361706512"><ele>132.0</ele><time>2026-04-18T13:48:55.998Z</time></trkpt><trkpt lat="44.80392520838721" lon="10.104923397600952"><ele>132.0</ele><time>2026-04-18T13:48:57.998Z</time></trkpt><trkpt lat="44.803975605177754" lon="10.104763975840877"><ele>132.0</ele><time>2026-04-18T13:48:59.998Z</time></trkpt><trkpt lat="44.80403000737199" lon="10.104600515427036"><ele>132.0</ele><time>2026-04-18T13:49:01.998Z</time></trkpt><trkpt lat="44.80407906188984" lon="10.104434003161963"><ele>132.0</ele><time>2026-04-18T13:49:03.998Z</time></trkpt><trkpt lat="44.804131030209824" lon="10.1042678502641"><ele>132.0</ele><time>2026-04-18T13:49:05.998Z</time></trkpt><trkpt lat="44.80417727452485" lon="10.104095258035827"><ele>132.14285714285714</ele><time>2026-04-18T13:49:07.998Z</time></trkpt><trkpt lat="44.80420409544542" lon="10.104010151691998"><ele>132.28571428571428</ele><time>2026-04-18T13:49:08.998Z</time></trkpt><trkpt lat="44.80422951769585" lon="10.103922687654272"><ele>132.42857142857144</ele><time>2026-04-18T13:49:09.998Z</time></trkpt><trkpt lat="44.804255915444784" lon="10.1038339238153"><ele>132.57142857142856</ele><time>2026-04-18T13:49:10.998Z</time></trkpt><trkpt lat="44.80427963394189" lon="10.103747073464977"><ele>132.71428571428572</ele><time>2026-04-18T13:49:11.998Z</time></trkpt><trkpt lat="44.80430475033469" lon="10.103660416909845"><ele>132.85714285714286</ele><time>2026-04-18T13:49:12.998Z</time></trkpt><trkpt lat="44.804328877304165" lon="10.103575662237443"><ele>133.0</ele><time>2026-04-18T13:49:13.998Z</time></trkpt><trkpt lat="44.804350298291865" lon="10.103491497974062"><ele>133.0</ele><time>2026-04-18T13:49:14.998Z</time></trkpt><trkpt lat="44.80440032284175" lon="10.10332745462827"><ele>133.0</ele><time>2026-04-18T13:49:16.998Z</time></trkpt><trkpt lat="44.804425588870444" lon="10.103244927253394"><ele>133.0</ele><time>2026-04-18T13:49:17.998Z</time></trkpt><trkpt lat="44.804447719871234" lon="10.103159304628871"><ele>133.0</ele><time>2026-04-18T13:49:18.998Z</time></trkpt><trkpt lat="44.804475503358134" lon="10.103071487954915"><ele>133.0</ele><time>2026-04-18T13:49:19.998Z</time></trkpt><trkpt lat="44.80450199401201" lon="10.102985614502405"><ele>133.0</ele><time>2026-04-18T13:49:20.998Z</time></trkpt><trkpt lat="44.80452905185147" lon="10.102898523932076"><ele>133.0</ele><time>2026-04-18T13:49:21.998Z</time></trkpt><trkpt lat="44.80455560271945" lon="10.102807404926805"><ele>133.0</ele><time>2026-04-18T13:49:22.998Z</time></trkpt><trkpt lat="44.80458143867025" lon="10.102714650606394"><ele>133.0</ele><time>2026-04-18T13:49:23.998Z</time></trkpt><trkpt lat="44.80461115840982" lon="10.102619777753658"><ele>133.0</ele><time>2026-04-18T13:49:24.998Z</time></trkpt><trkpt lat="44.80464042554982" lon="10.102521470289702"><ele>133.0</ele><time>2026-04-18T13:49:25.998Z</time></trkpt><trkpt lat="44.80467048246192" lon="10.102421095009163"><ele>133.0</ele><time>2026-04-18T13:49:26.998Z</time></trkpt><trkpt lat="44.80469982494192" lon="10.102323027618215"><ele>133.0</ele><time>2026-04-18T13:49:27.998Z</time></trkpt><trkpt lat="44.80472969326164" lon="10.10222107440098"><ele>132.66666666666669</ele><time>2026-04-18T13:49:28.998Z</time></trkpt><trkpt lat="44.80475690110767" lon="10.102120300915148"><ele>132.33333333333334</ele><time>2026-04-18T13:49:29.998Z</time></trkpt><trkpt lat="44.804787680828866" lon="10.102018708784936"><ele>132.0</ele><time>2026-04-18T13:49:30.998Z</time></trkpt><trkpt lat="44.804817294979905" lon="10.101904571396126"><ele>131.66666666666666</ele><time>2026-04-18T13:49:31.998Z</time></trkpt><trkpt lat="44.804850403914955" lon="10.101798464653253"><ele>131.33333333333331</ele><time>2026-04-18T13:49:32.998Z</time></trkpt><trkpt lat="44.8048801334796" lon="10.101689397969858"><ele>131.0</ele><time>2026-04-18T13:49:33.998Z</time></trkpt><trkpt lat="44.804909186868464" lon="10.101577590607901"><ele>130.83333333333331</ele><time>2026-04-18T13:49:34.998Z</time></trkpt><trkpt lat="44.80493345634873" lon="10.101468376983519"><ele>130.66666666666666</ele><time>2026-04-18T13:49:35.998Z</time></trkpt><trkpt lat="44.80497129458811" lon="10.101351250212485"><ele>130.5</ele><time>2026-04-18T13:49:36.998Z</time></trkpt><trkpt lat="44.80500595798367" lon="10.101228460757769"><ele>130.33333333333334</ele><time>2026-04-18T13:49:37.998Z</time></trkpt><trkpt lat="44.805036984041784" lon="10.101122107103919"><ele>130.16666666666669</ele><time>2026-04-18T13:49:39Z</time></trkpt><trkpt lat="44.80507376480065" lon="10.101015323418935"><ele>130.0</ele><time>2026-04-18T13:49:40Z</time></trkpt><trkpt lat="44.80510737845599" lon="10.1009044357861"><ele>130.0</ele><time>2026-04-18T13:49:41Z</time></trkpt><trkpt lat="44.80514314730226" lon="10.100795666748631"><ele>130.0</ele><time>2026-04-18T13:49:42Z</time></trkpt><trkpt lat="44.80517341684199" lon="10.10069029272476"><ele>130.0</ele><time>2026-04-18T13:49:43Z</time></trkpt><trkpt lat="44.80520013696908" lon="10.100585720543373"><ele>130.0</ele><time>2026-04-18T13:49:44Z</time></trkpt><trkpt lat="44.80522936363345" lon="10.100487056901223"><ele>130.0</ele><time>2026-04-18T13:49:45Z</time></trkpt><trkpt lat="44.80526194831402" lon="10.100388517675409"><ele>130.0</ele><time>2026-04-18T13:49:46Z</time></trkpt><trkpt lat="44.805296595546615" lon="10.100290549046788"><ele>130.14285714285717</ele><time>2026-04-18T13:49:47Z</time></trkpt><trkpt lat="44.80533026318837" lon="10.10019292309292"><ele>130.28571428571428</ele><time>2026-04-18T13:49:48Z</time></trkpt><trkpt lat="44.80536294030324" lon="10.100093444831542"><ele>130.42857142857144</ele><time>2026-04-18T13:49:49Z</time></trkpt><trkpt lat="44.80539016921455" lon="10.099995422882607"><ele>130.57142857142858</ele><time>2026-04-18T13:49:50Z</time></trkpt><trkpt lat="44.80542097195678" lon="10.099903055530573"><ele>130.71428571428572</ele><time>2026-04-18T13:49:51Z</time></trkpt><trkpt lat="44.80544855940189" lon="10.099808291327436"><ele>130.85714285714286</ele><time>2026-04-18T13:49:52Z</time></trkpt><trkpt lat="44.805475677151215" lon="10.099714150616126"><ele>131.0</ele><time>2026-04-18T13:49:53Z</time></trkpt><trkpt lat="44.80550157983323" lon="10.099618754841567"><ele>131.28571428571428</ele><time>2026-04-18T13:49:54Z</time></trkpt><trkpt lat="44.805526988954426" lon="10.09952770055889"><ele>131.57142857142858</ele><time>2026-04-18T13:49:55Z</time></trkpt><trkpt lat="44.80555117674818" lon="10.099435132596604"><ele>131.85714285714286</ele><time>2026-04-18T13:49:56Z</time></trkpt><trkpt lat="44.80557420112325" lon="10.099337951603996"><ele>132.14285714285714</ele><time>2026-04-18T13:49:57Z</time></trkpt><trkpt lat="44.80559781990978" lon="10.099243545565837"><ele>132.42857142857144</ele><time>2026-04-18T13:49:58Z</time></trkpt><trkpt lat="44.80563343175158" lon="10.09915279307004"><ele>132.71428571428572</ele><time>2026-04-18T13:49:59Z</time></trkpt><trkpt lat="44.805653422781795" lon="10.099055145475932"><ele>133.0</ele><time>2026-04-18T13:50:00Z</time></trkpt><trkpt lat="44.80567953533407" lon="10.098958754160144"><ele>133.0</ele><time>2026-04-18T13:50:01Z</time></trkpt><trkpt lat="44.8056761441737" lon="10.098864204775843"><ele>133.0</ele><time>2026-04-18T13:50:02Z</time></trkpt><trkpt lat="44.80567941586168" lon="10.098760694468012"><ele>133.0</ele><time>2026-04-18T13:50:02.999Z</time></trkpt><trkpt lat="44.805732420354325" lon="10.098673063614894"><ele>133.0</ele><time>2026-04-18T13:50:03.999Z</time></trkpt><trkpt lat="44.805752087372326" lon="10.098573156944203"><ele>133.0</ele><time>2026-04-18T13:50:04.999Z</time></trkpt><trkpt lat="44.805775631386545" lon="10.098466573319998"><ele>133.0</ele><time>2026-04-18T13:50:05.999Z</time></trkpt><trkpt lat="44.805789377353115" lon="10.098357676709865"><ele>132.66666666666669</ele><time>2026-04-18T13:50:06.999Z</time></trkpt><trkpt lat="44.805802525778134" lon="10.098240408630902"><ele>132.33333333333334</ele><time>2026-04-18T13:50:07.999Z</time></trkpt><trkpt lat="44.80581908028707" lon="10.098122106033838"><ele>132.0</ele><time>2026-04-18T13:50:08.999Z</time></trkpt><trkpt lat="44.80583762587487" lon="10.098007875611165"><ele>131.66666666666666</ele><time>2026-04-18T13:50:09.999Z</time></trkpt><trkpt lat="44.80585889976399" lon="10.097889688329685"><ele>131.33333333333331</ele><time>2026-04-18T13:50:10.999Z</time></trkpt><trkpt lat="44.80587963623388" lon="10.097772330728526"><ele>131.0</ele><time>2026-04-18T13:50:11.999Z</time></trkpt><trkpt lat="44.80590634730448" lon="10.097652414935983"><ele>131.0</ele><time>2026-04-18T13:50:12.999Z</time></trkpt><trkpt lat="44.80593469163652" lon="10.09753737344808"><ele>131.0</ele><time>2026-04-18T13:50:13.999Z</time></trkpt><trkpt lat="44.80595634406303" lon="10.09742217845974"><ele>131.0</ele><time>2026-04-18T13:50:14.999Z</time></trkpt><trkpt lat="44.805984096146524" lon="10.097301342329981"><ele>131.0</ele><time>2026-04-18T13:50:15.999Z</time></trkpt><trkpt lat="44.806013145688276" lon="10.097180290124877"><ele>131.0</ele><time>2026-04-18T13:50:16.999Z</time></trkpt><trkpt lat="44.806035772627006" lon="10.097059051581123"><ele>131.0</ele><time>2026-04-18T13:50:17.999Z</time></trkpt><trkpt lat="44.80606254300401" lon="10.09693177609478"><ele>130.83333333333331</ele><time>2026-04-18T13:50:18.999Z</time></trkpt><trkpt lat="44.806089068366795" lon="10.096813496096683"><ele>130.66666666666666</ele><time>2026-04-18T13:50:19.999Z</time></trkpt><trkpt lat="44.80611655757972" lon="10.09669355864002"><ele>130.5</ele><time>2026-04-18T13:50:20.999Z</time></trkpt><trkpt lat="44.80614142853744" lon="10.096572460514084"><ele>130.33333333333334</ele><time>2026-04-18T13:50:21.999Z</time></trkpt><trkpt lat="44.80616621116362" lon="10.09645199713146"><ele>130.16666666666669</ele><time>2026-04-18T13:50:22.999Z</time></trkpt><trkpt lat="44.80619972050212" lon="10.096340451839984"><ele>130.0</ele><time>2026-04-18T13:50:23.999Z</time></trkpt><trkpt lat="44.806252175474974" lon="10.096242403108052"><ele>130.0</ele><time>2026-04-18T13:50:24.999Z</time></trkpt><trkpt lat="44.80633044949682" lon="10.096169883134763"><ele>130.0</ele><time>2026-04-18T13:50:25.999Z</time></trkpt><trkpt lat="44.80642408244843" lon="10.096179982324983"><ele>130.0</ele><time>2026-04-18T13:50:26.999Z</time></trkpt><trkpt lat="44.80651521561967" lon="10.096189089681868"><ele>130.0</ele><time>2026-04-18T13:50:27.999Z</time></trkpt><trkpt lat="44.80660289429999" lon="10.09620326728237"><ele>130.0</ele><time>2026-04-18T13:50:28.999Z</time></trkpt><trkpt lat="44.8066963158472" lon="10.096202138701187"><ele>130.0</ele><time>2026-04-18T13:50:29.999Z</time></trkpt><trkpt lat="44.806785952144274" lon="10.096247643103297"><ele>130.0</ele><time>2026-04-18T13:50:30.999Z</time></trkpt><trkpt lat="44.80687835388651" lon="10.096275659469843"><ele>130.0</ele><time>2026-04-18T13:50:31.999Z</time></trkpt><trkpt lat="44.80697361946778" lon="10.09630458480716"><ele>130.0</ele><time>2026-04-18T13:50:32.999Z</time></trkpt><trkpt lat="44.807069532547075" lon="10.096333706748158"><ele>130.0</ele><time>2026-04-18T13:50:33.999Z</time></trkpt><trkpt lat="44.8071657732023" lon="10.09636480728857"><ele>129.4</ele><time>2026-04-18T13:50:34.999Z</time></trkpt><trkpt lat="44.80726395048598" lon="10.096399920094285"><ele>128.8</ele><time>2026-04-18T13:50:35.999Z</time></trkpt><trkpt lat="44.8073584420906" lon="10.096436123685606"><ele>128.2</ele><time>2026-04-18T13:50:36.999Z</time></trkpt><trkpt lat="44.80745480802488" lon="10.096473505134739"><ele>127.6</ele><time>2026-04-18T13:50:37.999Z</time></trkpt><trkpt lat="44.80755002419409" lon="10.096511319844407"><ele>127.0</ele><time>2026-04-18T13:50:38.999Z</time></trkpt><trkpt lat="44.807645771015125" lon="10.09654934529697"><ele>126.6</ele><time>2026-04-18T13:50:39.999Z</time></trkpt><trkpt lat="44.807743154218436" lon="10.096589230767682"><ele>126.19999999999999</ele><time>2026-04-18T13:50:40.999Z</time></trkpt><trkpt lat="44.8078409785773" lon="10.096631222145755"><ele>125.8</ele><time>2026-04-18T13:50:41.999Z</time></trkpt><trkpt lat="44.807938391511065" lon="10.096673713353171"><ele>125.4</ele><time>2026-04-18T13:50:42.999Z</time></trkpt><trkpt lat="44.80803358181734" lon="10.096716614378828"><ele>125.0</ele><time>2026-04-18T13:50:43.999Z</time></trkpt><trkpt lat="44.80813152675611" lon="10.096763637292877"><ele>125.0</ele><time>2026-04-18T13:50:44.999Z</time></trkpt><trkpt lat="44.80822855165357" lon="10.096812740739093"><ele>125.0</ele><time>2026-04-18T13:50:45.999Z</time></trkpt><trkpt lat="44.80832866902972" lon="10.09686567659328"><ele>125.0</ele><time>2026-04-18T13:50:46.999Z</time></trkpt><trkpt lat="44.808425433903885" lon="10.09691744757012"><ele>125.0</ele><time>2026-04-18T13:50:47.999Z</time></trkpt><trkpt lat="44.808521530871914" lon="10.09697417016262"><ele>125.0</ele><time>2026-04-18T13:50:48.999Z</time></trkpt><trkpt lat="44.80861682096472" lon="10.097030225197669"><ele>124.4</ele><time>2026-04-18T13:50:49.999Z</time></trkpt><trkpt lat="44.80871103048729" lon="10.097085644572912"><ele>123.8</ele><time>2026-04-18T13:50:50.999Z</time></trkpt><trkpt lat="44.80880957554306" lon="10.097142213093296"><ele>123.19999999999999</ele><time>2026-04-18T13:50:51.999Z</time></trkpt><trkpt lat="44.8089049401418" lon="10.097195016012046"><ele>122.6</ele><time>2026-04-18T13:50:52.999Z</time></trkpt><trkpt lat="44.8089996118464" lon="10.09724743527829"><ele>122.0</ele><time>2026-04-18T13:50:53.999Z</time></trkpt><trkpt lat="44.809094050078066" lon="10.097299725269828"><ele>122.0</ele><time>2026-04-18T13:50:54.999Z</time></trkpt><trkpt lat="44.80918598312299" lon="10.097353125853726"><ele>121.99999999999999</ele><time>2026-04-18T13:50:55.999Z</time></trkpt><trkpt lat="44.80927626797882" lon="10.097410360703805"><ele>121.99999999999999</ele><time>2026-04-18T13:50:56.999Z</time></trkpt><trkpt lat="44.809363626347285" lon="10.097471067723218"><ele>122.0</ele><time>2026-04-18T13:50:57.999Z</time></trkpt><trkpt lat="44.809442791556215" lon="10.097539414874372"><ele>122.0</ele><time>2026-04-18T13:50:58.998Z</time></trkpt><trkpt lat="44.80952384153344" lon="10.09761510490775"><ele>121.8</ele><time>2026-04-18T13:50:59.998Z</time></trkpt><trkpt lat="44.80959915174906" lon="10.097689458092205"><ele>121.6</ele><time>2026-04-18T13:51:00.998Z</time></trkpt><trkpt lat="44.809673951202186" lon="10.097766956192732"><ele>121.39999999999999</ele><time>2026-04-18T13:51:01.998Z</time></trkpt><trkpt lat="44.80974964961637" lon="10.097845385685243"><ele>121.19999999999999</ele><time>2026-04-18T13:51:02.998Z</time></trkpt><trkpt lat="44.809823347622974" lon="10.097921742585363"><ele>121.0</ele><time>2026-04-18T13:51:03.998Z</time></trkpt><trkpt lat="44.80989944745918" lon="10.097996015962094"><ele>121.00000000000001</ele><time>2026-04-18T13:51:04.998Z</time></trkpt><trkpt lat="44.809973799907404" lon="10.09806504548804"><ele>121.0</ele><time>2026-04-18T13:51:05.998Z</time></trkpt><trkpt lat="44.810050775453874" lon="10.098135645924932"><ele>121.0</ele><time>2026-04-18T13:51:06.998Z</time></trkpt><trkpt lat="44.81012586520979" lon="10.098204824308269"><ele>121.0</ele><time>2026-04-18T13:51:07.998Z</time></trkpt><trkpt lat="44.810199584240706" lon="10.098272738455055"><ele>121.00000000000001</ele><time>2026-04-18T13:51:08.998Z</time></trkpt><trkpt lat="44.81027481952921" lon="10.098341993345016"><ele>121.0</ele><time>2026-04-18T13:51:09.998Z</time></trkpt><trkpt lat="44.81034852411731" lon="10.098409306261804"><ele>120.8</ele><time>2026-04-18T13:51:10.998Z</time></trkpt><trkpt lat="44.810424608089754" lon="10.098478792210566"><ele>120.6</ele><time>2026-04-18T13:51:11.998Z</time></trkpt><trkpt lat="44.81050172377509" lon="10.09854922040807"><ele>120.4</ele><time>2026-04-18T13:51:12.998Z</time></trkpt><trkpt lat="44.81057692483209" lon="10.098617900007026"><ele>120.2</ele><time>2026-04-18T13:51:13.998Z</time></trkpt><trkpt lat="44.81065605418485" lon="10.098690167242617"><ele>120.0</ele><time>2026-04-18T13:51:14.998Z</time></trkpt><trkpt lat="44.810729056783345" lon="10.098762416135859"><ele>120.0</ele><time>2026-04-18T13:51:15.998Z</time></trkpt><trkpt lat="44.810800101587056" lon="10.098840764387836"><ele>120.0</ele><time>2026-04-18T13:51:16.998Z</time></trkpt><trkpt lat="44.81086603955889" lon="10.098923548944779"><ele>120.0</ele><time>2026-04-18T13:51:17.998Z</time></trkpt><trkpt lat="44.81093267448793" lon="10.099008150649162"><ele>120.0</ele><time>2026-04-18T13:51:18.998Z</time></trkpt><trkpt lat="44.810998718552625" lon="10.099093792158088"><ele>120.0</ele><time>2026-04-18T13:51:19.998Z</time></trkpt><trkpt lat="44.811067939158264" lon="10.099183552792944"><ele>119.8</ele><time>2026-04-18T13:51:20.998Z</time></trkpt><trkpt lat="44.81113727492465" lon="10.099273462761204"><ele>119.6</ele><time>2026-04-18T13:51:21.998Z</time></trkpt><trkpt lat="44.811207199812266" lon="10.099363754266871"><ele>119.4</ele><time>2026-04-18T13:51:22.998Z</time></trkpt><trkpt lat="44.81127918741351" lon="10.099454579285448"><ele>119.2</ele><time>2026-04-18T13:51:23.998Z</time></trkpt><trkpt lat="44.81135331823946" lon="10.099548032346373"><ele>119.0</ele><time>2026-04-18T13:51:24.998Z</time></trkpt><trkpt lat="44.811426105618935" lon="10.099639377954032"><ele>119.0</ele><time>2026-04-18T13:51:25.998Z</time></trkpt><trkpt lat="44.811501013901236" lon="10.099733385164486"><ele>119.0</ele><time>2026-04-18T13:51:26.998Z</time></trkpt><trkpt lat="44.811575765764076" lon="10.099823633195305"><ele>119.0</ele><time>2026-04-18T13:51:27.998Z</time></trkpt><trkpt lat="44.81165187802075" lon="10.099911389939562"><ele>119.0</ele><time>2026-04-18T13:51:28.998Z</time></trkpt><trkpt lat="44.81172950799609" lon="10.099998672946027"><ele>119.0</ele><time>2026-04-18T13:51:29.998Z</time></trkpt><trkpt lat="44.81180697394269" lon="10.100078540023786"><ele>119.0</ele><time>2026-04-18T13:51:30.998Z</time></trkpt><trkpt lat="44.81188842498327" lon="10.100158382955774"><ele>119.0</ele><time>2026-04-18T13:51:31.998Z</time></trkpt><trkpt lat="44.81197105660492" lon="10.100239692992151"><ele>119.0</ele><time>2026-04-18T13:51:32.998Z</time></trkpt><trkpt lat="44.81205156927703" lon="10.100314909121387"><ele>119.0</ele><time>2026-04-18T13:51:33.998Z</time></trkpt><trkpt lat="44.812132246915404" lon="10.100390279367234"><ele>119.0</ele><time>2026-04-18T13:51:34.998Z</time></trkpt><trkpt lat="44.812211860865894" lon="10.100464655893676"><ele>119.0</ele><time>2026-04-18T13:51:35.998Z</time></trkpt><trkpt lat="44.81228996430308" lon="10.100537892468921"><ele>119.0</ele><time>2026-04-18T13:51:36.998Z</time></trkpt><trkpt lat="44.81236774040579" lon="10.100612205695473"><ele>119.0</ele><time>2026-04-18T13:51:37.998Z</time></trkpt><trkpt lat="44.81244740778256" lon="10.100685518458706"><ele>119.0</ele><time>2026-04-18T13:51:38.998Z</time></trkpt><trkpt lat="44.81252821812353" lon="10.100754407621329"><ele>119.0</ele><time>2026-04-18T13:51:39.998Z</time></trkpt><trkpt lat="44.81260783293954" lon="10.100821722080298"><ele>118.80000000000001</ele><time>2026-04-18T13:51:40.998Z</time></trkpt><trkpt lat="44.81269118587393" lon="10.100892197102604"><ele>118.60000000000001</ele><time>2026-04-18T13:51:41.998Z</time></trkpt><trkpt lat="44.812770088099384" lon="10.100959268441832"><ele>118.4</ele><time>2026-04-18T13:51:42.998Z</time></trkpt><trkpt lat="44.81285422906751" lon="10.101031127973194"><ele>118.2</ele><time>2026-04-18T13:51:44Z</time></trkpt><trkpt lat="44.81293596639975" lon="10.10110041006232"><ele>118.0</ele><time>2026-04-18T13:51:45Z</time></trkpt><trkpt lat="44.81301933338463" lon="10.101168629379872"><ele>118.0</ele><time>2026-04-18T13:51:46Z</time></trkpt><trkpt lat="44.81310309498703" lon="10.101237171654246"><ele>118.00000000000001</ele><time>2026-04-18T13:51:47Z</time></trkpt><trkpt lat="44.81318597859455" lon="10.101304995421474"><ele>118.00000000000001</ele><time>2026-04-18T13:51:48Z</time></trkpt><trkpt lat="44.813274068431525" lon="10.101377079473558"><ele>118.0</ele><time>2026-04-18T13:51:49Z</time></trkpt><trkpt lat="44.81335412520248" lon="10.10144259004937"><ele>118.0</ele><time>2026-04-18T13:51:50Z</time></trkpt><trkpt lat="44.813439212060075" lon="10.101512062622634"><ele>117.60000000000001</ele><time>2026-04-18T13:51:51Z</time></trkpt><trkpt lat="44.813521464903204" lon="10.101579166000796"><ele>117.20000000000002</ele><time>2026-04-18T13:51:52Z</time></trkpt><trkpt lat="44.81360684622543" lon="10.101648821676262"><ele>116.8</ele><time>2026-04-18T13:51:53Z</time></trkpt><trkpt lat="44.81368998192763" lon="10.101716645333763"><ele>116.4</ele><time>2026-04-18T13:51:54Z</time></trkpt><trkpt lat="44.813774767766596" lon="10.101784555120819"><ele>116.0</ele><time>2026-04-18T13:51:55Z</time></trkpt><trkpt lat="44.813864641744985" lon="10.101854720733378"><ele>116.0</ele><time>2026-04-18T13:51:56Z</time></trkpt><trkpt lat="44.813949886150276" lon="10.101921271842398"><ele>116.0</ele><time>2026-04-18T13:51:57Z</time></trkpt><trkpt lat="44.81403754485818" lon="10.101982638859882"><ele>116.0</ele><time>2026-04-18T13:51:58Z</time></trkpt><trkpt lat="44.81412654856838" lon="10.102044119499382"><ele>116.0</ele><time>2026-04-18T13:51:59Z</time></trkpt><trkpt lat="44.81421848934535" lon="10.102103779146693"><ele>116.0</ele><time>2026-04-18T13:52:00Z</time></trkpt><trkpt lat="44.814309057788236" lon="10.102161831060089"><ele>115.8</ele><time>2026-04-18T13:52:01Z</time></trkpt><trkpt lat="44.81440256823671" lon="10.10222219803054"><ele>115.6</ele><time>2026-04-18T13:52:02Z</time></trkpt><trkpt lat="44.81449438511617" lon="10.102283094971423"><ele>115.4</ele><time>2026-04-18T13:52:03Z</time></trkpt><trkpt lat="44.81458802909747" lon="10.10234520371794"><ele>115.2</ele><time>2026-04-18T13:52:04Z</time></trkpt><trkpt lat="44.81468166260679" lon="10.102407305524688"><ele>115.0</ele><time>2026-04-18T13:52:05Z</time></trkpt><trkpt lat="44.81477298476396" lon="10.102467874346937"><ele>115.0</ele><time>2026-04-18T13:52:06Z</time></trkpt><trkpt lat="44.814865259232064" lon="10.10252719038296"><ele>115.0</ele><time>2026-04-18T13:52:06.999Z</time></trkpt><trkpt lat="44.81495616975256" lon="10.102584778893078"><ele>115.0</ele><time>2026-04-18T13:52:07.999Z</time></trkpt><trkpt lat="44.81504766110782" lon="10.102642733459422"><ele>115.0</ele><time>2026-04-18T13:52:08.999Z</time></trkpt><trkpt lat="44.81513313542844" lon="10.102696876572374"><ele>115.0</ele><time>2026-04-18T13:52:09.999Z</time></trkpt><trkpt lat="44.8152153179349" lon="10.10274893451341"><ele>114.4</ele><time>2026-04-18T13:52:10.999Z</time></trkpt><trkpt lat="44.81530630496293" lon="10.102805710064118"><ele>113.8</ele><time>2026-04-18T13:52:11.999Z</time></trkpt><trkpt lat="44.81539492843395" lon="10.10286090372405"><ele>113.19999999999999</ele><time>2026-04-18T13:52:12.999Z</time></trkpt><trkpt lat="44.815483327715036" lon="10.102915957848444"><ele>112.6</ele><time>2026-04-18T13:52:13.999Z</time></trkpt><trkpt lat="44.81557218554905" lon="10.102971297577971"><ele>112.0</ele><time>2026-04-18T13:52:14.999Z</time></trkpt><trkpt lat="44.815662901351104" lon="10.103027794415238"><ele>112.0</ele><time>2026-04-18T13:52:15.999Z</time></trkpt><trkpt lat="44.815755287846706" lon="10.10308425095351"><ele>111.99999999999999</ele><time>2026-04-18T13:52:16.999Z</time></trkpt><trkpt lat="44.815847331809124" lon="10.103138454427445"><ele>111.99999999999999</ele><time>2026-04-18T13:52:17.999Z</time></trkpt><trkpt lat="44.81594039734028" lon="10.103193259481952"><ele>112.0</ele><time>2026-04-18T13:52:18.999Z</time></trkpt><trkpt lat="44.81603383756667" lon="10.103248285193473"><ele>112.0</ele><time>2026-04-18T13:52:19.999Z</time></trkpt><trkpt lat="44.81613276336109" lon="10.103282486608704"><ele>111.8</ele><time>2026-04-18T13:52:20.999Z</time></trkpt><trkpt lat="44.81622492236808" lon="10.103345472657187"><ele>111.6</ele><time>2026-04-18T13:52:21.999Z</time></trkpt><trkpt lat="44.81631754711819" lon="10.10339885137679"><ele>111.39999999999999</ele><time>2026-04-18T13:52:22.999Z</time></trkpt><trkpt lat="44.816412453538945" lon="10.103450913646123"><ele>111.19999999999999</ele><time>2026-04-18T13:52:23.999Z</time></trkpt><trkpt lat="44.816505727220004" lon="10.103500301005477"><ele>111.0</ele><time>2026-04-18T13:52:24.999Z</time></trkpt><trkpt lat="44.8166074939518" lon="10.103535832864218"><ele>111.0</ele><time>2026-04-18T13:52:25.999Z</time></trkpt><trkpt lat="44.816705499000705" lon="10.103577731572178"><ele>111.0</ele><time>2026-04-18T13:52:26.999Z</time></trkpt><trkpt lat="44.816803813034205" lon="10.103623999507684"><ele>111.0</ele><time>2026-04-18T13:52:27.999Z</time></trkpt><trkpt lat="44.81690417270334" lon="10.103675341909668"><ele>111.0</ele><time>2026-04-18T13:52:28.999Z</time></trkpt><trkpt lat="44.81699669111133" lon="10.103711775387135"><ele>111.0</ele><time>2026-04-18T13:52:29.999Z</time></trkpt><trkpt lat="44.817082448370535" lon="10.103773150157899"><ele>110.8</ele><time>2026-04-18T13:52:30.999Z</time></trkpt><trkpt lat="44.81720845059641" lon="10.103793870352089"><ele>110.6</ele><time>2026-04-18T13:52:31.999Z</time></trkpt><trkpt lat="44.817309278218126" lon="10.103831900419749"><ele>110.4</ele><time>2026-04-18T13:52:32.999Z</time></trkpt><trkpt lat="44.817404792232566" lon="10.103876301377838"><ele>110.2</ele><time>2026-04-18T13:52:33.999Z</time></trkpt><trkpt lat="44.817501613182266" lon="10.103914223815837"><ele>110.0</ele><time>2026-04-18T13:52:34.999Z</time></trkpt><trkpt lat="44.817597860836024" lon="10.103960172299308"><ele>109.8</ele><time>2026-04-18T13:52:35.999Z</time></trkpt><trkpt lat="44.81769760585915" lon="10.104000103112641"><ele>109.6</ele><time>2026-04-18T13:52:36.999Z</time></trkpt><trkpt lat="44.81779086568288" lon="10.10404499286285"><ele>109.4</ele><time>2026-04-18T13:52:37.999Z</time></trkpt><trkpt lat="44.817885513128395" lon="10.104085013356046"><ele>109.2</ele><time>2026-04-18T13:52:38.999Z</time></trkpt><trkpt lat="44.81797763123663" lon="10.104128531471765"><ele>109.0</ele><time>2026-04-18T13:52:39.999Z</time></trkpt><trkpt lat="44.81807326380311" lon="10.104169666534679"><ele>108.6</ele><time>2026-04-18T13:52:40.999Z</time></trkpt><trkpt lat="44.818167069965014" lon="10.104213329903441"><ele>108.2</ele><time>2026-04-18T13:52:41.999Z</time></trkpt><trkpt lat="44.81825512635252" lon="10.10425184887193"><ele>107.79999999999998</ele><time>2026-04-18T13:52:42.999Z</time></trkpt><trkpt lat="44.81834637420367" lon="10.104291351874519"><ele>107.39999999999999</ele><time>2026-04-18T13:52:43.999Z</time></trkpt><trkpt lat="44.818434510267686" lon="10.104334067365903"><ele>107.0</ele><time>2026-04-18T13:52:44.999Z</time></trkpt><trkpt lat="44.81853171102612" lon="10.10437691478931"><ele>106.8</ele><time>2026-04-18T13:52:45.999Z</time></trkpt><trkpt lat="44.8186249078727" lon="10.10441759614081"><ele>106.6</ele><time>2026-04-18T13:52:46.999Z</time></trkpt><trkpt lat="44.81871757606216" lon="10.10446376030904"><ele>106.39999999999999</ele><time>2026-04-18T13:52:47.999Z</time></trkpt><trkpt lat="44.81880987183023" lon="10.104502000078863"><ele>106.19999999999999</ele><time>2026-04-18T13:52:48.999Z</time></trkpt><trkpt lat="44.81889674487953" lon="10.104545763144634"><ele>106.0</ele><time>2026-04-18T13:52:49.999Z</time></trkpt><trkpt lat="44.81898564733502" lon="10.104582114843499"><ele>106.0</ele><time>2026-04-18T13:52:50.999Z</time></trkpt><trkpt lat="44.81906766810398" lon="10.10463782294209"><ele>106.0</ele><time>2026-04-18T13:52:51.999Z</time></trkpt><trkpt lat="44.819151385061495" lon="10.104676333512433"><ele>106.0</ele><time>2026-04-18T13:52:52.999Z</time></trkpt><trkpt lat="44.819254094353944" lon="10.104723580643634"><ele>106.0</ele><time>2026-04-18T13:52:53.999Z</time></trkpt><trkpt lat="44.819346518197236" lon="10.104767146315654"><ele>106.0</ele><time>2026-04-18T13:52:54.999Z</time></trkpt><trkpt lat="44.81943926277869" lon="10.104811443730858"><ele>106.0</ele><time>2026-04-18T13:52:55.999Z</time></trkpt><trkpt lat="44.81953025463693" lon="10.104855755210458"><ele>106.0</ele><time>2026-04-18T13:52:56.999Z</time></trkpt><trkpt lat="44.81961975139345" lon="10.10490008581402"><ele>106.0</ele><time>2026-04-18T13:52:57.999Z</time></trkpt><trkpt lat="44.819710848129766" lon="10.104945739184398"><ele>106.0</ele><time>2026-04-18T13:52:58.999Z</time></trkpt><trkpt lat="44.81980062974245" lon="10.104990733465524"><ele>106.0</ele><time>2026-04-18T13:52:59.999Z</time></trkpt><trkpt lat="44.81989200492892" lon="10.105036531227622"><ele>106.0</ele><time>2026-04-18T13:53:00.999Z</time></trkpt><trkpt lat="44.8199808530762" lon="10.105078107954068"><ele>106.0</ele><time>2026-04-18T13:53:01.999Z</time></trkpt><trkpt lat="44.82007200116908" lon="10.105120538952148"><ele>106.0</ele><time>2026-04-18T13:53:02.998Z</time></trkpt><trkpt lat="44.82016151278723" lon="10.10516220814213"><ele>106.0</ele><time>2026-04-18T13:53:03.998Z</time></trkpt><trkpt lat="44.82024494930499" lon="10.105201049219836"><ele>106.0</ele><time>2026-04-18T13:53:04.998Z</time></trkpt><trkpt lat="44.820326595666316" lon="10.105239057102546"><ele>106.16666666666667</ele><time>2026-04-18T13:53:05.998Z</time></trkpt><trkpt lat="44.82040909730266" lon="10.105277232607962"><ele>106.33333333333334</ele><time>2026-04-18T13:53:06.998Z</time></trkpt><trkpt lat="44.8204916771091" lon="10.105315278621376"><ele>106.5</ele><time>2026-04-18T13:53:07.998Z</time></trkpt><trkpt lat="44.820573705515876" lon="10.105353070581282"><ele>106.66666666666666</ele><time>2026-04-18T13:53:08.998Z</time></trkpt><trkpt lat="44.82065292616576" lon="10.105389569004897"><ele>106.83333333333333</ele><time>2026-04-18T13:53:09.998Z</time></trkpt><trkpt lat="44.82073372545604" lon="10.105426794742547"><ele>107.0</ele><time>2026-04-18T13:53:10.998Z</time></trkpt><trkpt lat="44.82080514106628" lon="10.105461319786874"><ele>107.0</ele><time>2026-04-18T13:53:11.998Z</time></trkpt><trkpt lat="44.82087857959395" lon="10.10550050045419"><ele>106.99999999999999</ele><time>2026-04-18T13:53:12.998Z</time></trkpt><trkpt lat="44.82094194559116" lon="10.105540767404904"><ele>106.99999999999999</ele><time>2026-04-18T13:53:13.998Z</time></trkpt><trkpt lat="44.821003913588555" lon="10.10559007376258"><ele>107.0</ele><time>2026-04-18T13:53:14.998Z</time></trkpt><trkpt lat="44.82109462245416" lon="10.105720785705447"><ele>107.0</ele><time>2026-04-18T13:53:16.998Z</time></trkpt><trkpt lat="44.821144038455984" lon="10.105886851691388"><ele>106.83333333333333</ele><time>2026-04-18T13:53:18.998Z</time></trkpt><trkpt lat="44.82117510797413" lon="10.105974844780956"><ele>106.66666666666666</ele><time>2026-04-18T13:53:19.998Z</time></trkpt><trkpt lat="44.821206454226925" lon="10.106063620438318"><ele>106.5</ele><time>2026-04-18T13:53:20.998Z</time></trkpt><trkpt lat="44.82125367752276" lon="10.106155867733799"><ele>106.33333333333334</ele><time>2026-04-18T13:53:21.998Z</time></trkpt><trkpt lat="44.8213161383671" lon="10.106231273709001"><ele>106.16666666666667</ele><time>2026-04-18T13:53:22.998Z</time></trkpt><trkpt lat="44.82140406386979" lon="10.10627082305791"><ele>106.0</ele><time>2026-04-18T13:53:23.998Z</time></trkpt><trkpt lat="44.82149128829467" lon="10.106248402955638"><ele>106.0</ele><time>2026-04-18T13:53:24.998Z</time></trkpt><trkpt lat="44.821565062369785" lon="10.106240517515012"><ele>106.0</ele><time>2026-04-18T13:53:25.998Z</time></trkpt><trkpt lat="44.82163541801902" lon="10.106235585734304"><ele>106.0</ele><time>2026-04-18T13:53:26.998Z</time></trkpt><trkpt lat="44.821751053851685" lon="10.106236204390505"><ele>106.0</ele><time>2026-04-18T13:53:28.998Z</time></trkpt><trkpt lat="44.821861689136036" lon="10.106294518388308"><ele>106.0</ele><time>2026-04-18T13:53:30.998Z</time></trkpt><trkpt lat="44.821974220756346" lon="10.106245314300297"><ele>105.8</ele><time>2026-04-18T13:53:32.998Z</time></trkpt><trkpt lat="44.82207769106062" lon="10.106198763039766"><ele>105.6</ele><time>2026-04-18T13:53:34.998Z</time></trkpt><trkpt lat="44.822188852502705" lon="10.106227073877761"><ele>105.4</ele><time>2026-04-18T13:53:36.998Z</time></trkpt><trkpt lat="44.82231581495684" lon="10.10624903047012"><ele>105.2</ele><time>2026-04-18T13:53:38.998Z</time></trkpt><trkpt lat="44.82237904570987" lon="10.106245827750227"><ele>105.0</ele><time>2026-04-18T13:53:39.998Z</time></trkpt><trkpt lat="44.82244229048547" lon="10.10624621195466"><ele>105.0</ele><time>2026-04-18T13:53:40.998Z</time></trkpt><trkpt lat="44.8225075549526" lon="10.106240153433212"><ele>105.0</ele><time>2026-04-18T13:53:41.998Z</time></trkpt><trkpt lat="44.822577511603264" lon="10.10622647555061"><ele>105.0</ele><time>2026-04-18T13:53:42.998Z</time></trkpt><trkpt lat="44.82264685728216" lon="10.106204236271905"><ele>105.0</ele><time>2026-04-18T13:53:43.998Z</time></trkpt><trkpt lat="44.82271476530617" lon="10.106177390815503"><ele>105.0</ele><time>2026-04-18T13:53:44.998Z</time></trkpt><trkpt lat="44.82278318741364" lon="10.106148847871333"><ele>105.0</ele><time>2026-04-18T13:53:45.998Z</time></trkpt><trkpt lat="44.822853262929094" lon="10.106119890537677"><ele>105.0</ele><time>2026-04-18T13:53:46.998Z</time></trkpt><trkpt lat="44.822931541271224" lon="10.106105606478637"><ele>104.66666666666667</ele><time>2026-04-18T13:53:47.998Z</time></trkpt><trkpt lat="44.82300369022563" lon="10.106076403356347"><ele>104.33333333333334</ele><time>2026-04-18T13:53:49Z</time></trkpt><trkpt lat="44.82308017752246" lon="10.106044592816009"><ele>104.0</ele><time>2026-04-18T13:53:50Z</time></trkpt><trkpt lat="44.823157518129086" lon="10.106017284190242"><ele>103.66666666666667</ele><time>2026-04-18T13:53:51Z</time></trkpt><trkpt lat="44.823239610420885" lon="10.105990355668636"><ele>103.33333333333334</ele><time>2026-04-18T13:53:52Z</time></trkpt><trkpt lat="44.8233145714695" lon="10.105953396826305"><ele>103.0</ele><time>2026-04-18T13:53:53Z</time></trkpt><trkpt lat="44.823397145856724" lon="10.105927525160693"><ele>103.00000000000001</ele><time>2026-04-18T13:53:54Z</time></trkpt><trkpt lat="44.82347095948908" lon="10.105898365169718"><ele>103.0</ele><time>2026-04-18T13:53:55Z</time></trkpt><trkpt lat="44.823544847615544" lon="10.105869783353953"><ele>103.0</ele><time>2026-04-18T13:53:56Z</time></trkpt><trkpt lat="44.82362430950415" lon="10.105842746478709"><ele>103.0</ele><time>2026-04-18T13:53:57Z</time></trkpt><trkpt lat="44.823703122675475" lon="10.105819167159122"><ele>103.00000000000001</ele><time>2026-04-18T13:53:58Z</time></trkpt><trkpt lat="44.82378734633724" lon="10.105799615647209"><ele>103.0</ele><time>2026-04-18T13:53:59Z</time></trkpt><trkpt lat="44.82387167676522" lon="10.10577174357839"><ele>102.83333333333334</ele><time>2026-04-18T13:54:00Z</time></trkpt><trkpt lat="44.82395469522439" lon="10.105747963733585"><ele>102.66666666666667</ele><time>2026-04-18T13:54:01Z</time></trkpt><trkpt lat="44.82403771447448" lon="10.105726697941957"><ele>102.5</ele><time>2026-04-18T13:54:02Z</time></trkpt><trkpt lat="44.82411898448427" lon="10.105702155211425"><ele>102.33333333333334</ele><time>2026-04-18T13:54:03Z</time></trkpt><trkpt lat="44.824199779037336" lon="10.10567209581199"><ele>102.16666666666667</ele><time>2026-04-18T13:54:04Z</time></trkpt><trkpt lat="44.82427956347678" lon="10.105638843531304"><ele>102.0</ele><time>2026-04-18T13:54:05Z</time></trkpt><trkpt lat="44.8243610304597" lon="10.105611113636478"><ele>101.39999999999999</ele><time>2026-04-18T13:54:06Z</time></trkpt><trkpt lat="44.82444880298545" lon="10.10558939419783"><ele>100.8</ele><time>2026-04-18T13:54:07Z</time></trkpt><trkpt lat="44.824534277464416" lon="10.105562171798685"><ele>100.2</ele><time>2026-04-18T13:54:08Z</time></trkpt><trkpt lat="44.824625460193175" lon="10.105529928974763"><ele>99.6</ele><time>2026-04-18T13:54:09Z</time></trkpt><trkpt lat="44.824715696883096" lon="10.105504186193775"><ele>99.0</ele><time>2026-04-18T13:54:10Z</time></trkpt><trkpt lat="44.824805405565094" lon="10.105473941217205"><ele>99.0</ele><time>2026-04-18T13:54:10.999Z</time></trkpt><trkpt lat="44.82489656390293" lon="10.105445895608293"><ele>99.0</ele><time>2026-04-18T13:54:11.999Z</time></trkpt><trkpt lat="44.82498998918797" lon="10.105412772138374"><ele>99.0</ele><time>2026-04-18T13:54:12.999Z</time></trkpt><trkpt lat="44.82508214132097" lon="10.105371906116618"><ele>99.0</ele><time>2026-04-18T13:54:13.999Z</time></trkpt><trkpt lat="44.82517272410825" lon="10.105333568644049"><ele>99.0</ele><time>2026-04-18T13:54:14.999Z</time></trkpt><trkpt lat="44.82526570029518" lon="10.105293653635558"><ele>98.4</ele><time>2026-04-18T13:54:15.999Z</time></trkpt><trkpt lat="44.8253574009183" lon="10.105250308735796"><ele>97.80000000000001</ele><time>2026-04-18T13:54:16.999Z</time></trkpt><trkpt lat="44.82544811245927" lon="10.105203931332623"><ele>97.19999999999999</ele><time>2026-04-18T13:54:17.999Z</time></trkpt><trkpt lat="44.82554146642014" lon="10.105158694915977"><ele>96.6</ele><time>2026-04-18T13:54:18.999Z</time></trkpt><trkpt lat="44.8256355349462" lon="10.105105806697267"><ele>96.0</ele><time>2026-04-18T13:54:19.999Z</time></trkpt><trkpt lat="44.825731672556756" lon="10.105049988065407"><ele>96.0</ele><time>2026-04-18T13:54:20.999Z</time></trkpt><trkpt lat="44.825826449884154" lon="10.104997504158108"><ele>96.0</ele><time>2026-04-18T13:54:21.999Z</time></trkpt><trkpt lat="44.825922659491184" lon="10.104942312910888"><ele>96.0</ele><time>2026-04-18T13:54:22.999Z</time></trkpt><trkpt lat="44.8260214185301" lon="10.104889736387305"><ele>96.0</ele><time>2026-04-18T13:54:23.999Z</time></trkpt><trkpt lat="44.82612102625797" lon="10.104819537906247"><ele>96.0</ele><time>2026-04-18T13:54:24.999Z</time></trkpt><trkpt lat="44.82620439108073" lon="10.104724207160665"><ele>95.0</ele><time>2026-04-18T13:54:25.999Z</time></trkpt><trkpt lat="44.82628512053532" lon="10.10462353161492"><ele>94.0</ele><time>2026-04-18T13:54:26.999Z</time></trkpt><trkpt lat="44.82635771434179" lon="10.104508247139073"><ele>93.0</ele><time>2026-04-18T13:54:27.999Z</time></trkpt><trkpt lat="44.82643205286061" lon="10.104393791526363"><ele>92.0</ele><time>2026-04-18T13:54:28.999Z</time></trkpt><trkpt lat="44.82650014853082" lon="10.104280029822874"><ele>91.0</ele><time>2026-04-18T13:54:29.999Z</time></trkpt><trkpt lat="44.8265685308041" lon="10.104165461048131"><ele>90.8</ele><time>2026-04-18T13:54:30.999Z</time></trkpt><trkpt lat="44.82663669169248" lon="10.104053785850875"><ele>90.6</ele><time>2026-04-18T13:54:31.999Z</time></trkpt><trkpt lat="44.826705759267185" lon="10.103945481172449"><ele>90.4</ele><time>2026-04-18T13:54:32.999Z</time></trkpt><trkpt lat="44.82676951114781" lon="10.10383677427597"><ele>90.2</ele><time>2026-04-18T13:54:33.999Z</time></trkpt><trkpt lat="44.82684128186409" lon="10.103735080241993"><ele>90.0</ele><time>2026-04-18T13:54:34.999Z</time></trkpt><trkpt lat="44.82691066537754" lon="10.103630051205329"><ele>90.0</ele><time>2026-04-18T13:54:35.999Z</time></trkpt><trkpt lat="44.826980791084374" lon="10.103527237460193"><ele>90.0</ele><time>2026-04-18T13:54:36.999Z</time></trkpt><trkpt lat="44.8270521965313" lon="10.103426101279968"><ele>90.0</ele><time>2026-04-18T13:54:37.999Z</time></trkpt><trkpt lat="44.827120327948705" lon="10.103322982796627"><ele>90.0</ele><time>2026-04-18T13:54:38.999Z</time></trkpt><trkpt lat="44.82719112047221" lon="10.103224493636397"><ele>90.0</ele><time>2026-04-18T13:54:39.999Z</time></trkpt><trkpt lat="44.827258715226506" lon="10.103118581658512"><ele>90.0</ele><time>2026-04-18T13:54:40.999Z</time></trkpt><trkpt lat="44.82732828702269" lon="10.10301954236216"><ele>90.0</ele><time>2026-04-18T13:54:41.999Z</time></trkpt><trkpt lat="44.82739623673402" lon="10.10292031217742"><ele>90.0</ele><time>2026-04-18T13:54:42.999Z</time></trkpt><trkpt lat="44.82746497339571" lon="10.102819033653331"><ele>90.0</ele><time>2026-04-18T13:54:43.999Z</time></trkpt><trkpt lat="44.827525743372604" lon="10.102716972013859"><ele>90.0</ele><time>2026-04-18T13:54:44.999Z</time></trkpt><trkpt lat="44.82760529725365" lon="10.102625970188548"><ele>89.8</ele><time>2026-04-18T13:54:45.999Z</time></trkpt><trkpt lat="44.827676861873336" lon="10.102529588276127"><ele>89.6</ele><time>2026-04-18T13:54:46.999Z</time></trkpt><trkpt lat="44.82773967968827" lon="10.102426862622885"><ele>89.4</ele><time>2026-04-18T13:54:47.999Z</time></trkpt><trkpt lat="44.82780909831038" lon="10.102327922462537"><ele>89.2</ele><time>2026-04-18T13:54:48.999Z</time></trkpt><trkpt lat="44.827882904176484" lon="10.102232991163717"><ele>89.0</ele><time>2026-04-18T13:54:49.999Z</time></trkpt><trkpt lat="44.82794765375095" lon="10.102130421430601"><ele>88.80000000000001</ele><time>2026-04-18T13:54:50.999Z</time></trkpt><trkpt lat="44.82801704918475" lon="10.10203414052142"><ele>88.60000000000001</ele><time>2026-04-18T13:54:51.999Z</time></trkpt><trkpt lat="44.82808746151427" lon="10.101939689079938"><ele>88.4</ele><time>2026-04-18T13:54:52.999Z</time></trkpt><trkpt lat="44.82816165315841" lon="10.101847223714032"><ele>88.2</ele><time>2026-04-18T13:54:53.999Z</time></trkpt><trkpt lat="44.82823365575645" lon="10.101760070508584"><ele>88.0</ele><time>2026-04-18T13:54:54.999Z</time></trkpt><trkpt lat="44.82830767255772" lon="10.101672221634287"><ele>88.0</ele><time>2026-04-18T13:54:55.999Z</time></trkpt><trkpt lat="44.82838151863479" lon="10.10158818592997"><ele>88.0</ele><time>2026-04-18T13:54:56.999Z</time></trkpt><trkpt lat="44.8284528869618" lon="10.101503591545233"><ele>88.0</ele><time>2026-04-18T13:54:57.999Z</time></trkpt><trkpt lat="44.828527730789084" lon="10.101418345202095"><ele>88.0</ele><time>2026-04-18T13:54:58.999Z</time></trkpt><trkpt lat="44.82860161162624" lon="10.10133397511454"><ele>88.0</ele><time>2026-04-18T13:54:59.999Z</time></trkpt><trkpt lat="44.82867823735549" lon="10.101253964208961"><ele>88.0</ele><time>2026-04-18T13:55:00.999Z</time></trkpt><trkpt lat="44.8287566785643" lon="10.101173034386916"><ele>88.0</ele><time>2026-04-18T13:55:01.999Z</time></trkpt><trkpt lat="44.82883447885363" lon="10.101093284338761"><ele>88.0</ele><time>2026-04-18T13:55:02.999Z</time></trkpt><trkpt lat="44.82890919501205" lon="10.10101494176185"><ele>88.0</ele><time>2026-04-18T13:55:03.999Z</time></trkpt><trkpt lat="44.82898559709261" lon="10.100934432588993"><ele>88.0</ele><time>2026-04-18T13:55:04.999Z</time></trkpt><trkpt lat="44.82905746739553" lon="10.10084762603006"><ele>88.0</ele><time>2026-04-18T13:55:05.998Z</time></trkpt><trkpt lat="44.82913336366158" lon="10.100764773071127"><ele>88.0</ele><time>2026-04-18T13:55:06.998Z</time></trkpt><trkpt lat="44.82920956063618" lon="10.100684660088175"><ele>88.0</ele><time>2026-04-18T13:55:07.998Z</time></trkpt><trkpt lat="44.82928632281312" lon="10.100599567292312"><ele>88.0</ele><time>2026-04-18T13:55:08.998Z</time></trkpt><trkpt lat="44.82936384762738" lon="10.100519782181697"><ele>88.0</ele><time>2026-04-18T13:55:09.998Z</time></trkpt><trkpt lat="44.82943816389376" lon="10.100440708260336"><ele>87.60000000000001</ele><time>2026-04-18T13:55:10.998Z</time></trkpt><trkpt lat="44.82951318803754" lon="10.100364915806173"><ele>87.2</ele><time>2026-04-18T13:55:11.998Z</time></trkpt><trkpt lat="44.82959543791359" lon="10.10029141221424"><ele>86.8</ele><time>2026-04-18T13:55:12.998Z</time></trkpt><trkpt lat="44.82966802029153" lon="10.100210405615728"><ele>86.4</ele><time>2026-04-18T13:55:13.998Z</time></trkpt><trkpt lat="44.829738565027434" lon="10.100127297733023"><ele>86.0</ele><time>2026-04-18T13:55:14.998Z</time></trkpt><trkpt lat="44.829817342187106" lon="10.100061228971837"><ele>86.0</ele><time>2026-04-18T13:55:15.998Z</time></trkpt><trkpt lat="44.82989018152439" lon="10.099981025470775"><ele>86.0</ele><time>2026-04-18T13:55:16.998Z</time></trkpt><trkpt lat="44.8299658492623" lon="10.099908716135964"><ele>86.0</ele><time>2026-04-18T13:55:17.998Z</time></trkpt><trkpt lat="44.83003933293366" lon="10.099831081705995"><ele>86.0</ele><time>2026-04-18T13:55:18.998Z</time></trkpt><trkpt lat="44.83011328348495" lon="10.099748660521273"><ele>86.0</ele><time>2026-04-18T13:55:19.998Z</time></trkpt><trkpt lat="44.830188334947394" lon="10.099675601736164"><ele>86.19999999999999</ele><time>2026-04-18T13:55:20.998Z</time></trkpt><trkpt lat="44.83026014782397" lon="10.09959726000173"><ele>86.39999999999999</ele><time>2026-04-18T13:55:21.998Z</time></trkpt><trkpt lat="44.830332229331816" lon="10.099518992708898"><ele>86.6</ele><time>2026-04-18T13:55:22.998Z</time></trkpt><trkpt lat="44.830404901423485" lon="10.09944067783194"><ele>86.8</ele><time>2026-04-18T13:55:23.998Z</time></trkpt><trkpt lat="44.83047917382758" lon="10.099365019689213"><ele>87.0</ele><time>2026-04-18T13:55:24.998Z</time></trkpt><trkpt lat="44.83055251951398" lon="10.099292258684155"><ele>87.0</ele><time>2026-04-18T13:55:25.998Z</time></trkpt><trkpt lat="44.83062531733467" lon="10.099215843422545"><ele>87.0</ele><time>2026-04-18T13:55:26.998Z</time></trkpt><trkpt lat="44.83069674013775" lon="10.099135865593006"><ele>87.0</ele><time>2026-04-18T13:55:27.998Z</time></trkpt><trkpt lat="44.83076610403984" lon="10.099054031192331"><ele>87.0</ele><time>2026-04-18T13:55:28.998Z</time></trkpt><trkpt lat="44.830828455006895" lon="10.098965453398947"><ele>87.0</ele><time>2026-04-18T13:55:29.998Z</time></trkpt><trkpt lat="44.830888485284085" lon="10.098866015836718"><ele>87.0</ele><time>2026-04-18T13:55:30.998Z</time></trkpt><trkpt lat="44.83095203915836" lon="10.098782755274168"><ele>87.0</ele><time>2026-04-18T13:55:31.998Z</time></trkpt><trkpt lat="44.83100585852705" lon="10.098684632340394"><ele>87.0</ele><time>2026-04-18T13:55:32.998Z</time></trkpt><trkpt lat="44.83105973519771" lon="10.098584975837577"><ele>87.0</ele><time>2026-04-18T13:55:33.998Z</time></trkpt><trkpt lat="44.83111340619469" lon="10.098486348464066"><ele>87.0</ele><time>2026-04-18T13:55:34.998Z</time></trkpt><trkpt lat="44.83116876181517" lon="10.098387900378382"><ele>87.0</ele><time>2026-04-18T13:55:35.998Z</time></trkpt><trkpt lat="44.83122147671631" lon="10.098287846162416"><ele>87.16666666666667</ele><time>2026-04-18T13:55:36.998Z</time></trkpt><trkpt lat="44.83127902870119" lon="10.098194379316075"><ele>87.33333333333333</ele><time>2026-04-18T13:55:37.998Z</time></trkpt><trkpt lat="44.83133607312282" lon="10.098094931136858"><ele>87.5</ele><time>2026-04-18T13:55:38.998Z</time></trkpt><trkpt lat="44.83139102647276" lon="10.097995801963807"><ele>87.66666666666666</ele><time>2026-04-18T13:55:39.998Z</time></trkpt><trkpt lat="44.831447853751065" lon="10.09789496775297"><ele>87.83333333333333</ele><time>2026-04-18T13:55:40.998Z</time></trkpt><trkpt lat="44.83149977999418" lon="10.097797802540736"><ele>88.0</ele><time>2026-04-18T13:55:41.998Z</time></trkpt><trkpt lat="44.831559062378005" lon="10.097701038918492"><ele>88.0</ele><time>2026-04-18T13:55:42.998Z</time></trkpt><trkpt lat="44.831618834484395" lon="10.097604401877984"><ele>88.0</ele><time>2026-04-18T13:55:43.998Z</time></trkpt><trkpt lat="44.831675699289534" lon="10.097503607550147"><ele>88.0</ele><time>2026-04-18T13:55:44.998Z</time></trkpt><trkpt lat="44.831732287747464" lon="10.097401624391146"><ele>88.0</ele><time>2026-04-18T13:55:45.998Z</time></trkpt><trkpt lat="44.83178989130643" lon="10.097302023790887"><ele>88.0</ele><time>2026-04-18T13:55:46.998Z</time></trkpt><trkpt lat="44.83185103359601" lon="10.0972039425446"><ele>87.4</ele><time>2026-04-18T13:55:47.998Z</time></trkpt><trkpt lat="44.83190386193221" lon="10.097104005193202"><ele>86.80000000000001</ele><time>2026-04-18T13:55:48.998Z</time></trkpt><trkpt lat="44.83196677370274" lon="10.097005729453397"><ele>86.2</ele><time>2026-04-18T13:55:49.998Z</time></trkpt><trkpt lat="44.832023701241" lon="10.096892954998015"><ele>85.6</ele><time>2026-04-18T13:55:50.998Z</time></trkpt><trkpt lat="44.83208262411756" lon="10.096801218982762"><ele>85.0</ele><time>2026-04-18T13:55:51.998Z</time></trkpt><trkpt lat="44.83214112878903" lon="10.096705133918165"><ele>85.0</ele><time>2026-04-18T13:55:52.998Z</time></trkpt><trkpt lat="44.83219750952096" lon="10.096608212823117"><ele>85.0</ele><time>2026-04-18T13:55:54Z</time></trkpt><trkpt lat="44.832252395218575" lon="10.096509239662277"><ele>85.0</ele><time>2026-04-18T13:55:55Z</time></trkpt><trkpt lat="44.83230101855868" lon="10.096411804887714"><ele>85.0</ele><time>2026-04-18T13:55:56Z</time></trkpt><trkpt lat="44.83236428895445" lon="10.096315561864554"><ele>85.0</ele><time>2026-04-18T13:55:57Z</time></trkpt><trkpt lat="44.832421590350904" lon="10.096218474637096"><ele>85.0</ele><time>2026-04-18T13:55:58Z</time></trkpt><trkpt lat="44.83247727420667" lon="10.096121268964986"><ele>85.0</ele><time>2026-04-18T13:55:59Z</time></trkpt><trkpt lat="44.83253576649288" lon="10.096024388812499"><ele>85.0</ele><time>2026-04-18T13:56:00Z</time></trkpt><trkpt lat="44.83259454067748" lon="10.095929522679349"><ele>85.0</ele><time>2026-04-18T13:56:01Z</time></trkpt><trkpt lat="44.83265081517393" lon="10.095831272504363"><ele>85.0</ele><time>2026-04-18T13:56:02Z</time></trkpt><trkpt lat="44.8327070122962" lon="10.095735058723992"><ele>85.0</ele><time>2026-04-18T13:56:03Z</time></trkpt><trkpt lat="44.832768960448036" lon="10.09564064762489"><ele>85.0</ele><time>2026-04-18T13:56:04Z</time></trkpt><trkpt lat="44.83283308080426" lon="10.095548838160509"><ele>85.0</ele><time>2026-04-18T13:56:05Z</time></trkpt><trkpt lat="44.83290052070175" lon="10.095451713131016"><ele>85.0</ele><time>2026-04-18T13:56:06Z</time></trkpt><trkpt lat="44.832962216247466" lon="10.09536304290696"><ele>85.0</ele><time>2026-04-18T13:56:07Z</time></trkpt><trkpt lat="44.833021015861604" lon="10.095274514789383"><ele>85.0</ele><time>2026-04-18T13:56:08Z</time></trkpt><trkpt lat="44.833088395072124" lon="10.095188311941584"><ele>85.0</ele><time>2026-04-18T13:56:09Z</time></trkpt><trkpt lat="44.8331513456788" lon="10.095101200161606"><ele>85.0</ele><time>2026-04-18T13:56:10Z</time></trkpt><trkpt lat="44.83321871622458" lon="10.09501778752822"><ele>85.0</ele><time>2026-04-18T13:56:11Z</time></trkpt><trkpt lat="44.833280994511085" lon="10.09493407138427"><ele>85.0</ele><time>2026-04-18T13:56:12Z</time></trkpt><trkpt lat="44.833344121315186" lon="10.094849461997871"><ele>85.0</ele><time>2026-04-18T13:56:13Z</time></trkpt><trkpt lat="44.833408396524874" lon="10.09476436300042"><ele>85.0</ele><time>2026-04-18T13:56:14Z</time></trkpt><trkpt lat="44.83347418844965" lon="10.094688534552246"><ele>85.0</ele><time>2026-04-18T13:56:14.999Z</time></trkpt><trkpt lat="44.83353638978456" lon="10.094608277283664"><ele>84.66666666666666</ele><time>2026-04-18T13:56:15.999Z</time></trkpt><trkpt lat="44.833597757770114" lon="10.094531683608126"><ele>84.33333333333333</ele><time>2026-04-18T13:56:16.999Z</time></trkpt><trkpt lat="44.833656713443645" lon="10.094453310463097"><ele>84.0</ele><time>2026-04-18T13:56:17.999Z</time></trkpt><trkpt lat="44.83371373586975" lon="10.094375882514086"><ele>83.66666666666667</ele><time>2026-04-18T13:56:18.999Z</time></trkpt><trkpt lat="44.83377388257407" lon="10.09430439003813"><ele>83.33333333333334</ele><time>2026-04-18T13:56:19.999Z</time></trkpt><trkpt lat="44.83382972647828" lon="10.094231060540364"><ele>83.0</ele><time>2026-04-18T13:56:20.999Z</time></trkpt><trkpt lat="44.83388743668131" lon="10.094158007469712"><ele>83.5</ele><time>2026-04-18T13:56:21.999Z</time></trkpt><trkpt lat="44.83394675713818" lon="10.094083220493832"><ele>84.0</ele><time>2026-04-18T13:56:22.999Z</time></trkpt><trkpt lat="44.834001236205026" lon="10.094010467235195"><ele>84.5</ele><time>2026-04-18T13:56:23.999Z</time></trkpt><trkpt lat="44.83405623464342" lon="10.093933609450247"><ele>85.0</ele><time>2026-04-18T13:56:24.999Z</time></trkpt><trkpt lat="44.834112187143" lon="10.093856028373722"><ele>85.5</ele><time>2026-04-18T13:56:25.999Z</time></trkpt><trkpt lat="44.83417082055111" lon="10.093785096682293"><ele>86.0</ele><time>2026-04-18T13:56:26.999Z</time></trkpt><trkpt lat="44.834226551572804" lon="10.093712096503316"><ele>86.00000000000001</ele><time>2026-04-18T13:56:27.999Z</time></trkpt><trkpt lat="44.834280628307845" lon="10.0936397056268"><ele>86.0</ele><time>2026-04-18T13:56:28.999Z</time></trkpt><trkpt lat="44.83433148982468" lon="10.093571333589813"><ele>86.0</ele><time>2026-04-18T13:56:29.999Z</time></trkpt><trkpt lat="44.834388248835026" lon="10.093505198048904"><ele>86.0</ele><time>2026-04-18T13:56:30.999Z</time></trkpt><trkpt lat="44.83443595952134" lon="10.093440337492538"><ele>86.0</ele><time>2026-04-18T13:56:31.999Z</time></trkpt><trkpt lat="44.83448508238779" lon="10.093376792502307"><ele>86.00000000000001</ele><time>2026-04-18T13:56:32.999Z</time></trkpt><trkpt lat="44.83453282499383" lon="10.093310752178407"><ele>86.0</ele><time>2026-04-18T13:56:33.999Z</time></trkpt><trkpt lat="44.83462500483919" lon="10.093186773281042"><ele>86.75</ele><time>2026-04-18T13:56:35.999Z</time></trkpt><trkpt lat="44.834712765101195" lon="10.09306912855586"><ele>87.5</ele><time>2026-04-18T13:56:37.999Z</time></trkpt><trkpt lat="44.834795213574914" lon="10.092944670951756"><ele>88.25</ele><time>2026-04-18T13:56:39.999Z</time></trkpt><trkpt lat="44.83486894418452" lon="10.092841317117722"><ele>89.0</ele><time>2026-04-18T13:56:41.999Z</time></trkpt><trkpt lat="44.83470737228841" lon="10.092640366006348"><ele>89.0</ele><time>2026-04-18T13:56:44.999Z</time></trkpt><trkpt lat="44.83463532203915" lon="10.09251115628528"><ele>89.0</ele><time>2026-04-18T13:56:46.999Z</time></trkpt><trkpt lat="44.83460367768342" lon="10.092432567005117"><ele>89.0</ele><time>2026-04-18T13:56:47.999Z</time></trkpt><trkpt lat="44.83459608145999" lon="10.09232125913163"><ele>89.0</ele><time>2026-04-18T13:56:48.999Z</time></trkpt><trkpt lat="44.83460671937642" lon="10.092221577036916"><ele>89.0</ele><time>2026-04-18T13:56:49.999Z</time></trkpt><trkpt lat="44.8346175370168" lon="10.092129044025784"><ele>89.0</ele><time>2026-04-18T13:56:50.999Z</time></trkpt><trkpt lat="44.83463588973846" lon="10.091953146853387"><ele>89.0</ele><time>2026-04-18T13:56:52.999Z</time></trkpt><trkpt lat="44.83464987284695" lon="10.091777876830694"><ele>89.0</ele><time>2026-04-18T13:56:54.999Z</time></trkpt><trkpt lat="44.83465574406486" lon="10.0916863568206"><ele>89.0</ele><time>2026-04-18T13:56:55.999Z</time></trkpt><trkpt lat="44.83466092633503" lon="10.091593136885372"><ele>89.0</ele><time>2026-04-18T13:56:56.999Z</time></trkpt><trkpt lat="44.834664960932265" lon="10.091496777052058"><ele>89.0</ele><time>2026-04-18T13:56:57.999Z</time></trkpt><trkpt lat="44.83466859981591" lon="10.091402822814274"><ele>89.0</ele><time>2026-04-18T13:56:58.999Z</time></trkpt><trkpt lat="44.83467241393092" lon="10.091304343539328"><ele>88.99999999999999</ele><time>2026-04-18T13:56:59.999Z</time></trkpt><trkpt lat="44.834675849559666" lon="10.091208812206723"><ele>89.0</ele><time>2026-04-18T13:57:00.999Z</time></trkpt><trkpt lat="44.83467847661996" lon="10.091110550867493"><ele>89.0</ele><time>2026-04-18T13:57:01.999Z</time></trkpt><trkpt lat="44.834681043665" lon="10.091014534045108"><ele>89.0</ele><time>2026-04-18T13:57:02.999Z</time></trkpt><trkpt lat="44.83467859280719" lon="10.090921371703034"><ele>89.0</ele><time>2026-04-18T13:57:03.999Z</time></trkpt><trkpt lat="44.83468532190026" lon="10.090815956362686"><ele>88.99999999999999</ele><time>2026-04-18T13:57:04.999Z</time></trkpt><trkpt lat="44.83470229853682" lon="10.09072922208296"><ele>89.0</ele><time>2026-04-18T13:57:05.999Z</time></trkpt><trkpt lat="44.83466003060835" lon="10.090568766826538"><ele>89.0</ele><time>2026-04-18T13:57:07.999Z</time></trkpt><trkpt lat="44.834723445764496" lon="10.09045756401455"><ele>89.0</ele><time>2026-04-18T13:57:08.999Z</time></trkpt><trkpt lat="44.83473442327811" lon="10.090363522328952"><ele>89.0</ele><time>2026-04-18T13:57:09.998Z</time></trkpt><trkpt lat="44.83474137191194" lon="10.090266304349385"><ele>89.0</ele><time>2026-04-18T13:57:10.998Z</time></trkpt><trkpt lat="44.834743301350294" lon="10.090161547475637"><ele>89.0</ele><time>2026-04-18T13:57:11.998Z</time></trkpt><trkpt lat="44.834754650656194" lon="10.09006103350691"><ele>89.0</ele><time>2026-04-18T13:57:12.998Z</time></trkpt><trkpt lat="44.83476516773908" lon="10.08995855385256"><ele>88.85714285714285</ele><time>2026-04-18T13:57:13.998Z</time></trkpt><trkpt lat="44.8347756522975" lon="10.089856996944857"><ele>88.71428571428571</ele><time>2026-04-18T13:57:14.998Z</time></trkpt><trkpt lat="44.834786298764136" lon="10.089753871841072"><ele>88.57142857142857</ele><time>2026-04-18T13:57:15.998Z</time></trkpt><trkpt lat="44.83479690308225" lon="10.089651155145624"><ele>88.42857142857142</ele><time>2026-04-18T13:57:16.998Z</time></trkpt><trkpt lat="44.83480804391085" lon="10.089543198270526"><ele>88.28571428571428</ele><time>2026-04-18T13:57:17.998Z</time></trkpt><trkpt lat="44.83481878628815" lon="10.089439073611826"><ele>88.14285714285714</ele><time>2026-04-18T13:57:18.998Z</time></trkpt><trkpt lat="44.83482969299422" lon="10.089333355323133"><ele>88.0</ele><time>2026-04-18T13:57:19.998Z</time></trkpt><trkpt lat="44.834841028179774" lon="10.089223258403294"><ele>88.0</ele><time>2026-04-18T13:57:20.998Z</time></trkpt><trkpt lat="44.8348540862372" lon="10.0891136829065"><ele>88.0</ele><time>2026-04-18T13:57:21.998Z</time></trkpt><trkpt lat="44.83486823869209" lon="10.089001481227402"><ele>88.0</ele><time>2026-04-18T13:57:22.998Z</time></trkpt><trkpt lat="44.834884726011516" lon="10.088890739362578"><ele>88.0</ele><time>2026-04-18T13:57:23.998Z</time></trkpt><trkpt lat="44.834905030389976" lon="10.088776609185114"><ele>88.0</ele><time>2026-04-18T13:57:24.998Z</time></trkpt><trkpt lat="44.83494819238952" lon="10.088673985333298"><ele>88.0</ele><time>2026-04-18T13:57:25.998Z</time></trkpt><trkpt lat="44.83497388866766" lon="10.088562709865883"><ele>87.66666666666666</ele><time>2026-04-18T13:57:26.998Z</time></trkpt><trkpt lat="44.835009004693596" lon="10.088455382677099"><ele>87.33333333333333</ele><time>2026-04-18T13:57:27.998Z</time></trkpt><trkpt lat="44.83505279366961" lon="10.08835518023778"><ele>87.0</ele><time>2026-04-18T13:57:28.998Z</time></trkpt><trkpt lat="44.83509380231013" lon="10.08825418503169"><ele>86.66666666666667</ele><time>2026-04-18T13:57:29.998Z</time></trkpt><trkpt lat="44.835135430599934" lon="10.088146498408468"><ele>86.33333333333334</ele><time>2026-04-18T13:57:30.998Z</time></trkpt><trkpt lat="44.83517995755318" lon="10.088044438581486"><ele>86.0</ele><time>2026-04-18T13:57:31.998Z</time></trkpt><trkpt lat="44.83521967325043" lon="10.087936480912006"><ele>86.0</ele><time>2026-04-18T13:57:32.998Z</time></trkpt><trkpt lat="44.83525875916782" lon="10.087828071872318"><ele>86.0</ele><time>2026-04-18T13:57:33.998Z</time></trkpt><trkpt lat="44.83529911981975" lon="10.087726053060923"><ele>86.0</ele><time>2026-04-18T13:57:34.998Z</time></trkpt><trkpt lat="44.8353425895054" lon="10.087621771351532"><ele>86.0</ele><time>2026-04-18T13:57:35.998Z</time></trkpt><trkpt lat="44.83538533728247" lon="10.087516021341274"><ele>86.0</ele><time>2026-04-18T13:57:36.998Z</time></trkpt><trkpt lat="44.83542781619658" lon="10.087410397362547"><ele>86.0</ele><time>2026-04-18T13:57:37.998Z</time></trkpt><trkpt lat="44.83545288327906" lon="10.087290230629856"><ele>86.0</ele><time>2026-04-18T13:57:38.998Z</time></trkpt><trkpt lat="44.835491693369946" lon="10.087179399132781"><ele>86.0</ele><time>2026-04-18T13:57:39.998Z</time></trkpt><trkpt lat="44.83552734188376" lon="10.087071521587458"><ele>86.0</ele><time>2026-04-18T13:57:40.998Z</time></trkpt><trkpt lat="44.83556174723062" lon="10.086961616837181"><ele>86.0</ele><time>2026-04-18T13:57:41.998Z</time></trkpt><trkpt lat="44.83559550853191" lon="10.086849262692008"><ele>86.0</ele><time>2026-04-18T13:57:42.998Z</time></trkpt><trkpt lat="44.83562666859222" lon="10.086738676701275"><ele>86.0</ele><time>2026-04-18T13:57:43.998Z</time></trkpt><trkpt lat="44.835658242382564" lon="10.086622394545019"><ele>85.83333333333334</ele><time>2026-04-18T13:57:44.998Z</time></trkpt><trkpt lat="44.835688672233005" lon="10.086505874791275"><ele>85.66666666666667</ele><time>2026-04-18T13:57:45.998Z</time></trkpt><trkpt lat="44.835718565596224" lon="10.086388291926953"><ele>85.5</ele><time>2026-04-18T13:57:46.998Z</time></trkpt><trkpt lat="44.835747531576" lon="10.08627435678443"><ele>85.33333333333333</ele><time>2026-04-18T13:57:47.998Z</time></trkpt><trkpt lat="44.83577827348851" lon="10.086151245880094"><ele>85.16666666666666</ele><time>2026-04-18T13:57:48.998Z</time></trkpt><trkpt lat="44.835807321580766" lon="10.086030641998994"><ele>85.0</ele><time>2026-04-18T13:57:49.998Z</time></trkpt><trkpt lat="44.835837230843886" lon="10.08590646264444"><ele>85.0</ele><time>2026-04-18T13:57:50.998Z</time></trkpt><trkpt lat="44.835867246533134" lon="10.08578038399955"><ele>85.0</ele><time>2026-04-18T13:57:51.998Z</time></trkpt><trkpt lat="44.83589690904975" lon="10.085653970844291"><ele>85.0</ele><time>2026-04-18T13:57:52.998Z</time></trkpt><trkpt lat="44.83592616915014" lon="10.085529272771598"><ele>85.0</ele><time>2026-04-18T13:57:53.998Z</time></trkpt><trkpt lat="44.8359551496214" lon="10.085405078823506"><ele>85.0</ele><time>2026-04-18T13:57:54.998Z</time></trkpt><trkpt lat="44.83598408353384" lon="10.08528030972104"><ele>84.4</ele><time>2026-04-18T13:57:55.998Z</time></trkpt><trkpt lat="44.83601265003938" lon="10.085157210594947"><ele>83.8</ele><time>2026-04-18T13:57:56.998Z</time></trkpt><trkpt lat="44.83604100415514" lon="10.085035320938823"><ele>83.19999999999999</ele><time>2026-04-18T13:57:57.998Z</time></trkpt><trkpt lat="44.83606995388339" lon="10.0849108699261"><ele>82.6</ele><time>2026-04-18T13:57:59Z</time></trkpt><trkpt lat="44.83608989968576" lon="10.084789211380379"><ele>82.0</ele><time>2026-04-18T13:58:00Z</time></trkpt><trkpt lat="44.83610315844458" lon="10.084669294546732"><ele>82.0</ele><time>2026-04-18T13:58:01Z</time></trkpt><trkpt lat="44.83610979589043" lon="10.08454684179544"><ele>82.0</ele><time>2026-04-18T13:58:02Z</time></trkpt><trkpt lat="44.83611195684478" lon="10.084425974531138"><ele>82.0</ele><time>2026-04-18T13:58:03Z</time></trkpt><trkpt lat="44.836102916575655" lon="10.084318610793398"><ele>82.0</ele><time>2026-04-18T13:58:04Z</time></trkpt><trkpt lat="44.83608637411873" lon="10.084214005371818"><ele>82.0</ele><time>2026-04-18T13:58:05Z</time></trkpt><trkpt lat="44.83606556007021" lon="10.084103014477058"><ele>82.0</ele><time>2026-04-18T13:58:06Z</time></trkpt><trkpt lat="44.83604350322715" lon="10.083992221727986"><ele>81.99999999999999</ele><time>2026-04-18T13:58:07Z</time></trkpt><trkpt lat="44.836022171736225" lon="10.083890050821203"><ele>82.0</ele><time>2026-04-18T13:58:08Z</time></trkpt><trkpt lat="44.836000552100025" lon="10.083787592716934"><ele>82.0</ele><time>2026-04-18T13:58:09Z</time></trkpt><trkpt lat="44.8359793296507" lon="10.083690646231698"><ele>82.0</ele><time>2026-04-18T13:58:10Z</time></trkpt><trkpt lat="44.83595740195495" lon="10.083590478096902"><ele>82.0</ele><time>2026-04-18T13:58:11Z</time></trkpt><trkpt lat="44.8359359469748" lon="10.083491392275752"><ele>81.99999999999999</ele><time>2026-04-18T13:58:12Z</time></trkpt><trkpt lat="44.835915040858715" lon="10.083391330621897"><ele>82.0</ele><time>2026-04-18T13:58:13Z</time></trkpt><trkpt lat="44.83589409216345" lon="10.08329106555307"><ele>82.71428571428571</ele><time>2026-04-18T13:58:14Z</time></trkpt><trkpt lat="44.83587369210205" lon="10.083193425967334"><ele>83.42857142857143</ele><time>2026-04-18T13:58:15Z</time></trkpt><trkpt lat="44.835852881222614" lon="10.08309382019922"><ele>84.14285714285714</ele><time>2026-04-18T13:58:16Z</time></trkpt><trkpt lat="44.83583373646111" lon="10.083002188943594"><ele>84.85714285714286</ele><time>2026-04-18T13:58:17Z</time></trkpt><trkpt lat="44.83581356287824" lon="10.082905629822276"><ele>85.57142857142857</ele><time>2026-04-18T13:58:17.999Z</time></trkpt><trkpt lat="44.83579351654934" lon="10.082809679153874"><ele>86.28571428571428</ele><time>2026-04-18T13:58:18.999Z</time></trkpt><trkpt lat="44.835770920149244" lon="10.082709980207675"><ele>87.0</ele><time>2026-04-18T13:58:19.999Z</time></trkpt><trkpt lat="44.83575002521319" lon="10.08260730329057"><ele>87.0</ele><time>2026-04-18T13:58:20.999Z</time></trkpt><trkpt lat="44.835762559613514" lon="10.082493714091136"><ele>87.0</ele><time>2026-04-18T13:58:21.999Z</time></trkpt><trkpt lat="44.83574703583701" lon="10.082391749052228"><ele>87.0</ele><time>2026-04-18T13:58:22.999Z</time></trkpt><trkpt lat="44.83573504801948" lon="10.082286438165129"><ele>87.0</ele><time>2026-04-18T13:58:23.999Z</time></trkpt><trkpt lat="44.83573200780107" lon="10.082181834544777"><ele>87.0</ele><time>2026-04-18T13:58:24.999Z</time></trkpt><trkpt lat="44.83574291427236" lon="10.082078043159852"><ele>87.0</ele><time>2026-04-18T13:58:25.999Z</time></trkpt><trkpt lat="44.835765854459176" lon="10.081972739520513"><ele>87.0</ele><time>2026-04-18T13:58:26.999Z</time></trkpt><trkpt lat="44.83578742116807" lon="10.081867785647562"><ele>87.0</ele><time>2026-04-18T13:58:27.999Z</time></trkpt><trkpt lat="44.83582020048075" lon="10.081771285705699"><ele>87.0</ele><time>2026-04-18T13:58:28.999Z</time></trkpt><trkpt lat="44.83585692501834" lon="10.081678259536709"><ele>87.0</ele><time>2026-04-18T13:58:29.999Z</time></trkpt><trkpt lat="44.83589170594589" lon="10.081575452818058"><ele>87.0</ele><time>2026-04-18T13:58:30.999Z</time></trkpt><trkpt lat="44.83592073436449" lon="10.081476515221333"><ele>87.0</ele><time>2026-04-18T13:58:31.999Z</time></trkpt><trkpt lat="44.8359578063078" lon="10.081378749886333"><ele>86.66666666666667</ele><time>2026-04-18T13:58:32.999Z</time></trkpt><trkpt lat="44.83598982002948" lon="10.081278702854467"><ele>86.33333333333333</ele><time>2026-04-18T13:58:33.999Z</time></trkpt><trkpt lat="44.836023732404186" lon="10.081177455037077"><ele>86.0</ele><time>2026-04-18T13:58:34.999Z</time></trkpt><trkpt lat="44.83605326241833" lon="10.081070335626785"><ele>85.66666666666666</ele><time>2026-04-18T13:58:35.999Z</time></trkpt><trkpt lat="44.83609424351516" lon="10.08097327734217"><ele>85.33333333333333</ele><time>2026-04-18T13:58:36.999Z</time></trkpt><trkpt lat="44.83612535066613" lon="10.080866271031807"><ele>85.0</ele><time>2026-04-18T13:58:37.999Z</time></trkpt><trkpt lat="44.83615975301237" lon="10.080762842375826"><ele>84.83333333333333</ele><time>2026-04-18T13:58:38.999Z</time></trkpt><trkpt lat="44.836193889366676" lon="10.080659894950783"><ele>84.66666666666666</ele><time>2026-04-18T13:58:39.999Z</time></trkpt><trkpt lat="44.83622680998489" lon="10.080552022921148"><ele>84.5</ele><time>2026-04-18T13:58:40.999Z</time></trkpt><trkpt lat="44.83626103677904" lon="10.080446017573259"><ele>84.33333333333333</ele><time>2026-04-18T13:58:41.999Z</time></trkpt><trkpt lat="44.8362980324011" lon="10.080336559209869"><ele>84.16666666666667</ele><time>2026-04-18T13:58:42.999Z</time></trkpt><trkpt lat="44.83631064628207" lon="10.080210205126978"><ele>84.0</ele><time>2026-04-18T13:58:43.999Z</time></trkpt><trkpt lat="44.8363468408805" lon="10.080099229263615"><ele>84.0</ele><time>2026-04-18T13:58:44.999Z</time></trkpt><trkpt lat="44.83638322696668" lon="10.079986015578763"><ele>84.0</ele><time>2026-04-18T13:58:45.999Z</time></trkpt><trkpt lat="44.83641979178003" lon="10.079871618525768"><ele>84.0</ele><time>2026-04-18T13:58:46.999Z</time></trkpt><trkpt lat="44.8364558665846" lon="10.079758754614101"><ele>84.0</ele><time>2026-04-18T13:58:47.999Z</time></trkpt><trkpt lat="44.836493485422096" lon="10.079641060128806"><ele>84.0</ele><time>2026-04-18T13:58:48.999Z</time></trkpt><trkpt lat="44.83653038519731" lon="10.079525615273095"><ele>84.0</ele><time>2026-04-18T13:58:49.999Z</time></trkpt><trkpt lat="44.83656926281464" lon="10.079407905254067"><ele>84.0</ele><time>2026-04-18T13:58:50.999Z</time></trkpt><trkpt lat="44.83661192902919" lon="10.079294512604026"><ele>84.0</ele><time>2026-04-18T13:58:51.999Z</time></trkpt><trkpt lat="44.83667285027735" lon="10.07919337759716"><ele>84.0</ele><time>2026-04-18T13:58:52.999Z</time></trkpt><trkpt lat="44.83673121097111" lon="10.079098034469023"><ele>84.0</ele><time>2026-04-18T13:58:53.999Z</time></trkpt><trkpt lat="44.836813955796764" lon="10.07905685001461"><ele>84.0</ele><time>2026-04-18T13:58:54.999Z</time></trkpt><trkpt lat="44.836898314476315" lon="10.079036997513054"><ele>84.0</ele><time>2026-04-18T13:58:55.999Z</time></trkpt><trkpt lat="44.836976980734725" lon="10.079022866849146"><ele>84.0</ele><time>2026-04-18T13:58:56.999Z</time></trkpt><trkpt lat="44.83705719867052" lon="10.079009404138274"><ele>84.0</ele><time>2026-04-18T13:58:57.999Z</time></trkpt><trkpt lat="44.837135958912384" lon="10.078999147104346"><ele>84.0</ele><time>2026-04-18T13:58:58.999Z</time></trkpt><trkpt lat="44.837213242899274" lon="10.078988904596187"><ele>84.0</ele><time>2026-04-18T13:58:59.999Z</time></trkpt><trkpt lat="44.837292036156384" lon="10.078977884168022"><ele>84.0</ele><time>2026-04-18T13:59:00.999Z</time></trkpt><trkpt lat="44.83737134498641" lon="10.078966576380836"><ele>84.0</ele><time>2026-04-18T13:59:01.999Z</time></trkpt><trkpt lat="44.837441379458575" lon="10.078956590956775"><ele>84.0</ele><time>2026-04-18T13:59:02.999Z</time></trkpt><trkpt lat="44.837518760610386" lon="10.078945558025861"><ele>84.0</ele><time>2026-04-18T13:59:03.999Z</time></trkpt><trkpt lat="44.83759051282671" lon="10.078935327654477"><ele>84.0</ele><time>2026-04-18T13:59:04.999Z</time></trkpt><trkpt lat="44.83766134419162" lon="10.078902992022064"><ele>84.0</ele><time>2026-04-18T13:59:05.999Z</time></trkpt><trkpt lat="44.83773761223625" lon="10.07889653466299"><ele>84.0</ele><time>2026-04-18T13:59:06.999Z</time></trkpt><trkpt lat="44.83780991704823" lon="10.078887384564986"><ele>84.0</ele><time>2026-04-18T13:59:07.999Z</time></trkpt><trkpt lat="44.83788948800487" lon="10.0788836132628"><ele>83.5</ele><time>2026-04-18T13:59:08.999Z</time></trkpt><trkpt lat="44.837966984377054" lon="10.078874826719733"><ele>83.0</ele><time>2026-04-18T13:59:09.999Z</time></trkpt><trkpt lat="44.83804667815574" lon="10.07886750314473"><ele>82.5</ele><time>2026-04-18T13:59:10.999Z</time></trkpt><trkpt lat="44.838128080891934" lon="10.078859228173771"><ele>82.0</ele><time>2026-04-18T13:59:11.999Z</time></trkpt><trkpt lat="44.83820814897808" lon="10.078839811088875"><ele>81.5</ele><time>2026-04-18T13:59:12.998Z</time></trkpt><trkpt lat="44.838289484567724" lon="10.078820003417679"><ele>81.0</ele><time>2026-04-18T13:59:13.998Z</time></trkpt><trkpt lat="44.83836597150725" lon="10.078797408859245"><ele>81.0</ele><time>2026-04-18T13:59:14.998Z</time></trkpt><trkpt lat="44.83844470268709" lon="10.07876011824083"><ele>81.0</ele><time>2026-04-18T13:59:15.998Z</time></trkpt><trkpt lat="44.838523535210996" lon="10.07870989267693"><ele>81.0</ele><time>2026-04-18T13:59:16.998Z</time></trkpt><trkpt lat="44.83859449673183" lon="10.078639833649405"><ele>81.0</ele><time>2026-04-18T13:59:17.998Z</time></trkpt><trkpt lat="44.83863040354053" lon="10.078522638557283"><ele>81.0</ele><time>2026-04-18T13:59:18.998Z</time></trkpt><trkpt lat="44.838669801412415" lon="10.078410106660499"><ele>81.0</ele><time>2026-04-18T13:59:19.998Z</time></trkpt><trkpt lat="44.8387058360803" lon="10.078289032310607"><ele>81.16666666666667</ele><time>2026-04-18T13:59:20.998Z</time></trkpt><trkpt lat="44.838738707967465" lon="10.078166881536502"><ele>81.33333333333333</ele><time>2026-04-18T13:59:21.998Z</time></trkpt><trkpt lat="44.83877026121083" lon="10.078044587894059"><ele>81.5</ele><time>2026-04-18T13:59:22.998Z</time></trkpt><trkpt lat="44.83880108199945" lon="10.0779251330378"><ele>81.66666666666666</ele><time>2026-04-18T13:59:23.998Z</time></trkpt><trkpt lat="44.83882995919064" lon="10.077814326324035"><ele>81.83333333333333</ele><time>2026-04-18T13:59:24.998Z</time></trkpt><trkpt lat="44.83885897404555" lon="10.077702957725277"><ele>82.0</ele><time>2026-04-18T13:59:25.998Z</time></trkpt><trkpt lat="44.83888811613765" lon="10.07759110127018"><ele>82.0</ele><time>2026-04-18T13:59:26.998Z</time></trkpt><trkpt lat="44.838916620688245" lon="10.077481691127266"><ele>82.0</ele><time>2026-04-18T13:59:27.998Z</time></trkpt><trkpt lat="44.838943504879694" lon="10.077378500901004"><ele>82.0</ele><time>2026-04-18T13:59:28.998Z</time></trkpt><trkpt lat="44.838969378946636" lon="10.077279187653541"><ele>82.0</ele><time>2026-04-18T13:59:29.998Z</time></trkpt><trkpt lat="44.838995513465875" lon="10.077178874777271"><ele>82.0</ele><time>2026-04-18T13:59:30.998Z</time></trkpt><trkpt lat="44.83902078027071" lon="10.077081892351464"><ele>82.0</ele><time>2026-04-18T13:59:31.998Z</time></trkpt><trkpt lat="44.83904708855664" lon="10.076981452389592"><ele>82.5</ele><time>2026-04-18T13:59:32.998Z</time></trkpt><trkpt lat="44.83907294985266" lon="10.076883576882933"><ele>83.0</ele><time>2026-04-18T13:59:33.998Z</time></trkpt><trkpt lat="44.83909890138625" lon="10.07678535970372"><ele>83.5</ele><time>2026-04-18T13:59:34.998Z</time></trkpt><trkpt lat="44.8391248706543" lon="10.076687075933046"><ele>84.0</ele><time>2026-04-18T13:59:35.998Z</time></trkpt><trkpt lat="44.839152411934194" lon="10.076589061735678"><ele>84.5</ele><time>2026-04-18T13:59:36.998Z</time></trkpt><trkpt lat="44.83918476230316" lon="10.076491971745385"><ele>85.0</ele><time>2026-04-18T13:59:37.998Z</time></trkpt><trkpt lat="44.83922145105966" lon="10.076396786904766"><ele>85.33333333333333</ele><time>2026-04-18T13:59:38.998Z</time></trkpt><trkpt lat="44.8392615916567" lon="10.076308237532446"><ele>85.66666666666666</ele><time>2026-04-18T13:59:39.998Z</time></trkpt><trkpt lat="44.83930277952794" lon="10.076220050183442"><ele>86.0</ele><time>2026-04-18T13:59:40.998Z</time></trkpt><trkpt lat="44.8393450545025" lon="10.076131878475293"><ele>86.33333333333333</ele><time>2026-04-18T13:59:41.998Z</time></trkpt><trkpt lat="44.83939733763661" lon="10.076054576814716"><ele>86.66666666666667</ele><time>2026-04-18T13:59:42.998Z</time></trkpt><trkpt lat="44.83944058333364" lon="10.075969724394515"><ele>87.0</ele><time>2026-04-18T13:59:43.998Z</time></trkpt><trkpt lat="44.83946880110969" lon="10.075865056285435"><ele>85.5</ele><time>2026-04-18T13:59:44.998Z</time></trkpt><trkpt lat="44.83951035172405" lon="10.075766457281452"><ele>84.0</ele><time>2026-04-18T13:59:45.998Z</time></trkpt><trkpt lat="44.83954929232837" lon="10.075663659938668"><ele>82.5</ele><time>2026-04-18T13:59:46.998Z</time></trkpt><trkpt lat="44.83958891096379" lon="10.075556015722178"><ele>81.0</ele><time>2026-04-18T13:59:47.998Z</time></trkpt><trkpt lat="44.8396265438511" lon="10.07545026231422"><ele>79.5</ele><time>2026-04-18T13:59:48.998Z</time></trkpt><trkpt lat="44.839665577986075" lon="10.075340571023766"><ele>78.0</ele><time>2026-04-18T13:59:49.998Z</time></trkpt><trkpt lat="44.839705294359995" lon="10.075228962598068"><ele>78.0</ele><time>2026-04-18T13:59:50.998Z</time></trkpt><trkpt lat="44.83974770668584" lon="10.075112882309481"><ele>78.0</ele><time>2026-04-18T13:59:51.998Z</time></trkpt><trkpt lat="44.839790340310934" lon="10.074998823998817"><ele>78.0</ele><time>2026-04-18T13:59:52.998Z</time></trkpt><trkpt lat="44.83983672494407" lon="10.074878916557548"><ele>78.0</ele><time>2026-04-18T13:59:53.998Z</time></trkpt><trkpt lat="44.839897171673556" lon="10.074770965370986"><ele>78.0</ele><time>2026-04-18T13:59:54.998Z</time></trkpt><trkpt lat="44.8399460657836" lon="10.074651896574123"><ele>78.0</ele><time>2026-04-18T13:59:55.998Z</time></trkpt><trkpt lat="44.840002696857184" lon="10.07454061411062"><ele>78.0</ele><time>2026-04-18T13:59:56.998Z</time></trkpt><trkpt lat="44.84007332881417" lon="10.074443967801468"><ele>78.0</ele><time>2026-04-18T13:59:57.998Z</time></trkpt><trkpt lat="44.840144056956" lon="10.074349500293406"><ele>78.0</ele><time>2026-04-18T13:59:58.998Z</time></trkpt><trkpt lat="44.8402228300994" lon="10.074268140532823"><ele>78.0</ele><time>2026-04-18T13:59:59.998Z</time></trkpt><trkpt lat="44.840302631444196" lon="10.074195922299992"><ele>78.0</ele><time>2026-04-18T14:00:00.998Z</time></trkpt><trkpt lat="44.84038192898568" lon="10.074120423736687"><ele>78.0</ele><time>2026-04-18T14:00:01.998Z</time></trkpt><trkpt lat="44.84045896570341" lon="10.074044885954741"><ele>78.0</ele><time>2026-04-18T14:00:02.998Z</time></trkpt><trkpt lat="44.84054241335364" lon="10.073979176990708"><ele>78.0</ele><time>2026-04-18T14:00:03.998Z</time></trkpt><trkpt lat="44.84062006798625" lon="10.073896292025387"><ele>78.0</ele><time>2026-04-18T14:00:05Z</time></trkpt><trkpt lat="44.84070394803148" lon="10.073827154372257"><ele>78.0</ele><time>2026-04-18T14:00:06Z</time></trkpt><trkpt lat="44.840779650347656" lon="10.073752399080014"><ele>78.0</ele><time>2026-04-18T14:00:07Z</time></trkpt><trkpt lat="44.840853190247664" lon="10.07368219374335"><ele>78.0</ele><time>2026-04-18T14:00:08Z</time></trkpt><trkpt lat="44.84092869346046" lon="10.073605739963007"><ele>78.0</ele><time>2026-04-18T14:00:09Z</time></trkpt><trkpt lat="44.841003908119475" lon="10.073533380645234"><ele>78.0</ele><time>2026-04-18T14:00:10Z</time></trkpt><trkpt lat="44.841080193069516" lon="10.073461485154477"><ele>78.0</ele><time>2026-04-18T14:00:11Z</time></trkpt><trkpt lat="44.84115546616319" lon="10.073380888624822"><ele>78.0</ele><time>2026-04-18T14:00:12Z</time></trkpt><trkpt lat="44.841226758003806" lon="10.073296636798082"><ele>78.0</ele><time>2026-04-18T14:00:13Z</time></trkpt><trkpt lat="44.841307222817655" lon="10.073236321070079"><ele>78.0</ele><time>2026-04-18T14:00:14Z</time></trkpt><trkpt lat="44.84137835886083" lon="10.073167308220622"><ele>78.0</ele><time>2026-04-18T14:00:15Z</time></trkpt><trkpt lat="44.841453849032185" lon="10.073094071181302"><ele>78.0</ele><time>2026-04-18T14:00:16Z</time></trkpt><trkpt lat="44.84153134935619" lon="10.073018884018712"><ele>78.0</ele><time>2026-04-18T14:00:17Z</time></trkpt><trkpt lat="44.8416042535794" lon="10.072935398509882"><ele>78.0</ele><time>2026-04-18T14:00:18Z</time></trkpt><trkpt lat="44.84168126600876" lon="10.072866666287117"><ele>78.0</ele><time>2026-04-18T14:00:19Z</time></trkpt><trkpt lat="44.84175839395586" lon="10.072794472595815"><ele>78.0</ele><time>2026-04-18T14:00:20Z</time></trkpt><trkpt lat="44.84183066422483" lon="10.072715594065421"><ele>77.6</ele><time>2026-04-18T14:00:21Z</time></trkpt><trkpt lat="44.84190688212912" lon="10.072642793518417"><ele>77.19999999999999</ele><time>2026-04-18T14:00:22Z</time></trkpt><trkpt lat="44.84198285202625" lon="10.07256717710699"><ele>76.8</ele><time>2026-04-18T14:00:22.999Z</time></trkpt><trkpt lat="44.842059045830005" lon="10.072494289333159"><ele>76.39999999999999</ele><time>2026-04-18T14:00:23.999Z</time></trkpt><trkpt lat="44.84213173889131" lon="10.072424081414386"><ele>76.0</ele><time>2026-04-18T14:00:24.999Z</time></trkpt><trkpt lat="44.84220999458066" lon="10.072357500947092"><ele>76.0</ele><time>2026-04-18T14:00:25.999Z</time></trkpt><trkpt lat="44.84228652013077" lon="10.072288332045206"><ele>76.0</ele><time>2026-04-18T14:00:26.999Z</time></trkpt><trkpt lat="44.84236712732947" lon="10.072217635609503"><ele>76.0</ele><time>2026-04-18T14:00:27.999Z</time></trkpt><trkpt lat="44.84244727991926" lon="10.072147687881198"><ele>76.0</ele><time>2026-04-18T14:00:28.999Z</time></trkpt><trkpt lat="44.84252342967489" lon="10.072074551528182"><ele>76.0</ele><time>2026-04-18T14:00:29.999Z</time></trkpt><trkpt lat="44.842600127729426" lon="10.072003349041267"><ele>76.0</ele><time>2026-04-18T14:00:30.999Z</time></trkpt><trkpt lat="44.842677654871494" lon="10.0719303551916"><ele>76.0</ele><time>2026-04-18T14:00:31.999Z</time></trkpt><trkpt lat="44.842752654249225" lon="10.071851207810335"><ele>76.0</ele><time>2026-04-18T14:00:32.999Z</time></trkpt><trkpt lat="44.84283220195965" lon="10.071777455838525"><ele>76.0</ele><time>2026-04-18T14:00:33.999Z</time></trkpt><trkpt lat="44.84290845319592" lon="10.071701027781959"><ele>76.0</ele><time>2026-04-18T14:00:34.999Z</time></trkpt><trkpt lat="44.84298124156741" lon="10.071627646038278"><ele>76.16666666666666</ele><time>2026-04-18T14:00:35.999Z</time></trkpt><trkpt lat="44.8430586182362" lon="10.0715498492449"><ele>76.33333333333333</ele><time>2026-04-18T14:00:36.999Z</time></trkpt><trkpt lat="44.84313042191325" lon="10.071479255531282"><ele>76.5</ele><time>2026-04-18T14:00:37.999Z</time></trkpt><trkpt lat="44.84320613217738" lon="10.071405070781555"><ele>76.66666666666667</ele><time>2026-04-18T14:00:38.999Z</time></trkpt><trkpt lat="44.84327149047807" lon="10.071322112070554"><ele>76.83333333333334</ele><time>2026-04-18T14:00:39.999Z</time></trkpt><trkpt lat="44.8433409560607" lon="10.071255113113594"><ele>77.0</ele><time>2026-04-18T14:00:40.999Z</time></trkpt><trkpt lat="44.84341196890009" lon="10.07117380564234"><ele>76.83333333333334</ele><time>2026-04-18T14:00:41.999Z</time></trkpt><trkpt lat="44.843484672661994" lon="10.071102745800058"><ele>76.66666666666667</ele><time>2026-04-18T14:00:42.999Z</time></trkpt><trkpt lat="44.8435546847393" lon="10.071027744321633"><ele>76.5</ele><time>2026-04-18T14:00:43.999Z</time></trkpt><trkpt lat="44.84362253350157" lon="10.07095776918957"><ele>76.33333333333333</ele><time>2026-04-18T14:00:44.999Z</time></trkpt><trkpt lat="44.8436989570738" lon="10.070877019169469"><ele>76.16666666666666</ele><time>2026-04-18T14:00:45.999Z</time></trkpt><trkpt lat="44.8437646525052" lon="10.070810486635377"><ele>76.0</ele><time>2026-04-18T14:00:46.999Z</time></trkpt><trkpt lat="44.843833083043535" lon="10.07074572788605"><ele>75.83333333333333</ele><time>2026-04-18T14:00:47.999Z</time></trkpt><trkpt lat="44.84390492857876" lon="10.070669820298678"><ele>75.66666666666666</ele><time>2026-04-18T14:00:48.999Z</time></trkpt><trkpt lat="44.843963044064" lon="10.070605576118945"><ele>75.5</ele><time>2026-04-18T14:00:49.999Z</time></trkpt><trkpt lat="44.84403949428098" lon="10.070531755213928"><ele>75.33333333333333</ele><time>2026-04-18T14:00:50.999Z</time></trkpt><trkpt lat="44.84410651032178" lon="10.070472790440247"><ele>75.16666666666667</ele><time>2026-04-18T14:00:51.999Z</time></trkpt><trkpt lat="44.844175557797996" lon="10.070403211977947"><ele>75.0</ele><time>2026-04-18T14:00:52.999Z</time></trkpt><trkpt lat="44.84424111935119" lon="10.070338535702652"><ele>75.0</ele><time>2026-04-18T14:00:53.999Z</time></trkpt><trkpt lat="44.844313306656986" lon="10.070263347391766"><ele>75.0</ele><time>2026-04-18T14:00:54.999Z</time></trkpt><trkpt lat="44.84437680690022" lon="10.070196726399704"><ele>75.0</ele><time>2026-04-18T14:00:55.999Z</time></trkpt><trkpt lat="44.84443981844958" lon="10.070129177813158"><ele>75.0</ele><time>2026-04-18T14:00:56.999Z</time></trkpt><trkpt lat="44.844507624070076" lon="10.070051667779522"><ele>75.0</ele><time>2026-04-18T14:00:57.999Z</time></trkpt><trkpt lat="44.84456625801772" lon="10.069977205469169"><ele>75.0</ele><time>2026-04-18T14:00:58.999Z</time></trkpt><trkpt lat="44.84462564117269" lon="10.069896276235927"><ele>75.16666666666667</ele><time>2026-04-18T14:00:59.999Z</time></trkpt><trkpt lat="44.84468071619035" lon="10.06980784493027"><ele>75.33333333333333</ele><time>2026-04-18T14:01:00.999Z</time></trkpt><trkpt lat="44.844735439959216" lon="10.069718114338723"><ele>75.5</ele><time>2026-04-18T14:01:01.999Z</time></trkpt><trkpt lat="44.844789755895974" lon="10.069616487587028"><ele>75.66666666666666</ele><time>2026-04-18T14:01:02.999Z</time></trkpt><trkpt lat="44.84483913308806" lon="10.0695191335348"><ele>75.83333333333333</ele><time>2026-04-18T14:01:03.999Z</time></trkpt><trkpt lat="44.84488676274843" lon="10.06942008027356"><ele>76.0</ele><time>2026-04-18T14:01:04.999Z</time></trkpt><trkpt lat="44.84492852660337" lon="10.06932099298472"><ele>76.0</ele><time>2026-04-18T14:01:05.999Z</time></trkpt><trkpt lat="44.84497588809524" lon="10.06922137751231"><ele>76.0</ele><time>2026-04-18T14:01:06.999Z</time></trkpt><trkpt lat="44.84501389834653" lon="10.069105488648647"><ele>76.0</ele><time>2026-04-18T14:01:07.999Z</time></trkpt><trkpt lat="44.84506184636319" lon="10.068995782286189"><ele>76.0</ele><time>2026-04-18T14:01:08.999Z</time></trkpt><trkpt lat="44.84510784480712" lon="10.068894865089874"><ele>76.0</ele><time>2026-04-18T14:01:09.999Z</time></trkpt><trkpt lat="44.845154128896425" lon="10.06879256142608"><ele>76.0</ele><time>2026-04-18T14:01:10.999Z</time></trkpt><trkpt lat="44.84520176159055" lon="10.06869341115494"><ele>76.0</ele><time>2026-04-18T14:01:11.999Z</time></trkpt><trkpt lat="44.84526862409638" lon="10.068612466371265"><ele>76.0</ele><time>2026-04-18T14:01:12.999Z</time></trkpt><trkpt lat="44.845326853900744" lon="10.068514082146956"><ele>76.0</ele><time>2026-04-18T14:01:13.999Z</time></trkpt><trkpt lat="44.8453827588844" lon="10.068430255964572"><ele>76.0</ele><time>2026-04-18T14:01:14.999Z</time></trkpt><trkpt lat="44.84543894986266" lon="10.068346588626415"><ele>76.0</ele><time>2026-04-18T14:01:15.999Z</time></trkpt><trkpt lat="44.845499519749765" lon="10.068263836597168"><ele>76.0</ele><time>2026-04-18T14:01:16.999Z</time></trkpt><trkpt lat="44.84555879791601" lon="10.068182048954862"><ele>76.0</ele><time>2026-04-18T14:01:17.998Z</time></trkpt><trkpt lat="44.84561821715914" lon="10.06810355127074"><ele>76.0</ele><time>2026-04-18T14:01:18.998Z</time></trkpt><trkpt lat="44.8456769270715" lon="10.068019412081734"><ele>76.0</ele><time>2026-04-18T14:01:19.998Z</time></trkpt><trkpt lat="44.84573543389981" lon="10.067936542346821"><ele>76.0</ele><time>2026-04-18T14:01:20.998Z</time></trkpt><trkpt lat="44.845790917219865" lon="10.067860506704458"><ele>76.0</ele><time>2026-04-18T14:01:21.998Z</time></trkpt><trkpt lat="44.84585071736622" lon="10.06777904422164"><ele>76.0</ele><time>2026-04-18T14:01:22.998Z</time></trkpt><trkpt lat="44.845908844598014" lon="10.067700698589123"><ele>76.2</ele><time>2026-04-18T14:01:23.998Z</time></trkpt><trkpt lat="44.84596493872216" lon="10.067622556391942"><ele>76.39999999999999</ele><time>2026-04-18T14:01:24.998Z</time></trkpt><trkpt lat="44.84601947493112" lon="10.067546584538967"><ele>76.6</ele><time>2026-04-18T14:01:25.998Z</time></trkpt><trkpt lat="44.84606925161107" lon="10.067474911178724"><ele>76.8</ele><time>2026-04-18T14:01:26.998Z</time></trkpt><trkpt lat="44.846151369924186" lon="10.067362392469816"><ele>77.0</ele><time>2026-04-18T14:01:28.998Z</time></trkpt><trkpt lat="44.846228441551624" lon="10.067253741978107"><ele>77.2</ele><time>2026-04-18T14:01:30.998Z</time></trkpt><trkpt lat="44.84635958901077" lon="10.067345610788484"><ele>77.4</ele><time>2026-04-18T14:01:32.998Z</time></trkpt><trkpt lat="44.84647469946528" lon="10.067329253526523"><ele>77.6</ele><time>2026-04-18T14:01:34.998Z</time></trkpt><trkpt lat="44.84653793135252" lon="10.067301791745379"><ele>77.8</ele><time>2026-04-18T14:01:35.998Z</time></trkpt><trkpt lat="44.84659625636944" lon="10.067237401768839"><ele>78.0</ele><time>2026-04-18T14:01:36.998Z</time></trkpt><trkpt lat="44.846648455416954" lon="10.06717784160051"><ele>78.0</ele><time>2026-04-18T14:01:37.998Z</time></trkpt><trkpt lat="44.84669237699608" lon="10.06709738134657"><ele>78.0</ele><time>2026-04-18T14:01:38.998Z</time></trkpt><trkpt lat="44.8466777211864" lon="10.0668926130534"><ele>78.0</ele><time>2026-04-18T14:01:40.998Z</time></trkpt><trkpt lat="44.84666445790299" lon="10.066797738949235"><ele>78.0</ele><time>2026-04-18T14:01:41.998Z</time></trkpt><trkpt lat="44.84662816749096" lon="10.066719453963294"><ele>78.0</ele><time>2026-04-18T14:01:42.998Z</time></trkpt><trkpt lat="44.846551114123756" lon="10.066583857903867"><ele>77.75</ele><time>2026-04-18T14:01:44.998Z</time></trkpt><trkpt lat="44.84667324380442" lon="10.066301510707728"><ele>77.5</ele><time>2026-04-18T14:01:46.998Z</time></trkpt><trkpt lat="44.84671059042903" lon="10.066203130146361"><ele>77.25</ele><time>2026-04-18T14:01:47.998Z</time></trkpt><trkpt lat="44.846745143635296" lon="10.066115185597893"><ele>77.0</ele><time>2026-04-18T14:01:48.998Z</time></trkpt><trkpt lat="44.84678128387077" lon="10.066025011378802"><ele>77.0</ele><time>2026-04-18T14:01:49.998Z</time></trkpt><trkpt lat="44.84681327394671" lon="10.065945192179154"><ele>77.0</ele><time>2026-04-18T14:01:50.998Z</time></trkpt><trkpt lat="44.846847281323846" lon="10.065860339652401"><ele>77.0</ele><time>2026-04-18T14:01:51.998Z</time></trkpt><trkpt lat="44.84688253745118" lon="10.065772371450866"><ele>77.0</ele><time>2026-04-18T14:01:52.998Z</time></trkpt><trkpt lat="44.84691901116026" lon="10.065681365096498"><ele>77.0</ele><time>2026-04-18T14:01:53.998Z</time></trkpt><trkpt lat="44.84695526562488" lon="10.065590905822383"><ele>77.0</ele><time>2026-04-18T14:01:54.998Z</time></trkpt><trkpt lat="44.84699042452965" lon="10.065503180124741"><ele>77.0</ele><time>2026-04-18T14:01:55.998Z</time></trkpt><trkpt lat="44.84702803490523" lon="10.065409337634112"><ele>77.16666666666667</ele><time>2026-04-18T14:01:56.998Z</time></trkpt><trkpt lat="44.84706517068953" lon="10.065316184084272"><ele>77.33333333333334</ele><time>2026-04-18T14:01:57.998Z</time></trkpt><trkpt lat="44.84710179444686" lon="10.065224038949411"><ele>77.5</ele><time>2026-04-18T14:01:58.998Z</time></trkpt><trkpt lat="44.84713795019351" lon="10.065133071589917"><ele>77.66666666666667</ele><time>2026-04-18T14:01:59.998Z</time></trkpt><trkpt lat="44.84719961376691" lon="10.065062480460622"><ele>77.83333333333333</ele><time>2026-04-18T14:02:00.998Z</time></trkpt><trkpt lat="44.84723506128656" lon="10.064969427748885"><ele>78.0</ele><time>2026-04-18T14:02:01.998Z</time></trkpt><trkpt lat="44.8472732676157" lon="10.06487507122539"><ele>78.0</ele><time>2026-04-18T14:02:02.998Z</time></trkpt><trkpt lat="44.8473094870811" lon="10.064780487130966"><ele>78.0</ele><time>2026-04-18T14:02:03.998Z</time></trkpt><trkpt lat="44.847345368889826" lon="10.064682463602407"><ele>78.0</ele><time>2026-04-18T14:02:04.998Z</time></trkpt><trkpt lat="44.84738843851785" lon="10.064590691304254"><ele>78.0</ele><time>2026-04-18T14:02:05.998Z</time></trkpt><trkpt lat="44.84739752143813" lon="10.064476356029735"><ele>78.0</ele><time>2026-04-18T14:02:06.998Z</time></trkpt><trkpt lat="44.84743527736003" lon="10.0643806526141"><ele>78.0</ele><time>2026-04-18T14:02:07.998Z</time></trkpt><trkpt lat="44.84747286736602" lon="10.064285369755611"><ele>78.0</ele><time>2026-04-18T14:02:08.998Z</time></trkpt><trkpt lat="44.84751053693563" lon="10.064189885375946"><ele>78.0</ele><time>2026-04-18T14:02:09.998Z</time></trkpt><trkpt lat="44.84754901653431" lon="10.06409234749151"><ele>78.0</ele><time>2026-04-18T14:02:11Z</time></trkpt><trkpt lat="44.84758703570383" lon="10.06399597759499"><ele>78.0</ele><time>2026-04-18T14:02:12Z</time></trkpt><trkpt lat="44.84762491210307" lon="10.063900562762594"><ele>78.0</ele><time>2026-04-18T14:02:13Z</time></trkpt><trkpt lat="44.84766251832443" lon="10.063805778427067"><ele>78.0</ele><time>2026-04-18T14:02:14Z</time></trkpt><trkpt lat="44.84770133426479" lon="10.06370794514366"><ele>78.0</ele><time>2026-04-18T14:02:15Z</time></trkpt><trkpt lat="44.84773927877548" lon="10.063612308119245"><ele>78.0</ele><time>2026-04-18T14:02:16Z</time></trkpt><trkpt lat="44.84777821508241" lon="10.063514171624622"><ele>78.0</ele><time>2026-04-18T14:02:17Z</time></trkpt><trkpt lat="44.84781653956297" lon="10.063416060825288"><ele>78.0</ele><time>2026-04-18T14:02:18Z</time></trkpt><trkpt lat="44.84785410185681" lon="10.063319631495464"><ele>78.0</ele><time>2026-04-18T14:02:19Z</time></trkpt><trkpt lat="44.84789266101118" lon="10.06322130406327"><ele>78.0</ele><time>2026-04-18T14:02:20Z</time></trkpt><trkpt lat="44.84793118240101" lon="10.063122918172837"><ele>78.0</ele><time>2026-04-18T14:02:21Z</time></trkpt><trkpt lat="44.84796988082179" lon="10.063024079975616"><ele>78.0</ele><time>2026-04-18T14:02:22Z</time></trkpt><trkpt lat="44.848007551618814" lon="10.062927866594585"><ele>78.0</ele><time>2026-04-18T14:02:23Z</time></trkpt><trkpt lat="44.84804517503356" lon="10.062831774137608"><ele>78.0</ele><time>2026-04-18T14:02:24Z</time></trkpt><trkpt lat="44.848082635935526" lon="10.06273609687334"><ele>78.0</ele><time>2026-04-18T14:02:25Z</time></trkpt><trkpt lat="44.84812043315084" lon="10.06263964557469"><ele>78.0</ele><time>2026-04-18T14:02:26Z</time></trkpt><trkpt lat="44.848158924971706" lon="10.06254163312341"><ele>78.0</ele><time>2026-04-18T14:02:27Z</time></trkpt><trkpt lat="44.84819665362507" lon="10.062445563958706"><ele>78.0</ele><time>2026-04-18T14:02:28Z</time></trkpt><trkpt lat="44.84823517572936" lon="10.062347474496107"><ele>78.0</ele><time>2026-04-18T14:02:28.999Z</time></trkpt><trkpt lat="44.84827141046459" lon="10.062255209426631"><ele>78.0</ele><time>2026-04-18T14:02:29.999Z</time></trkpt><trkpt lat="44.84830876523585" lon="10.062160092227161"><ele>78.0</ele><time>2026-04-18T14:02:30.999Z</time></trkpt><trkpt lat="44.848346435918465" lon="10.062064170725714"><ele>78.0</ele><time>2026-04-18T14:02:31.999Z</time></trkpt><trkpt lat="44.84838379208126" lon="10.061968395494324"><ele>78.0</ele><time>2026-04-18T14:02:32.999Z</time></trkpt><trkpt lat="44.84842122050709" lon="10.061870835502836"><ele>78.0</ele><time>2026-04-18T14:02:33.999Z</time></trkpt><trkpt lat="44.848457680652515" lon="10.06177579953821"><ele>78.0</ele><time>2026-04-18T14:02:34.999Z</time></trkpt><trkpt lat="44.84849699161343" lon="10.061675411651894"><ele>78.0</ele><time>2026-04-18T14:02:35.999Z</time></trkpt><trkpt lat="44.848536523262766" lon="10.061580658716942"><ele>78.0</ele><time>2026-04-18T14:02:36.999Z</time></trkpt><trkpt lat="44.848579348778436" lon="10.061485755413447"><ele>78.0</ele><time>2026-04-18T14:02:37.999Z</time></trkpt><trkpt lat="44.84862334363382" lon="10.061393941948797"><ele>78.5</ele><time>2026-04-18T14:02:38.999Z</time></trkpt><trkpt lat="44.8486709134175" lon="10.061303818636354"><ele>79.0</ele><time>2026-04-18T14:02:39.999Z</time></trkpt><trkpt lat="44.848722487349605" lon="10.0612178911181"><ele>79.5</ele><time>2026-04-18T14:02:40.999Z</time></trkpt><trkpt lat="44.84879112220016" lon="10.061153345792496"><ele>80.0</ele><time>2026-04-18T14:02:41.999Z</time></trkpt><trkpt lat="44.848848168697906" lon="10.061077747432053"><ele>80.5</ele><time>2026-04-18T14:02:42.999Z</time></trkpt><trkpt lat="44.848912948287754" lon="10.061008933646354"><ele>81.0</ele><time>2026-04-18T14:02:43.999Z</time></trkpt><trkpt lat="44.848984584140695" lon="10.060948694723518"><ele>81.0</ele><time>2026-04-18T14:02:44.999Z</time></trkpt><trkpt lat="44.849053955103756" lon="10.06089697168392"><ele>81.0</ele><time>2026-04-18T14:02:45.999Z</time></trkpt><trkpt lat="44.84913401185454" lon="10.06086192728979"><ele>81.0</ele><time>2026-04-18T14:02:46.999Z</time></trkpt><trkpt lat="44.84921059441538" lon="10.060825007041208"><ele>81.0</ele><time>2026-04-18T14:02:47.999Z</time></trkpt><trkpt lat="44.84928382357977" lon="10.060784316277504"><ele>81.0</ele><time>2026-04-18T14:02:48.999Z</time></trkpt><trkpt lat="44.84935984076687" lon="10.060744533778978"><ele>81.0</ele><time>2026-04-18T14:02:49.999Z</time></trkpt><trkpt lat="44.84943655403237" lon="10.06070641916513"><ele>80.83333333333333</ele><time>2026-04-18T14:02:50.999Z</time></trkpt><trkpt lat="44.84951217293892" lon="10.06066854411121"><ele>80.66666666666667</ele><time>2026-04-18T14:02:51.999Z</time></trkpt><trkpt lat="44.84958512644035" lon="10.060622038176412"><ele>80.5</ele><time>2026-04-18T14:02:52.999Z</time></trkpt><trkpt lat="44.849662914307395" lon="10.060582653229455"><ele>80.33333333333334</ele><time>2026-04-18T14:02:53.999Z</time></trkpt><trkpt lat="44.84974026086523" lon="10.060541541136166"><ele>80.16666666666667</ele><time>2026-04-18T14:02:54.999Z</time></trkpt><trkpt lat="44.84981212183384" lon="10.060485116144827"><ele>80.0</ele><time>2026-04-18T14:02:55.999Z</time></trkpt><trkpt lat="44.849882756824584" lon="10.06043792954638"><ele>80.0</ele><time>2026-04-18T14:02:56.999Z</time></trkpt><trkpt lat="44.84995769802043" lon="10.060392121296044"><ele>80.0</ele><time>2026-04-18T14:02:57.999Z</time></trkpt><trkpt lat="44.85002938489565" lon="10.060340146112019"><ele>80.0</ele><time>2026-04-18T14:02:58.999Z</time></trkpt><trkpt lat="44.85010326611655" lon="10.060291896506358"><ele>80.0</ele><time>2026-04-18T14:02:59.999Z</time></trkpt><trkpt lat="44.85017707901988" lon="10.060245409297154"><ele>80.0</ele><time>2026-04-18T14:03:00.999Z</time></trkpt><trkpt lat="44.85024803537156" lon="10.06019897819021"><ele>80.0</ele><time>2026-04-18T14:03:01.999Z</time></trkpt><trkpt lat="44.85032008661432" lon="10.060151306091035"><ele>80.0</ele><time>2026-04-18T14:03:02.999Z</time></trkpt><trkpt lat="44.850389091250754" lon="10.06009722379641"><ele>80.0</ele><time>2026-04-18T14:03:03.999Z</time></trkpt><trkpt lat="44.85045738593757" lon="10.060047714401637"><ele>80.0</ele><time>2026-04-18T14:03:04.999Z</time></trkpt><trkpt lat="44.85053151627064" lon="10.060002198000971"><ele>80.0</ele><time>2026-04-18T14:03:05.999Z</time></trkpt><trkpt lat="44.85060903273011" lon="10.059961561014386"><ele>80.0</ele><time>2026-04-18T14:03:06.999Z</time></trkpt><trkpt lat="44.850681921018385" lon="10.059910216395295"><ele>80.0</ele><time>2026-04-18T14:03:07.999Z</time></trkpt><trkpt lat="44.850755055191705" lon="10.0598669497839"><ele>80.0</ele><time>2026-04-18T14:03:08.999Z</time></trkpt><trkpt lat="44.850830596967555" lon="10.059823340174633"><ele>80.0</ele><time>2026-04-18T14:03:09.999Z</time></trkpt><trkpt lat="44.85090341818676" lon="10.059773966050278"><ele>80.0</ele><time>2026-04-18T14:03:10.999Z</time></trkpt><trkpt lat="44.85097891728465" lon="10.059728319806936"><ele>80.0</ele><time>2026-04-18T14:03:11.999Z</time></trkpt><trkpt lat="44.851050285967425" lon="10.059676480862446"><ele>80.0</ele><time>2026-04-18T14:03:12.999Z</time></trkpt><trkpt lat="44.85112327450058" lon="10.059627640249078"><ele>80.0</ele><time>2026-04-18T14:03:13.999Z</time></trkpt><trkpt lat="44.85119507435328" lon="10.05957123691408"><ele>80.0</ele><time>2026-04-18T14:03:14.999Z</time></trkpt><trkpt lat="44.851267311251206" lon="10.059511112105385"><ele>80.0</ele><time>2026-04-18T14:03:15.999Z</time></trkpt><trkpt lat="44.851337614744786" lon="10.059452981208064"><ele>80.0</ele><time>2026-04-18T14:03:16.999Z</time></trkpt><trkpt lat="44.85140948254583" lon="10.059395901113806"><ele>80.0</ele><time>2026-04-18T14:03:17.999Z</time></trkpt><trkpt lat="44.851482142014085" lon="10.059340085403731"><ele>80.0</ele><time>2026-04-18T14:03:18.999Z</time></trkpt><trkpt lat="44.851555379821" lon="10.05928466751363"><ele>80.0</ele><time>2026-04-18T14:03:19.999Z</time></trkpt><trkpt lat="44.85162584590545" lon="10.059219978146915"><ele>80.0</ele><time>2026-04-18T14:03:20.999Z</time></trkpt><trkpt lat="44.85169546796473" lon="10.059161297010778"><ele>80.0</ele><time>2026-04-18T14:03:21.999Z</time></trkpt><trkpt lat="44.85176418999007" lon="10.059094115404694"><ele>80.0</ele><time>2026-04-18T14:03:22.998Z</time></trkpt><trkpt lat="44.851832188584" lon="10.059030051431169"><ele>80.0</ele><time>2026-04-18T14:03:23.998Z</time></trkpt><trkpt lat="44.851903654368165" lon="10.058976473242891"><ele>80.0</ele><time>2026-04-18T14:03:24.998Z</time></trkpt><trkpt lat="44.85197235643679" lon="10.05892018285494"><ele>80.0</ele><time>2026-04-18T14:03:25.998Z</time></trkpt><trkpt lat="44.852037531532694" lon="10.058865270572841"><ele>79.85714285714286</ele><time>2026-04-18T14:03:26.998Z</time></trkpt><trkpt lat="44.852103311877094" lon="10.058812512721437"><ele>79.71428571428572</ele><time>2026-04-18T14:03:27.998Z</time></trkpt><trkpt lat="44.8521702801753" lon="10.058761573622773"><ele>79.57142857142858</ele><time>2026-04-18T14:03:28.998Z</time></trkpt><trkpt lat="44.85223535253654" lon="10.058706572168985"><ele>79.42857142857143</ele><time>2026-04-18T14:03:29.998Z</time></trkpt><trkpt lat="44.8522979735346" lon="10.058649612005718"><ele>79.28571428571429</ele><time>2026-04-18T14:03:30.998Z</time></trkpt><trkpt lat="44.85236135663559" lon="10.058598736537878"><ele>79.14285714285715</ele><time>2026-04-18T14:03:31.998Z</time></trkpt><trkpt lat="44.85242296628875" lon="10.058546752540524"><ele>79.0</ele><time>2026-04-18T14:03:32.998Z</time></trkpt><trkpt lat="44.85248410074315" lon="10.058502935116806"><ele>79.0</ele><time>2026-04-18T14:03:33.998Z</time></trkpt><trkpt lat="44.852541361366754" lon="10.058446494584325"><ele>79.0</ele><time>2026-04-18T14:03:34.998Z</time></trkpt><trkpt lat="44.852656207497226" lon="10.058550660569578"><ele>79.0</ele><time>2026-04-18T14:03:36.998Z</time></trkpt><trkpt lat="44.852726012474946" lon="10.058568931756449"><ele>79.0</ele><time>2026-04-18T14:03:37.998Z</time></trkpt><trkpt lat="44.8527904103142" lon="10.058585254672014"><ele>79.0</ele><time>2026-04-18T14:03:38.998Z</time></trkpt><trkpt lat="44.852857508665615" lon="10.058602553455104"><ele>79.0</ele><time>2026-04-18T14:03:39.998Z</time></trkpt><trkpt lat="44.85292055050878" lon="10.05861880643"><ele>79.00000000000001</ele><time>2026-04-18T14:03:40.998Z</time></trkpt><trkpt lat="44.85298858838816" lon="10.058636347440045"><ele>79.0</ele><time>2026-04-18T14:03:41.998Z</time></trkpt><trkpt lat="44.85306084248871" lon="10.05865497546037"><ele>79.0</ele><time>2026-04-18T14:03:42.998Z</time></trkpt><trkpt lat="44.853124330576335" lon="10.058671343471612"><ele>79.0</ele><time>2026-04-18T14:03:43.998Z</time></trkpt><trkpt lat="44.853191394733" lon="10.058688381905943"><ele>79.0</ele><time>2026-04-18T14:03:44.998Z</time></trkpt><trkpt lat="44.853260851972244" lon="10.05870582179252"><ele>79.00000000000001</ele><time>2026-04-18T14:03:45.998Z</time></trkpt><trkpt lat="44.85333001655239" lon="10.058723186325386"><ele>79.0</ele><time>2026-04-18T14:03:46.998Z</time></trkpt><trkpt lat="44.85340080661168" lon="10.058740958962186"><ele>79.0</ele><time>2026-04-18T14:03:47.998Z</time></trkpt><trkpt lat="44.853467769084965" lon="10.05875777062425"><ele>79.0</ele><time>2026-04-18T14:03:48.998Z</time></trkpt><trkpt lat="44.85353281400981" lon="10.058774100893348"><ele>79.0</ele><time>2026-04-18T14:03:49.998Z</time></trkpt><trkpt lat="44.85359546259379" lon="10.058789829507537"><ele>79.0</ele><time>2026-04-18T14:03:50.998Z</time></trkpt><trkpt lat="44.85372090669345" lon="10.058821323672179"><ele>79.0</ele><time>2026-04-18T14:03:52.998Z</time></trkpt><trkpt lat="44.85378645597343" lon="10.058837780544483"><ele>79.0</ele><time>2026-04-18T14:03:53.998Z</time></trkpt><trkpt lat="44.85385262698749" lon="10.058854394029689"><ele>79.0</ele><time>2026-04-18T14:03:54.998Z</time></trkpt><trkpt lat="44.85397637041803" lon="10.058884753045401"><ele>79.0</ele><time>2026-04-18T14:03:56.998Z</time></trkpt><trkpt lat="44.854043786518695" lon="10.058903165309825"><ele>79.0</ele><time>2026-04-18T14:03:57.998Z</time></trkpt><trkpt lat="44.85411029024935" lon="10.058921793783428"><ele>79.0</ele><time>2026-04-18T14:03:58.998Z</time></trkpt><trkpt lat="44.85417627027915" lon="10.058940275582216"><ele>79.0</ele><time>2026-04-18T14:03:59.998Z</time></trkpt><trkpt lat="44.85424107392115" lon="10.05895842786432"><ele>79.0</ele><time>2026-04-18T14:04:00.999Z</time></trkpt><trkpt lat="44.854306796208625" lon="10.058976837478205"><ele>78.60000000000001</ele><time>2026-04-18T14:04:01.999Z</time></trkpt><trkpt lat="44.85437148723526" lon="10.058994958209437"><ele>78.2</ele><time>2026-04-18T14:04:02.999Z</time></trkpt><trkpt lat="44.8545026736012" lon="10.058996707537961"><ele>77.80000000000001</ele><time>2026-04-18T14:04:04.999Z</time></trkpt><trkpt lat="44.85458195461721" lon="10.059081051086078"><ele>77.4</ele><time>2026-04-18T14:04:06.999Z</time></trkpt><trkpt lat="44.85464819780836" lon="10.059137478848289"><ele>77.0</ele><time>2026-04-18T14:04:10.999Z</time></trkpt><trkpt lat="44.8546957715121" lon="10.059222488507643"><ele>77.0</ele><time>2026-04-18T14:04:12.999Z</time></trkpt><trkpt lat="44.854763707142844" lon="10.05929237676592"><ele>77.0</ele><time>2026-04-18T14:04:14.999Z</time></trkpt><trkpt lat="44.85486613414565" lon="10.05918525360068"><ele>77.0</ele><time>2026-04-18T14:04:15.999Z</time></trkpt><trkpt lat="44.85497049937371" lon="10.059127035271233"><ele>77.0</ele><time>2026-04-18T14:04:18.001Z</time></trkpt><trkpt lat="44.85508169177366" lon="10.059111653301976"><ele>77.0</ele><time>2026-04-18T14:04:20.001Z</time></trkpt><trkpt lat="44.85519410795164" lon="10.059152331632857"><ele>76.85714285714286</ele><time>2026-04-18T14:04:22.001Z</time></trkpt><trkpt lat="44.85530261514008" lon="10.059217628371465"><ele>76.71428571428572</ele><time>2026-04-18T14:04:24.001Z</time></trkpt><trkpt lat="44.855368778468666" lon="10.059235221714225"><ele>76.57142857142857</ele><time>2026-04-18T14:04:25.001Z</time></trkpt><trkpt lat="44.85543348928824" lon="10.059252982565127"><ele>76.42857142857143</ele><time>2026-04-18T14:04:26.001Z</time></trkpt><trkpt lat="44.85549689591704" lon="10.059269018211644"><ele>76.28571428571429</ele><time>2026-04-18T14:04:27.001Z</time></trkpt><trkpt lat="44.85556303824841" lon="10.059286466110894"><ele>76.14285714285714</ele><time>2026-04-18T14:04:28.001Z</time></trkpt><trkpt lat="44.85562621185851" lon="10.05930304372063"><ele>76.0</ele><time>2026-04-18T14:04:29.001Z</time></trkpt><trkpt lat="44.85568870024097" lon="10.05931905170924"><ele>76.0</ele><time>2026-04-18T14:04:30.001Z</time></trkpt><trkpt lat="44.8557539128747" lon="10.05933575757317"><ele>76.0</ele><time>2026-04-18T14:04:31.001Z</time></trkpt><trkpt lat="44.855875803519346" lon="10.059367026431353"><ele>76.0</ele><time>2026-04-18T14:04:33.001Z</time></trkpt><trkpt lat="44.855994065777566" lon="10.05939783641934"><ele>76.0</ele><time>2026-04-18T14:04:35Z</time></trkpt><trkpt lat="44.856120125669065" lon="10.059430317921024"><ele>76.0</ele><time>2026-04-18T14:04:37Z</time></trkpt><trkpt lat="44.85618417497468" lon="10.059446884555795"><ele>76.5</ele><time>2026-04-18T14:04:38Z</time></trkpt><trkpt lat="44.85631459609145" lon="10.059462094299713"><ele>77.0</ele><time>2026-04-18T14:04:40Z</time></trkpt><trkpt lat="44.85643786534471" lon="10.059489453093946"><ele>77.5</ele><time>2026-04-18T14:04:42Z</time></trkpt><trkpt lat="44.856547648956955" lon="10.05954112366999"><ele>78.0</ele><time>2026-04-18T14:04:44Z</time></trkpt><trkpt lat="44.85664721974055" lon="10.059560637646767"><ele>78.0</ele><time>2026-04-18T14:04:46Z</time></trkpt><trkpt lat="44.8567299729206" lon="10.059581357507325"><ele>78.0</ele><time>2026-04-18T14:04:48Z</time></trkpt><trkpt lat="44.85680812692547" lon="10.059605682565655"><ele>78.0</ele><time>2026-04-18T14:04:50Z</time></trkpt><trkpt lat="44.85690128874407" lon="10.059631964394471"><ele>78.0</ele><time>2026-04-18T14:04:52Z</time></trkpt><trkpt lat="44.85699043002865" lon="10.05965930705725"><ele>78.0</ele><time>2026-04-18T14:04:54Z</time></trkpt><trkpt lat="44.85709142190284" lon="10.059677514356265"><ele>77.8</ele><time>2026-04-18T14:04:56Z</time></trkpt><trkpt lat="44.85718674827237" lon="10.059706548790315"><ele>77.6</ele><time>2026-04-18T14:04:58Z</time></trkpt><trkpt lat="44.85727845573936" lon="10.05973750177733"><ele>77.4</ele><time>2026-04-18T14:05:00Z</time></trkpt><trkpt lat="44.8573731504995" lon="10.05975737236678"><ele>77.2</ele><time>2026-04-18T14:05:02Z</time></trkpt><trkpt lat="44.85746415674361" lon="10.059789857347178"><ele>77.0</ele><time>2026-04-18T14:05:04Z</time></trkpt><trkpt lat="44.857556511348804" lon="10.059814227564877"><ele>77.0</ele><time>2026-04-18T14:05:06Z</time></trkpt><trkpt lat="44.85765600576163" lon="10.05982379279036"><ele>77.0</ele><time>2026-04-18T14:05:08Z</time></trkpt><trkpt lat="44.85775988062943" lon="10.059858656621348"><ele>77.0</ele><time>2026-04-18T14:05:10Z</time></trkpt><trkpt lat="44.857873286535636" lon="10.059883941593677"><ele>77.0</ele><time>2026-04-18T14:05:12Z</time></trkpt><trkpt lat="44.85799497035936" lon="10.059918268311996"><ele>77.0</ele><time>2026-04-18T14:05:14Z</time></trkpt><trkpt lat="44.85805890385451" lon="10.059938153519923"><ele>77.0</ele><time>2026-04-18T14:05:15Z</time></trkpt><trkpt lat="44.85818905997322" lon="10.059971289554008"><ele>77.0</ele><time>2026-04-18T14:05:17Z</time></trkpt><trkpt lat="44.858312277009844" lon="10.059986182131674"><ele>77.0</ele><time>2026-04-18T14:05:19Z</time></trkpt><trkpt lat="44.85838454054518" lon="10.060012324238444"><ele>77.0</ele><time>2026-04-18T14:05:20Z</time></trkpt><trkpt lat="44.85845301811581" lon="10.06003112078015"><ele>77.0</ele><time>2026-04-18T14:05:21Z</time></trkpt><trkpt lat="44.858516737107514" lon="10.060044669356676"><ele>77.16666666666667</ele><time>2026-04-18T14:05:22Z</time></trkpt><trkpt lat="44.85863010372816" lon="10.060081918603073"><ele>77.33333333333334</ele><time>2026-04-18T14:05:24Z</time></trkpt><trkpt lat="44.85869897376931" lon="10.060101769051583"><ele>77.5</ele><time>2026-04-18T14:05:25Z</time></trkpt><trkpt lat="44.85876399828423" lon="10.060118361981468"><ele>77.66666666666667</ele><time>2026-04-18T14:05:26Z</time></trkpt><trkpt lat="44.858829967786846" lon="10.060138015440161"><ele>77.83333333333333</ele><time>2026-04-18T14:05:26.999Z</time></trkpt><trkpt lat="44.858897524993075" lon="10.060162842983253"><ele>78.0</ele><time>2026-04-18T14:05:27.999Z</time></trkpt><trkpt lat="44.85896146915941" lon="10.060187274179594"><ele>78.0</ele><time>2026-04-18T14:05:28.999Z</time></trkpt><trkpt lat="44.859027285606565" lon="10.060207344845898"><ele>78.0</ele><time>2026-04-18T14:05:29.999Z</time></trkpt><trkpt lat="44.85909776232667" lon="10.060233635818115"><ele>78.0</ele><time>2026-04-18T14:05:30.999Z</time></trkpt><trkpt lat="44.859171136738055" lon="10.060257046402011"><ele>78.0</ele><time>2026-04-18T14:05:31.999Z</time></trkpt><trkpt lat="44.859239624711336" lon="10.060272818572702"><ele>78.0</ele><time>2026-04-18T14:05:32.999Z</time></trkpt><trkpt lat="44.85930771373107" lon="10.060291852996489"><ele>78.0</ele><time>2026-04-18T14:05:33.999Z</time></trkpt><trkpt lat="44.85937433098073" lon="10.060295734079032"><ele>78.0</ele><time>2026-04-18T14:05:34.999Z</time></trkpt><trkpt lat="44.85943729782177" lon="10.060315101428717"><ele>78.0</ele><time>2026-04-18T14:05:35.999Z</time></trkpt><trkpt lat="44.85951594848582" lon="10.060345194641066"><ele>78.0</ele><time>2026-04-18T14:05:36.999Z</time></trkpt><trkpt lat="44.85958835450993" lon="10.060341507920745"><ele>78.0</ele><time>2026-04-18T14:05:37.999Z</time></trkpt><trkpt lat="44.859655502129804" lon="10.060380853672742"><ele>78.0</ele><time>2026-04-18T14:05:38.999Z</time></trkpt><trkpt lat="44.85971898858696" lon="10.060389796062298"><ele>78.0</ele><time>2026-04-18T14:05:39.999Z</time></trkpt><trkpt lat="44.859783572439746" lon="10.06038903997318"><ele>78.0</ele><time>2026-04-18T14:05:40.999Z</time></trkpt><trkpt lat="44.8598498810617" lon="10.060421211340108"><ele>78.0</ele><time>2026-04-18T14:05:41.999Z</time></trkpt><trkpt lat="44.85991310144651" lon="10.060430984715625"><ele>78.0</ele><time>2026-04-18T14:05:42.999Z</time></trkpt><trkpt lat="44.8599797856561" lon="10.06045517535161"><ele>78.0</ele><time>2026-04-18T14:05:43.999Z</time></trkpt><trkpt lat="44.860051097491834" lon="10.060479043645586"><ele>78.0</ele><time>2026-04-18T14:05:44.999Z</time></trkpt><trkpt lat="44.860120332949215" lon="10.060499015232763"><ele>78.0</ele><time>2026-04-18T14:05:45.999Z</time></trkpt><trkpt lat="44.860190065887785" lon="10.060513192234257"><ele>78.0</ele><time>2026-04-18T14:05:46.999Z</time></trkpt><trkpt lat="44.860258715177345" lon="10.060533305621268"><ele>78.0</ele><time>2026-04-18T14:05:47.999Z</time></trkpt><trkpt lat="44.86032943740838" lon="10.060550118095724"><ele>78.0</ele><time>2026-04-18T14:05:48.999Z</time></trkpt><trkpt lat="44.8604033362474" lon="10.060569731802305"><ele>77.85714285714286</ele><time>2026-04-18T14:05:49.999Z</time></trkpt><trkpt lat="44.86047246933591" lon="10.06058509511844"><ele>77.71428571428571</ele><time>2026-04-18T14:05:50.999Z</time></trkpt><trkpt lat="44.860544978196586" lon="10.060587117692778"><ele>77.57142857142857</ele><time>2026-04-18T14:05:51.999Z</time></trkpt><trkpt lat="44.86061744673863" lon="10.060605560178393"><ele>77.42857142857143</ele><time>2026-04-18T14:05:52.999Z</time></trkpt><trkpt lat="44.86068539879652" lon="10.060645540072121"><ele>77.28571428571428</ele><time>2026-04-18T14:05:53.999Z</time></trkpt><trkpt lat="44.86075756429127" lon="10.060662610828775"><ele>77.14285714285714</ele><time>2026-04-18T14:05:54.999Z</time></trkpt><trkpt lat="44.860832380436754" lon="10.060671766292495"><ele>77.0</ele><time>2026-04-18T14:05:55.999Z</time></trkpt><trkpt lat="44.86090013820457" lon="10.060695090717681"><ele>76.85714285714286</ele><time>2026-04-18T14:05:56.999Z</time></trkpt><trkpt lat="44.86096542839412" lon="10.060718249464479"><ele>76.71428571428572</ele><time>2026-04-18T14:05:57.999Z</time></trkpt><trkpt lat="44.86103988871927" lon="10.060733164204407"><ele>76.57142857142857</ele><time>2026-04-18T14:05:58.999Z</time></trkpt><trkpt lat="44.86111212393227" lon="10.060746334310489"><ele>76.42857142857143</ele><time>2026-04-18T14:05:59.999Z</time></trkpt><trkpt lat="44.86118170872694" lon="10.060763293220983"><ele>76.28571428571429</ele><time>2026-04-18T14:06:00.999Z</time></trkpt><trkpt lat="44.86125144394167" lon="10.060781189851673"><ele>76.14285714285714</ele><time>2026-04-18T14:06:01.999Z</time></trkpt><trkpt lat="44.86132374430619" lon="10.060793774457009"><ele>76.0</ele><time>2026-04-18T14:06:02.999Z</time></trkpt><trkpt lat="44.86139008230649" lon="10.060810436242726"><ele>76.33333333333333</ele><time>2026-04-18T14:06:03.999Z</time></trkpt><trkpt lat="44.8614584895922" lon="10.06082711316962"><ele>76.66666666666666</ele><time>2026-04-18T14:06:04.999Z</time></trkpt><trkpt lat="44.86152381861548" lon="10.060845947774991"><ele>77.0</ele><time>2026-04-18T14:06:05.999Z</time></trkpt><trkpt lat="44.86164825507376" lon="10.06086824619718"><ele>77.33333333333333</ele><time>2026-04-18T14:06:07.999Z</time></trkpt><trkpt lat="44.86171151003197" lon="10.060855572143538"><ele>77.66666666666667</ele><time>2026-04-18T14:06:08.999Z</time></trkpt><trkpt lat="44.86182579284132" lon="10.06082192680533"><ele>78.0</ele><time>2026-04-18T14:06:10.999Z</time></trkpt><trkpt lat="44.861941205646254" lon="10.060771333249674"><ele>78.0</ele><time>2026-04-18T14:06:12.999Z</time></trkpt><trkpt lat="44.86201629594604" lon="10.060742345131137"><ele>78.0</ele><time>2026-04-18T14:06:14.999Z</time></trkpt><trkpt lat="44.86211980441132" lon="10.060739712865049"><ele>78.0</ele><time>2026-04-18T14:06:17.999Z</time></trkpt><trkpt lat="44.86220176234669" lon="10.06073884675821"><ele>78.0</ele><time>2026-04-18T14:06:19.999Z</time></trkpt><trkpt lat="44.86228073217852" lon="10.060677514554811"><ele>78.0</ele><time>2026-04-18T14:06:21.998Z</time></trkpt><trkpt lat="44.86236748607178" lon="10.060616931188772"><ele>78.0</ele><time>2026-04-18T14:06:24.001Z</time></trkpt><trkpt lat="44.862447669325455" lon="10.060585235705117"><ele>78.0</ele><time>2026-04-18T14:06:26.001Z</time></trkpt><trkpt lat="44.86254326559441" lon="10.060567169275009"><ele>78.0</ele><time>2026-04-18T14:06:28.001Z</time></trkpt><trkpt lat="44.86263967400329" lon="10.060547407975575"><ele>78.0</ele><time>2026-04-18T14:06:30.001Z</time></trkpt><trkpt lat="44.86273474901918" lon="10.060582762677834"><ele>78.0</ele><time>2026-04-18T14:06:32.001Z</time></trkpt><trkpt lat="44.862802166107485" lon="10.060624610041778"><ele>78.0</ele><time>2026-04-18T14:06:34.001Z</time></trkpt><trkpt lat="44.862888627071854" lon="10.060676374218222"><ele>78.0</ele><time>2026-04-18T14:06:36.001Z</time></trkpt><trkpt lat="44.86298108660037" lon="10.060730159468314"><ele>78.0</ele><time>2026-04-18T14:06:38Z</time></trkpt><trkpt lat="44.86304128505259" lon="10.060765601071214"><ele>78.0</ele><time>2026-04-18T14:06:39Z</time></trkpt><trkpt lat="44.86314105035811" lon="10.06082245200333"><ele>78.0</ele><time>2026-04-18T14:06:41Z</time></trkpt><trkpt lat="44.86324820648385" lon="10.060881250304575"><ele>78.0</ele><time>2026-04-18T14:06:43Z</time></trkpt><trkpt lat="44.86333975481114" lon="10.060930683110776"><ele>77.8</ele><time>2026-04-18T14:06:45Z</time></trkpt><trkpt lat="44.86343126271957" lon="10.06097997746419"><ele>77.6</ele><time>2026-04-18T14:06:47Z</time></trkpt><trkpt lat="44.86351624408974" lon="10.061069534199396"><ele>77.4</ele><time>2026-04-18T14:06:49Z</time></trkpt><trkpt lat="44.863621587229154" lon="10.061089923022301"><ele>77.2</ele><time>2026-04-18T14:06:51Z</time></trkpt><trkpt lat="44.86368391430025" lon="10.06112482324001"><ele>77.0</ele><time>2026-04-18T14:06:52Z</time></trkpt><trkpt lat="44.86378865237156" lon="10.061198259920875"><ele>77.0</ele><time>2026-04-18T14:06:54Z</time></trkpt><trkpt lat="44.86388199143111" lon="10.061250673256154"><ele>77.0</ele><time>2026-04-18T14:06:56Z</time></trkpt><trkpt lat="44.86397589088977" lon="10.06131228915586"><ele>77.0</ele><time>2026-04-18T14:06:58Z</time></trkpt><trkpt lat="44.86405060090133" lon="10.061363802646959"><ele>77.0</ele><time>2026-04-18T14:07:00Z</time></trkpt><trkpt lat="44.86415589275899" lon="10.061416386686624"><ele>77.0</ele><time>2026-04-18T14:07:02Z</time></trkpt><trkpt lat="44.86421981352098" lon="10.061446191552971"><ele>77.4</ele><time>2026-04-18T14:07:03Z</time></trkpt><trkpt lat="44.86432732767674" lon="10.061497738835302"><ele>77.80000000000001</ele><time>2026-04-18T14:07:05Z</time></trkpt><trkpt lat="44.86442103054466" lon="10.061556304144993"><ele>78.2</ele><time>2026-04-18T14:07:07Z</time></trkpt><trkpt lat="44.86452059354404" lon="10.061610491746574"><ele>78.60000000000001</ele><time>2026-04-18T14:07:09Z</time></trkpt><trkpt lat="44.8646068946038" lon="10.061661331546333"><ele>79.0</ele><time>2026-04-18T14:07:11Z</time></trkpt><trkpt lat="44.86467932311338" lon="10.061716747187546"><ele>79.00000000000001</ele><time>2026-04-18T14:07:13Z</time></trkpt><trkpt lat="44.864761645891214" lon="10.061766349913299"><ele>79.0</ele><time>2026-04-18T14:07:15Z</time></trkpt><trkpt lat="44.86482513818896" lon="10.061814060832019"><ele>79.0</ele><time>2026-04-18T14:07:17Z</time></trkpt><trkpt lat="44.86488297147478" lon="10.061851817311267"><ele>79.0</ele><time>2026-04-18T14:07:19Z</time></trkpt><trkpt lat="44.86494808553203" lon="10.061839641271765"><ele>79.0</ele><time>2026-04-18T14:07:21Z</time></trkpt><trkpt lat="44.8649728921283" lon="10.061733364140215"><ele>79.00000000000001</ele><time>2026-04-18T14:07:23Z</time></trkpt><trkpt lat="44.86496237953" lon="10.061625020899646"><ele>79.0</ele><time>2026-04-18T14:07:25Z</time></trkpt><trkpt lat="44.86496780031034" lon="10.061532560902048"><ele>79.14285714285715</ele><time>2026-04-18T14:07:27Z</time></trkpt><trkpt lat="44.86497172361505" lon="10.061442557890249"><ele>79.28571428571429</ele><time>2026-04-18T14:07:29Z</time></trkpt><trkpt lat="44.86497024765063" lon="10.061341337951555"><ele>79.42857142857143</ele><time>2026-04-18T14:07:31.999Z</time></trkpt><trkpt lat="44.86495633714029" lon="10.061234248162773"><ele>79.57142857142858</ele><time>2026-04-18T14:07:34.999Z</time></trkpt><trkpt lat="44.86498672778402" lon="10.061148204274774"><ele>79.71428571428572</ele><time>2026-04-18T14:07:37.999Z</time></trkpt><trkpt lat="44.86506659193668" lon="10.061163879794778"><ele>79.85714285714286</ele><time>2026-04-18T14:07:40.999Z</time></trkpt><trkpt lat="44.865122098532" lon="10.061211309861495"><ele>80.0</ele><time>2026-04-18T14:07:42.999Z</time></trkpt><trkpt lat="44.86521346157418" lon="10.061250499516227"><ele>80.33333333333334</ele><time>2026-04-18T14:07:44.999Z</time></trkpt><trkpt lat="44.865290419747915" lon="10.061236046058427"><ele>80.66666666666667</ele><time>2026-04-18T14:07:46.999Z</time></trkpt><trkpt lat="44.865347618473876" lon="10.061166240256886"><ele>81.0</ele><time>2026-04-18T14:07:48.999Z</time></trkpt><trkpt lat="44.8654122558383" lon="10.061146224488224"><ele>81.33333333333333</ele><time>2026-04-18T14:07:50.999Z</time></trkpt><trkpt lat="44.86549115044001" lon="10.061166905111264"><ele>81.66666666666666</ele><time>2026-04-18T14:07:54.999Z</time></trkpt><trkpt lat="44.86555404230265" lon="10.061199795281565"><ele>82.0</ele><time>2026-04-18T14:08:03.999Z</time></trkpt><trkpt lat="44.86564396357838" lon="10.06122506974857"><ele>82.0</ele><time>2026-04-18T14:09:13Z</time></trkpt><trkpt lat="44.865721664838006" lon="10.06129090800408"><ele>82.0</ele><time>2026-04-18T14:09:17Z</time></trkpt><trkpt lat="44.865798870820846" lon="10.061338303826101"><ele>82.0</ele><time>2026-04-18T14:09:19Z</time></trkpt><trkpt lat="44.86586904787799" lon="10.061324090923748"><ele>82.0</ele><time>2026-04-18T14:09:22Z</time></trkpt><trkpt lat="44.86597600102716" lon="10.06131956672393"><ele>82.0</ele><time>2026-04-18T14:09:26Z</time></trkpt><trkpt lat="44.86613711657012" lon="10.06127542465075"><ele>81.99999999999999</ele><time>2026-04-18T14:09:34Z</time></trkpt><trkpt lat="44.86619995930297" lon="10.061237887996118"><ele>82.0</ele><time>2026-04-18T14:09:35.999Z</time></trkpt><trkpt lat="44.866247440648955" lon="10.061163928413208"><ele>82.0</ele><time>2026-04-18T14:09:38.999Z</time></trkpt><trkpt lat="44.866298647030774" lon="10.061095484458505"><ele>82.0</ele><time>2026-04-18T14:09:41.999Z</time></trkpt><trkpt lat="44.8663618797911" lon="10.06105093843574"><ele>82.0</ele><time>2026-04-18T14:09:45.999Z</time></trkpt><trkpt lat="44.86641973289126" lon="10.06099059197904"><ele>81.99999999999999</ele><time>2026-04-18T14:09:49.999Z</time></trkpt><trkpt lat="44.866389312979024" lon="10.060882112577513"><ele>82.0</ele><time>2026-04-18T14:09:54.999Z</time></trkpt><trkpt lat="44.86633053833033" lon="10.06084799748417"><ele>82.0</ele><time>2026-04-18T14:09:57.999Z</time></trkpt><trkpt lat="44.86626709018562" lon="10.060821252550193"><ele>82.0</ele><time>2026-04-18T14:10:00.999Z</time></trkpt><trkpt lat="44.866207419059165" lon="10.060778255659505"><ele>82.0</ele><time>2026-04-18T14:10:04.999Z</time></trkpt><trkpt lat="44.86614092241515" lon="10.06074281802447"><ele>82.0</ele><time>2026-04-18T14:10:09.999Z</time></trkpt><trkpt lat="44.86607882013505" lon="10.060774635816093"><ele>82.0</ele><time>2026-04-18T14:12:37.998Z</time></trkpt><trkpt lat="44.86620986255511" lon="10.060886738807621"><ele>82.0</ele><time>2026-04-18T14:12:42.998Z</time></trkpt><trkpt lat="44.86618006422689" lon="10.060795629400483"><ele>82.0</ele><time>2026-04-18T14:31:46Z</time></trkpt><trkpt lat="44.8661417768562" lon="10.060722376086206"><ele>82.0</ele><time>2026-04-18T14:32:03Z</time></trkpt><trkpt lat="44.86626585338507" lon="10.060726808903178"><ele>82.0</ele><time>2026-04-18T14:32:13Z</time></trkpt><trkpt lat="44.86619131380753" lon="10.060724406542171"><ele>82.0</ele><time>2026-04-18T14:33:31.998Z</time></trkpt><trkpt lat="44.86627213316261" lon="10.060751529176322"><ele>82.0</ele><time>2026-04-18T14:33:58Z</time></trkpt><trkpt lat="44.866330463557" lon="10.060791659673917"><ele>82.0</ele><time>2026-04-18T14:34:00Z</time></trkpt><trkpt lat="44.866390452516804" lon="10.060830373113586"><ele>81.99999999999999</ele><time>2026-04-18T14:34:02Z</time></trkpt><trkpt lat="44.86644326564881" lon="10.06088427279971"><ele>82.0</ele><time>2026-04-18T14:34:05Z</time></trkpt><trkpt lat="44.86649873962032" lon="10.060952701040197"><ele>82.0</ele><time>2026-04-18T14:34:09Z</time></trkpt><trkpt lat="44.86655245590912" lon="10.060889504532419"><ele>82.0</ele><time>2026-04-18T14:34:14Z</time></trkpt><trkpt lat="44.866565300039824" lon="10.060791821783491"><ele>82.0</ele><time>2026-04-18T14:34:19Z</time></trkpt><trkpt lat="44.866566765926585" lon="10.060689585918904"><ele>81.99999999999999</ele><time>2026-04-18T14:34:24Z</time></trkpt><trkpt lat="44.86659363307674" lon="10.060588776540055"><ele>82.0</ele><time>2026-04-18T14:34:27.999Z</time></trkpt><trkpt lat="44.8666278669729" lon="10.060511135285154"><ele>81.0</ele><time>2026-04-18T14:34:31.999Z</time></trkpt><trkpt lat="44.866786892291344" lon="10.060459817844574"><ele>80.0</ele><time>2026-04-18T14:34:41.999Z</time></trkpt><trkpt lat="44.86685872754461" lon="10.060454797349005"><ele>79.0</ele><time>2026-04-18T14:34:43.999Z</time></trkpt><trkpt lat="44.866952453063476" lon="10.060506990989351"><ele>78.0</ele><time>2026-04-18T14:34:45.999Z</time></trkpt><trkpt lat="44.867038420057185" lon="10.06054164262556"><ele>77.0</ele><time>2026-04-18T14:34:48.999Z</time></trkpt><trkpt lat="44.86710263347015" lon="10.060585608108804"><ele>77.0</ele><time>2026-04-18T14:34:51.999Z</time></trkpt><trkpt lat="44.86712344866512" lon="10.060691535948731"><ele>77.0</ele><time>2026-04-18T14:34:53.999Z</time></trkpt><trkpt lat="44.86709853326878" lon="10.060789762503129"><ele>77.0</ele><time>2026-04-18T14:34:55.999Z</time></trkpt><trkpt lat="44.86707201558499" lon="10.060897650738227"><ele>77.0</ele><time>2026-04-18T14:34:58.999Z</time></trkpt><trkpt lat="44.86710993861492" lon="10.060987668143087"><ele>77.0</ele><time>2026-04-18T14:35:04.999Z</time></trkpt><trkpt lat="44.86718855197574" lon="10.06101672855795"><ele>77.0</ele><time>2026-04-18T14:35:06.999Z</time></trkpt><trkpt lat="44.86728956449492" lon="10.061059409616268"><ele>77.33333333333334</ele><time>2026-04-18T14:35:08.999Z</time></trkpt><trkpt lat="44.86739128282254" lon="10.061127047196381"><ele>77.66666666666667</ele><time>2026-04-18T14:35:10.999Z</time></trkpt><trkpt lat="44.867481280500975" lon="10.061194130562493"><ele>78.0</ele><time>2026-04-18T14:35:12.999Z</time></trkpt><trkpt lat="44.86756452760776" lon="10.061246154526003"><ele>78.33333333333333</ele><time>2026-04-18T14:35:14.999Z</time></trkpt><trkpt lat="44.867620499985385" lon="10.061288553952899"><ele>78.66666666666666</ele><time>2026-04-18T14:35:16.999Z</time></trkpt><trkpt lat="44.867672841803234" lon="10.061355883515242"><ele>79.0</ele><time>2026-04-18T14:35:19.999Z</time></trkpt><trkpt lat="44.86766476450639" lon="10.061467065843736"><ele>78.83333333333333</ele><time>2026-04-18T14:35:22.998Z</time></trkpt><trkpt lat="44.867618152931165" lon="10.061575848348683"><ele>78.66666666666666</ele><time>2026-04-18T14:35:25.998Z</time></trkpt><trkpt lat="44.86758436934129" lon="10.061656106838848"><ele>78.5</ele><time>2026-04-18T14:35:28.998Z</time></trkpt><trkpt lat="44.86752282849174" lon="10.061751381138393"><ele>78.33333333333333</ele><time>2026-04-18T14:37:10.999Z</time></trkpt><trkpt lat="44.867494258793954" lon="10.061877946274263"><ele>78.16666666666667</ele><time>2026-04-18T14:37:13.999Z</time></trkpt><trkpt lat="44.86749138314608" lon="10.06196854919317"><ele>78.0</ele><time>2026-04-18T14:37:15.999Z</time></trkpt><trkpt lat="44.86756397259136" lon="10.06208811628804"><ele>76.8</ele><time>2026-04-18T14:37:17.999Z</time></trkpt><trkpt lat="44.867683813530846" lon="10.062155218269336"><ele>75.6</ele><time>2026-04-18T14:37:19.999Z</time></trkpt><trkpt lat="44.867744841547136" lon="10.062194611364516"><ele>74.4</ele><time>2026-04-18T14:37:20.999Z</time></trkpt><trkpt lat="44.86777776560345" lon="10.062347646379397"><ele>73.2</ele><time>2026-04-18T14:37:21.998Z</time></trkpt><trkpt lat="44.86784301680523" lon="10.06238343633315"><ele>72.0</ele><time>2026-04-18T14:37:22.998Z</time></trkpt><trkpt lat="44.86790917378811" lon="10.062419527271956"><ele>71.66666666666667</ele><time>2026-04-18T14:37:23.998Z</time></trkpt><trkpt lat="44.86798371778613" lon="10.062456557099228"><ele>71.33333333333333</ele><time>2026-04-18T14:37:24.998Z</time></trkpt><trkpt lat="44.86805488636952" lon="10.062495069388744"><ele>71.0</ele><time>2026-04-18T14:37:25.998Z</time></trkpt><trkpt lat="44.868134402769634" lon="10.062522249631314"><ele>70.66666666666666</ele><time>2026-04-18T14:37:26.998Z</time></trkpt><trkpt lat="44.86820861003239" lon="10.062571628587339"><ele>70.33333333333333</ele><time>2026-04-18T14:37:28.052Z</time></trkpt><trkpt lat="44.86827897039595" lon="10.062618359531672"><ele>70.0</ele><time>2026-04-18T14:37:29.049Z</time></trkpt><trkpt lat="44.86834998034395" lon="10.06266390972068"><ele>69.4</ele><time>2026-04-18T14:37:30.048Z</time></trkpt><trkpt lat="44.86846041103746" lon="10.06271666033023"><ele>68.8</ele><time>2026-04-18T14:37:32.049Z</time></trkpt><trkpt lat="44.868527607317745" lon="10.062757488440466"><ele>68.2</ele><time>2026-04-18T14:37:33.044Z</time></trkpt><trkpt lat="44.86864591306948" lon="10.06271832216538"><ele>67.6</ele><time>2026-04-18T14:37:34.998Z</time></trkpt><trkpt lat="44.868650490774186" lon="10.06287754360347"><ele>67.0</ele><time>2026-04-18T14:37:36.998Z</time></trkpt><trkpt lat="44.868552988831986" lon="10.062947371387514"><ele>67.0</ele><time>2026-04-18T14:37:38.998Z</time></trkpt><trkpt lat="44.86851184898839" lon="10.063087119528976"><ele>67.0</ele><time>2026-04-18T14:37:41.998Z</time></trkpt><trkpt lat="44.86844498271663" lon="10.063179675260324"><ele>67.0</ele><time>2026-04-18T14:37:43.998Z</time></trkpt><trkpt lat="44.86837990707136" lon="10.063291854058544"><ele>67.0</ele><time>2026-04-18T14:37:45.998Z</time></trkpt><trkpt lat="44.868362175089864" lon="10.063404523008293"><ele>67.0</ele><time>2026-04-18T14:37:47.998Z</time></trkpt><trkpt lat="44.868327793721285" lon="10.063512543175"><ele>67.6</ele><time>2026-04-18T14:37:49.998Z</time></trkpt><trkpt lat="44.86830800744686" lon="10.063641133741104"><ele>68.2</ele><time>2026-04-18T14:37:52.998Z</time></trkpt><trkpt lat="44.86829541374147" lon="10.063739626210504"><ele>68.8</ele><time>2026-04-18T14:37:55Z</time></trkpt><trkpt lat="44.8682775765339" lon="10.063851266503363"><ele>69.4</ele><time>2026-04-18T14:37:57Z</time></trkpt><trkpt lat="44.86826532049988" lon="10.064006406510684"><ele>70.0</ele><time>2026-04-18T14:37:59Z</time></trkpt><trkpt lat="44.868248544307846" lon="10.064146105705378"><ele>70.0</ele><time>2026-04-18T14:38:01Z</time></trkpt><trkpt lat="44.86823573922631" lon="10.064299292590988"><ele>70.0</ele><time>2026-04-18T14:38:03Z</time></trkpt><trkpt lat="44.868215035323686" lon="10.064454075501752"><ele>70.0</ele><time>2026-04-18T14:38:05Z</time></trkpt><trkpt lat="44.86820244622733" lon="10.064557508714651"><ele>70.0</ele><time>2026-04-18T14:38:06Z</time></trkpt><trkpt lat="44.86819135383768" lon="10.064699208362384"><ele>70.0</ele><time>2026-04-18T14:38:08Z</time></trkpt><trkpt lat="44.86818030694339" lon="10.064852129615428"><ele>70.0</ele><time>2026-04-18T14:38:10Z</time></trkpt><trkpt lat="44.8681770785168" lon="10.064942252347148"><ele>70.0</ele><time>2026-04-18T14:38:11Z</time></trkpt><trkpt lat="44.868184234611775" lon="10.06510243733884"><ele>70.0</ele><time>2026-04-18T14:38:13Z</time></trkpt><trkpt lat="44.86818782995783" lon="10.065263418578658"><ele>70.0</ele><time>2026-04-18T14:38:15Z</time></trkpt><trkpt lat="44.86819546692651" lon="10.065420928211305"><ele>70.0</ele><time>2026-04-18T14:38:17Z</time></trkpt><trkpt lat="44.86819876611141" lon="10.06557611191361"><ele>69.66666666666666</ele><time>2026-04-18T14:38:19Z</time></trkpt><trkpt lat="44.8681975886689" lon="10.0657133754799"><ele>69.33333333333333</ele><time>2026-04-18T14:38:21Z</time></trkpt><trkpt lat="44.86819728864335" lon="10.065814009714034"><ele>69.0</ele><time>2026-04-18T14:38:23Z</time></trkpt><trkpt lat="44.86819654051459" lon="10.065918052181095"><ele>68.66666666666667</ele><time>2026-04-18T14:38:46.999Z</time></trkpt><trkpt lat="44.868237039100805" lon="10.065832136540184"><ele>68.33333333333334</ele><time>2026-04-18T14:38:53.999Z</time></trkpt><trkpt lat="44.86822268818432" lon="10.065742716959416"><ele>68.0</ele><time>2026-04-18T14:38:56.999Z</time></trkpt><trkpt lat="44.86843639601652" lon="10.065958398072185"><ele>68.2</ele><time>2026-04-18T14:39:03.999Z</time></trkpt><trkpt lat="44.86849137372608" lon="10.066067040912538"><ele>68.4</ele><time>2026-04-18T14:39:05.999Z</time></trkpt><trkpt lat="44.868550620212986" lon="10.066189199736613"><ele>68.60000000000001</ele><time>2026-04-18T14:39:07.999Z</time></trkpt><trkpt lat="44.86861252211674" lon="10.066326502503955"><ele>68.8</ele><time>2026-04-18T14:39:09.999Z</time></trkpt><trkpt lat="44.86867417584591" lon="10.066464417181018"><ele>69.0</ele><time>2026-04-18T14:39:11.999Z</time></trkpt><trkpt lat="44.86873406102592" lon="10.066587225930636"><ele>69.0</ele><time>2026-04-18T14:39:13.999Z</time></trkpt><trkpt lat="44.86879622179421" lon="10.066711302978408"><ele>69.0</ele><time>2026-04-18T14:39:15.999Z</time></trkpt><trkpt lat="44.86885612154259" lon="10.06685526536517"><ele>69.0</ele><time>2026-04-18T14:39:17.999Z</time></trkpt><trkpt lat="44.868922367469175" lon="10.066996732798398"><ele>69.0</ele><time>2026-04-18T14:39:19.999Z</time></trkpt><trkpt lat="44.86898848943956" lon="10.067127407642204"><ele>69.0</ele><time>2026-04-18T14:39:21.999Z</time></trkpt><trkpt lat="44.86906224964705" lon="10.067267725900173"><ele>69.0</ele><time>2026-04-18T14:39:23.999Z</time></trkpt><trkpt lat="44.86913062237505" lon="10.067417505438232"><ele>69.0</ele><time>2026-04-18T14:39:25.998Z</time></trkpt><trkpt lat="44.869164936058006" lon="10.06749209381349"><ele>69.0</ele><time>2026-04-18T14:39:26.998Z</time></trkpt><trkpt lat="44.869233898061964" lon="10.067641868114885"><ele>69.0</ele><time>2026-04-18T14:39:28.998Z</time></trkpt><trkpt lat="44.86926647527988" lon="10.067718371177639"><ele>69.0</ele><time>2026-04-18T14:39:29.998Z</time></trkpt><trkpt lat="44.86933139656694" lon="10.067875068560447"><ele>69.0</ele><time>2026-04-18T14:39:31.998Z</time></trkpt><trkpt lat="44.86939558736017" lon="10.068025834158336"><ele>69.0</ele><time>2026-04-18T14:39:33.998Z</time></trkpt><trkpt lat="44.869425893701035" lon="10.068106357709352"><ele>69.0</ele><time>2026-04-18T14:39:34.998Z</time></trkpt><trkpt lat="44.8694571282657" lon="10.06818380612573"><ele>69.0</ele><time>2026-04-18T14:39:35.998Z</time></trkpt><trkpt lat="44.869518482589704" lon="10.068338040676178"><ele>68.71428571428572</ele><time>2026-04-18T14:39:37.998Z</time></trkpt><trkpt lat="44.8695500534159" lon="10.068415125000026"><ele>68.42857142857143</ele><time>2026-04-18T14:39:38.998Z</time></trkpt><trkpt lat="44.86961062975842" lon="10.068571131638969"><ele>68.14285714285714</ele><time>2026-04-18T14:39:40.998Z</time></trkpt><trkpt lat="44.869642052023316" lon="10.068653057447207"><ele>67.85714285714286</ele><time>2026-04-18T14:39:41.998Z</time></trkpt><trkpt lat="44.86967071273102" lon="10.068733910147724"><ele>67.57142857142857</ele><time>2026-04-18T14:39:42.998Z</time></trkpt><trkpt lat="44.86969981031312" lon="10.06881562156603"><ele>67.28571428571429</ele><time>2026-04-18T14:39:43.998Z</time></trkpt><trkpt lat="44.86970700708642" lon="10.068906181896123"><ele>67.0</ele><time>2026-04-18T14:39:44.998Z</time></trkpt><trkpt lat="44.869760691851475" lon="10.068980744456022"><ele>67.0</ele><time>2026-04-18T14:39:45.998Z</time></trkpt><trkpt lat="44.869795048620425" lon="10.069062148304905"><ele>67.0</ele><time>2026-04-18T14:39:46.998Z</time></trkpt><trkpt lat="44.8698332326598" lon="10.069138693801005"><ele>67.0</ele><time>2026-04-18T14:39:47.998Z</time></trkpt><trkpt lat="44.869869671524455" lon="10.069216526819607"><ele>67.0</ele><time>2026-04-18T14:39:48.998Z</time></trkpt><trkpt lat="44.8699107237818" lon="10.069288829252935"><ele>67.0</ele><time>2026-04-18T14:39:49.998Z</time></trkpt><trkpt lat="44.86995199360906" lon="10.06935774017054"><ele>67.0</ele><time>2026-04-18T14:39:50.998Z</time></trkpt><trkpt lat="44.86999631024661" lon="10.069430416637728"><ele>67.0</ele><time>2026-04-18T14:39:51.998Z</time></trkpt><trkpt lat="44.870070964460766" lon="10.069577636819396"><ele>66.83333333333333</ele><time>2026-04-18T14:39:53.998Z</time></trkpt><trkpt lat="44.87011405852259" lon="10.069643752524668"><ele>66.66666666666666</ele><time>2026-04-18T14:39:54.998Z</time></trkpt><trkpt lat="44.870161420318084" lon="10.069715044672108"><ele>66.5</ele><time>2026-04-18T14:39:55.998Z</time></trkpt><trkpt lat="44.87025877724141" lon="10.069830841131658"><ele>66.33333333333333</ele><time>2026-04-18T14:39:57.998Z</time></trkpt><trkpt lat="44.87030451439474" lon="10.069900544605256"><ele>66.16666666666667</ele><time>2026-04-18T14:39:59Z</time></trkpt><trkpt lat="44.87035305506372" lon="10.069968995461366"><ele>66.0</ele><time>2026-04-18T14:40:00Z</time></trkpt><trkpt lat="44.87040246197204" lon="10.070042449630073"><ele>66.0</ele><time>2026-04-18T14:40:01Z</time></trkpt><trkpt lat="44.870448780853145" lon="10.070117102385279"><ele>66.0</ele><time>2026-04-18T14:40:02Z</time></trkpt><trkpt lat="44.870496488307296" lon="10.070191152237555"><ele>66.0</ele><time>2026-04-18T14:40:03Z</time></trkpt><trkpt lat="44.87054563115089" lon="10.07026353228506"><ele>66.0</ele><time>2026-04-18T14:40:04Z</time></trkpt><trkpt lat="44.87059259630221" lon="10.070338670476266"><ele>66.0</ele><time>2026-04-18T14:40:05Z</time></trkpt><trkpt lat="44.87064231341485" lon="10.07041420740517"><ele>66.0</ele><time>2026-04-18T14:40:06Z</time></trkpt><trkpt lat="44.87068956949986" lon="10.070488940378555"><ele>66.0</ele><time>2026-04-18T14:40:07Z</time></trkpt><trkpt lat="44.87073047264189" lon="10.070560945245274"><ele>66.0</ele><time>2026-04-18T14:40:08Z</time></trkpt><trkpt lat="44.87076928334821" lon="10.070640298522669"><ele>66.0</ele><time>2026-04-18T14:40:09Z</time></trkpt><trkpt lat="44.87080451389935" lon="10.070715637237594"><ele>66.0</ele><time>2026-04-18T14:40:10Z</time></trkpt><trkpt lat="44.87088253166778" lon="10.070867157393499"><ele>66.0</ele><time>2026-04-18T14:40:12Z</time></trkpt><trkpt lat="44.87091107734339" lon="10.070956962166878"><ele>66.0</ele><time>2026-04-18T14:40:13Z</time></trkpt><trkpt lat="44.870949391801126" lon="10.071034111550022"><ele>66.0</ele><time>2026-04-18T14:40:14Z</time></trkpt><trkpt lat="44.87099767150086" lon="10.071093046858138"><ele>65.5</ele><time>2026-04-18T14:40:15Z</time></trkpt><trkpt lat="44.87103792256722" lon="10.071171645089231"><ele>65.0</ele><time>2026-04-18T14:40:16Z</time></trkpt><trkpt lat="44.871075641716416" lon="10.071248009786974"><ele>64.5</ele><time>2026-04-18T14:40:17Z</time></trkpt><trkpt lat="44.87109953150192" lon="10.071336430469964"><ele>64.0</ele><time>2026-04-18T14:40:18Z</time></trkpt><trkpt lat="44.87113592907577" lon="10.071409720047411"><ele>63.5</ele><time>2026-04-18T14:40:19Z</time></trkpt><trkpt lat="44.871203165748376" lon="10.071545107001613"><ele>63.0</ele><time>2026-04-18T14:40:21Z</time></trkpt><trkpt lat="44.871267369841014" lon="10.071675808449795"><ele>63.0</ele><time>2026-04-18T14:40:23Z</time></trkpt><trkpt lat="44.87130255453467" lon="10.071749523083753"><ele>63.0</ele><time>2026-04-18T14:40:24Z</time></trkpt><trkpt lat="44.87133725235859" lon="10.071823835743137"><ele>63.0</ele><time>2026-04-18T14:40:25Z</time></trkpt><trkpt lat="44.87137311679512" lon="10.071901449807333"><ele>63.0</ele><time>2026-04-18T14:40:26Z</time></trkpt><trkpt lat="44.87140939707382" lon="10.071979666501736"><ele>63.0</ele><time>2026-04-18T14:40:26.999Z</time></trkpt><trkpt lat="44.871453559609726" lon="10.072072563177043"><ele>63.0</ele><time>2026-04-18T14:40:27.999Z</time></trkpt><trkpt lat="44.871503416517164" lon="10.072158584184548"><ele>63.0</ele><time>2026-04-18T14:40:28.999Z</time></trkpt><trkpt lat="44.87155602983909" lon="10.072281328202893"><ele>63.0</ele><time>2026-04-18T14:40:30.999Z</time></trkpt><trkpt lat="44.871617688385484" lon="10.072399253301272"><ele>63.0</ele><time>2026-04-18T14:40:32.999Z</time></trkpt><trkpt lat="44.87166777647154" lon="10.072535278262782"><ele>63.0</ele><time>2026-04-18T14:40:34.999Z</time></trkpt><trkpt lat="44.87171596057654" lon="10.072680831626483"><ele>63.0</ele><time>2026-04-18T14:40:36.999Z</time></trkpt><trkpt lat="44.87171871303077" lon="10.072822997522207"><ele>63.0</ele><time>2026-04-18T14:40:38.999Z</time></trkpt><trkpt lat="44.87170845407845" lon="10.07299221472846"><ele>63.2</ele><time>2026-04-18T14:40:40.999Z</time></trkpt><trkpt lat="44.871772458727726" lon="10.07320297649778"><ele>63.4</ele><time>2026-04-18T14:40:42.999Z</time></trkpt><trkpt lat="44.871825976057714" lon="10.073294061477707"><ele>63.60000000000001</ele><time>2026-04-18T14:40:43.999Z</time></trkpt><trkpt lat="44.87188604037454" lon="10.073367829925822"><ele>63.800000000000004</ele><time>2026-04-18T14:40:44.999Z</time></trkpt><trkpt lat="44.87195520684171" lon="10.07342469756929"><ele>64.0</ele><time>2026-04-18T14:40:45.999Z</time></trkpt><trkpt lat="44.87202208468749" lon="10.073475841268474"><ele>63.99999999999999</ele><time>2026-04-18T14:40:46.999Z</time></trkpt><trkpt lat="44.872088029892026" lon="10.073521504534146"><ele>64.0</ele><time>2026-04-18T14:40:47.999Z</time></trkpt><trkpt lat="44.87215736945567" lon="10.073562315205187"><ele>64.0</ele><time>2026-04-18T14:40:48.999Z</time></trkpt><trkpt lat="44.87222846652655" lon="10.073594388468937"><ele>64.0</ele><time>2026-04-18T14:40:49.999Z</time></trkpt><trkpt lat="44.87231142484453" lon="10.073549560094863"><ele>63.99999999999999</ele><time>2026-04-18T14:40:50.999Z</time></trkpt><trkpt lat="44.87237406546312" lon="10.07360120298293"><ele>64.0</ele><time>2026-04-18T14:40:51.999Z</time></trkpt><trkpt lat="44.87244010626911" lon="10.073639952691533"><ele>64.0</ele><time>2026-04-18T14:40:52.999Z</time></trkpt><trkpt lat="44.87250500030174" lon="10.073664874648289"><ele>63.99999999999999</ele><time>2026-04-18T14:40:53.999Z</time></trkpt><trkpt lat="44.872569070493036" lon="10.0737074358316"><ele>64.0</ele><time>2026-04-18T14:40:54.999Z</time></trkpt><trkpt lat="44.87262704865212" lon="10.073764329043723"><ele>64.0</ele><time>2026-04-18T14:40:55.999Z</time></trkpt><trkpt lat="44.87268014654337" lon="10.073825903229755"><ele>63.99999999999999</ele><time>2026-04-18T14:40:56.999Z</time></trkpt><trkpt lat="44.87267097759417" lon="10.073952996434778"><ele>64.0</ele><time>2026-04-18T14:40:57.999Z</time></trkpt><trkpt lat="44.872707301676876" lon="10.074032090181637"><ele>64.0</ele><time>2026-04-18T14:40:58.999Z</time></trkpt><trkpt lat="44.87274150164545" lon="10.074115143274023"><ele>64.28571428571428</ele><time>2026-04-18T14:40:59.999Z</time></trkpt><trkpt lat="44.872775383229815" lon="10.074200341510698"><ele>64.57142857142857</ele><time>2026-04-18T14:41:00.999Z</time></trkpt><trkpt lat="44.87280809382248" lon="10.074282595232937"><ele>64.85714285714286</ele><time>2026-04-18T14:41:01.999Z</time></trkpt><trkpt lat="44.872841186855865" lon="10.074365810600398"><ele>65.14285714285714</ele><time>2026-04-18T14:41:02.999Z</time></trkpt><trkpt lat="44.872875791742494" lon="10.074447379852543"><ele>65.42857142857143</ele><time>2026-04-18T14:41:03.999Z</time></trkpt><trkpt lat="44.87292371172252" lon="10.074526894577367"><ele>65.71428571428571</ele><time>2026-04-18T14:41:04.999Z</time></trkpt><trkpt lat="44.872978794953546" lon="10.074587333681983"><ele>66.0</ele><time>2026-04-18T14:41:05.999Z</time></trkpt><trkpt lat="44.87306683487844" lon="10.074593854270624"><ele>66.0</ele><time>2026-04-18T14:41:06.999Z</time></trkpt><trkpt lat="44.87314193090803" lon="10.074526631736642"><ele>66.0</ele><time>2026-04-18T14:41:07.999Z</time></trkpt><trkpt lat="44.8731648057608" lon="10.074403364834073"><ele>66.0</ele><time>2026-04-18T14:41:08.999Z</time></trkpt><trkpt lat="44.87319440156425" lon="10.07431453586386"><ele>66.0</ele><time>2026-04-18T14:41:09.999Z</time></trkpt><trkpt lat="44.87323031960476" lon="10.074239972484163"><ele>66.0</ele><time>2026-04-18T14:41:10.999Z</time></trkpt><trkpt lat="44.87327063036813" lon="10.074171322289013"><ele>66.0</ele><time>2026-04-18T14:41:11.999Z</time></trkpt><trkpt lat="44.87331014878369" lon="10.074094627840566"><ele>66.0</ele><time>2026-04-18T14:41:12.999Z</time></trkpt><trkpt lat="44.873347948869345" lon="10.07402302314997"><ele>66.0</ele><time>2026-04-18T14:41:13.999Z</time></trkpt><trkpt lat="44.873422904886205" lon="10.073877714969361"><ele>66.0</ele><time>2026-04-18T14:41:15.999Z</time></trkpt><trkpt lat="44.87346251615468" lon="10.073803412181569"><ele>66.0</ele><time>2026-04-18T14:41:16.999Z</time></trkpt><trkpt lat="44.873499182054644" lon="10.073725769126483"><ele>66.0</ele><time>2026-04-18T14:41:17.999Z</time></trkpt><trkpt lat="44.87353544175085" lon="10.073648711950934"><ele>66.0</ele><time>2026-04-18T14:41:18.999Z</time></trkpt><trkpt lat="44.873569095615515" lon="10.07357056974803"><ele>66.0</ele><time>2026-04-18T14:41:19.999Z</time></trkpt><trkpt lat="44.87360920050394" lon="10.073494767868667"><ele>66.0</ele><time>2026-04-18T14:41:20.999Z</time></trkpt><trkpt lat="44.873645806722294" lon="10.073418676843513"><ele>66.0</ele><time>2026-04-18T14:41:21.999Z</time></trkpt><trkpt lat="44.873680175193876" lon="10.073342682026432"><ele>66.0</ele><time>2026-04-18T14:41:22.999Z</time></trkpt><trkpt lat="44.87371819247096" lon="10.073264105058536"><ele>66.0</ele><time>2026-04-18T14:41:23.999Z</time></trkpt><trkpt lat="44.873761052309206" lon="10.07318222359501"><ele>66.0</ele><time>2026-04-18T14:41:24.999Z</time></trkpt><trkpt lat="44.87379868912949" lon="10.073108491645556"><ele>66.0</ele><time>2026-04-18T14:41:25.999Z</time></trkpt><trkpt lat="44.87383785145832" lon="10.073029481794505"><ele>66.0</ele><time>2026-04-18T14:41:26.998Z</time></trkpt><trkpt lat="44.87387793442063" lon="10.07295056084621"><ele>66.0</ele><time>2026-04-18T14:41:27.998Z</time></trkpt><trkpt lat="44.873918241297375" lon="10.072872948543397"><ele>66.0</ele><time>2026-04-18T14:41:28.998Z</time></trkpt><trkpt lat="44.87395712799208" lon="10.07279407567179"><ele>66.0</ele><time>2026-04-18T14:41:29.998Z</time></trkpt><trkpt lat="44.87399216956606" lon="10.072716341161941"><ele>66.0</ele><time>2026-04-18T14:41:30.998Z</time></trkpt><trkpt lat="44.874015632201825" lon="10.07263179555451"><ele>66.0</ele><time>2026-04-18T14:41:31.998Z</time></trkpt><trkpt lat="44.87402421646797" lon="10.072536681666943"><ele>66.0</ele><time>2026-04-18T14:41:32.998Z</time></trkpt><trkpt lat="44.87403850629546" lon="10.072436644728263"><ele>66.0</ele><time>2026-04-18T14:41:33.998Z</time></trkpt><trkpt lat="44.87406178668181" lon="10.072336722820848"><ele>66.0</ele><time>2026-04-18T14:41:34.998Z</time></trkpt><trkpt lat="44.874078958680194" lon="10.072241288434837"><ele>66.0</ele><time>2026-04-18T14:41:35.998Z</time></trkpt><trkpt lat="44.87409524456826" lon="10.0721497494633"><ele>66.0</ele><time>2026-04-18T14:41:36.998Z</time></trkpt><trkpt lat="44.87411063516115" lon="10.072056986325247"><ele>66.0</ele><time>2026-04-18T14:41:37.998Z</time></trkpt><trkpt lat="44.87412277933657" lon="10.071960841801669"><ele>66.0</ele><time>2026-04-18T14:41:38.998Z</time></trkpt><trkpt lat="44.8741367175145" lon="10.071863021833805"><ele>66.0</ele><time>2026-04-18T14:41:39.998Z</time></trkpt><trkpt lat="44.87414757890972" lon="10.071764865950259"><ele>66.0</ele><time>2026-04-18T14:41:40.998Z</time></trkpt><trkpt lat="44.87416116985127" lon="10.071666884155247"><ele>66.0</ele><time>2026-04-18T14:41:41.998Z</time></trkpt><trkpt lat="44.87418290193041" lon="10.071569378517673"><ele>66.0</ele><time>2026-04-18T14:41:42.998Z</time></trkpt><trkpt lat="44.874201060403266" lon="10.071473212535452"><ele>66.0</ele><time>2026-04-18T14:41:43.998Z</time></trkpt><trkpt lat="44.87421794210362" lon="10.071376743925196"><ele>66.0</ele><time>2026-04-18T14:41:44.998Z</time></trkpt><trkpt lat="44.874229828647884" lon="10.071278363081774"><ele>66.0</ele><time>2026-04-18T14:41:45.998Z</time></trkpt><trkpt lat="44.87424240895896" lon="10.07118142054731"><ele>66.0</ele><time>2026-04-18T14:41:46.998Z</time></trkpt><trkpt lat="44.874257272298934" lon="10.071084246432385"><ele>66.0</ele><time>2026-04-18T14:41:47.998Z</time></trkpt><trkpt lat="44.874274059696305" lon="10.070988291619592"><ele>66.0</ele><time>2026-04-18T14:41:48.998Z</time></trkpt><trkpt lat="44.87428538950032" lon="10.07089723149826"><ele>66.0</ele><time>2026-04-18T14:41:49.998Z</time></trkpt><trkpt lat="44.87429939605153" lon="10.070799385489023"><ele>66.0</ele><time>2026-04-18T14:41:50.998Z</time></trkpt><trkpt lat="44.87431362711668" lon="10.070708013450407"><ele>66.0</ele><time>2026-04-18T14:41:51.998Z</time></trkpt><trkpt lat="44.874338164555034" lon="10.070537121000038"><ele>66.0</ele><time>2026-04-18T14:41:53.998Z</time></trkpt><trkpt lat="44.874359360677815" lon="10.070367788444742"><ele>66.0</ele><time>2026-04-18T14:41:55.998Z</time></trkpt><trkpt lat="44.87439972687643" lon="10.070214738939576"><ele>65.8</ele><time>2026-04-18T14:41:57.998Z</time></trkpt><trkpt lat="44.87444106179268" lon="10.070074163326444"><ele>65.6</ele><time>2026-04-18T14:41:59.998Z</time></trkpt><trkpt lat="44.874484571112" lon="10.069938455433384"><ele>65.4</ele><time>2026-04-18T14:42:01.998Z</time></trkpt><trkpt lat="44.87452602736194" lon="10.069825565249554"><ele>65.2</ele><time>2026-04-18T14:42:03.998Z</time></trkpt><trkpt lat="44.87455809267445" lon="10.069713148654827"><ele>65.0</ele><time>2026-04-18T14:42:06Z</time></trkpt><trkpt lat="44.87464959970571" lon="10.069800689547614"><ele>65.0</ele><time>2026-04-18T14:42:09Z</time></trkpt><trkpt lat="44.87471564348806" lon="10.06989463297164"><ele>65.0</ele><time>2026-04-18T14:42:11Z</time></trkpt><trkpt lat="44.874779557244175" lon="10.070009608878804"><ele>65.0</ele><time>2026-04-18T14:42:13Z</time></trkpt><trkpt lat="44.87484328320011" lon="10.07015643420088"><ele>65.0</ele><time>2026-04-18T14:42:15Z</time></trkpt><trkpt lat="44.87490309133729" lon="10.070296812621873"><ele>65.0</ele><time>2026-04-18T14:42:17Z</time></trkpt><trkpt lat="44.874941513768995" lon="10.070376581490155"><ele>65.00000000000001</ele><time>2026-04-18T14:42:18Z</time></trkpt><trkpt lat="44.874985676676765" lon="10.070449604312586"><ele>65.0</ele><time>2026-04-18T14:42:19Z</time></trkpt><trkpt lat="44.875046281936925" lon="10.070499938059868"><ele>65.0</ele><time>2026-04-18T14:42:20Z</time></trkpt><trkpt lat="44.8750976470637" lon="10.070558688553202"><ele>65.0</ele><time>2026-04-18T14:42:21Z</time></trkpt><trkpt lat="44.875148705943275" lon="10.070614067181861"><ele>65.0</ele><time>2026-04-18T14:42:22Z</time></trkpt><trkpt lat="44.87519932839237" lon="10.070667405741247"><ele>65.00000000000001</ele><time>2026-04-18T14:42:23Z</time></trkpt><trkpt lat="44.875250522484556" lon="10.07072331319953"><ele>65.0</ele><time>2026-04-18T14:42:24Z</time></trkpt><trkpt lat="44.87529623183333" lon="10.070794005092155"><ele>65.00000000000001</ele><time>2026-04-18T14:42:25Z</time></trkpt><trkpt lat="44.87535762978463" lon="10.070836425278772"><ele>65.0</ele><time>2026-04-18T14:42:26Z</time></trkpt><trkpt lat="44.875410634804346" lon="10.070894673712775"><ele>65.0</ele><time>2026-04-18T14:42:27Z</time></trkpt><trkpt lat="44.87546715765844" lon="10.070959755796775"><ele>65.0</ele><time>2026-04-18T14:42:28Z</time></trkpt><trkpt lat="44.87552324982018" lon="10.071015543906253"><ele>65.0</ele><time>2026-04-18T14:42:28.999Z</time></trkpt><trkpt lat="44.87558003417613" lon="10.071068380874769"><ele>65.00000000000001</ele><time>2026-04-18T14:42:29.999Z</time></trkpt><trkpt lat="44.87564059058909" lon="10.071130998723667"><ele>65.0</ele><time>2026-04-18T14:42:30.999Z</time></trkpt><trkpt lat="44.87570122573177" lon="10.071194734570032"><ele>65.0</ele><time>2026-04-18T14:42:31.999Z</time></trkpt><trkpt lat="44.875761631765016" lon="10.07125854022683"><ele>65.0</ele><time>2026-04-18T14:42:32.999Z</time></trkpt><trkpt lat="44.87582277710959" lon="10.071323573460374"><ele>65.0</ele><time>2026-04-18T14:42:33.999Z</time></trkpt><trkpt lat="44.87587597173047" lon="10.071408140042974"><ele>65.0</ele><time>2026-04-18T14:42:34.999Z</time></trkpt><trkpt lat="44.875937188423535" lon="10.071472703699154"><ele>65.0</ele><time>2026-04-18T14:42:35.999Z</time></trkpt><trkpt lat="44.87599879477075" lon="10.071537644033313"><ele>65.0</ele><time>2026-04-18T14:42:36.999Z</time></trkpt><trkpt lat="44.87605957984795" lon="10.071601718575641"><ele>64.83333333333334</ele><time>2026-04-18T14:42:37.999Z</time></trkpt><trkpt lat="44.87612156294361" lon="10.071667055994235"><ele>64.66666666666667</ele><time>2026-04-18T14:42:38.999Z</time></trkpt><trkpt lat="44.87618381237253" lon="10.071732674164517"><ele>64.5</ele><time>2026-04-18T14:42:39.999Z</time></trkpt><trkpt lat="44.87624767870256" lon="10.071799996749702"><ele>64.33333333333333</ele><time>2026-04-18T14:42:40.999Z</time></trkpt><trkpt lat="44.87631059697706" lon="10.071866319935834"><ele>64.16666666666666</ele><time>2026-04-18T14:42:41.999Z</time></trkpt><trkpt lat="44.87637676422016" lon="10.071936067966373"><ele>64.0</ele><time>2026-04-18T14:42:42.999Z</time></trkpt><trkpt lat="44.876438732092055" lon="10.072001389321168"><ele>63.99999999999999</ele><time>2026-04-18T14:42:43.999Z</time></trkpt><trkpt lat="44.876502269146535" lon="10.072068834644275"><ele>64.0</ele><time>2026-04-18T14:42:44.999Z</time></trkpt><trkpt lat="44.876565315055" lon="10.072136101887251"><ele>64.0</ele><time>2026-04-18T14:42:45.999Z</time></trkpt><trkpt lat="44.87662885452307" lon="10.072203895743078"><ele>64.0</ele><time>2026-04-18T14:42:46.999Z</time></trkpt><trkpt lat="44.876689267881204" lon="10.072268354161086"><ele>63.99999999999999</ele><time>2026-04-18T14:42:47.999Z</time></trkpt><trkpt lat="44.87675158901848" lon="10.07233749036078"><ele>64.0</ele><time>2026-04-18T14:42:48.999Z</time></trkpt><trkpt lat="44.876816116176656" lon="10.072406242100605"><ele>63.83333333333333</ele><time>2026-04-18T14:42:49.999Z</time></trkpt><trkpt lat="44.87688854528698" lon="10.072460113442025"><ele>63.666666666666664</ele><time>2026-04-18T14:42:50.999Z</time></trkpt><trkpt lat="44.876971545239066" lon="10.072463585447826"><ele>63.5</ele><time>2026-04-18T14:42:51.999Z</time></trkpt><trkpt lat="44.877050903471975" lon="10.07247711127536"><ele>63.33333333333333</ele><time>2026-04-18T14:42:52.999Z</time></trkpt><trkpt lat="44.87712173630378" lon="10.07240367716833"><ele>63.166666666666664</ele><time>2026-04-18T14:42:53.999Z</time></trkpt><trkpt lat="44.87717971628496" lon="10.072329052036379"><ele>63.0</ele><time>2026-04-18T14:42:54.999Z</time></trkpt><trkpt lat="44.87722151661728" lon="10.07225081704651"><ele>63.0</ele><time>2026-04-18T14:42:55.999Z</time></trkpt><trkpt lat="44.87725686626307" lon="10.072173250267111"><ele>63.0</ele><time>2026-04-18T14:42:56.999Z</time></trkpt><trkpt lat="44.87732805403122" lon="10.072031150904397"><ele>63.0</ele><time>2026-04-18T14:42:58.999Z</time></trkpt><trkpt lat="44.87739125559169" lon="10.07189703349958"><ele>63.0</ele><time>2026-04-18T14:43:00.999Z</time></trkpt><trkpt lat="44.8774635202301" lon="10.071777895657938"><ele>63.0</ele><time>2026-04-18T14:43:02.999Z</time></trkpt><trkpt lat="44.87752742669116" lon="10.07165520131092"><ele>63.25</ele><time>2026-04-18T14:43:04.999Z</time></trkpt><trkpt lat="44.87759590740086" lon="10.071528253731396"><ele>63.5</ele><time>2026-04-18T14:43:06.999Z</time></trkpt><trkpt lat="44.87765784393168" lon="10.071402956153264"><ele>63.75</ele><time>2026-04-18T14:43:08.999Z</time></trkpt><trkpt lat="44.8777221828036" lon="10.071268757589383"><ele>64.0</ele><time>2026-04-18T14:43:10.999Z</time></trkpt><trkpt lat="44.877794564223045" lon="10.071132026059287"><ele>64.2</ele><time>2026-04-18T14:43:12.999Z</time></trkpt><trkpt lat="44.87785948120987" lon="10.071001273647692"><ele>64.4</ele><time>2026-04-18T14:43:14.999Z</time></trkpt><trkpt lat="44.87793421060019" lon="10.07086138043265"><ele>64.6</ele><time>2026-04-18T14:43:16.999Z</time></trkpt><trkpt lat="44.87797236584167" lon="10.070788656721469"><ele>64.8</ele><time>2026-04-18T14:43:17.999Z</time></trkpt><trkpt lat="44.878047849095516" lon="10.070649167119146"><ele>65.0</ele><time>2026-04-18T14:43:19.999Z</time></trkpt><trkpt lat="44.87808563122251" lon="10.070577330094272"><ele>65.0</ele><time>2026-04-18T14:43:20.999Z</time></trkpt><trkpt lat="44.87816262047292" lon="10.070434786093484"><ele>65.0</ele><time>2026-04-18T14:43:22.999Z</time></trkpt><trkpt lat="44.87823444510915" lon="10.070294208794671"><ele>65.0</ele><time>2026-04-18T14:43:24.999Z</time></trkpt><trkpt lat="44.87827465416804" lon="10.070219736727925"><ele>65.0</ele><time>2026-04-18T14:43:25.999Z</time></trkpt><trkpt lat="44.878351970548" lon="10.070078702788834"><ele>65.0</ele><time>2026-04-18T14:43:27.999Z</time></trkpt><trkpt lat="44.8783884702337" lon="10.070004741917437"><ele>64.85714285714286</ele><time>2026-04-18T14:43:28.999Z</time></trkpt><trkpt lat="44.878425813623174" lon="10.069930808146042"><ele>64.71428571428572</ele><time>2026-04-18T14:43:29.999Z</time></trkpt><trkpt lat="44.87846598726647" lon="10.069860206177088"><ele>64.57142857142857</ele><time>2026-04-18T14:43:30.999Z</time></trkpt><trkpt lat="44.87850181465512" lon="10.069786933174774"><ele>64.42857142857143</ele><time>2026-04-18T14:43:31.998Z</time></trkpt><trkpt lat="44.878542786694545" lon="10.069712968286721"><ele>64.28571428571428</ele><time>2026-04-18T14:43:32.998Z</time></trkpt><trkpt lat="44.878579669113954" lon="10.069636739379975"><ele>64.14285714285714</ele><time>2026-04-18T14:43:33.998Z</time></trkpt><trkpt lat="44.87861809306112" lon="10.069560229713735"><ele>64.0</ele><time>2026-04-18T14:43:34.998Z</time></trkpt><trkpt lat="44.87865647421684" lon="10.069483170011933"><ele>63.83333333333333</ele><time>2026-04-18T14:43:35.998Z</time></trkpt><trkpt lat="44.878700731083406" lon="10.069407392921637"><ele>63.666666666666664</ele><time>2026-04-18T14:43:36.998Z</time></trkpt><trkpt lat="44.87874153025432" lon="10.069328639750402"><ele>63.5</ele><time>2026-04-18T14:43:37.998Z</time></trkpt><trkpt lat="44.87878541543489" lon="10.069244853425213"><ele>63.33333333333333</ele><time>2026-04-18T14:43:38.998Z</time></trkpt><trkpt lat="44.878831414890065" lon="10.069155970134068"><ele>63.166666666666664</ele><time>2026-04-18T14:43:39.998Z</time></trkpt><trkpt lat="44.87887787887978" lon="10.06905869043508"><ele>63.0</ele><time>2026-04-18T14:43:40.998Z</time></trkpt><trkpt lat="44.87892351289329" lon="10.068953223705796"><ele>63.0</ele><time>2026-04-18T14:43:41.998Z</time></trkpt><trkpt lat="44.87896564427559" lon="10.068837242739455"><ele>63.0</ele><time>2026-04-18T14:43:42.998Z</time></trkpt><trkpt lat="44.87900112269583" lon="10.068714164480554"><ele>63.0</ele><time>2026-04-18T14:43:43.998Z</time></trkpt><trkpt lat="44.87903492799633" lon="10.068585087527351"><ele>63.0</ele><time>2026-04-18T14:43:44.998Z</time></trkpt><trkpt lat="44.87906568979443" lon="10.068451189439623"><ele>63.0</ele><time>2026-04-18T14:43:45.998Z</time></trkpt><trkpt lat="44.879088607729834" lon="10.068312878990978"><ele>63.2</ele><time>2026-04-18T14:43:46.998Z</time></trkpt><trkpt lat="44.87910696055162" lon="10.068173874129048"><ele>63.4</ele><time>2026-04-18T14:43:47.998Z</time></trkpt><trkpt lat="44.87912060440938" lon="10.068036977424363"><ele>63.60000000000001</ele><time>2026-04-18T14:43:48.998Z</time></trkpt><trkpt lat="44.87912956353101" lon="10.067907034065918"><ele>63.800000000000004</ele><time>2026-04-18T14:43:49.998Z</time></trkpt><trkpt lat="44.879143326244595" lon="10.067779906391042"><ele>64.0</ele><time>2026-04-18T14:43:50.998Z</time></trkpt><trkpt lat="44.87915609615392" lon="10.067654835895427"><ele>63.99999999999999</ele><time>2026-04-18T14:43:51.998Z</time></trkpt><trkpt lat="44.879170533655305" lon="10.067535119822706"><ele>64.0</ele><time>2026-04-18T14:43:52.998Z</time></trkpt><trkpt lat="44.87918452355996" lon="10.06741718013612"><ele>64.0</ele><time>2026-04-18T14:43:53.998Z</time></trkpt><trkpt lat="44.879210180493224" lon="10.06730118818579"><ele>64.0</ele><time>2026-04-18T14:43:54.998Z</time></trkpt><trkpt lat="44.879243812869525" lon="10.06718966949302"><ele>63.99999999999999</ele><time>2026-04-18T14:43:55.998Z</time></trkpt><trkpt lat="44.87927522050973" lon="10.067075974323624"><ele>64.0</ele><time>2026-04-18T14:43:56.998Z</time></trkpt><trkpt lat="44.87930665560532" lon="10.066963383332785"><ele>63.83333333333333</ele><time>2026-04-18T14:43:57.998Z</time></trkpt><trkpt lat="44.87933673706287" lon="10.066853434776371"><ele>63.666666666666664</ele><time>2026-04-18T14:43:58.998Z</time></trkpt><trkpt lat="44.87936423600477" lon="10.066742207533892"><ele>63.5</ele><time>2026-04-18T14:43:59.998Z</time></trkpt><trkpt lat="44.87938945560773" lon="10.066633067881423"><ele>63.33333333333333</ele><time>2026-04-18T14:44:00.998Z</time></trkpt><trkpt lat="44.879419188154074" lon="10.06652491097119"><ele>63.166666666666664</ele><time>2026-04-18T14:44:01.998Z</time></trkpt><trkpt lat="44.87945114931167" lon="10.0664221381008"><ele>63.0</ele><time>2026-04-18T14:44:02.998Z</time></trkpt><trkpt lat="44.879482870469126" lon="10.066317141549963"><ele>63.0</ele><time>2026-04-18T14:44:03.998Z</time></trkpt><trkpt lat="44.87951297509564" lon="10.06621322181933"><ele>63.0</ele><time>2026-04-18T14:44:04.998Z</time></trkpt><trkpt lat="44.879551055241215" lon="10.066113245804313"><ele>63.0</ele><time>2026-04-18T14:44:05.998Z</time></trkpt><trkpt lat="44.87958458177164" lon="10.06601363684603"><ele>63.0</ele><time>2026-04-18T14:44:06.998Z</time></trkpt><trkpt lat="44.87962454455629" lon="10.065912694775607"><ele>63.0</ele><time>2026-04-18T14:44:07.998Z</time></trkpt><trkpt lat="44.8796588787171" lon="10.065813657551448"><ele>63.0</ele><time>2026-04-18T14:44:08.998Z</time></trkpt><trkpt lat="44.87969297772418" lon="10.065711308392281"><ele>63.166666666666664</ele><time>2026-04-18T14:44:09.998Z</time></trkpt><trkpt lat="44.87972342126275" lon="10.065608906320456"><ele>63.33333333333333</ele><time>2026-04-18T14:44:11Z</time></trkpt><trkpt lat="44.87975659017025" lon="10.065508070214385"><ele>63.5</ele><time>2026-04-18T14:44:12Z</time></trkpt><trkpt lat="44.87978661600819" lon="10.065404883051297"><ele>63.666666666666664</ele><time>2026-04-18T14:44:13Z</time></trkpt><trkpt lat="44.879814565605635" lon="10.06530084852632"><ele>63.83333333333333</ele><time>2026-04-18T14:44:14Z</time></trkpt><trkpt lat="44.87984298473409" lon="10.065197776098806"><ele>64.0</ele><time>2026-04-18T14:44:15Z</time></trkpt><trkpt lat="44.87987099446072" lon="10.065094135627197"><ele>63.99999999999999</ele><time>2026-04-18T14:44:16Z</time></trkpt><trkpt lat="44.879899229028474" lon="10.064990053492574"><ele>64.0</ele><time>2026-04-18T14:44:17Z</time></trkpt><trkpt lat="44.87993197897089" lon="10.064882013260315"><ele>64.0</ele><time>2026-04-18T14:44:18Z</time></trkpt><trkpt lat="44.87995654634684" lon="10.064776821796132"><ele>64.0</ele><time>2026-04-18T14:44:19Z</time></trkpt><trkpt lat="44.87998574118516" lon="10.064671831630436"><ele>63.99999999999999</ele><time>2026-04-18T14:44:20Z</time></trkpt><trkpt lat="44.88001439432084" lon="10.064566800279136"><ele>64.0</ele><time>2026-04-18T14:44:21Z</time></trkpt><trkpt lat="44.88004155408748" lon="10.064460904276613"><ele>63.99999999999999</ele><time>2026-04-18T14:44:22Z</time></trkpt><trkpt lat="44.880069728387056" lon="10.064355887916758"><ele>64.0</ele><time>2026-04-18T14:44:23Z</time></trkpt><trkpt lat="44.880098006790504" lon="10.064249215349891"><ele>64.0</ele><time>2026-04-18T14:44:24Z</time></trkpt><trkpt lat="44.880128822056946" lon="10.06414217970228"><ele>64.0</ele><time>2026-04-18T14:44:25Z</time></trkpt><trkpt lat="44.880153167112475" lon="10.064033586604989"><ele>63.99999999999999</ele><time>2026-04-18T14:44:26Z</time></trkpt><trkpt lat="44.8801834364405" lon="10.063929824736672"><ele>64.0</ele><time>2026-04-18T14:44:27Z</time></trkpt><trkpt lat="44.88019656618446" lon="10.063815882223164"><ele>64.16666666666666</ele><time>2026-04-18T14:44:28Z</time></trkpt><trkpt lat="44.88022364633858" lon="10.063711193162328"><ele>64.33333333333333</ele><time>2026-04-18T14:44:29Z</time></trkpt><trkpt lat="44.88026317561632" lon="10.063611892577926"><ele>64.5</ele><time>2026-04-18T14:44:30Z</time></trkpt><trkpt lat="44.880287792810854" lon="10.063507482248246"><ele>64.66666666666667</ele><time>2026-04-18T14:44:31Z</time></trkpt><trkpt lat="44.88030979758799" lon="10.06340209495633"><ele>64.83333333333334</ele><time>2026-04-18T14:44:32Z</time></trkpt><trkpt lat="44.88033710797892" lon="10.063295261185376"><ele>65.0</ele><time>2026-04-18T14:44:33Z</time></trkpt><trkpt lat="44.88036220444283" lon="10.063189190285003"><ele>65.66666666666667</ele><time>2026-04-18T14:44:34Z</time></trkpt><trkpt lat="44.88038859917605" lon="10.063082082840747"><ele>66.33333333333334</ele><time>2026-04-18T14:44:35Z</time></trkpt><trkpt lat="44.880412940993274" lon="10.062976548378881"><ele>67.0</ele><time>2026-04-18T14:44:35.999Z</time></trkpt><trkpt lat="44.880439235794896" lon="10.062872084889554"><ele>67.66666666666667</ele><time>2026-04-18T14:44:36.999Z</time></trkpt><trkpt lat="44.880463014329024" lon="10.06276872926622"><ele>68.33333333333333</ele><time>2026-04-18T14:44:37.999Z</time></trkpt><trkpt lat="44.88048100858207" lon="10.062664052286367"><ele>69.0</ele><time>2026-04-18T14:44:38.999Z</time></trkpt><trkpt lat="44.880499606616986" lon="10.06255627308771"><ele>69.0</ele><time>2026-04-18T14:44:39.999Z</time></trkpt><trkpt lat="44.8805363512792" lon="10.062450855192962"><ele>69.0</ele><time>2026-04-18T14:44:40.999Z</time></trkpt><trkpt lat="44.88057623094391" lon="10.062343805064984"><ele>69.0</ele><time>2026-04-18T14:44:41.999Z</time></trkpt><trkpt lat="44.8806074614873" lon="10.06223671781215"><ele>69.0</ele><time>2026-04-18T14:44:42.999Z</time></trkpt><trkpt lat="44.880641537478056" lon="10.062131753582248"><ele>69.0</ele><time>2026-04-18T14:44:43.999Z</time></trkpt><trkpt lat="44.88069600910601" lon="10.06204396652561"><ele>69.0</ele><time>2026-04-18T14:44:44.999Z</time></trkpt><trkpt lat="44.88074793964511" lon="10.061970944173003"><ele>68.66666666666667</ele><time>2026-04-18T14:44:45.999Z</time></trkpt><trkpt lat="44.88078805253464" lon="10.061878081456245"><ele>68.33333333333333</ele><time>2026-04-18T14:44:46.999Z</time></trkpt><trkpt lat="44.88079334476856" lon="10.061753460571955"><ele>68.0</ele><time>2026-04-18T14:44:47.999Z</time></trkpt><trkpt lat="44.880792194691914" lon="10.061636257766267"><ele>67.66666666666666</ele><time>2026-04-18T14:44:48.999Z</time></trkpt><trkpt lat="44.88079427502452" lon="10.061522835371095"><ele>67.33333333333333</ele><time>2026-04-18T14:44:49.999Z</time></trkpt><trkpt lat="44.88080717034071" lon="10.061411621579921"><ele>67.0</ele><time>2026-04-18T14:44:50.999Z</time></trkpt><trkpt lat="44.880835749850306" lon="10.061304783503127"><ele>66.83333333333333</ele><time>2026-04-18T14:44:51.999Z</time></trkpt><trkpt lat="44.880870565566816" lon="10.061200976112897"><ele>66.66666666666666</ele><time>2026-04-18T14:44:52.999Z</time></trkpt><trkpt lat="44.88090746481658" lon="10.061092032919612"><ele>66.5</ele><time>2026-04-18T14:44:53.999Z</time></trkpt><trkpt lat="44.880934363531026" lon="10.060984017928833"><ele>66.33333333333333</ele><time>2026-04-18T14:44:54.999Z</time></trkpt><trkpt lat="44.880963692996325" lon="10.06087820978366"><ele>66.16666666666667</ele><time>2026-04-18T14:44:55.999Z</time></trkpt><trkpt lat="44.88098645996661" lon="10.06077485537851"><ele>66.0</ele><time>2026-04-18T14:44:56.999Z</time></trkpt><trkpt lat="44.88101479321384" lon="10.060666716942293"><ele>65.83333333333333</ele><time>2026-04-18T14:44:57.999Z</time></trkpt><trkpt lat="44.88104169628884" lon="10.060558883912273"><ele>65.66666666666667</ele><time>2026-04-18T14:44:58.999Z</time></trkpt><trkpt lat="44.881071876837474" lon="10.060453973884016"><ele>65.5</ele><time>2026-04-18T14:44:59.999Z</time></trkpt><trkpt lat="44.8811055402904" lon="10.060348212759758"><ele>65.33333333333334</ele><time>2026-04-18T14:45:00.999Z</time></trkpt><trkpt lat="44.88114079836983" lon="10.06024300956224"><ele>65.16666666666667</ele><time>2026-04-18T14:45:01.999Z</time></trkpt><trkpt lat="44.881173360172866" lon="10.060136869923769"><ele>65.0</ele><time>2026-04-18T14:45:02.999Z</time></trkpt><trkpt lat="44.881212043463506" lon="10.060028910523297"><ele>65.16666666666667</ele><time>2026-04-18T14:45:03.999Z</time></trkpt><trkpt lat="44.88124968044117" lon="10.059919729061184"><ele>65.33333333333334</ele><time>2026-04-18T14:45:04.999Z</time></trkpt><trkpt lat="44.88128625200769" lon="10.059811666794939"><ele>65.5</ele><time>2026-04-18T14:45:05.999Z</time></trkpt><trkpt lat="44.881325028997125" lon="10.059703577683644"><ele>65.66666666666667</ele><time>2026-04-18T14:45:06.999Z</time></trkpt><trkpt lat="44.88135875379355" lon="10.059593290612169"><ele>65.83333333333333</ele><time>2026-04-18T14:45:07.999Z</time></trkpt><trkpt lat="44.88139420682749" lon="10.05948482709821"><ele>66.0</ele><time>2026-04-18T14:45:08.999Z</time></trkpt><trkpt lat="44.88142780094107" lon="10.059373610360401"><ele>66.0</ele><time>2026-04-18T14:45:09.999Z</time></trkpt><trkpt lat="44.88146709260206" lon="10.059263521107482"><ele>66.0</ele><time>2026-04-18T14:45:10.999Z</time></trkpt><trkpt lat="44.88149926908194" lon="10.059154180492794"><ele>66.0</ele><time>2026-04-18T14:45:11.999Z</time></trkpt><trkpt lat="44.881534068880605" lon="10.059044412307067"><ele>66.0</ele><time>2026-04-18T14:45:12.999Z</time></trkpt><trkpt lat="44.88156994340187" lon="10.058936335967882"><ele>66.0</ele><time>2026-04-18T14:45:13.999Z</time></trkpt><trkpt lat="44.881612222004144" lon="10.058831041150283"><ele>66.0</ele><time>2026-04-18T14:45:14.999Z</time></trkpt><trkpt lat="44.88165165262509" lon="10.058718789302997"><ele>66.0</ele><time>2026-04-18T14:45:15.999Z</time></trkpt><trkpt lat="44.88168588502121" lon="10.058608389523235"><ele>66.0</ele><time>2026-04-18T14:45:16.999Z</time></trkpt><trkpt lat="44.88172168101485" lon="10.058496650475002"><ele>66.0</ele><time>2026-04-18T14:45:17.999Z</time></trkpt><trkpt lat="44.88175699335107" lon="10.058385764574563"><ele>66.0</ele><time>2026-04-18T14:45:18.999Z</time></trkpt><trkpt lat="44.88179514050921" lon="10.058275116160278"><ele>66.0</ele><time>2026-04-18T14:45:19.999Z</time></trkpt><trkpt lat="44.88183239208104" lon="10.058166075061433"><ele>66.0</ele><time>2026-04-18T14:45:20.999Z</time></trkpt><trkpt lat="44.88186478698576" lon="10.058056538582285"><ele>66.0</ele><time>2026-04-18T14:45:21.999Z</time></trkpt><trkpt lat="44.881898186758626" lon="10.05794536200772"><ele>66.0</ele><time>2026-04-18T14:45:22.999Z</time></trkpt><trkpt lat="44.881939014332985" lon="10.057836712284995"><ele>66.0</ele><time>2026-04-18T14:45:23.999Z</time></trkpt><trkpt lat="44.881980189235534" lon="10.057728265060772"><ele>66.0</ele><time>2026-04-18T14:45:24.999Z</time></trkpt><trkpt lat="44.88201593785308" lon="10.057622945754913"><ele>66.0</ele><time>2026-04-18T14:45:25.999Z</time></trkpt><trkpt lat="44.882053329604155" lon="10.057520694678816"><ele>66.0</ele><time>2026-04-18T14:45:26.999Z</time></trkpt><trkpt lat="44.882086692821645" lon="10.057418290214686"><ele>66.0</ele><time>2026-04-18T14:45:27.999Z</time></trkpt><trkpt lat="44.88211960237748" lon="10.057319988852445"><ele>66.0</ele><time>2026-04-18T14:45:28.999Z</time></trkpt><trkpt lat="44.88214786004161" lon="10.05723168841259"><ele>66.0</ele><time>2026-04-18T14:45:29.999Z</time></trkpt><trkpt lat="44.882186574780434" lon="10.057090543849938"><ele>66.0</ele><time>2026-04-18T14:45:31.999Z</time></trkpt><trkpt lat="44.88229726290365" lon="10.057157259485217"><ele>66.0</ele><time>2026-04-18T14:45:32.999Z</time></trkpt><trkpt lat="44.88236324236834" lon="10.057189737504068"><ele>66.0</ele><time>2026-04-18T14:45:33.999Z</time></trkpt><trkpt lat="44.88248636604196" lon="10.057250344387809"><ele>66.0</ele><time>2026-04-18T14:45:35.999Z</time></trkpt><trkpt lat="44.88255330192149" lon="10.057283332724303"><ele>66.0</ele><time>2026-04-18T14:45:36.999Z</time></trkpt><trkpt lat="44.88262013874682" lon="10.057316424042122"><ele>66.0</ele><time>2026-04-18T14:45:37.999Z</time></trkpt><trkpt lat="44.88268801387454" lon="10.057350029460727"><ele>66.0</ele><time>2026-04-18T14:45:38.999Z</time></trkpt><trkpt lat="44.882757548567355" lon="10.057384456494697"><ele>66.0</ele><time>2026-04-18T14:45:39.998Z</time></trkpt><trkpt lat="44.8828331198084" lon="10.057403890748184"><ele>66.0</ele><time>2026-04-18T14:45:40.998Z</time></trkpt><trkpt lat="44.88290546209736" lon="10.05744209685097"><ele>66.0</ele><time>2026-04-18T14:45:41.998Z</time></trkpt><trkpt lat="44.882981191624765" lon="10.057471517197822"><ele>65.66666666666667</ele><time>2026-04-18T14:45:42.998Z</time></trkpt><trkpt lat="44.88305541455028" lon="10.057506345472211"><ele>65.33333333333333</ele><time>2026-04-18T14:45:43.998Z</time></trkpt><trkpt lat="44.88313108107137" lon="10.057546682718206"><ele>65.0</ele><time>2026-04-18T14:45:44.998Z</time></trkpt><trkpt lat="44.883206967373184" lon="10.057589700091446"><ele>64.66666666666666</ele><time>2026-04-18T14:45:45.998Z</time></trkpt><trkpt lat="44.8832887352477" lon="10.057607133209961"><ele>64.33333333333333</ele><time>2026-04-18T14:45:46.998Z</time></trkpt><trkpt lat="44.883367267463" lon="10.057628676405182"><ele>64.0</ele><time>2026-04-18T14:45:47.998Z</time></trkpt><trkpt lat="44.883449387592286" lon="10.057645100426603"><ele>63.99999999999999</ele><time>2026-04-18T14:45:48.998Z</time></trkpt><trkpt lat="44.88353335124033" lon="10.05765204923489"><ele>64.0</ele><time>2026-04-18T14:45:49.998Z</time></trkpt><trkpt lat="44.88361773291303" lon="10.057652838644724"><ele>64.0</ele><time>2026-04-18T14:45:50.998Z</time></trkpt><trkpt lat="44.883701096939014" lon="10.057650468727486"><ele>64.0</ele><time>2026-04-18T14:45:51.998Z</time></trkpt><trkpt lat="44.88379950711539" lon="10.057603157730068"><ele>63.99999999999999</ele><time>2026-04-18T14:45:52.998Z</time></trkpt><trkpt lat="44.88388937564576" lon="10.057586154029652"><ele>64.0</ele><time>2026-04-18T14:45:53.998Z</time></trkpt><trkpt lat="44.88397658184104" lon="10.057565914841021"><ele>63.99999999999999</ele><time>2026-04-18T14:45:54.998Z</time></trkpt><trkpt lat="44.88406764801874" lon="10.057553669087461"><ele>64.0</ele><time>2026-04-18T14:45:55.998Z</time></trkpt><trkpt lat="44.88415576919997" lon="10.057541248685109"><ele>64.0</ele><time>2026-04-18T14:45:56.998Z</time></trkpt><trkpt lat="44.88424158755578" lon="10.057525679510793"><ele>64.0</ele><time>2026-04-18T14:45:57.998Z</time></trkpt><trkpt lat="44.88432780834109" lon="10.057510388059592"><ele>63.99999999999999</ele><time>2026-04-18T14:45:58.998Z</time></trkpt><trkpt lat="44.88441461027177" lon="10.057502002896442"><ele>64.0</ele><time>2026-04-18T14:45:59.998Z</time></trkpt><trkpt lat="44.88449875424464" lon="10.057497545482262"><ele>63.99999999999999</ele><time>2026-04-18T14:46:00.998Z</time></trkpt><trkpt lat="44.88458339328064" lon="10.05748741906949"><ele>64.0</ele><time>2026-04-18T14:46:01.998Z</time></trkpt><trkpt lat="44.88467079890976" lon="10.057486332467509"><ele>64.0</ele><time>2026-04-18T14:46:02.998Z</time></trkpt><trkpt lat="44.884759677845366" lon="10.05749151719814"><ele>64.0</ele><time>2026-04-18T14:46:03.998Z</time></trkpt><trkpt lat="44.88484472647074" lon="10.057519316275268"><ele>63.99999999999999</ele><time>2026-04-18T14:46:04.998Z</time></trkpt><trkpt lat="44.88493118326505" lon="10.05752577824918"><ele>64.0</ele><time>2026-04-18T14:46:05.998Z</time></trkpt><trkpt lat="44.88501643124975" lon="10.057531312792722"><ele>63.99999999999999</ele><time>2026-04-18T14:46:06.998Z</time></trkpt><trkpt lat="44.88510461820834" lon="10.057537495518876"><ele>64.0</ele><time>2026-04-18T14:46:07.998Z</time></trkpt><trkpt lat="44.88519255926627" lon="10.05754559534479"><ele>64.0</ele><time>2026-04-18T14:46:08.998Z</time></trkpt><trkpt lat="44.88527900635895" lon="10.057555387029069"><ele>64.0</ele><time>2026-04-18T14:46:09.998Z</time></trkpt><trkpt lat="44.88536622776394" lon="10.057573865469283"><ele>63.99999999999999</ele><time>2026-04-18T14:46:10.998Z</time></trkpt><trkpt lat="44.885453625248914" lon="10.057598412376937"><ele>64.0</ele><time>2026-04-18T14:46:11.998Z</time></trkpt><trkpt lat="44.8855410585426" lon="10.057626350377245"><ele>63.99999999999999</ele><time>2026-04-18T14:46:12.998Z</time></trkpt><trkpt lat="44.88562471768478" lon="10.057649155578417"><ele>64.0</ele><time>2026-04-18T14:46:13.998Z</time></trkpt><trkpt lat="44.885710331676044" lon="10.057669912480108"><ele>64.0</ele><time>2026-04-18T14:46:14.998Z</time></trkpt><trkpt lat="44.885800205261376" lon="10.05768764559415"><ele>64.0</ele><time>2026-04-18T14:46:16Z</time></trkpt><trkpt lat="44.88588164737694" lon="10.057696377412002"><ele>63.99999999999999</ele><time>2026-04-18T14:46:17Z</time></trkpt><trkpt lat="44.885971448323176" lon="10.057700619385773"><ele>64.0</ele><time>2026-04-18T14:46:18Z</time></trkpt><trkpt lat="44.88606451810988" lon="10.057699916571508"><ele>64.16666666666666</ele><time>2026-04-18T14:46:19Z</time></trkpt><trkpt lat="44.8861531277675" lon="10.057691824772467"><ele>64.33333333333333</ele><time>2026-04-18T14:46:20Z</time></trkpt><trkpt lat="44.88623647504987" lon="10.057684897868807"><ele>64.5</ele><time>2026-04-18T14:46:21Z</time></trkpt><trkpt lat="44.886329122725485" lon="10.057675908048616"><ele>64.66666666666667</ele><time>2026-04-18T14:46:22Z</time></trkpt><trkpt lat="44.88641309514173" lon="10.057667759997406"><ele>64.83333333333334</ele><time>2026-04-18T14:46:23Z</time></trkpt><trkpt lat="44.88650306561837" lon="10.057659029944054"><ele>65.0</ele><time>2026-04-18T14:46:24Z</time></trkpt><trkpt lat="44.886596808196366" lon="10.057649933875442"><ele>65.0</ele><time>2026-04-18T14:46:25Z</time></trkpt><trkpt lat="44.8866827148053" lon="10.057641598154579"><ele>65.0</ele><time>2026-04-18T14:46:26Z</time></trkpt><trkpt lat="44.88677158877581" lon="10.057632279631122"><ele>65.0</ele><time>2026-04-18T14:46:27Z</time></trkpt><trkpt lat="44.886859838944346" lon="10.057621563035836"><ele>65.0</ele><time>2026-04-18T14:46:28Z</time></trkpt><trkpt lat="44.88695029352621" lon="10.057609509914322"><ele>65.0</ele><time>2026-04-18T14:46:29Z</time></trkpt><trkpt lat="44.88703221057251" lon="10.057597702225792"><ele>65.0</ele><time>2026-04-18T14:46:30Z</time></trkpt><trkpt lat="44.88712266092618" lon="10.057581128481889"><ele>65.0</ele><time>2026-04-18T14:46:31Z</time></trkpt><trkpt lat="44.88721082584106" lon="10.057564973484727"><ele>65.0</ele><time>2026-04-18T14:46:32Z</time></trkpt><trkpt lat="44.88729925811616" lon="10.057546486253084"><ele>65.0</ele><time>2026-04-18T14:46:33Z</time></trkpt><trkpt lat="44.88738430356571" lon="10.057526701268003"><ele>65.0</ele><time>2026-04-18T14:46:34Z</time></trkpt><trkpt lat="44.887471300988366" lon="10.057501608283191"><ele>65.0</ele><time>2026-04-18T14:46:35Z</time></trkpt><trkpt lat="44.88755541616784" lon="10.057474798948913"><ele>65.0</ele><time>2026-04-18T14:46:36Z</time></trkpt><trkpt lat="44.88763791875529" lon="10.057417972246071"><ele>65.0</ele><time>2026-04-18T14:46:37Z</time></trkpt><trkpt lat="44.88772005285551" lon="10.05738222707069"><ele>65.0</ele><time>2026-04-18T14:46:38Z</time></trkpt><trkpt lat="44.887803033235436" lon="10.057355805591948"><ele>65.0</ele><time>2026-04-18T14:46:39Z</time></trkpt><trkpt lat="44.88787926700404" lon="10.057291355060572"><ele>65.0</ele><time>2026-04-18T14:46:40Z</time></trkpt><trkpt lat="44.887963284579236" lon="10.057262951100308"><ele>65.0</ele><time>2026-04-18T14:46:41Z</time></trkpt><trkpt lat="44.88803766887741" lon="10.057200736880468"><ele>65.0</ele><time>2026-04-18T14:46:42Z</time></trkpt><trkpt lat="44.888118712730225" lon="10.05715037766425"><ele>65.0</ele><time>2026-04-18T14:46:43Z</time></trkpt><trkpt lat="44.888196233831806" lon="10.057101258775292"><ele>65.0</ele><time>2026-04-18T14:46:44Z</time></trkpt><trkpt lat="44.888283468159024" lon="10.057073203437662"><ele>65.0</ele><time>2026-04-18T14:46:45Z</time></trkpt><trkpt lat="44.88835895939934" lon="10.057009257764836"><ele>65.0</ele><time>2026-04-18T14:46:46Z</time></trkpt><trkpt lat="44.88843514472089" lon="10.0569663072264"><ele>65.0</ele><time>2026-04-18T14:46:46.999Z</time></trkpt><trkpt lat="44.88851594537934" lon="10.0569181641389"><ele>65.0</ele><time>2026-04-18T14:46:47.999Z</time></trkpt><trkpt lat="44.88859334222554" lon="10.056874970317159"><ele>64.66666666666667</ele><time>2026-04-18T14:46:48.999Z</time></trkpt><trkpt lat="44.88867671469474" lon="10.05683079237911"><ele>64.33333333333334</ele><time>2026-04-18T14:46:49.999Z</time></trkpt><trkpt lat="44.88875814198022" lon="10.056783822925027"><ele>64.0</ele><time>2026-04-18T14:46:50.999Z</time></trkpt><trkpt lat="44.888838125946684" lon="10.056736881897255"><ele>63.66666666666667</ele><time>2026-04-18T14:46:51.999Z</time></trkpt><trkpt lat="44.888917892805075" lon="10.056693056480961"><ele>63.333333333333336</ele><time>2026-04-18T14:46:52.999Z</time></trkpt><trkpt lat="44.88899937991153" lon="10.056650317183115"><ele>63.0</ele><time>2026-04-18T14:46:53.999Z</time></trkpt><trkpt lat="44.88907957019816" lon="10.056605466773348"><ele>62.833333333333336</ele><time>2026-04-18T14:46:54.999Z</time></trkpt><trkpt lat="44.88915678840486" lon="10.05656151066751"><ele>62.66666666666667</ele><time>2026-04-18T14:46:55.999Z</time></trkpt><trkpt lat="44.88923883575896" lon="10.056519019190441"><ele>62.5</ele><time>2026-04-18T14:46:56.999Z</time></trkpt><trkpt lat="44.88932270193685" lon="10.056479359642026"><ele>62.333333333333336</ele><time>2026-04-18T14:46:57.999Z</time></trkpt><trkpt lat="44.88940763603378" lon="10.056438339587338"><ele>62.16666666666667</ele><time>2026-04-18T14:46:58.999Z</time></trkpt><trkpt lat="44.889488974048334" lon="10.056395601328775"><ele>62.0</ele><time>2026-04-18T14:46:59.999Z</time></trkpt><trkpt lat="44.88957164900852" lon="10.056356228223187"><ele>62.00000000000001</ele><time>2026-04-18T14:47:00.999Z</time></trkpt><trkpt lat="44.88965658315439" lon="10.056320076590715"><ele>62.0</ele><time>2026-04-18T14:47:01.999Z</time></trkpt><trkpt lat="44.88973794104199" lon="10.056283816220981"><ele>62.0</ele><time>2026-04-18T14:47:02.999Z</time></trkpt><trkpt lat="44.88981945388004" lon="10.056242943548996"><ele>62.0</ele><time>2026-04-18T14:47:03.999Z</time></trkpt><trkpt lat="44.889901152147445" lon="10.056196932643783"><ele>62.00000000000001</ele><time>2026-04-18T14:47:04.999Z</time></trkpt><trkpt lat="44.889983960381024" lon="10.056155515560384"><ele>62.0</ele><time>2026-04-18T14:47:05.999Z</time></trkpt><trkpt lat="44.890062516653565" lon="10.056114038750318"><ele>61.50000000000001</ele><time>2026-04-18T14:47:06.999Z</time></trkpt><trkpt lat="44.890146677748476" lon="10.056075308673758"><ele>61.0</ele><time>2026-04-18T14:47:07.999Z</time></trkpt><trkpt lat="44.89022584008649" lon="10.056035284156229"><ele>60.5</ele><time>2026-04-18T14:47:08.999Z</time></trkpt><trkpt lat="44.89030685463329" lon="10.055994436906941"><ele>60.0</ele><time>2026-04-18T14:47:09.999Z</time></trkpt><trkpt lat="44.890387651935455" lon="10.055954269519326"><ele>59.50000000000001</ele><time>2026-04-18T14:47:10.999Z</time></trkpt><trkpt lat="44.8904725981045" lon="10.055925016208494"><ele>59.0</ele><time>2026-04-18T14:47:11.999Z</time></trkpt><trkpt lat="44.89055656552991" lon="10.055896522060419"><ele>59.00000000000001</ele><time>2026-04-18T14:47:12.999Z</time></trkpt><trkpt lat="44.890639294168494" lon="10.055856755138986"><ele>59.0</ele><time>2026-04-18T14:47:13.999Z</time></trkpt><trkpt lat="44.890731502329544" lon="10.055849499352735"><ele>59.0</ele><time>2026-04-18T14:47:14.999Z</time></trkpt><trkpt lat="44.8908124537003" lon="10.055830178455885"><ele>59.0</ele><time>2026-04-18T14:47:15.999Z</time></trkpt><trkpt lat="44.89089658384676" lon="10.055820537550055"><ele>59.00000000000001</ele><time>2026-04-18T14:47:16.999Z</time></trkpt><trkpt lat="44.890982678252634" lon="10.055854971921448"><ele>59.0</ele><time>2026-04-18T14:47:17.999Z</time></trkpt><trkpt lat="44.89106576321203" lon="10.055879377422858"><ele>59.16666666666667</ele><time>2026-04-18T14:47:18.999Z</time></trkpt><trkpt lat="44.89114732787486" lon="10.055908159351091"><ele>59.333333333333336</ele><time>2026-04-18T14:47:19.999Z</time></trkpt><trkpt lat="44.89123186210457" lon="10.055938657692044"><ele>59.5</ele><time>2026-04-18T14:47:20.999Z</time></trkpt><trkpt lat="44.891315771151504" lon="10.055969425779837"><ele>59.66666666666667</ele><time>2026-04-18T14:47:21.999Z</time></trkpt><trkpt lat="44.89139964132615" lon="10.05599948828855"><ele>59.833333333333336</ele><time>2026-04-18T14:47:22.999Z</time></trkpt><trkpt lat="44.89148545850013" lon="10.056028998216137"><ele>60.0</ele><time>2026-04-18T14:47:23.999Z</time></trkpt><trkpt lat="44.89157199596624" lon="10.056057366868982"><ele>60.0</ele><time>2026-04-18T14:47:24.999Z</time></trkpt><trkpt lat="44.8916567126816" lon="10.05608513868024"><ele>60.0</ele><time>2026-04-18T14:47:25.999Z</time></trkpt><trkpt lat="44.89173941894682" lon="10.056111901673196"><ele>60.0</ele><time>2026-04-18T14:47:26.999Z</time></trkpt><trkpt lat="44.8918304734426" lon="10.056138468017616"><ele>60.0</ele><time>2026-04-18T14:47:27.999Z</time></trkpt><trkpt lat="44.89192024281439" lon="10.056152346139314"><ele>60.0</ele><time>2026-04-18T14:47:28.999Z</time></trkpt><trkpt lat="44.89200926892521" lon="10.056160095766831"><ele>60.0</ele><time>2026-04-18T14:47:29.999Z</time></trkpt><trkpt lat="44.892098518711045" lon="10.056162878301702"><ele>59.6</ele><time>2026-04-18T14:47:30.999Z</time></trkpt><trkpt lat="44.89219088791824" lon="10.056161229957874"><ele>59.2</ele><time>2026-04-18T14:47:31.999Z</time></trkpt><trkpt lat="44.892279346074126" lon="10.056159062618873"><ele>58.8</ele><time>2026-04-18T14:47:32.999Z</time></trkpt><trkpt lat="44.89237129737126" lon="10.05614370092476"><ele>58.4</ele><time>2026-04-18T14:47:33.999Z</time></trkpt><trkpt lat="44.89245921780586" lon="10.056104818934047"><ele>58.0</ele><time>2026-04-18T14:47:34.999Z</time></trkpt><trkpt lat="44.89255141505602" lon="10.056107826588315"><ele>58.33333333333333</ele><time>2026-04-18T14:47:35.999Z</time></trkpt><trkpt lat="44.89263853795771" lon="10.056070159056002"><ele>58.666666666666664</ele><time>2026-04-18T14:47:36.999Z</time></trkpt><trkpt lat="44.892727495490746" lon="10.056077935392025"><ele>59.0</ele><time>2026-04-18T14:47:37.999Z</time></trkpt><trkpt lat="44.89281925215805" lon="10.056062673467096"><ele>59.33333333333333</ele><time>2026-04-18T14:47:38.999Z</time></trkpt><trkpt lat="44.89290710806718" lon="10.056048060363016"><ele>59.666666666666664</ele><time>2026-04-18T14:47:39.999Z</time></trkpt><trkpt lat="44.89299126945098" lon="10.056039026036297"><ele>60.0</ele><time>2026-04-18T14:47:40.999Z</time></trkpt><trkpt lat="44.89307575430372" lon="10.056033683287826"><ele>60.0</ele><time>2026-04-18T14:47:41.999Z</time></trkpt><trkpt lat="44.893157616746876" lon="10.056032368463026"><ele>60.0</ele><time>2026-04-18T14:47:42.999Z</time></trkpt><trkpt lat="44.89323326212678" lon="10.05603799242953"><ele>60.0</ele><time>2026-04-18T14:47:43.999Z</time></trkpt><trkpt lat="44.893306127998294" lon="10.056048736117827"><ele>60.0</ele><time>2026-04-18T14:47:44.999Z</time></trkpt><trkpt lat="44.893376046775224" lon="10.05606150849388"><ele>60.0</ele><time>2026-04-18T14:47:45.999Z</time></trkpt><trkpt lat="44.893447521378675" lon="10.056075895619731"><ele>60.0</ele><time>2026-04-18T14:47:46.999Z</time></trkpt><trkpt lat="44.89351670757654" lon="10.056091074660534"><ele>60.0</ele><time>2026-04-18T14:47:47.999Z</time></trkpt><trkpt lat="44.893585936938564" lon="10.05610737520432"><ele>60.0</ele><time>2026-04-18T14:47:48.999Z</time></trkpt><trkpt lat="44.89365200917446" lon="10.056123850788358"><ele>60.0</ele><time>2026-04-18T14:47:49.998Z</time></trkpt><trkpt lat="44.89371957337653" lon="10.056140729795406"><ele>60.0</ele><time>2026-04-18T14:47:50.998Z</time></trkpt><trkpt lat="44.89378287176628" lon="10.056158485332432"><ele>60.0</ele><time>2026-04-18T14:47:51.998Z</time></trkpt><trkpt lat="44.893847726750586" lon="10.056176959963414"><ele>60.0</ele><time>2026-04-18T14:47:52.998Z</time></trkpt><trkpt lat="44.89391339495489" lon="10.056195666245289"><ele>60.0</ele><time>2026-04-18T14:47:53.998Z</time></trkpt><trkpt lat="44.893979370644175" lon="10.056214460115848"><ele>60.0</ele><time>2026-04-18T14:47:54.998Z</time></trkpt><trkpt lat="44.89404491311925" lon="10.056233513483315"><ele>60.0</ele><time>2026-04-18T14:47:55.998Z</time></trkpt><trkpt lat="44.894110099913675" lon="10.056253591254857"><ele>60.0</ele><time>2026-04-18T14:47:56.998Z</time></trkpt><trkpt lat="44.894176105905146" lon="10.056273921337496"><ele>60.0</ele><time>2026-04-18T14:47:57.998Z</time></trkpt><trkpt lat="44.894237778704905" lon="10.056292916781066"><ele>60.0</ele><time>2026-04-18T14:47:58.998Z</time></trkpt><trkpt lat="44.89430128738537" lon="10.05631233892855"><ele>60.0</ele><time>2026-04-18T14:47:59.998Z</time></trkpt><trkpt lat="44.89436422152344" lon="10.056331550405737"><ele>60.0</ele><time>2026-04-18T14:48:00.998Z</time></trkpt><trkpt lat="44.89443962688953" lon="10.056318483958252"><ele>60.0</ele><time>2026-04-18T14:48:01.998Z</time></trkpt><trkpt lat="44.894505285256145" lon="10.056343360214298"><ele>59.714285714285715</ele><time>2026-04-18T14:48:02.998Z</time></trkpt><trkpt lat="44.89457444548002" lon="10.056361013816598"><ele>59.42857142857143</ele><time>2026-04-18T14:48:03.998Z</time></trkpt><trkpt lat="44.89464342506152" lon="10.056382137775168"><ele>59.142857142857146</ele><time>2026-04-18T14:48:04.998Z</time></trkpt><trkpt lat="44.89471717669508" lon="10.056409635629382"><ele>58.85714285714286</ele><time>2026-04-18T14:48:05.998Z</time></trkpt><trkpt lat="44.89478471446941" lon="10.05643240313986"><ele>58.57142857142857</ele><time>2026-04-18T14:48:06.998Z</time></trkpt><trkpt lat="44.89484915695439" lon="10.056459193090207"><ele>58.28571428571429</ele><time>2026-04-18T14:48:07.998Z</time></trkpt><trkpt lat="44.89491496053551" lon="10.056485775060956"><ele>58.00000000000001</ele><time>2026-04-18T14:48:08.998Z</time></trkpt><trkpt lat="44.89497524535493" lon="10.056516082660956"><ele>57.99999999999999</ele><time>2026-04-18T14:48:09.998Z</time></trkpt><trkpt lat="44.895034662341125" lon="10.056552342966459"><ele>58.0</ele><time>2026-04-18T14:48:10.998Z</time></trkpt><trkpt lat="44.89509201724578" lon="10.056592281850673"><ele>58.0</ele><time>2026-04-18T14:48:11.998Z</time></trkpt><trkpt lat="44.89520355720299" lon="10.056678071380512"><ele>58.0</ele><time>2026-04-18T14:48:13.998Z</time></trkpt><trkpt lat="44.8952532981951" lon="10.056736738867407"><ele>57.99999999999999</ele><time>2026-04-18T14:48:14.998Z</time></trkpt><trkpt lat="44.89530613105591" lon="10.056792224922562"><ele>58.0</ele><time>2026-04-18T14:48:15.998Z</time></trkpt><trkpt lat="44.89536039202216" lon="10.056853476430677"><ele>58.28571428571429</ele><time>2026-04-18T14:48:16.998Z</time></trkpt><trkpt lat="44.895416386106334" lon="10.05691147696973"><ele>58.57142857142857</ele><time>2026-04-18T14:48:17.998Z</time></trkpt><trkpt lat="44.89546877961631" lon="10.056973057160667"><ele>58.85714285714286</ele><time>2026-04-18T14:48:18.998Z</time></trkpt><trkpt lat="44.89551938489312" lon="10.057040274931358"><ele>59.142857142857146</ele><time>2026-04-18T14:48:19.998Z</time></trkpt><trkpt lat="44.89557483852662" lon="10.057109129836222"><ele>59.42857142857143</ele><time>2026-04-18T14:48:20.998Z</time></trkpt><trkpt lat="44.895619086562576" lon="10.057198520293008"><ele>59.714285714285715</ele><time>2026-04-18T14:48:22Z</time></trkpt><trkpt lat="44.8956783762577" lon="10.057266240282894"><ele>60.0</ele><time>2026-04-18T14:48:23Z</time></trkpt><trkpt lat="44.89574067031544" lon="10.057337391793604"><ele>60.0</ele><time>2026-04-18T14:48:24Z</time></trkpt><trkpt lat="44.89581681393288" lon="10.057390216392932"><ele>60.0</ele><time>2026-04-18T14:48:25Z</time></trkpt><trkpt lat="44.89588509036439" lon="10.05745964520339"><ele>60.0</ele><time>2026-04-18T14:48:26Z</time></trkpt><trkpt lat="44.89595948852043" lon="10.057521612602486"><ele>60.0</ele><time>2026-04-18T14:48:27Z</time></trkpt><trkpt lat="44.8960430726107" lon="10.057575352979136"><ele>60.0</ele><time>2026-04-18T14:48:28Z</time></trkpt><trkpt lat="44.89612960062603" lon="10.0576237367506"><ele>60.0</ele><time>2026-04-18T14:48:29Z</time></trkpt><trkpt lat="44.89621629995087" lon="10.05766804958825"><ele>59.6</ele><time>2026-04-18T14:48:30Z</time></trkpt><trkpt lat="44.89630721095896" lon="10.057705244427227"><ele>59.2</ele><time>2026-04-18T14:48:31Z</time></trkpt><trkpt lat="44.896400266371955" lon="10.057737698922624"><ele>58.8</ele><time>2026-04-18T14:48:32Z</time></trkpt><trkpt lat="44.89648758544987" lon="10.057790249453694"><ele>58.4</ele><time>2026-04-18T14:48:33Z</time></trkpt><trkpt lat="44.89658151844433" lon="10.057803416135652"><ele>58.0</ele><time>2026-04-18T14:48:34Z</time></trkpt><trkpt lat="44.89667181630116" lon="10.057833702847931"><ele>58.0</ele><time>2026-04-18T14:48:35Z</time></trkpt><trkpt lat="44.896759254149785" lon="10.057888099929217"><ele>58.0</ele><time>2026-04-18T14:48:36Z</time></trkpt><trkpt lat="44.89685042620168" lon="10.057920938563445"><ele>58.0</ele><time>2026-04-18T14:48:37Z</time></trkpt><trkpt lat="44.89694323937372" lon="10.057933575430797"><ele>58.0</ele><time>2026-04-18T14:48:38Z</time></trkpt><trkpt lat="44.897034222452184" lon="10.05796322250788"><ele>58.0</ele><time>2026-04-18T14:48:39Z</time></trkpt><trkpt lat="44.89712274873343" lon="10.05800063311366"><ele>58.0</ele><time>2026-04-18T14:48:40Z</time></trkpt><trkpt lat="44.897212008801276" lon="10.058031641559975"><ele>58.0</ele><time>2026-04-18T14:48:41Z</time></trkpt><trkpt lat="44.897301918152195" lon="10.058063160197287"><ele>58.0</ele><time>2026-04-18T14:48:42Z</time></trkpt><trkpt lat="44.8973887779113" lon="10.058099355293727"><ele>58.0</ele><time>2026-04-18T14:48:43Z</time></trkpt><trkpt lat="44.89747742568825" lon="10.058125546736399"><ele>58.0</ele><time>2026-04-18T14:48:44Z</time></trkpt><trkpt lat="44.89756509831611" lon="10.058154027425603"><ele>58.0</ele><time>2026-04-18T14:48:45Z</time></trkpt><trkpt lat="44.897651637827146" lon="10.058200899610789"><ele>58.0</ele><time>2026-04-18T14:48:46Z</time></trkpt><trkpt lat="44.897738331377944" lon="10.058225835986415"><ele>58.0</ele><time>2026-04-18T14:48:47Z</time></trkpt><trkpt lat="44.89782640008067" lon="10.058253177770846"><ele>58.0</ele><time>2026-04-18T14:48:48Z</time></trkpt><trkpt lat="44.89791200228203" lon="10.058299018351393"><ele>58.0</ele><time>2026-04-18T14:48:49Z</time></trkpt><trkpt lat="44.89800174310736" lon="10.05831561541035"><ele>57.99999999999999</ele><time>2026-04-18T14:48:50Z</time></trkpt><trkpt lat="44.898084805711356" lon="10.058349156554563"><ele>58.0</ele><time>2026-04-18T14:48:51Z</time></trkpt><trkpt lat="44.898169761102054" lon="10.058387108013727"><ele>58.0</ele><time>2026-04-18T14:48:52Z</time></trkpt><trkpt lat="44.89824302738299" lon="10.058415578477927"><ele>58.0</ele><time>2026-04-18T14:48:53Z</time></trkpt><trkpt lat="44.898347703886365" lon="10.058464438403641"><ele>57.99999999999999</ele><time>2026-04-18T14:48:55Z</time></trkpt><trkpt lat="44.898417662617945" lon="10.058468259490414"><ele>58.0</ele><time>2026-04-18T14:48:57.999Z</time></trkpt><trkpt lat="44.898455664836334" lon="10.058298147472238"><ele>57.83333333333333</ele><time>2026-04-18T14:48:58.999Z</time></trkpt><trkpt lat="44.89849352943375" lon="10.05813760880926"><ele>57.666666666666664</ele><time>2026-04-18T14:49:00.999Z</time></trkpt><trkpt lat="44.89853371814572" lon="10.057973846668176"><ele>57.5</ele><time>2026-04-18T14:49:02.999Z</time></trkpt><trkpt lat="44.8985542637829" lon="10.05788747146517"><ele>57.33333333333333</ele><time>2026-04-18T14:49:03.999Z</time></trkpt><trkpt lat="44.898576534433744" lon="10.057798114505626"><ele>57.166666666666664</ele><time>2026-04-18T14:49:04.999Z</time></trkpt><trkpt lat="44.89859749247565" lon="10.057710666329447"><ele>57.0</ele><time>2026-04-18T14:49:05.999Z</time></trkpt><trkpt lat="44.89860447451424" lon="10.057617327376235"><ele>57.0</ele><time>2026-04-18T14:49:06.999Z</time></trkpt><trkpt lat="44.89863539759228" lon="10.05753899858592"><ele>57.0</ele><time>2026-04-18T14:49:07.999Z</time></trkpt><trkpt lat="44.898638668672795" lon="10.05744743466557"><ele>57.0</ele><time>2026-04-18T14:49:08.999Z</time></trkpt><trkpt lat="44.89865657115399" lon="10.057362023004352"><ele>57.0</ele><time>2026-04-18T14:49:09.999Z</time></trkpt><trkpt lat="44.89874031642825" lon="10.057234421570664"><ele>57.0</ele><time>2026-04-18T14:49:11.999Z</time></trkpt><trkpt lat="44.89882733889376" lon="10.057216357463789"><ele>57.0</ele><time>2026-04-18T14:49:13.999Z</time></trkpt><trkpt lat="44.89896920252343" lon="10.057232437062044"><ele>57.0</ele><time>2026-04-18T14:49:15.999Z</time></trkpt><trkpt lat="44.8990612047769" lon="10.057245436349076"><ele>56.99999999999999</ele><time>2026-04-18T14:49:16.999Z</time></trkpt><trkpt lat="44.89912581092251" lon="10.057234219403272"><ele>57.0</ele><time>2026-04-18T14:49:17.999Z</time></trkpt><trkpt lat="44.89919141619502" lon="10.057230543581216"><ele>57.0</ele><time>2026-04-18T14:49:18.999Z</time></trkpt><trkpt lat="44.899265277220216" lon="10.057228155050987"><ele>56.99999999999999</ele><time>2026-04-18T14:49:19.999Z</time></trkpt><trkpt lat="44.89933245714026" lon="10.057219925502332"><ele>57.0</ele><time>2026-04-18T14:49:20.999Z</time></trkpt><trkpt lat="44.89940198811323" lon="10.057209060532989"><ele>57.0</ele><time>2026-04-18T14:49:21.999Z</time></trkpt><trkpt lat="44.89958365481611" lon="10.05721433094493"><ele>57.0</ele><time>2026-04-18T14:49:23.999Z</time></trkpt><trkpt lat="44.89975148280637" lon="10.057212644632363"><ele>57.0</ele><time>2026-04-18T14:49:25.999Z</time></trkpt><trkpt lat="44.899832489475486" lon="10.057206196825641"><ele>57.0</ele><time>2026-04-18T14:49:26.999Z</time></trkpt><trkpt lat="44.89990444590291" lon="10.057204988793712"><ele>57.0</ele><time>2026-04-18T14:49:27.999Z</time></trkpt><trkpt lat="44.89999113495367" lon="10.057210972546649"><ele>57.0</ele><time>2026-04-18T14:49:28.999Z</time></trkpt><trkpt lat="44.90007067402235" lon="10.057202899438455"><ele>56.666666666666664</ele><time>2026-04-18T14:49:29.999Z</time></trkpt><trkpt lat="44.90015246722528" lon="10.057192733705556"><ele>56.33333333333333</ele><time>2026-04-18T14:49:30.999Z</time></trkpt><trkpt lat="44.900231482486205" lon="10.05720709445812"><ele>56.0</ele><time>2026-04-18T14:49:31.999Z</time></trkpt><trkpt lat="44.900311348218956" lon="10.057206965914505"><ele>55.666666666666664</ele><time>2026-04-18T14:49:32.999Z</time></trkpt><trkpt lat="44.90039534295644" lon="10.057215129922014"><ele>55.33333333333333</ele><time>2026-04-18T14:49:33.999Z</time></trkpt><trkpt lat="44.90047705165492" lon="10.057260126697281"><ele>55.0</ele><time>2026-04-18T14:49:34.999Z</time></trkpt><trkpt lat="44.90056074691092" lon="10.057262088413779"><ele>54.99999999999999</ele><time>2026-04-18T14:49:35.999Z</time></trkpt><trkpt lat="44.90064600298631" lon="10.057264086899028"><ele>55.0</ele><time>2026-04-18T14:49:36.999Z</time></trkpt><trkpt lat="44.90072976459234" lon="10.05726605035658"><ele>55.0</ele><time>2026-04-18T14:49:37.999Z</time></trkpt><trkpt lat="44.90081750248438" lon="10.05726620837519"><ele>55.0</ele><time>2026-04-18T14:49:38.999Z</time></trkpt><trkpt lat="44.90090215084487" lon="10.057266613392054"><ele>54.99999999999999</ele><time>2026-04-18T14:49:39.999Z</time></trkpt><trkpt lat="44.9009921108081" lon="10.057267043822257"><ele>55.0</ele><time>2026-04-18T14:49:40.999Z</time></trkpt><trkpt lat="44.90107826941634" lon="10.057267380998507"><ele>54.99999999999999</ele><time>2026-04-18T14:49:41.999Z</time></trkpt><trkpt lat="44.901162164408184" lon="10.057267692210251"><ele>55.0</ele><time>2026-04-18T14:49:42.999Z</time></trkpt><trkpt lat="44.901247313239196" lon="10.05726800807445"><ele>55.0</ele><time>2026-04-18T14:49:43.999Z</time></trkpt><trkpt lat="44.90133325548238" lon="10.057268326881896"><ele>55.0</ele><time>2026-04-18T14:49:44.999Z</time></trkpt><trkpt lat="44.90141916359169" lon="10.05726864556118"><ele>54.99999999999999</ele><time>2026-04-18T14:49:45.999Z</time></trkpt><trkpt lat="44.90150598490838" lon="10.057268967628602"><ele>55.0</ele><time>2026-04-18T14:49:46.999Z</time></trkpt><trkpt lat="44.901591034521935" lon="10.05726928312364"><ele>54.99999999999999</ele><time>2026-04-18T14:49:47.999Z</time></trkpt><trkpt lat="44.901680200371224" lon="10.05726961388828"><ele>55.0</ele><time>2026-04-18T14:49:48.999Z</time></trkpt><trkpt lat="44.90176303467846" lon="10.057269921166275"><ele>55.0</ele><time>2026-04-18T14:49:49.999Z</time></trkpt><trkpt lat="44.901846800358626" lon="10.057270231898448"><ele>55.0</ele><time>2026-04-18T14:49:50.999Z</time></trkpt><trkpt lat="44.90193435578152" lon="10.057270556689993"><ele>54.99999999999999</ele><time>2026-04-18T14:49:51.999Z</time></trkpt><trkpt lat="44.90201600954564" lon="10.05727085958671"><ele>55.0</ele><time>2026-04-18T14:49:52.999Z</time></trkpt><trkpt lat="44.902101067030884" lon="10.05727117511182"><ele>54.99999999999999</ele><time>2026-04-18T14:49:53.999Z</time></trkpt><trkpt lat="44.90218515868472" lon="10.057272464825292"><ele>55.0</ele><time>2026-04-18T14:49:54.999Z</time></trkpt><trkpt lat="44.90226822430334" lon="10.057273597847033"><ele>55.0</ele><time>2026-04-18T14:49:55.999Z</time></trkpt><trkpt lat="44.90234918916675" lon="10.057274702212565"><ele>55.0</ele><time>2026-04-18T14:49:56.999Z</time></trkpt><trkpt lat="44.90243574491562" lon="10.057275882838601"><ele>54.99999999999999</ele><time>2026-04-18T14:49:57.999Z</time></trkpt><trkpt lat="44.90252278053054" lon="10.057277070010485"><ele>55.0</ele><time>2026-04-18T14:49:58.999Z</time></trkpt><trkpt lat="44.90261060154457" lon="10.057278197942143"><ele>54.83333333333333</ele><time>2026-04-18T14:49:59.999Z</time></trkpt><trkpt lat="44.90269424788275" lon="10.057279160220121"><ele>54.666666666666664</ele><time>2026-04-18T14:50:00.998Z</time></trkpt><trkpt lat="44.902785751694374" lon="10.057280212891786"><ele>54.5</ele><time>2026-04-18T14:50:01.998Z</time></trkpt><trkpt lat="44.90286811749572" lon="10.057281160438338"><ele>54.33333333333333</ele><time>2026-04-18T14:50:02.998Z</time></trkpt><trkpt lat="44.90295424878506" lon="10.05728215130299"><ele>54.166666666666664</ele><time>2026-04-18T14:50:03.998Z</time></trkpt><trkpt lat="44.903041289013125" lon="10.057283152623985"><ele>54.0</ele><time>2026-04-18T14:50:04.998Z</time></trkpt><trkpt lat="44.903129588808945" lon="10.05728416843623"><ele>54.0</ele><time>2026-04-18T14:50:05.998Z</time></trkpt><trkpt lat="44.903214132049435" lon="10.057283771868681"><ele>54.0</ele><time>2026-04-18T14:50:06.998Z</time></trkpt><trkpt lat="44.90330139345942" lon="10.057282551592714"><ele>54.0</ele><time>2026-04-18T14:50:07.998Z</time></trkpt><trkpt lat="44.90339009324831" lon="10.057281311200065"><ele>54.0</ele><time>2026-04-18T14:50:08.998Z</time></trkpt><trkpt lat="44.903474245209146" lon="10.05728013440525"><ele>54.0</ele><time>2026-04-18T14:50:09.998Z</time></trkpt><trkpt lat="44.90355841069203" lon="10.057279783037428"><ele>54.0</ele><time>2026-04-18T14:50:10.998Z</time></trkpt><trkpt lat="44.90364302707931" lon="10.057282257201246"><ele>54.333333333333336</ele><time>2026-04-18T14:50:11.998Z</time></trkpt><trkpt lat="44.9037292662525" lon="10.057287613687306"><ele>54.66666666666667</ele><time>2026-04-18T14:50:12.998Z</time></trkpt><trkpt lat="44.903809526574506" lon="10.05729419524716"><ele>55.0</ele><time>2026-04-18T14:50:13.998Z</time></trkpt><trkpt lat="44.90388447263529" lon="10.057324685312059"><ele>55.333333333333336</ele><time>2026-04-18T14:50:14.998Z</time></trkpt><trkpt lat="44.90396221857275" lon="10.057356368305545"><ele>55.66666666666667</ele><time>2026-04-18T14:50:15.998Z</time></trkpt><trkpt lat="44.90404272754783" lon="10.05738975733768"><ele>56.0</ele><time>2026-04-18T14:50:16.998Z</time></trkpt><trkpt lat="44.90412237467689" lon="10.057426535539099"><ele>56.00000000000001</ele><time>2026-04-18T14:50:17.998Z</time></trkpt><trkpt lat="44.90420309641604" lon="10.057464627342549"><ele>56.0</ele><time>2026-04-18T14:50:18.998Z</time></trkpt><trkpt lat="44.90428241360665" lon="10.057502636514243"><ele>56.0</ele><time>2026-04-18T14:50:19.998Z</time></trkpt><trkpt lat="44.9043635132084" lon="10.057544211384831"><ele>56.0</ele><time>2026-04-18T14:50:20.998Z</time></trkpt><trkpt lat="44.904442412137996" lon="10.057584672459946"><ele>56.00000000000001</ele><time>2026-04-18T14:50:21.998Z</time></trkpt><trkpt lat="44.9045243949494" lon="10.057624457793292"><ele>56.0</ele><time>2026-04-18T14:50:22.998Z</time></trkpt><trkpt lat="44.90460625665794" lon="10.057658310792078"><ele>56.00000000000001</ele><time>2026-04-18T14:50:23.998Z</time></trkpt><trkpt lat="44.904685611922424" lon="10.057690183942306"><ele>56.0</ele><time>2026-04-18T14:50:24.998Z</time></trkpt><trkpt lat="44.90476792613257" lon="10.057718255718418"><ele>56.0</ele><time>2026-04-18T14:50:25.998Z</time></trkpt><trkpt lat="44.9048526602334" lon="10.057740655177625"><ele>56.0</ele><time>2026-04-18T14:50:26.998Z</time></trkpt><trkpt lat="44.90494050659382" lon="10.057753604494577"><ele>56.00000000000001</ele><time>2026-04-18T14:50:28Z</time></trkpt><trkpt lat="44.905026988406775" lon="10.057761135680547"><ele>56.0</ele><time>2026-04-18T14:50:29Z</time></trkpt><trkpt lat="44.90511257745171" lon="10.057763782001317"><ele>55.8</ele><time>2026-04-18T14:50:30Z</time></trkpt><trkpt lat="44.90528765283407" lon="10.057756238500849"><ele>55.599999999999994</ele><time>2026-04-18T14:50:32Z</time></trkpt><trkpt lat="44.90537441102653" lon="10.057747328809892"><ele>55.4</ele><time>2026-04-18T14:50:33Z</time></trkpt><trkpt lat="44.90545847073393" lon="10.057709117885347"><ele>55.2</ele><time>2026-04-18T14:50:34Z</time></trkpt><trkpt lat="44.90554141233076" lon="10.057691264071929"><ele>55.0</ele><time>2026-04-18T14:50:35Z</time></trkpt><trkpt lat="44.90562652552087" lon="10.057675157987788"><ele>55.0</ele><time>2026-04-18T14:50:36Z</time></trkpt><trkpt lat="44.90571248787726" lon="10.057687557900058"><ele>55.0</ele><time>2026-04-18T14:50:37Z</time></trkpt><trkpt lat="44.9058789907669" lon="10.05769185891473"><ele>55.0</ele><time>2026-04-18T14:50:39Z</time></trkpt><trkpt lat="44.90596451636422" lon="10.057702810426209"><ele>55.0</ele><time>2026-04-18T14:50:40Z</time></trkpt><trkpt lat="44.9060479544101" lon="10.057712347470408"><ele>55.0</ele><time>2026-04-18T14:50:41Z</time></trkpt><trkpt lat="44.906132961260894" lon="10.057724605525653"><ele>54.49999999999999</ele><time>2026-04-18T14:50:42Z</time></trkpt><trkpt lat="44.90621676007051" lon="10.057736684181906"><ele>54.0</ele><time>2026-04-18T14:50:43Z</time></trkpt><trkpt lat="44.906299610359255" lon="10.057750275598776"><ele>53.5</ele><time>2026-04-18T14:50:44Z</time></trkpt><trkpt lat="44.90638025753719" lon="10.057764408880058"><ele>53.0</ele><time>2026-04-18T14:50:45Z</time></trkpt><trkpt lat="44.90646256023205" lon="10.057779703798522"><ele>52.49999999999999</ele><time>2026-04-18T14:50:46Z</time></trkpt><trkpt lat="44.90654660256226" lon="10.05779532200796"><ele>52.0</ele><time>2026-04-18T14:50:47Z</time></trkpt><trkpt lat="44.90663296456959" lon="10.057811116447693"><ele>51.99999999999999</ele><time>2026-04-18T14:50:48Z</time></trkpt><trkpt lat="44.90671964919937" lon="10.05782644207175"><ele>52.0</ele><time>2026-04-18T14:50:49Z</time></trkpt><trkpt lat="44.90680746265524" lon="10.057841967273259"><ele>52.0</ele><time>2026-04-18T14:50:50Z</time></trkpt><trkpt lat="44.90689463829602" lon="10.05785735495671"><ele>52.0</ele><time>2026-04-18T14:50:51Z</time></trkpt><trkpt lat="44.90698393730986" lon="10.057871938651678"><ele>51.99999999999999</ele><time>2026-04-18T14:50:52Z</time></trkpt><trkpt lat="44.90707411959477" lon="10.057886666595497"><ele>52.0</ele><time>2026-04-18T14:50:53Z</time></trkpt><trkpt lat="44.907161394739965" lon="10.0579007408394"><ele>51.83333333333333</ele><time>2026-04-18T14:50:54Z</time></trkpt><trkpt lat="44.90724927771912" lon="10.057914806302804"><ele>51.666666666666664</ele><time>2026-04-18T14:50:55Z</time></trkpt><trkpt lat="44.907336431898464" lon="10.057928755126316"><ele>51.5</ele><time>2026-04-18T14:50:56Z</time></trkpt><trkpt lat="44.907424232046885" lon="10.057941908566894"><ele>51.33333333333333</ele><time>2026-04-18T14:50:57Z</time></trkpt><trkpt lat="44.90751255743165" lon="10.057954837180798"><ele>51.166666666666664</ele><time>2026-04-18T14:50:58Z</time></trkpt><trkpt lat="44.90759959543739" lon="10.0579653459402"><ele>51.0</ele><time>2026-04-18T14:50:59Z</time></trkpt><trkpt lat="44.90768624915208" lon="10.057975987632613"><ele>50.833333333333336</ele><time>2026-04-18T14:51:00Z</time></trkpt><trkpt lat="44.90777115996469" lon="10.057987138825043"><ele>50.66666666666667</ele><time>2026-04-18T14:51:01Z</time></trkpt><trkpt lat="44.90785325984976" lon="10.058006033270816"><ele>50.5</ele><time>2026-04-18T14:51:02Z</time></trkpt><trkpt lat="44.90793119530467" lon="10.058032127193583"><ele>50.333333333333336</ele><time>2026-04-18T14:51:02.999Z</time></trkpt><trkpt lat="44.908009165133755" lon="10.05806648278592"><ele>50.16666666666667</ele><time>2026-04-18T14:51:03.999Z</time></trkpt><trkpt lat="44.90808141653307" lon="10.058115092957307"><ele>50.0</ele><time>2026-04-18T14:51:04.999Z</time></trkpt><trkpt lat="44.90814811418308" lon="10.058167334337815"><ele>50.00000000000001</ele><time>2026-04-18T14:51:05.999Z</time></trkpt><trkpt lat="44.90821653118428" lon="10.058221698569488"><ele>50.0</ele><time>2026-04-18T14:51:06.999Z</time></trkpt><trkpt lat="44.908287095866065" lon="10.058277803278639"><ele>50.0</ele><time>2026-04-18T14:51:07.999Z</time></trkpt><trkpt lat="44.90835528278091" lon="10.058333697850832"><ele>50.0</ele><time>2026-04-18T14:51:08.999Z</time></trkpt><trkpt lat="44.90842732724119" lon="10.058393516662933"><ele>50.00000000000001</ele><time>2026-04-18T14:51:09.999Z</time></trkpt><trkpt lat="44.90849545476498" lon="10.05845008322812"><ele>50.0</ele><time>2026-04-18T14:51:10.999Z</time></trkpt><trkpt lat="44.90856997433937" lon="10.058511957137808"><ele>49.833333333333336</ele><time>2026-04-18T14:51:11.999Z</time></trkpt><trkpt lat="44.90864055396833" lon="10.058570559691855"><ele>49.66666666666667</ele><time>2026-04-18T14:51:12.999Z</time></trkpt><trkpt lat="44.908710504922276" lon="10.05862864025624"><ele>49.5</ele><time>2026-04-18T14:51:13.999Z</time></trkpt><trkpt lat="44.90878326537836" lon="10.058689053563294"><ele>49.33333333333333</ele><time>2026-04-18T14:51:14.999Z</time></trkpt><trkpt lat="44.90885399431933" lon="10.058747780094187"><ele>49.166666666666664</ele><time>2026-04-18T14:51:15.999Z</time></trkpt><trkpt lat="44.90892921215546" lon="10.058809195451563"><ele>49.0</ele><time>2026-04-18T14:51:16.999Z</time></trkpt><trkpt lat="44.90900218157885" lon="10.058868636203808"><ele>48.99999999999999</ele><time>2026-04-18T14:51:17.999Z</time></trkpt><trkpt lat="44.90907796844513" lon="10.058930370273181"><ele>49.0</ele><time>2026-04-18T14:51:18.999Z</time></trkpt><trkpt lat="44.909148044817314" lon="10.058987452729989"><ele>49.0</ele><time>2026-04-18T14:51:19.999Z</time></trkpt><trkpt lat="44.90922620276249" lon="10.059051118235919"><ele>49.0</ele><time>2026-04-18T14:51:20.999Z</time></trkpt><trkpt lat="44.909298262419746" lon="10.059109816229046"><ele>48.99999999999999</ele><time>2026-04-18T14:51:21.999Z</time></trkpt><trkpt lat="44.909373889404655" lon="10.059171050648205"><ele>49.0</ele><time>2026-04-18T14:51:22.999Z</time></trkpt><trkpt lat="44.90944774753237" lon="10.059229564284601"><ele>48.99999999999999</ele><time>2026-04-18T14:51:23.999Z</time></trkpt><trkpt lat="44.909520780412436" lon="10.05928649918223"><ele>49.0</ele><time>2026-04-18T14:51:24.999Z</time></trkpt><trkpt lat="44.909595439784844" lon="10.059344391594006"><ele>49.0</ele><time>2026-04-18T14:51:25.999Z</time></trkpt><trkpt lat="44.909672811908806" lon="10.059400788904812"><ele>49.0</ele><time>2026-04-18T14:51:26.999Z</time></trkpt><trkpt lat="44.909751621183" lon="10.059452616332601"><ele>48.99999999999999</ele><time>2026-04-18T14:51:27.999Z</time></trkpt><trkpt lat="44.90983312100843" lon="10.059497935400994"><ele>49.0</ele><time>2026-04-18T14:51:28.999Z</time></trkpt><trkpt lat="44.909920056807124" lon="10.059534394798575"><ele>48.99999999999999</ele><time>2026-04-18T14:51:29.999Z</time></trkpt><trkpt lat="44.91000187464792" lon="10.059567176245308"><ele>49.0</ele><time>2026-04-18T14:51:30.999Z</time></trkpt><trkpt lat="44.91008536744417" lon="10.059600628790657"><ele>49.0</ele><time>2026-04-18T14:51:31.999Z</time></trkpt><trkpt lat="44.910167800735316" lon="10.059631980781738"><ele>49.0</ele><time>2026-04-18T14:51:32.999Z</time></trkpt><trkpt lat="44.91025129659571" lon="10.059663241792123"><ele>48.99999999999999</ele><time>2026-04-18T14:51:33.999Z</time></trkpt><trkpt lat="44.91033299078241" lon="10.059693828251977"><ele>49.0</ele><time>2026-04-18T14:51:34.999Z</time></trkpt><trkpt lat="44.910412929489354" lon="10.059723904607303"><ele>49.33333333333333</ele><time>2026-04-18T14:51:35.999Z</time></trkpt><trkpt lat="44.91049508720558" lon="10.059754872972317"><ele>49.666666666666664</ele><time>2026-04-18T14:51:36.999Z</time></trkpt><trkpt lat="44.910577233338174" lon="10.059785836969704"><ele>50.0</ele><time>2026-04-18T14:51:37.999Z</time></trkpt><trkpt lat="44.91065955860098" lon="10.059816868488394"><ele>50.33333333333333</ele><time>2026-04-18T14:51:38.999Z</time></trkpt><trkpt lat="44.9107428739986" lon="10.059848905316734"><ele>50.666666666666664</ele><time>2026-04-18T14:51:39.999Z</time></trkpt><trkpt lat="44.91082590630332" lon="10.059880872578244"><ele>51.0</ele><time>2026-04-18T14:51:40.999Z</time></trkpt><trkpt lat="44.91090700096836" lon="10.059912093850203"><ele>51.333333333333336</ele><time>2026-04-18T14:51:41.999Z</time></trkpt><trkpt lat="44.910994585667645" lon="10.05994581377131"><ele>51.66666666666667</ele><time>2026-04-18T14:51:42.999Z</time></trkpt><trkpt lat="44.91107811139516" lon="10.059977970998757"><ele>52.0</ele><time>2026-04-18T14:51:43.999Z</time></trkpt><trkpt lat="44.91115784358599" lon="10.060008667723567"><ele>52.333333333333336</ele><time>2026-04-18T14:51:44.999Z</time></trkpt><trkpt lat="44.91124037756071" lon="10.060040443127567"><ele>52.66666666666667</ele><time>2026-04-18T14:51:45.999Z</time></trkpt><trkpt lat="44.91132559230381" lon="10.060073250623486"><ele>53.0</ele><time>2026-04-18T14:51:46.999Z</time></trkpt><trkpt lat="44.91140880132621" lon="10.060105019642743"><ele>52.333333333333336</ele><time>2026-04-18T14:51:47.999Z</time></trkpt><trkpt lat="44.91149257095827" lon="10.060136719453972"><ele>51.66666666666667</ele><time>2026-04-18T14:51:48.999Z</time></trkpt><trkpt lat="44.911574372345825" lon="10.06016767444851"><ele>51.0</ele><time>2026-04-18T14:51:49.999Z</time></trkpt><trkpt lat="44.911656685528" lon="10.060198823115728"><ele>50.33333333333333</ele><time>2026-04-18T14:51:50.999Z</time></trkpt><trkpt lat="44.911741280125895" lon="10.06021016331971"><ele>49.666666666666664</ele><time>2026-04-18T14:51:51.999Z</time></trkpt><trkpt lat="44.911824649398625" lon="10.060243524144038"><ele>49.0</ele><time>2026-04-18T14:51:52.999Z</time></trkpt><trkpt lat="44.9119071600058" lon="10.060273208285421"><ele>48.83333333333333</ele><time>2026-04-18T14:51:53.999Z</time></trkpt><trkpt lat="44.91198918677556" lon="10.060303333292808"><ele>48.666666666666664</ele><time>2026-04-18T14:51:54.999Z</time></trkpt><trkpt lat="44.912070386527716" lon="10.060357306653835"><ele>48.5</ele><time>2026-04-18T14:51:55.999Z</time></trkpt><trkpt lat="44.9121510039272" lon="10.060388967604226"><ele>48.33333333333333</ele><time>2026-04-18T14:51:56.999Z</time></trkpt><trkpt lat="44.912231914753605" lon="10.06042074379554"><ele>48.166666666666664</ele><time>2026-04-18T14:51:57.999Z</time></trkpt><trkpt lat="44.91231367657343" lon="10.06045285419693"><ele>48.0</ele><time>2026-04-18T14:51:58.999Z</time></trkpt><trkpt lat="44.91239793788736" lon="10.060485946229004"><ele>48.0</ele><time>2026-04-18T14:51:59.999Z</time></trkpt><trkpt lat="44.91247711613171" lon="10.060517041978185"><ele>48.0</ele><time>2026-04-18T14:52:00.999Z</time></trkpt><trkpt lat="44.91256198019406" lon="10.060550370726652"><ele>48.0</ele><time>2026-04-18T14:52:01.999Z</time></trkpt><trkpt lat="44.91264124242289" lon="10.060581499460657"><ele>48.0</ele><time>2026-04-18T14:52:02.999Z</time></trkpt><trkpt lat="44.91272371373734" lon="10.060613888503962"><ele>48.0</ele><time>2026-04-18T14:52:03.999Z</time></trkpt><trkpt lat="44.9128049336942" lon="10.060645786099863"><ele>48.0</ele><time>2026-04-18T14:52:04.998Z</time></trkpt><trkpt lat="44.9128857052259" lon="10.06067933870131"><ele>48.333333333333336</ele><time>2026-04-18T14:52:05.998Z</time></trkpt><trkpt lat="44.912966238349625" lon="10.060713337548748"><ele>48.66666666666667</ele><time>2026-04-18T14:52:06.998Z</time></trkpt><trkpt lat="44.913047071527764" lon="10.06075009907388"><ele>49.0</ele><time>2026-04-18T14:52:07.998Z</time></trkpt><trkpt lat="44.913126400178015" lon="10.060788966946138"><ele>49.333333333333336</ele><time>2026-04-18T14:52:08.998Z</time></trkpt><trkpt lat="44.91320516369717" lon="10.06083037891122"><ele>49.66666666666667</ele><time>2026-04-18T14:52:09.998Z</time></trkpt><trkpt lat="44.91328383566278" lon="10.060874398394908"><ele>50.0</ele><time>2026-04-18T14:52:10.998Z</time></trkpt><trkpt lat="44.91336209415824" lon="10.060919982340312"><ele>50.00000000000001</ele><time>2026-04-18T14:52:11.998Z</time></trkpt><trkpt lat="44.913437404187846" lon="10.06096516758027"><ele>50.0</ele><time>2026-04-18T14:52:12.998Z</time></trkpt><trkpt lat="44.91351605400815" lon="10.061012773556367"><ele>50.0</ele><time>2026-04-18T14:52:13.998Z</time></trkpt><trkpt lat="44.91359364237718" lon="10.061059737058129"><ele>50.0</ele><time>2026-04-18T14:52:14.998Z</time></trkpt><trkpt lat="44.91367019986737" lon="10.061106987101478"><ele>50.00000000000001</ele><time>2026-04-18T14:52:15.998Z</time></trkpt><trkpt lat="44.9137495749225" lon="10.061156063190035"><ele>50.0</ele><time>2026-04-18T14:52:16.998Z</time></trkpt><trkpt lat="44.91382804463113" lon="10.061204579424446"><ele>50.00000000000001</ele><time>2026-04-18T14:52:17.998Z</time></trkpt><trkpt lat="44.913904318241315" lon="10.061251737867194"><ele>50.0</ele><time>2026-04-18T14:52:18.998Z</time></trkpt><trkpt lat="44.91398120404219" lon="10.061299274918204"><ele>50.0</ele><time>2026-04-18T14:52:19.998Z</time></trkpt><trkpt lat="44.91405908584371" lon="10.061347427667785"><ele>50.0</ele><time>2026-04-18T14:52:20.998Z</time></trkpt><trkpt lat="44.91413789452148" lon="10.061396153505251"><ele>50.00000000000001</ele><time>2026-04-18T14:52:21.998Z</time></trkpt><trkpt lat="44.91421407757006" lon="10.061443256030152"><ele>50.0</ele><time>2026-04-18T14:52:22.998Z</time></trkpt><trkpt lat="44.91429008485046" lon="10.061489716202013"><ele>49.66666666666667</ele><time>2026-04-18T14:52:23.998Z</time></trkpt><trkpt lat="44.914369626646746" lon="10.061538221866371"><ele>49.333333333333336</ele><time>2026-04-18T14:52:24.998Z</time></trkpt><trkpt lat="44.914444252577745" lon="10.061583730150163"><ele>49.0</ele><time>2026-04-18T14:52:25.998Z</time></trkpt><trkpt lat="44.91452194421973" lon="10.061631107656716"><ele>48.66666666666667</ele><time>2026-04-18T14:52:26.998Z</time></trkpt><trkpt lat="44.914597323598414" lon="10.061677075088198"><ele>48.333333333333336</ele><time>2026-04-18T14:52:27.998Z</time></trkpt><trkpt lat="44.91467461852208" lon="10.0617242106329"><ele>48.0</ele><time>2026-04-18T14:52:28.998Z</time></trkpt><trkpt lat="44.914751775065746" lon="10.06177126208822"><ele>48.0</ele><time>2026-04-18T14:52:29.998Z</time></trkpt><trkpt lat="44.91483052294612" lon="10.061819283780112"><ele>48.0</ele><time>2026-04-18T14:52:30.998Z</time></trkpt><trkpt lat="44.914908045637475" lon="10.061866558329912"><ele>48.0</ele><time>2026-04-18T14:52:31.998Z</time></trkpt><trkpt lat="44.91498562982848" lon="10.061913870360165"><ele>48.0</ele><time>2026-04-18T14:52:32.998Z</time></trkpt><trkpt lat="44.915064318521615" lon="10.061961855959382"><ele>48.0</ele><time>2026-04-18T14:52:34Z</time></trkpt><trkpt lat="44.91514270415537" lon="10.062009656728797"><ele>48.0</ele><time>2026-04-18T14:52:35Z</time></trkpt><trkpt lat="44.91522062937035" lon="10.062057176779486"><ele>48.0</ele><time>2026-04-18T14:52:36Z</time></trkpt><trkpt lat="44.91529959789517" lon="10.062105986903473"><ele>48.0</ele><time>2026-04-18T14:52:37Z</time></trkpt><trkpt lat="44.9153798291072" lon="10.062156013343982"><ele>48.0</ele><time>2026-04-18T14:52:38Z</time></trkpt><trkpt lat="44.915455457801215" lon="10.062203170164041"><ele>48.0</ele><time>2026-04-18T14:52:39Z</time></trkpt><trkpt lat="44.91553217606118" lon="10.062251006217464"><ele>48.0</ele><time>2026-04-18T14:52:40Z</time></trkpt><trkpt lat="44.91561252291325" lon="10.062300862680754"><ele>48.0</ele><time>2026-04-18T14:52:41Z</time></trkpt><trkpt lat="44.91568685910225" lon="10.062345724803185"><ele>48.0</ele><time>2026-04-18T14:52:42Z</time></trkpt><trkpt lat="44.915758938189576" lon="10.062389223073422"><ele>48.0</ele><time>2026-04-18T14:52:43Z</time></trkpt><trkpt lat="44.91583804442808" lon="10.062436962012402"><ele>48.0</ele><time>2026-04-18T14:52:44Z</time></trkpt><trkpt lat="44.91591155190297" lon="10.062481322248631"><ele>48.0</ele><time>2026-04-18T14:52:45Z</time></trkpt><trkpt lat="44.91598681327517" lon="10.06252815898905"><ele>48.0</ele><time>2026-04-18T14:52:46Z</time></trkpt><trkpt lat="44.91606156755512" lon="10.06257527188718"><ele>48.0</ele><time>2026-04-18T14:52:47Z</time></trkpt><trkpt lat="44.916138554189864" lon="10.062623791717654"><ele>47.666666666666664</ele><time>2026-04-18T14:52:48Z</time></trkpt><trkpt lat="44.916209629477066" lon="10.062668586042172"><ele>47.333333333333336</ele><time>2026-04-18T14:52:49Z</time></trkpt><trkpt lat="44.916279706562364" lon="10.062713697718342"><ele>47.0</ele><time>2026-04-18T14:52:50Z</time></trkpt><trkpt lat="44.916353328461284" lon="10.062761070732176"><ele>46.66666666666667</ele><time>2026-04-18T14:52:51Z</time></trkpt><trkpt lat="44.91642866891756" lon="10.062809549588145"><ele>46.333333333333336</ele><time>2026-04-18T14:52:52Z</time></trkpt><trkpt lat="44.916498461435125" lon="10.062858315491479"><ele>46.0</ele><time>2026-04-18T14:52:53Z</time></trkpt><trkpt lat="44.91656835073741" lon="10.062909785051385"><ele>46.0</ele><time>2026-04-18T14:52:54Z</time></trkpt><trkpt lat="44.91663895312824" lon="10.062966732512226"><ele>46.0</ele><time>2026-04-18T14:52:55Z</time></trkpt><trkpt lat="44.916706018391274" lon="10.063024523804705"><ele>46.0</ele><time>2026-04-18T14:52:56Z</time></trkpt><trkpt lat="44.9167706740422" lon="10.06308134000996"><ele>46.0</ele><time>2026-04-18T14:52:57Z</time></trkpt><trkpt lat="44.916837586959716" lon="10.063140067254135"><ele>46.0</ele><time>2026-04-18T14:52:58Z</time></trkpt><trkpt lat="44.916901861063344" lon="10.063195227310072"><ele>46.0</ele><time>2026-04-18T14:52:59Z</time></trkpt><trkpt lat="44.91696139967" lon="10.063246323302213"><ele>46.0</ele><time>2026-04-18T14:53:00Z</time></trkpt><trkpt lat="44.91702168246036" lon="10.063298058044403"><ele>46.0</ele><time>2026-04-18T14:53:01Z</time></trkpt><trkpt lat="44.91708227361563" lon="10.063350057400237"><ele>46.0</ele><time>2026-04-18T14:53:02Z</time></trkpt><trkpt lat="44.917142145873456" lon="10.063401439729956"><ele>46.0</ele><time>2026-04-18T14:53:03Z</time></trkpt><trkpt lat="44.91720149304998" lon="10.063452371509575"><ele>46.0</ele><time>2026-04-18T14:53:04Z</time></trkpt><trkpt lat="44.91725620500092" lon="10.063499337027599"><ele>46.0</ele><time>2026-04-18T14:53:05Z</time></trkpt><trkpt lat="44.917320255956845" lon="10.063554542319949"><ele>46.0</ele><time>2026-04-18T14:53:06Z</time></trkpt><trkpt lat="44.917383245787896" lon="10.06360883306813"><ele>46.0</ele><time>2026-04-18T14:53:07Z</time></trkpt><trkpt lat="44.91744246668168" lon="10.063659875274578"><ele>46.0</ele><time>2026-04-18T14:53:07.999Z</time></trkpt><trkpt lat="44.91750481078213" lon="10.063713609404028"><ele>46.0</ele><time>2026-04-18T14:53:08.999Z</time></trkpt><trkpt lat="44.91757479204574" lon="10.063773925979397"><ele>46.0</ele><time>2026-04-18T14:53:09.999Z</time></trkpt><trkpt lat="44.917645418249634" lon="10.06383479846877"><ele>46.0</ele><time>2026-04-18T14:53:10.999Z</time></trkpt><trkpt lat="44.917715362849094" lon="10.063895083393604"><ele>46.0</ele><time>2026-04-18T14:53:11.999Z</time></trkpt><trkpt lat="44.917788329773735" lon="10.063957973380665"><ele>46.0</ele><time>2026-04-18T14:53:12.999Z</time></trkpt><trkpt lat="44.91785964730553" lon="10.06401944160395"><ele>46.0</ele><time>2026-04-18T14:53:13.999Z</time></trkpt><trkpt lat="44.91793391956354" lon="10.06408345651114"><ele>46.0</ele><time>2026-04-18T14:53:14.999Z</time></trkpt><trkpt lat="44.91800682854438" lon="10.064146296562678"><ele>46.0</ele><time>2026-04-18T14:53:15.999Z</time></trkpt><trkpt lat="44.91807923704034" lon="10.064208705182873"><ele>46.0</ele><time>2026-04-18T14:53:16.999Z</time></trkpt><trkpt lat="44.91815008168677" lon="10.064269749830437"><ele>46.0</ele><time>2026-04-18T14:53:17.999Z</time></trkpt><trkpt lat="44.9182224819052" lon="10.064332091772851"><ele>46.16666666666667</ele><time>2026-04-18T14:53:18.999Z</time></trkpt><trkpt lat="44.91829537532944" lon="10.064394858377256"><ele>46.333333333333336</ele><time>2026-04-18T14:53:19.999Z</time></trkpt><trkpt lat="44.918366725957924" lon="10.064456296475084"><ele>46.5</ele><time>2026-04-18T14:53:20.999Z</time></trkpt><trkpt lat="44.9184357762317" lon="10.06451510177623"><ele>46.666666666666664</ele><time>2026-04-18T14:53:21.999Z</time></trkpt><trkpt lat="44.91851131608231" lon="10.064574528578653"><ele>46.83333333333333</ele><time>2026-04-18T14:53:22.999Z</time></trkpt><trkpt lat="44.91858275534921" lon="10.064624876321608"><ele>47.0</ele><time>2026-04-18T14:53:23.999Z</time></trkpt><trkpt lat="44.918662485875124" lon="10.064673456464579"><ele>47.0</ele><time>2026-04-18T14:53:24.999Z</time></trkpt><trkpt lat="44.91873845262053" lon="10.064708999753027"><ele>47.0</ele><time>2026-04-18T14:53:25.999Z</time></trkpt><trkpt lat="44.91881824904112" lon="10.064739979713176"><ele>47.0</ele><time>2026-04-18T14:53:26.999Z</time></trkpt><trkpt lat="44.91889530703342" lon="10.064768169957356"><ele>47.0</ele><time>2026-04-18T14:53:27.999Z</time></trkpt><trkpt lat="44.91897469487017" lon="10.064796191912343"><ele>47.0</ele><time>2026-04-18T14:53:28.999Z</time></trkpt><trkpt lat="44.91905635550145" lon="10.064825706765815"><ele>47.0</ele><time>2026-04-18T14:53:29.999Z</time></trkpt><trkpt lat="44.919149183381286" lon="10.064840293224941"><ele>47.0</ele><time>2026-04-18T14:53:30.999Z</time></trkpt><trkpt lat="44.91923302115073" lon="10.064871329349387"><ele>47.0</ele><time>2026-04-18T14:53:31.999Z</time></trkpt><trkpt lat="44.91931752744642" lon="10.064924238157655"><ele>47.0</ele><time>2026-04-18T14:53:32.999Z</time></trkpt><trkpt lat="44.919403850077344" lon="10.064956804801739"><ele>47.0</ele><time>2026-04-18T14:53:33.999Z</time></trkpt><trkpt lat="44.91949238214536" lon="10.064989443339124"><ele>47.0</ele><time>2026-04-18T14:53:34.999Z</time></trkpt><trkpt lat="44.91958065449993" lon="10.065020783910404"><ele>47.400000000000006</ele><time>2026-04-18T14:53:35.999Z</time></trkpt><trkpt lat="44.919668731263435" lon="10.065052216594555"><ele>47.800000000000004</ele><time>2026-04-18T14:53:36.999Z</time></trkpt><trkpt lat="44.91975792692187" lon="10.065086122890069"><ele>48.2</ele><time>2026-04-18T14:53:37.999Z</time></trkpt><trkpt lat="44.91984753584396" lon="10.065120128045814"><ele>48.6</ele><time>2026-04-18T14:53:38.999Z</time></trkpt><trkpt lat="44.919933284599665" lon="10.065152627137111"><ele>49.0</ele><time>2026-04-18T14:53:39.999Z</time></trkpt><trkpt lat="44.92001924292936" lon="10.065185205561937"><ele>48.666666666666664</ele><time>2026-04-18T14:53:40.999Z</time></trkpt><trkpt lat="44.920101324071666" lon="10.065216314689874"><ele>48.33333333333333</ele><time>2026-04-18T14:53:41.999Z</time></trkpt><trkpt lat="44.92018555160092" lon="10.065248237118297"><ele>48.0</ele><time>2026-04-18T14:53:42.999Z</time></trkpt><trkpt lat="44.92026809631855" lon="10.065279523642875"><ele>47.666666666666664</ele><time>2026-04-18T14:53:43.999Z</time></trkpt><trkpt lat="44.92035089659986" lon="10.065310905203793"><ele>47.33333333333333</ele><time>2026-04-18T14:53:44.999Z</time></trkpt><trkpt lat="44.920437212342044" lon="10.065343619096073"><ele>47.0</ele><time>2026-04-18T14:53:45.999Z</time></trkpt><trkpt lat="44.92052020298243" lon="10.065373971055386"><ele>47.0</ele><time>2026-04-18T14:53:46.999Z</time></trkpt><trkpt lat="44.92060359717482" lon="10.06540409673734"><ele>47.0</ele><time>2026-04-18T14:53:47.999Z</time></trkpt><trkpt lat="44.92068496384486" lon="10.065433489899911"><ele>47.0</ele><time>2026-04-18T14:53:48.999Z</time></trkpt><trkpt lat="44.92076714719143" lon="10.065463178081357"><ele>47.0</ele><time>2026-04-18T14:53:49.999Z</time></trkpt><trkpt lat="44.92084974832061" lon="10.065493017209294"><ele>47.0</ele><time>2026-04-18T14:53:50.999Z</time></trkpt><trkpt lat="44.92093862718893" lon="10.065525124129284"><ele>47.0</ele><time>2026-04-18T14:53:51.999Z</time></trkpt><trkpt lat="44.92101925099222" lon="10.06555518234849"><ele>46.666666666666664</ele><time>2026-04-18T14:53:52.999Z</time></trkpt><trkpt lat="44.92110241840813" lon="10.065586214333743"><ele>46.33333333333333</ele><time>2026-04-18T14:53:53.999Z</time></trkpt><trkpt lat="44.92118634502699" lon="10.065617529521209"><ele>46.0</ele><time>2026-04-18T14:53:54.999Z</time></trkpt><trkpt lat="44.92126920880213" lon="10.065648448189789"><ele>45.666666666666664</ele><time>2026-04-18T14:53:55.999Z</time></trkpt><trkpt lat="44.92135099510488" lon="10.065678964803995"><ele>45.333333333333336</ele><time>2026-04-18T14:53:56.999Z</time></trkpt><trkpt lat="44.92143449414881" lon="10.065710120494481"><ele>45.0</ele><time>2026-04-18T14:53:57.999Z</time></trkpt><trkpt lat="44.921518660549424" lon="10.065741265922068"><ele>45.0</ele><time>2026-04-18T14:53:58.999Z</time></trkpt><trkpt lat="44.92160194354172" lon="10.065771451283862"><ele>45.0</ele><time>2026-04-18T14:53:59.999Z</time></trkpt><trkpt lat="44.92168636829214" lon="10.065802050473815"><ele>45.0</ele><time>2026-04-18T14:54:00.999Z</time></trkpt><trkpt lat="44.92177062207487" lon="10.065832587702483"><ele>45.0</ele><time>2026-04-18T14:54:01.999Z</time></trkpt><trkpt lat="44.92185452149529" lon="10.065862996491324"><ele>45.0</ele><time>2026-04-18T14:54:02.999Z</time></trkpt><trkpt lat="44.92193852084506" lon="10.065893441500341"><ele>45.0</ele><time>2026-04-18T14:54:03.999Z</time></trkpt><trkpt lat="44.92202087926611" lon="10.065923291758896"><ele>45.333333333333336</ele><time>2026-04-18T14:54:04.999Z</time></trkpt><trkpt lat="44.922108625225015" lon="10.065931731024301"><ele>45.666666666666664</ele><time>2026-04-18T14:54:05.999Z</time></trkpt><trkpt lat="44.92218685884201" lon="10.065981092257836"><ele>46.0</ele><time>2026-04-18T14:54:06.999Z</time></trkpt><trkpt lat="44.922271278398725" lon="10.06600643168756"><ele>46.33333333333333</ele><time>2026-04-18T14:54:07.998Z</time></trkpt><trkpt lat="44.92235414586102" lon="10.066026308062538"><ele>46.666666666666664</ele><time>2026-04-18T14:54:08.998Z</time></trkpt><trkpt lat="44.922438035396816" lon="10.066042604251342"><ele>47.0</ele><time>2026-04-18T14:54:09.998Z</time></trkpt><trkpt lat="44.92252475237224" lon="10.066056266237661"><ele>46.6</ele><time>2026-04-18T14:54:10.998Z</time></trkpt><trkpt lat="44.922628268732446" lon="10.066045745272564"><ele>46.2</ele><time>2026-04-18T14:54:11.998Z</time></trkpt><trkpt lat="44.922720166361046" lon="10.066050634585787"><ele>45.8</ele><time>2026-04-18T14:54:12.998Z</time></trkpt><trkpt lat="44.92281077337698" lon="10.06605522270183"><ele>45.4</ele><time>2026-04-18T14:54:13.998Z</time></trkpt><trkpt lat="44.922900831741735" lon="10.066052258282413"><ele>45.0</ele><time>2026-04-18T14:54:14.998Z</time></trkpt><trkpt lat="44.92299243647043" lon="10.066051538840506"><ele>45.0</ele><time>2026-04-18T14:54:15.998Z</time></trkpt><trkpt lat="44.92308014984952" lon="10.06604526085522"><ele>45.0</ele><time>2026-04-18T14:54:16.998Z</time></trkpt><trkpt lat="44.92316553660093" lon="10.066043350983339"><ele>45.0</ele><time>2026-04-18T14:54:17.998Z</time></trkpt><trkpt lat="44.92325279002151" lon="10.066042377289916"><ele>45.0</ele><time>2026-04-18T14:54:18.998Z</time></trkpt><trkpt lat="44.92334012307674" lon="10.06605457613397"><ele>45.0</ele><time>2026-04-18T14:54:19.998Z</time></trkpt><trkpt lat="44.92343020644619" lon="10.066051313654308"><ele>45.0</ele><time>2026-04-18T14:54:20.998Z</time></trkpt><trkpt lat="44.923520883514" lon="10.066048029683888"><ele>45.166666666666664</ele><time>2026-04-18T14:54:21.998Z</time></trkpt><trkpt lat="44.92360883919987" lon="10.066044844255266"><ele>45.333333333333336</ele><time>2026-04-18T14:54:22.998Z</time></trkpt><trkpt lat="44.92369565353122" lon="10.066041700166368"><ele>45.5</ele><time>2026-04-18T14:54:23.998Z</time></trkpt><trkpt lat="44.92378111756064" lon="10.06603860498262"><ele>45.66666666666667</ele><time>2026-04-18T14:54:24.998Z</time></trkpt><trkpt lat="44.9238689390403" lon="10.066035424428845"><ele>45.833333333333336</ele><time>2026-04-18T14:54:25.998Z</time></trkpt><trkpt lat="44.92395826677822" lon="10.066032189313473"><ele>46.0</ele><time>2026-04-18T14:54:26.998Z</time></trkpt><trkpt lat="44.92404983672985" lon="10.066028872992486"><ele>46.0</ele><time>2026-04-18T14:54:27.998Z</time></trkpt><trkpt lat="44.92414319297431" lon="10.06602549198258"><ele>46.0</ele><time>2026-04-18T14:54:28.998Z</time></trkpt><trkpt lat="44.92422092466059" lon="10.066022676856827"><ele>46.0</ele><time>2026-04-18T14:54:29.998Z</time></trkpt><trkpt lat="44.9243140824488" lon="10.066019328038546"><ele>46.0</ele><time>2026-04-18T14:54:30.998Z</time></trkpt><trkpt lat="44.92440258514816" lon="10.065995133941094"><ele>46.0</ele><time>2026-04-18T14:54:31.998Z</time></trkpt><trkpt lat="44.92449073501286" lon="10.06600728530324"><ele>46.0</ele><time>2026-04-18T14:54:32.998Z</time></trkpt><trkpt lat="44.924575748668396" lon="10.066017581386028"><ele>45.66666666666667</ele><time>2026-04-18T14:54:33.998Z</time></trkpt><trkpt lat="44.92466070757014" lon="10.066032144475507"><ele>45.333333333333336</ele><time>2026-04-18T14:54:34.998Z</time></trkpt><trkpt lat="44.92474531878425" lon="10.066044294716379"><ele>45.0</ele><time>2026-04-18T14:54:35.998Z</time></trkpt><trkpt lat="44.924832367196224" lon="10.066024125890356"><ele>44.666666666666664</ele><time>2026-04-18T14:54:36.998Z</time></trkpt><trkpt lat="44.924921333706386" lon="10.066020926144015"><ele>44.33333333333333</ele><time>2026-04-18T14:54:37.998Z</time></trkpt><trkpt lat="44.925010746018046" lon="10.066017710361582"><ele>44.0</ele><time>2026-04-18T14:54:39Z</time></trkpt><trkpt lat="44.92509364150898" lon="10.066014732887202"><ele>44.0</ele><time>2026-04-18T14:54:40Z</time></trkpt><trkpt lat="44.92525892754805" lon="10.0659648293209"><ele>44.0</ele><time>2026-04-18T14:54:41Z</time></trkpt><trkpt lat="44.92534933525722" lon="10.065982096314784"><ele>44.0</ele><time>2026-04-18T14:54:42Z</time></trkpt><trkpt lat="44.92544360243424" lon="10.065977616420687"><ele>44.0</ele><time>2026-04-18T14:54:43Z</time></trkpt><trkpt lat="44.92552985250051" lon="10.065971939943042"><ele>44.0</ele><time>2026-04-18T14:54:44Z</time></trkpt><trkpt lat="44.92562528181506" lon="10.065965659338925"><ele>44.0</ele><time>2026-04-18T14:54:45Z</time></trkpt><trkpt lat="44.925719235144676" lon="10.06595800105678"><ele>44.0</ele><time>2026-04-18T14:54:46Z</time></trkpt><trkpt lat="44.925807212293726" lon="10.065949382158545"><ele>44.0</ele><time>2026-04-18T14:54:47Z</time></trkpt><trkpt lat="44.92589113503247" lon="10.065941160459692"><ele>44.0</ele><time>2026-04-18T14:54:48Z</time></trkpt><trkpt lat="44.92597056924993" lon="10.06593221956543"><ele>44.0</ele><time>2026-04-18T14:54:49Z</time></trkpt><trkpt lat="44.926055979191545" lon="10.065921906743737"><ele>44.0</ele><time>2026-04-18T14:54:50Z</time></trkpt><trkpt lat="44.926142679865364" lon="10.06591087111661"><ele>44.166666666666664</ele><time>2026-04-18T14:54:51Z</time></trkpt><trkpt lat="44.92622771515185" lon="10.065899885119396"><ele>44.33333333333333</ele><time>2026-04-18T14:54:52Z</time></trkpt><trkpt lat="44.92630964133137" lon="10.065889300800123"><ele>44.5</ele><time>2026-04-18T14:54:53Z</time></trkpt><trkpt lat="44.92639465914883" lon="10.06587824023449"><ele>44.666666666666664</ele><time>2026-04-18T14:54:54Z</time></trkpt><trkpt lat="44.92648059304243" lon="10.065866968120682"><ele>44.833333333333336</ele><time>2026-04-18T14:54:55Z</time></trkpt><trkpt lat="44.926565207002035" lon="10.065832980024839"><ele>45.0</ele><time>2026-04-18T14:54:56Z</time></trkpt><trkpt lat="44.92664448129302" lon="10.065845470585613"><ele>45.0</ele><time>2026-04-18T14:54:57Z</time></trkpt><trkpt lat="44.92672622098561" lon="10.065834748646456"><ele>45.0</ele><time>2026-04-18T14:54:58Z</time></trkpt><trkpt lat="44.92681134338392" lon="10.065823582974923"><ele>45.0</ele><time>2026-04-18T14:54:59Z</time></trkpt><trkpt lat="44.926896586718684" lon="10.065812401446397"><ele>45.0</ele><time>2026-04-18T14:55:00Z</time></trkpt><trkpt lat="44.92697919225268" lon="10.065801565927083"><ele>45.0</ele><time>2026-04-18T14:55:01Z</time></trkpt><trkpt lat="44.927068226165936" lon="10.065789887177608"><ele>45.0</ele><time>2026-04-18T14:55:02Z</time></trkpt><trkpt lat="44.92716003949806" lon="10.065762326159506"><ele>45.0</ele><time>2026-04-18T14:55:03Z</time></trkpt><trkpt lat="44.927245683406746" lon="10.065766899792461"><ele>45.0</ele><time>2026-04-18T14:55:04Z</time></trkpt><trkpt lat="44.92733272403743" lon="10.065755791263072"><ele>45.0</ele><time>2026-04-18T14:55:05Z</time></trkpt><trkpt lat="44.92741399169124" lon="10.065722923274285"><ele>45.0</ele><time>2026-04-18T14:55:06Z</time></trkpt><trkpt lat="44.927499488447125" lon="10.065732091791487"><ele>45.0</ele><time>2026-04-18T14:55:07Z</time></trkpt><trkpt lat="44.92758524817393" lon="10.065726070819444"><ele>45.0</ele><time>2026-04-18T14:55:08Z</time></trkpt><trkpt lat="44.92767861390185" lon="10.06571565781239"><ele>45.0</ele><time>2026-04-18T14:55:09Z</time></trkpt><trkpt lat="44.92776681964767" lon="10.065693859619673"><ele>45.0</ele><time>2026-04-18T14:55:10Z</time></trkpt><trkpt lat="44.92785723908134" lon="10.065678644440666"><ele>45.0</ele><time>2026-04-18T14:55:11Z</time></trkpt><trkpt lat="44.92794809810009" lon="10.065664586482514"><ele>45.0</ele><time>2026-04-18T14:55:12Z</time></trkpt><trkpt lat="44.92803637540523" lon="10.065650629760068"><ele>45.0</ele><time>2026-04-18T14:55:12.999Z</time></trkpt><trkpt lat="44.92812743549223" lon="10.065639001579184"><ele>45.0</ele><time>2026-04-18T14:55:13.999Z</time></trkpt><trkpt lat="44.928220336490995" lon="10.065632985275437"><ele>45.0</ele><time>2026-04-18T14:55:14.999Z</time></trkpt><trkpt lat="44.92831161090805" lon="10.065625643074217"><ele>45.0</ele><time>2026-04-18T14:55:15.999Z</time></trkpt><trkpt lat="44.92840308875689" lon="10.06561731009417"><ele>45.0</ele><time>2026-04-18T14:55:16.999Z</time></trkpt><trkpt lat="44.92849351897732" lon="10.065601810921327"><ele>45.0</ele><time>2026-04-18T14:55:17.999Z</time></trkpt><trkpt lat="44.92858435557713" lon="10.065589550714124"><ele>45.2</ele><time>2026-04-18T14:55:18.999Z</time></trkpt><trkpt lat="44.92867281457714" lon="10.065572118874382"><ele>45.4</ele><time>2026-04-18T14:55:19.999Z</time></trkpt><trkpt lat="44.92876419118498" lon="10.065553619231315"><ele>45.599999999999994</ele><time>2026-04-18T14:55:20.999Z</time></trkpt><trkpt lat="44.92885653210831" lon="10.065541878284138"><ele>45.8</ele><time>2026-04-18T14:55:21.999Z</time></trkpt><trkpt lat="44.928945677886595" lon="10.065530421860581"><ele>46.0</ele><time>2026-04-18T14:55:22.999Z</time></trkpt><trkpt lat="44.929038876498694" lon="10.0655176578136"><ele>46.0</ele><time>2026-04-18T14:55:23.999Z</time></trkpt><trkpt lat="44.92913087434346" lon="10.065506610145047"><ele>46.0</ele><time>2026-04-18T14:55:24.999Z</time></trkpt><trkpt lat="44.92922150881295" lon="10.065493137468728"><ele>46.0</ele><time>2026-04-18T14:55:25.999Z</time></trkpt><trkpt lat="44.92931701887374" lon="10.065486835192162"><ele>46.0</ele><time>2026-04-18T14:55:26.999Z</time></trkpt><trkpt lat="44.92940952689415" lon="10.065473931706574"><ele>46.0</ele><time>2026-04-18T14:55:27.999Z</time></trkpt><trkpt lat="44.92949528408699" lon="10.06548186229434"><ele>45.66666666666667</ele><time>2026-04-18T14:55:28.999Z</time></trkpt><trkpt lat="44.92957778281507" lon="10.065472086656571"><ele>45.333333333333336</ele><time>2026-04-18T14:55:29.999Z</time></trkpt><trkpt lat="44.92965887158351" lon="10.065462478102315"><ele>45.0</ele><time>2026-04-18T14:55:30.999Z</time></trkpt><trkpt lat="44.929734994450136" lon="10.065452862019246"><ele>44.666666666666664</ele><time>2026-04-18T14:55:31.999Z</time></trkpt><trkpt lat="44.92981789149745" lon="10.065419072074754"><ele>44.33333333333333</ele><time>2026-04-18T14:55:32.999Z</time></trkpt><trkpt lat="44.92990150734314" lon="10.065422696876206"><ele>44.0</ele><time>2026-04-18T14:55:33.999Z</time></trkpt><trkpt lat="44.92998559000277" lon="10.065400238775334"><ele>43.83333333333333</ele><time>2026-04-18T14:55:34.999Z</time></trkpt><trkpt lat="44.93006978971311" lon="10.065390308462744"><ele>43.666666666666664</ele><time>2026-04-18T14:55:35.999Z</time></trkpt><trkpt lat="44.930152966349624" lon="10.065379406577424"><ele>43.5</ele><time>2026-04-18T14:55:36.999Z</time></trkpt><trkpt lat="44.930238609776886" lon="10.065368951076092"><ele>43.333333333333336</ele><time>2026-04-18T14:55:37.999Z</time></trkpt><trkpt lat="44.93032319438636" lon="10.065381734164275"><ele>43.16666666666667</ele><time>2026-04-18T14:55:38.999Z</time></trkpt><trkpt lat="44.93040585717739" lon="10.065379134681919"><ele>43.0</ele><time>2026-04-18T14:55:39.999Z</time></trkpt><trkpt lat="44.93048870471329" lon="10.06538051159622"><ele>43.0</ele><time>2026-04-18T14:55:40.999Z</time></trkpt><trkpt lat="44.930568428261644" lon="10.065386528872317"><ele>43.0</ele><time>2026-04-18T14:55:41.999Z</time></trkpt><trkpt lat="44.930648695697684" lon="10.06539440078305"><ele>43.0</ele><time>2026-04-18T14:55:42.999Z</time></trkpt><trkpt lat="44.93074139077586" lon="10.065405682363627"><ele>43.0</ele><time>2026-04-18T14:55:43.999Z</time></trkpt><trkpt lat="44.93082974049527" lon="10.065421527778486"><ele>43.0</ele><time>2026-04-18T14:55:44.999Z</time></trkpt><trkpt lat="44.93091795324706" lon="10.06544068937825"><ele>43.0</ele><time>2026-04-18T14:55:45.999Z</time></trkpt><trkpt lat="44.93100777419937" lon="10.065460184065104"><ele>42.8</ele><time>2026-04-18T14:55:46.999Z</time></trkpt><trkpt lat="44.93109681957448" lon="10.065478438367665"><ele>42.599999999999994</ele><time>2026-04-18T14:55:47.999Z</time></trkpt><trkpt lat="44.93119077195279" lon="10.065497698614504"><ele>42.400000000000006</ele><time>2026-04-18T14:55:48.999Z</time></trkpt><trkpt lat="44.931281552007015" lon="10.06549511984814"><ele>42.2</ele><time>2026-04-18T14:55:49.999Z</time></trkpt><trkpt lat="44.93137379193993" lon="10.065515895699162"><ele>42.0</ele><time>2026-04-18T14:55:50.999Z</time></trkpt><trkpt lat="44.931463957647146" lon="10.06553963479065"><ele>42.0</ele><time>2026-04-18T14:55:51.999Z</time></trkpt><trkpt lat="44.93155519080658" lon="10.065560836199124"><ele>42.0</ele><time>2026-04-18T14:55:52.999Z</time></trkpt><trkpt lat="44.93164680757243" lon="10.065584455405265"><ele>42.0</ele><time>2026-04-18T14:55:53.999Z</time></trkpt><trkpt lat="44.93173924037007" lon="10.06560343035548"><ele>42.0</ele><time>2026-04-18T14:55:54.999Z</time></trkpt><trkpt lat="44.93182829475664" lon="10.065616512259048"><ele>42.0</ele><time>2026-04-18T14:55:55.999Z</time></trkpt><trkpt lat="44.931924287468085" lon="10.065639860065687"><ele>41.8</ele><time>2026-04-18T14:55:56.999Z</time></trkpt><trkpt lat="44.93201903582629" lon="10.065658152979076"><ele>41.6</ele><time>2026-04-18T14:55:57.999Z</time></trkpt><trkpt lat="44.93211091274157" lon="10.065681185897128"><ele>41.4</ele><time>2026-04-18T14:55:58.999Z</time></trkpt><trkpt lat="44.93220094442455" lon="10.065703962021274"><ele>41.199999999999996</ele><time>2026-04-18T14:55:59.999Z</time></trkpt><trkpt lat="44.93229290317388" lon="10.065715597889382"><ele>41.0</ele><time>2026-04-18T14:56:00.999Z</time></trkpt><trkpt lat="44.932382920987244" lon="10.065757969338454"><ele>41.0</ele><time>2026-04-18T14:56:01.999Z</time></trkpt><trkpt lat="44.93247186301067" lon="10.065777073599294"><ele>41.0</ele><time>2026-04-18T14:56:02.999Z</time></trkpt><trkpt lat="44.93256096800373" lon="10.06579616567209"><ele>41.0</ele><time>2026-04-18T14:56:03.999Z</time></trkpt><trkpt lat="44.93264600236129" lon="10.065814385556472"><ele>41.0</ele><time>2026-04-18T14:56:04.999Z</time></trkpt><trkpt lat="44.9327326182982" lon="10.065832944316158"><ele>41.0</ele><time>2026-04-18T14:56:05.999Z</time></trkpt><trkpt lat="44.93281756411705" lon="10.06585114522713"><ele>41.0</ele><time>2026-04-18T14:56:06.999Z</time></trkpt><trkpt lat="44.932903787509616" lon="10.065869619883195"><ele>41.33333333333333</ele><time>2026-04-18T14:56:07.999Z</time></trkpt><trkpt lat="44.932990827910906" lon="10.065888269593794"><ele>41.666666666666664</ele><time>2026-04-18T14:56:08.999Z</time></trkpt><trkpt lat="44.933077925584364" lon="10.065906889015194"><ele>42.0</ele><time>2026-04-18T14:56:09.999Z</time></trkpt><trkpt lat="44.93316646375295" lon="10.065928557452905"><ele>42.333333333333336</ele><time>2026-04-18T14:56:10.999Z</time></trkpt><trkpt lat="44.93325118811497" lon="10.065949190042115"><ele>42.66666666666667</ele><time>2026-04-18T14:56:11.998Z</time></trkpt><trkpt lat="44.93334000765644" lon="10.065973530197157"><ele>43.0</ele><time>2026-04-18T14:56:12.998Z</time></trkpt><trkpt lat="44.933426911750544" lon="10.065997345402648"><ele>43.2</ele><time>2026-04-18T14:56:13.998Z</time></trkpt><trkpt lat="44.93351592470449" lon="10.066021738530653"><ele>43.4</ele><time>2026-04-18T14:56:14.998Z</time></trkpt><trkpt lat="44.933605428516636" lon="10.066042980668918"><ele>43.6</ele><time>2026-04-18T14:56:15.998Z</time></trkpt><trkpt lat="44.93369360086804" lon="10.066062804895314"><ele>43.800000000000004</ele><time>2026-04-18T14:56:16.998Z</time></trkpt><trkpt lat="44.9337824676485" lon="10.066086471195858"><ele>44.0</ele><time>2026-04-18T14:56:17.998Z</time></trkpt><trkpt lat="44.933872000804044" lon="10.066110314930151"><ele>44.0</ele><time>2026-04-18T14:56:18.998Z</time></trkpt><trkpt lat="44.93396250041022" lon="10.066134416082852"><ele>44.0</ele><time>2026-04-18T14:56:19.998Z</time></trkpt><trkpt lat="44.93405305097756" lon="10.066154362599558"><ele>44.0</ele><time>2026-04-18T14:56:20.998Z</time></trkpt><trkpt lat="44.93414286607259" lon="10.066172883482269"><ele>44.0</ele><time>2026-04-18T14:56:21.998Z</time></trkpt><trkpt lat="44.93423085551552" lon="10.066190716441806"><ele>44.0</ele><time>2026-04-18T14:56:22.998Z</time></trkpt><trkpt lat="44.93431770137577" lon="10.066207079428615"><ele>44.0</ele><time>2026-04-18T14:56:23.998Z</time></trkpt><trkpt lat="44.9344073563955" lon="10.066223741889063"><ele>44.0</ele><time>2026-04-18T14:56:24.998Z</time></trkpt><trkpt lat="44.93449624976449" lon="10.066237762144647"><ele>44.0</ele><time>2026-04-18T14:56:25.998Z</time></trkpt><trkpt lat="44.93458569151207" lon="10.06625186887715"><ele>44.0</ele><time>2026-04-18T14:56:26.998Z</time></trkpt><trkpt lat="44.9346785741988" lon="10.066266518327279"><ele>44.0</ele><time>2026-04-18T14:56:27.998Z</time></trkpt><trkpt lat="44.93477129727468" lon="10.06628114257765"><ele>44.0</ele><time>2026-04-18T14:56:28.998Z</time></trkpt><trkpt lat="44.93486136462627" lon="10.066296299633773"><ele>44.0</ele><time>2026-04-18T14:56:29.998Z</time></trkpt><trkpt lat="44.93494475103458" lon="10.066310581772582"><ele>44.0</ele><time>2026-04-18T14:56:30.998Z</time></trkpt><trkpt lat="44.935031690624655" lon="10.06632647356356"><ele>44.0</ele><time>2026-04-18T14:56:31.998Z</time></trkpt><trkpt lat="44.93511589344407" lon="10.066343939559655"><ele>44.0</ele><time>2026-04-18T14:56:32.998Z</time></trkpt><trkpt lat="44.93520607535052" lon="10.066365390845744"><ele>44.0</ele><time>2026-04-18T14:56:33.998Z</time></trkpt><trkpt lat="44.93528778149485" lon="10.066387551405102"><ele>43.666666666666664</ele><time>2026-04-18T14:56:34.998Z</time></trkpt><trkpt lat="44.93536986213079" lon="10.06641197925384"><ele>43.33333333333333</ele><time>2026-04-18T14:56:35.998Z</time></trkpt><trkpt lat="44.935448334947885" lon="10.066436083536411"><ele>43.0</ele><time>2026-04-18T14:56:36.998Z</time></trkpt><trkpt lat="44.935533765672176" lon="10.066462140471131"><ele>42.666666666666664</ele><time>2026-04-18T14:56:37.998Z</time></trkpt><trkpt lat="44.93561907873004" lon="10.066487137878779"><ele>42.333333333333336</ele><time>2026-04-18T14:56:38.998Z</time></trkpt><trkpt lat="44.9357122296675" lon="10.0665144318927"><ele>42.0</ele><time>2026-04-18T14:56:39.998Z</time></trkpt><trkpt lat="44.93580185476116" lon="10.066540692757373"><ele>42.166666666666664</ele><time>2026-04-18T14:56:40.998Z</time></trkpt><trkpt lat="44.93589125092715" lon="10.06656688659391"><ele>42.333333333333336</ele><time>2026-04-18T14:56:41.998Z</time></trkpt><trkpt lat="44.93597809973275" lon="10.066592782805834"><ele>42.5</ele><time>2026-04-18T14:56:42.998Z</time></trkpt><trkpt lat="44.936062730012075" lon="10.06661926061975"><ele>42.66666666666667</ele><time>2026-04-18T14:56:43.998Z</time></trkpt><trkpt lat="44.936149704981844" lon="10.066646472006068"><ele>42.833333333333336</ele><time>2026-04-18T14:56:45Z</time></trkpt><trkpt lat="44.93624098528897" lon="10.066675070798704"><ele>43.0</ele><time>2026-04-18T14:56:46Z</time></trkpt><trkpt lat="44.93632774744999" lon="10.066701626288411"><ele>43.16666666666667</ele><time>2026-04-18T14:56:47Z</time></trkpt><trkpt lat="44.93641254116006" lon="10.06672757926825"><ele>43.333333333333336</ele><time>2026-04-18T14:56:48Z</time></trkpt><trkpt lat="44.93650037769029" lon="10.0667544635908"><ele>43.5</ele><time>2026-04-18T14:56:49Z</time></trkpt><trkpt lat="44.936583654384854" lon="10.066781445939368"><ele>43.666666666666664</ele><time>2026-04-18T14:56:50Z</time></trkpt><trkpt lat="44.9366718282482" lon="10.066810965492449"><ele>43.83333333333333</ele><time>2026-04-18T14:56:51Z</time></trkpt><trkpt lat="44.93675689855591" lon="10.06684158311963"><ele>44.0</ele><time>2026-04-18T14:56:52Z</time></trkpt><trkpt lat="44.9368418123215" lon="10.066872797504884"><ele>43.666666666666664</ele><time>2026-04-18T14:56:53Z</time></trkpt><trkpt lat="44.93692400728146" lon="10.066906103016969"><ele>43.33333333333333</ele><time>2026-04-18T14:56:54Z</time></trkpt><trkpt lat="44.93700716424249" lon="10.066940233869305"><ele>43.0</ele><time>2026-04-18T14:56:55Z</time></trkpt><trkpt lat="44.937090991539314" lon="10.066974934944735"><ele>42.666666666666664</ele><time>2026-04-18T14:56:56Z</time></trkpt><trkpt lat="44.93717569210695" lon="10.067011148141678"><ele>42.333333333333336</ele><time>2026-04-18T14:56:57Z</time></trkpt><trkpt lat="44.93726501580166" lon="10.067049337722224"><ele>42.0</ele><time>2026-04-18T14:56:58Z</time></trkpt><trkpt lat="44.93735352230104" lon="10.067087178202852"><ele>42.0</ele><time>2026-04-18T14:56:59Z</time></trkpt><trkpt lat="44.937440659578066" lon="10.067124433172319"><ele>42.0</ele><time>2026-04-18T14:57:00Z</time></trkpt><trkpt lat="44.93752714240623" lon="10.067161408261342"><ele>42.0</ele><time>2026-04-18T14:57:01Z</time></trkpt><trkpt lat="44.937615761868024" lon="10.067199296786198"><ele>42.0</ele><time>2026-04-18T14:57:02Z</time></trkpt><trkpt lat="44.937703086654686" lon="10.067236631994405"><ele>42.0</ele><time>2026-04-18T14:57:03Z</time></trkpt><trkpt lat="44.93778571594229" lon="10.067271959587924"><ele>42.2</ele><time>2026-04-18T14:57:04Z</time></trkpt><trkpt lat="44.937874692259506" lon="10.067310000770002"><ele>42.400000000000006</ele><time>2026-04-18T14:57:05Z</time></trkpt><trkpt lat="44.93795733869251" lon="10.06734533569308"><ele>42.599999999999994</ele><time>2026-04-18T14:57:06Z</time></trkpt><trkpt lat="44.93804640495103" lon="10.067383415374536"><ele>42.8</ele><time>2026-04-18T14:57:07Z</time></trkpt><trkpt lat="44.93813121803357" lon="10.067419676639377"><ele>43.0</ele><time>2026-04-18T14:57:08Z</time></trkpt><trkpt lat="44.93821942864252" lon="10.06745739045633"><ele>43.0</ele><time>2026-04-18T14:57:09Z</time></trkpt><trkpt lat="44.93830629970859" lon="10.067494531583954"><ele>43.0</ele><time>2026-04-18T14:57:10Z</time></trkpt><trkpt lat="44.938393012991995" lon="10.067531605296693"><ele>43.0</ele><time>2026-04-18T14:57:11Z</time></trkpt><trkpt lat="44.938479783477746" lon="10.067568709432662"><ele>43.0</ele><time>2026-04-18T14:57:12Z</time></trkpt><trkpt lat="44.93856532926984" lon="10.067605295277444"><ele>43.0</ele><time>2026-04-18T14:57:13Z</time></trkpt><trkpt lat="44.938649345709955" lon="10.067642555151012"><ele>43.0</ele><time>2026-04-18T14:57:14Z</time></trkpt><trkpt lat="44.93873135259079" lon="10.06768244515426"><ele>42.66666666666667</ele><time>2026-04-18T14:57:15Z</time></trkpt><trkpt lat="44.93881136260015" lon="10.067727059520703"><ele>42.333333333333336</ele><time>2026-04-18T14:57:15.999Z</time></trkpt><trkpt lat="44.938893402732766" lon="10.0677779308657"><ele>42.0</ele><time>2026-04-18T14:57:16.999Z</time></trkpt><trkpt lat="44.93897341805434" lon="10.067830300368936"><ele>41.666666666666664</ele><time>2026-04-18T14:57:17.999Z</time></trkpt><trkpt lat="44.93904885390091" lon="10.067881823633261"><ele>41.33333333333333</ele><time>2026-04-18T14:57:18.999Z</time></trkpt><trkpt lat="44.93913357842264" lon="10.067940214520585"><ele>41.0</ele><time>2026-04-18T14:57:19.999Z</time></trkpt><trkpt lat="44.939212170764705" lon="10.06799437925232"><ele>40.83333333333333</ele><time>2026-04-18T14:57:20.999Z</time></trkpt><trkpt lat="44.939290283314534" lon="10.068048213345847"><ele>40.666666666666664</ele><time>2026-04-18T14:57:21.999Z</time></trkpt><trkpt lat="44.939369705072146" lon="10.068103412006993"><ele>40.5</ele><time>2026-04-18T14:57:22.999Z</time></trkpt><trkpt lat="44.93944891589616" lon="10.068159208253446"><ele>40.333333333333336</ele><time>2026-04-18T14:57:23.999Z</time></trkpt><trkpt lat="44.939528442419395" lon="10.06821522700923"><ele>40.16666666666667</ele><time>2026-04-18T14:57:24.999Z</time></trkpt><trkpt lat="44.939604265414246" lon="10.068268636877812"><ele>40.0</ele><time>2026-04-18T14:57:25.999Z</time></trkpt><trkpt lat="44.9396856779106" lon="10.068325522064844"><ele>40.333333333333336</ele><time>2026-04-18T14:57:26.999Z</time></trkpt><trkpt lat="44.939763794449824" lon="10.068379274947741"><ele>40.66666666666667</ele><time>2026-04-18T14:57:27.999Z</time></trkpt><trkpt lat="44.93984125844282" lon="10.068432578932569"><ele>41.0</ele><time>2026-04-18T14:57:28.999Z</time></trkpt><trkpt lat="44.939919564513495" lon="10.068486461930778"><ele>41.333333333333336</ele><time>2026-04-18T14:57:29.999Z</time></trkpt><trkpt lat="44.93999610876598" lon="10.068539132876133"><ele>41.666666666666664</ele><time>2026-04-18T14:57:30.999Z</time></trkpt><trkpt lat="44.9400737891867" lon="10.06859407820879"><ele>42.0</ele><time>2026-04-18T14:57:31.999Z</time></trkpt><trkpt lat="44.940152467099765" lon="10.068650657354699"><ele>42.0</ele><time>2026-04-18T14:57:32.999Z</time></trkpt><trkpt lat="44.94022909601944" lon="10.068705762819485"><ele>42.0</ele><time>2026-04-18T14:57:33.999Z</time></trkpt><trkpt lat="44.940308990214724" lon="10.068763216497649"><ele>42.0</ele><time>2026-04-18T14:57:34.999Z</time></trkpt><trkpt lat="44.94038972895304" lon="10.068819728804154"><ele>42.0</ele><time>2026-04-18T14:57:35.999Z</time></trkpt><trkpt lat="44.94046989420994" lon="10.068874621739218"><ele>42.0</ele><time>2026-04-18T14:57:36.999Z</time></trkpt><trkpt lat="44.940547986809406" lon="10.068926575249174"><ele>42.0</ele><time>2026-04-18T14:57:37.999Z</time></trkpt><trkpt lat="44.940627237666575" lon="10.068978241605242"><ele>42.0</ele><time>2026-04-18T14:57:38.999Z</time></trkpt><trkpt lat="44.94070708818191" lon="10.069030298881637"><ele>42.0</ele><time>2026-04-18T14:57:39.999Z</time></trkpt><trkpt lat="44.940784635253436" lon="10.069080563984665"><ele>42.0</ele><time>2026-04-18T14:57:40.999Z</time></trkpt><trkpt lat="44.940861418573476" lon="10.06912863302121"><ele>42.0</ele><time>2026-04-18T14:57:41.999Z</time></trkpt><trkpt lat="44.9409416273296" lon="10.069177632950659"><ele>42.0</ele><time>2026-04-18T14:57:42.999Z</time></trkpt><trkpt lat="44.941024795427694" lon="10.06922681822187"><ele>42.0</ele><time>2026-04-18T14:57:43.999Z</time></trkpt><trkpt lat="44.94110303055288" lon="10.069273086237105"><ele>42.333333333333336</ele><time>2026-04-18T14:57:44.999Z</time></trkpt><trkpt lat="44.94118346921157" lon="10.069320657264042"><ele>42.666666666666664</ele><time>2026-04-18T14:57:45.999Z</time></trkpt><trkpt lat="44.94126583810876" lon="10.069369369886411"><ele>43.0</ele><time>2026-04-18T14:57:46.999Z</time></trkpt><trkpt lat="44.94134312743294" lon="10.069415078439185"><ele>43.33333333333333</ele><time>2026-04-18T14:57:47.999Z</time></trkpt><trkpt lat="44.94142894800728" lon="10.069465832538471"><ele>43.666666666666664</ele><time>2026-04-18T14:57:48.999Z</time></trkpt><trkpt lat="44.94150291672043" lon="10.06950948134764"><ele>44.0</ele><time>2026-04-18T14:57:49.999Z</time></trkpt><trkpt lat="44.94157462525378" lon="10.069551699409327"><ele>44.0</ele><time>2026-04-18T14:57:50.999Z</time></trkpt><trkpt lat="44.94163692080822" lon="10.06958837448633"><ele>44.0</ele><time>2026-04-18T14:57:51.999Z</time></trkpt><trkpt lat="44.94174277046976" lon="10.069649000504658"><ele>44.0</ele><time>2026-04-18T14:57:53.999Z</time></trkpt><trkpt lat="44.941834468148826" lon="10.069700371367896"><ele>44.0</ele><time>2026-04-18T14:57:55.999Z</time></trkpt><trkpt lat="44.94187199238794" lon="10.069538267865175"><ele>44.0</ele><time>2026-04-18T14:57:56.999Z</time></trkpt><trkpt lat="44.941955855078504" lon="10.069434251263695"><ele>44.142857142857146</ele><time>2026-04-18T14:57:58.999Z</time></trkpt><trkpt lat="44.94200568730757" lon="10.069372443289755"><ele>44.285714285714285</ele><time>2026-04-18T14:57:59.999Z</time></trkpt><trkpt lat="44.94205855074996" lon="10.06930687577791"><ele>44.42857142857143</ele><time>2026-04-18T14:58:00.999Z</time></trkpt><trkpt lat="44.942109837280384" lon="10.069243264235704"><ele>44.57142857142857</ele><time>2026-04-18T14:58:01.999Z</time></trkpt><trkpt lat="44.942164908684965" lon="10.069174958111214"><ele>44.714285714285715</ele><time>2026-04-18T14:58:02.999Z</time></trkpt><trkpt lat="44.942226884200025" lon="10.069098088773705"><ele>44.857142857142854</ele><time>2026-04-18T14:58:03.999Z</time></trkpt><trkpt lat="44.94229623720363" lon="10.069040358670724"><ele>45.0</ele><time>2026-04-18T14:58:04.999Z</time></trkpt><trkpt lat="44.94234982655169" lon="10.068957533971973"><ele>45.0</ele><time>2026-04-18T14:58:05.999Z</time></trkpt><trkpt lat="44.942408477531224" lon="10.068885833458543"><ele>45.0</ele><time>2026-04-18T14:58:06.999Z</time></trkpt><trkpt lat="44.94246662836098" lon="10.068807582581897"><ele>45.0</ele><time>2026-04-18T14:58:07.999Z</time></trkpt><trkpt lat="44.94252571402978" lon="10.068730763963256"><ele>45.0</ele><time>2026-04-18T14:58:08.999Z</time></trkpt><trkpt lat="44.9425862117929" lon="10.068658610605377"><ele>45.0</ele><time>2026-04-18T14:58:09.999Z</time></trkpt><trkpt lat="44.94264689021159" lon="10.06857797777113"><ele>45.0</ele><time>2026-04-18T14:58:10.999Z</time></trkpt><trkpt lat="44.94271342096601" lon="10.068509382390692"><ele>44.5</ele><time>2026-04-18T14:58:11.999Z</time></trkpt><trkpt lat="44.94277935053826" lon="10.068431262377237"><ele>44.0</ele><time>2026-04-18T14:58:12.999Z</time></trkpt><trkpt lat="44.94283759718393" lon="10.068350899255025"><ele>43.5</ele><time>2026-04-18T14:58:13.998Z</time></trkpt><trkpt lat="44.942898263879904" lon="10.068269320646184"><ele>43.0</ele><time>2026-04-18T14:58:14.998Z</time></trkpt><trkpt lat="44.94296214643734" lon="10.068187711770273"><ele>42.5</ele><time>2026-04-18T14:58:15.998Z</time></trkpt><trkpt lat="44.9430238919166" lon="10.068111273062403"><ele>42.0</ele><time>2026-04-18T14:58:16.998Z</time></trkpt><trkpt lat="44.9430873845466" lon="10.068033183110144"><ele>42.0</ele><time>2026-04-18T14:58:17.998Z</time></trkpt><trkpt lat="44.94315153461048" lon="10.067949563837804"><ele>42.0</ele><time>2026-04-18T14:58:18.998Z</time></trkpt><trkpt lat="44.94321234316314" lon="10.067873717843392"><ele>42.0</ele><time>2026-04-18T14:58:19.998Z</time></trkpt><trkpt lat="44.943276843224176" lon="10.067798198302908"><ele>42.0</ele><time>2026-04-18T14:58:20.998Z</time></trkpt><trkpt lat="44.9433281993906" lon="10.067713828613629"><ele>42.0</ele><time>2026-04-18T14:58:21.998Z</time></trkpt><trkpt lat="44.94338676124307" lon="10.067638797075572"><ele>42.0</ele><time>2026-04-18T14:58:22.998Z</time></trkpt><trkpt lat="44.94345137114295" lon="10.067569296678352"><ele>41.833333333333336</ele><time>2026-04-18T14:58:23.998Z</time></trkpt><trkpt lat="44.94351336785049" lon="10.067491015946125"><ele>41.666666666666664</ele><time>2026-04-18T14:58:24.998Z</time></trkpt><trkpt lat="44.94358014186526" lon="10.067413614410306"><ele>41.5</ele><time>2026-04-18T14:58:25.998Z</time></trkpt><trkpt lat="44.94364484975956" lon="10.067331531054366"><ele>41.33333333333333</ele><time>2026-04-18T14:58:26.998Z</time></trkpt><trkpt lat="44.94370604409507" lon="10.067253872875211"><ele>41.166666666666664</ele><time>2026-04-18T14:58:27.998Z</time></trkpt><trkpt lat="44.943770451920976" lon="10.067175749092396"><ele>41.0</ele><time>2026-04-18T14:58:28.998Z</time></trkpt><trkpt lat="44.943839290180975" lon="10.06709800020442"><ele>41.0</ele><time>2026-04-18T14:58:29.998Z</time></trkpt><trkpt lat="44.94390077512717" lon="10.067020281825824"><ele>41.0</ele><time>2026-04-18T14:58:30.998Z</time></trkpt><trkpt lat="44.943966178825825" lon="10.06694255381624"><ele>41.0</ele><time>2026-04-18T14:58:31.998Z</time></trkpt><trkpt lat="44.94402262826274" lon="10.066867159279775"><ele>41.0</ele><time>2026-04-18T14:58:32.998Z</time></trkpt><trkpt lat="44.94408210822759" lon="10.066785521683336"><ele>41.0</ele><time>2026-04-18T14:58:33.998Z</time></trkpt><trkpt lat="44.9441487490422" lon="10.066710430263814"><ele>41.0</ele><time>2026-04-18T14:58:34.998Z</time></trkpt><trkpt lat="44.94421205259352" lon="10.06662978164601"><ele>40.83333333333333</ele><time>2026-04-18T14:58:35.998Z</time></trkpt><trkpt lat="44.944278355216" lon="10.066552259348148"><ele>40.666666666666664</ele><time>2026-04-18T14:58:36.998Z</time></trkpt><trkpt lat="44.944339636624285" lon="10.066473146136625"><ele>40.5</ele><time>2026-04-18T14:58:37.998Z</time></trkpt><trkpt lat="44.94440360802906" lon="10.06639614081157"><ele>40.333333333333336</ele><time>2026-04-18T14:58:38.998Z</time></trkpt><trkpt lat="44.94447061301075" lon="10.06631459304029"><ele>40.16666666666667</ele><time>2026-04-18T14:58:39.998Z</time></trkpt><trkpt lat="44.94453663242823" lon="10.066232042731803"><ele>40.0</ele><time>2026-04-18T14:58:40.998Z</time></trkpt><trkpt lat="44.94460299717121" lon="10.066148110662414"><ele>40.0</ele><time>2026-04-18T14:58:41.998Z</time></trkpt><trkpt lat="44.9446690746131" lon="10.066064714026028"><ele>40.0</ele><time>2026-04-18T14:58:42.998Z</time></trkpt><trkpt lat="44.94473997736927" lon="10.065985246835151"><ele>40.0</ele><time>2026-04-18T14:58:43.998Z</time></trkpt><trkpt lat="44.94480712290199" lon="10.065899587469518"><ele>40.0</ele><time>2026-04-18T14:58:44.998Z</time></trkpt><trkpt lat="44.94487644009438" lon="10.065817034329818"><ele>40.0</ele><time>2026-04-18T14:58:45.998Z</time></trkpt><trkpt lat="44.944938178748124" lon="10.065731089008981"><ele>40.0</ele><time>2026-04-18T14:58:46.998Z</time></trkpt><trkpt lat="44.945011340043436" lon="10.065650116343734"><ele>40.16666666666667</ele><time>2026-04-18T14:58:47.998Z</time></trkpt><trkpt lat="44.94507559484072" lon="10.06556665412043"><ele>40.333333333333336</ele><time>2026-04-18T14:58:48.998Z</time></trkpt><trkpt lat="44.945141831234054" lon="10.065484917837153"><ele>40.5</ele><time>2026-04-18T14:58:50Z</time></trkpt><trkpt lat="44.94521108218639" lon="10.065408507048977"><ele>40.666666666666664</ele><time>2026-04-18T14:58:51Z</time></trkpt><trkpt lat="44.945277775597155" lon="10.065325787722749"><ele>40.83333333333333</ele><time>2026-04-18T14:58:52Z</time></trkpt><trkpt lat="44.945341913385434" lon="10.065248032384247"><ele>41.0</ele><time>2026-04-18T14:58:53Z</time></trkpt><trkpt lat="44.94540925336645" lon="10.065170128350367"><ele>40.99999999999999</ele><time>2026-04-18T14:58:54Z</time></trkpt><trkpt lat="44.945471602225446" lon="10.06509436502132"><ele>41.0</ele><time>2026-04-18T14:58:55Z</time></trkpt><trkpt lat="44.94552864283961" lon="10.065025796598032"><ele>41.0</ele><time>2026-04-18T14:58:56Z</time></trkpt><trkpt lat="44.94558102627853" lon="10.064958065748495"><ele>41.0</ele><time>2026-04-18T14:58:57Z</time></trkpt><trkpt lat="44.945633670636255" lon="10.064901284750146"><ele>41.0</ele><time>2026-04-18T14:58:58Z</time></trkpt><trkpt lat="44.94569047874939" lon="10.064844112875337"><ele>40.99999999999999</ele><time>2026-04-18T14:58:59Z</time></trkpt><trkpt lat="44.945750273344636" lon="10.064798478161388"><ele>41.0</ele><time>2026-04-18T14:59:00Z</time></trkpt><trkpt lat="44.9458144353562" lon="10.064783050915823"><ele>41.0</ele><time>2026-04-18T14:59:01Z</time></trkpt><trkpt lat="44.94587591520793" lon="10.064820033355746"><ele>41.0</ele><time>2026-04-18T14:59:02Z</time></trkpt><trkpt lat="44.94594231935753" lon="10.06484229961162"><ele>41.0</ele><time>2026-04-18T14:59:03Z</time></trkpt><trkpt lat="44.94600795446595" lon="10.064893275994155"><ele>41.0</ele><time>2026-04-18T14:59:04Z</time></trkpt><trkpt lat="44.94608648813926" lon="10.064932800671745"><ele>41.0</ele><time>2026-04-18T14:59:05Z</time></trkpt><trkpt lat="44.9461659588972" lon="10.064972796794132"><ele>41.0</ele><time>2026-04-18T14:59:06Z</time></trkpt><trkpt lat="44.94624666135877" lon="10.065013414688016"><ele>40.83333333333333</ele><time>2026-04-18T14:59:07Z</time></trkpt><trkpt lat="44.94632527613073" lon="10.065052980001926"><ele>40.666666666666664</ele><time>2026-04-18T14:59:08Z</time></trkpt><trkpt lat="44.94640712888768" lon="10.065094174928838"><ele>40.5</ele><time>2026-04-18T14:59:09Z</time></trkpt><trkpt lat="44.946486645679066" lon="10.065134194260743"><ele>40.333333333333336</ele><time>2026-04-18T14:59:10Z</time></trkpt><trkpt lat="44.94656768992335" lon="10.06517521456128"><ele>40.16666666666667</ele><time>2026-04-18T14:59:11Z</time></trkpt><trkpt lat="44.946649234060686" lon="10.065216807557956"><ele>40.0</ele><time>2026-04-18T14:59:12Z</time></trkpt><trkpt lat="44.94672816223396" lon="10.065257066209483"><ele>39.833333333333336</ele><time>2026-04-18T14:59:13Z</time></trkpt><trkpt lat="44.94680933871474" lon="10.065298471673769"><ele>39.66666666666667</ele><time>2026-04-18T14:59:14Z</time></trkpt><trkpt lat="44.946887158211524" lon="10.065338164821066"><ele>39.5</ele><time>2026-04-18T14:59:15Z</time></trkpt><trkpt lat="44.94696720448423" lon="10.065378993797625"><ele>39.333333333333336</ele><time>2026-04-18T14:59:16Z</time></trkpt><trkpt lat="44.94705372080574" lon="10.06542312337433"><ele>39.166666666666664</ele><time>2026-04-18T14:59:17Z</time></trkpt><trkpt lat="44.94713323397338" lon="10.065463952777904"><ele>39.0</ele><time>2026-04-18T14:59:18Z</time></trkpt><trkpt lat="44.94721549063982" lon="10.065506116764565"><ele>39.0</ele><time>2026-04-18T14:59:19Z</time></trkpt><trkpt lat="44.94730229268553" lon="10.06555061068531"><ele>39.0</ele><time>2026-04-18T14:59:19.999Z</time></trkpt><trkpt lat="44.947385819639024" lon="10.065593836919462"><ele>39.0</ele><time>2026-04-18T14:59:20.999Z</time></trkpt><trkpt lat="44.947470754659406" lon="10.065639649489968"><ele>39.0</ele><time>2026-04-18T14:59:21.999Z</time></trkpt><trkpt lat="44.94755405993728" lon="10.065686301457692"><ele>39.0</ele><time>2026-04-18T14:59:22.999Z</time></trkpt><trkpt lat="44.9476351493345" lon="10.065733700993915"><ele>38.8</ele><time>2026-04-18T14:59:23.999Z</time></trkpt><trkpt lat="44.94771831673116" lon="10.065784079609868"><ele>38.599999999999994</ele><time>2026-04-18T14:59:24.999Z</time></trkpt><trkpt lat="44.94779884571013" lon="10.065833704714445"><ele>38.4</ele><time>2026-04-18T14:59:25.999Z</time></trkpt><trkpt lat="44.94788172492763" lon="10.065884778156333"><ele>38.199999999999996</ele><time>2026-04-18T14:59:26.999Z</time></trkpt><trkpt lat="44.94796515044836" lon="10.065936188212769"><ele>38.0</ele><time>2026-04-18T14:59:27.999Z</time></trkpt><trkpt lat="44.948048707113514" lon="10.065987679130155"><ele>38.0</ele><time>2026-04-18T14:59:28.999Z</time></trkpt><trkpt lat="44.94813086427045" lon="10.066038307630379"><ele>38.0</ele><time>2026-04-18T14:59:29.999Z</time></trkpt><trkpt lat="44.94821297404628" lon="10.066088384214899"><ele>38.0</ele><time>2026-04-18T14:59:30.999Z</time></trkpt><trkpt lat="44.94830395887385" lon="10.066122924883333"><ele>38.0</ele><time>2026-04-18T14:59:31.999Z</time></trkpt><trkpt lat="44.948390020806904" lon="10.066169550462098"><ele>38.0</ele><time>2026-04-18T14:59:32.999Z</time></trkpt><trkpt lat="44.94846895584501" lon="10.06624162044923"><ele>38.199999999999996</ele><time>2026-04-18T14:59:33.999Z</time></trkpt><trkpt lat="44.94855714012346" lon="10.06627118085937"><ele>38.4</ele><time>2026-04-18T14:59:34.999Z</time></trkpt><trkpt lat="44.94863981404129" lon="10.066321662882906"><ele>38.599999999999994</ele><time>2026-04-18T14:59:35.999Z</time></trkpt><trkpt lat="44.948724088894295" lon="10.066373353894143"><ele>38.8</ele><time>2026-04-18T14:59:36.999Z</time></trkpt><trkpt lat="44.94880765409939" lon="10.066434527980999"><ele>39.0</ele><time>2026-04-18T14:59:37.999Z</time></trkpt><trkpt lat="44.94889560620129" lon="10.066471682585966"><ele>39.0</ele><time>2026-04-18T14:59:38.999Z</time></trkpt><trkpt lat="44.94897972392511" lon="10.066522870607608"><ele>39.0</ele><time>2026-04-18T14:59:39.999Z</time></trkpt><trkpt lat="44.94905819337645" lon="10.066584451618098"><ele>39.0</ele><time>2026-04-18T14:59:40.999Z</time></trkpt><trkpt lat="44.94914749989019" lon="10.066602313482697"><ele>39.0</ele><time>2026-04-18T14:59:41.999Z</time></trkpt><trkpt lat="44.94923259250891" lon="10.066644512340497"><ele>39.0</ele><time>2026-04-18T14:59:42.999Z</time></trkpt><trkpt lat="44.9493197042798" lon="10.066669776639461"><ele>39.333333333333336</ele><time>2026-04-18T14:59:43.999Z</time></trkpt><trkpt lat="44.94940813988474" lon="10.06669717486841"><ele>39.666666666666664</ele><time>2026-04-18T14:59:44.999Z</time></trkpt><trkpt lat="44.949492676944594" lon="10.066713210455736"><ele>40.0</ele><time>2026-04-18T14:59:45.999Z</time></trkpt><trkpt lat="44.94958094929372" lon="10.066731918560624"><ele>40.33333333333333</ele><time>2026-04-18T14:59:46.999Z</time></trkpt><trkpt lat="44.94966593230933" lon="10.066749520795051"><ele>40.666666666666664</ele><time>2026-04-18T14:59:47.999Z</time></trkpt><trkpt lat="44.94974608311786" lon="10.066789148202089"><ele>41.0</ele><time>2026-04-18T14:59:48.999Z</time></trkpt><trkpt lat="44.94982709735968" lon="10.066808486206526"><ele>41.0</ele><time>2026-04-18T14:59:49.999Z</time></trkpt><trkpt lat="44.94990716706154" lon="10.066827598689374"><ele>41.0</ele><time>2026-04-18T14:59:50.999Z</time></trkpt><trkpt lat="44.94998791760259" lon="10.066852408933475"><ele>41.0</ele><time>2026-04-18T14:59:51.999Z</time></trkpt><trkpt lat="44.950075207886776" lon="10.066861749845454"><ele>41.0</ele><time>2026-04-18T14:59:52.999Z</time></trkpt><trkpt lat="44.95015697227036" lon="10.066897634248539"><ele>41.0</ele><time>2026-04-18T14:59:53.999Z</time></trkpt><trkpt lat="44.95023166120957" lon="10.066956730754232"><ele>41.0</ele><time>2026-04-18T14:59:54.999Z</time></trkpt><trkpt lat="44.95031864864014" lon="10.067000668693092"><ele>41.33333333333333</ele><time>2026-04-18T14:59:55.999Z</time></trkpt><trkpt lat="44.95040368032489" lon="10.067045055968457"><ele>41.666666666666664</ele><time>2026-04-18T14:59:56.999Z</time></trkpt><trkpt lat="44.95048949716725" lon="10.06707123809506"><ele>42.0</ele><time>2026-04-18T14:59:57.999Z</time></trkpt><trkpt lat="44.950569995001786" lon="10.067113829285518"><ele>42.333333333333336</ele><time>2026-04-18T14:59:58.999Z</time></trkpt><trkpt lat="44.95064756547443" lon="10.06718162910867"><ele>42.66666666666667</ele><time>2026-04-18T14:59:59.999Z</time></trkpt><trkpt lat="44.95072354419671" lon="10.067225431710012"><ele>43.0</ele><time>2026-04-18T15:00:00.999Z</time></trkpt><trkpt lat="44.95080495420005" lon="10.06727457263084"><ele>42.5</ele><time>2026-04-18T15:00:01.999Z</time></trkpt><trkpt lat="44.950885472083776" lon="10.067322816905818"><ele>42.0</ele><time>2026-04-18T15:00:02.999Z</time></trkpt><trkpt lat="44.95096588636614" lon="10.067371000831946"><ele>41.5</ele><time>2026-04-18T15:00:03.999Z</time></trkpt><trkpt lat="44.951051501528546" lon="10.067422299253163"><ele>41.0</ele><time>2026-04-18T15:00:04.999Z</time></trkpt><trkpt lat="44.95113162783801" lon="10.067470059191786"><ele>40.5</ele><time>2026-04-18T15:00:05.999Z</time></trkpt><trkpt lat="44.95121257348731" lon="10.067516896194835"><ele>40.0</ele><time>2026-04-18T15:00:06.999Z</time></trkpt><trkpt lat="44.951292890981655" lon="10.06756336973068"><ele>40.0</ele><time>2026-04-18T15:00:07.999Z</time></trkpt><trkpt lat="44.951370923781575" lon="10.067607750989534"><ele>40.0</ele><time>2026-04-18T15:00:08.999Z</time></trkpt><trkpt lat="44.95144928408006" lon="10.067652027245126"><ele>40.0</ele><time>2026-04-18T15:00:09.999Z</time></trkpt><trkpt lat="44.951525110202155" lon="10.067694871871087"><ele>40.0</ele><time>2026-04-18T15:00:10.999Z</time></trkpt><trkpt lat="44.951601317907155" lon="10.067737961658276"><ele>40.0</ele><time>2026-04-18T15:00:11.999Z</time></trkpt><trkpt lat="44.95167698956189" lon="10.067780742198321"><ele>40.0</ele><time>2026-04-18T15:00:12.999Z</time></trkpt><trkpt lat="44.95175376072393" lon="10.067824144300904"><ele>40.16666666666667</ele><time>2026-04-18T15:00:13.999Z</time></trkpt><trkpt lat="44.95183490434587" lon="10.067870018375263"><ele>40.333333333333336</ele><time>2026-04-18T15:00:14.999Z</time></trkpt><trkpt lat="44.951914562038866" lon="10.067915052378774"><ele>40.5</ele><time>2026-04-18T15:00:15.999Z</time></trkpt><trkpt lat="44.95199484298079" lon="10.067961098319744"><ele>40.666666666666664</ele><time>2026-04-18T15:00:16.998Z</time></trkpt><trkpt lat="44.95207722593657" lon="10.068008891007805"><ele>40.83333333333333</ele><time>2026-04-18T15:00:17.998Z</time></trkpt><trkpt lat="44.952161620492745" lon="10.068057850675158"><ele>41.0</ele><time>2026-04-18T15:00:18.998Z</time></trkpt><trkpt lat="44.95223860960359" lon="10.068103288058197"><ele>41.0</ele><time>2026-04-18T15:00:19.998Z</time></trkpt><trkpt lat="44.95231806905526" lon="10.068150963747385"><ele>41.0</ele><time>2026-04-18T15:00:20.998Z</time></trkpt><trkpt lat="44.95239619940454" lon="10.068199221042224"><ele>41.0</ele><time>2026-04-18T15:00:21.998Z</time></trkpt><trkpt lat="44.95247301711953" lon="10.068246948591664"><ele>41.0</ele><time>2026-04-18T15:00:22.998Z</time></trkpt><trkpt lat="44.952547218190446" lon="10.068295491886213"><ele>41.0</ele><time>2026-04-18T15:00:23.998Z</time></trkpt><trkpt lat="44.95262322170519" lon="10.06834699038098"><ele>41.0</ele><time>2026-04-18T15:00:24.998Z</time></trkpt><trkpt lat="44.95270083751775" lon="10.068399919139617"><ele>41.166666666666664</ele><time>2026-04-18T15:00:25.998Z</time></trkpt><trkpt lat="44.95277541359993" lon="10.06845089408571"><ele>41.33333333333333</ele><time>2026-04-18T15:00:26.998Z</time></trkpt><trkpt lat="44.95284935230108" lon="10.068501433421094"><ele>41.5</ele><time>2026-04-18T15:00:27.998Z</time></trkpt><trkpt lat="44.95291993765333" lon="10.068550156017034"><ele>41.666666666666664</ele><time>2026-04-18T15:00:28.998Z</time></trkpt><trkpt lat="44.952989618030664" lon="10.068600301573415"><ele>41.833333333333336</ele><time>2026-04-18T15:00:29.998Z</time></trkpt><trkpt lat="44.953051754877386" lon="10.068644788690621"><ele>42.0</ele><time>2026-04-18T15:00:30.998Z</time></trkpt><trkpt lat="44.95311680061521" lon="10.06869561852431"><ele>42.0</ele><time>2026-04-18T15:00:31.998Z</time></trkpt><trkpt lat="44.95317360092937" lon="10.06874392842395"><ele>42.0</ele><time>2026-04-18T15:00:32.998Z</time></trkpt><trkpt lat="44.953230735328134" lon="10.068795342549528"><ele>42.0</ele><time>2026-04-18T15:00:33.998Z</time></trkpt><trkpt lat="44.953285110499294" lon="10.068850700745122"><ele>42.0</ele><time>2026-04-18T15:00:34.998Z</time></trkpt><trkpt lat="44.953434860526535" lon="10.068879805870212"><ele>42.0</ele><time>2026-04-18T15:00:36.998Z</time></trkpt><trkpt lat="44.95350638814678" lon="10.06891625967742"><ele>42.0</ele><time>2026-04-18T15:00:37.998Z</time></trkpt><trkpt lat="44.95358067620416" lon="10.068957034878334"><ele>41.833333333333336</ele><time>2026-04-18T15:00:38.998Z</time></trkpt><trkpt lat="44.95365595446405" lon="10.06899699819104"><ele>41.666666666666664</ele><time>2026-04-18T15:00:39.998Z</time></trkpt><trkpt lat="44.95373081332982" lon="10.06903716443175"><ele>41.5</ele><time>2026-04-18T15:00:40.998Z</time></trkpt><trkpt lat="44.953810896288104" lon="10.069081742106562"><ele>41.33333333333333</ele><time>2026-04-18T15:00:41.998Z</time></trkpt><trkpt lat="44.95387963237446" lon="10.069128527117915"><ele>41.166666666666664</ele><time>2026-04-18T15:00:42.998Z</time></trkpt><trkpt lat="44.95395284197868" lon="10.069173242488255"><ele>41.0</ele><time>2026-04-18T15:00:43.998Z</time></trkpt><trkpt lat="44.95403733776592" lon="10.06921066791516"><ele>40.666666666666664</ele><time>2026-04-18T15:00:44.998Z</time></trkpt><trkpt lat="44.95411930176375" lon="10.0692457817209"><ele>40.33333333333333</ele><time>2026-04-18T15:00:45.998Z</time></trkpt><trkpt lat="44.95420075965838" lon="10.069289367834493"><ele>40.0</ele><time>2026-04-18T15:00:46.998Z</time></trkpt><trkpt lat="44.95428340850248" lon="10.06933093023052"><ele>39.666666666666664</ele><time>2026-04-18T15:00:47.998Z</time></trkpt><trkpt lat="44.95436879033238" lon="10.069376779719065"><ele>39.333333333333336</ele><time>2026-04-18T15:00:48.998Z</time></trkpt><trkpt lat="44.95445353142956" lon="10.069413797414104"><ele>39.0</ele><time>2026-04-18T15:00:49.998Z</time></trkpt><trkpt lat="44.95453635545426" lon="10.069457309705314"><ele>39.0</ele><time>2026-04-18T15:00:50.998Z</time></trkpt><trkpt lat="44.95462067830643" lon="10.06949264791284"><ele>39.0</ele><time>2026-04-18T15:00:51.998Z</time></trkpt><trkpt lat="44.95470350641622" lon="10.069532516113028"><ele>39.0</ele><time>2026-04-18T15:00:52.998Z</time></trkpt><trkpt lat="44.954789636799156" lon="10.069571174320439"><ele>39.0</ele><time>2026-04-18T15:00:53.998Z</time></trkpt><trkpt lat="44.95487489503943" lon="10.069614780875106"><ele>39.0</ele><time>2026-04-18T15:00:54.998Z</time></trkpt><trkpt lat="44.95496367748615" lon="10.069652841426077"><ele>39.0</ele><time>2026-04-18T15:00:56Z</time></trkpt><trkpt lat="44.95505154815924" lon="10.069690659629488"><ele>38.8</ele><time>2026-04-18T15:00:57Z</time></trkpt><trkpt lat="44.955134903831436" lon="10.069751337446657"><ele>38.599999999999994</ele><time>2026-04-18T15:00:58Z</time></trkpt><trkpt lat="44.95521782325243" lon="10.069789851632294"><ele>38.4</ele><time>2026-04-18T15:00:59Z</time></trkpt><trkpt lat="44.95530486024828" lon="10.069830278270722"><ele>38.199999999999996</ele><time>2026-04-18T15:01:00Z</time></trkpt><trkpt lat="44.955394747632525" lon="10.06984841390787"><ele>38.0</ele><time>2026-04-18T15:01:01Z</time></trkpt><trkpt lat="44.95547536760037" lon="10.06990947500547"><ele>38.166666666666664</ele><time>2026-04-18T15:01:02Z</time></trkpt><trkpt lat="44.955558692921464" lon="10.069948177680164"><ele>38.33333333333333</ele><time>2026-04-18T15:01:03Z</time></trkpt><trkpt lat="44.955642213899196" lon="10.069986973053908"><ele>38.5</ele><time>2026-04-18T15:01:04Z</time></trkpt><trkpt lat="44.955726303500725" lon="10.070024857266386"><ele>38.666666666666664</ele><time>2026-04-18T15:01:05Z</time></trkpt><trkpt lat="44.9558095253358" lon="10.070061768325706"><ele>38.833333333333336</ele><time>2026-04-18T15:01:06Z</time></trkpt><trkpt lat="44.95589406899539" lon="10.07007784733377"><ele>39.0</ele><time>2026-04-18T15:01:07Z</time></trkpt><trkpt lat="44.955974620035676" lon="10.07011260120501"><ele>39.166666666666664</ele><time>2026-04-18T15:01:08Z</time></trkpt><trkpt lat="44.956055084398486" lon="10.070146829715439"><ele>39.333333333333336</ele><time>2026-04-18T15:01:09Z</time></trkpt><trkpt lat="44.956137355280894" lon="10.070172062319637"><ele>39.5</ele><time>2026-04-18T15:01:10Z</time></trkpt><trkpt lat="44.95622701416049" lon="10.070181693974934"><ele>39.66666666666667</ele><time>2026-04-18T15:01:11Z</time></trkpt><trkpt lat="44.956315051654464" lon="10.070168518098061"><ele>39.833333333333336</ele><time>2026-04-18T15:01:12Z</time></trkpt><trkpt lat="44.956401773985014" lon="10.07013315549186"><ele>40.0</ele><time>2026-04-18T15:01:13Z</time></trkpt><trkpt lat="44.95647985856668" lon="10.070071132760145"><ele>40.0</ele><time>2026-04-18T15:01:14Z</time></trkpt><trkpt lat="44.95653804522177" lon="10.06997422141647"><ele>40.0</ele><time>2026-04-18T15:01:15Z</time></trkpt><trkpt lat="44.95659536007235" lon="10.06987115422614"><ele>40.0</ele><time>2026-04-18T15:01:16Z</time></trkpt><trkpt lat="44.95665687056053" lon="10.069772527409842"><ele>40.0</ele><time>2026-04-18T15:01:17Z</time></trkpt><trkpt lat="44.95670559237813" lon="10.069664608498904"><ele>40.0</ele><time>2026-04-18T15:01:18Z</time></trkpt><trkpt lat="44.95675491348293" lon="10.069552232541106"><ele>39.8</ele><time>2026-04-18T15:01:19Z</time></trkpt><trkpt lat="44.9567992943695" lon="10.069440222368112"><ele>39.6</ele><time>2026-04-18T15:01:20Z</time></trkpt><trkpt lat="44.956855390351315" lon="10.06933620853972"><ele>39.4</ele><time>2026-04-18T15:01:21Z</time></trkpt><trkpt lat="44.95690798803682" lon="10.069230768246033"><ele>39.2</ele><time>2026-04-18T15:01:22Z</time></trkpt><trkpt lat="44.95695074610064" lon="10.06912016761433"><ele>39.0</ele><time>2026-04-18T15:01:22.999Z</time></trkpt><trkpt lat="44.95700494478468" lon="10.069025872853674"><ele>39.0</ele><time>2026-04-18T15:01:23.999Z</time></trkpt><trkpt lat="44.957054491422696" lon="10.068919780027505"><ele>39.0</ele><time>2026-04-18T15:01:24.999Z</time></trkpt><trkpt lat="44.957105828088466" lon="10.068815450842612"><ele>39.0</ele><time>2026-04-18T15:01:25.999Z</time></trkpt><trkpt lat="44.957157053066105" lon="10.06871018489968"><ele>39.0</ele><time>2026-04-18T15:01:26.999Z</time></trkpt><trkpt lat="44.95720370451551" lon="10.068602708409989"><ele>39.0</ele><time>2026-04-18T15:01:27.999Z</time></trkpt><trkpt lat="44.95725794070327" lon="10.068498755053268"><ele>39.0</ele><time>2026-04-18T15:01:28.999Z</time></trkpt><trkpt lat="44.95731375982703" lon="10.068394122185804"><ele>39.0</ele><time>2026-04-18T15:01:29.999Z</time></trkpt><trkpt lat="44.957375941261645" lon="10.068297028350834"><ele>39.0</ele><time>2026-04-18T15:01:30.999Z</time></trkpt><trkpt lat="44.95744175144464" lon="10.068207395364702"><ele>39.0</ele><time>2026-04-18T15:01:31.999Z</time></trkpt><trkpt lat="44.957510190818994" lon="10.068117815276493"><ele>39.0</ele><time>2026-04-18T15:01:32.999Z</time></trkpt><trkpt lat="44.957578628874394" lon="10.068023232154923"><ele>38.6</ele><time>2026-04-18T15:01:33.999Z</time></trkpt><trkpt lat="44.95764830122412" lon="10.067930772035805"><ele>38.2</ele><time>2026-04-18T15:01:34.999Z</time></trkpt><trkpt lat="44.95771728095209" lon="10.067844881145035"><ele>37.800000000000004</ele><time>2026-04-18T15:01:35.999Z</time></trkpt><trkpt lat="44.95778544334071" lon="10.06775117202542"><ele>37.4</ele><time>2026-04-18T15:01:36.999Z</time></trkpt><trkpt lat="44.957849653223484" lon="10.067654982311453"><ele>37.0</ele><time>2026-04-18T15:01:37.999Z</time></trkpt><trkpt lat="44.95791511933477" lon="10.067561575717372"><ele>37.0</ele><time>2026-04-18T15:01:38.999Z</time></trkpt><trkpt lat="44.957986700994084" lon="10.067469391961897"><ele>37.0</ele><time>2026-04-18T15:01:39.999Z</time></trkpt><trkpt lat="44.95805357321445" lon="10.067377712291032"><ele>37.0</ele><time>2026-04-18T15:01:40.999Z</time></trkpt><trkpt lat="44.95811880758487" lon="10.067283650057558"><ele>37.0</ele><time>2026-04-18T15:01:41.999Z</time></trkpt><trkpt lat="44.95818906469461" lon="10.067187930638509"><ele>37.0</ele><time>2026-04-18T15:01:42.999Z</time></trkpt><trkpt lat="44.95825833317633" lon="10.067093497681698"><ele>37.4</ele><time>2026-04-18T15:01:43.999Z</time></trkpt><trkpt lat="44.95832432889031" lon="10.06700265322765"><ele>37.800000000000004</ele><time>2026-04-18T15:01:44.999Z</time></trkpt><trkpt lat="44.95839101564146" lon="10.066913381916413"><ele>38.2</ele><time>2026-04-18T15:01:45.999Z</time></trkpt><trkpt lat="44.958452080404115" lon="10.066818816886844"><ele>38.6</ele><time>2026-04-18T15:01:46.999Z</time></trkpt><trkpt lat="44.9585127639139" lon="10.066726207179295"><ele>39.0</ele><time>2026-04-18T15:01:47.999Z</time></trkpt><trkpt lat="44.95857741906875" lon="10.066633953636611"><ele>38.666666666666664</ele><time>2026-04-18T15:01:48.999Z</time></trkpt><trkpt lat="44.958641397800314" lon="10.066544372875013"><ele>38.333333333333336</ele><time>2026-04-18T15:01:49.999Z</time></trkpt><trkpt lat="44.95870427621686" lon="10.066457132621286"><ele>38.0</ele><time>2026-04-18T15:01:50.999Z</time></trkpt><trkpt lat="44.95876607312954" lon="10.066368570720822"><ele>37.66666666666667</ele><time>2026-04-18T15:01:51.999Z</time></trkpt><trkpt lat="44.95883141261818" lon="10.066278288171496"><ele>37.333333333333336</ele><time>2026-04-18T15:01:52.999Z</time></trkpt><trkpt lat="44.95889043754759" lon="10.06618765493186"><ele>37.0</ele><time>2026-04-18T15:01:53.999Z</time></trkpt><trkpt lat="44.95894846198092" lon="10.066096308549408"><ele>37.0</ele><time>2026-04-18T15:01:54.999Z</time></trkpt><trkpt lat="44.95901058241166" lon="10.066002525436746"><ele>37.0</ele><time>2026-04-18T15:01:55.999Z</time></trkpt><trkpt lat="44.95907456438492" lon="10.065907875091654"><ele>37.0</ele><time>2026-04-18T15:01:56.999Z</time></trkpt><trkpt lat="44.95912919951481" lon="10.06581628560454"><ele>37.0</ele><time>2026-04-18T15:01:57.999Z</time></trkpt><trkpt lat="44.95918811020054" lon="10.065722431051446"><ele>37.0</ele><time>2026-04-18T15:01:58.999Z</time></trkpt><trkpt lat="44.95925167238597" lon="10.065620489556865"><ele>37.6</ele><time>2026-04-18T15:01:59.999Z</time></trkpt><trkpt lat="44.95931038358741" lon="10.065515563028816"><ele>38.2</ele><time>2026-04-18T15:02:00.999Z</time></trkpt><trkpt lat="44.95936837658591" lon="10.06541438262782"><ele>38.8</ele><time>2026-04-18T15:02:01.999Z</time></trkpt><trkpt lat="44.959429261160366" lon="10.065314548259208"><ele>39.4</ele><time>2026-04-18T15:02:02.999Z</time></trkpt><trkpt lat="44.9594879765639" lon="10.065212518101132"><ele>40.0</ele><time>2026-04-18T15:02:03.999Z</time></trkpt><trkpt lat="44.95954559044107" lon="10.065111876495557"><ele>40.0</ele><time>2026-04-18T15:02:04.999Z</time></trkpt><trkpt lat="44.95959868251364" lon="10.0650108076155"><ele>40.0</ele><time>2026-04-18T15:02:05.999Z</time></trkpt><trkpt lat="44.95965313223888" lon="10.064909813560984"><ele>40.0</ele><time>2026-04-18T15:02:06.999Z</time></trkpt><trkpt lat="44.95971436492144" lon="10.06480518253882"><ele>40.0</ele><time>2026-04-18T15:02:07.999Z</time></trkpt><trkpt lat="44.95976609136221" lon="10.06470471454324"><ele>40.0</ele><time>2026-04-18T15:02:08.999Z</time></trkpt><trkpt lat="44.959826280341524" lon="10.06460319666576"><ele>39.4</ele><time>2026-04-18T15:02:09.999Z</time></trkpt><trkpt lat="44.95989286554969" lon="10.06449918650591"><ele>38.8</ele><time>2026-04-18T15:02:10.999Z</time></trkpt><trkpt lat="44.95995419967399" lon="10.064396371108238"><ele>38.2</ele><time>2026-04-18T15:02:11.999Z</time></trkpt><trkpt lat="44.960014171677074" lon="10.06429416095435"><ele>37.6</ele><time>2026-04-18T15:02:12.999Z</time></trkpt><trkpt lat="44.9600721664142" lon="10.064190636958223"><ele>37.0</ele><time>2026-04-18T15:02:13.999Z</time></trkpt><trkpt lat="44.96013342120697" lon="10.06409153715998"><ele>36.800000000000004</ele><time>2026-04-18T15:02:14.999Z</time></trkpt><trkpt lat="44.9601927409975" lon="10.063995182571261"><ele>36.6</ele><time>2026-04-18T15:02:15.999Z</time></trkpt><trkpt lat="44.960247839326" lon="10.06389266596454"><ele>36.400000000000006</ele><time>2026-04-18T15:02:16.999Z</time></trkpt><trkpt lat="44.960309476762134" lon="10.063790111786684"><ele>36.2</ele><time>2026-04-18T15:02:17.998Z</time></trkpt><trkpt lat="44.96036780777678" lon="10.063688431249707"><ele>36.0</ele><time>2026-04-18T15:02:18.998Z</time></trkpt><trkpt lat="44.96042510657928" lon="10.063588384310725"><ele>36.0</ele><time>2026-04-18T15:02:19.998Z</time></trkpt><trkpt lat="44.96047973201098" lon="10.063487287125033"><ele>36.0</ele><time>2026-04-18T15:02:20.998Z</time></trkpt><trkpt lat="44.96053893886421" lon="10.06338293493267"><ele>36.0</ele><time>2026-04-18T15:02:21.998Z</time></trkpt><trkpt lat="44.96060018184118" lon="10.063282766257863"><ele>36.0</ele><time>2026-04-18T15:02:22.998Z</time></trkpt><trkpt lat="44.96065795691498" lon="10.063183940049749"><ele>36.0</ele><time>2026-04-18T15:02:23.998Z</time></trkpt><trkpt lat="44.96071313589529" lon="10.063079201853862"><ele>36.166666666666664</ele><time>2026-04-18T15:02:24.998Z</time></trkpt><trkpt lat="44.96076650779786" lon="10.062979664639778"><ele>36.333333333333336</ele><time>2026-04-18T15:02:25.998Z</time></trkpt><trkpt lat="44.96082500840007" lon="10.062884447237543"><ele>36.5</ele><time>2026-04-18T15:02:26.998Z</time></trkpt><trkpt lat="44.960881880228776" lon="10.062785966566512"><ele>36.66666666666667</ele><time>2026-04-18T15:02:27.998Z</time></trkpt><trkpt lat="44.96093482014974" lon="10.06268414681029"><ele>36.833333333333336</ele><time>2026-04-18T15:02:28.998Z</time></trkpt><trkpt lat="44.96098940106895" lon="10.062585188720009"><ele>37.0</ele><time>2026-04-18T15:02:29.998Z</time></trkpt><trkpt lat="44.96104395654714" lon="10.062484581563446"><ele>37.0</ele><time>2026-04-18T15:02:30.998Z</time></trkpt><trkpt lat="44.96110157897908" lon="10.062383993554805"><ele>37.0</ele><time>2026-04-18T15:02:31.998Z</time></trkpt><trkpt lat="44.96115583831001" lon="10.062288062152332"><ele>37.0</ele><time>2026-04-18T15:02:32.998Z</time></trkpt><trkpt lat="44.9612095163056" lon="10.062179817708524"><ele>37.0</ele><time>2026-04-18T15:02:33.998Z</time></trkpt><trkpt lat="44.96126542648251" lon="10.06208148238106"><ele>37.0</ele><time>2026-04-18T15:02:34.998Z</time></trkpt><trkpt lat="44.961317089999135" lon="10.061987769539401"><ele>37.0</ele><time>2026-04-18T15:02:35.998Z</time></trkpt><trkpt lat="44.961366652967165" lon="10.061896355939341"><ele>37.0</ele><time>2026-04-18T15:02:36.998Z</time></trkpt><trkpt lat="44.96142125622444" lon="10.061807369797727"><ele>37.0</ele><time>2026-04-18T15:02:37.998Z</time></trkpt><trkpt lat="44.96147713961395" lon="10.0617161777535"><ele>37.0</ele><time>2026-04-18T15:02:38.998Z</time></trkpt><trkpt lat="44.961535632939565" lon="10.061634386583519"><ele>37.0</ele><time>2026-04-18T15:02:39.998Z</time></trkpt><trkpt lat="44.96159396342401" lon="10.061558057768153"><ele>37.0</ele><time>2026-04-18T15:02:40.998Z</time></trkpt><trkpt lat="44.96164965822973" lon="10.061459230200574"><ele>37.0</ele><time>2026-04-18T15:02:41.998Z</time></trkpt><trkpt lat="44.96170108218557" lon="10.061341802940937"><ele>37.2</ele><time>2026-04-18T15:02:42.998Z</time></trkpt><trkpt lat="44.96176482058939" lon="10.0612453574635"><ele>37.400000000000006</ele><time>2026-04-18T15:02:43.998Z</time></trkpt><trkpt lat="44.96182442633123" lon="10.061147550920909"><ele>37.599999999999994</ele><time>2026-04-18T15:02:44.998Z</time></trkpt><trkpt lat="44.96188462414929" lon="10.06104530838952"><ele>37.8</ele><time>2026-04-18T15:02:45.998Z</time></trkpt><trkpt lat="44.96193499278975" lon="10.06094080547764"><ele>38.0</ele><time>2026-04-18T15:02:46.998Z</time></trkpt><trkpt lat="44.961991352493136" lon="10.060842941515428"><ele>38.0</ele><time>2026-04-18T15:02:47.998Z</time></trkpt><trkpt lat="44.96204977555579" lon="10.060744773744862"><ele>38.0</ele><time>2026-04-18T15:02:48.998Z</time></trkpt><trkpt lat="44.9621087314093" lon="10.060643506268892"><ele>38.0</ele><time>2026-04-18T15:02:49.998Z</time></trkpt><trkpt lat="44.9621633358723" lon="10.060545238475106"><ele>38.0</ele><time>2026-04-18T15:02:50.998Z</time></trkpt><trkpt lat="44.96221960430604" lon="10.06044412302205"><ele>38.0</ele><time>2026-04-18T15:02:51.998Z</time></trkpt><trkpt lat="44.962274661169594" lon="10.060344787758867"><ele>38.0</ele><time>2026-04-18T15:02:52.998Z</time></trkpt><trkpt lat="44.96232959489898" lon="10.06024153716502"><ele>38.0</ele><time>2026-04-18T15:02:53.998Z</time></trkpt><trkpt lat="44.962388121823956" lon="10.060141612399011"><ele>38.0</ele><time>2026-04-18T15:02:54.998Z</time></trkpt><trkpt lat="44.96244801449222" lon="10.06004095773448"><ele>38.0</ele><time>2026-04-18T15:02:55.998Z</time></trkpt><trkpt lat="44.96250327195689" lon="10.05993508601995"><ele>38.0</ele><time>2026-04-18T15:02:56.998Z</time></trkpt><trkpt lat="44.96256663559481" lon="10.05983477737944"><ele>37.8</ele><time>2026-04-18T15:02:57.998Z</time></trkpt><trkpt lat="44.96262537585115" lon="10.059731705232007"><ele>37.599999999999994</ele><time>2026-04-18T15:02:58.998Z</time></trkpt><trkpt lat="44.96268649885957" lon="10.059628947474396"><ele>37.400000000000006</ele><time>2026-04-18T15:02:59.998Z</time></trkpt><trkpt lat="44.96273784091788" lon="10.059515034908674"><ele>37.2</ele><time>2026-04-18T15:03:01Z</time></trkpt><trkpt lat="44.9627867506128" lon="10.059404186887166"><ele>37.0</ele><time>2026-04-18T15:03:02Z</time></trkpt><trkpt lat="44.96282797369469" lon="10.059284566702233"><ele>37.0</ele><time>2026-04-18T15:03:03Z</time></trkpt><trkpt lat="44.96286316105516" lon="10.059166352876346"><ele>37.0</ele><time>2026-04-18T15:03:04Z</time></trkpt><trkpt lat="44.96289962469648" lon="10.05904817180101"><ele>37.0</ele><time>2026-04-18T15:03:05Z</time></trkpt><trkpt lat="44.96293701974252" lon="10.058927562464431"><ele>37.0</ele><time>2026-04-18T15:03:06Z</time></trkpt><trkpt lat="44.96297973120624" lon="10.058812784326834"><ele>37.0</ele><time>2026-04-18T15:03:07Z</time></trkpt><trkpt lat="44.9630153555538" lon="10.058693897347945"><ele>36.4</ele><time>2026-04-18T15:03:08Z</time></trkpt><trkpt lat="44.96305008062252" lon="10.05857065933599"><ele>35.800000000000004</ele><time>2026-04-18T15:03:09Z</time></trkpt><trkpt lat="44.96309307099092" lon="10.058457071087378"><ele>35.2</ele><time>2026-04-18T15:03:10Z</time></trkpt><trkpt lat="44.96312809203608" lon="10.058340224521192"><ele>34.6</ele><time>2026-04-18T15:03:11Z</time></trkpt><trkpt lat="44.96315952305329" lon="10.058220700507885"><ele>34.0</ele><time>2026-04-18T15:03:12Z</time></trkpt><trkpt lat="44.96320015474232" lon="10.058101182220557"><ele>34.6</ele><time>2026-04-18T15:03:13Z</time></trkpt><trkpt lat="44.96324734867811" lon="10.057982087710862"><ele>35.2</ele><time>2026-04-18T15:03:14Z</time></trkpt><trkpt lat="44.96328436078181" lon="10.057865832740204"><ele>35.800000000000004</ele><time>2026-04-18T15:03:15Z</time></trkpt><trkpt lat="44.963319566144165" lon="10.057748282451259"><ele>36.4</ele><time>2026-04-18T15:03:16Z</time></trkpt><trkpt lat="44.96336019626776" lon="10.057628889037058"><ele>37.0</ele><time>2026-04-18T15:03:17Z</time></trkpt><trkpt lat="44.96339842012293" lon="10.057511249446549"><ele>37.2</ele><time>2026-04-18T15:03:18Z</time></trkpt><trkpt lat="44.96343212265117" lon="10.057394806670715"><ele>37.400000000000006</ele><time>2026-04-18T15:03:19Z</time></trkpt><trkpt lat="44.963465569381675" lon="10.057276110061636"><ele>37.599999999999994</ele><time>2026-04-18T15:03:20Z</time></trkpt><trkpt lat="44.963501918300736" lon="10.057155823371914"><ele>37.8</ele><time>2026-04-18T15:03:21Z</time></trkpt><trkpt lat="44.96353797305381" lon="10.057037450529565"><ele>38.0</ele><time>2026-04-18T15:03:22Z</time></trkpt><trkpt lat="44.96357197637985" lon="10.05692349601205"><ele>38.0</ele><time>2026-04-18T15:03:22.999Z</time></trkpt><trkpt lat="44.963605904374106" lon="10.056810475018564"><ele>38.0</ele><time>2026-04-18T15:03:23.999Z</time></trkpt><trkpt lat="44.96363927663026" lon="10.056698977873168"><ele>38.0</ele><time>2026-04-18T15:03:24.999Z</time></trkpt><trkpt lat="44.96367327156931" lon="10.056586276758393"><ele>38.0</ele><time>2026-04-18T15:03:25.999Z</time></trkpt><trkpt lat="44.963710957340076" lon="10.0564742910471"><ele>38.0</ele><time>2026-04-18T15:03:26.999Z</time></trkpt><trkpt lat="44.963743821449015" lon="10.056367750509818"><ele>38.0</ele><time>2026-04-18T15:03:27.999Z</time></trkpt><trkpt lat="44.96377929781607" lon="10.05625674978544"><ele>38.0</ele><time>2026-04-18T15:03:28.999Z</time></trkpt><trkpt lat="44.963813464249036" lon="10.056142123583601"><ele>38.0</ele><time>2026-04-18T15:03:29.999Z</time></trkpt><trkpt lat="44.963850868807036" lon="10.056027482622119"><ele>38.0</ele><time>2026-04-18T15:03:30.999Z</time></trkpt><trkpt lat="44.96389483560913" lon="10.055920501179614"><ele>38.0</ele><time>2026-04-18T15:03:31.999Z</time></trkpt><trkpt lat="44.963952775939475" lon="10.055818616749036"><ele>38.0</ele><time>2026-04-18T15:03:32.999Z</time></trkpt><trkpt lat="44.9640198337877" lon="10.05573135963013"><ele>38.0</ele><time>2026-04-18T15:03:33.999Z</time></trkpt><trkpt lat="44.96410931980108" lon="10.055695949026145"><ele>38.199999999999996</ele><time>2026-04-18T15:03:34.999Z</time></trkpt><trkpt lat="44.964196634430145" lon="10.055667131816218"><ele>38.4</ele><time>2026-04-18T15:03:35.999Z</time></trkpt><trkpt lat="44.964286134635444" lon="10.055640790873236"><ele>38.599999999999994</ele><time>2026-04-18T15:03:36.999Z</time></trkpt><trkpt lat="44.9643754838259" lon="10.055613461306866"><ele>38.8</ele><time>2026-04-18T15:03:37.999Z</time></trkpt><trkpt lat="44.964466173568404" lon="10.055584473890066"><ele>39.0</ele><time>2026-04-18T15:03:38.999Z</time></trkpt><trkpt lat="44.96455372045299" lon="10.055556491081122"><ele>39.0</ele><time>2026-04-18T15:03:39.999Z</time></trkpt><trkpt lat="44.964642512439234" lon="10.055528110210568"><ele>39.0</ele><time>2026-04-18T15:03:40.999Z</time></trkpt><trkpt lat="44.9647312299642" lon="10.055499753179538"><ele>39.0</ele><time>2026-04-18T15:03:41.999Z</time></trkpt><trkpt lat="44.9648192453765" lon="10.055471434782266"><ele>39.0</ele><time>2026-04-18T15:03:42.999Z</time></trkpt><trkpt lat="44.96490335856756" lon="10.055443661545395"><ele>39.0</ele><time>2026-04-18T15:03:43.999Z</time></trkpt><trkpt lat="44.964990048777665" lon="10.055415037423494"><ele>39.0</ele><time>2026-04-18T15:03:44.999Z</time></trkpt><trkpt lat="44.965074414882324" lon="10.055387180630662"><ele>38.833333333333336</ele><time>2026-04-18T15:03:45.999Z</time></trkpt><trkpt lat="44.96515911309499" lon="10.055359214248256"><ele>38.666666666666664</ele><time>2026-04-18T15:03:46.999Z</time></trkpt><trkpt lat="44.96524609155527" lon="10.055330495810244"><ele>38.5</ele><time>2026-04-18T15:03:47.999Z</time></trkpt><trkpt lat="44.96533423452284" lon="10.055301391908305"><ele>38.33333333333333</ele><time>2026-04-18T15:03:48.999Z</time></trkpt><trkpt lat="44.96542207790823" lon="10.055272297750301"><ele>38.166666666666664</ele><time>2026-04-18T15:03:49.999Z</time></trkpt><trkpt lat="44.96551162858535" lon="10.055244351979733"><ele>38.0</ele><time>2026-04-18T15:03:50.999Z</time></trkpt><trkpt lat="44.96559971982487" lon="10.055216861600876"><ele>38.0</ele><time>2026-04-18T15:03:51.999Z</time></trkpt><trkpt lat="44.96568643376794" lon="10.055191855052904"><ele>38.0</ele><time>2026-04-18T15:03:52.999Z</time></trkpt><trkpt lat="44.965774606863604" lon="10.05516885964241"><ele>38.0</ele><time>2026-04-18T15:03:53.999Z</time></trkpt><trkpt lat="44.96586314943091" lon="10.055151713763602"><ele>38.0</ele><time>2026-04-18T15:03:54.999Z</time></trkpt><trkpt lat="44.965952449872255" lon="10.055137712244006"><ele>38.0</ele><time>2026-04-18T15:03:55.999Z</time></trkpt><trkpt lat="44.966040023279334" lon="10.055127548084176"><ele>38.0</ele><time>2026-04-18T15:03:56.999Z</time></trkpt><trkpt lat="44.966127299073754" lon="10.055120617213904"><ele>38.0</ele><time>2026-04-18T15:03:57.999Z</time></trkpt><trkpt lat="44.966213978256505" lon="10.05511785683821"><ele>38.0</ele><time>2026-04-18T15:03:58.999Z</time></trkpt><trkpt lat="44.966300675514" lon="10.055118303005735"><ele>38.0</ele><time>2026-04-18T15:03:59.999Z</time></trkpt><trkpt lat="44.96638854728518" lon="10.055123622601847"><ele>38.0</ele><time>2026-04-18T15:04:00.999Z</time></trkpt><trkpt lat="44.966470298099104" lon="10.055140321814353"><ele>38.0</ele><time>2026-04-18T15:04:01.999Z</time></trkpt><trkpt lat="44.96655086595096" lon="10.05516344604297"><ele>38.0</ele><time>2026-04-18T15:04:02.999Z</time></trkpt><trkpt lat="44.96663752082007" lon="10.055191744516737"><ele>37.83333333333333</ele><time>2026-04-18T15:04:03.999Z</time></trkpt><trkpt lat="44.96672045135546" lon="10.055222215422909"><ele>37.666666666666664</ele><time>2026-04-18T15:04:04.999Z</time></trkpt><trkpt lat="44.96680065673059" lon="10.055256094375931"><ele>37.5</ele><time>2026-04-18T15:04:05.999Z</time></trkpt><trkpt lat="44.96687883715802" lon="10.055298160108729"><ele>37.333333333333336</ele><time>2026-04-18T15:04:06.999Z</time></trkpt><trkpt lat="44.96695687693947" lon="10.055349532259989"><ele>37.16666666666667</ele><time>2026-04-18T15:04:07.999Z</time></trkpt><trkpt lat="44.967036393855174" lon="10.055404792621056"><ele>37.0</ele><time>2026-04-18T15:04:08.999Z</time></trkpt><trkpt lat="44.96711119259013" lon="10.055461374152143"><ele>37.0</ele><time>2026-04-18T15:04:09.999Z</time></trkpt><trkpt lat="44.967189725660205" lon="10.055526031190821"><ele>37.0</ele><time>2026-04-18T15:04:10.999Z</time></trkpt><trkpt lat="44.967270271493504" lon="10.055592516546483"><ele>37.0</ele><time>2026-04-18T15:04:11.999Z</time></trkpt><trkpt lat="44.96734881172697" lon="10.055657875408263"><ele>37.0</ele><time>2026-04-18T15:04:12.999Z</time></trkpt><trkpt lat="44.96742957597635" lon="10.055725085018281"><ele>37.0</ele><time>2026-04-18T15:04:13.999Z</time></trkpt><trkpt lat="44.96750791209134" lon="10.05579027403463"><ele>37.16666666666667</ele><time>2026-04-18T15:04:14.999Z</time></trkpt><trkpt lat="44.967584814743795" lon="10.055854001065036"><ele>37.333333333333336</ele><time>2026-04-18T15:04:15.999Z</time></trkpt><trkpt lat="44.96766215419947" lon="10.055918021584427"><ele>37.5</ele><time>2026-04-18T15:04:16.999Z</time></trkpt><trkpt lat="44.96774295282575" lon="10.055984905577322"><ele>37.666666666666664</ele><time>2026-04-18T15:04:17.998Z</time></trkpt><trkpt lat="44.96781921901225" lon="10.056048037652733"><ele>37.83333333333333</ele><time>2026-04-18T15:04:18.998Z</time></trkpt><trkpt lat="44.967893852871136" lon="10.056109818518275"><ele>38.0</ele><time>2026-04-18T15:04:19.998Z</time></trkpt><trkpt lat="44.96796857491979" lon="10.056171672383085"><ele>38.0</ele><time>2026-04-18T15:04:20.998Z</time></trkpt><trkpt lat="44.96804441768389" lon="10.056234453962325"><ele>38.0</ele><time>2026-04-18T15:04:21.998Z</time></trkpt><trkpt lat="44.968123347962255" lon="10.056299791324161"><ele>38.0</ele><time>2026-04-18T15:04:22.998Z</time></trkpt><trkpt lat="44.96819869829835" lon="10.056362165302785"><ele>38.0</ele><time>2026-04-18T15:04:23.998Z</time></trkpt><trkpt lat="44.96827520527264" lon="10.056425329131258"><ele>38.0</ele><time>2026-04-18T15:04:24.998Z</time></trkpt><trkpt lat="44.96834816123062" lon="10.056484443956373"><ele>38.0</ele><time>2026-04-18T15:04:25.998Z</time></trkpt><trkpt lat="44.96842146075505" lon="10.05654383720272"><ele>37.83333333333333</ele><time>2026-04-18T15:04:26.998Z</time></trkpt><trkpt lat="44.968497730360454" lon="10.056605637051215"><ele>37.666666666666664</ele><time>2026-04-18T15:04:27.998Z</time></trkpt><trkpt lat="44.96857468657522" lon="10.056667993182254"><ele>37.5</ele><time>2026-04-18T15:04:28.998Z</time></trkpt><trkpt lat="44.96864344369953" lon="10.05672370579627"><ele>37.333333333333336</ele><time>2026-04-18T15:04:29.998Z</time></trkpt><trkpt lat="44.968719047882416" lon="10.056784966424326"><ele>37.16666666666667</ele><time>2026-04-18T15:04:30.998Z</time></trkpt><trkpt lat="44.96879337262612" lon="10.056845190355052"><ele>37.0</ele><time>2026-04-18T15:04:31.998Z</time></trkpt><trkpt lat="44.96887067598319" lon="10.056907827820854"><ele>37.16666666666667</ele><time>2026-04-18T15:04:32.998Z</time></trkpt><trkpt lat="44.96894770322507" lon="10.056967997315319"><ele>37.333333333333336</ele><time>2026-04-18T15:04:33.998Z</time></trkpt><trkpt lat="44.969029501815065" lon="10.05702312442281"><ele>37.5</ele><time>2026-04-18T15:04:34.998Z</time></trkpt><trkpt lat="44.96910922968232" lon="10.057073809397615"><ele>37.666666666666664</ele><time>2026-04-18T15:04:35.998Z</time></trkpt><trkpt lat="44.96919165067367" lon="10.057119618881563"><ele>37.83333333333333</ele><time>2026-04-18T15:04:36.998Z</time></trkpt><trkpt lat="44.96927577912875" lon="10.057160058109554"><ele>38.0</ele><time>2026-04-18T15:04:37.998Z</time></trkpt><trkpt lat="44.96936025871296" lon="10.0571936429744"><ele>38.0</ele><time>2026-04-18T15:04:38.998Z</time></trkpt><trkpt lat="44.969446593876654" lon="10.05721039258393"><ele>38.0</ele><time>2026-04-18T15:04:39.998Z</time></trkpt><trkpt lat="44.96955839047312" lon="10.057222991060216"><ele>38.0</ele><time>2026-04-18T15:04:41.998Z</time></trkpt><trkpt lat="44.96964665928773" lon="10.057219348171813"><ele>38.0</ele><time>2026-04-18T15:04:42.998Z</time></trkpt><trkpt lat="44.969748556343795" lon="10.057156347723062"><ele>38.0</ele><time>2026-04-18T15:04:43.998Z</time></trkpt><trkpt lat="44.96983213624888" lon="10.057102527470233"><ele>38.0</ele><time>2026-04-18T15:04:44.998Z</time></trkpt><trkpt lat="44.969907480723" lon="10.05702433949075"><ele>38.0</ele><time>2026-04-18T15:04:45.998Z</time></trkpt><trkpt lat="44.969973612082654" lon="10.05691957018459"><ele>38.0</ele><time>2026-04-18T15:04:46.998Z</time></trkpt><trkpt lat="44.97001372582388" lon="10.056791873109706"><ele>38.0</ele><time>2026-04-18T15:04:47.998Z</time></trkpt><trkpt lat="44.97006023887237" lon="10.056675555752875"><ele>38.0</ele><time>2026-04-18T15:04:48.998Z</time></trkpt><trkpt lat="44.970098021106736" lon="10.056564810428124"><ele>38.0</ele><time>2026-04-18T15:04:49.998Z</time></trkpt><trkpt lat="44.97012480906238" lon="10.056445393217743"><ele>38.0</ele><time>2026-04-18T15:04:50.998Z</time></trkpt><trkpt lat="44.970153404750725" lon="10.056325079844276"><ele>38.0</ele><time>2026-04-18T15:04:51.998Z</time></trkpt><trkpt lat="44.970182924487816" lon="10.056201517823157"><ele>38.0</ele><time>2026-04-18T15:04:52.998Z</time></trkpt><trkpt lat="44.97020993634853" lon="10.056075965964444"><ele>38.0</ele><time>2026-04-18T15:04:53.998Z</time></trkpt><trkpt lat="44.970240107571456" lon="10.055950994042151"><ele>38.0</ele><time>2026-04-18T15:04:54.998Z</time></trkpt><trkpt lat="44.97026448443361" lon="10.055819843142517"><ele>38.0</ele><time>2026-04-18T15:04:55.998Z</time></trkpt><trkpt lat="44.970290197466134" lon="10.05569313261281"><ele>38.0</ele><time>2026-04-18T15:04:56.998Z</time></trkpt><trkpt lat="44.970316595664485" lon="10.0555681517319"><ele>38.0</ele><time>2026-04-18T15:04:57.998Z</time></trkpt><trkpt lat="44.970343704129164" lon="10.055442020937388"><ele>38.0</ele><time>2026-04-18T15:04:58.998Z</time></trkpt><trkpt lat="44.9703683704965" lon="10.05531289222458"><ele>38.0</ele><time>2026-04-18T15:04:59.998Z</time></trkpt><trkpt lat="44.97039829847706" lon="10.055194380872205"><ele>38.0</ele><time>2026-04-18T15:05:00.998Z</time></trkpt><trkpt lat="44.97043025771944" lon="10.055066156220485"><ele>38.0</ele><time>2026-04-18T15:05:01.998Z</time></trkpt><trkpt lat="44.970461972607644" lon="10.054953468463335"><ele>38.0</ele><time>2026-04-18T15:05:02.998Z</time></trkpt><trkpt lat="44.970482853246544" lon="10.054829901882297"><ele>38.0</ele><time>2026-04-18T15:05:03.998Z</time></trkpt><trkpt lat="44.9705128854926" lon="10.054704687141928"><ele>38.0</ele><time>2026-04-18T15:05:04.998Z</time></trkpt><trkpt lat="44.970538948379215" lon="10.054585386477706"><ele>38.0</ele><time>2026-04-18T15:05:06Z</time></trkpt><trkpt lat="44.97056890950747" lon="10.054465999018772"><ele>38.0</ele><time>2026-04-18T15:05:07Z</time></trkpt><trkpt lat="44.97059956055129" lon="10.054341356604217"><ele>38.0</ele><time>2026-04-18T15:05:08Z</time></trkpt><trkpt lat="44.97063583133621" lon="10.054223979551173"><ele>38.0</ele><time>2026-04-18T15:05:09Z</time></trkpt><trkpt lat="44.97065134984133" lon="10.054095657280078"><ele>38.166666666666664</ele><time>2026-04-18T15:05:10Z</time></trkpt><trkpt lat="44.97067963614192" lon="10.053975144217624"><ele>38.33333333333333</ele><time>2026-04-18T15:05:11Z</time></trkpt><trkpt lat="44.97070586761425" lon="10.053852602948698"><ele>38.5</ele><time>2026-04-18T15:05:12Z</time></trkpt><trkpt lat="44.97073386351639" lon="10.053731059992705"><ele>38.666666666666664</ele><time>2026-04-18T15:05:13Z</time></trkpt><trkpt lat="44.97076268571459" lon="10.053613676648107"><ele>38.833333333333336</ele><time>2026-04-18T15:05:14Z</time></trkpt><trkpt lat="44.97080329106253" lon="10.053504648991387"><ele>39.0</ele><time>2026-04-18T15:05:15Z</time></trkpt><trkpt lat="44.97082954940614" lon="10.053391441142796"><ele>38.833333333333336</ele><time>2026-04-18T15:05:16Z</time></trkpt><trkpt lat="44.97085586390321" lon="10.053277991209358"><ele>38.666666666666664</ele><time>2026-04-18T15:05:17Z</time></trkpt><trkpt lat="44.97088373303364" lon="10.053157838756904"><ele>38.5</ele><time>2026-04-18T15:05:18Z</time></trkpt><trkpt lat="44.970910887897425" lon="10.053040765753167"><ele>38.33333333333333</ele><time>2026-04-18T15:05:19Z</time></trkpt><trkpt lat="44.97093875788921" lon="10.052920609602284"><ele>38.166666666666664</ele><time>2026-04-18T15:05:20Z</time></trkpt><trkpt lat="44.9709520725677" lon="10.05279340141102"><ele>38.0</ele><time>2026-04-18T15:05:21Z</time></trkpt><trkpt lat="44.97098289743601" lon="10.052675612975628"><ele>38.0</ele><time>2026-04-18T15:05:22Z</time></trkpt><trkpt lat="44.97101708427095" lon="10.052557500376151"><ele>38.0</ele><time>2026-04-18T15:05:23Z</time></trkpt><trkpt lat="44.97104487891497" lon="10.052435818019063"><ele>38.0</ele><time>2026-04-18T15:05:24Z</time></trkpt><trkpt lat="44.97107169847485" lon="10.052313326803002"><ele>38.0</ele><time>2026-04-18T15:05:24.999Z</time></trkpt><trkpt lat="44.97110447677782" lon="10.052191399791356"><ele>38.0</ele><time>2026-04-18T15:05:25.999Z</time></trkpt><trkpt lat="44.97113148037048" lon="10.052065245295362"><ele>38.33333333333333</ele><time>2026-04-18T15:05:26.999Z</time></trkpt><trkpt lat="44.97115592034566" lon="10.051943349452811"><ele>38.666666666666664</ele><time>2026-04-18T15:05:27.999Z</time></trkpt><trkpt lat="44.97118403373463" lon="10.051819492795804"><ele>39.0</ele><time>2026-04-18T15:05:28.999Z</time></trkpt><trkpt lat="44.97121339695505" lon="10.051701143651245"><ele>39.333333333333336</ele><time>2026-04-18T15:05:29.999Z</time></trkpt><trkpt lat="44.97123723026665" lon="10.051581122366965"><ele>39.66666666666667</ele><time>2026-04-18T15:05:30.999Z</time></trkpt><trkpt lat="44.97126889768851" lon="10.051465414098486"><ele>40.0</ele><time>2026-04-18T15:05:31.999Z</time></trkpt><trkpt lat="44.9712946717528" lon="10.051344422638364"><ele>40.0</ele><time>2026-04-18T15:05:32.999Z</time></trkpt><trkpt lat="44.971317491882125" lon="10.051226910591296"><ele>40.0</ele><time>2026-04-18T15:05:33.999Z</time></trkpt><trkpt lat="44.971345235717095" lon="10.051103797078214"><ele>40.0</ele><time>2026-04-18T15:05:34.999Z</time></trkpt><trkpt lat="44.971373481306586" lon="10.050980529241"><ele>40.0</ele><time>2026-04-18T15:05:35.999Z</time></trkpt><trkpt lat="44.97140793045351" lon="10.05086160534523"><ele>40.0</ele><time>2026-04-18T15:05:36.999Z</time></trkpt><trkpt lat="44.97142936535279" lon="10.050741996738864"><ele>40.0</ele><time>2026-04-18T15:05:37.999Z</time></trkpt><trkpt lat="44.97146170186079" lon="10.05061647908112"><ele>40.0</ele><time>2026-04-18T15:05:38.999Z</time></trkpt><trkpt lat="44.97148710137143" lon="10.05049721621647"><ele>40.0</ele><time>2026-04-18T15:05:39.999Z</time></trkpt><trkpt lat="44.97151523201401" lon="10.050374927613026"><ele>40.0</ele><time>2026-04-18T15:05:40.999Z</time></trkpt><trkpt lat="44.97153983560514" lon="10.050249893628717"><ele>40.0</ele><time>2026-04-18T15:05:41.999Z</time></trkpt><trkpt lat="44.971566693493884" lon="10.05012828369076"><ele>40.0</ele><time>2026-04-18T15:05:42.999Z</time></trkpt><trkpt lat="44.971593809851626" lon="10.050003649614696"><ele>40.2</ele><time>2026-04-18T15:05:43.999Z</time></trkpt><trkpt lat="44.97162019289489" lon="10.049883149298248"><ele>40.4</ele><time>2026-04-18T15:05:44.999Z</time></trkpt><trkpt lat="44.971650516144386" lon="10.04975946938289"><ele>40.599999999999994</ele><time>2026-04-18T15:05:45.999Z</time></trkpt><trkpt lat="44.97167949255134" lon="10.049641682609924"><ele>40.8</ele><time>2026-04-18T15:05:46.999Z</time></trkpt><trkpt lat="44.97170348465952" lon="10.04951484370984"><ele>41.0</ele><time>2026-04-18T15:05:47.999Z</time></trkpt><trkpt lat="44.971732251762" lon="10.049395569392354"><ele>40.8</ele><time>2026-04-18T15:05:48.999Z</time></trkpt><trkpt lat="44.97175891732781" lon="10.04927338586086"><ele>40.599999999999994</ele><time>2026-04-18T15:05:49.999Z</time></trkpt><trkpt lat="44.97179009198019" lon="10.049152368937373"><ele>40.4</ele><time>2026-04-18T15:05:50.999Z</time></trkpt><trkpt lat="44.97181500591215" lon="10.049030672871899"><ele>40.2</ele><time>2026-04-18T15:05:51.999Z</time></trkpt><trkpt lat="44.97185662080545" lon="10.048916472155058"><ele>40.0</ele><time>2026-04-18T15:05:52.999Z</time></trkpt><trkpt lat="44.971868485803945" lon="10.048791187369197"><ele>40.0</ele><time>2026-04-18T15:05:53.999Z</time></trkpt><trkpt lat="44.97190971591155" lon="10.048682650620337"><ele>40.0</ele><time>2026-04-18T15:05:54.999Z</time></trkpt><trkpt lat="44.9719247009875" lon="10.048559576105943"><ele>40.0</ele><time>2026-04-18T15:05:55.999Z</time></trkpt><trkpt lat="44.97195701211461" lon="10.048434017971369"><ele>40.0</ele><time>2026-04-18T15:05:56.999Z</time></trkpt><trkpt lat="44.97198266640874" lon="10.048313122950246"><ele>40.0</ele><time>2026-04-18T15:05:57.999Z</time></trkpt><trkpt lat="44.97200969612065" lon="10.048187437507622"><ele>40.16666666666667</ele><time>2026-04-18T15:05:58.999Z</time></trkpt><trkpt lat="44.97203850896522" lon="10.048063065636375"><ele>40.333333333333336</ele><time>2026-04-18T15:05:59.999Z</time></trkpt><trkpt lat="44.972062294949346" lon="10.047941739678567"><ele>40.5</ele><time>2026-04-18T15:06:00.999Z</time></trkpt><trkpt lat="44.97209740126907" lon="10.047823276286534"><ele>40.666666666666664</ele><time>2026-04-18T15:06:01.999Z</time></trkpt><trkpt lat="44.97212215277504" lon="10.04770422841054"><ele>40.83333333333333</ele><time>2026-04-18T15:06:02.999Z</time></trkpt><trkpt lat="44.97214807421772" lon="10.047585479864656"><ele>41.0</ele><time>2026-04-18T15:06:03.999Z</time></trkpt><trkpt lat="44.97217575261574" lon="10.047472479703865"><ele>41.0</ele><time>2026-04-18T15:06:04.999Z</time></trkpt><trkpt lat="44.97220336919856" lon="10.047351757195704"><ele>41.0</ele><time>2026-04-18T15:06:05.999Z</time></trkpt><trkpt lat="44.97222889697197" lon="10.047233423481247"><ele>41.0</ele><time>2026-04-18T15:06:06.999Z</time></trkpt><trkpt lat="44.97225524197635" lon="10.047112954440445"><ele>41.0</ele><time>2026-04-18T15:06:07.999Z</time></trkpt><trkpt lat="44.97228068358052" lon="10.046991386632314"><ele>41.0</ele><time>2026-04-18T15:06:08.999Z</time></trkpt><trkpt lat="44.97230704460383" lon="10.04687191770459"><ele>41.0</ele><time>2026-04-18T15:06:09.999Z</time></trkpt><trkpt lat="44.97233219724645" lon="10.046750857100953"><ele>41.0</ele><time>2026-04-18T15:06:10.999Z</time></trkpt><trkpt lat="44.97236183916453" lon="10.046632827805878"><ele>41.0</ele><time>2026-04-18T15:06:11.999Z</time></trkpt><trkpt lat="44.97239128787179" lon="10.046513727677976"><ele>41.0</ele><time>2026-04-18T15:06:12.999Z</time></trkpt><trkpt lat="44.97241210550106" lon="10.046393488772358"><ele>41.0</ele><time>2026-04-18T15:06:13.999Z</time></trkpt><trkpt lat="44.972436442386154" lon="10.04627409337973"><ele>41.0</ele><time>2026-04-18T15:06:14.999Z</time></trkpt><trkpt lat="44.97246486558615" lon="10.046154176642455"><ele>41.0</ele><time>2026-04-18T15:06:15.999Z</time></trkpt><trkpt lat="44.9724878593878" lon="10.046037767097367"><ele>41.0</ele><time>2026-04-18T15:06:16.999Z</time></trkpt><trkpt lat="44.97251578204184" lon="10.04591755936036"><ele>41.0</ele><time>2026-04-18T15:06:17.999Z</time></trkpt><trkpt lat="44.972543808095146" lon="10.045798619345318"><ele>41.0</ele><time>2026-04-18T15:06:18.999Z</time></trkpt><trkpt lat="44.9725679732805" lon="10.04567979692873"><ele>41.0</ele><time>2026-04-18T15:06:19.998Z</time></trkpt><trkpt lat="44.972592284089004" lon="10.045559867655792"><ele>41.0</ele><time>2026-04-18T15:06:20.998Z</time></trkpt><trkpt lat="44.97262335343177" lon="10.045440896861429"><ele>41.0</ele><time>2026-04-18T15:06:21.998Z</time></trkpt><trkpt lat="44.97264755621871" lon="10.045322584505156"><ele>40.666666666666664</ele><time>2026-04-18T15:06:22.998Z</time></trkpt><trkpt lat="44.9726722506439" lon="10.045204299539868"><ele>40.33333333333333</ele><time>2026-04-18T15:06:23.998Z</time></trkpt><trkpt lat="44.97269478089854" lon="10.045088774232276"><ele>40.0</ele><time>2026-04-18T15:06:24.998Z</time></trkpt><trkpt lat="44.972720195669915" lon="10.04497608260075"><ele>39.666666666666664</ele><time>2026-04-18T15:06:25.998Z</time></trkpt><trkpt lat="44.97274008781744" lon="10.044863877178956"><ele>39.333333333333336</ele><time>2026-04-18T15:06:26.998Z</time></trkpt><trkpt lat="44.972762987277314" lon="10.044755467394872"><ele>39.0</ele><time>2026-04-18T15:06:27.998Z</time></trkpt><trkpt lat="44.97279626562196" lon="10.044651406755518"><ele>39.0</ele><time>2026-04-18T15:06:28.998Z</time></trkpt><trkpt lat="44.97281663834352" lon="10.04454230069216"><ele>39.0</ele><time>2026-04-18T15:06:29.998Z</time></trkpt><trkpt lat="44.972839595391484" lon="10.044433862312962"><ele>39.0</ele><time>2026-04-18T15:06:30.998Z</time></trkpt><trkpt lat="44.972861571888636" lon="10.044325410482449"><ele>39.0</ele><time>2026-04-18T15:06:31.998Z</time></trkpt><trkpt lat="44.97288730834925" lon="10.044218824569176"><ele>39.0</ele><time>2026-04-18T15:06:32.998Z</time></trkpt><trkpt lat="44.972911410113184" lon="10.044104573827582"><ele>39.0</ele><time>2026-04-18T15:06:33.998Z</time></trkpt><trkpt lat="44.972930816704455" lon="10.04398854471582"><ele>39.166666666666664</ele><time>2026-04-18T15:06:34.998Z</time></trkpt><trkpt lat="44.97295458522152" lon="10.043876539905206"><ele>39.333333333333336</ele><time>2026-04-18T15:06:35.998Z</time></trkpt><trkpt lat="44.972977610067005" lon="10.04376182782867"><ele>39.5</ele><time>2026-04-18T15:06:36.998Z</time></trkpt><trkpt lat="44.97299932148749" lon="10.043644285533352"><ele>39.66666666666667</ele><time>2026-04-18T15:06:37.998Z</time></trkpt><trkpt lat="44.97302378008126" lon="10.043528922982311"><ele>39.833333333333336</ele><time>2026-04-18T15:06:38.998Z</time></trkpt><trkpt lat="44.973044543736805" lon="10.043417188704254"><ele>40.0</ele><time>2026-04-18T15:06:39.998Z</time></trkpt><trkpt lat="44.97306879969846" lon="10.043304077312396"><ele>40.285714285714285</ele><time>2026-04-18T15:06:40.998Z</time></trkpt><trkpt lat="44.97310758034573" lon="10.04320322082077"><ele>40.57142857142857</ele><time>2026-04-18T15:06:41.998Z</time></trkpt><trkpt lat="44.97313586186973" lon="10.043095569422805"><ele>40.85714285714286</ele><time>2026-04-18T15:06:42.998Z</time></trkpt><trkpt lat="44.973171214081304" lon="10.043004692480972"><ele>41.14285714285714</ele><time>2026-04-18T15:06:43.998Z</time></trkpt><trkpt lat="44.97320534500234" lon="10.042914015730963"><ele>41.42857142857143</ele><time>2026-04-18T15:06:44.998Z</time></trkpt><trkpt lat="44.97322304149689" lon="10.042821981746798"><ele>41.714285714285715</ele><time>2026-04-18T15:06:45.998Z</time></trkpt><trkpt lat="44.97327417811807" lon="10.042765144552913"><ele>42.0</ele><time>2026-04-18T15:06:46.998Z</time></trkpt><trkpt lat="44.97338077037597" lon="10.042688813248178"><ele>42.0</ele><time>2026-04-18T15:06:48.998Z</time></trkpt><trkpt lat="44.97346137990569" lon="10.04259758204485"><ele>42.0</ele><time>2026-04-18T15:06:50.998Z</time></trkpt><trkpt lat="44.97340526230699" lon="10.042469240200711"><ele>42.0</ele><time>2026-04-18T15:06:52.998Z</time></trkpt><trkpt lat="44.973341959675594" lon="10.04247662680037"><ele>42.0</ele><time>2026-04-18T15:06:53.998Z</time></trkpt><trkpt lat="44.973250982146936" lon="10.042382174389012"><ele>42.0</ele><time>2026-04-18T15:06:55.998Z</time></trkpt><trkpt lat="44.973414521726305" lon="10.042176027755081"><ele>42.166666666666664</ele><time>2026-04-18T15:06:58.998Z</time></trkpt><trkpt lat="44.973508347587256" lon="10.042046609181279"><ele>42.333333333333336</ele><time>2026-04-18T15:07:00.998Z</time></trkpt><trkpt lat="44.973556903773" lon="10.041978306907698"><ele>42.5</ele><time>2026-04-18T15:07:01.998Z</time></trkpt><trkpt lat="44.97361290534778" lon="10.0418995312813"><ele>42.66666666666667</ele><time>2026-04-18T15:07:02.998Z</time></trkpt><trkpt lat="44.97366515303591" lon="10.041826036239037"><ele>42.833333333333336</ele><time>2026-04-18T15:07:03.998Z</time></trkpt><trkpt lat="44.973723360344664" lon="10.041744158050715"><ele>43.0</ele><time>2026-04-18T15:07:04.998Z</time></trkpt><trkpt lat="44.97377887093465" lon="10.041666073086397"><ele>42.833333333333336</ele><time>2026-04-18T15:07:05.998Z</time></trkpt><trkpt lat="44.97381947348366" lon="10.041562638365244"><ele>42.66666666666667</ele><time>2026-04-18T15:07:06.998Z</time></trkpt><trkpt lat="44.97388694335375" lon="10.041488374318424"><ele>42.5</ele><time>2026-04-18T15:07:07.998Z</time></trkpt><trkpt lat="44.97394186244992" lon="10.04139820273632"><ele>42.333333333333336</ele><time>2026-04-18T15:07:08.998Z</time></trkpt><trkpt lat="44.973996003489226" lon="10.04132007566916"><ele>42.166666666666664</ele><time>2026-04-18T15:07:09.998Z</time></trkpt><trkpt lat="44.97406044227626" lon="10.041238868766335"><ele>42.0</ele><time>2026-04-18T15:07:11Z</time></trkpt><trkpt lat="44.97412450433409" lon="10.041153970048596"><ele>42.0</ele><time>2026-04-18T15:07:12Z</time></trkpt><trkpt lat="44.97418475809545" lon="10.04106847971842"><ele>42.0</ele><time>2026-04-18T15:07:13Z</time></trkpt><trkpt lat="44.974242812711495" lon="10.04097746628279"><ele>42.0</ele><time>2026-04-18T15:07:14Z</time></trkpt><trkpt lat="44.974305100610465" lon="10.04088965729193"><ele>42.0</ele><time>2026-04-18T15:07:15Z</time></trkpt><trkpt lat="44.97436375746081" lon="10.040801632527698"><ele>42.0</ele><time>2026-04-18T15:07:16Z</time></trkpt><trkpt lat="44.97442331457714" lon="10.040710866124737"><ele>42.0</ele><time>2026-04-18T15:07:17Z</time></trkpt><trkpt lat="44.97448549396451" lon="10.040630744224782"><ele>42.0</ele><time>2026-04-18T15:07:18Z</time></trkpt><trkpt lat="44.97454323575811" lon="10.040542722970518"><ele>42.0</ele><time>2026-04-18T15:07:19Z</time></trkpt><trkpt lat="44.97460244754023" lon="10.040454585469849"><ele>42.0</ele><time>2026-04-18T15:07:20Z</time></trkpt><trkpt lat="44.97466041692877" lon="10.040368480903098"><ele>42.0</ele><time>2026-04-18T15:07:21Z</time></trkpt><trkpt lat="44.97472001049588" lon="10.04028407048164"><ele>42.0</ele><time>2026-04-18T15:07:22Z</time></trkpt><trkpt lat="44.974774617782764" lon="10.040197118200325"><ele>42.0</ele><time>2026-04-18T15:07:23Z</time></trkpt><trkpt lat="44.97483522712725" lon="10.040120513074438"><ele>42.0</ele><time>2026-04-18T15:07:24Z</time></trkpt><trkpt lat="44.97489599161077" lon="10.040034653047382"><ele>42.0</ele><time>2026-04-18T15:07:25Z</time></trkpt><trkpt lat="44.974954257706" lon="10.039956576780646"><ele>42.0</ele><time>2026-04-18T15:07:26Z</time></trkpt><trkpt lat="44.97500680746913" lon="10.039876596176292"><ele>42.0</ele><time>2026-04-18T15:07:27Z</time></trkpt><trkpt lat="44.97507475231429" lon="10.039796768612025"><ele>42.0</ele><time>2026-04-18T15:07:28Z</time></trkpt><trkpt lat="44.97513861759666" lon="10.039715879961904"><ele>42.0</ele><time>2026-04-18T15:07:29Z</time></trkpt><trkpt lat="44.97520648632274" lon="10.039639182865155"><ele>42.333333333333336</ele><time>2026-04-18T15:07:29.999Z</time></trkpt><trkpt lat="44.97527791694833" lon="10.039584431747324"><ele>42.666666666666664</ele><time>2026-04-18T15:07:30.999Z</time></trkpt><trkpt lat="44.97536417891552" lon="10.039553131877788"><ele>43.0</ele><time>2026-04-18T15:07:31.999Z</time></trkpt><trkpt lat="44.975458892338786" lon="10.03955029504627"><ele>43.33333333333333</ele><time>2026-04-18T15:07:32.999Z</time></trkpt><trkpt lat="44.97554919774917" lon="10.039578172146983"><ele>43.666666666666664</ele><time>2026-04-18T15:07:33.999Z</time></trkpt><trkpt lat="44.97563100059484" lon="10.03959626074247"><ele>44.0</ele><time>2026-04-18T15:07:34.999Z</time></trkpt><trkpt lat="44.97570686714778" lon="10.039645925705013"><ele>44.0</ele><time>2026-04-18T15:07:35.999Z</time></trkpt><trkpt lat="44.97579239764576" lon="10.039701678665432"><ele>44.0</ele><time>2026-04-18T15:07:36.999Z</time></trkpt><trkpt lat="44.97587534882393" lon="10.039744373948187"><ele>44.0</ele><time>2026-04-18T15:07:37.999Z</time></trkpt><trkpt lat="44.97595711807286" lon="10.039801193710591"><ele>44.0</ele><time>2026-04-18T15:07:38.999Z</time></trkpt><trkpt lat="44.976021259335326" lon="10.039909489151508"><ele>44.0</ele><time>2026-04-18T15:07:39.999Z</time></trkpt><trkpt lat="44.976104218424815" lon="10.039953796871318"><ele>44.0</ele><time>2026-04-18T15:07:40.999Z</time></trkpt><trkpt lat="44.976193036697815" lon="10.04000289770341"><ele>44.0</ele><time>2026-04-18T15:07:41.999Z</time></trkpt><trkpt lat="44.97626856886639" lon="10.04004427380119"><ele>44.0</ele><time>2026-04-18T15:07:42.999Z</time></trkpt><trkpt lat="44.976354876159576" lon="10.04009223912241"><ele>44.0</ele><time>2026-04-18T15:07:43.999Z</time></trkpt><trkpt lat="44.976435488080725" lon="10.040137833958902"><ele>44.0</ele><time>2026-04-18T15:07:44.999Z</time></trkpt><trkpt lat="44.97651132090405" lon="10.040180723993778"><ele>44.0</ele><time>2026-04-18T15:07:45.999Z</time></trkpt><trkpt lat="44.97659043436274" lon="10.040225469511388"><ele>44.0</ele><time>2026-04-18T15:07:46.999Z</time></trkpt><trkpt lat="44.97666587948298" lon="10.04026814154674"><ele>44.0</ele><time>2026-04-18T15:07:47.999Z</time></trkpt><trkpt lat="44.97673938914031" lon="10.04031002062664"><ele>44.0</ele><time>2026-04-18T15:07:48.999Z</time></trkpt><trkpt lat="44.976809466738885" lon="10.040349858153174"><ele>44.0</ele><time>2026-04-18T15:07:49.999Z</time></trkpt><trkpt lat="44.976886869986004" lon="10.040393860024883"><ele>44.0</ele><time>2026-04-18T15:07:50.999Z</time></trkpt><trkpt lat="44.97696380050637" lon="10.040437594950205"><ele>44.0</ele><time>2026-04-18T15:07:51.999Z</time></trkpt><trkpt lat="44.97703909860377" lon="10.040480670496606"><ele>44.166666666666664</ele><time>2026-04-18T15:07:52.999Z</time></trkpt><trkpt lat="44.977111968385884" lon="10.04052226109006"><ele>44.33333333333333</ele><time>2026-04-18T15:07:53.999Z</time></trkpt><trkpt lat="44.977186396099" lon="10.040564706287492"><ele>44.5</ele><time>2026-04-18T15:07:54.999Z</time></trkpt><trkpt lat="44.97726339476296" lon="10.040608575722501"><ele>44.666666666666664</ele><time>2026-04-18T15:07:55.999Z</time></trkpt><trkpt lat="44.97733600445361" lon="10.040649944593822"><ele>44.833333333333336</ele><time>2026-04-18T15:07:56.999Z</time></trkpt><trkpt lat="44.97740503448052" lon="10.040689273991756"><ele>45.0</ele><time>2026-04-18T15:07:57.999Z</time></trkpt><trkpt lat="44.97747523287894" lon="10.04072926901796"><ele>45.0</ele><time>2026-04-18T15:07:58.999Z</time></trkpt><trkpt lat="44.977594675942925" lon="10.040797291810701"><ele>45.0</ele><time>2026-04-18T15:08:00.999Z</time></trkpt><trkpt lat="44.9776633859342" lon="10.040836406227081"><ele>45.0</ele><time>2026-04-18T15:08:01.999Z</time></trkpt><trkpt lat="44.97773137186592" lon="10.040875275343215"><ele>45.0</ele><time>2026-04-18T15:08:02.999Z</time></trkpt><trkpt lat="44.97782667661296" lon="10.040927134219176"><ele>45.0</ele><time>2026-04-18T15:08:04.999Z</time></trkpt><trkpt lat="44.977899479962446" lon="10.040963701003825"><ele>45.0</ele><time>2026-04-18T15:08:07.999Z</time></trkpt><trkpt lat="44.97798150653339" lon="10.041001844000387"><ele>45.0</ele><time>2026-04-18T15:08:10.999Z</time></trkpt><trkpt lat="44.9780564152859" lon="10.040817436841158"><ele>45.0</ele><time>2026-04-18T15:08:12.999Z</time></trkpt><trkpt lat="44.97809891515994" lon="10.040659592286435"><ele>45.0</ele><time>2026-04-18T15:08:14.999Z</time></trkpt><trkpt lat="44.978158097531185" lon="10.040500572028002"><ele>44.666666666666664</ele><time>2026-04-18T15:08:16.999Z</time></trkpt><trkpt lat="44.97819265066409" lon="10.040420119580824"><ele>44.333333333333336</ele><time>2026-04-18T15:08:17.999Z</time></trkpt><trkpt lat="44.978224244543696" lon="10.040330585253335"><ele>44.0</ele><time>2026-04-18T15:08:18.999Z</time></trkpt><trkpt lat="44.97825838941892" lon="10.040234113601793"><ele>43.66666666666667</ele><time>2026-04-18T15:08:19.999Z</time></trkpt><trkpt lat="44.978297844454254" lon="10.040131304330444"><ele>43.333333333333336</ele><time>2026-04-18T15:08:20.999Z</time></trkpt><trkpt lat="44.97833813082116" lon="10.040026283691242"><ele>43.0</ele><time>2026-04-18T15:08:21.999Z</time></trkpt><trkpt lat="44.97837892994393" lon="10.0399155470253"><ele>42.833333333333336</ele><time>2026-04-18T15:08:22.999Z</time></trkpt><trkpt lat="44.97841953309574" lon="10.039809644591495"><ele>42.66666666666667</ele><time>2026-04-18T15:08:23.999Z</time></trkpt><trkpt lat="44.978460852234974" lon="10.03970404242"><ele>42.5</ele><time>2026-04-18T15:08:24.998Z</time></trkpt><trkpt lat="44.978486471592554" lon="10.039591677581088"><ele>42.333333333333336</ele><time>2026-04-18T15:08:25.998Z</time></trkpt><trkpt lat="44.97850346328346" lon="10.039483753670318"><ele>42.166666666666664</ele><time>2026-04-18T15:08:26.998Z</time></trkpt><trkpt lat="44.9785240838386" lon="10.039361667253832"><ele>42.0</ele><time>2026-04-18T15:08:27.998Z</time></trkpt><trkpt lat="44.978543389470815" lon="10.03925098632704"><ele>42.0</ele><time>2026-04-18T15:08:28.998Z</time></trkpt><trkpt lat="44.978568136350695" lon="10.039156254127201"><ele>42.0</ele><time>2026-04-18T15:08:29.998Z</time></trkpt><trkpt lat="44.978584491861405" lon="10.039057589588841"><ele>42.0</ele><time>2026-04-18T15:08:30.998Z</time></trkpt><trkpt lat="44.97861540050888" lon="10.038972179694696"><ele>42.0</ele><time>2026-04-18T15:08:31.998Z</time></trkpt><trkpt lat="44.97866834549467" lon="10.038894394054745"><ele>42.0</ele><time>2026-04-18T15:08:33.998Z</time></trkpt><trkpt lat="44.97880365737914" lon="10.039047306045651"><ele>42.0</ele><time>2026-04-18T15:08:34.998Z</time></trkpt><trkpt lat="44.97888332562127" lon="10.039069200477556"><ele>42.0</ele><time>2026-04-18T15:08:35.998Z</time></trkpt><trkpt lat="44.97896143108476" lon="10.039090665440474"><ele>42.0</ele><time>2026-04-18T15:08:36.998Z</time></trkpt><trkpt lat="44.97903936953752" lon="10.039112084309354"><ele>42.0</ele><time>2026-04-18T15:08:37.998Z</time></trkpt><trkpt lat="44.97912195293914" lon="10.039134398949528"><ele>42.0</ele><time>2026-04-18T15:08:38.998Z</time></trkpt><trkpt lat="44.97920525088199" lon="10.039156530538888"><ele>42.0</ele><time>2026-04-18T15:08:39.998Z</time></trkpt><trkpt lat="44.97928866762416" lon="10.039178670329358"><ele>42.0</ele><time>2026-04-18T15:08:40.998Z</time></trkpt><trkpt lat="44.97937235043165" lon="10.039200551598428"><ele>42.0</ele><time>2026-04-18T15:08:41.998Z</time></trkpt><trkpt lat="44.97945370738218" lon="10.039221356626586"><ele>42.0</ele><time>2026-04-18T15:08:42.998Z</time></trkpt><trkpt lat="44.97953878986007" lon="10.039243228778293"><ele>42.0</ele><time>2026-04-18T15:08:43.998Z</time></trkpt><trkpt lat="44.979624359650295" lon="10.039265167377833"><ele>42.0</ele><time>2026-04-18T15:08:44.998Z</time></trkpt><trkpt lat="44.979704624347214" lon="10.039285472914594"><ele>42.0</ele><time>2026-04-18T15:08:45.998Z</time></trkpt><trkpt lat="44.97978393437822" lon="10.039305536931312"><ele>42.0</ele><time>2026-04-18T15:08:46.998Z</time></trkpt><trkpt lat="44.97985990531493" lon="10.039324755889393"><ele>42.0</ele><time>2026-04-18T15:08:47.998Z</time></trkpt><trkpt lat="44.979941846689286" lon="10.039344334318963"><ele>42.0</ele><time>2026-04-18T15:08:48.998Z</time></trkpt><trkpt lat="44.980023503217566" lon="10.039363709768333"><ele>42.0</ele><time>2026-04-18T15:08:49.998Z</time></trkpt><trkpt lat="44.98011078902417" lon="10.039384594541263"><ele>42.0</ele><time>2026-04-18T15:08:50.998Z</time></trkpt><trkpt lat="44.980197718676" lon="10.03940539385343"><ele>42.0</ele><time>2026-04-18T15:08:51.998Z</time></trkpt><trkpt lat="44.98027990151225" lon="10.039426159116795"><ele>41.666666666666664</ele><time>2026-04-18T15:08:52.998Z</time></trkpt><trkpt lat="44.98036238547428" lon="10.039445666591407"><ele>41.333333333333336</ele><time>2026-04-18T15:08:53.998Z</time></trkpt><trkpt lat="44.98044535810698" lon="10.039466229259887"><ele>41.0</ele><time>2026-04-18T15:08:54.998Z</time></trkpt><trkpt lat="44.98052527519856" lon="10.039486030159129"><ele>40.66666666666667</ele><time>2026-04-18T15:08:55.998Z</time></trkpt><trkpt lat="44.980604946905515" lon="10.039505770705812"><ele>40.333333333333336</ele><time>2026-04-18T15:08:56.998Z</time></trkpt><trkpt lat="44.980683330817335" lon="10.039525876513688"><ele>40.0</ele><time>2026-04-18T15:08:57.998Z</time></trkpt><trkpt lat="44.98076031075281" lon="10.039545448204459"><ele>40.0</ele><time>2026-04-18T15:08:58.998Z</time></trkpt><trkpt lat="44.98084097435276" lon="10.039565956365362"><ele>40.0</ele><time>2026-04-18T15:08:59.998Z</time></trkpt><trkpt lat="44.98092273037322" lon="10.039552332644119"><ele>40.0</ele><time>2026-04-18T15:09:00.998Z</time></trkpt><trkpt lat="44.98100362109312" lon="10.03957443458202"><ele>40.0</ele><time>2026-04-18T15:09:01.998Z</time></trkpt><trkpt lat="44.981088564258556" lon="10.039587009028716"><ele>40.0</ele><time>2026-04-18T15:09:02.998Z</time></trkpt><trkpt lat="44.98117000243644" lon="10.039606347301907"><ele>40.0</ele><time>2026-04-18T15:09:03.998Z</time></trkpt><trkpt lat="44.981252033870014" lon="10.039628361619616"><ele>40.333333333333336</ele><time>2026-04-18T15:09:04.998Z</time></trkpt><trkpt lat="44.981339942329264" lon="10.039644443250713"><ele>40.66666666666667</ele><time>2026-04-18T15:09:05.998Z</time></trkpt><trkpt lat="44.9814203566322" lon="10.039714205728307"><ele>41.0</ele><time>2026-04-18T15:09:06.998Z</time></trkpt><trkpt lat="44.98150606643436" lon="10.039735604331332"><ele>41.333333333333336</ele><time>2026-04-18T15:09:07.998Z</time></trkpt><trkpt lat="44.98159099235899" lon="10.039756098861368"><ele>41.666666666666664</ele><time>2026-04-18T15:09:08.998Z</time></trkpt><trkpt lat="44.98167564520269" lon="10.039776527313268"><ele>42.0</ele><time>2026-04-18T15:09:09.998Z</time></trkpt><trkpt lat="44.981763792959505" lon="10.039797800106058"><ele>42.0</ele><time>2026-04-18T15:09:10.998Z</time></trkpt><trkpt lat="44.981848355427566" lon="10.03981910494976"><ele>42.0</ele><time>2026-04-18T15:09:11.998Z</time></trkpt><trkpt lat="44.981930715945026" lon="10.039839513683711"><ele>42.0</ele><time>2026-04-18T15:09:12.998Z</time></trkpt><trkpt lat="44.982014681190904" lon="10.039860320033473"><ele>42.0</ele><time>2026-04-18T15:09:13.998Z</time></trkpt><trkpt lat="44.98209434093037" lon="10.039880669145813"><ele>42.0</ele><time>2026-04-18T15:09:14.998Z</time></trkpt><trkpt lat="44.98218051133171" lon="10.039880234803114"><ele>42.0</ele><time>2026-04-18T15:09:15.998Z</time></trkpt><trkpt lat="44.982261678224106" lon="10.039926746437931"><ele>42.0</ele><time>2026-04-18T15:09:17Z</time></trkpt><trkpt lat="44.982346969355135" lon="10.039935598157063"><ele>42.0</ele><time>2026-04-18T15:09:18Z</time></trkpt><trkpt lat="44.98242785556549" lon="10.039975057112557"><ele>42.0</ele><time>2026-04-18T15:09:19Z</time></trkpt><trkpt lat="44.982501731516365" lon="10.040020839249602"><ele>42.0</ele><time>2026-04-18T15:09:20Z</time></trkpt><trkpt lat="44.98257309457467" lon="10.04009123806076"><ele>42.0</ele><time>2026-04-18T15:09:21Z</time></trkpt><trkpt lat="44.98262303435781" lon="10.04018733929062"><ele>42.0</ele><time>2026-04-18T15:09:22Z</time></trkpt><trkpt lat="44.9826900632453" lon="10.04026102567772"><ele>41.833333333333336</ele><time>2026-04-18T15:09:23Z</time></trkpt><trkpt lat="44.982761018989365" lon="10.040324385219513"><ele>41.666666666666664</ele><time>2026-04-18T15:09:24Z</time></trkpt><trkpt lat="44.982844634436475" lon="10.040376350043864"><ele>41.5</ele><time>2026-04-18T15:09:25Z</time></trkpt><trkpt lat="44.982932833307" lon="10.040409254456476"><ele>41.33333333333333</ele><time>2026-04-18T15:09:26Z</time></trkpt><trkpt lat="44.98301809705324" lon="10.040432238313931"><ele>41.166666666666664</ele><time>2026-04-18T15:09:27Z</time></trkpt><trkpt lat="44.983100392453906" lon="10.040455178038345"><ele>41.0</ele><time>2026-04-18T15:09:28Z</time></trkpt><trkpt lat="44.98318581137361" lon="10.040479984102506"><ele>41.0</ele><time>2026-04-18T15:09:29Z</time></trkpt><trkpt lat="44.983269488190416" lon="10.040481575039419"><ele>41.0</ele><time>2026-04-18T15:09:30Z</time></trkpt><trkpt lat="44.98334737447076" lon="10.040525304496189"><ele>41.0</ele><time>2026-04-18T15:09:31Z</time></trkpt><trkpt lat="44.983425162214814" lon="10.040546500525181"><ele>41.0</ele><time>2026-04-18T15:09:32Z</time></trkpt><trkpt lat="44.98350431568387" lon="10.04056806869919"><ele>41.0</ele><time>2026-04-18T15:09:33Z</time></trkpt><trkpt lat="44.98358566545674" lon="10.04059023533234"><ele>41.0</ele><time>2026-04-18T15:09:34Z</time></trkpt><trkpt lat="44.98366568051287" lon="10.040612038284056"><ele>40.83333333333333</ele><time>2026-04-18T15:09:34.999Z</time></trkpt><trkpt lat="44.98374502489748" lon="10.040633492830244"><ele>40.666666666666664</ele><time>2026-04-18T15:09:35.999Z</time></trkpt><trkpt lat="44.98382947189476" lon="10.040656219458482"><ele>40.5</ele><time>2026-04-18T15:09:36.999Z</time></trkpt><trkpt lat="44.98391228805211" lon="10.04067846291587"><ele>40.333333333333336</ele><time>2026-04-18T15:09:37.999Z</time></trkpt><trkpt lat="44.98399531920234" lon="10.040698956450374"><ele>40.16666666666667</ele><time>2026-04-18T15:09:38.999Z</time></trkpt><trkpt lat="44.98407856281939" lon="10.040719057280185"><ele>40.0</ele><time>2026-04-18T15:09:39.999Z</time></trkpt><trkpt lat="44.98416141403131" lon="10.040738121966914"><ele>40.0</ele><time>2026-04-18T15:09:40.999Z</time></trkpt><trkpt lat="44.984246243845284" lon="10.040753934165346"><ele>40.0</ele><time>2026-04-18T15:09:41.999Z</time></trkpt><trkpt lat="44.98433622427025" lon="10.040763073237308"><ele>40.0</ele><time>2026-04-18T15:09:42.999Z</time></trkpt><trkpt lat="44.984421306288404" lon="10.04076163978239"><ele>40.0</ele><time>2026-04-18T15:09:43.999Z</time></trkpt><trkpt lat="44.98451100740467" lon="10.040749962477939"><ele>40.0</ele><time>2026-04-18T15:09:44.999Z</time></trkpt><trkpt lat="44.98460113633882" lon="10.040718958403586"><ele>40.0</ele><time>2026-04-18T15:09:46Z</time></trkpt><trkpt lat="44.98468253349444" lon="10.040683681250078"><ele>40.0</ele><time>2026-04-18T15:09:47Z</time></trkpt><trkpt lat="44.98476112050858" lon="10.040644197557086"><ele>40.0</ele><time>2026-04-18T15:09:48Z</time></trkpt><trkpt lat="44.984837905465746" lon="10.040603061457002"><ele>40.0</ele><time>2026-04-18T15:09:49Z</time></trkpt><trkpt lat="44.984915995112196" lon="10.040556134226405"><ele>40.0</ele><time>2026-04-18T15:09:50Z</time></trkpt><trkpt lat="44.98499194345083" lon="10.040504168373682"><ele>40.0</ele><time>2026-04-18T15:09:51Z</time></trkpt><trkpt lat="44.98507020030726" lon="10.040445942113626"><ele>40.0</ele><time>2026-04-18T15:09:52Z</time></trkpt><trkpt lat="44.98514468466631" lon="10.040387659814051"><ele>40.0</ele><time>2026-04-18T15:09:53Z</time></trkpt><trkpt lat="44.98521936825276" lon="10.04032600535511"><ele>40.0</ele><time>2026-04-18T15:09:54Z</time></trkpt><trkpt lat="44.985293171626" lon="10.040263376848944"><ele>40.0</ele><time>2026-04-18T15:09:55Z</time></trkpt><trkpt lat="44.985367042703885" lon="10.040200106279316"><ele>40.0</ele><time>2026-04-18T15:09:56Z</time></trkpt><trkpt lat="44.985437618193046" lon="10.04013713637563"><ele>40.0</ele><time>2026-04-18T15:09:57Z</time></trkpt><trkpt lat="44.98550918792232" lon="10.040072813694218"><ele>40.0</ele><time>2026-04-18T15:09:58Z</time></trkpt><trkpt lat="44.98557926029785" lon="10.040009172113491"><ele>40.0</ele><time>2026-04-18T15:09:59Z</time></trkpt><trkpt lat="44.98565209554277" lon="10.039943021319878"><ele>40.0</ele><time>2026-04-18T15:10:00Z</time></trkpt><trkpt lat="44.98571996154802" lon="10.039881383652814"><ele>40.0</ele><time>2026-04-18T15:10:01Z</time></trkpt><trkpt lat="44.985789537611964" lon="10.039818192959226"><ele>40.0</ele><time>2026-04-18T15:10:02Z</time></trkpt><trkpt lat="44.98586002288395" lon="10.039754176210693"><ele>40.0</ele><time>2026-04-18T15:10:03Z</time></trkpt><trkpt lat="44.985927966670175" lon="10.03969246809099"><ele>40.0</ele><time>2026-04-18T15:10:04Z</time></trkpt><trkpt lat="44.98599485703093" lon="10.039631716550206"><ele>39.66666666666667</ele><time>2026-04-18T15:10:05Z</time></trkpt><trkpt lat="44.986060764864135" lon="10.03957319031865"><ele>39.333333333333336</ele><time>2026-04-18T15:10:06Z</time></trkpt><trkpt lat="44.98612726240203" lon="10.039516482071372"><ele>39.0</ele><time>2026-04-18T15:10:07Z</time></trkpt><trkpt lat="44.98619217487592" lon="10.039461125199459"><ele>38.666666666666664</ele><time>2026-04-18T15:10:08Z</time></trkpt><trkpt lat="44.98625976177564" lon="10.039409306832443"><ele>38.33333333333333</ele><time>2026-04-18T15:10:09Z</time></trkpt><trkpt lat="44.986325250790706" lon="10.039356963948704"><ele>38.0</ele><time>2026-04-18T15:10:10Z</time></trkpt><trkpt lat="44.98640093629138" lon="10.039285752452484"><ele>38.0</ele><time>2026-04-18T15:10:11Z</time></trkpt><trkpt lat="44.986480131199876" lon="10.039270427911942"><ele>38.0</ele><time>2026-04-18T15:10:12Z</time></trkpt><trkpt lat="44.986562958384965" lon="10.039264844894538"><ele>38.0</ele><time>2026-04-18T15:10:13Z</time></trkpt><trkpt lat="44.98665023573518" lon="10.039310327243358"><ele>38.0</ele><time>2026-04-18T15:10:14Z</time></trkpt><trkpt lat="44.986747569861734" lon="10.039269654702405"><ele>38.0</ele><time>2026-04-18T15:10:15Z</time></trkpt><trkpt lat="44.986838341399924" lon="10.0391859259391"><ele>38.199999999999996</ele><time>2026-04-18T15:10:16Z</time></trkpt><trkpt lat="44.98688925483657" lon="10.039071265138777"><ele>38.4</ele><time>2026-04-18T15:10:17Z</time></trkpt><trkpt lat="44.98695809093131" lon="10.038989474917203"><ele>38.599999999999994</ele><time>2026-04-18T15:10:18Z</time></trkpt><trkpt lat="44.987030856987346" lon="10.038903013474386"><ele>38.8</ele><time>2026-04-18T15:10:19Z</time></trkpt><trkpt lat="44.987130053664735" lon="10.03886893456913"><ele>39.0</ele><time>2026-04-18T15:10:20Z</time></trkpt><trkpt lat="44.98722531461987" lon="10.038829552083348"><ele>39.0</ele><time>2026-04-18T15:10:21Z</time></trkpt><trkpt lat="44.98732375718045" lon="10.038826367825106"><ele>39.0</ele><time>2026-04-18T15:10:22Z</time></trkpt><trkpt lat="44.987413988159346" lon="10.038803403226348"><ele>39.0</ele><time>2026-04-18T15:10:23Z</time></trkpt><trkpt lat="44.98749886717349" lon="10.038780511148456"><ele>39.0</ele><time>2026-04-18T15:10:24Z</time></trkpt><trkpt lat="44.98758823299361" lon="10.038754464093808"><ele>39.0</ele><time>2026-04-18T15:10:25Z</time></trkpt><trkpt lat="44.987669335608715" lon="10.038710183585549"><ele>39.166666666666664</ele><time>2026-04-18T15:10:26Z</time></trkpt><trkpt lat="44.9877545956942" lon="10.03868715261581"><ele>39.333333333333336</ele><time>2026-04-18T15:10:27Z</time></trkpt><trkpt lat="44.987840210130265" lon="10.038653170618518"><ele>39.5</ele><time>2026-04-18T15:10:28Z</time></trkpt><trkpt lat="44.98791852431448" lon="10.038616365365046"><ele>39.66666666666667</ele><time>2026-04-18T15:10:29Z</time></trkpt><trkpt lat="44.98799513373751" lon="10.038572060829578"><ele>39.833333333333336</ele><time>2026-04-18T15:10:29.999Z</time></trkpt><trkpt lat="44.988075392424186" lon="10.038520244274684"><ele>40.0</ele><time>2026-04-18T15:10:30.999Z</time></trkpt><trkpt lat="44.988156981573" lon="10.038468615265396"><ele>40.0</ele><time>2026-04-18T15:10:31.999Z</time></trkpt><trkpt lat="44.98823982270823" lon="10.038415788125173"><ele>40.0</ele><time>2026-04-18T15:10:32.999Z</time></trkpt><trkpt lat="44.98831919144465" lon="10.038366764875825"><ele>40.0</ele><time>2026-04-18T15:10:33.999Z</time></trkpt><trkpt lat="44.988399634240054" lon="10.03831566787785"><ele>40.0</ele><time>2026-04-18T15:10:34.999Z</time></trkpt><trkpt lat="44.98847699416723" lon="10.038269756982277"><ele>40.0</ele><time>2026-04-18T15:10:35.999Z</time></trkpt><trkpt lat="44.98855387685125" lon="10.038216640933921"><ele>40.0</ele><time>2026-04-18T15:10:36.999Z</time></trkpt><trkpt lat="44.9886115486559" lon="10.038155473275834"><ele>40.0</ele><time>2026-04-18T15:10:37.999Z</time></trkpt><trkpt lat="44.98869309455282" lon="10.038108870236238"><ele>40.0</ele><time>2026-04-18T15:10:38.999Z</time></trkpt><trkpt lat="44.98877247711139" lon="10.038055730060979"><ele>40.0</ele><time>2026-04-18T15:10:39.999Z</time></trkpt><trkpt lat="44.988852826338864" lon="10.038002217548186"><ele>40.0</ele><time>2026-04-18T15:10:40.999Z</time></trkpt><trkpt lat="44.98893122463514" lon="10.037945487987384"><ele>40.0</ele><time>2026-04-18T15:10:41.999Z</time></trkpt><trkpt lat="44.9890113475482" lon="10.037897204895671"><ele>40.0</ele><time>2026-04-18T15:10:42.999Z</time></trkpt><trkpt lat="44.98908985734998" lon="10.037850640957187"><ele>40.0</ele><time>2026-04-18T15:10:43.999Z</time></trkpt><trkpt lat="44.989168630159696" lon="10.037800744401176"><ele>40.0</ele><time>2026-04-18T15:10:44.999Z</time></trkpt><trkpt lat="44.98924785320482" lon="10.03775567139762"><ele>40.0</ele><time>2026-04-18T15:10:45.999Z</time></trkpt><trkpt lat="44.98932562343347" lon="10.037712083737313"><ele>40.0</ele><time>2026-04-18T15:10:46.999Z</time></trkpt><trkpt lat="44.989402155688616" lon="10.037663063978613"><ele>40.0</ele><time>2026-04-18T15:10:47.999Z</time></trkpt><trkpt lat="44.989474894139605" lon="10.03761462068438"><ele>40.0</ele><time>2026-04-18T15:10:48.999Z</time></trkpt><trkpt lat="44.989544084142025" lon="10.037572341460548"><ele>40.0</ele><time>2026-04-18T15:10:49.999Z</time></trkpt><trkpt lat="44.989618130995844" lon="10.037527653608842"><ele>40.0</ele><time>2026-04-18T15:10:50.999Z</time></trkpt><trkpt lat="44.989687318347784" lon="10.037470335382359"><ele>40.0</ele><time>2026-04-18T15:10:51.999Z</time></trkpt><trkpt lat="44.98976043577281" lon="10.037418246823108"><ele>40.0</ele><time>2026-04-18T15:10:52.999Z</time></trkpt><trkpt lat="44.98982739232618" lon="10.03735596580442"><ele>40.0</ele><time>2026-04-18T15:10:53.999Z</time></trkpt><trkpt lat="44.989896086370685" lon="10.037291233924602"><ele>40.0</ele><time>2026-04-18T15:10:54.999Z</time></trkpt><trkpt lat="44.98996405700605" lon="10.037229189536573"><ele>39.833333333333336</ele><time>2026-04-18T15:10:55.999Z</time></trkpt><trkpt lat="44.9900316036026" lon="10.037160119781033"><ele>39.66666666666667</ele><time>2026-04-18T15:10:56.999Z</time></trkpt><trkpt lat="44.99009624725747" lon="10.037083144646969"><ele>39.5</ele><time>2026-04-18T15:10:57.999Z</time></trkpt><trkpt lat="44.990158711411944" lon="10.036993662133256"><ele>39.333333333333336</ele><time>2026-04-18T15:10:58.999Z</time></trkpt><trkpt lat="44.990226967295285" lon="10.03691672635384"><ele>39.166666666666664</ele><time>2026-04-18T15:10:59.999Z</time></trkpt><trkpt lat="44.99029255136305" lon="10.036829045757734"><ele>39.0</ele><time>2026-04-18T15:11:00.999Z</time></trkpt><trkpt lat="44.99035884822032" lon="10.036744427458103"><ele>39.0</ele><time>2026-04-18T15:11:01.999Z</time></trkpt><trkpt lat="44.9904229881191" lon="10.036657057464955"><ele>39.0</ele><time>2026-04-18T15:11:02.999Z</time></trkpt><trkpt lat="44.99048350109826" lon="10.036569327861093"><ele>39.0</ele><time>2026-04-18T15:11:03.999Z</time></trkpt><trkpt lat="44.9905514166793" lon="10.036482816146787"><ele>39.0</ele><time>2026-04-18T15:11:04.999Z</time></trkpt><trkpt lat="44.99062037861585" lon="10.03639883333617"><ele>39.0</ele><time>2026-04-18T15:11:05.999Z</time></trkpt><trkpt lat="44.99068028160319" lon="10.036306899824298"><ele>39.0</ele><time>2026-04-18T15:11:06.999Z</time></trkpt><trkpt lat="44.990739742088216" lon="10.03621492885998"><ele>39.166666666666664</ele><time>2026-04-18T15:11:07.999Z</time></trkpt><trkpt lat="44.99080669276905" lon="10.036127499100045"><ele>39.333333333333336</ele><time>2026-04-18T15:11:08.999Z</time></trkpt><trkpt lat="44.99086485180664" lon="10.036035055258884"><ele>39.5</ele><time>2026-04-18T15:11:09.999Z</time></trkpt><trkpt lat="44.990929055806504" lon="10.03594853719223"><ele>39.66666666666667</ele><time>2026-04-18T15:11:10.999Z</time></trkpt><trkpt lat="44.99098997280947" lon="10.03585513015894"><ele>39.833333333333336</ele><time>2026-04-18T15:11:11.999Z</time></trkpt><trkpt lat="44.99104562663378" lon="10.035768174223415"><ele>40.0</ele><time>2026-04-18T15:11:12.999Z</time></trkpt><trkpt lat="44.99110291766869" lon="10.03567780436819"><ele>40.16666666666667</ele><time>2026-04-18T15:11:13.999Z</time></trkpt><trkpt lat="44.99116535803984" lon="10.035597441461086"><ele>40.333333333333336</ele><time>2026-04-18T15:11:14.999Z</time></trkpt><trkpt lat="44.9912274240928" lon="10.03551440128187"><ele>40.5</ele><time>2026-04-18T15:11:15.999Z</time></trkpt><trkpt lat="44.99129995920088" lon="10.035439413616931"><ele>40.666666666666664</ele><time>2026-04-18T15:11:16.999Z</time></trkpt><trkpt lat="44.99138466240757" lon="10.03541565320172"><ele>40.83333333333333</ele><time>2026-04-18T15:11:17.999Z</time></trkpt><trkpt lat="44.99147158126714" lon="10.035405218648274"><ele>41.0</ele><time>2026-04-18T15:11:18.999Z</time></trkpt><trkpt lat="44.99155559815685" lon="10.035401710051127"><ele>41.0</ele><time>2026-04-18T15:11:19.999Z</time></trkpt><trkpt lat="44.99163953362794" lon="10.035397599229661"><ele>41.0</ele><time>2026-04-18T15:11:20.999Z</time></trkpt><trkpt lat="44.99172159810314" lon="10.035394177488346"><ele>41.0</ele><time>2026-04-18T15:11:21.999Z</time></trkpt><trkpt lat="44.99180577846354" lon="10.035392356389538"><ele>41.0</ele><time>2026-04-18T15:11:23.001Z</time></trkpt><trkpt lat="44.99188446126487" lon="10.035389926841553"><ele>41.0</ele><time>2026-04-18T15:11:24.001Z</time></trkpt><trkpt lat="44.991970469482915" lon="10.035383884880043"><ele>41.0</ele><time>2026-04-18T15:11:25.001Z</time></trkpt><trkpt lat="44.99205816617705" lon="10.035367683522395"><ele>40.8</ele><time>2026-04-18T15:11:26.001Z</time></trkpt><trkpt lat="44.9921444826747" lon="10.035337135817203"><ele>40.599999999999994</ele><time>2026-04-18T15:11:27.001Z</time></trkpt><trkpt lat="44.992220710157554" lon="10.03526025256267"><ele>40.4</ele><time>2026-04-18T15:11:28.001Z</time></trkpt><trkpt lat="44.9923040453328" lon="10.035212410899168"><ele>40.2</ele><time>2026-04-18T15:11:29.001Z</time></trkpt><trkpt lat="44.99238155670424" lon="10.035147239435325"><ele>40.0</ele><time>2026-04-18T15:11:30.001Z</time></trkpt><trkpt lat="44.992458174309874" lon="10.035080513987992"><ele>39.8</ele><time>2026-04-18T15:11:31.001Z</time></trkpt><trkpt lat="44.992535046985765" lon="10.035009482407686"><ele>39.6</ele><time>2026-04-18T15:11:32.001Z</time></trkpt><trkpt lat="44.992614125020175" lon="10.034946432354408"><ele>39.4</ele><time>2026-04-18T15:11:33.001Z</time></trkpt><trkpt lat="44.9926930298079" lon="10.034883253278082"><ele>39.2</ele><time>2026-04-18T15:11:34.001Z</time></trkpt><trkpt lat="44.992773798924446" lon="10.034831863218718"><ele>39.0</ele><time>2026-04-18T15:11:35.001Z</time></trkpt><trkpt lat="44.99286087316198" lon="10.034813709714188"><ele>39.0</ele><time>2026-04-18T15:11:36.001Z</time></trkpt><trkpt lat="44.99294465843631" lon="10.034781341272192"><ele>39.0</ele><time>2026-04-18T15:11:37.001Z</time></trkpt><trkpt lat="44.99303104443065" lon="10.034747377345802"><ele>39.0</ele><time>2026-04-18T15:11:38.001Z</time></trkpt><trkpt lat="44.99311771189218" lon="10.03471123924632"><ele>39.0</ele><time>2026-04-18T15:11:39.001Z</time></trkpt><trkpt lat="44.99320149418468" lon="10.034655396636044"><ele>39.0</ele><time>2026-04-18T15:11:40Z</time></trkpt><trkpt lat="44.993287484233164" lon="10.034618355768497"><ele>39.0</ele><time>2026-04-18T15:11:41Z</time></trkpt><trkpt lat="44.99336850223105" lon="10.034576877767986"><ele>38.833333333333336</ele><time>2026-04-18T15:11:42Z</time></trkpt><trkpt lat="44.99344916671279" lon="10.034538557853958"><ele>38.666666666666664</ele><time>2026-04-18T15:11:43Z</time></trkpt><trkpt lat="44.99353541683928" lon="10.034520483406997"><ele>38.5</ele><time>2026-04-18T15:11:44Z</time></trkpt><trkpt lat="44.993620169360845" lon="10.034473318689878"><ele>38.33333333333333</ele><time>2026-04-18T15:11:45Z</time></trkpt><trkpt lat="44.99369443233024" lon="10.034409595809267"><ele>38.166666666666664</ele><time>2026-04-18T15:11:46Z</time></trkpt><trkpt lat="44.99377648717896" lon="10.03436531737429"><ele>38.0</ele><time>2026-04-18T15:11:47Z</time></trkpt><trkpt lat="44.993854904494704" lon="10.034308363232853"><ele>38.0</ele><time>2026-04-18T15:11:48Z</time></trkpt><trkpt lat="44.99393317445091" lon="10.034247486766095"><ele>38.0</ele><time>2026-04-18T15:11:49Z</time></trkpt><trkpt lat="44.994010808632225" lon="10.034186983430986"><ele>38.0</ele><time>2026-04-18T15:11:50Z</time></trkpt><trkpt lat="44.99409262730529" lon="10.034124300955817"><ele>38.0</ele><time>2026-04-18T15:11:51Z</time></trkpt><trkpt lat="44.994170763509445" lon="10.034061151744307"><ele>38.0</ele><time>2026-04-18T15:11:52Z</time></trkpt><trkpt lat="44.99424899712376" lon="10.033996762790931"><ele>38.33333333333333</ele><time>2026-04-18T15:11:53Z</time></trkpt><trkpt lat="44.99432678584011" lon="10.033936167316677"><ele>38.666666666666664</ele><time>2026-04-18T15:11:54Z</time></trkpt><trkpt lat="44.99440302657816" lon="10.033877636326975"><ele>39.0</ele><time>2026-04-18T15:11:55Z</time></trkpt><trkpt lat="44.99447874791445" lon="10.033816211849276"><ele>39.333333333333336</ele><time>2026-04-18T15:11:56Z</time></trkpt><trkpt lat="44.99456551053404" lon="10.033789586279097"><ele>39.66666666666667</ele><time>2026-04-18T15:11:57Z</time></trkpt><trkpt lat="44.994652711183" lon="10.033781484918569"><ele>40.0</ele><time>2026-04-18T15:11:58Z</time></trkpt><trkpt lat="44.994736997508696" lon="10.033803270243794"><ele>40.0</ele><time>2026-04-18T15:11:59Z</time></trkpt><trkpt lat="44.99481309645227" lon="10.033848226970328"><ele>40.0</ele><time>2026-04-18T15:12:00Z</time></trkpt><trkpt lat="44.99487784028645" lon="10.033908612610706"><ele>40.0</ele><time>2026-04-18T15:12:01Z</time></trkpt><trkpt lat="44.99493580913272" lon="10.033982899427704"><ele>40.0</ele><time>2026-04-18T15:12:02Z</time></trkpt><trkpt lat="44.99500844451904" lon="10.034065317006148"><ele>40.0</ele><time>2026-04-18T15:12:03Z</time></trkpt><trkpt lat="44.99506520386193" lon="10.03415317109166"><ele>40.0</ele><time>2026-04-18T15:12:04Z</time></trkpt><trkpt lat="44.995129856337606" lon="10.034234934384486"><ele>39.8</ele><time>2026-04-18T15:12:05Z</time></trkpt><trkpt lat="44.99520017113307" lon="10.034320676293023"><ele>39.6</ele><time>2026-04-18T15:12:06Z</time></trkpt><trkpt lat="44.995283960551745" lon="10.034399594577868"><ele>39.4</ele><time>2026-04-18T15:12:07Z</time></trkpt><trkpt lat="44.99536584982099" lon="10.03446325796812"><ele>39.2</ele><time>2026-04-18T15:12:08Z</time></trkpt><trkpt lat="44.9954450697722" lon="10.034516735464846"><ele>39.0</ele><time>2026-04-18T15:12:09Z</time></trkpt><trkpt lat="44.99552707717795" lon="10.034564504609216"><ele>39.0</ele><time>2026-04-18T15:12:10Z</time></trkpt><trkpt lat="44.99561268368527" lon="10.034604019153772"><ele>39.0</ele><time>2026-04-18T15:12:11Z</time></trkpt><trkpt lat="44.99570075851161" lon="10.034637518523748"><ele>39.0</ele><time>2026-04-18T15:12:12Z</time></trkpt><trkpt lat="44.99578676673507" lon="10.034667246848114"><ele>39.0</ele><time>2026-04-18T15:12:13Z</time></trkpt><trkpt lat="44.99587226323459" lon="10.03469356653198"><ele>39.0</ele><time>2026-04-18T15:12:14Z</time></trkpt><trkpt lat="44.9959567546132" lon="10.034716595375658"><ele>39.0</ele><time>2026-04-18T15:12:15Z</time></trkpt><trkpt lat="44.99603910831785" lon="10.034738708895627"><ele>39.0</ele><time>2026-04-18T15:12:16Z</time></trkpt><trkpt lat="44.99612509922139" lon="10.034761799038804"><ele>39.0</ele><time>2026-04-18T15:12:17Z</time></trkpt><trkpt lat="44.99620957093452" lon="10.03478448124723"><ele>39.0</ele><time>2026-04-18T15:12:18Z</time></trkpt><trkpt lat="44.996295141493185" lon="10.03480666490654"><ele>39.0</ele><time>2026-04-18T15:12:19Z</time></trkpt><trkpt lat="44.996380126540345" lon="10.03482865024873"><ele>39.0</ele><time>2026-04-18T15:12:20Z</time></trkpt><trkpt lat="44.99646591055702" lon="10.034850842292212"><ele>39.0</ele><time>2026-04-18T15:12:21Z</time></trkpt><trkpt lat="44.996550685720386" lon="10.034872773338641"><ele>39.0</ele><time>2026-04-18T15:12:22Z</time></trkpt><trkpt lat="44.99663726034277" lon="10.034895169913154"><ele>39.0</ele><time>2026-04-18T15:12:23Z</time></trkpt><trkpt lat="44.99672104736213" lon="10.03491684531636"><ele>39.0</ele><time>2026-04-18T15:12:24Z</time></trkpt><trkpt lat="44.99680705826576" lon="10.034939096039947"><ele>39.0</ele><time>2026-04-18T15:12:25Z</time></trkpt><trkpt lat="44.996895107943544" lon="10.034960639314011"><ele>39.0</ele><time>2026-04-18T15:12:26Z</time></trkpt><trkpt lat="44.99698217924351" lon="10.034978298461068"><ele>39.0</ele><time>2026-04-18T15:12:27Z</time></trkpt><trkpt lat="44.997070062359356" lon="10.03498813734667"><ele>38.8</ele><time>2026-04-18T15:12:28Z</time></trkpt><trkpt lat="44.99715707881153" lon="10.034984592026612"><ele>38.599999999999994</ele><time>2026-04-18T15:12:29Z</time></trkpt><trkpt lat="44.99724579512169" lon="10.034948657527874"><ele>38.4</ele><time>2026-04-18T15:12:30Z</time></trkpt><trkpt lat="44.99733250225467" lon="10.034933037048376"><ele>38.199999999999996</ele><time>2026-04-18T15:12:31Z</time></trkpt><trkpt lat="44.997422856810026" lon="10.034902575479038"><ele>38.0</ele><time>2026-04-18T15:12:31.999Z</time></trkpt><trkpt lat="44.9975119780089" lon="10.03486774191622"><ele>37.8</ele><time>2026-04-18T15:12:32.999Z</time></trkpt><trkpt lat="44.997597153602165" lon="10.034832880344366"><ele>37.599999999999994</ele><time>2026-04-18T15:12:33.999Z</time></trkpt><trkpt lat="44.99768486104885" lon="10.034811473000673"><ele>37.400000000000006</ele><time>2026-04-18T15:12:34.999Z</time></trkpt><trkpt lat="44.99777514294405" lon="10.034779540936317"><ele>37.2</ele><time>2026-04-18T15:12:35.999Z</time></trkpt><trkpt lat="44.997860032792985" lon="10.034758443195138"><ele>37.0</ele><time>2026-04-18T15:12:36.999Z</time></trkpt><trkpt lat="44.9979536380197" lon="10.034725001523727"><ele>37.0</ele><time>2026-04-18T15:12:37.999Z</time></trkpt><trkpt lat="44.99804156631608" lon="10.03469502253557"><ele>37.0</ele><time>2026-04-18T15:12:38.999Z</time></trkpt><trkpt lat="44.99812860913649" lon="10.034662985200857"><ele>37.0</ele><time>2026-04-18T15:12:39.999Z</time></trkpt><trkpt lat="44.99822037982276" lon="10.034626858850292"><ele>37.0</ele><time>2026-04-18T15:12:40.999Z</time></trkpt><trkpt lat="44.998305150016094" lon="10.034598291462968"><ele>37.0</ele><time>2026-04-18T15:12:41.999Z</time></trkpt><trkpt lat="44.99839481157404" lon="10.034558492609369"><ele>37.16666666666667</ele><time>2026-04-18T15:12:42.999Z</time></trkpt><trkpt lat="44.998481649639814" lon="10.034524079716824"><ele>37.333333333333336</ele><time>2026-04-18T15:12:43.999Z</time></trkpt><trkpt lat="44.998567141187834" lon="10.034484719716268"><ele>37.5</ele><time>2026-04-18T15:12:44.999Z</time></trkpt><trkpt lat="44.99864669052633" lon="10.034435972689238"><ele>37.666666666666664</ele><time>2026-04-18T15:12:45.999Z</time></trkpt><trkpt lat="44.99872680284585" lon="10.034385650485307"><ele>37.83333333333333</ele><time>2026-04-18T15:12:46.999Z</time></trkpt><trkpt lat="44.99881213843332" lon="10.034339504652744"><ele>38.0</ele><time>2026-04-18T15:12:47.999Z</time></trkpt><trkpt lat="44.99889358514087" lon="10.034289686308545"><ele>38.0</ele><time>2026-04-18T15:12:48.999Z</time></trkpt><trkpt lat="44.99897740614351" lon="10.034243910248724"><ele>38.0</ele><time>2026-04-18T15:12:49.999Z</time></trkpt><trkpt lat="44.9990569460937" lon="10.034179336934397"><ele>38.0</ele><time>2026-04-18T15:12:50.999Z</time></trkpt><trkpt lat="44.999128341176224" lon="10.034101025845722"><ele>38.0</ele><time>2026-04-18T15:12:51.999Z</time></trkpt><trkpt lat="44.99919722471091" lon="10.034017008068652"><ele>38.0</ele><time>2026-04-18T15:12:52.999Z</time></trkpt><trkpt lat="44.9992649963556" lon="10.033932783711853"><ele>38.4</ele><time>2026-04-18T15:12:53.999Z</time></trkpt><trkpt lat="44.99933263104501" lon="10.03384722531244"><ele>38.8</ele><time>2026-04-18T15:12:54.999Z</time></trkpt><trkpt lat="44.999404192348656" lon="10.033767416515397"><ele>39.2</ele><time>2026-04-18T15:12:55.999Z</time></trkpt><trkpt lat="44.99947887401682" lon="10.033697993480017"><ele>39.6</ele><time>2026-04-18T15:12:56.999Z</time></trkpt><trkpt lat="44.99956156270913" lon="10.033653217498351"><ele>40.0</ele><time>2026-04-18T15:12:57.999Z</time></trkpt><trkpt lat="44.99965146806887" lon="10.033652447617737"><ele>40.0</ele><time>2026-04-18T15:12:58.999Z</time></trkpt><trkpt lat="44.9997403325831" lon="10.033644658186756"><ele>40.0</ele><time>2026-04-18T15:12:59.999Z</time></trkpt><trkpt lat="44.999826757885266" lon="10.033641825184587"><ele>40.0</ele><time>2026-04-18T15:13:00.999Z</time></trkpt><trkpt lat="44.99991692982307" lon="10.033653225721245"><ele>40.0</ele><time>2026-04-18T15:13:01.999Z</time></trkpt><trkpt lat="44.99999975302475" lon="10.033678894567489"><ele>40.0</ele><time>2026-04-18T15:13:02.999Z</time></trkpt><trkpt lat="45.000083540320745" lon="10.033714634581164"><ele>40.0</ele><time>2026-04-18T15:13:03.999Z</time></trkpt><trkpt lat="45.00015293526597" lon="10.033768107657506"><ele>40.0</ele><time>2026-04-18T15:13:04.999Z</time></trkpt><trkpt lat="45.00022969439356" lon="10.033824487123594"><ele>40.0</ele><time>2026-04-18T15:13:05.999Z</time></trkpt><trkpt lat="45.000305175568045" lon="10.033883315118194"><ele>40.0</ele><time>2026-04-18T15:13:06.999Z</time></trkpt><trkpt lat="45.00038362421946" lon="10.03394445543117"><ele>40.0</ele><time>2026-04-18T15:13:07.999Z</time></trkpt><trkpt lat="45.00046343981766" lon="10.034006661645215"><ele>40.0</ele><time>2026-04-18T15:13:08.999Z</time></trkpt><trkpt lat="45.000543374541294" lon="10.034068960147858"><ele>40.0</ele><time>2026-04-18T15:13:09.999Z</time></trkpt><trkpt lat="45.00062181686673" lon="10.034129989641647"><ele>39.833333333333336</ele><time>2026-04-18T15:13:10.999Z</time></trkpt><trkpt lat="45.000699252188845" lon="10.034190017574804"><ele>39.66666666666667</ele><time>2026-04-18T15:13:11.999Z</time></trkpt><trkpt lat="45.00077657520954" lon="10.034249958493705"><ele>39.5</ele><time>2026-04-18T15:13:12.999Z</time></trkpt><trkpt lat="45.00085286596263" lon="10.034309099191168"><ele>39.333333333333336</ele><time>2026-04-18T15:13:13.999Z</time></trkpt><trkpt lat="45.00093057950247" lon="10.034369342687738"><ele>39.166666666666664</ele><time>2026-04-18T15:13:14.999Z</time></trkpt><trkpt lat="45.00100938006505" lon="10.034430428925049"><ele>39.0</ele><time>2026-04-18T15:13:15.999Z</time></trkpt><trkpt lat="45.001087172448095" lon="10.034490733427068"><ele>38.8</ele><time>2026-04-18T15:13:16.999Z</time></trkpt><trkpt lat="45.00116570590024" lon="10.034551612806464"><ele>38.599999999999994</ele><time>2026-04-18T15:13:17.999Z</time></trkpt><trkpt lat="45.00124346206916" lon="10.034611889427712"><ele>38.4</ele><time>2026-04-18T15:13:18.999Z</time></trkpt><trkpt lat="45.001332207387186" lon="10.034680684767743"><ele>38.199999999999996</ele><time>2026-04-18T15:13:19.999Z</time></trkpt><trkpt lat="45.001409931641184" lon="10.034740877821857"><ele>38.0</ele><time>2026-04-18T15:13:20.999Z</time></trkpt><trkpt lat="45.00148961142153" lon="10.03480235850769"><ele>38.0</ele><time>2026-04-18T15:13:21.999Z</time></trkpt><trkpt lat="45.00157111524785" lon="10.03486524646125"><ele>38.0</ele><time>2026-04-18T15:13:22.999Z</time></trkpt><trkpt lat="45.00165567896912" lon="10.03493049533735"><ele>38.0</ele><time>2026-04-18T15:13:23.999Z</time></trkpt><trkpt lat="45.00173916948809" lon="10.034994916280576"><ele>38.0</ele><time>2026-04-18T15:13:24.999Z</time></trkpt><trkpt lat="45.00182255933525" lon="10.035059259445738"><ele>38.0</ele><time>2026-04-18T15:13:25.999Z</time></trkpt><trkpt lat="45.00190713161538" lon="10.035124515164913"><ele>37.8</ele><time>2026-04-18T15:13:26.998Z</time></trkpt><trkpt lat="45.001988101404116" lon="10.035186244025038"><ele>37.599999999999994</ele><time>2026-04-18T15:13:27.998Z</time></trkpt><trkpt lat="45.00207180476033" lon="10.035249856375922"><ele>37.400000000000006</ele><time>2026-04-18T15:13:29.001Z</time></trkpt><trkpt lat="45.00215321241659" lon="10.035311723608482"><ele>37.2</ele><time>2026-04-18T15:13:30.001Z</time></trkpt><trkpt lat="45.00223789758787" lon="10.035374303956981"><ele>37.0</ele><time>2026-04-18T15:13:31Z</time></trkpt><trkpt lat="45.0023214022334" lon="10.035434505002959"><ele>37.0</ele><time>2026-04-18T15:13:32.001Z</time></trkpt><trkpt lat="45.00240257240085" lon="10.035492677878032"><ele>37.0</ele><time>2026-04-18T15:13:33.001Z</time></trkpt><trkpt lat="45.00248582593526" lon="10.035550952391327"><ele>37.0</ele><time>2026-04-18T15:13:34Z</time></trkpt><trkpt lat="45.00256444358942" lon="10.035605982055529"><ele>37.0</ele><time>2026-04-18T15:13:35Z</time></trkpt><trkpt lat="45.002645611833806" lon="10.035662797237496"><ele>37.0</ele><time>2026-04-18T15:13:36.001Z</time></trkpt><trkpt lat="45.00272869291679" lon="10.035719780353267"><ele>37.2</ele><time>2026-04-18T15:13:37Z</time></trkpt><trkpt lat="45.00281097160581" lon="10.035775558881596"><ele>37.400000000000006</ele><time>2026-04-18T15:13:38Z</time></trkpt><trkpt lat="45.0028938328962" lon="10.03583173252731"><ele>37.599999999999994</ele><time>2026-04-18T15:13:39.001Z</time></trkpt><trkpt lat="45.002975586054994" lon="10.03588715477529"><ele>37.8</ele><time>2026-04-18T15:13:40Z</time></trkpt><trkpt lat="45.00306026831241" lon="10.035944562839777"><ele>38.0</ele><time>2026-04-18T15:13:41Z</time></trkpt><trkpt lat="45.00314687791374" lon="10.036003277420951"><ele>38.0</ele><time>2026-04-18T15:13:42Z</time></trkpt><trkpt lat="45.00322785254786" lon="10.036058644787564"><ele>38.0</ele><time>2026-04-18T15:13:43Z</time></trkpt><trkpt lat="45.00331252333786" lon="10.036116919034134"><ele>38.0</ele><time>2026-04-18T15:13:44Z</time></trkpt><trkpt lat="45.00339404264499" lon="10.03617302422041"><ele>38.0</ele><time>2026-04-18T15:13:45Z</time></trkpt><trkpt lat="45.00347799845187" lon="10.03623080636669"><ele>38.0</ele><time>2026-04-18T15:13:46Z</time></trkpt><trkpt lat="45.003558321067544" lon="10.036286087839724"><ele>38.199999999999996</ele><time>2026-04-18T15:13:47Z</time></trkpt><trkpt lat="45.00364325532889" lon="10.036344546482084"><ele>38.4</ele><time>2026-04-18T15:13:48Z</time></trkpt><trkpt lat="45.0037269383235" lon="10.036401756896737"><ele>38.599999999999994</ele><time>2026-04-18T15:13:49Z</time></trkpt><trkpt lat="45.00381192004386" lon="10.036459855336497"><ele>38.8</ele><time>2026-04-18T15:13:50Z</time></trkpt><trkpt lat="45.00389216211344" lon="10.036514713430794"><ele>39.0</ele><time>2026-04-18T15:13:51Z</time></trkpt><trkpt lat="45.00397348499974" lon="10.03656814935622"><ele>39.0</ele><time>2026-04-18T15:13:52Z</time></trkpt><trkpt lat="45.004055828776714" lon="10.036620925806243"><ele>39.0</ele><time>2026-04-18T15:13:53Z</time></trkpt><trkpt lat="45.00413734622743" lon="10.036669088385855"><ele>39.0</ele><time>2026-04-18T15:13:54Z</time></trkpt><trkpt lat="45.00422190139253" lon="10.036713840968556"><ele>39.0</ele><time>2026-04-18T15:13:55Z</time></trkpt><trkpt lat="45.0043128284418" lon="10.036757971513893"><ele>39.0</ele><time>2026-04-18T15:13:56Z</time></trkpt><trkpt lat="45.00440314485448" lon="10.036792420624632"><ele>39.0</ele><time>2026-04-18T15:13:57Z</time></trkpt><trkpt lat="45.00449726094707" lon="10.036824537742156"><ele>39.0</ele><time>2026-04-18T15:13:58Z</time></trkpt><trkpt lat="45.00458542115876" lon="10.03685185275313"><ele>39.0</ele><time>2026-04-18T15:13:59Z</time></trkpt><trkpt lat="45.004673274900945" lon="10.036877899279224"><ele>39.0</ele><time>2026-04-18T15:14:00Z</time></trkpt><trkpt lat="45.004765765544256" lon="10.036903321431955"><ele>39.0</ele><time>2026-04-18T15:14:01Z</time></trkpt><trkpt lat="45.00485490747101" lon="10.036927823107325"><ele>39.0</ele><time>2026-04-18T15:14:02Z</time></trkpt><trkpt lat="45.0049408028154" lon="10.036954692265336"><ele>39.0</ele><time>2026-04-18T15:14:03Z</time></trkpt><trkpt lat="45.00503043225552" lon="10.036986735545362"><ele>39.0</ele><time>2026-04-18T15:14:04Z</time></trkpt><trkpt lat="45.00511418575651" lon="10.037023337220326"><ele>39.0</ele><time>2026-04-18T15:14:05Z</time></trkpt><trkpt lat="45.00519630102368" lon="10.03706747494066"><ele>39.0</ele><time>2026-04-18T15:14:06Z</time></trkpt><trkpt lat="45.005278943132524" lon="10.037112571101748"><ele>39.0</ele><time>2026-04-18T15:14:07Z</time></trkpt><trkpt lat="45.00535949348338" lon="10.037156526115675"><ele>39.6</ele><time>2026-04-18T15:14:08Z</time></trkpt><trkpt lat="45.00544847568127" lon="10.037205082045906"><ele>40.2</ele><time>2026-04-18T15:14:09Z</time></trkpt><trkpt lat="45.00552768683827" lon="10.037248306206818"><ele>40.800000000000004</ele><time>2026-04-18T15:14:10Z</time></trkpt><trkpt lat="45.00561468033362" lon="10.037295779074983"><ele>41.4</ele><time>2026-04-18T15:14:11Z</time></trkpt><trkpt lat="45.00569992264205" lon="10.037338424010116"><ele>42.0</ele><time>2026-04-18T15:14:12Z</time></trkpt><trkpt lat="45.00578997045104" lon="10.037376680164416"><ele>41.6</ele><time>2026-04-18T15:14:13Z</time></trkpt><trkpt lat="45.00587835065955" lon="10.037409919855692"><ele>41.2</ele><time>2026-04-18T15:14:14Z</time></trkpt><trkpt lat="45.00596888471149" lon="10.037437332378211"><ele>40.8</ele><time>2026-04-18T15:14:15Z</time></trkpt><trkpt lat="45.0060604487194" lon="10.03745873276002"><ele>40.4</ele><time>2026-04-18T15:14:16Z</time></trkpt><trkpt lat="45.006146088752395" lon="10.037477763889202"><ele>40.0</ele><time>2026-04-18T15:14:17Z</time></trkpt><trkpt lat="45.00623584957753" lon="10.037498235415946"><ele>40.0</ele><time>2026-04-18T15:14:18Z</time></trkpt><trkpt lat="45.006318998966655" lon="10.03752115071025"><ele>40.0</ele><time>2026-04-18T15:14:19Z</time></trkpt><trkpt lat="45.00641325019883" lon="10.037549660426054"><ele>40.0</ele><time>2026-04-18T15:14:20Z</time></trkpt><trkpt lat="45.006499267859795" lon="10.037577275114664"><ele>40.0</ele><time>2026-04-18T15:14:21Z</time></trkpt><trkpt lat="45.00658840663865" lon="10.037607769732926"><ele>40.0</ele><time>2026-04-18T15:14:22Z</time></trkpt><trkpt lat="45.00667760164818" lon="10.037639535621098"><ele>40.0</ele><time>2026-04-18T15:14:23Z</time></trkpt><trkpt lat="45.006788000881436" lon="10.037678853193736"><ele>40.0</ele><time>2026-04-18T15:14:24Z</time></trkpt><trkpt lat="45.00688031767786" lon="10.037711730862407"><ele>40.0</ele><time>2026-04-18T15:14:25Z</time></trkpt><trkpt lat="45.00695893252269" lon="10.037740033200286"><ele>40.0</ele><time>2026-04-18T15:14:26Z</time></trkpt><trkpt lat="45.00704750270224" lon="10.037772404809829"><ele>40.0</ele><time>2026-04-18T15:14:27Z</time></trkpt><trkpt lat="45.00713499033841" lon="10.037804380719496"><ele>40.0</ele><time>2026-04-18T15:14:28Z</time></trkpt><trkpt lat="45.00722168979172" lon="10.037836068545971"><ele>40.0</ele><time>2026-04-18T15:14:29Z</time></trkpt><trkpt lat="45.00731206367491" lon="10.037869099350477"><ele>40.0</ele><time>2026-04-18T15:14:30Z</time></trkpt><trkpt lat="45.0074023656465" lon="10.037902103873504"><ele>40.0</ele><time>2026-04-18T15:14:31Z</time></trkpt><trkpt lat="45.00749299162748" lon="10.037935226829815"><ele>40.0</ele><time>2026-04-18T15:14:32Z</time></trkpt><trkpt lat="45.00758326524284" lon="10.037968221017394"><ele>39.0</ele><time>2026-04-18T15:14:33Z</time></trkpt><trkpt lat="45.0076752703656" lon="10.03800184803295"><ele>38.0</ele><time>2026-04-18T15:14:34Z</time></trkpt><trkpt lat="45.0077646451283" lon="10.03803451364995"><ele>37.0</ele><time>2026-04-18T15:14:35Z</time></trkpt><trkpt lat="45.00785670816296" lon="10.03806816181806"><ele>36.0</ele><time>2026-04-18T15:14:35.999Z</time></trkpt><trkpt lat="45.00794460601548" lon="10.03810028766478"><ele>35.0</ele><time>2026-04-18T15:14:36.999Z</time></trkpt><trkpt lat="45.00803387688375" lon="10.038132915321142"><ele>35.0</ele><time>2026-04-18T15:14:37.999Z</time></trkpt><trkpt lat="45.00812155592377" lon="10.038164961207336"><ele>35.0</ele><time>2026-04-18T15:14:38.999Z</time></trkpt><trkpt lat="45.00821178015692" lon="10.038197722578813"><ele>35.0</ele><time>2026-04-18T15:14:39.999Z</time></trkpt><trkpt lat="45.00829901891475" lon="10.038228405605489"><ele>35.0</ele><time>2026-04-18T15:14:40.999Z</time></trkpt><trkpt lat="45.00838717898169" lon="10.038259619795381"><ele>35.0</ele><time>2026-04-18T15:14:41.999Z</time></trkpt><trkpt lat="45.00847214044898" lon="10.038293534986158"><ele>35.33333333333333</ele><time>2026-04-18T15:14:42.999Z</time></trkpt><trkpt lat="45.00855161886135" lon="10.0383344899546"><ele>35.666666666666664</ele><time>2026-04-18T15:14:43.999Z</time></trkpt><trkpt lat="45.00863679178641" lon="10.038383756867407"><ele>36.0</ele><time>2026-04-18T15:14:44.999Z</time></trkpt><trkpt lat="45.00871795280724" lon="10.038434813228212"><ele>36.333333333333336</ele><time>2026-04-18T15:14:45.999Z</time></trkpt><trkpt lat="45.008798037156" lon="10.038494034563463"><ele>36.66666666666667</ele><time>2026-04-18T15:14:46.999Z</time></trkpt><trkpt lat="45.00887656503728" lon="10.038557700260961"><ele>37.0</ele><time>2026-04-18T15:14:47.999Z</time></trkpt><trkpt lat="45.00895854112108" lon="10.038623937441226"><ele>37.0</ele><time>2026-04-18T15:14:48.999Z</time></trkpt><trkpt lat="45.00903981214178" lon="10.038689298694456"><ele>37.0</ele><time>2026-04-18T15:14:49.999Z</time></trkpt><trkpt lat="45.00911788148191" lon="10.038750695887767"><ele>37.0</ele><time>2026-04-18T15:14:50.999Z</time></trkpt><trkpt lat="45.00919805630485" lon="10.038813748924014"><ele>37.0</ele><time>2026-04-18T15:14:51.999Z</time></trkpt><trkpt lat="45.00927848717034" lon="10.038874018587263"><ele>37.0</ele><time>2026-04-18T15:14:52.999Z</time></trkpt><trkpt lat="45.00935766296691" lon="10.038929623802517"><ele>37.2</ele><time>2026-04-18T15:14:53.999Z</time></trkpt><trkpt lat="45.00944578470469" lon="10.03898431991774"><ele>37.400000000000006</ele><time>2026-04-18T15:14:54.999Z</time></trkpt><trkpt lat="45.00953159473596" lon="10.03903357304755"><ele>37.599999999999994</ele><time>2026-04-18T15:14:55.999Z</time></trkpt><trkpt lat="45.009618666875234" lon="10.03907916731969"><ele>37.8</ele><time>2026-04-18T15:14:56.999Z</time></trkpt><trkpt lat="45.00971422575024" lon="10.039110835895274"><ele>38.0</ele><time>2026-04-18T15:14:57.999Z</time></trkpt><trkpt lat="45.009803786263824" lon="10.039137905380285"><ele>38.0</ele><time>2026-04-18T15:14:58.999Z</time></trkpt><trkpt lat="45.00989743844294" lon="10.039161768120533"><ele>38.0</ele><time>2026-04-18T15:14:59.999Z</time></trkpt><trkpt lat="45.00998525653048" lon="10.039183047759867"><ele>38.0</ele><time>2026-04-18T15:15:00.999Z</time></trkpt><trkpt lat="45.01007207505878" lon="10.039203524868093"><ele>38.0</ele><time>2026-04-18T15:15:01.999Z</time></trkpt><trkpt lat="45.01015863056487" lon="10.039222425302324"><ele>38.0</ele><time>2026-04-18T15:15:02.999Z</time></trkpt><trkpt lat="45.01024121350105" lon="10.03923867805049"><ele>38.0</ele><time>2026-04-18T15:15:03.999Z</time></trkpt><trkpt lat="45.010323894062495" lon="10.039253759230245"><ele>38.0</ele><time>2026-04-18T15:15:04.999Z</time></trkpt><trkpt lat="45.01040565657443" lon="10.03926778560961"><ele>38.0</ele><time>2026-04-18T15:15:05.999Z</time></trkpt><trkpt lat="45.01048572246838" lon="10.039281453190895"><ele>38.0</ele><time>2026-04-18T15:15:06.999Z</time></trkpt><trkpt lat="45.01056704194189" lon="10.039294566959294"><ele>38.0</ele><time>2026-04-18T15:15:07.999Z</time></trkpt><trkpt lat="45.01064752508185" lon="10.039306164763532"><ele>38.0</ele><time>2026-04-18T15:15:08.999Z</time></trkpt><trkpt lat="45.01072524742732" lon="10.039316287033781"><ele>38.0</ele><time>2026-04-18T15:15:09.999Z</time></trkpt><trkpt lat="45.01080436410288" lon="10.039325403992713"><ele>37.714285714285715</ele><time>2026-04-18T15:15:10.999Z</time></trkpt><trkpt lat="45.01087800423042" lon="10.039333889868125"><ele>37.42857142857143</ele><time>2026-04-18T15:15:11.999Z</time></trkpt><trkpt lat="45.01095118021914" lon="10.039338061244472"><ele>37.142857142857146</ele><time>2026-04-18T15:15:12.999Z</time></trkpt><trkpt lat="45.011017378575794" lon="10.039388218416715"><ele>36.85714285714286</ele><time>2026-04-18T15:15:13.999Z</time></trkpt><trkpt lat="45.01108511724874" lon="10.039443535342128"><ele>36.57142857142857</ele><time>2026-04-18T15:15:14.999Z</time></trkpt><trkpt lat="45.011150698239405" lon="10.039492673282313"><ele>36.28571428571429</ele><time>2026-04-18T15:15:15.999Z</time></trkpt><trkpt lat="45.01122252540803" lon="10.039520355582752"><ele>36.0</ele><time>2026-04-18T15:15:16.999Z</time></trkpt><trkpt lat="45.01129683981383" lon="10.039505901654616"><ele>36.0</ele><time>2026-04-18T15:15:17.999Z</time></trkpt><trkpt lat="45.01136241974319" lon="10.039440771548856"><ele>36.0</ele><time>2026-04-18T15:15:18.999Z</time></trkpt><trkpt lat="45.01140948359638" lon="10.039337199211257"><ele>36.0</ele><time>2026-04-18T15:15:19.999Z</time></trkpt><trkpt lat="45.01143691703027" lon="10.03921867062714"><ele>36.0</ele><time>2026-04-18T15:15:20.999Z</time></trkpt><trkpt lat="45.011452341070175" lon="10.039092442885908"><ele>36.0</ele><time>2026-04-18T15:15:21.999Z</time></trkpt><trkpt lat="45.01147964638502" lon="10.038969986985268"><ele>36.0</ele><time>2026-04-18T15:15:22.999Z</time></trkpt><trkpt lat="45.01151827144285" lon="10.038854235791431"><ele>36.2</ele><time>2026-04-18T15:15:23.999Z</time></trkpt><trkpt lat="45.01155962851298" lon="10.038736315328665"><ele>36.400000000000006</ele><time>2026-04-18T15:15:24.999Z</time></trkpt><trkpt lat="45.011580628663715" lon="10.038609756136609"><ele>36.6</ele><time>2026-04-18T15:15:25.999Z</time></trkpt><trkpt lat="45.01159952281983" lon="10.038482698082975"><ele>36.800000000000004</ele><time>2026-04-18T15:15:26.999Z</time></trkpt><trkpt lat="45.01161493584988" lon="10.038357405555388"><ele>37.0</ele><time>2026-04-18T15:15:27.999Z</time></trkpt><trkpt lat="45.01163867514897" lon="10.038229147735752"><ele>37.2</ele><time>2026-04-18T15:15:28.999Z</time></trkpt><trkpt lat="45.011676574163424" lon="10.038104745708662"><ele>37.400000000000006</ele><time>2026-04-18T15:15:29.998Z</time></trkpt><trkpt lat="45.01170459984831" lon="10.037977654038718"><ele>37.599999999999994</ele><time>2026-04-18T15:15:30.998Z</time></trkpt><trkpt lat="45.01173502832966" lon="10.03784945870727"><ele>37.8</ele><time>2026-04-18T15:15:31.998Z</time></trkpt><trkpt lat="45.01176076001075" lon="10.037721831777816"><ele>38.0</ele><time>2026-04-18T15:15:32.998Z</time></trkpt><trkpt lat="45.011782733956316" lon="10.037596191707827"><ele>38.0</ele><time>2026-04-18T15:15:34Z</time></trkpt><trkpt lat="45.01179670762698" lon="10.037477596905019"><ele>38.0</ele><time>2026-04-18T15:15:35Z</time></trkpt><trkpt lat="45.011823154299826" lon="10.037355560369402"><ele>38.0</ele><time>2026-04-18T15:15:36Z</time></trkpt><trkpt lat="45.01184631463295" lon="10.037234162393283"><ele>38.0</ele><time>2026-04-18T15:15:37Z</time></trkpt><trkpt lat="45.011872342531916" lon="10.037113090981268"><ele>38.0</ele><time>2026-04-18T15:15:38Z</time></trkpt><trkpt lat="45.01189468582241" lon="10.036985467085826"><ele>38.0</ele><time>2026-04-18T15:15:39Z</time></trkpt><trkpt lat="45.011924835858125" lon="10.036855738169129"><ele>38.199999999999996</ele><time>2026-04-18T15:15:40Z</time></trkpt><trkpt lat="45.011938656221" lon="10.036726973609028"><ele>38.4</ele><time>2026-04-18T15:15:41Z</time></trkpt><trkpt lat="45.0119619017118" lon="10.036595854567803"><ele>38.599999999999994</ele><time>2026-04-18T15:15:42Z</time></trkpt><trkpt lat="45.01198939673188" lon="10.03646996805646"><ele>38.8</ele><time>2026-04-18T15:15:43Z</time></trkpt><trkpt lat="45.01201808684386" lon="10.03634265316794"><ele>39.0</ele><time>2026-04-18T15:15:44Z</time></trkpt><trkpt lat="45.012043452942464" lon="10.036216066987535"><ele>38.8</ele><time>2026-04-18T15:15:45Z</time></trkpt><trkpt lat="45.012071982930216" lon="10.036086874406292"><ele>38.599999999999994</ele><time>2026-04-18T15:15:46Z</time></trkpt><trkpt lat="45.01209503103537" lon="10.035958383400024"><ele>38.4</ele><time>2026-04-18T15:15:47Z</time></trkpt><trkpt lat="45.012120240233415" lon="10.035831294589865"><ele>38.199999999999996</ele><time>2026-04-18T15:15:48Z</time></trkpt><trkpt lat="45.012147209046525" lon="10.03570625226834"><ele>38.0</ele><time>2026-04-18T15:15:49Z</time></trkpt><trkpt lat="45.01217751961623" lon="10.03558042645376"><ele>38.0</ele><time>2026-04-18T15:15:50Z</time></trkpt><trkpt lat="45.012188202533174" lon="10.035455628614097"><ele>38.0</ele><time>2026-04-18T15:15:51Z</time></trkpt><trkpt lat="45.01221523377248" lon="10.035328499527639"><ele>38.0</ele><time>2026-04-18T15:15:52Z</time></trkpt><trkpt lat="45.012238456187404" lon="10.035207325659446"><ele>38.0</ele><time>2026-04-18T15:15:53Z</time></trkpt><trkpt lat="45.01226330100757" lon="10.035077895614517"><ele>38.0</ele><time>2026-04-18T15:15:54Z</time></trkpt><trkpt lat="45.01227693587939" lon="10.034953474550145"><ele>37.6</ele><time>2026-04-18T15:15:55Z</time></trkpt><trkpt lat="45.01230773733765" lon="10.034824935193793"><ele>37.199999999999996</ele><time>2026-04-18T15:15:56Z</time></trkpt><trkpt lat="45.01233176623081" lon="10.034699309413611"><ele>36.8</ele><time>2026-04-18T15:15:57Z</time></trkpt><trkpt lat="45.01235176555245" lon="10.034571187537061"><ele>36.4</ele><time>2026-04-18T15:15:58Z</time></trkpt><trkpt lat="45.012369882688354" lon="10.034442718025646"><ele>36.0</ele><time>2026-04-18T15:15:59Z</time></trkpt><trkpt lat="45.012396362941956" lon="10.034318117891342"><ele>36.0</ele><time>2026-04-18T15:16:00Z</time></trkpt><trkpt lat="45.01242706321725" lon="10.034189801519032"><ele>36.0</ele><time>2026-04-18T15:16:01Z</time></trkpt><trkpt lat="45.01244473284442" lon="10.034061839338952"><ele>36.0</ele><time>2026-04-18T15:16:02Z</time></trkpt><trkpt lat="45.01246555126875" lon="10.033937920275932"><ele>36.0</ele><time>2026-04-18T15:16:03Z</time></trkpt><trkpt lat="45.01248963160558" lon="10.033816167047556"><ele>36.0</ele><time>2026-04-18T15:16:04Z</time></trkpt><trkpt lat="45.01251346177509" lon="10.03369587797846"><ele>36.0</ele><time>2026-04-18T15:16:05Z</time></trkpt><trkpt lat="45.01253308080409" lon="10.033571167653811"><ele>36.0</ele><time>2026-04-18T15:16:06Z</time></trkpt><trkpt lat="45.012556833939435" lon="10.033442199110358"><ele>36.0</ele><time>2026-04-18T15:16:07Z</time></trkpt><trkpt lat="45.01258124865624" lon="10.03331211167373"><ele>36.0</ele><time>2026-04-18T15:16:08Z</time></trkpt><trkpt lat="45.01260430814932" lon="10.033179671217988"><ele>36.0</ele><time>2026-04-18T15:16:09Z</time></trkpt><trkpt lat="45.01263007203459" lon="10.033050350970514"><ele>36.0</ele><time>2026-04-18T15:16:10Z</time></trkpt><trkpt lat="45.012655647875334" lon="10.03291776563735"><ele>36.0</ele><time>2026-04-18T15:16:11Z</time></trkpt><trkpt lat="45.01268315842546" lon="10.032789992461002"><ele>36.0</ele><time>2026-04-18T15:16:12Z</time></trkpt><trkpt lat="45.01270620683281" lon="10.032661914671097"><ele>36.0</ele><time>2026-04-18T15:16:13Z</time></trkpt><trkpt lat="45.01272865306634" lon="10.032533887988498"><ele>36.0</ele><time>2026-04-18T15:16:14Z</time></trkpt><trkpt lat="45.01275298802689" lon="10.032407098965885"><ele>35.8</ele><time>2026-04-18T15:16:15Z</time></trkpt><trkpt lat="45.01277762944148" lon="10.032285882190438"><ele>35.6</ele><time>2026-04-18T15:16:16Z</time></trkpt><trkpt lat="45.01280395166871" lon="10.032157075965086"><ele>35.4</ele><time>2026-04-18T15:16:17Z</time></trkpt><trkpt lat="45.01283288190223" lon="10.03202713498195"><ele>35.2</ele><time>2026-04-18T15:16:18Z</time></trkpt><trkpt lat="45.01286507171069" lon="10.031898491535232"><ele>35.0</ele><time>2026-04-18T15:16:19Z</time></trkpt><trkpt lat="45.01289439019206" lon="10.03176927218153"><ele>35.0</ele><time>2026-04-18T15:16:20Z</time></trkpt><trkpt lat="45.012924393484944" lon="10.031640694358572"><ele>35.0</ele><time>2026-04-18T15:16:21Z</time></trkpt><trkpt lat="45.01296001649579" lon="10.03150998217423"><ele>35.0</ele><time>2026-04-18T15:16:22Z</time></trkpt><trkpt lat="45.01298411693965" lon="10.031381217601783"><ele>35.0</ele><time>2026-04-18T15:16:23Z</time></trkpt><trkpt lat="45.01299433748273" lon="10.031251968902396"><ele>35.0</ele><time>2026-04-18T15:16:24Z</time></trkpt><trkpt lat="45.012997190129205" lon="10.03112426544609"><ele>35.2</ele><time>2026-04-18T15:16:25Z</time></trkpt><trkpt lat="45.01302057001115" lon="10.030995246252727"><ele>35.4</ele><time>2026-04-18T15:16:26Z</time></trkpt><trkpt lat="45.01304932869798" lon="10.030871301642916"><ele>35.6</ele><time>2026-04-18T15:16:27Z</time></trkpt><trkpt lat="45.01307286760234" lon="10.030745007712223"><ele>35.8</ele><time>2026-04-18T15:16:28Z</time></trkpt><trkpt lat="45.0130982617498" lon="10.030620632293116"><ele>36.0</ele><time>2026-04-18T15:16:29Z</time></trkpt><trkpt lat="45.01312664436684" lon="10.030493660599108"><ele>36.2</ele><time>2026-04-18T15:16:30Z</time></trkpt><trkpt lat="45.013148107093755" lon="10.03036337789156"><ele>36.400000000000006</ele><time>2026-04-18T15:16:31Z</time></trkpt><trkpt lat="45.0131702183669" lon="10.030235562975413"><ele>36.6</ele><time>2026-04-18T15:16:32Z</time></trkpt><trkpt lat="45.01319180498231" lon="10.030112129870961"><ele>36.800000000000004</ele><time>2026-04-18T15:16:33Z</time></trkpt><trkpt lat="45.013217478122016" lon="10.029989843146113"><ele>37.0</ele><time>2026-04-18T15:16:34Z</time></trkpt><trkpt lat="45.01324289532913" lon="10.029869027779382"><ele>37.0</ele><time>2026-04-18T15:16:35Z</time></trkpt><trkpt lat="45.01326482416171" lon="10.029746142594766"><ele>37.0</ele><time>2026-04-18T15:16:36Z</time></trkpt><trkpt lat="45.01328495817292" lon="10.029627471865066"><ele>37.0</ele><time>2026-04-18T15:16:36.999Z</time></trkpt><trkpt lat="45.0133101553583" lon="10.029508888622415"><ele>37.0</ele><time>2026-04-18T15:16:37.999Z</time></trkpt><trkpt lat="45.0133370114603" lon="10.029385260949974"><ele>37.0</ele><time>2026-04-18T15:16:38.999Z</time></trkpt><trkpt lat="45.01336126315454" lon="10.02926750823146"><ele>37.0</ele><time>2026-04-18T15:16:39.999Z</time></trkpt><trkpt lat="45.013383720794536" lon="10.029146280554098"><ele>36.6</ele><time>2026-04-18T15:16:40.999Z</time></trkpt><trkpt lat="45.01341020492442" lon="10.029026865890142"><ele>36.2</ele><time>2026-04-18T15:16:41.999Z</time></trkpt><trkpt lat="45.01344355102793" lon="10.028904361067474"><ele>35.8</ele><time>2026-04-18T15:16:42.999Z</time></trkpt><trkpt lat="45.01347399865189" lon="10.028780590546233"><ele>35.4</ele><time>2026-04-18T15:16:43.999Z</time></trkpt><trkpt lat="45.013501874902204" lon="10.028659023234056"><ele>35.0</ele><time>2026-04-18T15:16:44.999Z</time></trkpt><trkpt lat="45.013526813324475" lon="10.028537147783137"><ele>35.0</ele><time>2026-04-18T15:16:45.999Z</time></trkpt><trkpt lat="45.01355079594324" lon="10.028414161604726"><ele>35.0</ele><time>2026-04-18T15:16:46.999Z</time></trkpt><trkpt lat="45.01357692234616" lon="10.028289800373928"><ele>35.0</ele><time>2026-04-18T15:16:47.999Z</time></trkpt><trkpt lat="45.01360709317286" lon="10.028168260660193"><ele>35.0</ele><time>2026-04-18T15:16:48.999Z</time></trkpt><trkpt lat="45.01363913600376" lon="10.02804764921339"><ele>35.0</ele><time>2026-04-18T15:16:49.999Z</time></trkpt><trkpt lat="45.0136655869055" lon="10.027921394626777"><ele>35.0</ele><time>2026-04-18T15:16:50.999Z</time></trkpt><trkpt lat="45.013697934327915" lon="10.027794879603292"><ele>35.0</ele><time>2026-04-18T15:16:51.999Z</time></trkpt><trkpt lat="45.013731387930875" lon="10.027668160416049"><ele>35.0</ele><time>2026-04-18T15:16:52.999Z</time></trkpt><trkpt lat="45.013757476348886" lon="10.02753910356554"><ele>35.0</ele><time>2026-04-18T15:16:53.999Z</time></trkpt><trkpt lat="45.01378985609932" lon="10.027413842204105"><ele>35.0</ele><time>2026-04-18T15:16:54.999Z</time></trkpt><trkpt lat="45.01382092815057" lon="10.027285239967494"><ele>35.4</ele><time>2026-04-18T15:16:55.999Z</time></trkpt><trkpt lat="45.013851876632856" lon="10.02715663114734"><ele>35.8</ele><time>2026-04-18T15:16:56.999Z</time></trkpt><trkpt lat="45.01388467415689" lon="10.027028335400274"><ele>36.2</ele><time>2026-04-18T15:16:57.999Z</time></trkpt><trkpt lat="45.01391545805667" lon="10.026899348865683"><ele>36.6</ele><time>2026-04-18T15:16:58.999Z</time></trkpt><trkpt lat="45.01394776422092" lon="10.026770131363252"><ele>37.0</ele><time>2026-04-18T15:16:59.999Z</time></trkpt><trkpt lat="45.01398000948903" lon="10.026642053869129"><ele>37.0</ele><time>2026-04-18T15:17:00.999Z</time></trkpt><trkpt lat="45.01401226445144" lon="10.026509718409896"><ele>37.0</ele><time>2026-04-18T15:17:01.999Z</time></trkpt><trkpt lat="45.01404830769491" lon="10.026379940206029"><ele>37.0</ele><time>2026-04-18T15:17:02.999Z</time></trkpt><trkpt lat="45.014077078594646" lon="10.026249002229855"><ele>37.0</ele><time>2026-04-18T15:17:03.999Z</time></trkpt><trkpt lat="45.01411363003198" lon="10.026116802282896"><ele>37.0</ele><time>2026-04-18T15:17:04.999Z</time></trkpt><trkpt lat="45.014142317262824" lon="10.025981022712815"><ele>37.0</ele><time>2026-04-18T15:17:05.999Z</time></trkpt><trkpt lat="45.014170437444776" lon="10.02584725235091"><ele>37.0</ele><time>2026-04-18T15:17:06.999Z</time></trkpt><trkpt lat="45.014199827798386" lon="10.02571600060573"><ele>37.0</ele><time>2026-04-18T15:17:07.999Z</time></trkpt><trkpt lat="45.01422862992051" lon="10.025584507185041"><ele>37.0</ele><time>2026-04-18T15:17:08.999Z</time></trkpt><trkpt lat="45.01425033023493" lon="10.025452201672355"><ele>37.0</ele><time>2026-04-18T15:17:09.999Z</time></trkpt><trkpt lat="45.0142798455511" lon="10.02532565064326"><ele>37.0</ele><time>2026-04-18T15:17:10.999Z</time></trkpt><trkpt lat="45.01430805472088" lon="10.02519922474565"><ele>37.0</ele><time>2026-04-18T15:17:11.999Z</time></trkpt><trkpt lat="45.01433123849594" lon="10.025071413910615"><ele>37.0</ele><time>2026-04-18T15:17:12.999Z</time></trkpt><trkpt lat="45.01435739652289" lon="10.02494510169703"><ele>37.0</ele><time>2026-04-18T15:17:13.999Z</time></trkpt><trkpt lat="45.01438011157637" lon="10.024816530883971"><ele>37.0</ele><time>2026-04-18T15:17:14.999Z</time></trkpt><trkpt lat="45.01440121044182" lon="10.024689457689304"><ele>36.800000000000004</ele><time>2026-04-18T15:17:15.999Z</time></trkpt><trkpt lat="45.014425089396426" lon="10.024564886972549"><ele>36.6</ele><time>2026-04-18T15:17:16.999Z</time></trkpt><trkpt lat="45.01444504458698" lon="10.024435424886459"><ele>36.400000000000006</ele><time>2026-04-18T15:17:17.999Z</time></trkpt><trkpt lat="45.01446642996034" lon="10.024307912808187"><ele>36.2</ele><time>2026-04-18T15:17:18.999Z</time></trkpt><trkpt lat="45.01449105993861" lon="10.024180682337175"><ele>36.0</ele><time>2026-04-18T15:17:19.999Z</time></trkpt><trkpt lat="45.0145229861942" lon="10.024051454616368"><ele>36.0</ele><time>2026-04-18T15:17:20.999Z</time></trkpt><trkpt lat="45.01454432803312" lon="10.023920971451549"><ele>36.0</ele><time>2026-04-18T15:17:21.999Z</time></trkpt><trkpt lat="45.01457215709489" lon="10.023797920325084"><ele>36.0</ele><time>2026-04-18T15:17:22.999Z</time></trkpt><trkpt lat="45.014591766740274" lon="10.023680950511364"><ele>36.0</ele><time>2026-04-18T15:17:23.999Z</time></trkpt><trkpt lat="45.01461530651321" lon="10.023551883109306"><ele>36.0</ele><time>2026-04-18T15:17:24.999Z</time></trkpt><trkpt lat="45.0146384686354" lon="10.023427564572003"><ele>36.2</ele><time>2026-04-18T15:17:25.999Z</time></trkpt><trkpt lat="45.01466199378156" lon="10.023300513730119"><ele>36.400000000000006</ele><time>2026-04-18T15:17:26.999Z</time></trkpt><trkpt lat="45.014686171017956" lon="10.023174183079243"><ele>36.6</ele><time>2026-04-18T15:17:27.999Z</time></trkpt><trkpt lat="45.01471024928826" lon="10.023048498460964"><ele>36.800000000000004</ele><time>2026-04-18T15:17:28.999Z</time></trkpt><trkpt lat="45.0147297764003" lon="10.022925598970998"><ele>37.0</ele><time>2026-04-18T15:17:29.999Z</time></trkpt><trkpt lat="45.01474919793686" lon="10.022805191955614"><ele>37.0</ele><time>2026-04-18T15:17:30.998Z</time></trkpt><trkpt lat="45.01477316440981" lon="10.022679985559241"><ele>37.0</ele><time>2026-04-18T15:17:31.998Z</time></trkpt><trkpt lat="45.014797602066785" lon="10.022551667185725"><ele>37.0</ele><time>2026-04-18T15:17:32.998Z</time></trkpt><trkpt lat="45.01482308274826" lon="10.022422874712314"><ele>37.0</ele><time>2026-04-18T15:17:33.998Z</time></trkpt><trkpt lat="45.01484395539999" lon="10.02229605736142"><ele>37.0</ele><time>2026-04-18T15:17:34.998Z</time></trkpt><trkpt lat="45.014865625496" lon="10.022168190680604"><ele>37.0</ele><time>2026-04-18T15:17:35.998Z</time></trkpt><trkpt lat="45.01488913623382" lon="10.022038312749176"><ele>37.0</ele><time>2026-04-18T15:17:36.998Z</time></trkpt><trkpt lat="45.0149132536126" lon="10.021921647046407"><ele>37.0</ele><time>2026-04-18T15:17:37.998Z</time></trkpt><trkpt lat="45.014937328545535" lon="10.021801766177218"><ele>37.0</ele><time>2026-04-18T15:17:38.998Z</time></trkpt><trkpt lat="45.01495884025643" lon="10.021681018398874"><ele>37.0</ele><time>2026-04-18T15:17:40Z</time></trkpt><trkpt lat="45.01498194977771" lon="10.021558877600425"><ele>37.0</ele><time>2026-04-18T15:17:41Z</time></trkpt><trkpt lat="45.01499959186055" lon="10.021435021028243"><ele>36.800000000000004</ele><time>2026-04-18T15:17:42Z</time></trkpt><trkpt lat="45.01502497122565" lon="10.02131016137337"><ele>36.6</ele><time>2026-04-18T15:17:43Z</time></trkpt><trkpt lat="45.01505138825501" lon="10.021177203824546"><ele>36.400000000000006</ele><time>2026-04-18T15:17:44Z</time></trkpt><trkpt lat="45.01507695014653" lon="10.021046651082509"><ele>36.2</ele><time>2026-04-18T15:17:45Z</time></trkpt><trkpt lat="45.01510486376054" lon="10.020922283953466"><ele>36.0</ele><time>2026-04-18T15:17:46Z</time></trkpt><trkpt lat="45.01512576429532" lon="10.020795057161598"><ele>35.833333333333336</ele><time>2026-04-18T15:17:47Z</time></trkpt><trkpt lat="45.01514542623605" lon="10.020675718157802"><ele>35.666666666666664</ele><time>2026-04-18T15:17:48Z</time></trkpt><trkpt lat="45.015164583756544" lon="10.020557179633157"><ele>35.5</ele><time>2026-04-18T15:17:49Z</time></trkpt><trkpt lat="45.015183768979455" lon="10.020441972882903"><ele>35.33333333333333</ele><time>2026-04-18T15:17:50Z</time></trkpt><trkpt lat="45.015201756314816" lon="10.02032615140427"><ele>35.166666666666664</ele><time>2026-04-18T15:17:51Z</time></trkpt><trkpt lat="45.015222646882165" lon="10.0202114278662"><ele>35.0</ele><time>2026-04-18T15:17:52Z</time></trkpt><trkpt lat="45.015242922746346" lon="10.020091566077493"><ele>35.166666666666664</ele><time>2026-04-18T15:17:53Z</time></trkpt><trkpt lat="45.015261923335416" lon="10.01997145198441"><ele>35.33333333333333</ele><time>2026-04-18T15:17:54Z</time></trkpt><trkpt lat="45.01528393899806" lon="10.019853630180098"><ele>35.5</ele><time>2026-04-18T15:17:55Z</time></trkpt><trkpt lat="45.01530485067277" lon="10.019731358070533"><ele>35.666666666666664</ele><time>2026-04-18T15:17:56Z</time></trkpt><trkpt lat="45.01532594682587" lon="10.019609288078335"><ele>35.833333333333336</ele><time>2026-04-18T15:17:57Z</time></trkpt><trkpt lat="45.01534448837675" lon="10.019487805311092"><ele>36.0</ele><time>2026-04-18T15:17:58Z</time></trkpt><trkpt lat="45.01536852105967" lon="10.019366602714388"><ele>36.0</ele><time>2026-04-18T15:17:59Z</time></trkpt><trkpt lat="45.01539081756293" lon="10.019247659009018"><ele>36.0</ele><time>2026-04-18T15:18:00Z</time></trkpt><trkpt lat="45.01541030519829" lon="10.019131589728518"><ele>36.0</ele><time>2026-04-18T15:18:01Z</time></trkpt><trkpt lat="45.015432626536786" lon="10.01901142978578"><ele>36.0</ele><time>2026-04-18T15:18:02Z</time></trkpt><trkpt lat="45.015458924105765" lon="10.018891664559606"><ele>36.0</ele><time>2026-04-18T15:18:03Z</time></trkpt><trkpt lat="45.01548093146346" lon="10.018769143109278"><ele>36.0</ele><time>2026-04-18T15:18:04Z</time></trkpt><trkpt lat="45.015506301085765" lon="10.018650097863395"><ele>36.0</ele><time>2026-04-18T15:18:05Z</time></trkpt><trkpt lat="45.01552430281919" lon="10.018525973674713"><ele>36.0</ele><time>2026-04-18T15:18:06Z</time></trkpt><trkpt lat="45.015545790705985" lon="10.018404435547046"><ele>36.0</ele><time>2026-04-18T15:18:07Z</time></trkpt><trkpt lat="45.01557234836022" lon="10.018284113393676"><ele>36.0</ele><time>2026-04-18T15:18:08Z</time></trkpt><trkpt lat="45.015595457330704" lon="10.018164812631285"><ele>36.0</ele><time>2026-04-18T15:18:09Z</time></trkpt><trkpt lat="45.015623694538476" lon="10.018045991186888"><ele>36.0</ele><time>2026-04-18T15:18:10Z</time></trkpt><trkpt lat="45.015641107610655" lon="10.017924560332085"><ele>36.0</ele><time>2026-04-18T15:18:11Z</time></trkpt><trkpt lat="45.015663040350105" lon="10.017803167782336"><ele>36.0</ele><time>2026-04-18T15:18:12Z</time></trkpt><trkpt lat="45.01568471773195" lon="10.01768629224781"><ele>36.0</ele><time>2026-04-18T15:18:13Z</time></trkpt><trkpt lat="45.01571270272127" lon="10.017569870031197"><ele>36.0</ele><time>2026-04-18T15:18:14Z</time></trkpt><trkpt lat="45.015750413636574" lon="10.017454436042293"><ele>36.0</ele><time>2026-04-18T15:18:15Z</time></trkpt><trkpt lat="45.015784904812136" lon="10.017336856886528"><ele>36.0</ele><time>2026-04-18T15:18:16Z</time></trkpt><trkpt lat="45.01582497353529" lon="10.017220879458975"><ele>36.0</ele><time>2026-04-18T15:18:17Z</time></trkpt><trkpt lat="45.015864101278204" lon="10.017106635672121"><ele>36.0</ele><time>2026-04-18T15:18:18Z</time></trkpt><trkpt lat="45.01590684386217" lon="10.016996154345831"><ele>36.0</ele><time>2026-04-18T15:18:19Z</time></trkpt><trkpt lat="45.015951307210194" lon="10.01688482378946"><ele>36.0</ele><time>2026-04-18T15:18:20Z</time></trkpt><trkpt lat="45.01599936162025" lon="10.016778454338155"><ele>36.0</ele><time>2026-04-18T15:18:21Z</time></trkpt><trkpt lat="45.01604473342236" lon="10.01666721864124"><ele>36.0</ele><time>2026-04-18T15:18:22Z</time></trkpt><trkpt lat="45.016095566618326" lon="10.016561298359365"><ele>36.2</ele><time>2026-04-18T15:18:23Z</time></trkpt><trkpt lat="45.01615779718092" lon="10.01646552482314"><ele>36.400000000000006</ele><time>2026-04-18T15:18:24Z</time></trkpt><trkpt lat="45.01619809536927" lon="10.016349027743859"><ele>36.6</ele><time>2026-04-18T15:18:25Z</time></trkpt><trkpt lat="45.01625360709343" lon="10.016251414729345"><ele>36.800000000000004</ele><time>2026-04-18T15:18:26Z</time></trkpt><trkpt lat="45.01630749984749" lon="10.016152907876597"><ele>37.0</ele><time>2026-04-18T15:18:27Z</time></trkpt><trkpt lat="45.016360525536555" lon="10.016050267851659"><ele>37.0</ele><time>2026-04-18T15:18:28Z</time></trkpt><trkpt lat="45.01641413993869" lon="10.015954024421667"><ele>37.0</ele><time>2026-04-18T15:18:29Z</time></trkpt><trkpt lat="45.0164688823488" lon="10.015846015468789"><ele>37.0</ele><time>2026-04-18T15:18:30Z</time></trkpt><trkpt lat="45.0165209548799" lon="10.015742621154326"><ele>37.0</ele><time>2026-04-18T15:18:31Z</time></trkpt><trkpt lat="45.01657549488902" lon="10.015634109069545"><ele>37.0</ele><time>2026-04-18T15:18:32Z</time></trkpt><trkpt lat="45.01663465637424" lon="10.015531276720791"><ele>37.2</ele><time>2026-04-18T15:18:33Z</time></trkpt><trkpt lat="45.01669197078596" lon="10.015428655631691"><ele>37.400000000000006</ele><time>2026-04-18T15:18:34Z</time></trkpt><trkpt lat="45.01675167630712" lon="10.015322184191321"><ele>37.599999999999994</ele><time>2026-04-18T15:18:35Z</time></trkpt><trkpt lat="45.01681093798017" lon="10.015216401344757"><ele>37.8</ele><time>2026-04-18T15:18:36Z</time></trkpt><trkpt lat="45.016869955482505" lon="10.015115421202895"><ele>38.0</ele><time>2026-04-18T15:18:37Z</time></trkpt><trkpt lat="45.01692572866233" lon="10.01500315781068"><ele>37.8</ele><time>2026-04-18T15:18:38Z</time></trkpt><trkpt lat="45.0169809364297" lon="10.014902868285686"><ele>37.599999999999994</ele><time>2026-04-18T15:18:39Z</time></trkpt><trkpt lat="45.01703599544518" lon="10.014800226941123"><ele>37.400000000000006</ele><time>2026-04-18T15:18:40Z</time></trkpt><trkpt lat="45.017094622676254" lon="10.014694647469218"><ele>37.2</ele><time>2026-04-18T15:18:41Z</time></trkpt><trkpt lat="45.017149637462076" lon="10.014590058142842"><ele>37.0</ele><time>2026-04-18T15:18:41.999Z</time></trkpt><trkpt lat="45.01720535178268" lon="10.014490348187781"><ele>37.0</ele><time>2026-04-18T15:18:42.999Z</time></trkpt><trkpt lat="45.01726169143312" lon="10.0143881516691"><ele>37.0</ele><time>2026-04-18T15:18:43.999Z</time></trkpt><trkpt lat="45.017313322966814" lon="10.014284766575324"><ele>37.0</ele><time>2026-04-18T15:18:44.999Z</time></trkpt><trkpt lat="45.017363424601385" lon="10.0141891421843"><ele>37.0</ele><time>2026-04-18T15:18:45.999Z</time></trkpt><trkpt lat="45.017413012940196" lon="10.01408912708038"><ele>37.0</ele><time>2026-04-18T15:18:46.999Z</time></trkpt><trkpt lat="45.017467419553945" lon="10.01399595605796"><ele>37.0</ele><time>2026-04-18T15:18:47.999Z</time></trkpt><trkpt lat="45.01752277760926" lon="10.0138942174567"><ele>37.16666666666667</ele><time>2026-04-18T15:18:48.999Z</time></trkpt><trkpt lat="45.01757210114863" lon="10.013784012585486"><ele>37.333333333333336</ele><time>2026-04-18T15:18:49.999Z</time></trkpt><trkpt lat="45.01762591431843" lon="10.013693022633175"><ele>37.5</ele><time>2026-04-18T15:18:50.999Z</time></trkpt><trkpt lat="45.01768035583972" lon="10.01358706141894"><ele>37.666666666666664</ele><time>2026-04-18T15:18:51.999Z</time></trkpt><trkpt lat="45.017734480977104" lon="10.013481182920493"><ele>37.83333333333333</ele><time>2026-04-18T15:18:52.999Z</time></trkpt><trkpt lat="45.017787960811496" lon="10.013383273105882"><ele>38.0</ele><time>2026-04-18T15:18:53.999Z</time></trkpt><trkpt lat="45.01784298056693" lon="10.013283260473598"><ele>38.0</ele><time>2026-04-18T15:18:54.999Z</time></trkpt><trkpt lat="45.01789562575711" lon="10.013180904135186"><ele>38.0</ele><time>2026-04-18T15:18:55.999Z</time></trkpt><trkpt lat="45.01795030037452" lon="10.013074605863002"><ele>38.0</ele><time>2026-04-18T15:18:56.999Z</time></trkpt><trkpt lat="45.01800592866349" lon="10.012974849119079"><ele>38.0</ele><time>2026-04-18T15:18:57.999Z</time></trkpt><trkpt lat="45.018059857408836" lon="10.012872004233374"><ele>38.0</ele><time>2026-04-18T15:18:58.999Z</time></trkpt><trkpt lat="45.018113703071585" lon="10.012762984781764"><ele>38.0</ele><time>2026-04-18T15:18:59.999Z</time></trkpt><trkpt lat="45.018170913086635" lon="10.012665890847614"><ele>38.0</ele><time>2026-04-18T15:19:00.999Z</time></trkpt><trkpt lat="45.01822614081813" lon="10.012557175399488"><ele>38.0</ele><time>2026-04-18T15:19:01.999Z</time></trkpt><trkpt lat="45.01828142189037" lon="10.012448127827247"><ele>38.0</ele><time>2026-04-18T15:19:02.999Z</time></trkpt><trkpt lat="45.01833800938371" lon="10.012337857444065"><ele>38.0</ele><time>2026-04-18T15:19:03.999Z</time></trkpt><trkpt lat="45.01839605576261" lon="10.01224112691255"><ele>38.4</ele><time>2026-04-18T15:19:04.999Z</time></trkpt><trkpt lat="45.018452349213455" lon="10.012136755530308"><ele>38.8</ele><time>2026-04-18T15:19:05.999Z</time></trkpt><trkpt lat="45.018507332173215" lon="10.012034897712478"><ele>39.2</ele><time>2026-04-18T15:19:06.999Z</time></trkpt><trkpt lat="45.01856279516024" lon="10.011926229817671"><ele>39.6</ele><time>2026-04-18T15:19:07.999Z</time></trkpt><trkpt lat="45.018620886910554" lon="10.011827689512506"><ele>40.0</ele><time>2026-04-18T15:19:08.999Z</time></trkpt><trkpt lat="45.01867565132288" lon="10.011716658777006"><ele>39.8</ele><time>2026-04-18T15:19:09.999Z</time></trkpt><trkpt lat="45.01873060808846" lon="10.011612251613416"><ele>39.6</ele><time>2026-04-18T15:19:10.999Z</time></trkpt><trkpt lat="45.01878652310019" lon="10.01150557400216"><ele>39.4</ele><time>2026-04-18T15:19:11.999Z</time></trkpt><trkpt lat="45.01884163693873" lon="10.011400214110196"><ele>39.2</ele><time>2026-04-18T15:19:12.999Z</time></trkpt><trkpt lat="45.01889714468906" lon="10.01129615005656"><ele>39.0</ele><time>2026-04-18T15:19:13.999Z</time></trkpt><trkpt lat="45.018953150971505" lon="10.011189456512435"><ele>39.0</ele><time>2026-04-18T15:19:14.999Z</time></trkpt><trkpt lat="45.01900964760929" lon="10.011080472448274"><ele>39.0</ele><time>2026-04-18T15:19:15.999Z</time></trkpt><trkpt lat="45.019065593296574" lon="10.010967279493428"><ele>39.0</ele><time>2026-04-18T15:19:16.999Z</time></trkpt><trkpt lat="45.01912437103193" lon="10.01086416260997"><ele>39.0</ele><time>2026-04-18T15:19:17.999Z</time></trkpt><trkpt lat="45.01917821404243" lon="10.010743670640672"><ele>39.0</ele><time>2026-04-18T15:19:18.999Z</time></trkpt><trkpt lat="45.01923731117314" lon="10.010644997062327"><ele>39.0</ele><time>2026-04-18T15:19:19.999Z</time></trkpt><trkpt lat="45.01929640833741" lon="10.010537183463402"><ele>39.0</ele><time>2026-04-18T15:19:20.999Z</time></trkpt><trkpt lat="45.01935063637381" lon="10.010427540401182"><ele>39.0</ele><time>2026-04-18T15:19:21.999Z</time></trkpt><trkpt lat="45.01940759876094" lon="10.010322104142329"><ele>39.0</ele><time>2026-04-18T15:19:22.999Z</time></trkpt><trkpt lat="45.01946243163395" lon="10.010214781757506"><ele>39.0</ele><time>2026-04-18T15:19:23.999Z</time></trkpt><trkpt lat="45.019521874942605" lon="10.010110584681959"><ele>39.0</ele><time>2026-04-18T15:19:24.999Z</time></trkpt><trkpt lat="45.019578587956666" lon="10.01000894807804"><ele>39.0</ele><time>2026-04-18T15:19:25.999Z</time></trkpt><trkpt lat="45.01963599434969" lon="10.009898642087219"><ele>39.0</ele><time>2026-04-18T15:19:26.999Z</time></trkpt><trkpt lat="45.019694534752766" lon="10.009796510080857"><ele>39.0</ele><time>2026-04-18T15:19:27.999Z</time></trkpt><trkpt lat="45.01975212458785" lon="10.009686636910626"><ele>39.0</ele><time>2026-04-18T15:19:28.999Z</time></trkpt><trkpt lat="45.019808302664636" lon="10.009577390682285"><ele>39.0</ele><time>2026-04-18T15:19:29.999Z</time></trkpt><trkpt lat="45.01986046847086" lon="10.009464833287549"><ele>39.0</ele><time>2026-04-18T15:19:30.999Z</time></trkpt><trkpt lat="45.0199154079143" lon="10.009360846222357"><ele>39.0</ele><time>2026-04-18T15:19:31.999Z</time></trkpt><trkpt lat="45.0199665832917" lon="10.009256110273958"><ele>39.0</ele><time>2026-04-18T15:19:32.999Z</time></trkpt><trkpt lat="45.02002588033284" lon="10.00915661238998"><ele>39.0</ele><time>2026-04-18T15:19:33.999Z</time></trkpt><trkpt lat="45.02007921887148" lon="10.009054737257156"><ele>38.6</ele><time>2026-04-18T15:19:34.998Z</time></trkpt><trkpt lat="45.02013515386386" lon="10.008958419917795"><ele>38.2</ele><time>2026-04-18T15:19:35.998Z</time></trkpt><trkpt lat="45.02018639633049" lon="10.008857703748614"><ele>37.800000000000004</ele><time>2026-04-18T15:19:36.998Z</time></trkpt><trkpt lat="45.02023578632575" lon="10.00874769636967"><ele>37.4</ele><time>2026-04-18T15:19:37.998Z</time></trkpt><trkpt lat="45.02029317442865" lon="10.008644052607108"><ele>37.0</ele><time>2026-04-18T15:19:38.998Z</time></trkpt><trkpt lat="45.02035138464158" lon="10.00853966584954"><ele>37.0</ele><time>2026-04-18T15:19:39.998Z</time></trkpt><trkpt lat="45.02040737837352" lon="10.008428618491797"><ele>37.0</ele><time>2026-04-18T15:19:40.998Z</time></trkpt><trkpt lat="45.020466773067625" lon="10.008317525656777"><ele>37.0</ele><time>2026-04-18T15:19:41.998Z</time></trkpt><trkpt lat="45.02052609894449" lon="10.008207541905485"><ele>37.0</ele><time>2026-04-18T15:19:42.998Z</time></trkpt><trkpt lat="45.02058373989602" lon="10.00809369155615"><ele>37.0</ele><time>2026-04-18T15:19:43.998Z</time></trkpt><trkpt lat="45.020641048212475" lon="10.007986383482702"><ele>37.2</ele><time>2026-04-18T15:19:44.998Z</time></trkpt><trkpt lat="45.020694051386364" lon="10.007873983898438"><ele>37.400000000000006</ele><time>2026-04-18T15:19:46Z</time></trkpt><trkpt lat="45.020747338676074" lon="10.007764526661916"><ele>37.599999999999994</ele><time>2026-04-18T15:19:47Z</time></trkpt><trkpt lat="45.020805991130594" lon="10.007655939077386"><ele>37.8</ele><time>2026-04-18T15:19:48Z</time></trkpt><trkpt lat="45.0208623883226" lon="10.007546818476495"><ele>38.0</ele><time>2026-04-18T15:19:49Z</time></trkpt><trkpt lat="45.02091941051232" lon="10.007435401678498"><ele>38.0</ele><time>2026-04-18T15:19:50Z</time></trkpt><trkpt lat="45.020974423540395" lon="10.007323268786541"><ele>38.0</ele><time>2026-04-18T15:19:51Z</time></trkpt><trkpt lat="45.021029576421036" lon="10.007213350003497"><ele>38.0</ele><time>2026-04-18T15:19:52Z</time></trkpt><trkpt lat="45.021085760935605" lon="10.007106356631601"><ele>38.0</ele><time>2026-04-18T15:19:53Z</time></trkpt><trkpt lat="45.02113958199887" lon="10.006996206878206"><ele>38.0</ele><time>2026-04-18T15:19:54Z</time></trkpt><trkpt lat="45.021191128172035" lon="10.006885398234772"><ele>38.0</ele><time>2026-04-18T15:19:55Z</time></trkpt><trkpt lat="45.0212495540361" lon="10.006775604187656"><ele>38.0</ele><time>2026-04-18T15:19:56Z</time></trkpt><trkpt lat="45.021302586316736" lon="10.006663006042594"><ele>38.0</ele><time>2026-04-18T15:19:57Z</time></trkpt><trkpt lat="45.0213572008321" lon="10.006551807045689"><ele>38.0</ele><time>2026-04-18T15:19:58Z</time></trkpt><trkpt lat="45.0214105759577" lon="10.00643792515914"><ele>38.0</ele><time>2026-04-18T15:19:59Z</time></trkpt><trkpt lat="45.02147227616841" lon="10.006329901287272"><ele>37.8</ele><time>2026-04-18T15:20:00Z</time></trkpt><trkpt lat="45.021528833995625" lon="10.006215295822624"><ele>37.599999999999994</ele><time>2026-04-18T15:20:01Z</time></trkpt><trkpt lat="45.02158465316064" lon="10.006106709975073"><ele>37.400000000000006</ele><time>2026-04-18T15:20:02Z</time></trkpt><trkpt lat="45.02163670089281" lon="10.0059873016046"><ele>37.2</ele><time>2026-04-18T15:20:03Z</time></trkpt><trkpt lat="45.021691395801064" lon="10.005876597535812"><ele>37.0</ele><time>2026-04-18T15:20:04Z</time></trkpt><trkpt lat="45.02174911354058" lon="10.005767100681483"><ele>37.0</ele><time>2026-04-18T15:20:05Z</time></trkpt><trkpt lat="45.021808932321136" lon="10.005658320563208"><ele>37.0</ele><time>2026-04-18T15:20:06Z</time></trkpt><trkpt lat="45.02186629062092" lon="10.005553293480602"><ele>37.0</ele><time>2026-04-18T15:20:07Z</time></trkpt><trkpt lat="45.021910797133735" lon="10.00545444130846"><ele>37.0</ele><time>2026-04-18T15:20:08Z</time></trkpt><trkpt lat="45.02196106927026" lon="10.00535291500183"><ele>37.0</ele><time>2026-04-18T15:20:09Z</time></trkpt><trkpt lat="45.02201359901315" lon="10.005245433256198"><ele>37.0</ele><time>2026-04-18T15:20:10Z</time></trkpt><trkpt lat="45.02206782468527" lon="10.005144923075004"><ele>37.0</ele><time>2026-04-18T15:20:11Z</time></trkpt><trkpt lat="45.022123787693154" lon="10.005047598964849"><ele>37.0</ele><time>2026-04-18T15:20:12Z</time></trkpt><trkpt lat="45.02217701362651" lon="10.004946719240248"><ele>37.0</ele><time>2026-04-18T15:20:13Z</time></trkpt><trkpt lat="45.022224094295765" lon="10.00484550376796"><ele>37.0</ele><time>2026-04-18T15:20:14Z</time></trkpt><trkpt lat="45.022276233107014" lon="10.004746780366517"><ele>37.0</ele><time>2026-04-18T15:20:15Z</time></trkpt><trkpt lat="45.02232227525189" lon="10.004640526760742"><ele>37.16666666666667</ele><time>2026-04-18T15:20:16Z</time></trkpt><trkpt lat="45.02237331794571" lon="10.004545540808698"><ele>37.333333333333336</ele><time>2026-04-18T15:20:17Z</time></trkpt><trkpt lat="45.02242410458746" lon="10.004448261712588"><ele>37.5</ele><time>2026-04-18T15:20:18Z</time></trkpt><trkpt lat="45.022474170263095" lon="10.004350859914107"><ele>37.666666666666664</ele><time>2026-04-18T15:20:19Z</time></trkpt><trkpt lat="45.02251895307046" lon="10.004254599116237"><ele>37.83333333333333</ele><time>2026-04-18T15:20:20Z</time></trkpt><trkpt lat="45.02256729698008" lon="10.0041536115362"><ele>38.0</ele><time>2026-04-18T15:20:21Z</time></trkpt><trkpt lat="45.022618124487494" lon="10.004059018048448"><ele>37.666666666666664</ele><time>2026-04-18T15:20:22Z</time></trkpt><trkpt lat="45.02266853783089" lon="10.003961154772874"><ele>37.33333333333333</ele><time>2026-04-18T15:20:23Z</time></trkpt><trkpt lat="45.02272086246314" lon="10.003866937020712"><ele>37.0</ele><time>2026-04-18T15:20:24Z</time></trkpt><trkpt lat="45.02277007152931" lon="10.003766422727722"><ele>36.666666666666664</ele><time>2026-04-18T15:20:25Z</time></trkpt><trkpt lat="45.02282067587002" lon="10.00366565590372"><ele>36.333333333333336</ele><time>2026-04-18T15:20:26Z</time></trkpt><trkpt lat="45.022871172898235" lon="10.003569460502156"><ele>36.0</ele><time>2026-04-18T15:20:27Z</time></trkpt><trkpt lat="45.02292156449938" lon="10.003471635216654"><ele>36.0</ele><time>2026-04-18T15:20:28Z</time></trkpt><trkpt lat="45.022971653696366" lon="10.003374365834427"><ele>36.0</ele><time>2026-04-18T15:20:29Z</time></trkpt><trkpt lat="45.02302039463748" lon="10.003275718047501"><ele>36.0</ele><time>2026-04-18T15:20:30Z</time></trkpt><trkpt lat="45.023072975772386" lon="10.003184028262156"><ele>36.0</ele><time>2026-04-18T15:20:31Z</time></trkpt><trkpt lat="45.02312123347878" lon="10.003088852508958"><ele>36.0</ele><time>2026-04-18T15:20:32Z</time></trkpt><trkpt lat="45.02316856541509" lon="10.002990318530369"><ele>36.0</ele><time>2026-04-18T15:20:33Z</time></trkpt><trkpt lat="45.02321866668342" lon="10.002895782602057"><ele>36.166666666666664</ele><time>2026-04-18T15:20:34Z</time></trkpt><trkpt lat="45.023271247882654" lon="10.00279748046179"><ele>36.333333333333336</ele><time>2026-04-18T15:20:35Z</time></trkpt><trkpt lat="45.02332627092699" lon="10.002698810442332"><ele>36.5</ele><time>2026-04-18T15:20:36Z</time></trkpt><trkpt lat="45.023380028350985" lon="10.002600628835237"><ele>36.66666666666667</ele><time>2026-04-18T15:20:37Z</time></trkpt><trkpt lat="45.023436895720344" lon="10.002500008562219"><ele>36.833333333333336</ele><time>2026-04-18T15:20:38Z</time></trkpt><trkpt lat="45.02349250445276" lon="10.002401333448447"><ele>37.0</ele><time>2026-04-18T15:20:39Z</time></trkpt><trkpt lat="45.02355435554342" lon="10.002308776357843"><ele>37.0</ele><time>2026-04-18T15:20:40Z</time></trkpt><trkpt lat="45.023622096489554" lon="10.002220309234536"><ele>37.0</ele><time>2026-04-18T15:20:41Z</time></trkpt><trkpt lat="45.02369012346415" lon="10.002137852602756"><ele>37.0</ele><time>2026-04-18T15:20:42Z</time></trkpt><trkpt lat="45.023756501279614" lon="10.002057599790044"><ele>37.0</ele><time>2026-04-18T15:20:43Z</time></trkpt><trkpt lat="45.02382571348858" lon="10.00197601348082"><ele>37.0</ele><time>2026-04-18T15:20:44Z</time></trkpt><trkpt lat="45.02389035446491" lon="10.001900976067898"><ele>37.0</ele><time>2026-04-18T15:20:45Z</time></trkpt><trkpt lat="45.02395773433013" lon="10.00182633107433"><ele>37.0</ele><time>2026-04-18T15:20:46Z</time></trkpt><trkpt lat="45.02402134455929" lon="10.001751806472075"><ele>37.0</ele><time>2026-04-18T15:20:46.999Z</time></trkpt><trkpt lat="45.02408676562514" lon="10.00168401271682"><ele>37.0</ele><time>2026-04-18T15:20:47.999Z</time></trkpt><trkpt lat="45.02414969508128" lon="10.001620069648245"><ele>37.0</ele><time>2026-04-18T15:20:48.999Z</time></trkpt><trkpt lat="45.02420836492088" lon="10.001549840620099"><ele>37.0</ele><time>2026-04-18T15:20:49.999Z</time></trkpt><trkpt lat="45.02426610335919" lon="10.001484165156633"><ele>37.0</ele><time>2026-04-18T15:20:50.999Z</time></trkpt><trkpt lat="45.02433032186386" lon="10.001414739379756"><ele>37.42857142857143</ele><time>2026-04-18T15:20:51.999Z</time></trkpt><trkpt lat="45.02439205518834" lon="10.00134604378329"><ele>37.857142857142854</ele><time>2026-04-18T15:20:52.999Z</time></trkpt><trkpt lat="45.02445080309117" lon="10.00127869666858"><ele>38.285714285714285</ele><time>2026-04-18T15:20:53.999Z</time></trkpt><trkpt lat="45.02450931883587" lon="10.001212658403293"><ele>38.714285714285715</ele><time>2026-04-18T15:20:54.999Z</time></trkpt><trkpt lat="45.024566063248145" lon="10.001144435001809"><ele>39.142857142857146</ele><time>2026-04-18T15:20:55.999Z</time></trkpt><trkpt lat="45.024624671203014" lon="10.00107970265817"><ele>39.57142857142857</ele><time>2026-04-18T15:20:56.999Z</time></trkpt><trkpt lat="45.02467287771444" lon="10.001018310678566"><ele>40.0</ele><time>2026-04-18T15:20:57.999Z</time></trkpt><trkpt lat="45.02473403959886" lon="10.000955418104173"><ele>40.0</ele><time>2026-04-18T15:20:58.999Z</time></trkpt><trkpt lat="45.02478991853674" lon="10.000893773874141"><ele>40.0</ele><time>2026-04-18T15:20:59.999Z</time></trkpt><trkpt lat="45.024841333513415" lon="10.000835346623075"><ele>40.0</ele><time>2026-04-18T15:21:00.999Z</time></trkpt><trkpt lat="45.024892861190104" lon="10.00077607107239"><ele>40.0</ele><time>2026-04-18T15:21:01.999Z</time></trkpt><trkpt lat="45.02494222230756" lon="10.000717628435712"><ele>40.0</ele><time>2026-04-18T15:21:02.999Z</time></trkpt><trkpt lat="45.02503742203192" lon="10.000601412596703"><ele>40.0</ele><time>2026-04-18T15:21:04.999Z</time></trkpt><trkpt lat="45.02508545877183" lon="10.00054039621556"><ele>40.5</ele><time>2026-04-18T15:21:05.999Z</time></trkpt><trkpt lat="45.02513311739547" lon="10.000477892446298"><ele>41.0</ele><time>2026-04-18T15:21:06.999Z</time></trkpt><trkpt lat="45.02518566081575" lon="10.000419903443222"><ele>41.5</ele><time>2026-04-18T15:21:07.999Z</time></trkpt><trkpt lat="45.0252369571701" lon="10.00036333587959"><ele>42.0</ele><time>2026-04-18T15:21:08.999Z</time></trkpt><trkpt lat="45.025320176675145" lon="10.000248623443365"><ele>42.5</ele><time>2026-04-18T15:21:10.999Z</time></trkpt><trkpt lat="45.02540756515101" lon="10.00014024581704"><ele>43.0</ele><time>2026-04-18T15:21:12.999Z</time></trkpt><trkpt lat="45.02550662824787" lon="10.000027382942477"><ele>43.0</ele><time>2026-04-18T15:21:14.999Z</time></trkpt><trkpt lat="45.025607603075464" lon="9.999913169799443"><ele>43.0</ele><time>2026-04-18T15:21:16.999Z</time></trkpt><trkpt lat="45.02566657867266" lon="9.99983586144192"><ele>43.0</ele><time>2026-04-18T15:21:17.999Z</time></trkpt><trkpt lat="45.025719173073426" lon="9.999741157268433"><ele>43.0</ele><time>2026-04-18T15:21:18.999Z</time></trkpt><trkpt lat="45.02575899882113" lon="9.999638222110978"><ele>43.0</ele><time>2026-04-18T15:21:19.999Z</time></trkpt><trkpt lat="45.025792794199134" lon="9.9995339452002"><ele>43.16666666666667</ele><time>2026-04-18T15:21:20.999Z</time></trkpt><trkpt lat="45.025826748390486" lon="9.999427940771143"><ele>43.333333333333336</ele><time>2026-04-18T15:21:21.999Z</time></trkpt><trkpt lat="45.02586883661527" lon="9.999329316441365"><ele>43.5</ele><time>2026-04-18T15:21:22.999Z</time></trkpt><trkpt lat="45.0259118514356" lon="9.999225500422485"><ele>43.666666666666664</ele><time>2026-04-18T15:21:23.999Z</time></trkpt><trkpt lat="45.025950880505555" lon="9.999124601797089"><ele>43.83333333333333</ele><time>2026-04-18T15:21:24.999Z</time></trkpt><trkpt lat="45.02598955354379" lon="9.999025838595303"><ele>44.0</ele><time>2026-04-18T15:21:25.999Z</time></trkpt><trkpt lat="45.02602283071503" lon="9.99892771129885"><ele>43.85714285714286</ele><time>2026-04-18T15:21:26.999Z</time></trkpt><trkpt lat="45.02606823566396" lon="9.998845773970446"><ele>43.714285714285715</ele><time>2026-04-18T15:21:27.999Z</time></trkpt><trkpt lat="45.026109976853476" lon="9.998755227438267"><ele>43.57142857142857</ele><time>2026-04-18T15:21:28.999Z</time></trkpt><trkpt lat="45.02615432340469" lon="9.99866807044696"><ele>43.42857142857143</ele><time>2026-04-18T15:21:29.999Z</time></trkpt><trkpt lat="45.02619170432177" lon="9.998577685780964"><ele>43.285714285714285</ele><time>2026-04-18T15:21:30.999Z</time></trkpt><trkpt lat="45.0262246012262" lon="9.998481106129624"><ele>43.142857142857146</ele><time>2026-04-18T15:21:31.999Z</time></trkpt><trkpt lat="45.02625241541199" lon="9.998385783292457"><ele>43.0</ele><time>2026-04-18T15:21:32.999Z</time></trkpt><trkpt lat="45.026285745093396" lon="9.99829253819395"><ele>43.0</ele><time>2026-04-18T15:21:33.999Z</time></trkpt><trkpt lat="45.02632073931423" lon="9.998204799264863"><ele>43.0</ele><time>2026-04-18T15:21:34.999Z</time></trkpt><trkpt lat="45.026362229224574" lon="9.998124435783518"><ele>43.0</ele><time>2026-04-18T15:21:35.999Z</time></trkpt><trkpt lat="45.02639421635204" lon="9.998032100998321"><ele>43.0</ele><time>2026-04-18T15:21:36.999Z</time></trkpt><trkpt lat="45.02642524244788" lon="9.997926538466869"><ele>43.0</ele><time>2026-04-18T15:21:38.999Z</time></trkpt><trkpt lat="45.02624995933225" lon="9.997913866276"><ele>43.0</ele><time>2026-04-18T15:21:39.998Z</time></trkpt><trkpt lat="45.026156982338314" lon="9.997838088561057"><ele>43.0</ele><time>2026-04-18T15:21:41.998Z</time></trkpt><trkpt lat="45.02609216994848" lon="9.997787737834749"><ele>43.0</ele><time>2026-04-18T15:21:43.998Z</time></trkpt><trkpt lat="45.02618756631974" lon="9.997353310330046"><ele>42.66666666666667</ele><time>2026-04-18T15:21:46.998Z</time></trkpt><trkpt lat="45.02623267960621" lon="9.997238603020207"><ele>42.333333333333336</ele><time>2026-04-18T15:21:48.998Z</time></trkpt><trkpt lat="45.02631606729496" lon="9.997197848250433"><ele>42.0</ele><time>2026-04-18T15:26:20Z</time></trkpt><trkpt lat="45.026348215920876" lon="9.997120324061886"><ele>41.666666666666664</ele><time>2026-04-18T15:26:24Z</time></trkpt><trkpt lat="45.0264230591252" lon="9.997097287787554"><ele>41.33333333333333</ele><time>2026-04-18T15:26:28Z</time></trkpt><trkpt lat="45.026490621277894" lon="9.99716605942212"><ele>41.0</ele><time>2026-04-18T15:26:31Z</time></trkpt><trkpt lat="45.02655956107267" lon="9.997238245226004"><ele>41.0</ele><time>2026-04-18T15:26:34Z</time></trkpt><trkpt lat="45.02660740036541" lon="9.9972981056682"><ele>41.0</ele><time>2026-04-18T15:26:36Z</time></trkpt><trkpt lat="45.02666222760951" lon="9.997364073637572"><ele>41.0</ele><time>2026-04-18T15:26:38Z</time></trkpt><trkpt lat="45.02672168155637" lon="9.997435690418826"><ele>41.0</ele><time>2026-04-18T15:26:40Z</time></trkpt><trkpt lat="45.02680334157623" lon="9.997506678207857"><ele>41.0</ele><time>2026-04-18T15:26:42Z</time></trkpt><trkpt lat="45.02690231238764" lon="9.99755252534871"><ele>41.0</ele><time>2026-04-18T15:26:44Z</time></trkpt><trkpt lat="45.02699427943429" lon="9.997607234011264"><ele>41.0</ele><time>2026-04-18T15:26:46Z</time></trkpt><trkpt lat="45.02707963207834" lon="9.997738020695394"><ele>41.0</ele><time>2026-04-18T15:26:48Z</time></trkpt><trkpt lat="45.02718034040358" lon="9.997809189115129"><ele>41.0</ele><time>2026-04-18T15:26:50Z</time></trkpt><trkpt lat="45.027287278848135" lon="9.99788482683229"><ele>41.0</ele><time>2026-04-18T15:26:52Z</time></trkpt><trkpt lat="45.02734463396764" lon="9.997925394358566"><ele>41.0</ele><time>2026-04-18T15:26:53Z</time></trkpt><trkpt lat="45.027401456993324" lon="9.9979655857041"><ele>40.99999999999999</ele><time>2026-04-18T15:26:54Z</time></trkpt><trkpt lat="45.027465746612144" lon="9.997989076677422"><ele>41.0</ele><time>2026-04-18T15:26:55Z</time></trkpt><trkpt lat="45.02752511503736" lon="9.998034786632026"><ele>41.0</ele><time>2026-04-18T15:26:55.999Z</time></trkpt><trkpt lat="45.027584141313476" lon="9.998077478709439"><ele>41.0</ele><time>2026-04-18T15:26:56.999Z</time></trkpt><trkpt lat="45.027643806862876" lon="9.998126729128062"><ele>41.0</ele><time>2026-04-18T15:26:57.999Z</time></trkpt><trkpt lat="45.027703037241565" lon="9.99816844217604"><ele>40.99999999999999</ele><time>2026-04-18T15:26:58.999Z</time></trkpt><trkpt lat="45.027761653247104" lon="9.99821079570086"><ele>41.0</ele><time>2026-04-18T15:26:59.999Z</time></trkpt><trkpt lat="45.02782038161122" lon="9.998255136954219"><ele>41.14285714285714</ele><time>2026-04-18T15:27:00.999Z</time></trkpt><trkpt lat="45.02787835175556" lon="9.998303792917485"><ele>41.285714285714285</ele><time>2026-04-18T15:27:01.999Z</time></trkpt><trkpt lat="45.02793522712905" lon="9.998351160223539"><ele>41.42857142857143</ele><time>2026-04-18T15:27:02.999Z</time></trkpt><trkpt lat="45.02799704618152" lon="9.99839220946504"><ele>41.57142857142857</ele><time>2026-04-18T15:27:03.999Z</time></trkpt><trkpt lat="45.028059440344975" lon="9.99843070254461"><ele>41.714285714285715</ele><time>2026-04-18T15:27:04.999Z</time></trkpt><trkpt lat="45.02812826451795" lon="9.998436477519471"><ele>41.857142857142854</ele><time>2026-04-18T15:27:05.999Z</time></trkpt><trkpt lat="45.028198763106" lon="9.998414885645042"><ele>42.0</ele><time>2026-04-18T15:27:06.999Z</time></trkpt><trkpt lat="45.02826033301102" lon="9.998349843117206"><ele>41.833333333333336</ele><time>2026-04-18T15:27:07.999Z</time></trkpt><trkpt lat="45.02831073435038" lon="9.998258401390594"><ele>41.666666666666664</ele><time>2026-04-18T15:27:08.999Z</time></trkpt><trkpt lat="45.028345717287905" lon="9.998159877972139"><ele>41.5</ele><time>2026-04-18T15:27:09.999Z</time></trkpt><trkpt lat="45.0283767584305" lon="9.998056088268449"><ele>41.33333333333333</ele><time>2026-04-18T15:27:10.999Z</time></trkpt><trkpt lat="45.02840804298059" lon="9.997955968510707"><ele>41.166666666666664</ele><time>2026-04-18T15:27:11.999Z</time></trkpt><trkpt lat="45.02844564276883" lon="9.99785795318435"><ele>41.0</ele><time>2026-04-18T15:27:12.999Z</time></trkpt><trkpt lat="45.02848259476978" lon="9.99775838455137"><ele>41.0</ele><time>2026-04-18T15:27:13.999Z</time></trkpt><trkpt lat="45.02851875714613" lon="9.997654447892343"><ele>41.0</ele><time>2026-04-18T15:27:14.999Z</time></trkpt><trkpt lat="45.02855281345243" lon="9.99755300232979"><ele>41.0</ele><time>2026-04-18T15:27:15.999Z</time></trkpt><trkpt lat="45.0285910245359" lon="9.997452211274787"><ele>41.0</ele><time>2026-04-18T15:27:16.999Z</time></trkpt><trkpt lat="45.02862785911155" lon="9.99735289243169"><ele>41.0</ele><time>2026-04-18T15:27:17.999Z</time></trkpt><trkpt lat="45.02866507578512" lon="9.997252713554747"><ele>41.0</ele><time>2026-04-18T15:27:18.999Z</time></trkpt><trkpt lat="45.02870084714924" lon="9.997150691469006"><ele>41.0</ele><time>2026-04-18T15:27:19.999Z</time></trkpt><trkpt lat="45.028732526306385" lon="9.997048238430638"><ele>41.0</ele><time>2026-04-18T15:27:20.999Z</time></trkpt><trkpt lat="45.02876851692877" lon="9.99694609085274"><ele>41.0</ele><time>2026-04-18T15:27:21.999Z</time></trkpt><trkpt lat="45.02880619855889" lon="9.996845013502332"><ele>41.0</ele><time>2026-04-18T15:27:22.999Z</time></trkpt><trkpt lat="45.02884131596522" lon="9.996744514848423"><ele>41.0</ele><time>2026-04-18T15:27:23.999Z</time></trkpt><trkpt lat="45.02887673829046" lon="9.99664085129733"><ele>41.0</ele><time>2026-04-18T15:27:24.999Z</time></trkpt><trkpt lat="45.02891271801668" lon="9.996538259529688"><ele>40.83333333333333</ele><time>2026-04-18T15:27:25.999Z</time></trkpt><trkpt lat="45.02894785354553" lon="9.996440277149448"><ele>40.666666666666664</ele><time>2026-04-18T15:27:26.999Z</time></trkpt><trkpt lat="45.02898294873892" lon="9.996343270160073"><ele>40.5</ele><time>2026-04-18T15:27:27.999Z</time></trkpt><trkpt lat="45.02901526800163" lon="9.996246750643481"><ele>40.333333333333336</ele><time>2026-04-18T15:27:28.999Z</time></trkpt><trkpt lat="45.02905113513117" lon="9.996155558337923"><ele>40.16666666666667</ele><time>2026-04-18T15:27:29.999Z</time></trkpt><trkpt lat="45.02910281680845" lon="9.996087505363294"><ele>40.0</ele><time>2026-04-18T15:27:30.999Z</time></trkpt><trkpt lat="45.029246123285866" lon="9.996134105369146"><ele>39.857142857142854</ele><time>2026-04-18T15:27:32.999Z</time></trkpt><trkpt lat="45.02931340839789" lon="9.996182196999271"><ele>39.714285714285715</ele><time>2026-04-18T15:27:33.999Z</time></trkpt><trkpt lat="45.029378372365905" lon="9.99622862967176"><ele>39.57142857142857</ele><time>2026-04-18T15:27:34.999Z</time></trkpt><trkpt lat="45.029446526758335" lon="9.996277342686703"><ele>39.42857142857143</ele><time>2026-04-18T15:27:35.999Z</time></trkpt><trkpt lat="45.02951378967227" lon="9.996325418522423"><ele>39.285714285714285</ele><time>2026-04-18T15:27:36.999Z</time></trkpt><trkpt lat="45.02957880774104" lon="9.996371889866195"><ele>39.142857142857146</ele><time>2026-04-18T15:27:37.999Z</time></trkpt><trkpt lat="45.02964492036774" lon="9.996419143537166"><ele>39.0</ele><time>2026-04-18T15:27:38.999Z</time></trkpt><trkpt lat="45.02971291739734" lon="9.99646763284988"><ele>39.0</ele><time>2026-04-18T15:27:39.999Z</time></trkpt><trkpt lat="45.02978293935957" lon="9.996516304719696"><ele>39.0</ele><time>2026-04-18T15:27:40.999Z</time></trkpt><trkpt lat="45.029854491333815" lon="9.99656604009063"><ele>39.0</ele><time>2026-04-18T15:27:41.999Z</time></trkpt><trkpt lat="45.0299270068892" lon="9.996616445243697"><ele>39.0</ele><time>2026-04-18T15:27:42.999Z</time></trkpt><trkpt lat="45.03000109203272" lon="9.996667941408075"><ele>39.0</ele><time>2026-04-18T15:27:43.999Z</time></trkpt><trkpt lat="45.03007316625732" lon="9.996718039789707"><ele>39.0</ele><time>2026-04-18T15:27:44.999Z</time></trkpt><trkpt lat="45.030146233732864" lon="9.996768828579873"><ele>38.5</ele><time>2026-04-18T15:27:45.999Z</time></trkpt><trkpt lat="45.030221246745924" lon="9.99682096970197"><ele>38.0</ele><time>2026-04-18T15:27:46.999Z</time></trkpt><trkpt lat="45.0302958729281" lon="9.996872841937295"><ele>37.5</ele><time>2026-04-18T15:27:47.999Z</time></trkpt><trkpt lat="45.03037823197167" lon="9.996905762991418"><ele>37.0</ele><time>2026-04-18T15:27:48.999Z</time></trkpt><trkpt lat="45.030445858652776" lon="9.996977096165267"><ele>36.5</ele><time>2026-04-18T15:27:49.998Z</time></trkpt><trkpt lat="45.03052927265769" lon="9.997009786832875"><ele>36.0</ele><time>2026-04-18T15:27:50.998Z</time></trkpt><trkpt lat="45.03060451155439" lon="9.997066255949283"><ele>36.0</ele><time>2026-04-18T15:27:51.998Z</time></trkpt><trkpt lat="45.03068150510591" lon="9.997119686784432"><ele>36.0</ele><time>2026-04-18T15:27:52.998Z</time></trkpt><trkpt lat="45.030756868828" lon="9.997179444514988"><ele>36.0</ele><time>2026-04-18T15:27:53.998Z</time></trkpt><trkpt lat="45.030834161657545" lon="9.997235433812431"><ele>36.0</ele><time>2026-04-18T15:27:54.998Z</time></trkpt><trkpt lat="45.03090936336375" lon="9.997287639803915"><ele>36.0</ele><time>2026-04-18T15:27:55.998Z</time></trkpt><trkpt lat="45.030987659862355" lon="9.997339919666485"><ele>36.0</ele><time>2026-04-18T15:27:56.998Z</time></trkpt><trkpt lat="45.031067248817486" lon="9.997394491908006"><ele>36.166666666666664</ele><time>2026-04-18T15:27:57.998Z</time></trkpt><trkpt lat="45.0311485353334" lon="9.997455971234153"><ele>36.333333333333336</ele><time>2026-04-18T15:27:58.998Z</time></trkpt><trkpt lat="45.03121757069713" lon="9.997497527367802"><ele>36.5</ele><time>2026-04-18T15:27:59.998Z</time></trkpt><trkpt lat="45.03129288539019" lon="9.997548780453663"><ele>36.66666666666667</ele><time>2026-04-18T15:28:00.998Z</time></trkpt><trkpt lat="45.03136786333182" lon="9.99760454390326"><ele>36.833333333333336</ele><time>2026-04-18T15:28:01.998Z</time></trkpt><trkpt lat="45.031441322559054" lon="9.997657849510912"><ele>37.0</ele><time>2026-04-18T15:28:02.998Z</time></trkpt><trkpt lat="45.031519246537066" lon="9.997710842840938"><ele>37.0</ele><time>2026-04-18T15:28:03.998Z</time></trkpt><trkpt lat="45.031598517778484" lon="9.997765550248227"><ele>37.0</ele><time>2026-04-18T15:28:04.998Z</time></trkpt><trkpt lat="45.031676061023624" lon="9.99781548923128"><ele>37.0</ele><time>2026-04-18T15:28:05.998Z</time></trkpt><trkpt lat="45.031754463099105" lon="9.99786401480576"><ele>37.0</ele><time>2026-04-18T15:28:06.998Z</time></trkpt><trkpt lat="45.031831577147" lon="9.997916125167906"><ele>37.0</ele><time>2026-04-18T15:28:07.998Z</time></trkpt><trkpt lat="45.03191079322277" lon="9.99796867001358"><ele>37.0</ele><time>2026-04-18T15:28:08.998Z</time></trkpt><trkpt lat="45.03199298835759" lon="9.998018847363392"><ele>37.4</ele><time>2026-04-18T15:28:10Z</time></trkpt><trkpt lat="45.032080310642314" lon="9.998077103351914"><ele>37.800000000000004</ele><time>2026-04-18T15:28:11Z</time></trkpt><trkpt lat="45.03217085850722" lon="9.998138191397507"><ele>38.2</ele><time>2026-04-18T15:28:12Z</time></trkpt><trkpt lat="45.032243317140626" lon="9.998184889826396"><ele>38.6</ele><time>2026-04-18T15:28:13Z</time></trkpt><trkpt lat="45.03232431615539" lon="9.998232297532816"><ele>39.0</ele><time>2026-04-18T15:28:14Z</time></trkpt><trkpt lat="45.0324063969695" lon="9.998277900514664"><ele>38.666666666666664</ele><time>2026-04-18T15:28:15Z</time></trkpt><trkpt lat="45.03249134337604" lon="9.998325317627446"><ele>38.333333333333336</ele><time>2026-04-18T15:28:16Z</time></trkpt><trkpt lat="45.03257015537451" lon="9.998367467918431"><ele>38.0</ele><time>2026-04-18T15:28:17Z</time></trkpt><trkpt lat="45.03265849010631" lon="9.998413162368877"><ele>37.66666666666667</ele><time>2026-04-18T15:28:18Z</time></trkpt><trkpt lat="45.03273819569168" lon="9.998452230430033"><ele>37.333333333333336</ele><time>2026-04-18T15:28:19Z</time></trkpt><trkpt lat="45.03282212809696" lon="9.998491789899232"><ele>37.0</ele><time>2026-04-18T15:28:20Z</time></trkpt><trkpt lat="45.03290212463417" lon="9.998528732910712"><ele>36.833333333333336</ele><time>2026-04-18T15:28:21Z</time></trkpt><trkpt lat="45.03298188994302" lon="9.998564523247328"><ele>36.66666666666667</ele><time>2026-04-18T15:28:22Z</time></trkpt><trkpt lat="45.03306508901267" lon="9.998600956225811"><ele>36.5</ele><time>2026-04-18T15:28:23Z</time></trkpt><trkpt lat="45.03314821076045" lon="9.998637355339888"><ele>36.333333333333336</ele><time>2026-04-18T15:28:24Z</time></trkpt><trkpt lat="45.03322822166823" lon="9.998672392212935"><ele>36.166666666666664</ele><time>2026-04-18T15:28:25Z</time></trkpt><trkpt lat="45.03330987092495" lon="9.998707965040603"><ele>36.0</ele><time>2026-04-18T15:28:26Z</time></trkpt><trkpt lat="45.03339255775438" lon="9.99874304006623"><ele>36.333333333333336</ele><time>2026-04-18T15:28:27Z</time></trkpt><trkpt lat="45.03348042639036" lon="9.99878031316911"><ele>36.666666666666664</ele><time>2026-04-18T15:28:28Z</time></trkpt><trkpt lat="45.033563968247044" lon="9.998815750891028"><ele>37.0</ele><time>2026-04-18T15:28:29Z</time></trkpt><trkpt lat="45.033644104935746" lon="9.998849744174015"><ele>37.33333333333333</ele><time>2026-04-18T15:28:30Z</time></trkpt><trkpt lat="45.03372655069849" lon="9.998884674172706"><ele>37.666666666666664</ele><time>2026-04-18T15:28:31Z</time></trkpt><trkpt lat="45.03380675619722" lon="9.998918477185873"><ele>38.0</ele><time>2026-04-18T15:28:32Z</time></trkpt><trkpt lat="45.03389121435357" lon="9.998954072526095"><ele>38.0</ele><time>2026-04-18T15:28:33Z</time></trkpt><trkpt lat="45.03397785133634" lon="9.998990586108969"><ele>38.0</ele><time>2026-04-18T15:28:34Z</time></trkpt><trkpt lat="45.034066726790144" lon="9.999028043199816"><ele>38.0</ele><time>2026-04-18T15:28:35Z</time></trkpt><trkpt lat="45.03415209977576" lon="9.999064025997116"><ele>38.0</ele><time>2026-04-18T15:28:36Z</time></trkpt><trkpt lat="45.0342378410936" lon="9.999100162128506"><ele>38.0</ele><time>2026-04-18T15:28:37Z</time></trkpt><trkpt lat="45.03432144321966" lon="9.999135396688214"><ele>38.0</ele><time>2026-04-18T15:28:38Z</time></trkpt><trkpt lat="45.03440667580966" lon="9.99917246742756"><ele>37.5</ele><time>2026-04-18T15:28:39Z</time></trkpt><trkpt lat="45.03448989731842" lon="9.999208714630711"><ele>37.0</ele><time>2026-04-18T15:28:40Z</time></trkpt><trkpt lat="45.034573728040286" lon="9.999245227180491"><ele>36.5</ele><time>2026-04-18T15:28:41Z</time></trkpt><trkpt lat="45.03465467282751" lon="9.999280482756884"><ele>36.0</ele><time>2026-04-18T15:28:42Z</time></trkpt><trkpt lat="45.03473755721493" lon="9.999316159839173"><ele>35.5</ele><time>2026-04-18T15:28:43Z</time></trkpt><trkpt lat="45.03482569670034" lon="9.99935319682816"><ele>35.0</ele><time>2026-04-18T15:28:44Z</time></trkpt><trkpt lat="45.0349049379776" lon="9.999386494705886"><ele>35.33333333333333</ele><time>2026-04-18T15:28:45Z</time></trkpt><trkpt lat="45.03498909614349" lon="9.99942191288566"><ele>35.666666666666664</ele><time>2026-04-18T15:28:46Z</time></trkpt><trkpt lat="45.0350760082049" lon="9.999458867080236"><ele>36.0</ele><time>2026-04-18T15:28:47Z</time></trkpt><trkpt lat="45.035156561034235" lon="9.999493117376007"><ele>36.333333333333336</ele><time>2026-04-18T15:28:48Z</time></trkpt><trkpt lat="45.035240728553596" lon="9.999529110804433"><ele>36.66666666666667</ele><time>2026-04-18T15:28:49Z</time></trkpt><trkpt lat="45.03532204095327" lon="9.999564943385053"><ele>37.0</ele><time>2026-04-18T15:28:50Z</time></trkpt><trkpt lat="45.03540582149457" lon="9.99960186362589"><ele>37.0</ele><time>2026-04-18T15:28:51Z</time></trkpt><trkpt lat="45.035490081650785" lon="9.999638995218527"><ele>37.0</ele><time>2026-04-18T15:28:52Z</time></trkpt><trkpt lat="45.03557311741546" lon="9.999677196551131"><ele>37.0</ele><time>2026-04-18T15:28:53Z</time></trkpt><trkpt lat="45.03565504333226" lon="9.99971561958861"><ele>37.0</ele><time>2026-04-18T15:28:54Z</time></trkpt><trkpt lat="45.035734414892005" lon="9.999755379322945"><ele>37.0</ele><time>2026-04-18T15:28:55Z</time></trkpt><trkpt lat="45.035810197384336" lon="9.999793993807563"><ele>37.0</ele><time>2026-04-18T15:28:56Z</time></trkpt><trkpt lat="45.035893316246856" lon="9.99983914205413"><ele>37.0</ele><time>2026-04-18T15:28:57Z</time></trkpt><trkpt lat="45.03597344678715" lon="9.999882667125945"><ele>37.0</ele><time>2026-04-18T15:28:58Z</time></trkpt><trkpt lat="45.03605391245623" lon="9.99992822228455"><ele>37.0</ele><time>2026-04-18T15:28:59Z</time></trkpt><trkpt lat="45.03613672709946" lon="9.99997567627712"><ele>37.0</ele><time>2026-04-18T15:29:00Z</time></trkpt><trkpt lat="45.03621568924768" lon="10.000020922734535"><ele>37.0</ele><time>2026-04-18T15:29:01Z</time></trkpt><trkpt lat="45.036289806594006" lon="10.00006474590252"><ele>37.0</ele><time>2026-04-18T15:29:01.999Z</time></trkpt><trkpt lat="45.03637477680718" lon="10.00011523480255"><ele>37.0</ele><time>2026-04-18T15:29:02.999Z</time></trkpt><trkpt lat="45.03645358950955" lon="10.000162430523076"><ele>37.0</ele><time>2026-04-18T15:29:03.999Z</time></trkpt><trkpt lat="45.03653465630046" lon="10.000211373934446"><ele>37.0</ele><time>2026-04-18T15:29:04.999Z</time></trkpt><trkpt lat="45.03661330936634" lon="10.000258860076324"><ele>37.0</ele><time>2026-04-18T15:29:05.999Z</time></trkpt><trkpt lat="45.036690605444626" lon="10.000305526959568"><ele>37.0</ele><time>2026-04-18T15:29:06.999Z</time></trkpt><trkpt lat="45.036771055475235" lon="10.000354097994894"><ele>37.0</ele><time>2026-04-18T15:29:07.999Z</time></trkpt><trkpt lat="45.03684782681946" lon="10.000400448049621"><ele>36.66666666666667</ele><time>2026-04-18T15:29:08.999Z</time></trkpt><trkpt lat="45.03692878757092" lon="10.000449327422558"><ele>36.333333333333336</ele><time>2026-04-18T15:29:09.999Z</time></trkpt><trkpt lat="45.037011207552304" lon="10.00049908782193"><ele>36.0</ele><time>2026-04-18T15:29:10.999Z</time></trkpt><trkpt lat="45.03708903882456" lon="10.000546077807057"><ele>35.666666666666664</ele><time>2026-04-18T15:29:11.999Z</time></trkpt><trkpt lat="45.037169390555086" lon="10.000594100463719"><ele>35.33333333333333</ele><time>2026-04-18T15:29:12.999Z</time></trkpt><trkpt lat="45.03725209745512" lon="10.000643097618777"><ele>35.0</ele><time>2026-04-18T15:29:13.999Z</time></trkpt><trkpt lat="45.037331355818246" lon="10.000690051758264"><ele>35.0</ele><time>2026-04-18T15:29:14.999Z</time></trkpt><trkpt lat="45.037418357950806" lon="10.000739035712868"><ele>35.0</ele><time>2026-04-18T15:29:15.999Z</time></trkpt><trkpt lat="45.037502516507" lon="10.000780197172858"><ele>35.0</ele><time>2026-04-18T15:29:16.999Z</time></trkpt><trkpt lat="45.03758841966704" lon="10.000817043071875"><ele>35.0</ele><time>2026-04-18T15:29:17.999Z</time></trkpt><trkpt lat="45.03768712932898" lon="10.000817271350133"><ele>35.0</ele><time>2026-04-18T15:29:18.999Z</time></trkpt><trkpt lat="45.037729812226374" lon="10.000933155939208"><ele>35.6</ele><time>2026-04-18T15:29:19.999Z</time></trkpt><trkpt lat="45.03781590325562" lon="10.000984905001731"><ele>36.2</ele><time>2026-04-18T15:29:20.999Z</time></trkpt><trkpt lat="45.03789870563301" lon="10.001033103960646"><ele>36.8</ele><time>2026-04-18T15:29:21.999Z</time></trkpt><trkpt lat="45.03798210874725" lon="10.001081652614795"><ele>37.4</ele><time>2026-04-18T15:29:22.999Z</time></trkpt><trkpt lat="45.038068597287335" lon="10.001131997271445"><ele>38.0</ele><time>2026-04-18T15:29:23.999Z</time></trkpt><trkpt lat="45.03814778422511" lon="10.001178091705755"><ele>38.0</ele><time>2026-04-18T15:29:24.999Z</time></trkpt><trkpt lat="45.03823184675219" lon="10.001227650933808"><ele>38.0</ele><time>2026-04-18T15:29:25.999Z</time></trkpt><trkpt lat="45.038311899950585" lon="10.001275468300499"><ele>38.0</ele><time>2026-04-18T15:29:26.999Z</time></trkpt><trkpt lat="45.038390463461916" lon="10.001322395844936"><ele>38.0</ele><time>2026-04-18T15:29:27.999Z</time></trkpt><trkpt lat="45.03847052507769" lon="10.001370218254994"><ele>38.0</ele><time>2026-04-18T15:29:28.999Z</time></trkpt><trkpt lat="45.038553174336954" lon="10.001419179604941"><ele>38.0</ele><time>2026-04-18T15:29:29.999Z</time></trkpt><trkpt lat="45.038631612475264" lon="10.001465534135018"><ele>37.83333333333333</ele><time>2026-04-18T15:29:30.999Z</time></trkpt><trkpt lat="45.03871022428202" lon="10.001511991271212"><ele>37.666666666666664</ele><time>2026-04-18T15:29:31.999Z</time></trkpt><trkpt lat="45.0387895385781" lon="10.001558863589556"><ele>37.5</ele><time>2026-04-18T15:29:32.999Z</time></trkpt><trkpt lat="45.03886910203658" lon="10.001605883139803"><ele>37.333333333333336</ele><time>2026-04-18T15:29:33.999Z</time></trkpt><trkpt lat="45.03894765704889" lon="10.001652355892185"><ele>37.16666666666667</ele><time>2026-04-18T15:29:34.999Z</time></trkpt><trkpt lat="45.03902699699558" lon="10.001700073062137"><ele>37.0</ele><time>2026-04-18T15:29:35.999Z</time></trkpt><trkpt lat="45.03910601098398" lon="10.001747594076493"><ele>37.333333333333336</ele><time>2026-04-18T15:29:36.999Z</time></trkpt><trkpt lat="45.03918367423249" lon="10.001794302719935"><ele>37.66666666666667</ele><time>2026-04-18T15:29:37.999Z</time></trkpt><trkpt lat="45.039261274541374" lon="10.00184097351176"><ele>38.0</ele><time>2026-04-18T15:29:38.999Z</time></trkpt><trkpt lat="45.039338271633554" lon="10.001887281513936"><ele>38.333333333333336</ele><time>2026-04-18T15:29:39.999Z</time></trkpt><trkpt lat="45.03941791911753" lon="10.00193518352992"><ele>38.666666666666664</ele><time>2026-04-18T15:29:40.999Z</time></trkpt><trkpt lat="45.039499687248956" lon="10.001984360957113"><ele>39.0</ele><time>2026-04-18T15:29:41.999Z</time></trkpt><trkpt lat="45.03957789835094" lon="10.002030008800048"><ele>39.0</ele><time>2026-04-18T15:29:42.999Z</time></trkpt><trkpt lat="45.03965803710517" lon="10.002076331199612"><ele>39.0</ele><time>2026-04-18T15:29:43.999Z</time></trkpt><trkpt lat="45.03973561331063" lon="10.002120681987813"><ele>39.0</ele><time>2026-04-18T15:29:44.999Z</time></trkpt><trkpt lat="45.03981494443586" lon="10.002165852467247"><ele>39.0</ele><time>2026-04-18T15:29:45.999Z</time></trkpt><trkpt lat="45.03989214035599" lon="10.002209807179725"><ele>39.0</ele><time>2026-04-18T15:29:46.999Z</time></trkpt><trkpt lat="45.039968826890174" lon="10.00225347185063"><ele>39.0</ele><time>2026-04-18T15:29:47.999Z</time></trkpt><trkpt lat="45.040048644067845" lon="10.002298919055194"><ele>38.666666666666664</ele><time>2026-04-18T15:29:48.999Z</time></trkpt><trkpt lat="45.0401283845302" lon="10.002342152060208"><ele>38.333333333333336</ele><time>2026-04-18T15:29:49.999Z</time></trkpt><trkpt lat="45.04020653340434" lon="10.00238682598875"><ele>38.0</ele><time>2026-04-18T15:29:50.999Z</time></trkpt><trkpt lat="45.04028438588368" lon="10.002430964729546"><ele>37.66666666666667</ele><time>2026-04-18T15:29:51.999Z</time></trkpt><trkpt lat="45.040362736835846" lon="10.002475383565557"><ele>37.333333333333336</ele><time>2026-04-18T15:29:52.999Z</time></trkpt><trkpt lat="45.040438050303855" lon="10.00251808038782"><ele>37.0</ele><time>2026-04-18T15:29:53.999Z</time></trkpt><trkpt lat="45.04051223441529" lon="10.002560136952312"><ele>36.833333333333336</ele><time>2026-04-18T15:29:54.999Z</time></trkpt><trkpt lat="45.040583247255576" lon="10.002600395655259"><ele>36.66666666666667</ele><time>2026-04-18T15:29:55.998Z</time></trkpt><trkpt lat="45.04065297064712" lon="10.00263992334252"><ele>36.5</ele><time>2026-04-18T15:29:56.998Z</time></trkpt><trkpt lat="45.040725682479454" lon="10.002681145238677"><ele>36.333333333333336</ele><time>2026-04-18T15:29:57.998Z</time></trkpt><trkpt lat="45.04080070770781" lon="10.002723678653544"><ele>36.166666666666664</ele><time>2026-04-18T15:29:58.998Z</time></trkpt><trkpt lat="45.040875741620894" lon="10.002766216988972"><ele>36.0</ele><time>2026-04-18T15:29:59.998Z</time></trkpt><trkpt lat="45.04095445272675" lon="10.002810840003745"><ele>36.0</ele><time>2026-04-18T15:30:00.998Z</time></trkpt><trkpt lat="45.04103181857395" lon="10.002854700364095"><ele>36.0</ele><time>2026-04-18T15:30:01.998Z</time></trkpt><trkpt lat="45.04111120544622" lon="10.002899706485291"><ele>36.0</ele><time>2026-04-18T15:30:02.998Z</time></trkpt><trkpt lat="45.041190615127704" lon="10.002944725538203"><ele>36.0</ele><time>2026-04-18T15:30:03.998Z</time></trkpt><trkpt lat="45.04126965919155" lon="10.002989537314525"><ele>36.0</ele><time>2026-04-18T15:30:04.998Z</time></trkpt><trkpt lat="45.04134822858481" lon="10.00303407999048"><ele>36.0</ele><time>2026-04-18T15:30:05.998Z</time></trkpt><trkpt lat="45.0414286721019" lon="10.003079685145003"><ele>36.0</ele><time>2026-04-18T15:30:06.998Z</time></trkpt><trkpt lat="45.04150882525162" lon="10.003125125686497"><ele>36.0</ele><time>2026-04-18T15:30:07.998Z</time></trkpt><trkpt lat="45.04158955855427" lon="10.003170125827134"><ele>36.0</ele><time>2026-04-18T15:30:08.998Z</time></trkpt><trkpt lat="45.041669534991115" lon="10.003214167896607"><ele>36.0</ele><time>2026-04-18T15:30:09.998Z</time></trkpt><trkpt lat="45.04174627786128" lon="10.003256429279762"><ele>36.0</ele><time>2026-04-18T15:30:10.998Z</time></trkpt><trkpt lat="45.04182409031893" lon="10.003299279671529"><ele>36.0</ele><time>2026-04-18T15:30:11.998Z</time></trkpt><trkpt lat="45.041898649533316" lon="10.00334033854085"><ele>36.0</ele><time>2026-04-18T15:30:12.998Z</time></trkpt><trkpt lat="45.04197293688703" lon="10.003381247701682"><ele>36.0</ele><time>2026-04-18T15:30:13.998Z</time></trkpt><trkpt lat="45.04203945953428" lon="10.003418962448265"><ele>36.0</ele><time>2026-04-18T15:30:14.998Z</time></trkpt><trkpt lat="45.04210668608744" lon="10.003457169420198"><ele>36.0</ele><time>2026-04-18T15:30:16Z</time></trkpt><trkpt lat="45.04219214703622" lon="10.003510332471487"><ele>36.0</ele><time>2026-04-18T15:30:18Z</time></trkpt><trkpt lat="45.0422173791362" lon="10.00317223339505"><ele>36.0</ele><time>2026-04-18T15:30:19Z</time></trkpt><trkpt lat="45.04226291813313" lon="10.003048272289554"><ele>36.0</ele><time>2026-04-18T15:30:20Z</time></trkpt><trkpt lat="45.04230163099962" lon="10.002915932818764"><ele>36.0</ele><time>2026-04-18T15:30:21Z</time></trkpt><trkpt lat="45.042336771092565" lon="10.002803700335072"><ele>36.0</ele><time>2026-04-18T15:30:22Z</time></trkpt><trkpt lat="45.04237357674329" lon="10.00269492974137"><ele>36.0</ele><time>2026-04-18T15:30:23Z</time></trkpt><trkpt lat="45.0424097637308" lon="10.002586385968963"><ele>35.833333333333336</ele><time>2026-04-18T15:30:24Z</time></trkpt><trkpt lat="45.04244547598545" lon="10.002478397164246"><ele>35.666666666666664</ele><time>2026-04-18T15:30:25Z</time></trkpt><trkpt lat="45.04247998974096" lon="10.002369669342622"><ele>35.5</ele><time>2026-04-18T15:30:26Z</time></trkpt><trkpt lat="45.04251820012156" lon="10.002259998736127"><ele>35.33333333333333</ele><time>2026-04-18T15:30:27Z</time></trkpt><trkpt lat="45.04255419569975" lon="10.002148206293226"><ele>35.166666666666664</ele><time>2026-04-18T15:30:28Z</time></trkpt><trkpt lat="45.04259306104093" lon="10.002037442917441"><ele>35.0</ele><time>2026-04-18T15:30:29Z</time></trkpt><trkpt lat="45.042632075540546" lon="10.001927809381584"><ele>34.83333333333333</ele><time>2026-04-18T15:30:30Z</time></trkpt><trkpt lat="45.04267118886684" lon="10.001817196464875"><ele>34.666666666666664</ele><time>2026-04-18T15:30:31Z</time></trkpt><trkpt lat="45.042712509224614" lon="10.001706666602978"><ele>34.5</ele><time>2026-04-18T15:30:32Z</time></trkpt><trkpt lat="45.04274975272813" lon="10.00159485051572"><ele>34.333333333333336</ele><time>2026-04-18T15:30:33Z</time></trkpt><trkpt lat="45.04279061420816" lon="10.00148388408908"><ele>34.16666666666667</ele><time>2026-04-18T15:30:34Z</time></trkpt><trkpt lat="45.042828462796614" lon="10.001371437538552"><ele>34.0</ele><time>2026-04-18T15:30:35Z</time></trkpt><trkpt lat="45.04287084439461" lon="10.00126243737488"><ele>34.0</ele><time>2026-04-18T15:30:36Z</time></trkpt><trkpt lat="45.04291070303267" lon="10.001149671514986"><ele>34.0</ele><time>2026-04-18T15:30:37Z</time></trkpt><trkpt lat="45.04296348895485" lon="10.00098320894801"><ele>34.0</ele><time>2026-04-18T15:30:38Z</time></trkpt><trkpt lat="45.04299968284831" lon="10.000870378534891"><ele>34.0</ele><time>2026-04-18T15:30:39Z</time></trkpt><trkpt lat="45.043036940555595" lon="10.000757733471"><ele>34.0</ele><time>2026-04-18T15:30:40Z</time></trkpt><trkpt lat="45.04308557062481" lon="10.000644773418964"><ele>34.0</ele><time>2026-04-18T15:30:41Z</time></trkpt><trkpt lat="45.04312349562127" lon="10.000534491063664"><ele>34.0</ele><time>2026-04-18T15:30:42Z</time></trkpt><trkpt lat="45.04316456145902" lon="10.000422154078127"><ele>34.0</ele><time>2026-04-18T15:30:43Z</time></trkpt><trkpt lat="45.04320249079049" lon="10.000311324718703"><ele>34.0</ele><time>2026-04-18T15:30:44Z</time></trkpt><trkpt lat="45.043241629131984" lon="10.000199979815635"><ele>34.0</ele><time>2026-04-18T15:30:45Z</time></trkpt><trkpt lat="45.04328116181788" lon="10.000089452745861"><ele>34.0</ele><time>2026-04-18T15:30:46Z</time></trkpt><trkpt lat="45.04332141698033" lon="9.999980008977321"><ele>34.0</ele><time>2026-04-18T15:30:47Z</time></trkpt><trkpt lat="45.04336127005629" lon="9.999867267443847"><ele>34.0</ele><time>2026-04-18T15:30:48Z</time></trkpt><trkpt lat="45.04339932094399" lon="9.999757317666463"><ele>34.0</ele><time>2026-04-18T15:30:49Z</time></trkpt><trkpt lat="45.04343679932345" lon="9.999647529139006"><ele>34.0</ele><time>2026-04-18T15:30:50Z</time></trkpt><trkpt lat="45.04347729097131" lon="9.99953527925083"><ele>34.0</ele><time>2026-04-18T15:30:51Z</time></trkpt><trkpt lat="45.04351968432536" lon="9.99942661537383"><ele>34.0</ele><time>2026-04-18T15:30:52Z</time></trkpt><trkpt lat="45.043553212734565" lon="9.999314098839319"><ele>34.0</ele><time>2026-04-18T15:30:53Z</time></trkpt><trkpt lat="45.043594648386275" lon="9.999205873124575"><ele>34.0</ele><time>2026-04-18T15:30:54Z</time></trkpt><trkpt lat="45.04363214365343" lon="9.999094294040596"><ele>34.0</ele><time>2026-04-18T15:30:55Z</time></trkpt><trkpt lat="45.04366909630548" lon="9.998983043633975"><ele>34.0</ele><time>2026-04-18T15:30:56Z</time></trkpt><trkpt lat="45.04371491084472" lon="9.998874689678704"><ele>34.0</ele><time>2026-04-18T15:30:57Z</time></trkpt><trkpt lat="45.04374557082803" lon="9.998760003102158"><ele>34.0</ele><time>2026-04-18T15:30:58Z</time></trkpt><trkpt lat="45.04378845624066" lon="9.998652706863492"><ele>33.833333333333336</ele><time>2026-04-18T15:30:59Z</time></trkpt><trkpt lat="45.04381947538416" lon="9.998539499087087"><ele>33.66666666666667</ele><time>2026-04-18T15:31:00Z</time></trkpt><trkpt lat="45.04385602560146" lon="9.998417956811814"><ele>33.5</ele><time>2026-04-18T15:31:01Z</time></trkpt><trkpt lat="45.04390391215086" lon="9.998310754177517"><ele>33.333333333333336</ele><time>2026-04-18T15:31:02Z</time></trkpt><trkpt lat="45.04395238683958" lon="9.99820469116075"><ele>33.166666666666664</ele><time>2026-04-18T15:31:03Z</time></trkpt><trkpt lat="45.04398848072945" lon="9.998091203301302"><ele>33.0</ele><time>2026-04-18T15:31:04Z</time></trkpt><trkpt lat="45.044030677915046" lon="9.997978335822413"><ele>33.0</ele><time>2026-04-18T15:31:05Z</time></trkpt><trkpt lat="45.04406909134102" lon="9.997867603874376"><ele>33.0</ele><time>2026-04-18T15:31:06Z</time></trkpt><trkpt lat="45.04410832489845" lon="9.99775357726471"><ele>33.0</ele><time>2026-04-18T15:31:06.999Z</time></trkpt><trkpt lat="45.04414637259218" lon="9.997642424950106"><ele>33.0</ele><time>2026-04-18T15:31:07.999Z</time></trkpt><trkpt lat="45.044185883545545" lon="9.99753229063927"><ele>33.0</ele><time>2026-04-18T15:31:08.999Z</time></trkpt><trkpt lat="45.044226533929205" lon="9.997420923445455"><ele>33.0</ele><time>2026-04-18T15:31:09.999Z</time></trkpt><trkpt lat="45.04426878522245" lon="9.997310207845791"><ele>33.166666666666664</ele><time>2026-04-18T15:31:10.999Z</time></trkpt><trkpt lat="45.044307377459994" lon="9.997197921914085"><ele>33.333333333333336</ele><time>2026-04-18T15:31:11.999Z</time></trkpt><trkpt lat="45.04434547982196" lon="9.997086363432143"><ele>33.5</ele><time>2026-04-18T15:31:12.999Z</time></trkpt><trkpt lat="45.044386361754924" lon="9.996975705708577"><ele>33.66666666666667</ele><time>2026-04-18T15:31:13.999Z</time></trkpt><trkpt lat="45.04442498609037" lon="9.996864716371451"><ele>33.833333333333336</ele><time>2026-04-18T15:31:14.999Z</time></trkpt><trkpt lat="45.044464927106084" lon="9.996756042368649"><ele>34.0</ele><time>2026-04-18T15:31:15.999Z</time></trkpt><trkpt lat="45.04450720638" lon="9.996646322119775"><ele>34.0</ele><time>2026-04-18T15:31:16.999Z</time></trkpt><trkpt lat="45.04454626215314" lon="9.996532420930716"><ele>34.0</ele><time>2026-04-18T15:31:17.999Z</time></trkpt><trkpt lat="45.04458775865425" lon="9.996423188191695"><ele>34.0</ele><time>2026-04-18T15:31:18.999Z</time></trkpt><trkpt lat="45.04462422737029" lon="9.99631358062311"><ele>34.0</ele><time>2026-04-18T15:31:19.999Z</time></trkpt><trkpt lat="45.04466337588199" lon="9.996198629331479"><ele>34.0</ele><time>2026-04-18T15:31:20.999Z</time></trkpt><trkpt lat="45.04471033855449" lon="9.99609288676349"><ele>34.0</ele><time>2026-04-18T15:31:21.999Z</time></trkpt><trkpt lat="45.0447505506543" lon="9.995979094508394"><ele>34.0</ele><time>2026-04-18T15:31:22.999Z</time></trkpt><trkpt lat="45.04479421956144" lon="9.995871636038942"><ele>34.0</ele><time>2026-04-18T15:31:23.999Z</time></trkpt><trkpt lat="45.04483323427254" lon="9.995761943744652"><ele>34.0</ele><time>2026-04-18T15:31:24.999Z</time></trkpt><trkpt lat="45.04486855854863" lon="9.995643879693851"><ele>34.0</ele><time>2026-04-18T15:31:25.999Z</time></trkpt><trkpt lat="45.04490584469539" lon="9.995535610530034"><ele>34.0</ele><time>2026-04-18T15:31:26.999Z</time></trkpt><trkpt lat="45.04495244116958" lon="9.99543011599483"><ele>34.0</ele><time>2026-04-18T15:31:27.999Z</time></trkpt><trkpt lat="45.04498741167618" lon="9.995317638705245"><ele>34.0</ele><time>2026-04-18T15:31:28.999Z</time></trkpt><trkpt lat="45.04502761960963" lon="9.995208857550315"><ele>34.0</ele><time>2026-04-18T15:31:29.999Z</time></trkpt><trkpt lat="45.04506532295012" lon="9.995094186842966"><ele>34.0</ele><time>2026-04-18T15:31:30.999Z</time></trkpt><trkpt lat="45.04510527244637" lon="9.994982214424299"><ele>34.0</ele><time>2026-04-18T15:31:31.999Z</time></trkpt><trkpt lat="45.045138279959076" lon="9.994866035671569"><ele>34.0</ele><time>2026-04-18T15:31:32.999Z</time></trkpt><trkpt lat="45.04517862952283" lon="9.994754218960235"><ele>34.0</ele><time>2026-04-18T15:31:33.999Z</time></trkpt><trkpt lat="45.04521804164759" lon="9.994643684536712"><ele>34.333333333333336</ele><time>2026-04-18T15:31:34.999Z</time></trkpt><trkpt lat="45.04525934807005" lon="9.994533605089606"><ele>34.66666666666667</ele><time>2026-04-18T15:31:35.999Z</time></trkpt><trkpt lat="45.045298206810564" lon="9.994421560311586"><ele>35.0</ele><time>2026-04-18T15:31:36.999Z</time></trkpt><trkpt lat="45.04533664920107" lon="9.994311108706587"><ele>35.333333333333336</ele><time>2026-04-18T15:31:37.999Z</time></trkpt><trkpt lat="45.04537857293518" lon="9.994199973250925"><ele>35.666666666666664</ele><time>2026-04-18T15:31:38.999Z</time></trkpt><trkpt lat="45.045415257701755" lon="9.994088947956376"><ele>36.0</ele><time>2026-04-18T15:31:39.999Z</time></trkpt><trkpt lat="45.0454559411276" lon="9.993981778424365"><ele>36.0</ele><time>2026-04-18T15:31:40.999Z</time></trkpt><trkpt lat="45.045501090569694" lon="9.99387141460634"><ele>36.0</ele><time>2026-04-18T15:31:41.999Z</time></trkpt><trkpt lat="45.04553854590197" lon="9.99376032898694"><ele>36.0</ele><time>2026-04-18T15:31:42.999Z</time></trkpt><trkpt lat="45.04557207642743" lon="9.993645758995024"><ele>36.0</ele><time>2026-04-18T15:31:43.999Z</time></trkpt><trkpt lat="45.04560579399965" lon="9.993534674470201"><ele>36.0</ele><time>2026-04-18T15:31:44.999Z</time></trkpt><trkpt lat="45.04564896371204" lon="9.99342174407575"><ele>36.0</ele><time>2026-04-18T15:31:45.999Z</time></trkpt><trkpt lat="45.045691407707636" lon="9.993309298168919"><ele>35.666666666666664</ele><time>2026-04-18T15:31:46.999Z</time></trkpt><trkpt lat="45.04572964217392" lon="9.993201121551039"><ele>35.333333333333336</ele><time>2026-04-18T15:31:47.999Z</time></trkpt><trkpt lat="45.04577076208436" lon="9.993090642388406"><ele>35.0</ele><time>2026-04-18T15:31:48.999Z</time></trkpt><trkpt lat="45.04580468818544" lon="9.992975552325374"><ele>34.66666666666667</ele><time>2026-04-18T15:31:49.999Z</time></trkpt><trkpt lat="45.045840966108145" lon="9.992861593160292"><ele>34.333333333333336</ele><time>2026-04-18T15:31:50.999Z</time></trkpt><trkpt lat="45.045883041736474" lon="9.992753278784392"><ele>34.0</ele><time>2026-04-18T15:31:51.999Z</time></trkpt><trkpt lat="45.0459260350932" lon="9.992643174640998"><ele>34.0</ele><time>2026-04-18T15:31:52.999Z</time></trkpt><trkpt lat="45.045965250232236" lon="9.992536359153396"><ele>34.0</ele><time>2026-04-18T15:31:53.999Z</time></trkpt><trkpt lat="45.04600527756094" lon="9.992427893280652"><ele>34.0</ele><time>2026-04-18T15:31:54.999Z</time></trkpt><trkpt lat="45.04604490750852" lon="9.9923176281211"><ele>34.0</ele><time>2026-04-18T15:31:55.999Z</time></trkpt><trkpt lat="45.046084623563935" lon="9.992206086452015"><ele>34.0</ele><time>2026-04-18T15:31:56.999Z</time></trkpt><trkpt lat="45.046123083023645" lon="9.992095311872234"><ele>34.0</ele><time>2026-04-18T15:31:57.999Z</time></trkpt><trkpt lat="45.04615930241465" lon="9.991986060853371"><ele>34.16666666666667</ele><time>2026-04-18T15:31:58.999Z</time></trkpt><trkpt lat="45.04619447898916" lon="9.991871827801953"><ele>34.333333333333336</ele><time>2026-04-18T15:31:59.998Z</time></trkpt><trkpt lat="45.04623277372504" lon="9.991763564397978"><ele>34.5</ele><time>2026-04-18T15:32:00.998Z</time></trkpt><trkpt lat="45.046272428800236" lon="9.991653822650028"><ele>34.666666666666664</ele><time>2026-04-18T15:32:01.998Z</time></trkpt><trkpt lat="45.04631102772445" lon="9.991540391127916"><ele>34.83333333333333</ele><time>2026-04-18T15:32:02.998Z</time></trkpt><trkpt lat="45.04635052311402" lon="9.991431094011359"><ele>35.0</ele><time>2026-04-18T15:32:03.998Z</time></trkpt><trkpt lat="45.046386605570724" lon="9.99131805814804"><ele>35.166666666666664</ele><time>2026-04-18T15:32:04.998Z</time></trkpt><trkpt lat="45.04642452430836" lon="9.991202610471888"><ele>35.33333333333333</ele><time>2026-04-18T15:32:05.998Z</time></trkpt><trkpt lat="45.04646340863384" lon="9.991097052559603"><ele>35.5</ele><time>2026-04-18T15:32:06.998Z</time></trkpt><trkpt lat="45.04650020644793" lon="9.990985180136887"><ele>35.666666666666664</ele><time>2026-04-18T15:32:07.998Z</time></trkpt><trkpt lat="45.04653723902867" lon="9.990875945890064"><ele>35.833333333333336</ele><time>2026-04-18T15:32:08.998Z</time></trkpt><trkpt lat="45.04657624544827" lon="9.990765384404371"><ele>36.0</ele><time>2026-04-18T15:32:09.998Z</time></trkpt><trkpt lat="45.046615455488364" lon="9.9906571431132"><ele>35.833333333333336</ele><time>2026-04-18T15:32:10.998Z</time></trkpt><trkpt lat="45.04665188908909" lon="9.990545506655963"><ele>35.666666666666664</ele><time>2026-04-18T15:32:11.998Z</time></trkpt><trkpt lat="45.04669224881589" lon="9.990435827240447"><ele>35.5</ele><time>2026-04-18T15:32:12.998Z</time></trkpt><trkpt lat="45.046733115887285" lon="9.990326584126473"><ele>35.33333333333333</ele><time>2026-04-18T15:32:13.998Z</time></trkpt><trkpt lat="45.04677358333148" lon="9.990218673517086"><ele>35.166666666666664</ele><time>2026-04-18T15:32:14.998Z</time></trkpt><trkpt lat="45.04681071545479" lon="9.990107364261705"><ele>35.0</ele><time>2026-04-18T15:32:15.998Z</time></trkpt><trkpt lat="45.04684832603412" lon="9.989996711397643"><ele>35.33333333333333</ele><time>2026-04-18T15:32:16.998Z</time></trkpt><trkpt lat="45.04688790806022" lon="9.989889253212334"><ele>35.666666666666664</ele><time>2026-04-18T15:32:17.998Z</time></trkpt><trkpt lat="45.04692703151266" lon="9.98978202203903"><ele>36.0</ele><time>2026-04-18T15:32:18.998Z</time></trkpt><trkpt lat="45.04696424052106" lon="9.989672092037086"><ele>36.333333333333336</ele><time>2026-04-18T15:32:19.998Z</time></trkpt><trkpt lat="45.04700214984584" lon="9.989567855755276"><ele>36.66666666666667</ele><time>2026-04-18T15:32:21Z</time></trkpt><trkpt lat="45.04702781850032" lon="9.989452908008753"><ele>37.0</ele><time>2026-04-18T15:32:22Z</time></trkpt><trkpt lat="45.04707614835624" lon="9.989363582343625"><ele>37.0</ele><time>2026-04-18T15:32:23Z</time></trkpt><trkpt lat="45.04710726505115" lon="9.98926274275078"><ele>37.0</ele><time>2026-04-18T15:32:24Z</time></trkpt><trkpt lat="45.04713380040689" lon="9.98914334623049"><ele>37.0</ele><time>2026-04-18T15:32:25Z</time></trkpt><trkpt lat="45.04718271092503" lon="9.989042649276787"><ele>37.0</ele><time>2026-04-18T15:32:26Z</time></trkpt><trkpt lat="45.047220667393745" lon="9.988930245025907"><ele>37.0</ele><time>2026-04-18T15:32:27Z</time></trkpt><trkpt lat="45.047255110073344" lon="9.988817566163632"><ele>37.0</ele><time>2026-04-18T15:32:28Z</time></trkpt><trkpt lat="45.04729109204276" lon="9.988708862616202"><ele>36.66666666666667</ele><time>2026-04-18T15:32:29Z</time></trkpt><trkpt lat="45.04732840659062" lon="9.98860312381053"><ele>36.333333333333336</ele><time>2026-04-18T15:32:30Z</time></trkpt><trkpt lat="45.047362928556005" lon="9.98849413766121"><ele>36.0</ele><time>2026-04-18T15:32:31Z</time></trkpt><trkpt lat="45.04740016280018" lon="9.988385261532112"><ele>35.666666666666664</ele><time>2026-04-18T15:32:32Z</time></trkpt><trkpt lat="45.047435278689" lon="9.988277290205616"><ele>35.33333333333333</ele><time>2026-04-18T15:32:33Z</time></trkpt><trkpt lat="45.047473423532516" lon="9.988168748914994"><ele>35.0</ele><time>2026-04-18T15:32:34Z</time></trkpt><trkpt lat="45.04751180110876" lon="9.988060924778134"><ele>34.83333333333333</ele><time>2026-04-18T15:32:35Z</time></trkpt><trkpt lat="45.047548447262315" lon="9.987955162609268"><ele>34.666666666666664</ele><time>2026-04-18T15:32:36Z</time></trkpt><trkpt lat="45.04758436657896" lon="9.987852130765313"><ele>34.5</ele><time>2026-04-18T15:32:37Z</time></trkpt><trkpt lat="45.047622580484685" lon="9.987747450763075"><ele>34.333333333333336</ele><time>2026-04-18T15:32:38Z</time></trkpt><trkpt lat="45.047659765506246" lon="9.987639529398287"><ele>34.16666666666667</ele><time>2026-04-18T15:32:39Z</time></trkpt><trkpt lat="45.04769592275045" lon="9.987536179958239"><ele>34.0</ele><time>2026-04-18T15:32:40Z</time></trkpt><trkpt lat="45.04773141666712" lon="9.987432854937072"><ele>34.6</ele><time>2026-04-18T15:32:41Z</time></trkpt><trkpt lat="45.047765780974956" lon="9.987331890109552"><ele>35.2</ele><time>2026-04-18T15:32:42Z</time></trkpt><trkpt lat="45.04778682790551" lon="9.987235923084736"><ele>35.800000000000004</ele><time>2026-04-18T15:32:43Z</time></trkpt><trkpt lat="45.04796105739482" lon="9.987310816869881"><ele>36.4</ele><time>2026-04-18T15:32:45Z</time></trkpt><trkpt lat="45.04804330932419" lon="9.9873219245442"><ele>37.0</ele><time>2026-04-18T15:32:46Z</time></trkpt><trkpt lat="45.04813027290808" lon="9.987333668485453"><ele>37.0</ele><time>2026-04-18T15:32:47Z</time></trkpt><trkpt lat="45.04821477904676" lon="9.987345457553918"><ele>37.0</ele><time>2026-04-18T15:32:48Z</time></trkpt><trkpt lat="45.04829704061257" lon="9.987357109591638"><ele>37.0</ele><time>2026-04-18T15:32:49Z</time></trkpt><trkpt lat="45.04837642137646" lon="9.98736835550535"><ele>37.0</ele><time>2026-04-18T15:32:50Z</time></trkpt><trkpt lat="45.048462043933526" lon="9.987380483622292"><ele>37.0</ele><time>2026-04-18T15:32:51Z</time></trkpt><trkpt lat="45.04854569785164" lon="9.987392332877905"><ele>37.0</ele><time>2026-04-18T15:32:52Z</time></trkpt><trkpt lat="45.048630679674325" lon="9.987404370235453"><ele>37.0</ele><time>2026-04-18T15:32:53Z</time></trkpt><trkpt lat="45.04871288092068" lon="9.987416013727985"><ele>37.0</ele><time>2026-04-18T15:32:54Z</time></trkpt><trkpt lat="45.04879579458177" lon="9.987427758128415"><ele>37.0</ele><time>2026-04-18T15:32:55Z</time></trkpt><trkpt lat="45.04887754980975" lon="9.987439338442151"><ele>37.0</ele><time>2026-04-18T15:32:56Z</time></trkpt><trkpt lat="45.04896377046523" lon="9.987451551258365"><ele>37.0</ele><time>2026-04-18T15:32:57Z</time></trkpt><trkpt lat="45.04904421100356" lon="9.987464504592056"><ele>37.0</ele><time>2026-04-18T15:32:58Z</time></trkpt><trkpt lat="45.049129490718975" lon="9.987478413185167"><ele>36.6</ele><time>2026-04-18T15:32:59Z</time></trkpt><trkpt lat="45.049212532139656" lon="9.98749195674279"><ele>36.2</ele><time>2026-04-18T15:33:00Z</time></trkpt><trkpt lat="45.04929805993719" lon="9.987505905804476"><ele>35.8</ele><time>2026-04-18T15:33:01Z</time></trkpt><trkpt lat="45.049421840994746" lon="9.987526093724352"><ele>35.4</ele><time>2026-04-18T15:33:03Z</time></trkpt><trkpt lat="45.04951513105979" lon="9.987541308773059"><ele>35.0</ele><time>2026-04-18T15:33:04Z</time></trkpt><trkpt lat="45.04960164833629" lon="9.987555419224458"><ele>35.0</ele><time>2026-04-18T15:33:05Z</time></trkpt><trkpt lat="45.04969208120335" lon="9.987570168274377"><ele>35.0</ele><time>2026-04-18T15:33:06Z</time></trkpt><trkpt lat="45.0497762332196" lon="9.987583892953934"><ele>35.0</ele><time>2026-04-18T15:33:07Z</time></trkpt><trkpt lat="45.049856606020896" lon="9.98759700126515"><ele>35.0</ele><time>2026-04-18T15:33:07.999Z</time></trkpt><trkpt lat="45.04993175516843" lon="9.987610477903685"><ele>35.0</ele><time>2026-04-18T15:33:08.999Z</time></trkpt><trkpt lat="45.0500147056583" lon="9.987625830606195"><ele>35.0</ele><time>2026-04-18T15:33:09.999Z</time></trkpt><trkpt lat="45.05010172291089" lon="9.987641936000808"><ele>34.83333333333333</ele><time>2026-04-18T15:33:10.999Z</time></trkpt><trkpt lat="45.05018634128345" lon="9.98765759741665"><ele>34.666666666666664</ele><time>2026-04-18T15:33:11.999Z</time></trkpt><trkpt lat="45.05027201661469" lon="9.98767390621918"><ele>34.5</ele><time>2026-04-18T15:33:12.999Z</time></trkpt><trkpt lat="45.05034897268157" lon="9.987689173221533"><ele>34.333333333333336</ele><time>2026-04-18T15:33:13.999Z</time></trkpt><trkpt lat="45.05043530023506" lon="9.98770544592369"><ele>34.16666666666667</ele><time>2026-04-18T15:33:14.999Z</time></trkpt><trkpt lat="45.05051845017046" lon="9.987720478980378"><ele>34.0</ele><time>2026-04-18T15:33:15.999Z</time></trkpt><trkpt lat="45.05060329968738" lon="9.987735819325259"><ele>34.0</ele><time>2026-04-18T15:33:16.999Z</time></trkpt><trkpt lat="45.05069070373975" lon="9.987751621522438"><ele>34.0</ele><time>2026-04-18T15:33:17.999Z</time></trkpt><trkpt lat="45.05077816356739" lon="9.987767433777199"><ele>34.0</ele><time>2026-04-18T15:33:18.999Z</time></trkpt><trkpt lat="45.050864351182575" lon="9.987782898392705"><ele>34.0</ele><time>2026-04-18T15:33:19.999Z</time></trkpt><trkpt lat="45.05095015222624" lon="9.98779799771856"><ele>34.0</ele><time>2026-04-18T15:33:20.999Z</time></trkpt><trkpt lat="45.05103551686496" lon="9.987813020245008"><ele>34.0</ele><time>2026-04-18T15:33:21.999Z</time></trkpt><trkpt lat="45.051123218196715" lon="9.987828453994373"><ele>34.16666666666667</ele><time>2026-04-18T15:33:22.999Z</time></trkpt><trkpt lat="45.051201611030855" lon="9.987842249614525"><ele>34.333333333333336</ele><time>2026-04-18T15:33:23.999Z</time></trkpt><trkpt lat="45.051285757516865" lon="9.987857057757386"><ele>34.5</ele><time>2026-04-18T15:33:24.999Z</time></trkpt><trkpt lat="45.051371381624925" lon="9.98787212594286"><ele>34.666666666666664</ele><time>2026-04-18T15:33:25.999Z</time></trkpt><trkpt lat="45.051454675315966" lon="9.987886784025422"><ele>34.83333333333333</ele><time>2026-04-18T15:33:26.999Z</time></trkpt><trkpt lat="45.051541878223695" lon="9.987902130044018"><ele>35.0</ele><time>2026-04-18T15:33:27.999Z</time></trkpt><trkpt lat="45.051625424571085" lon="9.98791683258614"><ele>35.166666666666664</ele><time>2026-04-18T15:33:28.999Z</time></trkpt><trkpt lat="45.05171359613688" lon="9.987932349076765"><ele>35.33333333333333</ele><time>2026-04-18T15:33:29.999Z</time></trkpt><trkpt lat="45.0518014167867" lon="9.987947803406753"><ele>35.5</ele><time>2026-04-18T15:33:30.999Z</time></trkpt><trkpt lat="45.051887125536126" lon="9.987962886486606"><ele>35.666666666666664</ele><time>2026-04-18T15:33:31.999Z</time></trkpt><trkpt lat="45.05197398109494" lon="9.987978171382718"><ele>35.833333333333336</ele><time>2026-04-18T15:33:32.999Z</time></trkpt><trkpt lat="45.05206283970097" lon="9.987993808786342"><ele>36.0</ele><time>2026-04-18T15:33:33.999Z</time></trkpt><trkpt lat="45.05215063687337" lon="9.98800925937674"><ele>36.0</ele><time>2026-04-18T15:33:34.999Z</time></trkpt><trkpt lat="45.0522364359603" lon="9.988024360333819"><ele>36.0</ele><time>2026-04-18T15:33:35.999Z</time></trkpt><trkpt lat="45.052330757251795" lon="9.988040959052842"><ele>36.0</ele><time>2026-04-18T15:33:36.999Z</time></trkpt><trkpt lat="45.052416766209866" lon="9.988056094961895"><ele>36.0</ele><time>2026-04-18T15:33:37.999Z</time></trkpt><trkpt lat="45.052503889800505" lon="9.988071427034152"><ele>36.0</ele><time>2026-04-18T15:33:38.999Z</time></trkpt><trkpt lat="45.05259397219996" lon="9.988087279790632"><ele>36.0</ele><time>2026-04-18T15:33:39.999Z</time></trkpt><trkpt lat="45.05268154622117" lon="9.988102691115904"><ele>36.0</ele><time>2026-04-18T15:33:40.999Z</time></trkpt><trkpt lat="45.052773641967356" lon="9.988118898197481"><ele>36.0</ele><time>2026-04-18T15:33:41.999Z</time></trkpt><trkpt lat="45.052863265270084" lon="9.98813467016216"><ele>36.0</ele><time>2026-04-18T15:33:42.999Z</time></trkpt><trkpt lat="45.052948995103506" lon="9.988149756948472"><ele>36.0</ele><time>2026-04-18T15:33:43.999Z</time></trkpt><trkpt lat="45.05303877342312" lon="9.98816553625888"><ele>36.0</ele><time>2026-04-18T15:33:44.999Z</time></trkpt><trkpt lat="45.05312318562151" lon="9.988180357333926"><ele>36.0</ele><time>2026-04-18T15:33:45.999Z</time></trkpt><trkpt lat="45.05321099724644" lon="9.988195775277582"><ele>36.166666666666664</ele><time>2026-04-18T15:33:46.999Z</time></trkpt><trkpt lat="45.05329585133009" lon="9.988210673932327"><ele>36.333333333333336</ele><time>2026-04-18T15:33:47.999Z</time></trkpt><trkpt lat="45.05338306279528" lon="9.988225986499062"><ele>36.5</ele><time>2026-04-18T15:33:48.999Z</time></trkpt><trkpt lat="45.05346696283005" lon="9.988240717650154"><ele>36.66666666666667</ele><time>2026-04-18T15:33:49.999Z</time></trkpt><trkpt lat="45.053553297712625" lon="9.988255876300597"><ele>36.833333333333336</ele><time>2026-04-18T15:33:50.999Z</time></trkpt><trkpt lat="45.0536345084993" lon="9.988270325110859"><ele>37.0</ele><time>2026-04-18T15:33:51.999Z</time></trkpt><trkpt lat="45.053717907078855" lon="9.988286326263731"><ele>37.0</ele><time>2026-04-18T15:33:52.999Z</time></trkpt><trkpt lat="45.05379852420737" lon="9.988301793761778"><ele>37.0</ele><time>2026-04-18T15:33:53.999Z</time></trkpt><trkpt lat="45.05388233516038" lon="9.9883135552976"><ele>37.0</ele><time>2026-04-18T15:33:54.999Z</time></trkpt><trkpt lat="45.05395563235462" lon="9.988340527518277"><ele>37.0</ele><time>2026-04-18T15:33:55.999Z</time></trkpt><trkpt lat="45.054014508949805" lon="9.988390291830264"><ele>37.0</ele><time>2026-04-18T15:33:56.999Z</time></trkpt><trkpt lat="45.05405913421623" lon="9.988462779161786"><ele>37.0</ele><time>2026-04-18T15:33:57.999Z</time></trkpt><trkpt lat="45.05410899809509" lon="9.988535743708477"><ele>37.0</ele><time>2026-04-18T15:33:58.999Z</time></trkpt><trkpt lat="45.05415383506363" lon="9.988613816620283"><ele>37.0</ele><time>2026-04-18T15:33:59.999Z</time></trkpt><trkpt lat="45.05421018872663" lon="9.988706623242836"><ele>37.0</ele><time>2026-04-18T15:34:00.998Z</time></trkpt><trkpt lat="45.05426112247635" lon="9.988790117814395"><ele>37.0</ele><time>2026-04-18T15:34:01.998Z</time></trkpt><trkpt lat="45.05431602287273" lon="9.988880114823873"><ele>37.0</ele><time>2026-04-18T15:34:02.998Z</time></trkpt><trkpt lat="45.05437266406964" lon="9.988968604103968"><ele>37.0</ele><time>2026-04-18T15:34:03.998Z</time></trkpt><trkpt lat="45.05442886746613" lon="9.989056218293529"><ele>37.0</ele><time>2026-04-18T15:34:04.998Z</time></trkpt><trkpt lat="45.05448627775788" lon="9.989145713894288"><ele>37.0</ele><time>2026-04-18T15:34:05.998Z</time></trkpt><trkpt lat="45.05454184887442" lon="9.98923234246581"><ele>37.0</ele><time>2026-04-18T15:34:06.998Z</time></trkpt><trkpt lat="45.05459931961639" lon="9.989321932330427"><ele>37.0</ele><time>2026-04-18T15:34:07.998Z</time></trkpt><trkpt lat="45.0546598540151" lon="9.989416519759473"><ele>37.0</ele><time>2026-04-18T15:34:08.998Z</time></trkpt><trkpt lat="45.054718118578926" lon="9.989508302264548"><ele>37.0</ele><time>2026-04-18T15:34:09.998Z</time></trkpt><trkpt lat="45.054774512642986" lon="9.989597138245916"><ele>37.0</ele><time>2026-04-18T15:34:10.998Z</time></trkpt><trkpt lat="45.05483162260693" lon="9.98968710189043"><ele>37.0</ele><time>2026-04-18T15:34:11.998Z</time></trkpt><trkpt lat="45.05488996970159" lon="9.989779014514895"><ele>37.0</ele><time>2026-04-18T15:34:12.998Z</time></trkpt><trkpt lat="45.054947994505504" lon="9.989870419271172"><ele>37.0</ele><time>2026-04-18T15:34:13.998Z</time></trkpt><trkpt lat="45.055006876325685" lon="9.989963174101456"><ele>37.0</ele><time>2026-04-18T15:34:14.998Z</time></trkpt><trkpt lat="45.055065203608955" lon="9.990055054813107"><ele>37.0</ele><time>2026-04-18T15:34:15.998Z</time></trkpt><trkpt lat="45.05512968343782" lon="9.990142307799186"><ele>37.0</ele><time>2026-04-18T15:34:16.998Z</time></trkpt><trkpt lat="45.055193927189066" lon="9.99022984207226"><ele>37.0</ele><time>2026-04-18T15:34:17.998Z</time></trkpt><trkpt lat="45.0552919466749" lon="9.990284180815161"><ele>37.0</ele><time>2026-04-18T15:34:18.998Z</time></trkpt><trkpt lat="45.055372122159945" lon="9.990333281537474"><ele>37.0</ele><time>2026-04-18T15:34:19.998Z</time></trkpt><trkpt lat="45.05545454092651" lon="9.990378155967129"><ele>37.0</ele><time>2026-04-18T15:34:20.998Z</time></trkpt><trkpt lat="45.05554287966808" lon="9.990410827686093"><ele>37.0</ele><time>2026-04-18T15:34:21.998Z</time></trkpt><trkpt lat="45.055633923532234" lon="9.990426708295526"><ele>37.0</ele><time>2026-04-18T15:34:22.998Z</time></trkpt><trkpt lat="45.055724864207825" lon="9.990393798741298"><ele>37.0</ele><time>2026-04-18T15:34:23.998Z</time></trkpt><trkpt lat="45.05581876550734" lon="9.990378068436994"><ele>37.0</ele><time>2026-04-18T15:34:24.998Z</time></trkpt><trkpt lat="45.05590983179974" lon="9.990357093645166"><ele>37.0</ele><time>2026-04-18T15:34:26Z</time></trkpt><trkpt lat="45.05600115425896" lon="9.99032034170045"><ele>37.0</ele><time>2026-04-18T15:34:27Z</time></trkpt><trkpt lat="45.056091381220774" lon="9.990288096340084"><ele>37.0</ele><time>2026-04-18T15:34:28Z</time></trkpt><trkpt lat="45.05618009830664" lon="9.990260682868158"><ele>37.0</ele><time>2026-04-18T15:34:29Z</time></trkpt><trkpt lat="45.05627171024818" lon="9.990231172588706"><ele>37.0</ele><time>2026-04-18T15:34:30Z</time></trkpt><trkpt lat="45.0563616897953" lon="9.990199953201662"><ele>37.0</ele><time>2026-04-18T15:34:31Z</time></trkpt><trkpt lat="45.05645562818356" lon="9.990181931539466"><ele>37.0</ele><time>2026-04-18T15:34:32Z</time></trkpt><trkpt lat="45.05655078374475" lon="9.990210235839568"><ele>37.0</ele><time>2026-04-18T15:34:33Z</time></trkpt><trkpt lat="45.05664525891308" lon="9.990235516163708"><ele>37.0</ele><time>2026-04-18T15:34:34Z</time></trkpt><trkpt lat="45.05672922023288" lon="9.990282891630462"><ele>37.0</ele><time>2026-04-18T15:34:35Z</time></trkpt><trkpt lat="45.05681437775217" lon="9.990336657351598"><ele>37.0</ele><time>2026-04-18T15:34:36Z</time></trkpt><trkpt lat="45.05691962596079" lon="9.990332951277294"><ele>37.2</ele><time>2026-04-18T15:34:37Z</time></trkpt><trkpt lat="45.05700245769429" lon="9.990394711389596"><ele>37.400000000000006</ele><time>2026-04-18T15:34:38Z</time></trkpt><trkpt lat="45.05708416396232" lon="9.990454025624144"><ele>37.599999999999994</ele><time>2026-04-18T15:34:39Z</time></trkpt><trkpt lat="45.057171951178624" lon="9.990516078224191"><ele>37.8</ele><time>2026-04-18T15:34:40Z</time></trkpt><trkpt lat="45.05723834715408" lon="9.990625676225543"><ele>38.0</ele><time>2026-04-18T15:34:41Z</time></trkpt><trkpt lat="45.05732176887766" lon="9.990682478390998"><ele>38.0</ele><time>2026-04-18T15:34:42Z</time></trkpt><trkpt lat="45.057402793294905" lon="9.990737648340003"><ele>38.0</ele><time>2026-04-18T15:34:43Z</time></trkpt><trkpt lat="45.057482372421404" lon="9.990791833958186"><ele>38.0</ele><time>2026-04-18T15:34:44Z</time></trkpt><trkpt lat="45.05756154690988" lon="9.990845746118348"><ele>38.0</ele><time>2026-04-18T15:34:45Z</time></trkpt><trkpt lat="45.05763988447023" lon="9.990899192847518"><ele>38.0</ele><time>2026-04-18T15:34:46Z</time></trkpt><trkpt lat="45.05772124353447" lon="9.990956517986636"><ele>38.0</ele><time>2026-04-18T15:34:47Z</time></trkpt><trkpt lat="45.05779875987748" lon="9.99101537527974"><ele>37.666666666666664</ele><time>2026-04-18T15:34:48Z</time></trkpt><trkpt lat="45.0578717435925" lon="9.991078666421153"><ele>37.33333333333333</ele><time>2026-04-18T15:34:49Z</time></trkpt><trkpt lat="45.05794305763897" lon="9.991149394687271"><ele>37.0</ele><time>2026-04-18T15:34:50Z</time></trkpt><trkpt lat="45.058013153185506" lon="9.991220846337205"><ele>36.666666666666664</ele><time>2026-04-18T15:34:51Z</time></trkpt><trkpt lat="45.05807908682977" lon="9.991299876047634"><ele>36.333333333333336</ele><time>2026-04-18T15:34:52Z</time></trkpt><trkpt lat="45.058141558908325" lon="9.991385349327052"><ele>36.0</ele><time>2026-04-18T15:34:53Z</time></trkpt><trkpt lat="45.05820078742009" lon="9.99147407401808"><ele>36.0</ele><time>2026-04-18T15:34:54Z</time></trkpt><trkpt lat="45.05825737025943" lon="9.991564896237584"><ele>36.0</ele><time>2026-04-18T15:34:55Z</time></trkpt><trkpt lat="45.058311324624135" lon="9.99165743913353"><ele>36.0</ele><time>2026-04-18T15:34:56Z</time></trkpt><trkpt lat="45.05836657567208" lon="9.991754010781474"><ele>36.0</ele><time>2026-04-18T15:34:57Z</time></trkpt><trkpt lat="45.058420978543005" lon="9.991848228304296"><ele>36.0</ele><time>2026-04-18T15:34:58Z</time></trkpt><trkpt lat="45.058477327740285" lon="9.991944898785563"><ele>36.0</ele><time>2026-04-18T15:34:59Z</time></trkpt><trkpt lat="45.05853528435059" lon="9.992040309826368"><ele>36.0</ele><time>2026-04-18T15:35:00Z</time></trkpt><trkpt lat="45.05859553396147" lon="9.99213338793487"><ele>36.0</ele><time>2026-04-18T15:35:01Z</time></trkpt><trkpt lat="45.05865609339681" lon="9.992224635622982"><ele>36.0</ele><time>2026-04-18T15:35:02Z</time></trkpt><trkpt lat="45.058715788801955" lon="9.992311029290985"><ele>36.0</ele><time>2026-04-18T15:35:03Z</time></trkpt><trkpt lat="45.05878126169824" lon="9.992399760866313"><ele>36.0</ele><time>2026-04-18T15:35:04Z</time></trkpt><trkpt lat="45.05884842356213" lon="9.992486444530275"><ele>36.0</ele><time>2026-04-18T15:35:05Z</time></trkpt><trkpt lat="45.058915934103005" lon="9.992566781879173"><ele>36.0</ele><time>2026-04-18T15:35:06Z</time></trkpt><trkpt lat="45.058985271865296" lon="9.992645054659398"><ele>36.0</ele><time>2026-04-18T15:35:07Z</time></trkpt><trkpt lat="45.05905849467101" lon="9.992723209975164"><ele>36.0</ele><time>2026-04-18T15:35:08Z</time></trkpt><trkpt lat="45.05913341139929" lon="9.99279794474919"><ele>36.0</ele><time>2026-04-18T15:35:09Z</time></trkpt><trkpt lat="45.0592079497393" lon="9.992869987158388"><ele>36.0</ele><time>2026-04-18T15:35:10Z</time></trkpt><trkpt lat="45.05928002004416" lon="9.992939644121186"><ele>35.666666666666664</ele><time>2026-04-18T15:35:11Z</time></trkpt><trkpt lat="45.05935552746321" lon="9.993011079942068"><ele>35.333333333333336</ele><time>2026-04-18T15:35:12Z</time></trkpt><trkpt lat="45.05943002369966" lon="9.99308139736824"><ele>35.0</ele><time>2026-04-18T15:35:12.999Z</time></trkpt><trkpt lat="45.059504891908226" lon="9.9931515283887"><ele>34.66666666666667</ele><time>2026-04-18T15:35:13.999Z</time></trkpt><trkpt lat="45.05957993806605" lon="9.993220476456846"><ele>34.333333333333336</ele><time>2026-04-18T15:35:14.999Z</time></trkpt><trkpt lat="45.059654438291844" lon="9.993288922987183"><ele>34.0</ele><time>2026-04-18T15:35:15.999Z</time></trkpt><trkpt lat="45.05972843695505" lon="9.993356908656034"><ele>34.0</ele><time>2026-04-18T15:35:16.999Z</time></trkpt><trkpt lat="45.05980269416984" lon="9.993425131902791"><ele>34.0</ele><time>2026-04-18T15:35:17.999Z</time></trkpt><trkpt lat="45.059876049633814" lon="9.993493003809094"><ele>34.0</ele><time>2026-04-18T15:35:18.999Z</time></trkpt><trkpt lat="45.05995059563612" lon="9.993561991623197"><ele>34.0</ele><time>2026-04-18T15:35:19.999Z</time></trkpt><trkpt lat="45.06002450991247" lon="9.993630394714314"><ele>34.0</ele><time>2026-04-18T15:35:20.999Z</time></trkpt><trkpt lat="45.06009953215189" lon="9.993699823126436"><ele>34.0</ele><time>2026-04-18T15:35:21.999Z</time></trkpt><trkpt lat="45.06017391919076" lon="9.993767907289563"><ele>34.0</ele><time>2026-04-18T15:35:22.999Z</time></trkpt><trkpt lat="45.06025028200307" lon="9.993835054769526"><ele>34.0</ele><time>2026-04-18T15:35:23.999Z</time></trkpt><trkpt lat="45.06032833149683" lon="9.993900515602707"><ele>34.0</ele><time>2026-04-18T15:35:24.999Z</time></trkpt><trkpt lat="45.060406227673724" lon="9.993963237174263"><ele>34.0</ele><time>2026-04-18T15:35:25.999Z</time></trkpt><trkpt lat="45.060485537399266" lon="9.994022363677322"><ele>34.0</ele><time>2026-04-18T15:35:26.999Z</time></trkpt><trkpt lat="45.060569475556726" lon="9.994076700216468"><ele>34.0</ele><time>2026-04-18T15:35:27.999Z</time></trkpt><trkpt lat="45.060652595493345" lon="9.994125112796667"><ele>34.0</ele><time>2026-04-18T15:35:28.999Z</time></trkpt><trkpt lat="45.060736172963146" lon="9.994169750330387"><ele>34.0</ele><time>2026-04-18T15:35:29.999Z</time></trkpt><trkpt lat="45.06081823765425" lon="9.994210464609148"><ele>34.0</ele><time>2026-04-18T15:35:30.999Z</time></trkpt><trkpt lat="45.06090088090562" lon="9.994250737144888"><ele>34.0</ele><time>2026-04-18T15:35:31.999Z</time></trkpt><trkpt lat="45.060983613479586" lon="9.994289233526898"><ele>34.0</ele><time>2026-04-18T15:35:32.999Z</time></trkpt><trkpt lat="45.0610663259056" lon="9.994327720520609"><ele>34.5</ele><time>2026-04-18T15:35:33.999Z</time></trkpt><trkpt lat="45.06115005687349" lon="9.994366681446342"><ele>35.0</ele><time>2026-04-18T15:35:34.999Z</time></trkpt><trkpt lat="45.06123013255918" lon="9.994403941388216"><ele>35.5</ele><time>2026-04-18T15:35:35.999Z</time></trkpt><trkpt lat="45.06131439758114" lon="9.99444192081332"><ele>36.0</ele><time>2026-04-18T15:35:36.999Z</time></trkpt><trkpt lat="45.0613960830264" lon="9.994478870011655"><ele>36.5</ele><time>2026-04-18T15:35:37.999Z</time></trkpt><trkpt lat="45.06148024562223" lon="9.994516836777235"><ele>37.0</ele><time>2026-04-18T15:35:38.999Z</time></trkpt><trkpt lat="45.06156240875096" lon="9.994554102090081"><ele>36.66666666666667</ele><time>2026-04-18T15:35:39.999Z</time></trkpt><trkpt lat="45.061645730168046" lon="9.994593450598254"><ele>36.333333333333336</ele><time>2026-04-18T15:35:40.999Z</time></trkpt><trkpt lat="45.06172981845607" lon="9.994633161266057"><ele>36.0</ele><time>2026-04-18T15:35:41.999Z</time></trkpt><trkpt lat="45.06181356970008" lon="9.994671649332929"><ele>35.666666666666664</ele><time>2026-04-18T15:35:42.999Z</time></trkpt><trkpt lat="45.061896768669484" lon="9.994709438794748"><ele>35.33333333333333</ele><time>2026-04-18T15:35:43.999Z</time></trkpt><trkpt lat="45.06197652684826" lon="9.994749085391534"><ele>35.0</ele><time>2026-04-18T15:35:44.999Z</time></trkpt><trkpt lat="45.062056966618066" lon="9.994791490478057"><ele>35.0</ele><time>2026-04-18T15:35:45.999Z</time></trkpt><trkpt lat="45.062136282449565" lon="9.99483738725397"><ele>35.0</ele><time>2026-04-18T15:35:46.999Z</time></trkpt><trkpt lat="45.062214818220234" lon="9.994887076449276"><ele>35.0</ele><time>2026-04-18T15:35:47.999Z</time></trkpt><trkpt lat="45.06229179171655" lon="9.994938787487673"><ele>35.0</ele><time>2026-04-18T15:35:48.999Z</time></trkpt><trkpt lat="45.06236864521358" lon="9.99499214075106"><ele>35.0</ele><time>2026-04-18T15:35:49.999Z</time></trkpt><trkpt lat="45.06244718311243" lon="9.99504820427799"><ele>35.0</ele><time>2026-04-18T15:35:50.999Z</time></trkpt><trkpt lat="45.06252403952842" lon="9.995103067524177"><ele>35.166666666666664</ele><time>2026-04-18T15:35:51.999Z</time></trkpt><trkpt lat="45.06258556682982" lon="9.995135942897658"><ele>35.33333333333333</ele><time>2026-04-18T15:35:52.999Z</time></trkpt><trkpt lat="45.06266281392281" lon="9.995191876231567"><ele>35.5</ele><time>2026-04-18T15:35:53.999Z</time></trkpt><trkpt lat="45.062739702563455" lon="9.99524088239378"><ele>35.666666666666664</ele><time>2026-04-18T15:35:54.999Z</time></trkpt><trkpt lat="45.06281736835156" lon="9.995289194483206"><ele>35.833333333333336</ele><time>2026-04-18T15:35:55.999Z</time></trkpt><trkpt lat="45.06290299022682" lon="9.995342028404528"><ele>36.0</ele><time>2026-04-18T15:35:56.999Z</time></trkpt><trkpt lat="45.062981190604134" lon="9.995381266789723"><ele>36.0</ele><time>2026-04-18T15:35:57.999Z</time></trkpt><trkpt lat="45.06306463869284" lon="9.995420459443308"><ele>36.0</ele><time>2026-04-18T15:35:58.999Z</time></trkpt><trkpt lat="45.06314698725125" lon="9.995467894085197"><ele>36.0</ele><time>2026-04-18T15:35:59.999Z</time></trkpt><trkpt lat="45.06322829415913" lon="9.995514803658265"><ele>36.0</ele><time>2026-04-18T15:36:00.999Z</time></trkpt><trkpt lat="45.06330910970948" lon="9.995579065366197"><ele>36.0</ele><time>2026-04-18T15:36:01.999Z</time></trkpt><trkpt lat="45.0633705242243" lon="9.995656929276086"><ele>36.0</ele><time>2026-04-18T15:36:02.999Z</time></trkpt><trkpt lat="45.063432280730815" lon="9.995749806599484"><ele>36.0</ele><time>2026-04-18T15:36:03.999Z</time></trkpt><trkpt lat="45.06349267267885" lon="9.99584080518398"><ele>36.0</ele><time>2026-04-18T15:36:04.999Z</time></trkpt><trkpt lat="45.063553725318386" lon="9.99592927356015"><ele>36.0</ele><time>2026-04-18T15:36:05.999Z</time></trkpt><trkpt lat="45.06361942439329" lon="9.996013099751607"><ele>36.0</ele><time>2026-04-18T15:36:06.998Z</time></trkpt><trkpt lat="45.06368540854264" lon="9.996097701450601"><ele>36.0</ele><time>2026-04-18T15:36:07.998Z</time></trkpt><trkpt lat="45.06375403834733" lon="9.996164853325926"><ele>36.0</ele><time>2026-04-18T15:36:08.998Z</time></trkpt><trkpt lat="45.06382132520916" lon="9.996230976026533"><ele>36.0</ele><time>2026-04-18T15:36:09.998Z</time></trkpt><trkpt lat="45.06389175112905" lon="9.996290140706899"><ele>36.0</ele><time>2026-04-18T15:36:10.998Z</time></trkpt><trkpt lat="45.06397134767181" lon="9.996315738482366"><ele>36.0</ele><time>2026-04-18T15:36:11.998Z</time></trkpt><trkpt lat="45.06406327430806" lon="9.996307794632585"><ele>36.0</ele><time>2026-04-18T15:36:12.998Z</time></trkpt><trkpt lat="45.064137404219146" lon="9.996245880574582"><ele>36.0</ele><time>2026-04-18T15:36:13.998Z</time></trkpt><trkpt lat="45.06419613527611" lon="9.996147088727934"><ele>36.0</ele><time>2026-04-18T15:36:14.998Z</time></trkpt><trkpt lat="45.06425036570475" lon="9.99603672420992"><ele>35.8</ele><time>2026-04-18T15:36:15.998Z</time></trkpt><trkpt lat="45.064277025517164" lon="9.995850242235225"><ele>35.6</ele><time>2026-04-18T15:36:16.998Z</time></trkpt><trkpt lat="45.064317652200074" lon="9.995737666212158"><ele>35.4</ele><time>2026-04-18T15:36:17.998Z</time></trkpt><trkpt lat="45.064363168070635" lon="9.995626188948544"><ele>35.2</ele><time>2026-04-18T15:36:18.998Z</time></trkpt><trkpt lat="45.06440954845124" lon="9.99551806522235"><ele>35.0</ele><time>2026-04-18T15:36:19.998Z</time></trkpt><trkpt lat="45.06446092881204" lon="9.99541458295044"><ele>35.0</ele><time>2026-04-18T15:36:20.998Z</time></trkpt><trkpt lat="45.064505527651434" lon="9.995302369683555"><ele>35.0</ele><time>2026-04-18T15:36:21.998Z</time></trkpt><trkpt lat="45.06454872872594" lon="9.995193362733145"><ele>35.0</ele><time>2026-04-18T15:36:22.998Z</time></trkpt><trkpt lat="45.064597238752285" lon="9.995089433854016"><ele>35.0</ele><time>2026-04-18T15:36:23.998Z</time></trkpt><trkpt lat="45.06464615146978" lon="9.994985309347904"><ele>35.0</ele><time>2026-04-18T15:36:24.998Z</time></trkpt><trkpt lat="45.06469386203521" lon="9.994878877219813"><ele>35.0</ele><time>2026-04-18T15:36:25.998Z</time></trkpt><trkpt lat="45.064739476482" lon="9.994772282194406"><ele>35.0</ele><time>2026-04-18T15:36:26.998Z</time></trkpt><trkpt lat="45.064784961731014" lon="9.994667562937808"><ele>35.0</ele><time>2026-04-18T15:36:27.998Z</time></trkpt><trkpt lat="45.06483130529194" lon="9.994561667920117"><ele>35.0</ele><time>2026-04-18T15:36:28.998Z</time></trkpt><trkpt lat="45.06487439981388" lon="9.99446151923331"><ele>35.0</ele><time>2026-04-18T15:36:29.998Z</time></trkpt><trkpt lat="45.06491716753514" lon="9.994351411787964"><ele>35.0</ele><time>2026-04-18T15:36:30.998Z</time></trkpt><trkpt lat="45.064959517164226" lon="9.99423777101979"><ele>35.0</ele><time>2026-04-18T15:36:32Z</time></trkpt><trkpt lat="45.06500232160594" lon="9.994132322824838"><ele>35.0</ele><time>2026-04-18T15:36:33Z</time></trkpt><trkpt lat="45.065042369858986" lon="9.994020396998215"><ele>35.0</ele><time>2026-04-18T15:36:34Z</time></trkpt><trkpt lat="45.0650852753262" lon="9.993909710030994"><ele>35.0</ele><time>2026-04-18T15:36:35Z</time></trkpt><trkpt lat="45.065124509923336" lon="9.993795386206079"><ele>35.0</ele><time>2026-04-18T15:36:36Z</time></trkpt><trkpt lat="45.065162806163066" lon="9.993681553158996"><ele>35.0</ele><time>2026-04-18T15:36:37Z</time></trkpt><trkpt lat="45.06519975565898" lon="9.993565818075444"><ele>35.0</ele><time>2026-04-18T15:36:38Z</time></trkpt><trkpt lat="45.06523351900675" lon="9.993449752100942"><ele>35.0</ele><time>2026-04-18T15:36:39Z</time></trkpt><trkpt lat="45.06526477250633" lon="9.993333476341574"><ele>35.0</ele><time>2026-04-18T15:36:40Z</time></trkpt><trkpt lat="45.0652936509023" lon="9.993211765778934"><ele>35.0</ele><time>2026-04-18T15:36:41Z</time></trkpt><trkpt lat="45.06532256348908" lon="9.993093792528677"><ele>35.0</ele><time>2026-04-18T15:36:42Z</time></trkpt><trkpt lat="45.06534959659809" lon="9.992975854301728"><ele>35.0</ele><time>2026-04-18T15:36:43Z</time></trkpt><trkpt lat="45.06537998754837" lon="9.992858442596235"><ele>35.0</ele><time>2026-04-18T15:36:44Z</time></trkpt><trkpt lat="45.06540924677558" lon="9.992740004699812"><ele>35.0</ele><time>2026-04-18T15:36:45Z</time></trkpt><trkpt lat="45.06543523518467" lon="9.992619448249219"><ele>35.0</ele><time>2026-04-18T15:36:46Z</time></trkpt><trkpt lat="45.06546223050172" lon="9.99250424406896"><ele>35.0</ele><time>2026-04-18T15:36:47Z</time></trkpt><trkpt lat="45.06548947124385" lon="9.99239022477508"><ele>35.0</ele><time>2026-04-18T15:36:48Z</time></trkpt><trkpt lat="45.0655163818549" lon="9.992271381050616"><ele>35.0</ele><time>2026-04-18T15:36:49Z</time></trkpt><trkpt lat="45.06554386607541" lon="9.99215406579197"><ele>35.0</ele><time>2026-04-18T15:36:50Z</time></trkpt><trkpt lat="45.06557293586336" lon="9.992039642809166"><ele>35.0</ele><time>2026-04-18T15:36:51Z</time></trkpt><trkpt lat="45.06560095302599" lon="9.991923858886604"><ele>35.0</ele><time>2026-04-18T15:36:52Z</time></trkpt><trkpt lat="45.06562905180727" lon="9.991804949368658"><ele>35.0</ele><time>2026-04-18T15:36:53Z</time></trkpt><trkpt lat="45.065660663706545" lon="9.99168949196612"><ele>35.0</ele><time>2026-04-18T15:36:54Z</time></trkpt><trkpt lat="45.065690330429376" lon="9.991571451059807"><ele>35.0</ele><time>2026-04-18T15:36:55Z</time></trkpt><trkpt lat="45.0657201007394" lon="9.99145482384792"><ele>35.0</ele><time>2026-04-18T15:36:56Z</time></trkpt><trkpt lat="45.065754796267505" lon="9.991338933917445"><ele>34.83333333333333</ele><time>2026-04-18T15:36:57Z</time></trkpt><trkpt lat="45.0657910112482" lon="9.991223237819737"><ele>34.666666666666664</ele><time>2026-04-18T15:36:58Z</time></trkpt><trkpt lat="45.06584268925741" lon="9.99111969383473"><ele>34.5</ele><time>2026-04-18T15:36:59Z</time></trkpt><trkpt lat="45.06591832032079" lon="9.991059500238924"><ele>34.333333333333336</ele><time>2026-04-18T15:37:00Z</time></trkpt><trkpt lat="45.0659947293333" lon="9.991012249620074"><ele>34.16666666666667</ele><time>2026-04-18T15:37:01Z</time></trkpt><trkpt lat="45.066071710846735" lon="9.990952369056886"><ele>34.0</ele><time>2026-04-18T15:37:02Z</time></trkpt><trkpt lat="45.06615204478642" lon="9.99089149394953"><ele>34.333333333333336</ele><time>2026-04-18T15:37:03Z</time></trkpt><trkpt lat="45.06623122848791" lon="9.990833340978753"><ele>34.66666666666667</ele><time>2026-04-18T15:37:04Z</time></trkpt><trkpt lat="45.06630758002041" lon="9.990777430972683"><ele>35.0</ele><time>2026-04-18T15:37:05Z</time></trkpt><trkpt lat="45.06638236758676" lon="9.990722666205"><ele>35.333333333333336</ele><time>2026-04-18T15:37:06Z</time></trkpt><trkpt lat="45.06645887118617" lon="9.990671995379618"><ele>35.666666666666664</ele><time>2026-04-18T15:37:07Z</time></trkpt><trkpt lat="45.066537560958615" lon="9.9906336395102"><ele>36.0</ele><time>2026-04-18T15:37:08Z</time></trkpt><trkpt lat="45.06661883952048" lon="9.990608846054144"><ele>36.166666666666664</ele><time>2026-04-18T15:37:09Z</time></trkpt><trkpt lat="45.06670092073571" lon="9.990620206892226"><ele>36.333333333333336</ele><time>2026-04-18T15:37:10Z</time></trkpt><trkpt lat="45.066780747889695" lon="9.990656275016109"><ele>36.5</ele><time>2026-04-18T15:37:11Z</time></trkpt><trkpt lat="45.06685830051929" lon="9.990699647069135"><ele>36.66666666666667</ele><time>2026-04-18T15:37:12Z</time></trkpt><trkpt lat="45.06693772038569" lon="9.990740282809254"><ele>36.833333333333336</ele><time>2026-04-18T15:37:13Z</time></trkpt><trkpt lat="45.06701860318677" lon="9.990781667060075"><ele>37.0</ele><time>2026-04-18T15:37:14Z</time></trkpt><trkpt lat="45.06710376097563" lon="9.990818603749885"><ele>37.0</ele><time>2026-04-18T15:37:15Z</time></trkpt><trkpt lat="45.067192309341245" lon="9.990840711810458"><ele>37.0</ele><time>2026-04-18T15:37:16Z</time></trkpt><trkpt lat="45.06728139690557" lon="9.990852115243031"><ele>37.0</ele><time>2026-04-18T15:37:16.999Z</time></trkpt><trkpt lat="45.06736516785652" lon="9.990835733167183"><ele>37.0</ele><time>2026-04-18T15:37:17.999Z</time></trkpt><trkpt lat="45.06745243968565" lon="9.9908545616779"><ele>37.0</ele><time>2026-04-18T15:37:18.999Z</time></trkpt><trkpt lat="45.06753855246896" lon="9.990836336793196"><ele>37.0</ele><time>2026-04-18T15:37:19.999Z</time></trkpt><trkpt lat="45.06761980465232" lon="9.990796763953643"><ele>37.0</ele><time>2026-04-18T15:37:20.999Z</time></trkpt><trkpt lat="45.06770147974944" lon="9.990786181013156"><ele>37.0</ele><time>2026-04-18T15:37:21.999Z</time></trkpt><trkpt lat="45.06778518272709" lon="9.99076568795952"><ele>37.0</ele><time>2026-04-18T15:37:22.999Z</time></trkpt><trkpt lat="45.06787073713404" lon="9.990767371413767"><ele>37.0</ele><time>2026-04-18T15:37:23.999Z</time></trkpt><trkpt lat="45.06795406460515" lon="9.990826087767793"><ele>37.0</ele><time>2026-04-18T15:37:24.999Z</time></trkpt><trkpt lat="45.06803166811657" lon="9.990883668937709"><ele>37.0</ele><time>2026-04-18T15:37:25.999Z</time></trkpt><trkpt lat="45.06810320621494" lon="9.990915141790543"><ele>37.0</ele><time>2026-04-18T15:37:26.999Z</time></trkpt><trkpt lat="45.06815740121857" lon="9.991010742450054"><ele>37.0</ele><time>2026-04-18T15:37:27.999Z</time></trkpt><trkpt lat="45.06820278704451" lon="9.991091421997462"><ele>37.0</ele><time>2026-04-18T15:37:28.999Z</time></trkpt><trkpt lat="45.06829479268427" lon="9.991168307069675"><ele>37.0</ele><time>2026-04-18T15:37:29.999Z</time></trkpt><trkpt lat="45.068371830731195" lon="9.991248154778463"><ele>37.0</ele><time>2026-04-18T15:37:30.999Z</time></trkpt><trkpt lat="45.06844601306075" lon="9.991323195902478"><ele>37.16666666666667</ele><time>2026-04-18T15:37:31.999Z</time></trkpt><trkpt lat="45.06851617377366" lon="9.991401430741794"><ele>37.333333333333336</ele><time>2026-04-18T15:37:32.999Z</time></trkpt><trkpt lat="45.06858708675727" lon="9.991481562347536"><ele>37.5</ele><time>2026-04-18T15:37:33.999Z</time></trkpt><trkpt lat="45.06865765143876" lon="9.991562765708734"><ele>37.666666666666664</ele><time>2026-04-18T15:37:34.999Z</time></trkpt><trkpt lat="45.06872698075331" lon="9.991635671995503"><ele>37.83333333333333</ele><time>2026-04-18T15:37:35.999Z</time></trkpt><trkpt lat="45.0687923542062" lon="9.9917160010319"><ele>38.0</ele><time>2026-04-18T15:37:36.999Z</time></trkpt><trkpt lat="45.06886159745743" lon="9.991794139259323"><ele>38.0</ele><time>2026-04-18T15:37:37.999Z</time></trkpt><trkpt lat="45.068933554365486" lon="9.991867047404208"><ele>38.0</ele><time>2026-04-18T15:37:38.999Z</time></trkpt><trkpt lat="45.06899904270875" lon="9.991937432908813"><ele>38.0</ele><time>2026-04-18T15:37:39.999Z</time></trkpt><trkpt lat="45.06906924726344" lon="9.992013043037787"><ele>38.0</ele><time>2026-04-18T15:37:40.999Z</time></trkpt><trkpt lat="45.06914084467936" lon="9.992089466074338"><ele>38.0</ele><time>2026-04-18T15:37:41.999Z</time></trkpt><trkpt lat="45.06921131187723" lon="9.992159912323467"><ele>38.0</ele><time>2026-04-18T15:37:42.999Z</time></trkpt><trkpt lat="45.069278831313234" lon="9.992236025971678"><ele>38.0</ele><time>2026-04-18T15:37:43.999Z</time></trkpt><trkpt lat="45.069351684141814" lon="9.992309409949605"><ele>38.0</ele><time>2026-04-18T15:37:44.999Z</time></trkpt><trkpt lat="45.069424794450434" lon="9.992383617787631"><ele>38.0</ele><time>2026-04-18T15:37:45.999Z</time></trkpt><trkpt lat="45.06949075397567" lon="9.992453351632506"><ele>38.0</ele><time>2026-04-18T15:37:46.999Z</time></trkpt><trkpt lat="45.06955927583056" lon="9.99253361520647"><ele>38.0</ele><time>2026-04-18T15:37:47.999Z</time></trkpt><trkpt lat="45.069635683994754" lon="9.992603498476974"><ele>38.0</ele><time>2026-04-18T15:37:48.999Z</time></trkpt><trkpt lat="45.069698891198406" lon="9.99267965337562"><ele>37.83333333333333</ele><time>2026-04-18T15:37:49.999Z</time></trkpt><trkpt lat="45.06977102101934" lon="9.992749509899982"><ele>37.666666666666664</ele><time>2026-04-18T15:37:50.999Z</time></trkpt><trkpt lat="45.06983841669036" lon="9.992817004729588"><ele>37.5</ele><time>2026-04-18T15:37:51.999Z</time></trkpt><trkpt lat="45.06990470914518" lon="9.99289547741571"><ele>37.333333333333336</ele><time>2026-04-18T15:37:52.999Z</time></trkpt><trkpt lat="45.06996860156272" lon="9.992973814487891"><ele>37.16666666666667</ele><time>2026-04-18T15:37:53.999Z</time></trkpt><trkpt lat="45.07003172908291" lon="9.993048936294533"><ele>37.0</ele><time>2026-04-18T15:37:54.999Z</time></trkpt><trkpt lat="45.07010581198875" lon="9.993122047508534"><ele>37.333333333333336</ele><time>2026-04-18T15:37:55.999Z</time></trkpt><trkpt lat="45.07017424206603" lon="9.9931967967595"><ele>37.66666666666667</ele><time>2026-04-18T15:37:56.999Z</time></trkpt><trkpt lat="45.07024560285866" lon="9.993266091909282"><ele>38.0</ele><time>2026-04-18T15:37:57.999Z</time></trkpt><trkpt lat="45.07031367679452" lon="9.993342799495212"><ele>38.333333333333336</ele><time>2026-04-18T15:37:58.999Z</time></trkpt><trkpt lat="45.07038170554909" lon="9.993424319172451"><ele>38.666666666666664</ele><time>2026-04-18T15:37:59.999Z</time></trkpt><trkpt lat="45.07045447498299" lon="9.993489769080334"><ele>39.0</ele><time>2026-04-18T15:38:00.999Z</time></trkpt><trkpt lat="45.07053502083558" lon="9.993535960419788"><ele>39.0</ele><time>2026-04-18T15:38:01.999Z</time></trkpt><trkpt lat="45.07061746718149" lon="9.993546678936784"><ele>39.0</ele><time>2026-04-18T15:38:02.999Z</time></trkpt><trkpt lat="45.07070403899353" lon="9.993533278912494"><ele>39.0</ele><time>2026-04-18T15:38:03.999Z</time></trkpt><trkpt lat="45.07078191593131" lon="9.993494395550883"><ele>39.0</ele><time>2026-04-18T15:38:04.999Z</time></trkpt><trkpt lat="45.07086157511955" lon="9.993458781394583"><ele>39.0</ele><time>2026-04-18T15:38:05.999Z</time></trkpt><trkpt lat="45.07094459902294" lon="9.993445873808042"><ele>39.0</ele><time>2026-04-18T15:38:06.999Z</time></trkpt><trkpt lat="45.07102042326557" lon="9.99345896976566"><ele>38.833333333333336</ele><time>2026-04-18T15:38:07.999Z</time></trkpt><trkpt lat="45.07110227500767" lon="9.993471932040915"><ele>38.666666666666664</ele><time>2026-04-18T15:38:08.999Z</time></trkpt><trkpt lat="45.07119025337357" lon="9.993486705711938"><ele>38.5</ele><time>2026-04-18T15:38:09.998Z</time></trkpt><trkpt lat="45.07127635532521" lon="9.993501744227288"><ele>38.33333333333333</ele><time>2026-04-18T15:38:10.998Z</time></trkpt><trkpt lat="45.071361699501345" lon="9.99350804118963"><ele>38.166666666666664</ele><time>2026-04-18T15:38:11.998Z</time></trkpt><trkpt lat="45.07144629067998" lon="9.993525102864261"><ele>38.0</ele><time>2026-04-18T15:38:12.998Z</time></trkpt><trkpt lat="45.07153220585019" lon="9.99354134028377"><ele>37.83333333333333</ele><time>2026-04-18T15:38:13.998Z</time></trkpt><trkpt lat="45.07161776454737" lon="9.9935569563607"><ele>37.666666666666664</ele><time>2026-04-18T15:38:14.998Z</time></trkpt><trkpt lat="45.07170238703845" lon="9.993577532877415"><ele>37.5</ele><time>2026-04-18T15:38:15.998Z</time></trkpt><trkpt lat="45.07178701074068" lon="9.993589777400452"><ele>37.333333333333336</ele><time>2026-04-18T15:38:16.998Z</time></trkpt><trkpt lat="45.071874164091774" lon="9.993591847940301"><ele>37.16666666666667</ele><time>2026-04-18T15:38:17.998Z</time></trkpt><trkpt lat="45.07196026445723" lon="9.993581444730827"><ele>37.0</ele><time>2026-04-18T15:38:18.998Z</time></trkpt><trkpt lat="45.072045337547124" lon="9.99354506714054"><ele>37.0</ele><time>2026-04-18T15:38:19.998Z</time></trkpt><trkpt lat="45.07212563380359" lon="9.993480755082865"><ele>37.0</ele><time>2026-04-18T15:38:20.998Z</time></trkpt><trkpt lat="45.0721889747923" lon="9.993390869077642"><ele>37.0</ele><time>2026-04-18T15:38:21.998Z</time></trkpt><trkpt lat="45.07224156117925" lon="9.993282860995409"><ele>37.0</ele><time>2026-04-18T15:38:22.998Z</time></trkpt><trkpt lat="45.072309168254066" lon="9.993204275429013"><ele>37.0</ele><time>2026-04-18T15:38:23.998Z</time></trkpt><trkpt lat="45.072375171039155" lon="9.99312306760161"><ele>37.0</ele><time>2026-04-18T15:38:24.998Z</time></trkpt><trkpt lat="45.07244183898501" lon="9.993049630270404"><ele>36.833333333333336</ele><time>2026-04-18T15:38:25.998Z</time></trkpt><trkpt lat="45.07252845202975" lon="9.99300669590662"><ele>36.66666666666667</ele><time>2026-04-18T15:38:26.998Z</time></trkpt><trkpt lat="45.07261696903238" lon="9.992967349833583"><ele>36.5</ele><time>2026-04-18T15:38:27.998Z</time></trkpt><trkpt lat="45.072702883852656" lon="9.992944828477416"><ele>36.333333333333336</ele><time>2026-04-18T15:38:28.998Z</time></trkpt><trkpt lat="45.072793327707885" lon="9.992941065194005"><ele>36.166666666666664</ele><time>2026-04-18T15:38:29.998Z</time></trkpt><trkpt lat="45.07287784511852" lon="9.992928880074157"><ele>36.0</ele><time>2026-04-18T15:38:30.998Z</time></trkpt><trkpt lat="45.07296507296334" lon="9.992916042033805"><ele>36.0</ele><time>2026-04-18T15:38:31.998Z</time></trkpt><trkpt lat="45.07304986953211" lon="9.99290237497387"><ele>36.0</ele><time>2026-04-18T15:38:32.998Z</time></trkpt><trkpt lat="45.07313626993186" lon="9.992885953132891"><ele>36.0</ele><time>2026-04-18T15:38:33.998Z</time></trkpt><trkpt lat="45.07321934332274" lon="9.99286624039575"><ele>36.0</ele><time>2026-04-18T15:38:34.998Z</time></trkpt><trkpt lat="45.0732951846116" lon="9.992865619515038"><ele>36.0</ele><time>2026-04-18T15:38:35.998Z</time></trkpt><trkpt lat="45.073378011265675" lon="9.992863356917914"><ele>36.0</ele><time>2026-04-18T15:38:36.998Z</time></trkpt><trkpt lat="45.07346454313339" lon="9.99286402965744"><ele>36.166666666666664</ele><time>2026-04-18T15:38:38Z</time></trkpt><trkpt lat="45.07355341464215" lon="9.992858877489047"><ele>36.333333333333336</ele><time>2026-04-18T15:38:39Z</time></trkpt><trkpt lat="45.07364195374376" lon="9.992829816445031"><ele>36.5</ele><time>2026-04-18T15:38:40Z</time></trkpt><trkpt lat="45.07372505968807" lon="9.992790429492576"><ele>36.66666666666667</ele><time>2026-04-18T15:38:41Z</time></trkpt><trkpt lat="45.073804511505635" lon="9.992745085596304"><ele>36.833333333333336</ele><time>2026-04-18T15:38:42Z</time></trkpt><trkpt lat="45.07388178043129" lon="9.992681417400446"><ele>37.0</ele><time>2026-04-18T15:38:43Z</time></trkpt><trkpt lat="45.07395922547135" lon="9.992618537800295"><ele>37.0</ele><time>2026-04-18T15:38:44Z</time></trkpt><trkpt lat="45.07403269445234" lon="9.992561542843834"><ele>37.0</ele><time>2026-04-18T15:38:45Z</time></trkpt><trkpt lat="45.074112157396776" lon="9.992504817488989"><ele>37.0</ele><time>2026-04-18T15:38:46Z</time></trkpt><trkpt lat="45.07418767531912" lon="9.992450443054402"><ele>37.0</ele><time>2026-04-18T15:38:47Z</time></trkpt><trkpt lat="45.07427105318073" lon="9.992394948318013"><ele>37.0</ele><time>2026-04-18T15:38:48Z</time></trkpt><trkpt lat="45.074350472917004" lon="9.99234321139674"><ele>37.0</ele><time>2026-04-18T15:38:49Z</time></trkpt><trkpt lat="45.074429892411125" lon="9.992282743712497"><ele>37.333333333333336</ele><time>2026-04-18T15:38:50Z</time></trkpt><trkpt lat="45.07450766057512" lon="9.992218201395175"><ele>37.66666666666667</ele><time>2026-04-18T15:38:51Z</time></trkpt><trkpt lat="45.07458444864685" lon="9.992160738933414"><ele>38.0</ele><time>2026-04-18T15:38:52Z</time></trkpt><trkpt lat="45.07466177016214" lon="9.992104445773796"><ele>38.333333333333336</ele><time>2026-04-18T15:38:53Z</time></trkpt><trkpt lat="45.074739824963146" lon="9.992045976787555"><ele>38.666666666666664</ele><time>2026-04-18T15:38:54Z</time></trkpt><trkpt lat="45.07481866029813" lon="9.991987134547271"><ele>39.0</ele><time>2026-04-18T15:38:55Z</time></trkpt><trkpt lat="45.07489546823836" lon="9.991932093396887"><ele>38.833333333333336</ele><time>2026-04-18T15:38:56Z</time></trkpt><trkpt lat="45.07497162887764" lon="9.991871804418656"><ele>38.666666666666664</ele><time>2026-04-18T15:38:57Z</time></trkpt><trkpt lat="45.07504458111189" lon="9.991813661918583"><ele>38.5</ele><time>2026-04-18T15:38:58Z</time></trkpt><trkpt lat="45.07512158560574" lon="9.991762485173673"><ele>38.33333333333333</ele><time>2026-04-18T15:38:59Z</time></trkpt><trkpt lat="45.0752027869029" lon="9.991724343539122"><ele>38.166666666666664</ele><time>2026-04-18T15:39:00Z</time></trkpt><trkpt lat="45.0752849000097" lon="9.991701863166798"><ele>38.0</ele><time>2026-04-18T15:39:01Z</time></trkpt><trkpt lat="45.075371780321795" lon="9.991711427718036"><ele>38.0</ele><time>2026-04-18T15:39:02Z</time></trkpt><trkpt lat="45.07545912373705" lon="9.991745155189296"><ele>38.0</ele><time>2026-04-18T15:39:03Z</time></trkpt><trkpt lat="45.07554286974939" lon="9.991770846708159"><ele>38.0</ele><time>2026-04-18T15:39:04Z</time></trkpt><trkpt lat="45.0756235828503" lon="9.991787254419798"><ele>38.0</ele><time>2026-04-18T15:39:05Z</time></trkpt><trkpt lat="45.07570732673602" lon="9.991789545238921"><ele>38.0</ele><time>2026-04-18T15:39:06Z</time></trkpt><trkpt lat="45.07579067120342" lon="9.991777402066162"><ele>38.0</ele><time>2026-04-18T15:39:07Z</time></trkpt><trkpt lat="45.07587487943215" lon="9.99177051261435"><ele>38.0</ele><time>2026-04-18T15:39:08Z</time></trkpt><trkpt lat="45.07595998896835" lon="9.991757579850555"><ele>38.0</ele><time>2026-04-18T15:39:09Z</time></trkpt><trkpt lat="45.07604294307315" lon="9.991749485850299"><ele>38.0</ele><time>2026-04-18T15:39:10Z</time></trkpt><trkpt lat="45.076121989853974" lon="9.991740766659797"><ele>38.0</ele><time>2026-04-18T15:39:11Z</time></trkpt><trkpt lat="45.07619498369034" lon="9.991706950741582"><ele>38.0</ele><time>2026-04-18T15:39:12Z</time></trkpt><trkpt lat="45.07624284710094" lon="9.99162738653585"><ele>38.0</ele><time>2026-04-18T15:39:13Z</time></trkpt><trkpt lat="45.076272570115904" lon="9.991533305559916"><ele>38.0</ele><time>2026-04-18T15:39:14Z</time></trkpt><trkpt lat="45.07629630967249" lon="9.99137048935281"><ele>38.0</ele><time>2026-04-18T15:39:15Z</time></trkpt><trkpt lat="45.0763067932749" lon="9.99123036435154"><ele>38.0</ele><time>2026-04-18T15:39:16Z</time></trkpt><trkpt lat="45.07632247786033" lon="9.991107764560743"><ele>38.0</ele><time>2026-04-18T15:39:17Z</time></trkpt><trkpt lat="45.07638017483729" lon="9.991019322533592"><ele>38.0</ele><time>2026-04-18T15:39:18Z</time></trkpt><trkpt lat="45.07642640200829" lon="9.99092599352772"><ele>37.83333333333333</ele><time>2026-04-18T15:39:19Z</time></trkpt><trkpt lat="45.076475399852725" lon="9.990829803027696"><ele>37.666666666666664</ele><time>2026-04-18T15:39:20Z</time></trkpt><trkpt lat="45.07652784145849" lon="9.990720801332168"><ele>37.5</ele><time>2026-04-18T15:39:20.999Z</time></trkpt><trkpt lat="45.07656739912755" lon="9.990607907297832"><ele>37.333333333333336</ele><time>2026-04-18T15:39:21.999Z</time></trkpt><trkpt lat="45.07659966500936" lon="9.99048792967584"><ele>37.16666666666667</ele><time>2026-04-18T15:39:22.999Z</time></trkpt><trkpt lat="45.07661319002405" lon="9.990362234953858"><ele>37.0</ele><time>2026-04-18T15:39:23.999Z</time></trkpt><trkpt lat="45.07663180027694" lon="9.99024572488114"><ele>37.0</ele><time>2026-04-18T15:39:24.999Z</time></trkpt><trkpt lat="45.07664229661301" lon="9.990119912255155"><ele>37.0</ele><time>2026-04-18T15:39:25.999Z</time></trkpt><trkpt lat="45.07665191122055" lon="9.98999756993343"><ele>37.0</ele><time>2026-04-18T15:39:26.999Z</time></trkpt><trkpt lat="45.07665670833945" lon="9.989878445260132"><ele>37.0</ele><time>2026-04-18T15:39:27.999Z</time></trkpt><trkpt lat="45.07666637683634" lon="9.989761326803158"><ele>37.0</ele><time>2026-04-18T15:39:28.999Z</time></trkpt><trkpt lat="45.07667365580879" lon="9.989636379985454"><ele>37.0</ele><time>2026-04-18T15:39:29.999Z</time></trkpt><trkpt lat="45.07668502261656" lon="9.989513683113481"><ele>37.0</ele><time>2026-04-18T15:39:30.999Z</time></trkpt><trkpt lat="45.07668926116574" lon="9.989396285883194"><ele>37.0</ele><time>2026-04-18T15:39:31.999Z</time></trkpt><trkpt lat="45.076695011775335" lon="9.98928004873359"><ele>37.0</ele><time>2026-04-18T15:39:32.999Z</time></trkpt><trkpt lat="45.07669962425591" lon="9.989159449397654"><ele>37.0</ele><time>2026-04-18T15:39:33.999Z</time></trkpt><trkpt lat="45.07673509903205" lon="9.989053796814057"><ele>37.0</ele><time>2026-04-18T15:39:34.999Z</time></trkpt><trkpt lat="45.07672373757172" lon="9.98893273287449"><ele>37.0</ele><time>2026-04-18T15:39:35.999Z</time></trkpt><trkpt lat="45.07677278854691" lon="9.988854661801176"><ele>36.800000000000004</ele><time>2026-04-18T15:39:36.999Z</time></trkpt><trkpt lat="45.07687388821592" lon="9.988841083667642"><ele>36.6</ele><time>2026-04-18T15:39:37.999Z</time></trkpt><trkpt lat="45.07696748406181" lon="9.988855701450806"><ele>36.400000000000006</ele><time>2026-04-18T15:39:38.999Z</time></trkpt><trkpt lat="45.07705447723614" lon="9.988965466390887"><ele>36.2</ele><time>2026-04-18T15:39:39.999Z</time></trkpt><trkpt lat="45.07713987679872" lon="9.988964394431717"><ele>36.0</ele><time>2026-04-18T15:39:40.999Z</time></trkpt><trkpt lat="45.07721955726361" lon="9.988964260491064"><ele>36.0</ele><time>2026-04-18T15:39:41.999Z</time></trkpt><trkpt lat="45.07730361389813" lon="9.988964119274424"><ele>36.0</ele><time>2026-04-18T15:39:42.999Z</time></trkpt><trkpt lat="45.077392016308984" lon="9.988963970755849"><ele>36.0</ele><time>2026-04-18T15:39:43.999Z</time></trkpt><trkpt lat="45.07747792240999" lon="9.988963826430405"><ele>36.0</ele><time>2026-04-18T15:39:44.999Z</time></trkpt><trkpt lat="45.07756162299352" lon="9.988963685811797"><ele>36.0</ele><time>2026-04-18T15:39:45.999Z</time></trkpt><trkpt lat="45.077647025689835" lon="9.988963542332431"><ele>36.0</ele><time>2026-04-18T15:39:46.999Z</time></trkpt><trkpt lat="45.07773387264848" lon="9.98896339642847"><ele>36.0</ele><time>2026-04-18T15:39:47.999Z</time></trkpt><trkpt lat="45.07781975297152" lon="9.98896325214715"><ele>36.0</ele><time>2026-04-18T15:39:48.999Z</time></trkpt><trkpt lat="45.07790469089149" lon="9.988963109449163"><ele>36.0</ele><time>2026-04-18T15:39:49.999Z</time></trkpt><trkpt lat="45.077991150792684" lon="9.988964461404366"><ele>36.0</ele><time>2026-04-18T15:39:50.999Z</time></trkpt><trkpt lat="45.07807620156216" lon="9.988963019862275"><ele>36.0</ele><time>2026-04-18T15:39:51.999Z</time></trkpt><trkpt lat="45.078161110107025" lon="9.988958947176632"><ele>36.0</ele><time>2026-04-18T15:39:52.999Z</time></trkpt><trkpt lat="45.07824984727341" lon="9.9889531893957"><ele>36.166666666666664</ele><time>2026-04-18T15:39:53.999Z</time></trkpt><trkpt lat="45.0783382138971" lon="9.988944102196402"><ele>36.333333333333336</ele><time>2026-04-18T15:39:54.999Z</time></trkpt><trkpt lat="45.07842680846286" lon="9.988930161793629"><ele>36.5</ele><time>2026-04-18T15:39:55.999Z</time></trkpt><trkpt lat="45.07851130598655" lon="9.988912716666404"><ele>36.66666666666667</ele><time>2026-04-18T15:39:56.999Z</time></trkpt><trkpt lat="45.07859769720843" lon="9.988894146944487"><ele>36.833333333333336</ele><time>2026-04-18T15:39:57.999Z</time></trkpt><trkpt lat="45.078682305309336" lon="9.988875960479506"><ele>37.0</ele><time>2026-04-18T15:39:58.999Z</time></trkpt><trkpt lat="45.07876768318789" lon="9.988858600054993"><ele>37.0</ele><time>2026-04-18T15:39:59.999Z</time></trkpt><trkpt lat="45.078848839373514" lon="9.98884530214741"><ele>37.0</ele><time>2026-04-18T15:40:00.999Z</time></trkpt><trkpt lat="45.078933374260046" lon="9.988832595641924"><ele>37.0</ele><time>2026-04-18T15:40:01.999Z</time></trkpt><trkpt lat="45.079023262479595" lon="9.9888141323549"><ele>37.0</ele><time>2026-04-18T15:40:02.999Z</time></trkpt><trkpt lat="45.07910660897605" lon="9.98879383686241"><ele>37.0</ele><time>2026-04-18T15:40:03.999Z</time></trkpt><trkpt lat="45.079192251601675" lon="9.98877166994722"><ele>37.0</ele><time>2026-04-18T15:40:04.999Z</time></trkpt><trkpt lat="45.079275732775535" lon="9.988748947320268"><ele>37.16666666666667</ele><time>2026-04-18T15:40:05.999Z</time></trkpt><trkpt lat="45.07936069393471" lon="9.988721711248393"><ele>37.333333333333336</ele><time>2026-04-18T15:40:06.999Z</time></trkpt><trkpt lat="45.07944282199008" lon="9.988691571460874"><ele>37.5</ele><time>2026-04-18T15:40:07.999Z</time></trkpt><trkpt lat="45.07952428780901" lon="9.988659902256769"><ele>37.666666666666664</ele><time>2026-04-18T15:40:08.999Z</time></trkpt><trkpt lat="45.07960668429529" lon="9.98862554947519"><ele>37.83333333333333</ele><time>2026-04-18T15:40:09.999Z</time></trkpt><trkpt lat="45.079688981132776" lon="9.98859117806304"><ele>38.0</ele><time>2026-04-18T15:40:10.999Z</time></trkpt><trkpt lat="45.07976861375892" lon="9.988557919355294"><ele>38.0</ele><time>2026-04-18T15:40:11.999Z</time></trkpt><trkpt lat="45.079850717462165" lon="9.988523065232371"><ele>38.0</ele><time>2026-04-18T15:40:12.999Z</time></trkpt><trkpt lat="45.079916455849215" lon="9.988433217637578"><ele>38.0</ele><time>2026-04-18T15:40:13.999Z</time></trkpt><trkpt lat="45.079999939824425" lon="9.988395974050604"><ele>38.0</ele><time>2026-04-18T15:40:14.998Z</time></trkpt><trkpt lat="45.08008349104731" lon="9.988360934144465"><ele>38.0</ele><time>2026-04-18T15:40:15.998Z</time></trkpt><trkpt lat="45.080164507383564" lon="9.98833041832937"><ele>38.0</ele><time>2026-04-18T15:40:16.998Z</time></trkpt><trkpt lat="45.08024752899832" lon="9.988293872014026"><ele>38.0</ele><time>2026-04-18T15:40:17.998Z</time></trkpt><trkpt lat="45.08032611408633" lon="9.98826456400475"><ele>38.0</ele><time>2026-04-18T15:40:18.998Z</time></trkpt><trkpt lat="45.08042047972909" lon="9.988287176279435"><ele>38.0</ele><time>2026-04-18T15:40:19.998Z</time></trkpt><trkpt lat="45.08049676480126" lon="9.988212435689551"><ele>38.0</ele><time>2026-04-18T15:40:20.998Z</time></trkpt><trkpt lat="45.08058263226282" lon="9.988214573958537"><ele>38.0</ele><time>2026-04-18T15:40:21.998Z</time></trkpt><trkpt lat="45.08066814347706" lon="9.988220014587236"><ele>38.0</ele><time>2026-04-18T15:40:22.998Z</time></trkpt><trkpt lat="45.08074973844541" lon="9.988240847829632"><ele>37.6</ele><time>2026-04-18T15:40:23.998Z</time></trkpt><trkpt lat="45.08082939499233" lon="9.988289378720118"><ele>37.199999999999996</ele><time>2026-04-18T15:40:24.998Z</time></trkpt><trkpt lat="45.08089952407812" lon="9.988365933392378"><ele>36.8</ele><time>2026-04-18T15:40:25.998Z</time></trkpt><trkpt lat="45.080978714010385" lon="9.988391208700488"><ele>36.4</ele><time>2026-04-18T15:40:26.998Z</time></trkpt><trkpt lat="45.081052839501154" lon="9.988380824570468"><ele>36.0</ele><time>2026-04-18T15:40:27.998Z</time></trkpt><trkpt lat="45.08113182847509" lon="9.988204231250236"><ele>36.0</ele><time>2026-04-18T15:40:28.998Z</time></trkpt><trkpt lat="45.08115230015068" lon="9.988052056424273"><ele>36.0</ele><time>2026-04-18T15:40:29.998Z</time></trkpt><trkpt lat="45.08120436904838" lon="9.98795681443581"><ele>36.0</ele><time>2026-04-18T15:40:30.998Z</time></trkpt><trkpt lat="45.08127036150454" lon="9.987880059724398"><ele>36.0</ele><time>2026-04-18T15:40:31.998Z</time></trkpt><trkpt lat="45.08137025621678" lon="9.98789169044184"><ele>36.0</ele><time>2026-04-18T15:40:32.998Z</time></trkpt><trkpt lat="45.081449932250386" lon="9.987863673311798"><ele>36.0</ele><time>2026-04-18T15:40:33.998Z</time></trkpt><trkpt lat="45.08153208374682" lon="9.987829545142043"><ele>36.0</ele><time>2026-04-18T15:40:34.998Z</time></trkpt><trkpt lat="45.08161417671777" lon="9.987795441391414"><ele>36.0</ele><time>2026-04-18T15:40:35.998Z</time></trkpt><trkpt lat="45.08169639820718" lon="9.987761287736307"><ele>36.0</ele><time>2026-04-18T15:40:36.998Z</time></trkpt><trkpt lat="45.08178167131628" lon="9.98772612758575"><ele>36.0</ele><time>2026-04-18T15:40:37.998Z</time></trkpt><trkpt lat="45.081865381663775" lon="9.98769161177795"><ele>36.0</ele><time>2026-04-18T15:40:38.998Z</time></trkpt><trkpt lat="45.081949736051236" lon="9.987656830370893"><ele>36.166666666666664</ele><time>2026-04-18T15:40:39.998Z</time></trkpt><trkpt lat="45.08203091508814" lon="9.987623358315146"><ele>36.333333333333336</ele><time>2026-04-18T15:40:40.998Z</time></trkpt><trkpt lat="45.08211569582027" lon="9.987588401161071"><ele>36.5</ele><time>2026-04-18T15:40:41.998Z</time></trkpt><trkpt lat="45.08219804303379" lon="9.987554447391696"><ele>36.66666666666667</ele><time>2026-04-18T15:40:42.998Z</time></trkpt><trkpt lat="45.08228169606912" lon="9.987519955241336"><ele>36.833333333333336</ele><time>2026-04-18T15:40:44Z</time></trkpt><trkpt lat="45.082366837207154" lon="9.98748484949018"><ele>37.0</ele><time>2026-04-18T15:40:45Z</time></trkpt><trkpt lat="45.0824508674895" lon="9.987450201021716"><ele>36.66666666666667</ele><time>2026-04-18T15:40:46Z</time></trkpt><trkpt lat="45.08253400022803" lon="9.987415406428765"><ele>36.333333333333336</ele><time>2026-04-18T15:40:47Z</time></trkpt><trkpt lat="45.08261757888578" lon="9.987380563118283"><ele>36.0</ele><time>2026-04-18T15:40:48Z</time></trkpt><trkpt lat="45.082704751549855" lon="9.987344221422166"><ele>35.666666666666664</ele><time>2026-04-18T15:40:49Z</time></trkpt><trkpt lat="45.082787993404565" lon="9.987308910192562"><ele>35.33333333333333</ele><time>2026-04-18T15:40:50Z</time></trkpt><trkpt lat="45.08287228766773" lon="9.987272331708827"><ele>35.0</ele><time>2026-04-18T15:40:51Z</time></trkpt><trkpt lat="45.08295380733188" lon="9.987235133196108"><ele>35.0</ele><time>2026-04-18T15:40:52Z</time></trkpt><trkpt lat="45.08304081539625" lon="9.987191216419612"><ele>35.0</ele><time>2026-04-18T15:40:53Z</time></trkpt><trkpt lat="45.08312467347917" lon="9.987141720384473"><ele>35.0</ele><time>2026-04-18T15:40:54Z</time></trkpt><trkpt lat="45.08320318020421" lon="9.987086894441873"><ele>35.0</ele><time>2026-04-18T15:40:55Z</time></trkpt><trkpt lat="45.08328108836964" lon="9.987031025113252"><ele>35.0</ele><time>2026-04-18T15:40:56Z</time></trkpt><trkpt lat="45.08336146842968" lon="9.986973352106281"><ele>35.0</ele><time>2026-04-18T15:40:57Z</time></trkpt><trkpt lat="45.08344245275101" lon="9.986915245606985"><ele>35.33333333333333</ele><time>2026-04-18T15:40:58Z</time></trkpt><trkpt lat="45.083526957162725" lon="9.986854713843776"><ele>35.666666666666664</ele><time>2026-04-18T15:40:59Z</time></trkpt><trkpt lat="45.083611678682466" lon="9.986794156699526"><ele>36.0</ele><time>2026-04-18T15:41:00Z</time></trkpt><trkpt lat="45.083679648038526" lon="9.9867463387783"><ele>36.333333333333336</ele><time>2026-04-18T15:41:01Z</time></trkpt><trkpt lat="45.08377197113587" lon="9.986685082531253"><ele>36.66666666666667</ele><time>2026-04-18T15:41:02Z</time></trkpt><trkpt lat="45.08384694953099" lon="9.986639663095346"><ele>37.0</ele><time>2026-04-18T15:41:03Z</time></trkpt><trkpt lat="45.083921242723505" lon="9.986601959299238"><ele>37.333333333333336</ele><time>2026-04-18T15:41:04Z</time></trkpt><trkpt lat="45.08401148519881" lon="9.986565659276874"><ele>37.66666666666667</ele><time>2026-04-18T15:41:05Z</time></trkpt><trkpt lat="45.08409166673835" lon="9.986540660325058"><ele>38.0</ele><time>2026-04-18T15:41:06Z</time></trkpt><trkpt lat="45.08417908967472" lon="9.986522437316207"><ele>38.333333333333336</ele><time>2026-04-18T15:41:07Z</time></trkpt><trkpt lat="45.08426543053857" lon="9.986510143333975"><ele>38.666666666666664</ele><time>2026-04-18T15:41:08Z</time></trkpt><trkpt lat="45.08435396000973" lon="9.986502967358726"><ele>39.0</ele><time>2026-04-18T15:41:09Z</time></trkpt><trkpt lat="45.0844404327331" lon="9.986504099128284"><ele>38.333333333333336</ele><time>2026-04-18T15:41:10Z</time></trkpt><trkpt lat="45.08452419690224" lon="9.986514706410057"><ele>37.666666666666664</ele><time>2026-04-18T15:41:11Z</time></trkpt><trkpt lat="45.08460528960718" lon="9.98653393822348"><ele>37.0</ele><time>2026-04-18T15:41:12Z</time></trkpt><trkpt lat="45.08468808171621" lon="9.986559724291137"><ele>36.33333333333333</ele><time>2026-04-18T15:41:13Z</time></trkpt><trkpt lat="45.08477024888678" lon="9.98659215411728"><ele>35.666666666666664</ele><time>2026-04-18T15:41:14Z</time></trkpt><trkpt lat="45.08484910752534" lon="9.986629708634402"><ele>35.0</ele><time>2026-04-18T15:41:15Z</time></trkpt><trkpt lat="45.08493005084417" lon="9.98667522061724"><ele>35.0</ele><time>2026-04-18T15:41:16Z</time></trkpt><trkpt lat="45.08500810636002" lon="9.986728248584413"><ele>35.0</ele><time>2026-04-18T15:41:17Z</time></trkpt><trkpt lat="45.085081292847555" lon="9.98678423541502"><ele>35.0</ele><time>2026-04-18T15:41:18Z</time></trkpt><trkpt lat="45.085151473067" lon="9.986846470945027"><ele>35.0</ele><time>2026-04-18T15:41:19Z</time></trkpt><trkpt lat="45.08522109180148" lon="9.986919178807812"><ele>35.0</ele><time>2026-04-18T15:41:20Z</time></trkpt><trkpt lat="45.08528930419008" lon="9.986995808302263"><ele>35.0</ele><time>2026-04-18T15:41:21Z</time></trkpt><trkpt lat="45.08535651868283" lon="9.987076368737753"><ele>35.0</ele><time>2026-04-18T15:41:22Z</time></trkpt><trkpt lat="45.08542150287576" lon="9.987154740977246"><ele>35.0</ele><time>2026-04-18T15:41:23Z</time></trkpt><trkpt lat="45.08548750340779" lon="9.98723481297254"><ele>35.0</ele><time>2026-04-18T15:41:24Z</time></trkpt><trkpt lat="45.08555608036701" lon="9.987318010862849"><ele>35.0</ele><time>2026-04-18T15:41:25Z</time></trkpt><trkpt lat="45.08562315721982" lon="9.987399838516327"><ele>35.0</ele><time>2026-04-18T15:41:25.999Z</time></trkpt><trkpt lat="45.08569054548331" lon="9.987482592967504"><ele>35.0</ele><time>2026-04-18T15:41:26.999Z</time></trkpt><trkpt lat="45.08575618760811" lon="9.987563203176956"><ele>35.0</ele><time>2026-04-18T15:41:27.999Z</time></trkpt><trkpt lat="45.085822344864525" lon="9.987644445950925"><ele>35.0</ele><time>2026-04-18T15:41:28.999Z</time></trkpt><trkpt lat="45.08588825887942" lon="9.987725390121636"><ele>35.0</ele><time>2026-04-18T15:41:29.999Z</time></trkpt><trkpt lat="45.08595456384205" lon="9.98780678134467"><ele>35.0</ele><time>2026-04-18T15:41:30.999Z</time></trkpt><trkpt lat="45.086021411305566" lon="9.987888483791027"><ele>35.0</ele><time>2026-04-18T15:41:31.999Z</time></trkpt><trkpt lat="45.08608748908465" lon="9.987969245686234"><ele>35.0</ele><time>2026-04-18T15:41:32.999Z</time></trkpt><trkpt lat="45.08615380384441" lon="9.988050296909906"><ele>35.0</ele><time>2026-04-18T15:41:33.999Z</time></trkpt><trkpt lat="45.086219736935085" lon="9.98813088335241"><ele>35.0</ele><time>2026-04-18T15:41:34.999Z</time></trkpt><trkpt lat="45.08628662457818" lon="9.988212634854687"><ele>35.0</ele><time>2026-04-18T15:41:35.999Z</time></trkpt><trkpt lat="45.08635318869673" lon="9.98829399116017"><ele>35.0</ele><time>2026-04-18T15:41:36.999Z</time></trkpt><trkpt lat="45.08641749400686" lon="9.98837258645179"><ele>35.0</ele><time>2026-04-18T15:41:37.999Z</time></trkpt><trkpt lat="45.08648263655398" lon="9.988452205175635"><ele>35.0</ele><time>2026-04-18T15:41:38.999Z</time></trkpt><trkpt lat="45.086548038000764" lon="9.98853214037736"><ele>35.166666666666664</ele><time>2026-04-18T15:41:39.999Z</time></trkpt><trkpt lat="45.086611942015" lon="9.988610245180531"><ele>35.33333333333333</ele><time>2026-04-18T15:41:40.999Z</time></trkpt><trkpt lat="45.08667666576342" lon="9.98868861701121"><ele>35.5</ele><time>2026-04-18T15:41:41.999Z</time></trkpt><trkpt lat="45.086742176321785" lon="9.988767844290326"><ele>35.666666666666664</ele><time>2026-04-18T15:41:42.999Z</time></trkpt><trkpt lat="45.08680701026414" lon="9.988846252974048"><ele>35.833333333333336</ele><time>2026-04-18T15:41:43.999Z</time></trkpt><trkpt lat="45.08687110625218" lon="9.988923769907482"><ele>36.0</ele><time>2026-04-18T15:41:44.999Z</time></trkpt><trkpt lat="45.08693638513656" lon="9.989002716891731"><ele>36.0</ele><time>2026-04-18T15:41:45.999Z</time></trkpt><trkpt lat="45.086999471464665" lon="9.989079012397939"><ele>36.0</ele><time>2026-04-18T15:41:46.999Z</time></trkpt><trkpt lat="45.087063218424824" lon="9.989156106817871"><ele>36.0</ele><time>2026-04-18T15:41:47.999Z</time></trkpt><trkpt lat="45.08712980449838" lon="9.989236634837964"><ele>36.0</ele><time>2026-04-18T15:41:48.999Z</time></trkpt><trkpt lat="45.087193235123344" lon="9.989313346815507"><ele>36.0</ele><time>2026-04-18T15:41:49.999Z</time></trkpt><trkpt lat="45.087255975987865" lon="9.989389224470326"><ele>36.0</ele><time>2026-04-18T15:41:50.999Z</time></trkpt><trkpt lat="45.087321827855035" lon="9.989468864685344"><ele>36.0</ele><time>2026-04-18T15:41:51.999Z</time></trkpt><trkpt lat="45.08738564802785" lon="9.989546047402689"><ele>36.0</ele><time>2026-04-18T15:41:52.999Z</time></trkpt><trkpt lat="45.087449400848286" lon="9.989623148817088"><ele>36.0</ele><time>2026-04-18T15:41:53.999Z</time></trkpt><trkpt lat="45.08751235218219" lon="9.989699280965276"><ele>36.0</ele><time>2026-04-18T15:41:54.999Z</time></trkpt><trkpt lat="45.08757612429565" lon="9.989776405903832"><ele>36.0</ele><time>2026-04-18T15:41:55.999Z</time></trkpt><trkpt lat="45.08764356222978" lon="9.989857964079965"><ele>36.0</ele><time>2026-04-18T15:41:56.999Z</time></trkpt><trkpt lat="45.08771066424184" lon="9.989939116085418"><ele>35.8</ele><time>2026-04-18T15:41:57.999Z</time></trkpt><trkpt lat="45.087774986867586" lon="9.990016906765694"><ele>35.6</ele><time>2026-04-18T15:41:58.999Z</time></trkpt><trkpt lat="45.0878417505293" lon="9.99009764950662"><ele>35.4</ele><time>2026-04-18T15:41:59.999Z</time></trkpt><trkpt lat="45.087934550587455" lon="9.990209880364047"><ele>35.2</ele><time>2026-04-18T15:42:00.999Z</time></trkpt><trkpt lat="45.088010145510324" lon="9.990274275772698"><ele>35.0</ele><time>2026-04-18T15:42:01.999Z</time></trkpt><trkpt lat="45.08806972797829" lon="9.990359953068605"><ele>35.0</ele><time>2026-04-18T15:42:02.999Z</time></trkpt><trkpt lat="45.0881344339619" lon="9.990437772909063"><ele>35.0</ele><time>2026-04-18T15:42:03.999Z</time></trkpt><trkpt lat="45.08819234080159" lon="9.990524368887726"><ele>35.0</ele><time>2026-04-18T15:42:04.999Z</time></trkpt><trkpt lat="45.088258989948244" lon="9.990583156993837"><ele>35.0</ele><time>2026-04-18T15:42:05.999Z</time></trkpt><trkpt lat="45.088314794027134" lon="9.990656727950494"><ele>35.0</ele><time>2026-04-18T15:42:06.999Z</time></trkpt><trkpt lat="45.08836774957132" lon="9.990736059099861"><ele>35.0</ele><time>2026-04-18T15:42:07.999Z</time></trkpt><trkpt lat="45.08843399773136" lon="9.99079862444184"><ele>35.5</ele><time>2026-04-18T15:42:08.999Z</time></trkpt><trkpt lat="45.0884940329509" lon="9.990873353653143"><ele>36.0</ele><time>2026-04-18T15:42:09.999Z</time></trkpt><trkpt lat="45.088555825993396" lon="9.990944860492485"><ele>36.5</ele><time>2026-04-18T15:42:10.999Z</time></trkpt><trkpt lat="45.088617725826154" lon="9.991010133763126"><ele>37.0</ele><time>2026-04-18T15:42:11.999Z</time></trkpt><trkpt lat="45.088679966708334" lon="9.99107164584781"><ele>37.5</ele><time>2026-04-18T15:42:12.999Z</time></trkpt><trkpt lat="45.08874312250502" lon="9.991128296234427"><ele>38.0</ele><time>2026-04-18T15:42:13.999Z</time></trkpt><trkpt lat="45.08881543787489" lon="9.991159927508539"><ele>38.0</ele><time>2026-04-18T15:42:14.999Z</time></trkpt><trkpt lat="45.08888577501176" lon="9.991211163259505"><ele>38.0</ele><time>2026-04-18T15:42:15.999Z</time></trkpt><trkpt lat="45.08895769704002" lon="9.991244628518483"><ele>38.0</ele><time>2026-04-18T15:42:16.999Z</time></trkpt><trkpt lat="45.08902755238121" lon="9.991276632303016"><ele>38.0</ele><time>2026-04-18T15:42:17.999Z</time></trkpt><trkpt lat="45.08910207733388" lon="9.99130944508815"><ele>38.0</ele><time>2026-04-18T15:42:18.998Z</time></trkpt><trkpt lat="45.089181793107755" lon="9.991320441679717"><ele>38.0</ele><time>2026-04-18T15:42:19.998Z</time></trkpt><trkpt lat="45.08926152702461" lon="9.99135851034597"><ele>38.0</ele><time>2026-04-18T15:42:20.998Z</time></trkpt><trkpt lat="45.089338083012656" lon="9.991391453527699"><ele>38.0</ele><time>2026-04-18T15:42:21.998Z</time></trkpt><trkpt lat="45.089417428643884" lon="9.991425988336434"><ele>38.0</ele><time>2026-04-18T15:42:22.998Z</time></trkpt><trkpt lat="45.08955149189049" lon="9.991400980667406"><ele>38.0</ele><time>2026-04-18T15:42:23.998Z</time></trkpt><trkpt lat="45.08962940199312" lon="9.991429028398393"><ele>38.0</ele><time>2026-04-18T15:42:24.998Z</time></trkpt><trkpt lat="45.089700163558156" lon="9.991449185025118"><ele>38.0</ele><time>2026-04-18T15:42:25.998Z</time></trkpt><trkpt lat="45.08976942480397" lon="9.991496800365379"><ele>38.0</ele><time>2026-04-18T15:42:26.998Z</time></trkpt><trkpt lat="45.08984110386749" lon="9.991520596342232"><ele>38.0</ele><time>2026-04-18T15:42:27.998Z</time></trkpt><trkpt lat="45.089908188316905" lon="9.991542867009757"><ele>38.0</ele><time>2026-04-18T15:42:28.998Z</time></trkpt><trkpt lat="45.089977572624974" lon="9.9915659011426"><ele>38.0</ele><time>2026-04-18T15:42:29.998Z</time></trkpt><trkpt lat="45.090046973616595" lon="9.991600471188805"><ele>38.0</ele><time>2026-04-18T15:42:30.998Z</time></trkpt><trkpt lat="45.090098461246654" lon="9.991681442326165"><ele>38.0</ele><time>2026-04-18T15:42:31.998Z</time></trkpt><trkpt lat="45.09014572830975" lon="9.991760145522166"><ele>38.166666666666664</ele><time>2026-04-18T15:42:32.998Z</time></trkpt><trkpt lat="45.09021177867278" lon="9.99181647076761"><ele>38.33333333333333</ele><time>2026-04-18T15:42:33.998Z</time></trkpt><trkpt lat="45.09027876150953" lon="9.991880928864113"><ele>38.5</ele><time>2026-04-18T15:42:34.998Z</time></trkpt><trkpt lat="45.09037188244762" lon="9.99179930502603"><ele>38.666666666666664</ele><time>2026-04-18T15:42:35.998Z</time></trkpt><trkpt lat="45.090447232399626" lon="9.991740535979837"><ele>38.833333333333336</ele><time>2026-04-18T15:42:36.998Z</time></trkpt><trkpt lat="45.09051661696302" lon="9.991696272000132"><ele>39.0</ele><time>2026-04-18T15:42:37.998Z</time></trkpt><trkpt lat="45.09059324200501" lon="9.991658368079548"><ele>39.0</ele><time>2026-04-18T15:42:38.998Z</time></trkpt><trkpt lat="45.09067248591033" lon="9.991667903906485"><ele>39.0</ele><time>2026-04-18T15:42:39.998Z</time></trkpt><trkpt lat="45.09075503201852" lon="9.991681469110658"><ele>39.0</ele><time>2026-04-18T15:42:40.998Z</time></trkpt><trkpt lat="45.09083182355646" lon="9.991700372611435"><ele>39.0</ele><time>2026-04-18T15:42:41.998Z</time></trkpt><trkpt lat="45.09091025847175" lon="9.991720355099247"><ele>39.0</ele><time>2026-04-18T15:42:42.998Z</time></trkpt><trkpt lat="45.09099038911829" lon="9.991729045585874"><ele>39.0</ele><time>2026-04-18T15:42:43.998Z</time></trkpt><trkpt lat="45.09106854659796" lon="9.991745811095583"><ele>38.666666666666664</ele><time>2026-04-18T15:42:44.998Z</time></trkpt><trkpt lat="45.09115122684498" lon="9.991758680640691"><ele>38.333333333333336</ele><time>2026-04-18T15:42:45.998Z</time></trkpt><trkpt lat="45.09123220960483" lon="9.99177737148613"><ele>38.0</ele><time>2026-04-18T15:42:46.998Z</time></trkpt><trkpt lat="45.09131471052713" lon="9.99180433664929"><ele>37.66666666666667</ele><time>2026-04-18T15:42:47.998Z</time></trkpt><trkpt lat="45.0913974707612" lon="9.991827879954515"><ele>37.333333333333336</ele><time>2026-04-18T15:42:49Z</time></trkpt><trkpt lat="45.09147693569711" lon="9.991846852758261"><ele>37.0</ele><time>2026-04-18T15:42:50Z</time></trkpt><trkpt lat="45.091560058050234" lon="9.991863889634416"><ele>37.16666666666667</ele><time>2026-04-18T15:42:51Z</time></trkpt><trkpt lat="45.09163985324288" lon="9.991888437342222"><ele>37.333333333333336</ele><time>2026-04-18T15:42:52Z</time></trkpt><trkpt lat="45.09172297981845" lon="9.99190437914467"><ele>37.5</ele><time>2026-04-18T15:42:53Z</time></trkpt><trkpt lat="45.091806599617954" lon="9.991925140347595"><ele>37.666666666666664</ele><time>2026-04-18T15:42:54Z</time></trkpt><trkpt lat="45.091889262308406" lon="9.991944694426946"><ele>37.83333333333333</ele><time>2026-04-18T15:42:55Z</time></trkpt><trkpt lat="45.09197380692865" lon="9.991964329430218"><ele>38.0</ele><time>2026-04-18T15:42:56Z</time></trkpt><trkpt lat="45.092059210754314" lon="9.991982557148807"><ele>38.0</ele><time>2026-04-18T15:42:57Z</time></trkpt><trkpt lat="45.092141573464325" lon="9.991995341366152"><ele>38.0</ele><time>2026-04-18T15:42:58Z</time></trkpt><trkpt lat="45.09222753809104" lon="9.992006917616786"><ele>38.0</ele><time>2026-04-18T15:42:59Z</time></trkpt><trkpt lat="45.092311971226174" lon="9.992015091397457"><ele>38.0</ele><time>2026-04-18T15:43:00Z</time></trkpt><trkpt lat="45.092395332041775" lon="9.992010628332542"><ele>38.0</ele><time>2026-04-18T15:43:01Z</time></trkpt><trkpt lat="45.092480472198005" lon="9.992005401165477"><ele>38.0</ele><time>2026-04-18T15:43:02Z</time></trkpt><trkpt lat="45.09256819972375" lon="9.991996048507547"><ele>37.83333333333333</ele><time>2026-04-18T15:43:03Z</time></trkpt><trkpt lat="45.09265282675593" lon="9.991982158086703"><ele>37.666666666666664</ele><time>2026-04-18T15:43:04Z</time></trkpt><trkpt lat="45.09273835054468" lon="9.991961027740713"><ele>37.5</ele><time>2026-04-18T15:43:05Z</time></trkpt><trkpt lat="45.09282219821393" lon="9.991938508128806"><ele>37.333333333333336</ele><time>2026-04-18T15:43:06Z</time></trkpt><trkpt lat="45.09290517017472" lon="9.99191179999088"><ele>37.16666666666667</ele><time>2026-04-18T15:43:07Z</time></trkpt><trkpt lat="45.092988802543154" lon="9.991878338537745"><ele>37.0</ele><time>2026-04-18T15:43:08Z</time></trkpt><trkpt lat="45.09306997519704" lon="9.991845608598833"><ele>37.0</ele><time>2026-04-18T15:43:09Z</time></trkpt><trkpt lat="45.09315160509195" lon="9.99180240955594"><ele>37.0</ele><time>2026-04-18T15:43:10Z</time></trkpt><trkpt lat="45.09323121812001" lon="9.991765586693225"><ele>37.0</ele><time>2026-04-18T15:43:11Z</time></trkpt><trkpt lat="45.093311202859994" lon="9.991706654155267"><ele>37.0</ele><time>2026-04-18T15:43:12Z</time></trkpt><trkpt lat="45.09338871771342" lon="9.991655292940756"><ele>37.0</ele><time>2026-04-18T15:43:13Z</time></trkpt><trkpt lat="45.09346429509003" lon="9.99159932735931"><ele>37.0</ele><time>2026-04-18T15:43:14Z</time></trkpt><trkpt lat="45.093538969087774" lon="9.991543016758088"><ele>37.16666666666667</ele><time>2026-04-18T15:43:15Z</time></trkpt><trkpt lat="45.093614288772464" lon="9.99147643688398"><ele>37.333333333333336</ele><time>2026-04-18T15:43:16Z</time></trkpt><trkpt lat="45.093685665856626" lon="9.991413396915712"><ele>37.5</ele><time>2026-04-18T15:43:17Z</time></trkpt><trkpt lat="45.093761230889335" lon="9.991354113273099"><ele>37.666666666666664</ele><time>2026-04-18T15:43:18Z</time></trkpt><trkpt lat="45.09383251776706" lon="9.99128112790362"><ele>37.83333333333333</ele><time>2026-04-18T15:43:19Z</time></trkpt><trkpt lat="45.09390480894" lon="9.99121969959207"><ele>38.0</ele><time>2026-04-18T15:43:20Z</time></trkpt><trkpt lat="45.093981549294334" lon="9.99116088583667"><ele>38.0</ele><time>2026-04-18T15:43:21Z</time></trkpt><trkpt lat="45.09405344007477" lon="9.99109601497409"><ele>38.0</ele><time>2026-04-18T15:43:22Z</time></trkpt><trkpt lat="45.09412935889599" lon="9.991032095884437"><ele>38.0</ele><time>2026-04-18T15:43:23Z</time></trkpt><trkpt lat="45.09420588410252" lon="9.990971373457908"><ele>38.0</ele><time>2026-04-18T15:43:24Z</time></trkpt><trkpt lat="45.094281648094515" lon="9.99091617745971"><ele>38.0</ele><time>2026-04-18T15:43:25Z</time></trkpt><trkpt lat="45.09436321397961" lon="9.990872224968596"><ele>38.0</ele><time>2026-04-18T15:43:26Z</time></trkpt><trkpt lat="45.09444727164454" lon="9.990844699686"><ele>37.666666666666664</ele><time>2026-04-18T15:43:27Z</time></trkpt><trkpt lat="45.094531897208945" lon="9.990825636065008"><ele>37.33333333333333</ele><time>2026-04-18T15:43:28Z</time></trkpt><trkpt lat="45.094615756281414" lon="9.990817084401863"><ele>37.0</ele><time>2026-04-18T15:43:29Z</time></trkpt><trkpt lat="45.094699872022716" lon="9.990815643188421"><ele>36.666666666666664</ele><time>2026-04-18T15:43:29.999Z</time></trkpt><trkpt lat="45.09478545019413" lon="9.990808542967523"><ele>36.333333333333336</ele><time>2026-04-18T15:43:30.999Z</time></trkpt><trkpt lat="45.09486786546646" lon="9.990799395055605"><ele>36.0</ele><time>2026-04-18T15:43:31.999Z</time></trkpt><trkpt lat="45.0949465982899" lon="9.990791230599992"><ele>36.666666666666664</ele><time>2026-04-18T15:43:32.999Z</time></trkpt><trkpt lat="45.09502415931815" lon="9.990776205808132"><ele>37.333333333333336</ele><time>2026-04-18T15:43:33.999Z</time></trkpt><trkpt lat="45.09509939386695" lon="9.990746018856402"><ele>38.0</ele><time>2026-04-18T15:43:34.999Z</time></trkpt><trkpt lat="45.09516879400036" lon="9.990717115763532"><ele>38.66666666666667</ele><time>2026-04-18T15:43:35.999Z</time></trkpt><trkpt lat="45.09523881184671" lon="9.99068802529595"><ele>39.333333333333336</ele><time>2026-04-18T15:43:36.999Z</time></trkpt><trkpt lat="45.095310753918724" lon="9.990660805353807"><ele>40.0</ele><time>2026-04-18T15:43:37.999Z</time></trkpt><trkpt lat="45.09538552772149" lon="9.990636110813188"><ele>40.0</ele><time>2026-04-18T15:43:38.999Z</time></trkpt><trkpt lat="45.09546068767148" lon="9.99061002711028"><ele>40.0</ele><time>2026-04-18T15:43:39.999Z</time></trkpt><trkpt lat="45.09553672553311" lon="9.990578386876653"><ele>40.0</ele><time>2026-04-18T15:43:40.999Z</time></trkpt><trkpt lat="45.09561740868241" lon="9.990557545404764"><ele>40.0</ele><time>2026-04-18T15:43:41.999Z</time></trkpt><trkpt lat="45.09569692969293" lon="9.990530449780081"><ele>40.0</ele><time>2026-04-18T15:43:42.999Z</time></trkpt><trkpt lat="45.095774955043844" lon="9.99050373566158"><ele>40.0</ele><time>2026-04-18T15:43:43.999Z</time></trkpt><trkpt lat="45.09585362606147" lon="9.99047713907701"><ele>39.833333333333336</ele><time>2026-04-18T15:43:44.999Z</time></trkpt><trkpt lat="45.09593892956655" lon="9.990453224517111"><ele>39.66666666666667</ele><time>2026-04-18T15:43:45.999Z</time></trkpt><trkpt lat="45.09601795723978" lon="9.990423423252013"><ele>39.5</ele><time>2026-04-18T15:43:46.999Z</time></trkpt><trkpt lat="45.09610036887829" lon="9.990406081373859"><ele>39.333333333333336</ele><time>2026-04-18T15:43:47.999Z</time></trkpt><trkpt lat="45.096184682957485" lon="9.990415798843594"><ele>39.166666666666664</ele><time>2026-04-18T15:43:48.999Z</time></trkpt><trkpt lat="45.096267991080204" lon="9.990407648972841"><ele>39.0</ele><time>2026-04-18T15:43:49.999Z</time></trkpt><trkpt lat="45.09634901547919" lon="9.99037706217532"><ele>39.0</ele><time>2026-04-18T15:43:50.999Z</time></trkpt><trkpt lat="45.09643207868507" lon="9.990376989018218"><ele>39.0</ele><time>2026-04-18T15:43:51.999Z</time></trkpt><trkpt lat="45.09652122534687" lon="9.990358781329057"><ele>39.0</ele><time>2026-04-18T15:43:52.999Z</time></trkpt><trkpt lat="45.09660736817487" lon="9.990329702328772"><ele>39.0</ele><time>2026-04-18T15:43:53.999Z</time></trkpt><trkpt lat="45.0966913054264" lon="9.990303790572197"><ele>39.0</ele><time>2026-04-18T15:43:54.999Z</time></trkpt><trkpt lat="45.09677731682671" lon="9.990282927359198"><ele>39.0</ele><time>2026-04-18T15:43:55.999Z</time></trkpt><trkpt lat="45.09685913538767" lon="9.990255344323757"><ele>38.666666666666664</ele><time>2026-04-18T15:43:56.999Z</time></trkpt><trkpt lat="45.096943169698044" lon="9.9902251041416"><ele>38.333333333333336</ele><time>2026-04-18T15:43:57.999Z</time></trkpt><trkpt lat="45.097027948164985" lon="9.990201955208176"><ele>38.0</ele><time>2026-04-18T15:43:58.999Z</time></trkpt><trkpt lat="45.09711176954371" lon="9.990174542255266"><ele>37.66666666666667</ele><time>2026-04-18T15:43:59.999Z</time></trkpt><trkpt lat="45.097194597287206" lon="9.990147334918845"><ele>37.333333333333336</ele><time>2026-04-18T15:44:00.999Z</time></trkpt><trkpt lat="45.09727647383436" lon="9.990113720651213"><ele>37.0</ele><time>2026-04-18T15:44:01.999Z</time></trkpt><trkpt lat="45.09735833982278" lon="9.990079922127574"><ele>36.833333333333336</ele><time>2026-04-18T15:44:02.999Z</time></trkpt><trkpt lat="45.09744500931694" lon="9.990064016251576"><ele>36.66666666666667</ele><time>2026-04-18T15:44:03.999Z</time></trkpt><trkpt lat="45.09752660674158" lon="9.990031000796725"><ele>36.5</ele><time>2026-04-18T15:44:04.999Z</time></trkpt><trkpt lat="45.09760883078389" lon="9.989997731787975"><ele>36.333333333333336</ele><time>2026-04-18T15:44:05.999Z</time></trkpt><trkpt lat="45.097689054246274" lon="9.989962921863908"><ele>36.166666666666664</ele><time>2026-04-18T15:44:06.999Z</time></trkpt><trkpt lat="45.097769535844286" lon="9.989927373059858"><ele>36.0</ele><time>2026-04-18T15:44:07.999Z</time></trkpt><trkpt lat="45.097841961554096" lon="9.989862537729152"><ele>36.333333333333336</ele><time>2026-04-18T15:44:08.999Z</time></trkpt><trkpt lat="45.09791799927713" lon="9.989831611507409"><ele>36.666666666666664</ele><time>2026-04-18T15:44:09.999Z</time></trkpt><trkpt lat="45.09799428780323" lon="9.989796579404064"><ele>37.0</ele><time>2026-04-18T15:44:10.999Z</time></trkpt><trkpt lat="45.09807022159721" lon="9.989766022957015"><ele>37.33333333333333</ele><time>2026-04-18T15:44:11.999Z</time></trkpt><trkpt lat="45.09814684889526" lon="9.989765455462697"><ele>37.666666666666664</ele><time>2026-04-18T15:44:12.999Z</time></trkpt><trkpt lat="45.098223488740686" lon="9.989760837972417"><ele>38.0</ele><time>2026-04-18T15:44:13.999Z</time></trkpt><trkpt lat="45.09830037527459" lon="9.989758875036733"><ele>38.166666666666664</ele><time>2026-04-18T15:44:14.999Z</time></trkpt><trkpt lat="45.098381917948046" lon="9.989759663770812"><ele>38.33333333333333</ele><time>2026-04-18T15:44:15.999Z</time></trkpt><trkpt lat="45.09846224872521" lon="9.989764360966701"><ele>38.5</ele><time>2026-04-18T15:44:16.999Z</time></trkpt><trkpt lat="45.098546769165864" lon="9.98977158527772"><ele>38.666666666666664</ele><time>2026-04-18T15:44:17.999Z</time></trkpt><trkpt lat="45.098627691155464" lon="9.989778720689728"><ele>38.833333333333336</ele><time>2026-04-18T15:44:18.999Z</time></trkpt><trkpt lat="45.098707159994696" lon="9.989785727958974"><ele>39.0</ele><time>2026-04-18T15:44:19.999Z</time></trkpt><trkpt lat="45.09878441227129" lon="9.989792539781709"><ele>39.0</ele><time>2026-04-18T15:44:20.999Z</time></trkpt><trkpt lat="45.09886348938557" lon="9.989800291042474"><ele>39.0</ele><time>2026-04-18T15:44:21.999Z</time></trkpt><trkpt lat="45.09893709382902" lon="9.989808198206642"><ele>39.0</ele><time>2026-04-18T15:44:22.999Z</time></trkpt><trkpt lat="45.09900636288923" lon="9.989817604764077"><ele>39.0</ele><time>2026-04-18T15:44:23.998Z</time></trkpt><trkpt lat="45.099075152500674" lon="9.98983141112439"><ele>39.0</ele><time>2026-04-18T15:44:24.998Z</time></trkpt><trkpt lat="45.09914265698492" lon="9.989844034910035"><ele>39.0</ele><time>2026-04-18T15:44:25.998Z</time></trkpt><trkpt lat="45.09924883872696" lon="9.989901288748863"><ele>39.0</ele><time>2026-04-18T15:44:27.998Z</time></trkpt><trkpt lat="45.09940495490809" lon="9.989834077733317"><ele>39.0</ele><time>2026-04-18T15:44:29.998Z</time></trkpt><trkpt lat="45.09946877815564" lon="9.989825294563154"><ele>39.0</ele><time>2026-04-18T15:44:30.998Z</time></trkpt><trkpt lat="45.0995346659827" lon="9.989825135978066"><ele>39.0</ele><time>2026-04-18T15:44:31.998Z</time></trkpt><trkpt lat="45.09960037905548" lon="9.989830694116275"><ele>39.0</ele><time>2026-04-18T15:44:32.998Z</time></trkpt><trkpt lat="45.09966552181938" lon="9.989839619169055"><ele>39.0</ele><time>2026-04-18T15:44:33.998Z</time></trkpt><trkpt lat="45.09974051891671" lon="9.989851826486102"><ele>39.0</ele><time>2026-04-18T15:44:34.998Z</time></trkpt><trkpt lat="45.09981294145165" lon="9.989868315319228"><ele>39.0</ele><time>2026-04-18T15:44:35.998Z</time></trkpt><trkpt lat="45.09988281084789" lon="9.98988496078614"><ele>39.0</ele><time>2026-04-18T15:44:36.998Z</time></trkpt><trkpt lat="45.09995348258675" lon="9.989907010627174"><ele>39.0</ele><time>2026-04-18T15:44:37.998Z</time></trkpt><trkpt lat="45.100025805528794" lon="9.989928796998989"><ele>39.0</ele><time>2026-04-18T15:44:38.998Z</time></trkpt><trkpt lat="45.10009660619754" lon="9.989952654105949"><ele>39.0</ele><time>2026-04-18T15:44:39.998Z</time></trkpt><trkpt lat="45.100165984583725" lon="9.98997890242908"><ele>39.0</ele><time>2026-04-18T15:44:40.998Z</time></trkpt><trkpt lat="45.10023458590449" lon="9.9900067428694"><ele>38.85714285714286</ele><time>2026-04-18T15:44:41.998Z</time></trkpt><trkpt lat="45.10030433528849" lon="9.990036006913163"><ele>38.71428571428571</ele><time>2026-04-18T15:44:42.998Z</time></trkpt><trkpt lat="45.100375866327376" lon="9.990066020312048"><ele>38.57142857142857</ele><time>2026-04-18T15:44:43.998Z</time></trkpt><trkpt lat="45.10044772795061" lon="9.9900948927327"><ele>38.42857142857143</ele><time>2026-04-18T15:44:44.998Z</time></trkpt><trkpt lat="45.10051563281231" lon="9.990121734524298"><ele>38.28571428571429</ele><time>2026-04-18T15:44:45.998Z</time></trkpt><trkpt lat="45.100587053919455" lon="9.990149966275272"><ele>38.14285714285714</ele><time>2026-04-18T15:44:46.998Z</time></trkpt><trkpt lat="45.10065913807807" lon="9.990179555959648"><ele>38.0</ele><time>2026-04-18T15:44:47.998Z</time></trkpt><trkpt lat="45.100731732678184" lon="9.99021078496248"><ele>38.0</ele><time>2026-04-18T15:44:48.998Z</time></trkpt><trkpt lat="45.100804308526286" lon="9.990243760452184"><ele>38.0</ele><time>2026-04-18T15:44:49.998Z</time></trkpt><trkpt lat="45.100874161422226" lon="9.990278689072603"><ele>38.0</ele><time>2026-04-18T15:44:50.998Z</time></trkpt><trkpt lat="45.10094408639283" lon="9.990313834982"><ele>38.0</ele><time>2026-04-18T15:44:51.998Z</time></trkpt><trkpt lat="45.10101324478102" lon="9.990350406259427"><ele>38.0</ele><time>2026-04-18T15:44:52.998Z</time></trkpt><trkpt lat="45.101084865910906" lon="9.990388204645551"><ele>38.0</ele><time>2026-04-18T15:44:53.998Z</time></trkpt><trkpt lat="45.101158579836" lon="9.990427107503873"><ele>38.0</ele><time>2026-04-18T15:44:55Z</time></trkpt><trkpt lat="45.101235690459596" lon="9.990445684030654"><ele>38.0</ele><time>2026-04-18T15:44:56Z</time></trkpt><trkpt lat="45.10130665471527" lon="9.990486403124804"><ele>38.0</ele><time>2026-04-18T15:44:57Z</time></trkpt><trkpt lat="45.10137506298081" lon="9.990528701098444"><ele>38.0</ele><time>2026-04-18T15:44:58Z</time></trkpt><trkpt lat="45.101443217233296" lon="9.990573121466834"><ele>38.0</ele><time>2026-04-18T15:44:59Z</time></trkpt><trkpt lat="45.10151045930891" lon="9.990616739717469"><ele>38.0</ele><time>2026-04-18T15:45:00Z</time></trkpt><trkpt lat="45.10157849047445" lon="9.99065838056519"><ele>38.0</ele><time>2026-04-18T15:45:01Z</time></trkpt><trkpt lat="45.10164670094883" lon="9.990702532091968"><ele>38.0</ele><time>2026-04-18T15:45:02Z</time></trkpt><trkpt lat="45.10170275226036" lon="9.99077450755021"><ele>38.0</ele><time>2026-04-18T15:45:03Z</time></trkpt><trkpt lat="45.10176038060975" lon="9.990832383376873"><ele>38.0</ele><time>2026-04-18T15:45:04Z</time></trkpt><trkpt lat="45.10182019016627" lon="9.990897271959186"><ele>38.0</ele><time>2026-04-18T15:45:05Z</time></trkpt><trkpt lat="45.101875676064374" lon="9.99096278470351"><ele>38.0</ele><time>2026-04-18T15:45:06Z</time></trkpt><trkpt lat="45.10192990247217" lon="9.99103275850113"><ele>38.0</ele><time>2026-04-18T15:45:07Z</time></trkpt><trkpt lat="45.1019855738381" lon="9.991108975534889"><ele>37.666666666666664</ele><time>2026-04-18T15:45:08Z</time></trkpt><trkpt lat="45.10203682792138" lon="9.991183028086704"><ele>37.33333333333333</ele><time>2026-04-18T15:45:09Z</time></trkpt><trkpt lat="45.10208703804107" lon="9.991258144443002"><ele>37.0</ele><time>2026-04-18T15:45:10Z</time></trkpt><trkpt lat="45.10213542612251" lon="9.991340228299096"><ele>36.666666666666664</ele><time>2026-04-18T15:45:11Z</time></trkpt><trkpt lat="45.10218334560453" lon="9.991423797854925"><ele>36.333333333333336</ele><time>2026-04-18T15:45:12Z</time></trkpt><trkpt lat="45.102230922307974" lon="9.991508761165054"><ele>36.0</ele><time>2026-04-18T15:45:13Z</time></trkpt><trkpt lat="45.10227697379591" lon="9.991596329142642"><ele>36.0</ele><time>2026-04-18T15:45:14Z</time></trkpt><trkpt lat="45.10232483894453" lon="9.991689027893871"><ele>36.0</ele><time>2026-04-18T15:45:15Z</time></trkpt><trkpt lat="45.10237065822697" lon="9.99177553047495"><ele>36.0</ele><time>2026-04-18T15:45:16Z</time></trkpt><trkpt lat="45.10241667369168" lon="9.991861929936785"><ele>36.0</ele><time>2026-04-18T15:45:17Z</time></trkpt><trkpt lat="45.10246367524306" lon="9.991949165461808"><ele>36.0</ele><time>2026-04-18T15:45:18Z</time></trkpt><trkpt lat="45.102513590326375" lon="9.992035157063272"><ele>36.0</ele><time>2026-04-18T15:45:19Z</time></trkpt><trkpt lat="45.10256686023198" lon="9.992115590942815"><ele>36.333333333333336</ele><time>2026-04-18T15:45:20Z</time></trkpt><trkpt lat="45.10262635790799" lon="9.992188469914238"><ele>36.666666666666664</ele><time>2026-04-18T15:45:21Z</time></trkpt><trkpt lat="45.102686152795044" lon="9.99225886403802"><ele>37.0</ele><time>2026-04-18T15:45:22Z</time></trkpt><trkpt lat="45.102744442226566" lon="9.992327487028248"><ele>37.33333333333333</ele><time>2026-04-18T15:45:23Z</time></trkpt><trkpt lat="45.102805565442516" lon="9.992397333931512"><ele>37.666666666666664</ele><time>2026-04-18T15:45:24Z</time></trkpt><trkpt lat="45.102863997336854" lon="9.992464788530887"><ele>38.0</ele><time>2026-04-18T15:45:25Z</time></trkpt><trkpt lat="45.102937501147174" lon="9.992512133021034"><ele>38.0</ele><time>2026-04-18T15:45:26Z</time></trkpt><trkpt lat="45.102995936060694" lon="9.992583327343246"><ele>38.0</ele><time>2026-04-18T15:45:27Z</time></trkpt><trkpt lat="45.10305619449944" lon="9.992655859716729"><ele>38.0</ele><time>2026-04-18T15:45:28Z</time></trkpt><trkpt lat="45.10311293441256" lon="9.992726383798166"><ele>38.0</ele><time>2026-04-18T15:45:29Z</time></trkpt><trkpt lat="45.103171359381335" lon="9.992790283351486"><ele>38.0</ele><time>2026-04-18T15:45:30Z</time></trkpt><trkpt lat="45.10322561221185" lon="9.992861851909005"><ele>38.0</ele><time>2026-04-18T15:45:31Z</time></trkpt><trkpt lat="45.10328315566003" lon="9.992929647171085"><ele>38.0</ele><time>2026-04-18T15:45:32Z</time></trkpt><trkpt lat="45.1033512226986" lon="9.992987288604786"><ele>38.0</ele><time>2026-04-18T15:45:33Z</time></trkpt><trkpt lat="45.1034276146329" lon="9.993027047895866"><ele>38.0</ele><time>2026-04-18T15:45:33.999Z</time></trkpt><trkpt lat="45.10350063597661" lon="9.993073551412254"><ele>38.0</ele><time>2026-04-18T15:45:34.999Z</time></trkpt><trkpt lat="45.10356326706614" lon="9.993132368849526"><ele>38.0</ele><time>2026-04-18T15:45:35.999Z</time></trkpt><trkpt lat="45.10362579000206" lon="9.993205492752145"><ele>38.0</ele><time>2026-04-18T15:45:36.999Z</time></trkpt><trkpt lat="45.103686728628006" lon="9.993274929733378"><ele>38.0</ele><time>2026-04-18T15:45:37.999Z</time></trkpt><trkpt lat="45.103754778843566" lon="9.993337497134005"><ele>38.0</ele><time>2026-04-18T15:45:38.999Z</time></trkpt><trkpt lat="45.103818578599515" lon="9.993401648032782"><ele>38.0</ele><time>2026-04-18T15:45:39.999Z</time></trkpt><trkpt lat="45.10388217281562" lon="9.99346655900007"><ele>38.0</ele><time>2026-04-18T15:45:40.999Z</time></trkpt><trkpt lat="45.103946512824784" lon="9.99352814407826"><ele>38.0</ele><time>2026-04-18T15:45:41.999Z</time></trkpt><trkpt lat="45.10401015124509" lon="9.99359684402864"><ele>38.0</ele><time>2026-04-18T15:45:42.999Z</time></trkpt><trkpt lat="45.10407125243403" lon="9.99366252099454"><ele>38.166666666666664</ele><time>2026-04-18T15:45:43.999Z</time></trkpt><trkpt lat="45.10413641704679" lon="9.993722277546008"><ele>38.33333333333333</ele><time>2026-04-18T15:45:44.999Z</time></trkpt><trkpt lat="45.10419896349042" lon="9.99378532777355"><ele>38.5</ele><time>2026-04-18T15:45:45.999Z</time></trkpt><trkpt lat="45.10426110345507" lon="9.993843305725886"><ele>38.666666666666664</ele><time>2026-04-18T15:45:46.999Z</time></trkpt><trkpt lat="45.10432836766371" lon="9.993880678685448"><ele>38.833333333333336</ele><time>2026-04-18T15:45:47.999Z</time></trkpt><trkpt lat="45.104400038325714" lon="9.993901625823243"><ele>39.0</ele><time>2026-04-18T15:45:48.999Z</time></trkpt><trkpt lat="45.10446573442579" lon="9.993810638546448"><ele>39.0</ele><time>2026-04-18T15:45:49.999Z</time></trkpt><trkpt lat="45.10451686260199" lon="9.993730180929543"><ele>39.0</ele><time>2026-04-18T15:45:50.999Z</time></trkpt><trkpt lat="45.10455427023141" lon="9.993635008512554"><ele>39.0</ele><time>2026-04-18T15:45:51.999Z</time></trkpt><trkpt lat="45.104587667970364" lon="9.993537642827414"><ele>39.0</ele><time>2026-04-18T15:45:52.999Z</time></trkpt><trkpt lat="45.104623959155546" lon="9.993441434467124"><ele>39.0</ele><time>2026-04-18T15:45:53.999Z</time></trkpt><trkpt lat="45.104666879332825" lon="9.993350762830847"><ele>39.0</ele><time>2026-04-18T15:45:54.999Z</time></trkpt><trkpt lat="45.104706803865014" lon="9.993254261698183"><ele>39.0</ele><time>2026-04-18T15:45:55.999Z</time></trkpt><trkpt lat="45.104748925868144" lon="9.993159325862539"><ele>39.0</ele><time>2026-04-18T15:45:56.999Z</time></trkpt><trkpt lat="45.10479299716782" lon="9.99306615978577"><ele>39.0</ele><time>2026-04-18T15:45:57.999Z</time></trkpt><trkpt lat="45.104834208236454" lon="9.992969278948479"><ele>39.0</ele><time>2026-04-18T15:45:58.999Z</time></trkpt><trkpt lat="45.10487959511414" lon="9.992872281379107"><ele>39.0</ele><time>2026-04-18T15:45:59.999Z</time></trkpt><trkpt lat="45.10491830994747" lon="9.992775731853753"><ele>39.0</ele><time>2026-04-18T15:46:00.999Z</time></trkpt><trkpt lat="45.104958473124455" lon="9.992679710124909"><ele>39.0</ele><time>2026-04-18T15:46:01.999Z</time></trkpt><trkpt lat="45.10500050035466" lon="9.992586427603884"><ele>39.0</ele><time>2026-04-18T15:46:02.999Z</time></trkpt><trkpt lat="45.105036686041856" lon="9.992490893434368"><ele>39.0</ele><time>2026-04-18T15:46:03.999Z</time></trkpt><trkpt lat="45.10508125133268" lon="9.992396390036664"><ele>39.0</ele><time>2026-04-18T15:46:04.999Z</time></trkpt><trkpt lat="45.10511769811384" lon="9.992297773371746"><ele>39.0</ele><time>2026-04-18T15:46:05.999Z</time></trkpt><trkpt lat="45.10515792424115" lon="9.99220154032837"><ele>39.0</ele><time>2026-04-18T15:46:06.999Z</time></trkpt><trkpt lat="45.10520018904104" lon="9.992105188371218"><ele>39.0</ele><time>2026-04-18T15:46:07.999Z</time></trkpt><trkpt lat="45.10524356591761" lon="9.992014299431771"><ele>39.0</ele><time>2026-04-18T15:46:08.999Z</time></trkpt><trkpt lat="45.10528162875403" lon="9.991923754711292"><ele>39.0</ele><time>2026-04-18T15:46:09.999Z</time></trkpt><trkpt lat="45.10532523648716" lon="9.99182802087293"><ele>39.0</ele><time>2026-04-18T15:46:10.999Z</time></trkpt><trkpt lat="45.10536588983348" lon="9.99173650840728"><ele>39.0</ele><time>2026-04-18T15:46:11.999Z</time></trkpt><trkpt lat="45.1054083190723" lon="9.99164989677226"><ele>39.0</ele><time>2026-04-18T15:46:12.999Z</time></trkpt><trkpt lat="45.105436208244505" lon="9.991553450005224"><ele>39.166666666666664</ele><time>2026-04-18T15:46:13.999Z</time></trkpt><trkpt lat="45.10547840329363" lon="9.991474089840972"><ele>39.333333333333336</ele><time>2026-04-18T15:46:14.999Z</time></trkpt><trkpt lat="45.10552329686819" lon="9.991401194375934"><ele>39.5</ele><time>2026-04-18T15:46:15.999Z</time></trkpt><trkpt lat="45.1055807159034" lon="9.991348560447388"><ele>39.66666666666667</ele><time>2026-04-18T15:46:16.999Z</time></trkpt><trkpt lat="45.10568255705811" lon="9.991273486277779"><ele>39.833333333333336</ele><time>2026-04-18T15:46:18.999Z</time></trkpt><trkpt lat="45.10576466533916" lon="9.991331791593623"><ele>40.0</ele><time>2026-04-18T15:46:20.999Z</time></trkpt><trkpt lat="45.10581353000416" lon="9.99142962938415"><ele>39.8</ele><time>2026-04-18T15:46:21.999Z</time></trkpt><trkpt lat="45.10583366682405" lon="9.991541929860642"><ele>39.6</ele><time>2026-04-18T15:46:22.999Z</time></trkpt><trkpt lat="45.105932862348396" lon="9.991667794545616"><ele>39.4</ele><time>2026-04-18T15:46:24.999Z</time></trkpt><trkpt lat="45.10603488833001" lon="9.991766315833978"><ele>39.2</ele><time>2026-04-18T15:46:26.998Z</time></trkpt><trkpt lat="45.10608441750258" lon="9.991822332730782"><ele>39.0</ele><time>2026-04-18T15:46:27.998Z</time></trkpt><trkpt lat="45.10613990808591" lon="9.991892554108002"><ele>39.0</ele><time>2026-04-18T15:46:28.998Z</time></trkpt><trkpt lat="45.106191909329205" lon="9.991966544565756"><ele>39.0</ele><time>2026-04-18T15:46:29.998Z</time></trkpt><trkpt lat="45.10625875881695" lon="9.992027966183992"><ele>39.0</ele><time>2026-04-18T15:46:30.998Z</time></trkpt><trkpt lat="45.106317990680836" lon="9.992091860141166"><ele>39.0</ele><time>2026-04-18T15:46:31.998Z</time></trkpt><trkpt lat="45.10637961510539" lon="9.992159317016897"><ele>39.0</ele><time>2026-04-18T15:46:32.998Z</time></trkpt><trkpt lat="45.10643914021368" lon="9.992226869983883"><ele>39.0</ele><time>2026-04-18T15:46:33.998Z</time></trkpt><trkpt lat="45.10649917902398" lon="9.992287383567541"><ele>39.0</ele><time>2026-04-18T15:46:34.998Z</time></trkpt><trkpt lat="45.10656515993818" lon="9.992338066969227"><ele>39.0</ele><time>2026-04-18T15:46:35.998Z</time></trkpt><trkpt lat="45.10663213907669" lon="9.9923940899639"><ele>39.0</ele><time>2026-04-18T15:46:36.998Z</time></trkpt><trkpt lat="45.10668777046896" lon="9.992468484072285"><ele>39.0</ele><time>2026-04-18T15:46:37.998Z</time></trkpt><trkpt lat="45.10674809612092" lon="9.992522314992563"><ele>39.0</ele><time>2026-04-18T15:46:38.998Z</time></trkpt><trkpt lat="45.10680612778996" lon="9.992574745646822"><ele>39.0</ele><time>2026-04-18T15:46:39.998Z</time></trkpt><trkpt lat="45.10686984552896" lon="9.992623841962669"><ele>39.0</ele><time>2026-04-18T15:46:40.998Z</time></trkpt><trkpt lat="45.10691799254992" lon="9.992691560298676"><ele>39.0</ele><time>2026-04-18T15:46:41.998Z</time></trkpt><trkpt lat="45.10698288087273" lon="9.992728675992852"><ele>39.0</ele><time>2026-04-18T15:46:42.998Z</time></trkpt><trkpt lat="45.107037167232676" lon="9.992805493568929"><ele>39.0</ele><time>2026-04-18T15:46:43.998Z</time></trkpt><trkpt lat="45.10709619900421" lon="9.992861929089615"><ele>39.0</ele><time>2026-04-18T15:46:44.998Z</time></trkpt><trkpt lat="45.10715129423849" lon="9.99291460130818"><ele>39.0</ele><time>2026-04-18T15:46:45.998Z</time></trkpt><trkpt lat="45.10720674122396" lon="9.99296226839833"><ele>39.0</ele><time>2026-04-18T15:46:46.998Z</time></trkpt><trkpt lat="45.107304040968316" lon="9.993062099239362"><ele>39.0</ele><time>2026-04-18T15:46:48.998Z</time></trkpt><trkpt lat="45.10737294206012" lon="9.993101513228462"><ele>39.0</ele><time>2026-04-18T15:46:49.998Z</time></trkpt><trkpt lat="45.10746579830196" lon="9.993166858769689"><ele>39.0</ele><time>2026-04-18T15:46:51.998Z</time></trkpt><trkpt lat="45.10754556828064" lon="9.993230723250512"><ele>39.0</ele><time>2026-04-18T15:46:53.998Z</time></trkpt><trkpt lat="45.10763568992994" lon="9.99330084790361"><ele>39.0</ele><time>2026-04-18T15:46:55.998Z</time></trkpt><trkpt lat="45.10772965367608" lon="9.993341857928803"><ele>39.0</ele><time>2026-04-18T15:46:57.998Z</time></trkpt><trkpt lat="45.10797521186474" lon="9.992845405259807"><ele>39.0</ele><time>2026-04-18T15:46:58.998Z</time></trkpt><trkpt lat="45.1080419885523" lon="9.992826717330777"><ele>39.0</ele><time>2026-04-18T15:46:59.998Z</time></trkpt><trkpt lat="45.1081077827252" lon="9.9928059960358"><ele>39.0</ele><time>2026-04-18T15:47:01Z</time></trkpt><trkpt lat="45.10817255463634" lon="9.992786016384242"><ele>39.0</ele><time>2026-04-18T15:47:02Z</time></trkpt><trkpt lat="45.1082358193125" lon="9.992765742196495"><ele>39.0</ele><time>2026-04-18T15:47:03Z</time></trkpt><trkpt lat="45.10830190860284" lon="9.992742551314025"><ele>39.0</ele><time>2026-04-18T15:47:04Z</time></trkpt><trkpt lat="45.10842001997289" lon="9.992702102170188"><ele>39.0</ele><time>2026-04-18T15:47:06Z</time></trkpt><trkpt lat="45.10853703764534" lon="9.992666513014651"><ele>38.666666666666664</ele><time>2026-04-18T15:47:08Z</time></trkpt><trkpt lat="45.10865723351339" lon="9.99262994614489"><ele>38.333333333333336</ele><time>2026-04-18T15:47:10Z</time></trkpt><trkpt lat="45.108782352988165" lon="9.992588410380002"><ele>38.0</ele><time>2026-04-18T15:47:12Z</time></trkpt><trkpt lat="45.108844840772115" lon="9.992569706450135"><ele>37.66666666666667</ele><time>2026-04-18T15:47:13Z</time></trkpt><trkpt lat="45.10890713473085" lon="9.992551486252573"><ele>37.333333333333336</ele><time>2026-04-18T15:47:14Z</time></trkpt><trkpt lat="45.10896914603676" lon="9.992530344206575"><ele>37.0</ele><time>2026-04-18T15:47:15Z</time></trkpt><trkpt lat="45.10908585822752" lon="9.992479302959726"><ele>36.800000000000004</ele><time>2026-04-18T15:47:17Z</time></trkpt><trkpt lat="45.10919632985301" lon="9.992420749013268"><ele>36.6</ele><time>2026-04-18T15:47:19Z</time></trkpt><trkpt lat="45.109294385208514" lon="9.992344798932267"><ele>36.400000000000006</ele><time>2026-04-18T15:47:21Z</time></trkpt><trkpt lat="45.109379727776194" lon="9.992252888262412"><ele>36.2</ele><time>2026-04-18T15:47:23Z</time></trkpt><trkpt lat="45.10945396244422" lon="9.992151750178621"><ele>36.0</ele><time>2026-04-18T15:47:25Z</time></trkpt><trkpt lat="45.109514207594444" lon="9.992059071601128"><ele>36.0</ele><time>2026-04-18T15:47:27Z</time></trkpt><trkpt lat="45.10958716276764" lon="9.992043919380233"><ele>36.0</ele><time>2026-04-18T15:47:29Z</time></trkpt><trkpt lat="45.10967793192211" lon="9.99212786465633"><ele>36.0</ele><time>2026-04-18T15:47:31Z</time></trkpt><trkpt lat="45.1097603939763" lon="9.992225811604627"><ele>36.0</ele><time>2026-04-18T15:47:33Z</time></trkpt><trkpt lat="45.109849205414555" lon="9.992326924304093"><ele>36.0</ele><time>2026-04-18T15:47:35Z</time></trkpt><trkpt lat="45.109940146308915" lon="9.99242870412149"><ele>36.25</ele><time>2026-04-18T15:47:37Z</time></trkpt><trkpt lat="45.1100318973544" lon="9.992535113584742"><ele>36.5</ele><time>2026-04-18T15:47:38.999Z</time></trkpt><trkpt lat="45.11012772484708" lon="9.992635640320575"><ele>36.75</ele><time>2026-04-18T15:47:40.999Z</time></trkpt><trkpt lat="45.11022656444615" lon="9.992730083341499"><ele>37.0</ele><time>2026-04-18T15:47:42.999Z</time></trkpt><trkpt lat="45.11031562378403" lon="9.992837014580816"><ele>37.0</ele><time>2026-04-18T15:47:44.999Z</time></trkpt><trkpt lat="45.11041370815174" lon="9.992932748254173"><ele>37.0</ele><time>2026-04-18T15:47:46.999Z</time></trkpt><trkpt lat="45.1105114025669" lon="9.993031098728254"><ele>37.0</ele><time>2026-04-18T15:47:48.999Z</time></trkpt><trkpt lat="45.11056320762904" lon="9.993087192017624"><ele>37.0</ele><time>2026-04-18T15:47:49.999Z</time></trkpt><trkpt lat="45.110616905543935" lon="9.993146501341082"><ele>37.0</ele><time>2026-04-18T15:47:50.999Z</time></trkpt><trkpt lat="45.11067102186875" lon="9.993204384328743"><ele>37.0</ele><time>2026-04-18T15:47:51.999Z</time></trkpt><trkpt lat="45.11072264728477" lon="9.993261188139698"><ele>37.0</ele><time>2026-04-18T15:47:52.999Z</time></trkpt><trkpt lat="45.11077357333591" lon="9.99331490850517"><ele>37.0</ele><time>2026-04-18T15:47:53.999Z</time></trkpt><trkpt lat="45.1108666275551" lon="9.993428310587667"><ele>37.0</ele><time>2026-04-18T15:47:55.999Z</time></trkpt><trkpt lat="45.11091612313476" lon="9.993484099321298"><ele>37.0</ele><time>2026-04-18T15:47:56.999Z</time></trkpt><trkpt lat="45.11096717486288" lon="9.993543477163888"><ele>37.0</ele><time>2026-04-18T15:47:57.999Z</time></trkpt><trkpt lat="45.1110209897801" lon="9.993600535269142"><ele>37.0</ele><time>2026-04-18T15:47:58.999Z</time></trkpt><trkpt lat="45.11107516545455" lon="9.993655100899652"><ele>37.0</ele><time>2026-04-18T15:47:59.999Z</time></trkpt><trkpt lat="45.11112667980424" lon="9.993706715295922"><ele>37.0</ele><time>2026-04-18T15:48:00.999Z</time></trkpt><trkpt lat="45.11117743680368" lon="9.993768442037455"><ele>37.0</ele><time>2026-04-18T15:48:01.999Z</time></trkpt><trkpt lat="45.11123215166182" lon="9.993830423066012"><ele>37.0</ele><time>2026-04-18T15:48:02.999Z</time></trkpt><trkpt lat="45.11128800355181" lon="9.993889633287692"><ele>37.0</ele><time>2026-04-18T15:48:03.999Z</time></trkpt><trkpt lat="45.11134162787573" lon="9.993949461117479"><ele>37.0</ele><time>2026-04-18T15:48:04.999Z</time></trkpt><trkpt lat="45.11139365182183" lon="9.994004803077376"><ele>37.0</ele><time>2026-04-18T15:48:05.999Z</time></trkpt><trkpt lat="45.111444936830225" lon="9.994068542438326"><ele>37.0</ele><time>2026-04-18T15:48:06.999Z</time></trkpt><trkpt lat="45.111497890039374" lon="9.994130280074442"><ele>37.142857142857146</ele><time>2026-04-18T15:48:07.999Z</time></trkpt><trkpt lat="45.11155740764223" lon="9.994183894424081"><ele>37.285714285714285</ele><time>2026-04-18T15:48:08.999Z</time></trkpt><trkpt lat="45.111614627377335" lon="9.994240890818503"><ele>37.42857142857143</ele><time>2026-04-18T15:48:09.999Z</time></trkpt><trkpt lat="45.11166948557155" lon="9.994299923058675"><ele>37.57142857142857</ele><time>2026-04-18T15:48:10.999Z</time></trkpt><trkpt lat="45.11172652857654" lon="9.994357704758126"><ele>37.714285714285715</ele><time>2026-04-18T15:48:11.999Z</time></trkpt><trkpt lat="45.11178339888156" lon="9.994411102906838"><ele>37.857142857142854</ele><time>2026-04-18T15:48:12.999Z</time></trkpt><trkpt lat="45.111838223623266" lon="9.994466628900305"><ele>38.0</ele><time>2026-04-18T15:48:13.999Z</time></trkpt><trkpt lat="45.111899140875714" lon="9.994524488272287"><ele>38.14285714285714</ele><time>2026-04-18T15:48:14.999Z</time></trkpt><trkpt lat="45.111961689119994" lon="9.994582949982462"><ele>38.28571428571429</ele><time>2026-04-18T15:48:15.999Z</time></trkpt><trkpt lat="45.112028379050244" lon="9.994628257055592"><ele>38.42857142857143</ele><time>2026-04-18T15:48:16.999Z</time></trkpt><trkpt lat="45.11209360746941" lon="9.994671892431557"><ele>38.57142857142857</ele><time>2026-04-18T15:48:17.999Z</time></trkpt><trkpt lat="45.11216625750304" lon="9.99470278541399"><ele>38.71428571428571</ele><time>2026-04-18T15:48:18.999Z</time></trkpt><trkpt lat="45.11224155651844" lon="9.994719203494146"><ele>38.85714285714286</ele><time>2026-04-18T15:48:19.999Z</time></trkpt><trkpt lat="45.112313193197544" lon="9.994728844752203"><ele>39.0</ele><time>2026-04-18T15:48:20.999Z</time></trkpt><trkpt lat="45.1125297149092" lon="9.994699530611344"><ele>39.166666666666664</ele><time>2026-04-18T15:48:23.999Z</time></trkpt><trkpt lat="45.11260357211833" lon="9.99466818606638"><ele>39.333333333333336</ele><time>2026-04-18T15:48:24.999Z</time></trkpt><trkpt lat="45.11267717464268" lon="9.994629166246"><ele>39.5</ele><time>2026-04-18T15:48:25.999Z</time></trkpt><trkpt lat="45.11274834903639" lon="9.994580591803642"><ele>39.66666666666667</ele><time>2026-04-18T15:48:26.999Z</time></trkpt><trkpt lat="45.11282270410587" lon="9.994532437818219"><ele>39.833333333333336</ele><time>2026-04-18T15:48:27.999Z</time></trkpt><trkpt lat="45.11289617893884" lon="9.994486932868385"><ele>40.0</ele><time>2026-04-18T15:48:28.999Z</time></trkpt><trkpt lat="45.11296852354726" lon="9.994442776146233"><ele>40.0</ele><time>2026-04-18T15:48:29.999Z</time></trkpt><trkpt lat="45.11304533059994" lon="9.994394513794434"><ele>40.0</ele><time>2026-04-18T15:48:30.999Z</time></trkpt><trkpt lat="45.11311954193105" lon="9.99434765970875"><ele>40.0</ele><time>2026-04-18T15:48:31.998Z</time></trkpt><trkpt lat="45.113191776696034" lon="9.994301026053746"><ele>40.0</ele><time>2026-04-18T15:48:32.998Z</time></trkpt><trkpt lat="45.1132651329684" lon="9.994243188429483"><ele>40.0</ele><time>2026-04-18T15:48:33.998Z</time></trkpt><trkpt lat="45.113340457913765" lon="9.994194647995021"><ele>40.0</ele><time>2026-04-18T15:48:34.998Z</time></trkpt><trkpt lat="45.11341733487394" lon="9.994152203703111"><ele>39.833333333333336</ele><time>2026-04-18T15:48:35.998Z</time></trkpt><trkpt lat="45.11349235371838" lon="9.994104290622726"><ele>39.66666666666667</ele><time>2026-04-18T15:48:36.998Z</time></trkpt><trkpt lat="45.11356479048064" lon="9.994053313603889"><ele>39.5</ele><time>2026-04-18T15:48:37.998Z</time></trkpt><trkpt lat="45.11364008767118" lon="9.99400870012738"><ele>39.333333333333336</ele><time>2026-04-18T15:48:38.998Z</time></trkpt><trkpt lat="45.113710937068866" lon="9.993955514981637"><ele>39.166666666666664</ele><time>2026-04-18T15:48:39.998Z</time></trkpt><trkpt lat="45.11378541838075" lon="9.993912411688838"><ele>39.0</ele><time>2026-04-18T15:48:40.998Z</time></trkpt><trkpt lat="45.113859963183934" lon="9.993871788248512"><ele>39.0</ele><time>2026-04-18T15:48:41.998Z</time></trkpt><trkpt lat="45.11394372867676" lon="9.993810135291252"><ele>39.0</ele><time>2026-04-18T15:48:42.998Z</time></trkpt><trkpt lat="45.114011963444156" lon="9.99377510889695"><ele>39.0</ele><time>2026-04-18T15:48:43.998Z</time></trkpt><trkpt lat="45.11408748681901" lon="9.993731893432825"><ele>39.0</ele><time>2026-04-18T15:48:44.998Z</time></trkpt><trkpt lat="45.1141629109817" lon="9.993685937835851"><ele>39.0</ele><time>2026-04-18T15:48:45.998Z</time></trkpt><trkpt lat="45.114239942683255" lon="9.993641294868079"><ele>39.0</ele><time>2026-04-18T15:48:46.998Z</time></trkpt><trkpt lat="45.11431817019156" lon="9.993597746611643"><ele>39.0</ele><time>2026-04-18T15:48:47.998Z</time></trkpt><trkpt lat="45.11439460869102" lon="9.99355591052856"><ele>39.0</ele><time>2026-04-18T15:48:48.998Z</time></trkpt><trkpt lat="45.114474225161075" lon="9.993518283139514"><ele>39.0</ele><time>2026-04-18T15:48:49.998Z</time></trkpt><trkpt lat="45.11454959043087" lon="9.993468381094196"><ele>39.0</ele><time>2026-04-18T15:48:50.998Z</time></trkpt><trkpt lat="45.114624567786514" lon="9.993420045184495"><ele>39.0</ele><time>2026-04-18T15:48:51.998Z</time></trkpt><trkpt lat="45.11469904497956" lon="9.993378858417442"><ele>39.0</ele><time>2026-04-18T15:48:52.998Z</time></trkpt><trkpt lat="45.114775444664694" lon="9.993330382905315"><ele>39.0</ele><time>2026-04-18T15:48:53.998Z</time></trkpt><trkpt lat="45.11484998029554" lon="9.993286419428992"><ele>39.0</ele><time>2026-04-18T15:48:54.998Z</time></trkpt><trkpt lat="45.11493033527098" lon="9.993244577715686"><ele>39.0</ele><time>2026-04-18T15:48:55.998Z</time></trkpt><trkpt lat="45.11500978759384" lon="9.993202666731944"><ele>39.0</ele><time>2026-04-18T15:48:56.998Z</time></trkpt><trkpt lat="45.115086543633836" lon="9.993154378372715"><ele>39.0</ele><time>2026-04-18T15:48:57.998Z</time></trkpt><trkpt lat="45.11516097739695" lon="9.993102091728206"><ele>39.0</ele><time>2026-04-18T15:48:58.998Z</time></trkpt><trkpt lat="45.115240042167486" lon="9.99305766119125"><ele>39.166666666666664</ele><time>2026-04-18T15:48:59.998Z</time></trkpt><trkpt lat="45.11531673331725" lon="9.993014092558253"><ele>39.333333333333336</ele><time>2026-04-18T15:49:00.998Z</time></trkpt><trkpt lat="45.115392764301816" lon="9.99296867590538"><ele>39.5</ele><time>2026-04-18T15:49:01.998Z</time></trkpt><trkpt lat="45.1154682831762" lon="9.992923193433722"><ele>39.66666666666667</ele><time>2026-04-18T15:49:02.998Z</time></trkpt><trkpt lat="45.115547104665715" lon="9.992882768714837"><ele>39.833333333333336</ele><time>2026-04-18T15:49:03.998Z</time></trkpt><trkpt lat="45.11561953104607" lon="9.99283159507911"><ele>40.0</ele><time>2026-04-18T15:49:04.998Z</time></trkpt><trkpt lat="45.115696398332986" lon="9.992785664142529"><ele>39.833333333333336</ele><time>2026-04-18T15:49:05.998Z</time></trkpt><trkpt lat="45.11577426965518" lon="9.992744600716417"><ele>39.66666666666667</ele><time>2026-04-18T15:49:07Z</time></trkpt><trkpt lat="45.11585070024524" lon="9.99269577697166"><ele>39.5</ele><time>2026-04-18T15:49:08Z</time></trkpt><trkpt lat="45.11592743004898" lon="9.99264793269087"><ele>39.333333333333336</ele><time>2026-04-18T15:49:09Z</time></trkpt><trkpt lat="45.116002268833384" lon="9.992597274909485"><ele>39.166666666666664</ele><time>2026-04-18T15:49:10Z</time></trkpt><trkpt lat="45.11608194176269" lon="9.992556051654903"><ele>39.0</ele><time>2026-04-18T15:49:11Z</time></trkpt><trkpt lat="45.11615727618259" lon="9.992511788648718"><ele>39.0</ele><time>2026-04-18T15:49:12Z</time></trkpt><trkpt lat="45.11623266160859" lon="9.992463169214899"><ele>39.0</ele><time>2026-04-18T15:49:13Z</time></trkpt><trkpt lat="45.11631113589544" lon="9.992416716630505"><ele>39.0</ele><time>2026-04-18T15:49:14Z</time></trkpt><trkpt lat="45.116389875538914" lon="9.992372530582447"><ele>39.0</ele><time>2026-04-18T15:49:15Z</time></trkpt><trkpt lat="45.11646725394471" lon="9.99232592939426"><ele>39.0</ele><time>2026-04-18T15:49:16Z</time></trkpt><trkpt lat="45.116544466676416" lon="9.992284954446498"><ele>39.0</ele><time>2026-04-18T15:49:17Z</time></trkpt><trkpt lat="45.11662369885753" lon="9.992247549827892"><ele>39.0</ele><time>2026-04-18T15:49:18Z</time></trkpt><trkpt lat="45.1166997662648" lon="9.99220180323061"><ele>39.0</ele><time>2026-04-18T15:49:19Z</time></trkpt><trkpt lat="45.11677462725677" lon="9.992151506072723"><ele>39.0</ele><time>2026-04-18T15:49:20Z</time></trkpt><trkpt lat="45.11685137843333" lon="9.992103684079234"><ele>39.0</ele><time>2026-04-18T15:49:21Z</time></trkpt><trkpt lat="45.116930098588504" lon="9.992059873126165"><ele>39.0</ele><time>2026-04-18T15:49:22Z</time></trkpt><trkpt lat="45.11700799913705" lon="9.992012737751132"><ele>39.0</ele><time>2026-04-18T15:49:23Z</time></trkpt><trkpt lat="45.11708464280732" lon="9.991961665007635"><ele>39.0</ele><time>2026-04-18T15:49:24Z</time></trkpt><trkpt lat="45.11716428520159" lon="9.991913929730105"><ele>39.0</ele><time>2026-04-18T15:49:25Z</time></trkpt><trkpt lat="45.117241739371934" lon="9.991869179555195"><ele>39.0</ele><time>2026-04-18T15:49:26Z</time></trkpt><trkpt lat="45.11731971989556" lon="9.991822201095104"><ele>39.0</ele><time>2026-04-18T15:49:27Z</time></trkpt><trkpt lat="45.117399962778386" lon="9.991777789695238"><ele>39.0</ele><time>2026-04-18T15:49:28Z</time></trkpt><trkpt lat="45.11747578503978" lon="9.991729375485345"><ele>39.0</ele><time>2026-04-18T15:49:29Z</time></trkpt><trkpt lat="45.117554174401064" lon="9.99168095864751"><ele>39.0</ele><time>2026-04-18T15:49:30Z</time></trkpt><trkpt lat="45.11763170302835" lon="9.991635858582248"><ele>39.0</ele><time>2026-04-18T15:49:31Z</time></trkpt><trkpt lat="45.11771002373815" lon="9.991593717866527"><ele>39.0</ele><time>2026-04-18T15:49:32Z</time></trkpt><trkpt lat="45.11778643694234" lon="9.991547335896021"><ele>39.0</ele><time>2026-04-18T15:49:33Z</time></trkpt><trkpt lat="45.11786426573757" lon="9.99149930619467"><ele>39.0</ele><time>2026-04-18T15:49:34Z</time></trkpt><trkpt lat="45.117944266778565" lon="9.991450803554448"><ele>39.0</ele><time>2026-04-18T15:49:35Z</time></trkpt><trkpt lat="45.11802165248038" lon="9.991401402514187"><ele>39.0</ele><time>2026-04-18T15:49:36Z</time></trkpt><trkpt lat="45.118100265190115" lon="9.991351603032138"><ele>39.0</ele><time>2026-04-18T15:49:37Z</time></trkpt><trkpt lat="45.1181767536194" lon="9.991306261839867"><ele>39.0</ele><time>2026-04-18T15:49:38Z</time></trkpt><trkpt lat="45.11825637792806" lon="9.991258224894933"><ele>39.0</ele><time>2026-04-18T15:49:39Z</time></trkpt><trkpt lat="45.118334983810364" lon="9.99121100425517"><ele>39.0</ele><time>2026-04-18T15:49:39.999Z</time></trkpt><trkpt lat="45.118412570304095" lon="9.991163564030341"><ele>39.0</ele><time>2026-04-18T15:49:40.999Z</time></trkpt><trkpt lat="45.118490392604706" lon="9.991116977990139"><ele>38.5</ele><time>2026-04-18T15:49:41.999Z</time></trkpt><trkpt lat="45.11856683202078" lon="9.99106910456844"><ele>38.0</ele><time>2026-04-18T15:49:42.999Z</time></trkpt><trkpt lat="45.11864319570149" lon="9.991020418548215"><ele>37.5</ele><time>2026-04-18T15:49:43.999Z</time></trkpt><trkpt lat="45.118716546395284" lon="9.990976201678592"><ele>37.0</ele><time>2026-04-18T15:49:44.999Z</time></trkpt><trkpt lat="45.11879174729556" lon="9.990928004426529"><ele>36.5</ele><time>2026-04-18T15:49:45.999Z</time></trkpt><trkpt lat="45.118869822417324" lon="9.990879600806194"><ele>36.0</ele><time>2026-04-18T15:49:46.999Z</time></trkpt><trkpt lat="45.11894460297763" lon="9.990834511854814"><ele>36.0</ele><time>2026-04-18T15:49:47.999Z</time></trkpt><trkpt lat="45.119022899214464" lon="9.990789228001304"><ele>36.0</ele><time>2026-04-18T15:49:48.999Z</time></trkpt><trkpt lat="45.119101742592434" lon="9.990743339965132"><ele>36.0</ele><time>2026-04-18T15:49:49.999Z</time></trkpt><trkpt lat="45.11918210499451" lon="9.990697964483898"><ele>36.0</ele><time>2026-04-18T15:49:50.999Z</time></trkpt><trkpt lat="45.11926280970337" lon="9.99065091824783"><ele>36.0</ele><time>2026-04-18T15:49:51.999Z</time></trkpt><trkpt lat="45.11934394880717" lon="9.990600985829209"><ele>36.0</ele><time>2026-04-18T15:49:52.999Z</time></trkpt><trkpt lat="45.11942465944457" lon="9.990550542633267"><ele>36.0</ele><time>2026-04-18T15:49:53.999Z</time></trkpt><trkpt lat="45.11950024413968" lon="9.990504070564214"><ele>36.0</ele><time>2026-04-18T15:49:54.999Z</time></trkpt><trkpt lat="45.11958058322741" lon="9.990455600879036"><ele>36.0</ele><time>2026-04-18T15:49:55.999Z</time></trkpt><trkpt lat="45.11966127866405" lon="9.990405197813379"><ele>36.0</ele><time>2026-04-18T15:49:56.999Z</time></trkpt><trkpt lat="45.11973845047775" lon="9.990361701703087"><ele>36.0</ele><time>2026-04-18T15:49:57.999Z</time></trkpt><trkpt lat="45.119816631221845" lon="9.99031413246952"><ele>36.0</ele><time>2026-04-18T15:49:58.999Z</time></trkpt><trkpt lat="45.11989342609077" lon="9.990268517736649"><ele>36.5</ele><time>2026-04-18T15:49:59.999Z</time></trkpt><trkpt lat="45.119972417168825" lon="9.99021992378961"><ele>37.0</ele><time>2026-04-18T15:50:00.999Z</time></trkpt><trkpt lat="45.12004846469985" lon="9.990173798695752"><ele>37.5</ele><time>2026-04-18T15:50:01.999Z</time></trkpt><trkpt lat="45.12012394719211" lon="9.990127016429838"><ele>38.0</ele><time>2026-04-18T15:50:02.999Z</time></trkpt><trkpt lat="45.12019979787446" lon="9.990080230465402"><ele>38.5</ele><time>2026-04-18T15:50:03.999Z</time></trkpt><trkpt lat="45.12027566355081" lon="9.990031854648295"><ele>39.0</ele><time>2026-04-18T15:50:04.999Z</time></trkpt><trkpt lat="45.12035388990125" lon="9.989983470525576"><ele>39.0</ele><time>2026-04-18T15:50:05.999Z</time></trkpt><trkpt lat="45.120431580405096" lon="9.98993578074235"><ele>39.0</ele><time>2026-04-18T15:50:06.999Z</time></trkpt><trkpt lat="45.12050779482895" lon="9.989889845887232"><ele>39.0</ele><time>2026-04-18T15:50:07.999Z</time></trkpt><trkpt lat="45.12058300222406" lon="9.98984650835904"><ele>39.0</ele><time>2026-04-18T15:50:08.999Z</time></trkpt><trkpt lat="45.12065459699872" lon="9.989803464723988"><ele>39.0</ele><time>2026-04-18T15:50:09.999Z</time></trkpt><trkpt lat="45.12072397455266" lon="9.989757041476645"><ele>39.0</ele><time>2026-04-18T15:50:10.999Z</time></trkpt><trkpt lat="45.12079181097914" lon="9.989715918558167"><ele>38.5</ele><time>2026-04-18T15:50:11.999Z</time></trkpt><trkpt lat="45.12085987940707" lon="9.989671828217217"><ele>38.0</ele><time>2026-04-18T15:50:12.999Z</time></trkpt><trkpt lat="45.12094322122192" lon="9.989631340821827"><ele>37.5</ele><time>2026-04-18T15:50:13.999Z</time></trkpt><trkpt lat="45.121018827080036" lon="9.989633056342395"><ele>37.0</ele><time>2026-04-18T15:50:14.999Z</time></trkpt><trkpt lat="45.12112319508703" lon="9.989571528667696"><ele>36.5</ele><time>2026-04-18T15:50:16.999Z</time></trkpt><trkpt lat="45.12120328869676" lon="9.989512236282742"><ele>36.0</ele><time>2026-04-18T15:50:17.999Z</time></trkpt><trkpt lat="45.12127124466033" lon="9.98946990786463"><ele>36.00000000000001</ele><time>2026-04-18T15:50:18.999Z</time></trkpt><trkpt lat="45.12133833462221" lon="9.989429778025833"><ele>36.0</ele><time>2026-04-18T15:50:19.999Z</time></trkpt><trkpt lat="45.1214037707487" lon="9.98939133916904"><ele>36.0</ele><time>2026-04-18T15:50:20.999Z</time></trkpt><trkpt lat="45.121467978226114" lon="9.98935166889139"><ele>36.0</ele><time>2026-04-18T15:50:21.999Z</time></trkpt><trkpt lat="45.121530266705186" lon="9.989315391690594"><ele>36.0</ele><time>2026-04-18T15:50:22.999Z</time></trkpt><trkpt lat="45.12159922935964" lon="9.989278153988948"><ele>36.00000000000001</ele><time>2026-04-18T15:50:23.999Z</time></trkpt><trkpt lat="45.12167258708397" lon="9.98925303676791"><ele>36.0</ele><time>2026-04-18T15:50:24.999Z</time></trkpt><trkpt lat="45.12175265006297" lon="9.989228059757059"><ele>36.166666666666664</ele><time>2026-04-18T15:50:25.999Z</time></trkpt><trkpt lat="45.121819634384224" lon="9.989226232201021"><ele>36.333333333333336</ele><time>2026-04-18T15:50:26.999Z</time></trkpt><trkpt lat="45.12192938636316" lon="9.989282716179154"><ele>36.5</ele><time>2026-04-18T15:50:28.999Z</time></trkpt><trkpt lat="45.12198957609054" lon="9.989311954107334"><ele>36.66666666666667</ele><time>2026-04-18T15:50:29.999Z</time></trkpt><trkpt lat="45.122054216590215" lon="9.989352170178998"><ele>36.833333333333336</ele><time>2026-04-18T15:50:30.999Z</time></trkpt><trkpt lat="45.12212147419728" lon="9.989387687047106"><ele>37.0</ele><time>2026-04-18T15:50:31.999Z</time></trkpt><trkpt lat="45.122175365155755" lon="9.989434176485023"><ele>37.0</ele><time>2026-04-18T15:50:32.999Z</time></trkpt><trkpt lat="45.12227031404477" lon="9.989520883918427"><ele>37.0</ele><time>2026-04-18T15:50:34.998Z</time></trkpt><trkpt lat="45.122370156118365" lon="9.989616605790948"><ele>37.0</ele><time>2026-04-18T15:50:36.998Z</time></trkpt><trkpt lat="45.122423514219506" lon="9.989675901026288"><ele>37.0</ele><time>2026-04-18T15:50:37.998Z</time></trkpt><trkpt lat="45.12247918488163" lon="9.989726725597762"><ele>37.0</ele><time>2026-04-18T15:50:38.998Z</time></trkpt><trkpt lat="45.122539481795926" lon="9.989777513672093"><ele>37.0</ele><time>2026-04-18T15:50:39.998Z</time></trkpt><trkpt lat="45.12259770762053" lon="9.989834621385178"><ele>37.142857142857146</ele><time>2026-04-18T15:50:40.998Z</time></trkpt><trkpt lat="45.12265956980723" lon="9.989889091555577"><ele>37.285714285714285</ele><time>2026-04-18T15:50:41.998Z</time></trkpt><trkpt lat="45.12272836286467" lon="9.9899373992535"><ele>37.42857142857143</ele><time>2026-04-18T15:50:42.998Z</time></trkpt><trkpt lat="45.122794223743554" lon="9.989984528554595"><ele>37.57142857142857</ele><time>2026-04-18T15:50:43.998Z</time></trkpt><trkpt lat="45.12285461148931" lon="9.990034841156827"><ele>37.714285714285715</ele><time>2026-04-18T15:50:44.998Z</time></trkpt><trkpt lat="45.12290884449739" lon="9.990086483245204"><ele>37.857142857142854</ele><time>2026-04-18T15:50:45.998Z</time></trkpt><trkpt lat="45.122962699451605" lon="9.990141446364845"><ele>38.0</ele><time>2026-04-18T15:50:46.998Z</time></trkpt><trkpt lat="45.123018136424264" lon="9.990191891263716"><ele>38.0</ele><time>2026-04-18T15:50:47.998Z</time></trkpt><trkpt lat="45.123074088383014" lon="9.99024691040933"><ele>38.0</ele><time>2026-04-18T15:50:48.998Z</time></trkpt><trkpt lat="45.12318903222621" lon="9.990334033270528"><ele>38.0</ele><time>2026-04-18T15:50:50.998Z</time></trkpt><trkpt lat="45.12324678145514" lon="9.990385307970215"><ele>38.0</ele><time>2026-04-18T15:50:51.998Z</time></trkpt><trkpt lat="45.12334872809614" lon="9.990476372615454"><ele>38.0</ele><time>2026-04-18T15:50:53.998Z</time></trkpt><trkpt lat="45.12341231379821" lon="9.990521549944399"><ele>37.857142857142854</ele><time>2026-04-18T15:50:54.998Z</time></trkpt><trkpt lat="45.12347401494711" lon="9.990573200997405"><ele>37.714285714285715</ele><time>2026-04-18T15:50:55.998Z</time></trkpt><trkpt lat="45.12353355964951" lon="9.990633018844377"><ele>37.57142857142857</ele><time>2026-04-18T15:50:56.998Z</time></trkpt><trkpt lat="45.12359419941944" lon="9.990686928287449"><ele>37.42857142857143</ele><time>2026-04-18T15:50:57.998Z</time></trkpt><trkpt lat="45.12365917937479" lon="9.990741489822096"><ele>37.285714285714285</ele><time>2026-04-18T15:50:58.998Z</time></trkpt><trkpt lat="45.123719930387374" lon="9.99080399612"><ele>37.142857142857146</ele><time>2026-04-18T15:50:59.998Z</time></trkpt><trkpt lat="45.12378149476611" lon="9.990861651754615"><ele>37.0</ele><time>2026-04-18T15:51:00.998Z</time></trkpt><trkpt lat="45.12384450440375" lon="9.990917892516224"><ele>37.0</ele><time>2026-04-18T15:51:01.998Z</time></trkpt><trkpt lat="45.123907576308675" lon="9.990973214143017"><ele>37.0</ele><time>2026-04-18T15:51:02.998Z</time></trkpt><trkpt lat="45.12397187387015" lon="9.991023027978166"><ele>37.0</ele><time>2026-04-18T15:51:03.998Z</time></trkpt><trkpt lat="45.12403266909568" lon="9.991078480491481"><ele>37.0</ele><time>2026-04-18T15:51:04.998Z</time></trkpt><trkpt lat="45.124095287290956" lon="9.991134226683458"><ele>37.0</ele><time>2026-04-18T15:51:05.998Z</time></trkpt><trkpt lat="45.12415489441374" lon="9.991185880586196"><ele>37.0</ele><time>2026-04-18T15:51:06.998Z</time></trkpt><trkpt lat="45.12422208225314" lon="9.991225521102338"><ele>37.0</ele><time>2026-04-18T15:51:07.998Z</time></trkpt><trkpt lat="45.12428069785264" lon="9.991286906926819"><ele>37.285714285714285</ele><time>2026-04-18T15:51:08.998Z</time></trkpt><trkpt lat="45.12434123744002" lon="9.991342842934474"><ele>37.57142857142857</ele><time>2026-04-18T15:51:09.998Z</time></trkpt><trkpt lat="45.1244062142109" lon="9.991397684875084"><ele>37.85714285714286</ele><time>2026-04-18T15:51:10.998Z</time></trkpt><trkpt lat="45.124466618474" lon="9.991450353963174"><ele>38.14285714285714</ele><time>2026-04-18T15:51:11.998Z</time></trkpt><trkpt lat="45.12452673507555" lon="9.991510342552619"><ele>38.42857142857142</ele><time>2026-04-18T15:51:13Z</time></trkpt><trkpt lat="45.1245910535587" lon="9.991562867461527"><ele>38.714285714285715</ele><time>2026-04-18T15:51:14Z</time></trkpt><trkpt lat="45.12465244257893" lon="9.991617230264433"><ele>39.0</ele><time>2026-04-18T15:51:15Z</time></trkpt><trkpt lat="45.124709350567606" lon="9.991672251168769"><ele>38.85714285714286</ele><time>2026-04-18T15:51:16Z</time></trkpt><trkpt lat="45.12477401972823" lon="9.991726962928452"><ele>38.71428571428571</ele><time>2026-04-18T15:51:17Z</time></trkpt><trkpt lat="45.124830554894466" lon="9.9917802784952"><ele>38.57142857142857</ele><time>2026-04-18T15:51:18Z</time></trkpt><trkpt lat="45.124897185587486" lon="9.991823093370582"><ele>38.42857142857143</ele><time>2026-04-18T15:51:19Z</time></trkpt><trkpt lat="45.12495979934481" lon="9.99188328023968"><ele>38.28571428571429</ele><time>2026-04-18T15:51:20Z</time></trkpt><trkpt lat="45.12501835071997" lon="9.991939806479884"><ele>38.14285714285714</ele><time>2026-04-18T15:51:21Z</time></trkpt><trkpt lat="45.12508436366619" lon="9.991993235106714"><ele>38.0</ele><time>2026-04-18T15:51:22Z</time></trkpt><trkpt lat="45.12514630345199" lon="9.992053033693507"><ele>38.42857142857142</ele><time>2026-04-18T15:51:23Z</time></trkpt><trkpt lat="45.1252118536419" lon="9.992109012419277"><ele>38.85714285714286</ele><time>2026-04-18T15:51:24Z</time></trkpt><trkpt lat="45.125273336484284" lon="9.992166828627486"><ele>39.285714285714285</ele><time>2026-04-18T15:51:25Z</time></trkpt><trkpt lat="45.12533831094536" lon="9.992212543958505"><ele>39.71428571428571</ele><time>2026-04-18T15:51:26Z</time></trkpt><trkpt lat="45.12540332781644" lon="9.992268485129907"><ele>40.14285714285714</ele><time>2026-04-18T15:51:27Z</time></trkpt><trkpt lat="45.125464088473954" lon="9.992327566386688"><ele>40.57142857142857</ele><time>2026-04-18T15:51:28Z</time></trkpt><trkpt lat="45.12552666772601" lon="9.99238138279528"><ele>41.0</ele><time>2026-04-18T15:51:29Z</time></trkpt><trkpt lat="45.125591676087936" lon="9.992437063083432"><ele>40.99999999999999</ele><time>2026-04-18T15:51:30Z</time></trkpt><trkpt lat="45.12565168337508" lon="9.992487757603751"><ele>41.0</ele><time>2026-04-18T15:51:31Z</time></trkpt><trkpt lat="45.125716879487705" lon="9.99254182365304"><ele>41.0</ele><time>2026-04-18T15:51:32Z</time></trkpt><trkpt lat="45.12577908338887" lon="9.992591730762381"><ele>41.0</ele><time>2026-04-18T15:51:33Z</time></trkpt><trkpt lat="45.125838935958356" lon="9.992644401451978"><ele>41.0</ele><time>2026-04-18T15:51:34Z</time></trkpt><trkpt lat="45.12590452858791" lon="9.992700579985286"><ele>40.99999999999999</ele><time>2026-04-18T15:51:35Z</time></trkpt><trkpt lat="45.12597062038084" lon="9.992751237732405"><ele>41.0</ele><time>2026-04-18T15:51:36Z</time></trkpt><trkpt lat="45.12603261187998" lon="9.992806296536642"><ele>40.71428571428571</ele><time>2026-04-18T15:51:37Z</time></trkpt><trkpt lat="45.12609441139807" lon="9.992856860544558"><ele>40.42857142857143</ele><time>2026-04-18T15:51:38Z</time></trkpt><trkpt lat="45.12615728020485" lon="9.992907368897647"><ele>40.14285714285714</ele><time>2026-04-18T15:51:39Z</time></trkpt><trkpt lat="45.12622305287496" lon="9.992950535682258"><ele>39.857142857142854</ele><time>2026-04-18T15:51:40Z</time></trkpt><trkpt lat="45.12628798913107" lon="9.993009429726175"><ele>39.57142857142857</ele><time>2026-04-18T15:51:41Z</time></trkpt><trkpt lat="45.1263460462401" lon="9.993065675152186"><ele>39.285714285714285</ele><time>2026-04-18T15:51:42Z</time></trkpt><trkpt lat="45.12640832292307" lon="9.993119881539602"><ele>39.0</ele><time>2026-04-18T15:51:43Z</time></trkpt><trkpt lat="45.12646779419742" lon="9.99317343892308"><ele>39.0</ele><time>2026-04-18T15:51:44Z</time></trkpt><trkpt lat="45.12653236536332" lon="9.993232941866461"><ele>39.0</ele><time>2026-04-18T15:51:45Z</time></trkpt><trkpt lat="45.12659568836805" lon="9.99329057211452"><ele>39.0</ele><time>2026-04-18T15:51:45.999Z</time></trkpt><trkpt lat="45.12665205269887" lon="9.99334076886074"><ele>39.0</ele><time>2026-04-18T15:51:46.999Z</time></trkpt><trkpt lat="45.1267135106837" lon="9.99339762873016"><ele>39.0</ele><time>2026-04-18T15:51:47.999Z</time></trkpt><trkpt lat="45.126778804835304" lon="9.993454525976645"><ele>39.0</ele><time>2026-04-18T15:51:48.999Z</time></trkpt><trkpt lat="45.12684131561619" lon="9.993512484556497"><ele>39.0</ele><time>2026-04-18T15:51:49.999Z</time></trkpt><trkpt lat="45.126903730009424" lon="9.99356512297861"><ele>38.714285714285715</ele><time>2026-04-18T15:51:50.999Z</time></trkpt><trkpt lat="45.126966909005304" lon="9.993616113429384"><ele>38.42857142857142</ele><time>2026-04-18T15:51:51.999Z</time></trkpt><trkpt lat="45.127030241859416" lon="9.993672091345294"><ele>38.14285714285714</ele><time>2026-04-18T15:51:52.999Z</time></trkpt><trkpt lat="45.12709343153169" lon="9.993732434562828"><ele>37.85714285714286</ele><time>2026-04-18T15:51:53.999Z</time></trkpt><trkpt lat="45.127159600393746" lon="9.99378062204613"><ele>37.57142857142857</ele><time>2026-04-18T15:51:54.999Z</time></trkpt><trkpt lat="45.127222807416906" lon="9.993833958459545"><ele>37.285714285714285</ele><time>2026-04-18T15:51:55.999Z</time></trkpt><trkpt lat="45.12728185153549" lon="9.993886508114706"><ele>37.0</ele><time>2026-04-18T15:51:56.999Z</time></trkpt><trkpt lat="45.1273426789979" lon="9.993942304910933"><ele>35.714285714285715</ele><time>2026-04-18T15:51:57.999Z</time></trkpt><trkpt lat="45.12740602595693" lon="9.993989305357651"><ele>34.42857142857143</ele><time>2026-04-18T15:51:58.999Z</time></trkpt><trkpt lat="45.12747025727687" lon="9.994048542193278"><ele>33.14285714285714</ele><time>2026-04-18T15:51:59.999Z</time></trkpt><trkpt lat="45.127531820365995" lon="9.994099851994699"><ele>31.857142857142858</ele><time>2026-04-18T15:52:00.999Z</time></trkpt><trkpt lat="45.12760002713842" lon="9.994147572211157"><ele>30.57142857142857</ele><time>2026-04-18T15:52:01.999Z</time></trkpt><trkpt lat="45.127662657390545" lon="9.994204474906896"><ele>29.285714285714285</ele><time>2026-04-18T15:52:02.999Z</time></trkpt><trkpt lat="45.1277261523385" lon="9.994263126738167"><ele>28.0</ele><time>2026-04-18T15:52:03.999Z</time></trkpt><trkpt lat="45.12778827903496" lon="9.99431371697827"><ele>28.0</ele><time>2026-04-18T15:52:04.999Z</time></trkpt><trkpt lat="45.12785305074492" lon="9.99436606722029"><ele>28.0</ele><time>2026-04-18T15:52:05.999Z</time></trkpt><trkpt lat="45.12791661977452" lon="9.994421067498017"><ele>28.0</ele><time>2026-04-18T15:52:06.999Z</time></trkpt><trkpt lat="45.12798056605211" lon="9.994470551336487"><ele>28.0</ele><time>2026-04-18T15:52:07.999Z</time></trkpt><trkpt lat="45.128041582710786" lon="9.994522118031984"><ele>28.0</ele><time>2026-04-18T15:52:08.999Z</time></trkpt><trkpt lat="45.128106184831815" lon="9.994576750063711"><ele>28.0</ele><time>2026-04-18T15:52:09.999Z</time></trkpt><trkpt lat="45.1281698827702" lon="9.994628728169129"><ele>28.0</ele><time>2026-04-18T15:52:10.999Z</time></trkpt><trkpt lat="45.128234495583776" lon="9.994684341801026"><ele>28.0</ele><time>2026-04-18T15:52:11.999Z</time></trkpt><trkpt lat="45.12829625173955" lon="9.99473954576106"><ele>28.0</ele><time>2026-04-18T15:52:12.999Z</time></trkpt><trkpt lat="45.12836229457534" lon="9.99479162601183"><ele>28.0</ele><time>2026-04-18T15:52:13.999Z</time></trkpt><trkpt lat="45.128425695704756" lon="9.99484161490995"><ele>28.0</ele><time>2026-04-18T15:52:14.999Z</time></trkpt><trkpt lat="45.12848763393722" lon="9.994891233734"><ele>28.0</ele><time>2026-04-18T15:52:15.999Z</time></trkpt><trkpt lat="45.12854651806342" lon="9.994945688798701"><ele>28.0</ele><time>2026-04-18T15:52:16.999Z</time></trkpt><trkpt lat="45.12860806773558" lon="9.994999413818729"><ele>28.0</ele><time>2026-04-18T15:52:17.999Z</time></trkpt><trkpt lat="45.12866313920359" lon="9.99505756663866"><ele>28.714285714285715</ele><time>2026-04-18T15:52:18.999Z</time></trkpt><trkpt lat="45.12872710386112" lon="9.995116566255476"><ele>29.42857142857143</ele><time>2026-04-18T15:52:19.999Z</time></trkpt><trkpt lat="45.12878745881648" lon="9.995166789108614"><ele>30.142857142857142</ele><time>2026-04-18T15:52:20.999Z</time></trkpt><trkpt lat="45.128850432465335" lon="9.995227739514771"><ele>30.857142857142858</ele><time>2026-04-18T15:52:21.999Z</time></trkpt><trkpt lat="45.12891124248972" lon="9.995269716848107"><ele>31.571428571428573</ele><time>2026-04-18T15:52:22.999Z</time></trkpt><trkpt lat="45.12897413888569" lon="9.995316164949555"><ele>32.285714285714285</ele><time>2026-04-18T15:52:23.999Z</time></trkpt><trkpt lat="45.12903863451946" lon="9.995379479496318"><ele>33.0</ele><time>2026-04-18T15:52:24.999Z</time></trkpt><trkpt lat="45.12910202194997" lon="9.995443827124534"><ele>33.285714285714285</ele><time>2026-04-18T15:52:25.999Z</time></trkpt><trkpt lat="45.1291632579761" lon="9.995502111914437"><ele>33.57142857142857</ele><time>2026-04-18T15:52:26.999Z</time></trkpt><trkpt lat="45.12921944877556" lon="9.995549728675815"><ele>33.85714285714286</ele><time>2026-04-18T15:52:27.999Z</time></trkpt><trkpt lat="45.12928584890432" lon="9.995594989450701"><ele>34.14285714285714</ele><time>2026-04-18T15:52:28.999Z</time></trkpt><trkpt lat="45.12934567084897" lon="9.995647406981467"><ele>34.42857142857143</ele><time>2026-04-18T15:52:29.999Z</time></trkpt><trkpt lat="45.12940878497308" lon="9.995692220120365"><ele>34.714285714285715</ele><time>2026-04-18T15:52:30.999Z</time></trkpt><trkpt lat="45.12947083469419" lon="9.99573992342451"><ele>35.0</ele><time>2026-04-18T15:52:31.999Z</time></trkpt><trkpt lat="45.12952663653657" lon="9.995788740322295"><ele>35.6</ele><time>2026-04-18T15:52:32.999Z</time></trkpt><trkpt lat="45.12957806908504" lon="9.995840233112713"><ele>36.2</ele><time>2026-04-18T15:52:33.999Z</time></trkpt><trkpt lat="45.129681110095284" lon="9.995935478013212"><ele>36.8</ele><time>2026-04-18T15:52:35.999Z</time></trkpt><trkpt lat="45.12978283567023" lon="9.996019995005538"><ele>37.4</ele><time>2026-04-18T15:52:37.999Z</time></trkpt><trkpt lat="45.12986495824146" lon="9.996142030482941"><ele>38.0</ele><time>2026-04-18T15:52:39.998Z</time></trkpt><trkpt lat="45.129903149340365" lon="9.996214717538393"><ele>38.0</ele><time>2026-04-18T15:52:40.998Z</time></trkpt><trkpt lat="45.12994136901713" lon="9.996286724876802"><ele>38.0</ele><time>2026-04-18T15:52:41.998Z</time></trkpt><trkpt lat="45.12997273186806" lon="9.996376232602772"><ele>38.0</ele><time>2026-04-18T15:52:42.998Z</time></trkpt><trkpt lat="45.129994751791244" lon="9.996463512370303"><ele>38.0</ele><time>2026-04-18T15:52:43.998Z</time></trkpt><trkpt lat="45.130010839247205" lon="9.996552824823047"><ele>38.0</ele><time>2026-04-18T15:52:44.998Z</time></trkpt><trkpt lat="45.13002853756202" lon="9.996722376139845"><ele>38.0</ele><time>2026-04-18T15:52:46.998Z</time></trkpt><trkpt lat="45.13003603427571" lon="9.996811091888878"><ele>38.0</ele><time>2026-04-18T15:52:47.998Z</time></trkpt><trkpt lat="45.13005998455965" lon="9.99699648978074"><ele>38.33333333333333</ele><time>2026-04-18T15:52:49.998Z</time></trkpt><trkpt lat="45.1300717319511" lon="9.997093313969582"><ele>38.666666666666664</ele><time>2026-04-18T15:52:50.998Z</time></trkpt><trkpt lat="45.13008382127298" lon="9.997189405762487"><ele>39.0</ele><time>2026-04-18T15:52:51.998Z</time></trkpt><trkpt lat="45.13010495980575" lon="9.997279714476425"><ele>39.333333333333336</ele><time>2026-04-18T15:52:52.998Z</time></trkpt><trkpt lat="45.13012614502666" lon="9.99745687489212"><ele>39.66666666666667</ele><time>2026-04-18T15:52:54.998Z</time></trkpt><trkpt lat="45.13013695403579" lon="9.99755353883704"><ele>40.0</ele><time>2026-04-18T15:52:55.998Z</time></trkpt><trkpt lat="45.130146920203494" lon="9.997648864463347"><ele>40.0</ele><time>2026-04-18T15:52:56.998Z</time></trkpt><trkpt lat="45.13015593509085" lon="9.997741791490697"><ele>40.0</ele><time>2026-04-18T15:52:57.998Z</time></trkpt><trkpt lat="45.13016983329886" lon="9.99783597468856"><ele>40.0</ele><time>2026-04-18T15:52:58.998Z</time></trkpt><trkpt lat="45.13018310141733" lon="9.99792894723971"><ele>40.0</ele><time>2026-04-18T15:52:59.998Z</time></trkpt><trkpt lat="45.13019175684989" lon="9.998027436560683"><ele>40.0</ele><time>2026-04-18T15:53:00.998Z</time></trkpt><trkpt lat="45.130203916097265" lon="9.998118921157149"><ele>40.0</ele><time>2026-04-18T15:53:01.998Z</time></trkpt><trkpt lat="45.130214519003495" lon="9.998212710271767"><ele>40.0</ele><time>2026-04-18T15:53:02.998Z</time></trkpt><trkpt lat="45.13022673183849" lon="9.998311127724566"><ele>40.14285714285714</ele><time>2026-04-18T15:53:03.998Z</time></trkpt><trkpt lat="45.13023711679374" lon="9.998409045282887"><ele>40.285714285714285</ele><time>2026-04-18T15:53:04.998Z</time></trkpt><trkpt lat="45.13025294724841" lon="9.998505316792658"><ele>40.42857142857143</ele><time>2026-04-18T15:53:05.998Z</time></trkpt><trkpt lat="45.13026411564407" lon="9.998606994236022"><ele>40.57142857142857</ele><time>2026-04-18T15:53:06.998Z</time></trkpt><trkpt lat="45.13027724951214" lon="9.998710811285358"><ele>40.714285714285715</ele><time>2026-04-18T15:53:07.998Z</time></trkpt><trkpt lat="45.13028390767186" lon="9.998814142682109"><ele>40.857142857142854</ele><time>2026-04-18T15:53:08.998Z</time></trkpt><trkpt lat="45.13029052705785" lon="9.998916386523488"><ele>41.0</ele><time>2026-04-18T15:53:09.998Z</time></trkpt><trkpt lat="45.13029939120541" lon="9.99901779390932"><ele>41.0</ele><time>2026-04-18T15:53:10.998Z</time></trkpt><trkpt lat="45.13031348097997" lon="9.999117827892693"><ele>41.0</ele><time>2026-04-18T15:53:11.998Z</time></trkpt><trkpt lat="45.130323970277935" lon="9.999212034130148"><ele>41.0</ele><time>2026-04-18T15:53:12.998Z</time></trkpt><trkpt lat="45.13033447877632" lon="9.999305347328626"><ele>41.0</ele><time>2026-04-18T15:53:13.998Z</time></trkpt><trkpt lat="45.13034227715189" lon="9.999397481016633"><ele>41.0</ele><time>2026-04-18T15:53:14.998Z</time></trkpt><trkpt lat="45.13036068982165" lon="9.999571065953495"><ele>41.0</ele><time>2026-04-18T15:53:16.998Z</time></trkpt><trkpt lat="45.13037213640755" lon="9.999660231953314"><ele>41.0</ele><time>2026-04-18T15:53:17.998Z</time></trkpt><trkpt lat="45.13038671159405" lon="9.999747581992215"><ele>41.0</ele><time>2026-04-18T15:53:19Z</time></trkpt><trkpt lat="45.13039597987312" lon="9.999837963783376"><ele>41.0</ele><time>2026-04-18T15:53:20Z</time></trkpt><trkpt lat="45.1304151276003" lon="9.999988335508238"><ele>41.0</ele><time>2026-04-18T15:53:22Z</time></trkpt><trkpt lat="45.13043282257416" lon="10.000155562652305"><ele>41.0</ele><time>2026-04-18T15:53:24Z</time></trkpt><trkpt lat="45.13044557863762" lon="10.000243240173122"><ele>41.0</ele><time>2026-04-18T15:53:25Z</time></trkpt><trkpt lat="45.13045146041996" lon="10.000411303535925"><ele>41.0</ele><time>2026-04-18T15:53:27Z</time></trkpt><trkpt lat="45.13042588232233" lon="10.000574719397127"><ele>41.0</ele><time>2026-04-18T15:53:29Z</time></trkpt><trkpt lat="45.13041381890241" lon="10.000736143113297"><ele>41.0</ele><time>2026-04-18T15:53:31Z</time></trkpt><trkpt lat="45.130373056477666" lon="10.000882786185675"><ele>41.0</ele><time>2026-04-18T15:53:33Z</time></trkpt><trkpt lat="45.13032993170137" lon="10.001025044105518"><ele>40.8</ele><time>2026-04-18T15:53:35Z</time></trkpt><trkpt lat="45.13028999263332" lon="10.00115679313511"><ele>40.599999999999994</ele><time>2026-04-18T15:53:37Z</time></trkpt><trkpt lat="45.13022557133255" lon="10.001275874519363"><ele>40.4</ele><time>2026-04-18T15:53:39Z</time></trkpt><trkpt lat="45.13008379699714" lon="10.00134799115671"><ele>40.2</ele><time>2026-04-18T15:53:42Z</time></trkpt><trkpt lat="45.13001217113221" lon="10.00131208988435"><ele>40.0</ele><time>2026-04-18T15:53:46Z</time></trkpt><trkpt lat="45.12996288701712" lon="10.001253379057268"><ele>40.0</ele><time>2026-04-18T15:53:49Z</time></trkpt><trkpt lat="45.13005960663985" lon="10.001269885608973"><ele>40.0</ele><time>2026-04-18T16:04:49.999Z</time></trkpt><trkpt lat="45.13001648926293" lon="10.001389527809474"><ele>40.0</ele><time>2026-04-18T16:19:56.999Z</time></trkpt><trkpt lat="45.130053276510516" lon="10.001465474888898"><ele>40.0</ele><time>2026-04-18T16:20:01.999Z</time></trkpt><trkpt lat="45.13004034034704" lon="10.001591894244545"><ele>40.0</ele><time>2026-04-18T16:20:04.999Z</time></trkpt><trkpt lat="45.13001172496565" lon="10.001709916123431"><ele>40.0</ele><time>2026-04-18T16:20:06.999Z</time></trkpt><trkpt lat="45.12997225089669" lon="10.001831600583202"><ele>40.0</ele><time>2026-04-18T16:20:08.999Z</time></trkpt><trkpt lat="45.129911496801185" lon="10.001966982419823"><ele>40.0</ele><time>2026-04-18T16:20:10.999Z</time></trkpt><trkpt lat="45.12985084053386" lon="10.002116052042497"><ele>40.0</ele><time>2026-04-18T16:20:12.999Z</time></trkpt><trkpt lat="45.129823629736414" lon="10.002200630703678"><ele>40.0</ele><time>2026-04-18T16:20:13.999Z</time></trkpt><trkpt lat="45.129786453317756" lon="10.002281342957207"><ele>40.0</ele><time>2026-04-18T16:20:14.999Z</time></trkpt><trkpt lat="45.129746030212786" lon="10.002360115715009"><ele>40.0</ele><time>2026-04-18T16:20:15.999Z</time></trkpt><trkpt lat="45.12970776009196" lon="10.002439628408313"><ele>39.5</ele><time>2026-04-18T16:20:16.999Z</time></trkpt><trkpt lat="45.1296731541969" lon="10.00252175643054"><ele>39.0</ele><time>2026-04-18T16:20:17.999Z</time></trkpt><trkpt lat="45.12961079472035" lon="10.002675644875548"><ele>38.5</ele><time>2026-04-18T16:20:19.999Z</time></trkpt><trkpt lat="45.1295727149955" lon="10.002753452772227"><ele>38.0</ele><time>2026-04-18T16:20:20.999Z</time></trkpt><trkpt lat="45.12954005048622" lon="10.002833859891872"><ele>37.5</ele><time>2026-04-18T16:20:21.999Z</time></trkpt><trkpt lat="45.12949770754456" lon="10.002916491855013"><ele>37.0</ele><time>2026-04-18T16:20:22.999Z</time></trkpt><trkpt lat="45.129458519246704" lon="10.003001699066099"><ele>37.0</ele><time>2026-04-18T16:20:23.999Z</time></trkpt><trkpt lat="45.129429367729145" lon="10.003087540516674"><ele>37.0</ele><time>2026-04-18T16:20:24.999Z</time></trkpt><trkpt lat="45.129393650745065" lon="10.003173585418224"><ele>37.0</ele><time>2026-04-18T16:20:25.999Z</time></trkpt><trkpt lat="45.12936120383686" lon="10.00325646502013"><ele>37.0</ele><time>2026-04-18T16:20:26.999Z</time></trkpt><trkpt lat="45.12932548496665" lon="10.003342226646065"><ele>37.0</ele><time>2026-04-18T16:20:27.999Z</time></trkpt><trkpt lat="45.12928919478314" lon="10.003425400807002"><ele>37.0</ele><time>2026-04-18T16:20:28.999Z</time></trkpt><trkpt lat="45.12925331074847" lon="10.003508555782481"><ele>37.0</ele><time>2026-04-18T16:20:29.999Z</time></trkpt><trkpt lat="45.12921574748883" lon="10.00359001167516"><ele>36.714285714285715</ele><time>2026-04-18T16:20:30.999Z</time></trkpt><trkpt lat="45.1291845413887" lon="10.00367267558178"><ele>36.42857142857143</ele><time>2026-04-18T16:20:31.999Z</time></trkpt><trkpt lat="45.12915354612733" lon="10.003753588634195"><ele>36.14285714285714</ele><time>2026-04-18T16:20:32.999Z</time></trkpt><trkpt lat="45.129119172909846" lon="10.003831139330105"><ele>35.85714285714286</ele><time>2026-04-18T16:20:34Z</time></trkpt><trkpt lat="45.12908366977558" lon="10.003909996500273"><ele>35.57142857142857</ele><time>2026-04-18T16:20:35Z</time></trkpt><trkpt lat="45.12904707463529" lon="10.003993660257766"><ele>35.285714285714285</ele><time>2026-04-18T16:20:36Z</time></trkpt><trkpt lat="45.1290130496635" lon="10.004078577375214"><ele>35.0</ele><time>2026-04-18T16:20:37Z</time></trkpt><trkpt lat="45.128977994167975" lon="10.0041616626508"><ele>34.714285714285715</ele><time>2026-04-18T16:20:38Z</time></trkpt><trkpt lat="45.12894248819635" lon="10.004245919307422"><ele>34.42857142857143</ele><time>2026-04-18T16:20:39Z</time></trkpt><trkpt lat="45.12890728567101" lon="10.004327978611032"><ele>34.14285714285714</ele><time>2026-04-18T16:20:40Z</time></trkpt><trkpt lat="45.12887365194245" lon="10.004414815196727"><ele>33.85714285714286</ele><time>2026-04-18T16:20:41Z</time></trkpt><trkpt lat="45.128842212656274" lon="10.004502132639958"><ele>33.57142857142857</ele><time>2026-04-18T16:20:42Z</time></trkpt><trkpt lat="45.128806745623535" lon="10.004589344928409"><ele>33.285714285714285</ele><time>2026-04-18T16:20:43Z</time></trkpt><trkpt lat="45.128778503712056" lon="10.004676353319912"><ele>33.0</ele><time>2026-04-18T16:20:44Z</time></trkpt><trkpt lat="45.128750086513776" lon="10.004764391140581"><ele>33.0</ele><time>2026-04-18T16:20:45Z</time></trkpt><trkpt lat="45.128721592376095" lon="10.00485442422695"><ele>33.0</ele><time>2026-04-18T16:20:46Z</time></trkpt><trkpt lat="45.128693152877176" lon="10.004948866841174"><ele>33.0</ele><time>2026-04-18T16:20:47Z</time></trkpt><trkpt lat="45.1286608165846" lon="10.005040145184966"><ele>33.0</ele><time>2026-04-18T16:20:48Z</time></trkpt><trkpt lat="45.1286271147133" lon="10.005130952321432"><ele>33.0</ele><time>2026-04-18T16:20:49Z</time></trkpt><trkpt lat="45.128594582189244" lon="10.005225336158421"><ele>33.0</ele><time>2026-04-18T16:20:50Z</time></trkpt><trkpt lat="45.12856060928302" lon="10.005319240535998"><ele>33.0</ele><time>2026-04-18T16:20:51Z</time></trkpt><trkpt lat="45.12852762445615" lon="10.005410462572891"><ele>33.14285714285714</ele><time>2026-04-18T16:20:52Z</time></trkpt><trkpt lat="45.12849525135894" lon="10.005506131415693"><ele>33.285714285714285</ele><time>2026-04-18T16:20:53Z</time></trkpt><trkpt lat="45.12846141151548" lon="10.00559863543947"><ele>33.42857142857143</ele><time>2026-04-18T16:20:54Z</time></trkpt><trkpt lat="45.12843118782932" lon="10.005691858676325"><ele>33.57142857142857</ele><time>2026-04-18T16:20:55Z</time></trkpt><trkpt lat="45.128397994997144" lon="10.005785579491729"><ele>33.714285714285715</ele><time>2026-04-18T16:20:56Z</time></trkpt><trkpt lat="45.128368817179734" lon="10.005875637928886"><ele>33.857142857142854</ele><time>2026-04-18T16:20:57Z</time></trkpt><trkpt lat="45.1283270411855" lon="10.005969879391165"><ele>34.0</ele><time>2026-04-18T16:20:58Z</time></trkpt><trkpt lat="45.12830327557901" lon="10.006065019401138"><ele>34.333333333333336</ele><time>2026-04-18T16:20:59Z</time></trkpt><trkpt lat="45.12827078927913" lon="10.006152947049786"><ele>34.66666666666667</ele><time>2026-04-18T16:21:00Z</time></trkpt><trkpt lat="45.1282377375322" lon="10.006257072359944"><ele>35.0</ele><time>2026-04-18T16:21:01Z</time></trkpt><trkpt lat="45.1282023755364" lon="10.006353916551483"><ele>35.333333333333336</ele><time>2026-04-18T16:21:02Z</time></trkpt><trkpt lat="45.12816537683012" lon="10.006442235574031"><ele>35.666666666666664</ele><time>2026-04-18T16:21:03Z</time></trkpt><trkpt lat="45.12813146176996" lon="10.006538697972472"><ele>36.0</ele><time>2026-04-18T16:21:04Z</time></trkpt><trkpt lat="45.128099268872894" lon="10.006635904152935"><ele>36.0</ele><time>2026-04-18T16:21:05Z</time></trkpt><trkpt lat="45.12806560024141" lon="10.00673036913076"><ele>36.0</ele><time>2026-04-18T16:21:06Z</time></trkpt><trkpt lat="45.12803323069028" lon="10.006828797174581"><ele>36.0</ele><time>2026-04-18T16:21:07Z</time></trkpt><trkpt lat="45.12799869679753" lon="10.006925978358966"><ele>36.0</ele><time>2026-04-18T16:21:08Z</time></trkpt><trkpt lat="45.12796377010965" lon="10.007022824660975"><ele>36.0</ele><time>2026-04-18T16:21:09Z</time></trkpt><trkpt lat="45.12792909142358" lon="10.007118871915496"><ele>36.0</ele><time>2026-04-18T16:21:10Z</time></trkpt><trkpt lat="45.12789868976973" lon="10.007212117591049"><ele>36.0</ele><time>2026-04-18T16:21:11Z</time></trkpt><trkpt lat="45.127865875009135" lon="10.007311153775131"><ele>36.0</ele><time>2026-04-18T16:21:12Z</time></trkpt><trkpt lat="45.12783064067455" lon="10.00740714238268"><ele>36.0</ele><time>2026-04-18T16:21:13Z</time></trkpt><trkpt lat="45.127795729678645" lon="10.007496171300073"><ele>36.0</ele><time>2026-04-18T16:21:14Z</time></trkpt><trkpt lat="45.12776530790123" lon="10.007588919294777"><ele>36.0</ele><time>2026-04-18T16:21:15Z</time></trkpt><trkpt lat="45.12773129067463" lon="10.007684806872138"><ele>36.0</ele><time>2026-04-18T16:21:16Z</time></trkpt><trkpt lat="45.12769665761053" lon="10.007787703886768"><ele>36.0</ele><time>2026-04-18T16:21:17Z</time></trkpt><trkpt lat="45.12766330668648" lon="10.007887331893565"><ele>36.0</ele><time>2026-04-18T16:21:18Z</time></trkpt><trkpt lat="45.12763495075917" lon="10.00798776583853"><ele>36.0</ele><time>2026-04-18T16:21:19Z</time></trkpt><trkpt lat="45.127603717544744" lon="10.008085390247203"><ele>36.0</ele><time>2026-04-18T16:21:20Z</time></trkpt><trkpt lat="45.12756980203212" lon="10.0081828055498"><ele>36.0</ele><time>2026-04-18T16:21:21Z</time></trkpt><trkpt lat="45.1275371159726" lon="10.00828011259418"><ele>36.0</ele><time>2026-04-18T16:21:22Z</time></trkpt><trkpt lat="45.127504130673245" lon="10.008379459093831"><ele>36.00000000000001</ele><time>2026-04-18T16:21:23Z</time></trkpt><trkpt lat="45.127470352548514" lon="10.00847504286961"><ele>36.0</ele><time>2026-04-18T16:21:24Z</time></trkpt><trkpt lat="45.127433976289026" lon="10.008573270429752"><ele>36.0</ele><time>2026-04-18T16:21:25Z</time></trkpt><trkpt lat="45.12740247173579" lon="10.008669761788653"><ele>36.0</ele><time>2026-04-18T16:21:26Z</time></trkpt><trkpt lat="45.12737024576799" lon="10.008765124442379"><ele>36.0</ele><time>2026-04-18T16:21:27Z</time></trkpt><trkpt lat="45.12733855946464" lon="10.008857599449165"><ele>36.00000000000001</ele><time>2026-04-18T16:21:28Z</time></trkpt><trkpt lat="45.127307256465194" lon="10.008947486770241"><ele>36.0</ele><time>2026-04-18T16:21:29Z</time></trkpt><trkpt lat="45.12727796286486" lon="10.009036255228368"><ele>36.0</ele><time>2026-04-18T16:21:30Z</time></trkpt><trkpt lat="45.12724854742494" lon="10.009117830873842"><ele>36.0</ele><time>2026-04-18T16:21:31Z</time></trkpt><trkpt lat="45.1272435796102" lon="10.009207062414559"><ele>36.0</ele><time>2026-04-18T16:21:32Z</time></trkpt><trkpt lat="45.127199426307044" lon="10.009335276770726"><ele>36.0</ele><time>2026-04-18T16:21:34Z</time></trkpt><trkpt lat="45.127130726110416" lon="10.009355266651704"><ele>36.0</ele><time>2026-04-18T16:21:35Z</time></trkpt><trkpt lat="45.12706992582134" lon="10.009402236774285"><ele>36.0</ele><time>2026-04-18T16:21:37Z</time></trkpt><trkpt lat="45.12699990160506" lon="10.009332170666106"><ele>36.0</ele><time>2026-04-18T16:21:39Z</time></trkpt><trkpt lat="45.12694415834693" lon="10.009257585244507"><ele>36.0</ele><time>2026-04-18T16:21:42Z</time></trkpt><trkpt lat="45.12687567360305" lon="10.009188177092199"><ele>36.0</ele><time>2026-04-18T16:21:43.999Z</time></trkpt><trkpt lat="45.12680814443017" lon="10.009120766950367"><ele>36.0</ele><time>2026-04-18T16:21:45.999Z</time></trkpt><trkpt lat="45.126721810334196" lon="10.009036091146873"><ele>36.0</ele><time>2026-04-18T16:21:47.999Z</time></trkpt><trkpt lat="45.12657846352988" lon="10.00901771616857"><ele>36.5</ele><time>2026-04-18T16:21:49.999Z</time></trkpt><trkpt lat="45.12652014819381" lon="10.008954866807585"><ele>37.0</ele><time>2026-04-18T16:21:50.999Z</time></trkpt><trkpt lat="45.1264216387848" lon="10.008850289243064"><ele>37.5</ele><time>2026-04-18T16:21:52.999Z</time></trkpt><trkpt lat="45.12636812237936" lon="10.008793689144552"><ele>38.0</ele><time>2026-04-18T16:21:53.999Z</time></trkpt><trkpt lat="45.12631641046711" lon="10.00873899753923"><ele>38.5</ele><time>2026-04-18T16:21:54.999Z</time></trkpt><trkpt lat="45.1262295553679" lon="10.008647137781123"><ele>39.0</ele><time>2026-04-18T16:21:56.999Z</time></trkpt><trkpt lat="45.12613743603415" lon="10.008549710460093"><ele>39.0</ele><time>2026-04-18T16:21:58.999Z</time></trkpt><trkpt lat="45.126035526675594" lon="10.008441020716656"><ele>39.0</ele><time>2026-04-18T16:22:00.999Z</time></trkpt><trkpt lat="45.1259838447159" lon="10.008386539065974"><ele>39.0</ele><time>2026-04-18T16:22:01.999Z</time></trkpt><trkpt lat="45.125884643600614" lon="10.008281964049404"><ele>39.0</ele><time>2026-04-18T16:22:03.999Z</time></trkpt><trkpt lat="45.12583121080486" lon="10.008225636700683"><ele>39.0</ele><time>2026-04-18T16:22:04.999Z</time></trkpt><trkpt lat="45.12577601002961" lon="10.008167445612889"><ele>38.42857142857143</ele><time>2026-04-18T16:22:05.999Z</time></trkpt><trkpt lat="45.12571734177331" lon="10.00810559920927"><ele>37.857142857142854</ele><time>2026-04-18T16:22:06.999Z</time></trkpt><trkpt lat="45.12565977465677" lon="10.008044971795234"><ele>37.285714285714285</ele><time>2026-04-18T16:22:07.999Z</time></trkpt><trkpt lat="45.12560506248627" lon="10.007987423057662"><ele>36.714285714285715</ele><time>2026-04-18T16:22:08.999Z</time></trkpt><trkpt lat="45.12554554768148" lon="10.007924822688468"><ele>36.14285714285714</ele><time>2026-04-18T16:22:09.999Z</time></trkpt><trkpt lat="45.12548911149042" lon="10.00786546054797"><ele>35.57142857142857</ele><time>2026-04-18T16:22:10.999Z</time></trkpt><trkpt lat="45.12543640209303" lon="10.007810018413242"><ele>35.0</ele><time>2026-04-18T16:22:11.999Z</time></trkpt><trkpt lat="45.12538559608418" lon="10.007756578348582"><ele>35.0</ele><time>2026-04-18T16:22:12.999Z</time></trkpt><trkpt lat="45.1253349881483" lon="10.007703346629212"><ele>35.0</ele><time>2026-04-18T16:22:13.999Z</time></trkpt><trkpt lat="45.125306285971014" lon="10.007614475119052"><ele>35.0</ele><time>2026-04-18T16:22:14.999Z</time></trkpt><trkpt lat="45.12521791835028" lon="10.007505489857849"><ele>35.0</ele><time>2026-04-18T16:22:16.999Z</time></trkpt><trkpt lat="45.12512972237551" lon="10.007394718518904"><ele>35.0</ele><time>2026-04-18T16:22:18.999Z</time></trkpt><trkpt lat="45.12504553479289" lon="10.007278639022859"><ele>34.6</ele><time>2026-04-18T16:22:20.999Z</time></trkpt><trkpt lat="45.12495605859344" lon="10.007176428960705"><ele>34.2</ele><time>2026-04-18T16:22:22.999Z</time></trkpt><trkpt lat="45.12487825788861" lon="10.007078678335649"><ele>33.8</ele><time>2026-04-18T16:22:24.999Z</time></trkpt><trkpt lat="45.12480154691115" lon="10.006996370234912"><ele>33.4</ele><time>2026-04-18T16:22:26.999Z</time></trkpt><trkpt lat="45.12472326029173" lon="10.006968803643526"><ele>33.0</ele><time>2026-04-18T16:22:28.999Z</time></trkpt><trkpt lat="45.124660319468106" lon="10.007039692303882"><ele>33.8</ele><time>2026-04-18T16:22:30.999Z</time></trkpt><trkpt lat="45.1246186040265" lon="10.0071581123504"><ele>34.599999999999994</ele><time>2026-04-18T16:22:32.999Z</time></trkpt><trkpt lat="45.12458150262302" lon="10.007320522654572"><ele>35.400000000000006</ele><time>2026-04-18T16:22:34.999Z</time></trkpt><trkpt lat="45.12455683140125" lon="10.00741048783939"><ele>36.2</ele><time>2026-04-18T16:22:35.999Z</time></trkpt><trkpt lat="45.12453290760741" lon="10.00749809323715"><ele>37.0</ele><time>2026-04-18T16:22:36.999Z</time></trkpt><trkpt lat="45.12441014522398" lon="10.007518325695287"><ele>37.0</ele><time>2026-04-18T16:22:37.999Z</time></trkpt><trkpt lat="45.12438398552172" lon="10.007601874194096"><ele>37.0</ele><time>2026-04-18T16:22:38.999Z</time></trkpt><trkpt lat="45.12435749430684" lon="10.007685857705722"><ele>37.0</ele><time>2026-04-18T16:22:40Z</time></trkpt><trkpt lat="45.124330994228934" lon="10.007769869457317"><ele>37.0</ele><time>2026-04-18T16:22:41Z</time></trkpt><trkpt lat="45.124303004777595" lon="10.0078542640931"><ele>37.0</ele><time>2026-04-18T16:22:42Z</time></trkpt><trkpt lat="45.12427349074775" lon="10.007943482493216"><ele>37.0</ele><time>2026-04-18T16:22:43Z</time></trkpt><trkpt lat="45.124245251418046" lon="10.008028848950737"><ele>37.0</ele><time>2026-04-18T16:22:44Z</time></trkpt><trkpt lat="45.12421617738332" lon="10.008116406940436"><ele>37.0</ele><time>2026-04-18T16:22:45Z</time></trkpt><trkpt lat="45.12428078888647" lon="10.00826421211785"><ele>37.0</ele><time>2026-04-18T16:22:46Z</time></trkpt><trkpt lat="45.12424998285329" lon="10.008351874660926"><ele>37.0</ele><time>2026-04-18T16:22:47Z</time></trkpt><trkpt lat="45.124219199558766" lon="10.008445987403132"><ele>37.0</ele><time>2026-04-18T16:22:48Z</time></trkpt><trkpt lat="45.12418587099887" lon="10.008539088383854"><ele>37.0</ele><time>2026-04-18T16:22:49Z</time></trkpt><trkpt lat="45.12415255146929" lon="10.008632165796536"><ele>37.0</ele><time>2026-04-18T16:22:50Z</time></trkpt><trkpt lat="45.12411822581222" lon="10.008723751200378"><ele>36.714285714285715</ele><time>2026-04-18T16:22:51Z</time></trkpt><trkpt lat="45.12408513989987" lon="10.00881847866797"><ele>36.42857142857143</ele><time>2026-04-18T16:22:52Z</time></trkpt><trkpt lat="45.12405439571789" lon="10.008909245624498"><ele>36.14285714285714</ele><time>2026-04-18T16:22:53Z</time></trkpt><trkpt lat="45.12402446041287" lon="10.009003520923068"><ele>35.85714285714286</ele><time>2026-04-18T16:22:54Z</time></trkpt><trkpt lat="45.123992911762286" lon="10.009096874199324"><ele>35.57142857142857</ele><time>2026-04-18T16:22:55Z</time></trkpt><trkpt lat="45.12396091182554" lon="10.009191280296236"><ele>35.285714285714285</ele><time>2026-04-18T16:22:56Z</time></trkpt><trkpt lat="45.123928839296646" lon="10.009284157496387"><ele>35.0</ele><time>2026-04-18T16:22:57Z</time></trkpt><trkpt lat="45.12389374558825" lon="10.009377094479985"><ele>35.0</ele><time>2026-04-18T16:22:58Z</time></trkpt><trkpt lat="45.12386359051216" lon="10.009471141006392"><ele>35.0</ele><time>2026-04-18T16:22:59Z</time></trkpt><trkpt lat="45.12383096065834" lon="10.0095643881676"><ele>35.0</ele><time>2026-04-18T16:23:00Z</time></trkpt><trkpt lat="45.123717217256754" lon="10.00960109305629"><ele>35.0</ele><time>2026-04-18T16:23:01Z</time></trkpt><trkpt lat="45.12368680526527" lon="10.009691705991745"><ele>35.0</ele><time>2026-04-18T16:23:02Z</time></trkpt><trkpt lat="45.12365513450556" lon="10.009786069446031"><ele>35.0</ele><time>2026-04-18T16:23:03Z</time></trkpt><trkpt lat="45.12362368290803" lon="10.009879779903457"><ele>35.0</ele><time>2026-04-18T16:23:04Z</time></trkpt><trkpt lat="45.123592136412775" lon="10.009974030014895"><ele>35.0</ele><time>2026-04-18T16:23:05Z</time></trkpt><trkpt lat="45.12356092204416" lon="10.010067782338178"><ele>35.0</ele><time>2026-04-18T16:23:06Z</time></trkpt><trkpt lat="45.123529389194026" lon="10.01016249122067"><ele>35.0</ele><time>2026-04-18T16:23:07Z</time></trkpt><trkpt lat="45.12349691086065" lon="10.01026003985981"><ele>35.0</ele><time>2026-04-18T16:23:08Z</time></trkpt><trkpt lat="45.12346559022284" lon="10.010354111363972"><ele>35.0</ele><time>2026-04-18T16:23:09Z</time></trkpt><trkpt lat="45.12343344524752" lon="10.01045014746983"><ele>35.0</ele><time>2026-04-18T16:23:10Z</time></trkpt><trkpt lat="45.123401791382086" lon="10.010544609088694"><ele>34.857142857142854</ele><time>2026-04-18T16:23:11Z</time></trkpt><trkpt lat="45.12337042341945" lon="10.010638217515446"><ele>34.714285714285715</ele><time>2026-04-18T16:23:12Z</time></trkpt><trkpt lat="45.12333914981367" lon="10.010731544360445"><ele>34.57142857142857</ele><time>2026-04-18T16:23:13Z</time></trkpt><trkpt lat="45.12330843850679" lon="10.01082319318862"><ele>34.42857142857143</ele><time>2026-04-18T16:23:14Z</time></trkpt><trkpt lat="45.12327719334128" lon="10.01091643515915"><ele>34.285714285714285</ele><time>2026-04-18T16:23:15Z</time></trkpt><trkpt lat="45.123245538719466" lon="10.011010899034249"><ele>34.14285714285714</ele><time>2026-04-18T16:23:16Z</time></trkpt><trkpt lat="45.12321405691731" lon="10.01110484718212"><ele>34.0</ele><time>2026-04-18T16:23:17Z</time></trkpt><trkpt lat="45.123182677456015" lon="10.011198489919304"><ele>33.99999999999999</ele><time>2026-04-18T16:23:18Z</time></trkpt><trkpt lat="45.12315200104661" lon="10.011290034608857"><ele>34.0</ele><time>2026-04-18T16:23:19Z</time></trkpt><trkpt lat="45.123120353370645" lon="10.011384477755747"><ele>34.0</ele><time>2026-04-18T16:23:20Z</time></trkpt><trkpt lat="45.12308816334595" lon="10.011480551256163"><ele>34.0</ele><time>2026-04-18T16:23:21Z</time></trkpt><trkpt lat="45.12305605626269" lon="10.011576448450656"><ele>34.0</ele><time>2026-04-18T16:23:22Z</time></trkpt><trkpt lat="45.123023918527345" lon="10.01167248637851"><ele>33.99999999999999</ele><time>2026-04-18T16:23:23Z</time></trkpt><trkpt lat="45.122991457403565" lon="10.011769541859975"><ele>34.0</ele><time>2026-04-18T16:23:24Z</time></trkpt><trkpt lat="45.12295846701532" lon="10.011868179787426"><ele>34.0</ele><time>2026-04-18T16:23:25Z</time></trkpt><trkpt lat="45.122925154482594" lon="10.011967780899344"><ele>34.0</ele><time>2026-04-18T16:23:26Z</time></trkpt><trkpt lat="45.12289316217265" lon="10.012063434672491"><ele>34.0</ele><time>2026-04-18T16:23:27Z</time></trkpt><trkpt lat="45.12286155724806" lon="10.012159324601903"><ele>34.0</ele><time>2026-04-18T16:23:28Z</time></trkpt><trkpt lat="45.1228300436773" lon="10.012255028027676"><ele>34.0</ele><time>2026-04-18T16:23:29Z</time></trkpt><trkpt lat="45.12279742702721" lon="10.012351387495574"><ele>34.0</ele><time>2026-04-18T16:23:30Z</time></trkpt><trkpt lat="45.122764573185265" lon="10.012445361882573"><ele>33.5</ele><time>2026-04-18T16:23:31Z</time></trkpt><trkpt lat="45.12272921568974" lon="10.012537884405637"><ele>33.0</ele><time>2026-04-18T16:23:32Z</time></trkpt><trkpt lat="45.122704333145" lon="10.012634100646265"><ele>32.5</ele><time>2026-04-18T16:23:33Z</time></trkpt><trkpt lat="45.12265499167268" lon="10.012722817964278"><ele>32.0</ele><time>2026-04-18T16:23:34Z</time></trkpt><trkpt lat="45.122630495697734" lon="10.012826904309954"><ele>31.500000000000004</ele><time>2026-04-18T16:23:35Z</time></trkpt><trkpt lat="45.12257718548431" lon="10.012908951896705"><ele>31.0</ele><time>2026-04-18T16:23:36Z</time></trkpt><trkpt lat="45.122538148635" lon="10.012997179554992"><ele>31.000000000000004</ele><time>2026-04-18T16:23:37Z</time></trkpt><trkpt lat="45.122505625336395" lon="10.013100842213936"><ele>31.0</ele><time>2026-04-18T16:23:38Z</time></trkpt><trkpt lat="45.12245816070733" lon="10.013187798333744"><ele>31.0</ele><time>2026-04-18T16:23:39Z</time></trkpt><trkpt lat="45.122394177405965" lon="10.01325939740228"><ele>31.0</ele><time>2026-04-18T16:23:40Z</time></trkpt><trkpt lat="45.122343821818546" lon="10.01334426882216"><ele>31.000000000000004</ele><time>2026-04-18T16:23:41Z</time></trkpt><trkpt lat="45.1223027504747" lon="10.013441288191466"><ele>31.0</ele><time>2026-04-18T16:23:42Z</time></trkpt><trkpt lat="45.122250239940236" lon="10.013521651771082"><ele>31.166666666666668</ele><time>2026-04-18T16:23:43Z</time></trkpt><trkpt lat="45.12219253344421" lon="10.013601107369011"><ele>31.333333333333336</ele><time>2026-04-18T16:23:44Z</time></trkpt><trkpt lat="45.122140347931065" lon="10.013685850485873"><ele>31.5</ele><time>2026-04-18T16:23:45Z</time></trkpt><trkpt lat="45.12208911595736" lon="10.013764862486013"><ele>31.666666666666664</ele><time>2026-04-18T16:23:46Z</time></trkpt><trkpt lat="45.12203587838017" lon="10.013849162260263"><ele>31.833333333333332</ele><time>2026-04-18T16:23:46.999Z</time></trkpt><trkpt lat="45.121994071369585" lon="10.013944939547896"><ele>32.0</ele><time>2026-04-18T16:23:47.999Z</time></trkpt><trkpt lat="45.12194134020242" lon="10.014027275356257"><ele>31.999999999999996</ele><time>2026-04-18T16:23:48.999Z</time></trkpt><trkpt lat="45.12187722378127" lon="10.01409456330894"><ele>32.0</ele><time>2026-04-18T16:23:49.999Z</time></trkpt><trkpt lat="45.12182517496421" lon="10.01417616995615"><ele>32.0</ele><time>2026-04-18T16:23:50.999Z</time></trkpt><trkpt lat="45.12177356019681" lon="10.01425935866101"><ele>32.0</ele><time>2026-04-18T16:23:51.999Z</time></trkpt><trkpt lat="45.1217226498879" lon="10.014341904737805"><ele>31.999999999999996</ele><time>2026-04-18T16:23:52.999Z</time></trkpt><trkpt lat="45.12168390112293" lon="10.014439153910132"><ele>32.0</ele><time>2026-04-18T16:23:53.999Z</time></trkpt><trkpt lat="45.12163382983174" lon="10.014520630612905"><ele>32.33333333333333</ele><time>2026-04-18T16:23:54.999Z</time></trkpt><trkpt lat="45.121579379503665" lon="10.014602404323307"><ele>32.666666666666664</ele><time>2026-04-18T16:23:55.999Z</time></trkpt><trkpt lat="45.12152096145649" lon="10.014678134920853"><ele>33.0</ele><time>2026-04-18T16:23:56.999Z</time></trkpt><trkpt lat="45.121471486438914" lon="10.014764298836687"><ele>33.333333333333336</ele><time>2026-04-18T16:23:57.999Z</time></trkpt><trkpt lat="45.121423256220204" lon="10.014848505628546"><ele>33.66666666666667</ele><time>2026-04-18T16:23:58.999Z</time></trkpt><trkpt lat="45.121372931167826" lon="10.014930601043986"><ele>34.0</ele><time>2026-04-18T16:23:59.999Z</time></trkpt><trkpt lat="45.12133150642789" lon="10.01502701626759"><ele>34.333333333333336</ele><time>2026-04-18T16:24:00.999Z</time></trkpt><trkpt lat="45.12128275048378" lon="10.015116259326883"><ele>34.66666666666667</ele><time>2026-04-18T16:24:01.999Z</time></trkpt><trkpt lat="45.121219038975745" lon="10.015193822765927"><ele>35.0</ele><time>2026-04-18T16:24:02.999Z</time></trkpt><trkpt lat="45.121167035274404" lon="10.015286705666858"><ele>35.333333333333336</ele><time>2026-04-18T16:24:03.999Z</time></trkpt><trkpt lat="45.121133932513935" lon="10.015379527045283"><ele>35.666666666666664</ele><time>2026-04-18T16:24:04.999Z</time></trkpt><trkpt lat="45.121085867082776" lon="10.015458308386762"><ele>36.0</ele><time>2026-04-18T16:24:05.999Z</time></trkpt><trkpt lat="45.12103949370264" lon="10.015541222480383"><ele>36.0</ele><time>2026-04-18T16:24:06.999Z</time></trkpt><trkpt lat="45.1209934630304" lon="10.01563070007259"><ele>36.0</ele><time>2026-04-18T16:24:07.999Z</time></trkpt><trkpt lat="45.12094942679472" lon="10.015711890798253"><ele>36.0</ele><time>2026-04-18T16:24:08.999Z</time></trkpt><trkpt lat="45.12090119526011" lon="10.015794889867358"><ele>36.0</ele><time>2026-04-18T16:24:09.999Z</time></trkpt><trkpt lat="45.12085450008427" lon="10.015883009299255"><ele>36.0</ele><time>2026-04-18T16:24:10.999Z</time></trkpt><trkpt lat="45.12080778682947" lon="10.015964730053023"><ele>36.0</ele><time>2026-04-18T16:24:11.999Z</time></trkpt><trkpt lat="45.12075889615484" lon="10.016049809746384"><ele>35.333333333333336</ele><time>2026-04-18T16:24:12.999Z</time></trkpt><trkpt lat="45.12071251954714" lon="10.016141713300476"><ele>34.666666666666664</ele><time>2026-04-18T16:24:13.999Z</time></trkpt><trkpt lat="45.12066718309607" lon="10.016231655579636"><ele>34.0</ele><time>2026-04-18T16:24:14.999Z</time></trkpt><trkpt lat="45.12062545361491" lon="10.016323501848102"><ele>33.33333333333333</ele><time>2026-04-18T16:24:15.999Z</time></trkpt><trkpt lat="45.12058278854139" lon="10.016417504854083"><ele>32.666666666666664</ele><time>2026-04-18T16:24:16.999Z</time></trkpt><trkpt lat="45.12052657781082" lon="10.016501574661735"><ele>32.0</ele><time>2026-04-18T16:24:17.999Z</time></trkpt><trkpt lat="45.12048562605462" lon="10.016594687082998"><ele>32.33333333333333</ele><time>2026-04-18T16:24:18.999Z</time></trkpt><trkpt lat="45.12044567322517" lon="10.016685528233317"><ele>32.666666666666664</ele><time>2026-04-18T16:24:19.999Z</time></trkpt><trkpt lat="45.12040952713003" lon="10.016767713969065"><ele>33.0</ele><time>2026-04-18T16:24:20.999Z</time></trkpt><trkpt lat="45.120384235095685" lon="10.016865507503674"><ele>33.333333333333336</ele><time>2026-04-18T16:24:21.999Z</time></trkpt><trkpt lat="45.12034325826006" lon="10.016958768328811"><ele>33.66666666666667</ele><time>2026-04-18T16:24:22.999Z</time></trkpt><trkpt lat="45.120301325242494" lon="10.017053985344006"><ele>34.0</ele><time>2026-04-18T16:24:23.999Z</time></trkpt><trkpt lat="45.12026034984586" lon="10.017148573975858"><ele>33.99999999999999</ele><time>2026-04-18T16:24:24.999Z</time></trkpt><trkpt lat="45.1202218489697" lon="10.017244677923383"><ele>34.0</ele><time>2026-04-18T16:24:25.999Z</time></trkpt><trkpt lat="45.12017915450823" lon="10.017332976466761"><ele>34.0</ele><time>2026-04-18T16:24:26.999Z</time></trkpt><trkpt lat="45.12013714820226" lon="10.017424860401691"><ele>34.0</ele><time>2026-04-18T16:24:27.999Z</time></trkpt><trkpt lat="45.12010546340088" lon="10.01752371005734"><ele>34.0</ele><time>2026-04-18T16:24:28.999Z</time></trkpt><trkpt lat="45.12006782432494" lon="10.017608819135909"><ele>33.99999999999999</ele><time>2026-04-18T16:24:29.999Z</time></trkpt><trkpt lat="45.12003109714323" lon="10.017688674622146"><ele>34.0</ele><time>2026-04-18T16:24:30.999Z</time></trkpt><trkpt lat="45.11998934041831" lon="10.01777195406717"><ele>33.99999999999999</ele><time>2026-04-18T16:24:31.999Z</time></trkpt><trkpt lat="45.11994987798636" lon="10.017858379313783"><ele>34.0</ele><time>2026-04-18T16:24:32.999Z</time></trkpt><trkpt lat="45.11991479594374" lon="10.017952063880225"><ele>34.0</ele><time>2026-04-18T16:24:33.999Z</time></trkpt><trkpt lat="45.11987617941845" lon="10.018034132021869"><ele>34.0</ele><time>2026-04-18T16:24:34.999Z</time></trkpt><trkpt lat="45.11983040929564" lon="10.018107697121831"><ele>34.0</ele><time>2026-04-18T16:24:35.999Z</time></trkpt><trkpt lat="45.11980261307597" lon="10.018202925156759"><ele>33.99999999999999</ele><time>2026-04-18T16:24:36.999Z</time></trkpt><trkpt lat="45.11975959238861" lon="10.018314099208805"><ele>34.0</ele><time>2026-04-18T16:24:37.999Z</time></trkpt><trkpt lat="45.11972252511852" lon="10.018421725227611"><ele>33.66666666666667</ele><time>2026-04-18T16:24:38.999Z</time></trkpt><trkpt lat="45.11966958912335" lon="10.01850446062479"><ele>33.333333333333336</ele><time>2026-04-18T16:24:39.999Z</time></trkpt><trkpt lat="45.11964405459274" lon="10.018608902235679"><ele>33.0</ele><time>2026-04-18T16:24:40.999Z</time></trkpt><trkpt lat="45.11959089151776" lon="10.018690559673939"><ele>32.666666666666664</ele><time>2026-04-18T16:24:41.999Z</time></trkpt><trkpt lat="45.1195648686885" lon="10.018795597640313"><ele>32.33333333333333</ele><time>2026-04-18T16:24:42.999Z</time></trkpt><trkpt lat="45.11952568172402" lon="10.018888056206709"><ele>32.0</ele><time>2026-04-18T16:24:43.998Z</time></trkpt><trkpt lat="45.119483496704326" lon="10.01897733281229"><ele>31.999999999999996</ele><time>2026-04-18T16:24:44.998Z</time></trkpt><trkpt lat="45.11944275235332" lon="10.019069911715277"><ele>32.0</ele><time>2026-04-18T16:24:46Z</time></trkpt><trkpt lat="45.11940206879057" lon="10.019159704265467"><ele>32.0</ele><time>2026-04-18T16:24:47Z</time></trkpt><trkpt lat="45.11936221130369" lon="10.019254353998283"><ele>32.0</ele><time>2026-04-18T16:24:48Z</time></trkpt><trkpt lat="45.11932066520267" lon="10.019349837731044"><ele>31.999999999999996</ele><time>2026-04-18T16:24:49Z</time></trkpt><trkpt lat="45.11927773884603" lon="10.01944202998365"><ele>32.0</ele><time>2026-04-18T16:24:50Z</time></trkpt><trkpt lat="45.11922752744593" lon="10.019525477185924"><ele>31.999999999999996</ele><time>2026-04-18T16:24:51Z</time></trkpt><trkpt lat="45.119185691446056" lon="10.019625083053635"><ele>32.0</ele><time>2026-04-18T16:24:52Z</time></trkpt><trkpt lat="45.119135964916424" lon="10.019708885909418"><ele>32.0</ele><time>2026-04-18T16:24:53Z</time></trkpt><trkpt lat="45.119081749970825" lon="10.019783587390343"><ele>32.0</ele><time>2026-04-18T16:24:54Z</time></trkpt><trkpt lat="45.119027050429466" lon="10.01986182798208"><ele>31.999999999999996</ele><time>2026-04-18T16:24:55Z</time></trkpt><trkpt lat="45.11896660697654" lon="10.01993421558778"><ele>32.0</ele><time>2026-04-18T16:24:56Z</time></trkpt><trkpt lat="45.11890563071322" lon="10.020002180393792"><ele>32.166666666666664</ele><time>2026-04-18T16:24:57Z</time></trkpt><trkpt lat="45.11884794672427" lon="10.020079030741941"><ele>32.33333333333333</ele><time>2026-04-18T16:24:58Z</time></trkpt><trkpt lat="45.11879286261115" lon="10.020162173428313"><ele>32.5</ele><time>2026-04-18T16:24:59Z</time></trkpt><trkpt lat="45.118762478907776" lon="10.020260190489902"><ele>32.666666666666664</ele><time>2026-04-18T16:25:00Z</time></trkpt><trkpt lat="45.11870852121184" lon="10.020334793063654"><ele>32.833333333333336</ele><time>2026-04-18T16:25:01Z</time></trkpt><trkpt lat="45.11865740928383" lon="10.02041209410393"><ele>33.0</ele><time>2026-04-18T16:25:02Z</time></trkpt><trkpt lat="45.118603944411916" lon="10.020482890016845"><ele>33.0</ele><time>2026-04-18T16:25:03Z</time></trkpt><trkpt lat="45.11855217101194" lon="10.020558830565903"><ele>33.0</ele><time>2026-04-18T16:25:04Z</time></trkpt><trkpt lat="45.1184998121268" lon="10.020627873556354"><ele>33.0</ele><time>2026-04-18T16:25:05Z</time></trkpt><trkpt lat="45.11844525867876" lon="10.020704079281506"><ele>33.0</ele><time>2026-04-18T16:25:06Z</time></trkpt><trkpt lat="45.11839025502414" lon="10.020778970042159"><ele>33.0</ele><time>2026-04-18T16:25:07Z</time></trkpt><trkpt lat="45.118335445825394" lon="10.02085293293282"><ele>33.0</ele><time>2026-04-18T16:25:08Z</time></trkpt><trkpt lat="45.11828094620483" lon="10.020925989421636"><ele>32.833333333333336</ele><time>2026-04-18T16:25:09Z</time></trkpt><trkpt lat="45.11822662570348" lon="10.021003631474994"><ele>32.666666666666664</ele><time>2026-04-18T16:25:10Z</time></trkpt><trkpt lat="45.118171565676725" lon="10.021077433264262"><ele>32.5</ele><time>2026-04-18T16:25:11Z</time></trkpt><trkpt lat="45.118115393837215" lon="10.021149113339584"><ele>32.33333333333333</ele><time>2026-04-18T16:25:12Z</time></trkpt><trkpt lat="45.11805812125326" lon="10.021219642054753"><ele>32.166666666666664</ele><time>2026-04-18T16:25:13Z</time></trkpt><trkpt lat="45.1179983059885" lon="10.021288368888989"><ele>32.0</ele><time>2026-04-18T16:25:14Z</time></trkpt><trkpt lat="45.117941135810455" lon="10.021355741517487"><ele>31.999999999999996</ele><time>2026-04-18T16:25:15Z</time></trkpt><trkpt lat="45.117885167577" lon="10.021425660319615"><ele>32.0</ele><time>2026-04-18T16:25:16Z</time></trkpt><trkpt lat="45.11782760474794" lon="10.021493969228883"><ele>32.0</ele><time>2026-04-18T16:25:17Z</time></trkpt><trkpt lat="45.11776830347397" lon="10.0215610182916"><ele>32.0</ele><time>2026-04-18T16:25:18Z</time></trkpt><trkpt lat="45.11771098527017" lon="10.021626975863423"><ele>31.999999999999996</ele><time>2026-04-18T16:25:19Z</time></trkpt><trkpt lat="45.117650845714564" lon="10.021696709387207"><ele>32.0</ele><time>2026-04-18T16:25:20Z</time></trkpt><trkpt lat="45.117591959843026" lon="10.021768101278415"><ele>31.999999999999996</ele><time>2026-04-18T16:25:21Z</time></trkpt><trkpt lat="45.117541216085215" lon="10.021850683166564"><ele>32.0</ele><time>2026-04-18T16:25:22Z</time></trkpt><trkpt lat="45.11748152532439" lon="10.021916460271191"><ele>32.0</ele><time>2026-04-18T16:25:23Z</time></trkpt><trkpt lat="45.117414817697586" lon="10.021972465464419"><ele>32.0</ele><time>2026-04-18T16:25:24Z</time></trkpt><trkpt lat="45.11736881685241" lon="10.022054599954972"><ele>31.999999999999996</ele><time>2026-04-18T16:25:25Z</time></trkpt><trkpt lat="45.11730516214173" lon="10.022114175489214"><ele>32.0</ele><time>2026-04-18T16:25:26Z</time></trkpt><trkpt lat="45.11724747164591" lon="10.022184105062047"><ele>31.999999999999996</ele><time>2026-04-18T16:25:27Z</time></trkpt><trkpt lat="45.11719452091747" lon="10.022258444232415"><ele>32.0</ele><time>2026-04-18T16:25:28Z</time></trkpt><trkpt lat="45.117136300677764" lon="10.022326259822039"><ele>32.0</ele><time>2026-04-18T16:25:29Z</time></trkpt><trkpt lat="45.117078451173946" lon="10.02239229317844"><ele>32.0</ele><time>2026-04-18T16:25:30Z</time></trkpt><trkpt lat="45.11700931575728" lon="10.02244744503076"><ele>31.999999999999996</ele><time>2026-04-18T16:25:31Z</time></trkpt><trkpt lat="45.116962562802506" lon="10.0225366244471"><ele>32.0</ele><time>2026-04-18T16:25:32Z</time></trkpt><trkpt lat="45.11690719443732" lon="10.022610530177944"><ele>32.166666666666664</ele><time>2026-04-18T16:25:33Z</time></trkpt><trkpt lat="45.11685619780744" lon="10.022693724196026"><ele>32.33333333333333</ele><time>2026-04-18T16:25:34Z</time></trkpt><trkpt lat="45.116795746534464" lon="10.022764015897812"><ele>32.5</ele><time>2026-04-18T16:25:35Z</time></trkpt><trkpt lat="45.11674742993539" lon="10.022848692028496"><ele>32.666666666666664</ele><time>2026-04-18T16:25:36Z</time></trkpt><trkpt lat="45.11670005716785" lon="10.022933822395284"><ele>32.833333333333336</ele><time>2026-04-18T16:25:37Z</time></trkpt><trkpt lat="45.116665538595875" lon="10.023032105093778"><ele>33.0</ele><time>2026-04-18T16:25:38Z</time></trkpt><trkpt lat="45.116617228798404" lon="10.02311433552246"><ele>32.833333333333336</ele><time>2026-04-18T16:25:39Z</time></trkpt><trkpt lat="45.11656749364665" lon="10.02319573869308"><ele>32.666666666666664</ele><time>2026-04-18T16:25:40Z</time></trkpt><trkpt lat="45.11652031334495" lon="10.023280622691045"><ele>32.5</ele><time>2026-04-18T16:25:41Z</time></trkpt><trkpt lat="45.1164728417974" lon="10.023364900479487"><ele>32.33333333333333</ele><time>2026-04-18T16:25:42Z</time></trkpt><trkpt lat="45.116429386193985" lon="10.02345850013733"><ele>32.166666666666664</ele><time>2026-04-18T16:25:43Z</time></trkpt><trkpt lat="45.11638981226624" lon="10.023552070057828"><ele>32.0</ele><time>2026-04-18T16:25:44Z</time></trkpt><trkpt lat="45.116338049286604" lon="10.02363834658099"><ele>31.999999999999996</ele><time>2026-04-18T16:25:45Z</time></trkpt><trkpt lat="45.11630022583512" lon="10.023735126366866"><ele>32.0</ele><time>2026-04-18T16:25:46Z</time></trkpt><trkpt lat="45.11627510963615" lon="10.02383821338222"><ele>32.0</ele><time>2026-04-18T16:25:47Z</time></trkpt><trkpt lat="45.11622707690815" lon="10.023927506937607"><ele>32.0</ele><time>2026-04-18T16:25:48Z</time></trkpt><trkpt lat="45.116190476724704" lon="10.024026033408443"><ele>31.999999999999996</ele><time>2026-04-18T16:25:49Z</time></trkpt><trkpt lat="45.11615304708049" lon="10.024126792682685"><ele>32.0</ele><time>2026-04-18T16:25:50Z</time></trkpt><trkpt lat="45.11611815807164" lon="10.02422071271582"><ele>31.999999999999996</ele><time>2026-04-18T16:25:51Z</time></trkpt><trkpt lat="45.1160814491597" lon="10.024319531860456"><ele>32.0</ele><time>2026-04-18T16:25:51.999Z</time></trkpt><trkpt lat="45.11604297688082" lon="10.02442309798526"><ele>32.0</ele><time>2026-04-18T16:25:52.999Z</time></trkpt><trkpt lat="45.116005340831826" lon="10.024524412864068"><ele>32.0</ele><time>2026-04-18T16:25:53.999Z</time></trkpt><trkpt lat="45.11596708193256" lon="10.024627404780858"><ele>31.999999999999996</ele><time>2026-04-18T16:25:54.999Z</time></trkpt><trkpt lat="45.11592805484397" lon="10.02472715831199"><ele>32.0</ele><time>2026-04-18T16:25:55.999Z</time></trkpt><trkpt lat="45.11589438003543" lon="10.024808074232945"><ele>31.999999999999996</ele><time>2026-04-18T16:25:56.999Z</time></trkpt><trkpt lat="45.11585988755036" lon="10.024889905169083"><ele>32.0</ele><time>2026-04-18T16:25:57.999Z</time></trkpt><trkpt lat="45.11579012185311" lon="10.025002897413586"><ele>32.0</ele><time>2026-04-18T16:25:59.999Z</time></trkpt><trkpt lat="45.11569553749798" lon="10.025095887981626"><ele>32.0</ele><time>2026-04-18T16:26:00.999Z</time></trkpt><trkpt lat="45.11562218864394" lon="10.025130352115228"><ele>31.999999999999996</ele><time>2026-04-18T16:26:01.999Z</time></trkpt><trkpt lat="45.115552506022205" lon="10.025184693328702"><ele>32.0</ele><time>2026-04-18T16:26:02.999Z</time></trkpt><trkpt lat="45.115475711063745" lon="10.025217601097019"><ele>31.857142857142854</ele><time>2026-04-18T16:26:03.999Z</time></trkpt><trkpt lat="45.11540607441783" lon="10.02524612599874"><ele>31.71428571428571</ele><time>2026-04-18T16:26:04.999Z</time></trkpt><trkpt lat="45.115337528131256" lon="10.025294679143409"><ele>31.57142857142857</ele><time>2026-04-18T16:26:05.999Z</time></trkpt><trkpt lat="45.1152663167767" lon="10.025321850796319"><ele>31.42857142857143</ele><time>2026-04-18T16:26:06.999Z</time></trkpt><trkpt lat="45.11519444568194" lon="10.02534658512782"><ele>31.28571428571429</ele><time>2026-04-18T16:26:07.999Z</time></trkpt><trkpt lat="45.115121600687985" lon="10.025376881502746"><ele>31.142857142857146</ele><time>2026-04-18T16:26:08.999Z</time></trkpt><trkpt lat="45.115049184774314" lon="10.025402108353177"><ele>31.0</ele><time>2026-04-18T16:26:09.999Z</time></trkpt><trkpt lat="45.11497364369725" lon="10.025423696835981"><ele>31.000000000000004</ele><time>2026-04-18T16:26:10.999Z</time></trkpt><trkpt lat="45.11490786358606" lon="10.025457433889965"><ele>31.0</ele><time>2026-04-18T16:26:11.999Z</time></trkpt><trkpt lat="45.114833094039966" lon="10.025481667464962"><ele>31.0</ele><time>2026-04-18T16:26:12.999Z</time></trkpt><trkpt lat="45.11476091718439" lon="10.025512406228835"><ele>31.0</ele><time>2026-04-18T16:26:13.999Z</time></trkpt><trkpt lat="45.11468486028045" lon="10.025538802277753"><ele>31.000000000000004</ele><time>2026-04-18T16:26:14.999Z</time></trkpt><trkpt lat="45.11460930001982" lon="10.025569438084448"><ele>31.0</ele><time>2026-04-18T16:26:15.999Z</time></trkpt><trkpt lat="45.114538952844015" lon="10.025591911993502"><ele>31.0</ele><time>2026-04-18T16:26:16.999Z</time></trkpt><trkpt lat="45.11445923776754" lon="10.025593761044878"><ele>31.000000000000004</ele><time>2026-04-18T16:26:17.999Z</time></trkpt><trkpt lat="45.11438624575166" lon="10.025638033290006"><ele>31.0</ele><time>2026-04-18T16:26:18.999Z</time></trkpt><trkpt lat="45.11431300966745" lon="10.025656069589314"><ele>31.0</ele><time>2026-04-18T16:26:19.999Z</time></trkpt><trkpt lat="45.114247819593466" lon="10.02567431437927"><ele>31.000000000000004</ele><time>2026-04-18T16:26:20.999Z</time></trkpt><trkpt lat="45.114175210948936" lon="10.025692423323317"><ele>31.0</ele><time>2026-04-18T16:26:21.999Z</time></trkpt><trkpt lat="45.11410760443627" lon="10.025714011753118"><ele>31.0</ele><time>2026-04-18T16:26:22.999Z</time></trkpt><trkpt lat="45.11403236746067" lon="10.025742216681618"><ele>31.28571428571429</ele><time>2026-04-18T16:26:23.999Z</time></trkpt><trkpt lat="45.11395565499012" lon="10.025769907989673"><ele>31.571428571428577</ele><time>2026-04-18T16:26:24.999Z</time></trkpt><trkpt lat="45.11387897667622" lon="10.025792553541908"><ele>31.857142857142858</ele><time>2026-04-18T16:26:25.999Z</time></trkpt><trkpt lat="45.11380841415552" lon="10.025815039555937"><ele>32.142857142857146</ele><time>2026-04-18T16:26:26.999Z</time></trkpt><trkpt lat="45.113743092447876" lon="10.025826043995531"><ele>32.42857142857143</ele><time>2026-04-18T16:26:27.999Z</time></trkpt><trkpt lat="45.11367071341361" lon="10.025853067492234"><ele>32.714285714285715</ele><time>2026-04-18T16:26:28.999Z</time></trkpt><trkpt lat="45.11359680759834" lon="10.025874609927623"><ele>33.0</ele><time>2026-04-18T16:26:29.999Z</time></trkpt><trkpt lat="45.11352701699393" lon="10.025886807250563"><ele>33.0</ele><time>2026-04-18T16:26:30.999Z</time></trkpt><trkpt lat="45.1134499697687" lon="10.025912730076262"><ele>33.0</ele><time>2026-04-18T16:26:31.999Z</time></trkpt><trkpt lat="45.11337573916931" lon="10.02593124153288"><ele>33.0</ele><time>2026-04-18T16:26:32.999Z</time></trkpt><trkpt lat="45.113298126311236" lon="10.02595918390963"><ele>33.0</ele><time>2026-04-18T16:26:33.999Z</time></trkpt><trkpt lat="45.11322203539484" lon="10.025985417377802"><ele>33.0</ele><time>2026-04-18T16:26:34.999Z</time></trkpt><trkpt lat="45.11314178930752" lon="10.026012694252621"><ele>33.0</ele><time>2026-04-18T16:26:35.999Z</time></trkpt><trkpt lat="45.113066643362785" lon="10.026037682068761"><ele>32.833333333333336</ele><time>2026-04-18T16:26:36.999Z</time></trkpt><trkpt lat="45.11299261526269" lon="10.026060349121156"><ele>32.666666666666664</ele><time>2026-04-18T16:26:37.999Z</time></trkpt><trkpt lat="45.112916411420656" lon="10.02608387470639"><ele>32.5</ele><time>2026-04-18T16:26:38.999Z</time></trkpt><trkpt lat="45.11284327864836" lon="10.026115752561159"><ele>32.33333333333333</ele><time>2026-04-18T16:26:39.999Z</time></trkpt><trkpt lat="45.11276931206956" lon="10.02614326739687"><ele>32.166666666666664</ele><time>2026-04-18T16:26:40.999Z</time></trkpt><trkpt lat="45.112697386473286" lon="10.026170561302898"><ele>32.0</ele><time>2026-04-18T16:26:41.999Z</time></trkpt><trkpt lat="45.112622902501734" lon="10.026205263646716"><ele>31.999999999999996</ele><time>2026-04-18T16:26:42.999Z</time></trkpt><trkpt lat="45.11254908283777" lon="10.02624090339557"><ele>32.0</ele><time>2026-04-18T16:26:43.999Z</time></trkpt><trkpt lat="45.11247508064473" lon="10.02627981819778"><ele>32.0</ele><time>2026-04-18T16:26:44.999Z</time></trkpt><trkpt lat="45.1124028979667" lon="10.026317090031862"><ele>32.0</ele><time>2026-04-18T16:26:45.999Z</time></trkpt><trkpt lat="45.1123306396821" lon="10.026364713148906"><ele>31.999999999999996</ele><time>2026-04-18T16:26:46.999Z</time></trkpt><trkpt lat="45.112258754562546" lon="10.02639915472526"><ele>32.0</ele><time>2026-04-18T16:26:47.999Z</time></trkpt><trkpt lat="45.11218647325305" lon="10.02643430645458"><ele>31.999999999999996</ele><time>2026-04-18T16:26:48.998Z</time></trkpt><trkpt lat="45.11211501782535" lon="10.026479303998943"><ele>32.0</ele><time>2026-04-18T16:26:49.998Z</time></trkpt><trkpt lat="45.1120438394484" lon="10.026517141089322"><ele>32.0</ele><time>2026-04-18T16:26:51Z</time></trkpt><trkpt lat="45.11197037997013" lon="10.026556324140094"><ele>32.0</ele><time>2026-04-18T16:26:52Z</time></trkpt><trkpt lat="45.11189770949928" lon="10.02659323822751"><ele>31.999999999999996</ele><time>2026-04-18T16:26:53Z</time></trkpt><trkpt lat="45.111824691951256" lon="10.026633001386864"><ele>32.0</ele><time>2026-04-18T16:26:54Z</time></trkpt><trkpt lat="45.111753235770145" lon="10.026682651816575"><ele>31.833333333333332</ele><time>2026-04-18T16:26:55Z</time></trkpt><trkpt lat="45.111681435330894" lon="10.026714840535725"><ele>31.666666666666664</ele><time>2026-04-18T16:26:56Z</time></trkpt><trkpt lat="45.11161009548101" lon="10.02676399545483"><ele>31.5</ele><time>2026-04-18T16:26:57Z</time></trkpt><trkpt lat="45.11154027469145" lon="10.026801592314186"><ele>31.333333333333336</ele><time>2026-04-18T16:26:58Z</time></trkpt><trkpt lat="45.11146849805518" lon="10.026839447489833"><ele>31.166666666666668</ele><time>2026-04-18T16:26:59Z</time></trkpt><trkpt lat="45.111398337176475" lon="10.02687611638728"><ele>31.0</ele><time>2026-04-18T16:27:00Z</time></trkpt><trkpt lat="45.11132732633067" lon="10.026912670389503"><ele>31.666666666666668</ele><time>2026-04-18T16:27:01Z</time></trkpt><trkpt lat="45.11125642031814" lon="10.026954387040425"><ele>32.333333333333336</ele><time>2026-04-18T16:27:02Z</time></trkpt><trkpt lat="45.11118139822359" lon="10.026979121066542"><ele>33.0</ele><time>2026-04-18T16:27:03Z</time></trkpt><trkpt lat="45.11111234695003" lon="10.027015456580854"><ele>33.666666666666664</ele><time>2026-04-18T16:27:04Z</time></trkpt><trkpt lat="45.11104718929363" lon="10.027073890194524"><ele>34.33333333333333</ele><time>2026-04-18T16:27:05Z</time></trkpt><trkpt lat="45.11097726056653" lon="10.027109088554177"><ele>35.0</ele><time>2026-04-18T16:27:06Z</time></trkpt><trkpt lat="45.11089938999775" lon="10.027126498575363"><ele>35.0</ele><time>2026-04-18T16:27:07Z</time></trkpt><trkpt lat="45.110828355189476" lon="10.027162535360583"><ele>35.0</ele><time>2026-04-18T16:27:08Z</time></trkpt><trkpt lat="45.110757868708234" lon="10.027196551661323"><ele>35.0</ele><time>2026-04-18T16:27:09Z</time></trkpt><trkpt lat="45.11068745402138" lon="10.027228317114934"><ele>35.0</ele><time>2026-04-18T16:27:10Z</time></trkpt><trkpt lat="45.11061915845225" lon="10.027280619230241"><ele>35.0</ele><time>2026-04-18T16:27:11Z</time></trkpt><trkpt lat="45.11054663424392" lon="10.027310037566044"><ele>35.0</ele><time>2026-04-18T16:27:12Z</time></trkpt><trkpt lat="45.11047064373856" lon="10.027333059496915"><ele>34.666666666666664</ele><time>2026-04-18T16:27:13Z</time></trkpt><trkpt lat="45.11039901833728" lon="10.027360170592958"><ele>34.33333333333333</ele><time>2026-04-18T16:27:14Z</time></trkpt><trkpt lat="45.110322546935315" lon="10.027378667689563"><ele>34.0</ele><time>2026-04-18T16:27:15Z</time></trkpt><trkpt lat="45.11024711255758" lon="10.027402389848335"><ele>33.666666666666664</ele><time>2026-04-18T16:27:16Z</time></trkpt><trkpt lat="45.110173720771954" lon="10.027428442452218"><ele>33.333333333333336</ele><time>2026-04-18T16:27:17Z</time></trkpt><trkpt lat="45.11009798834309" lon="10.027451009361926"><ele>33.0</ele><time>2026-04-18T16:27:18Z</time></trkpt><trkpt lat="45.11002114331404" lon="10.02747694402308"><ele>32.833333333333336</ele><time>2026-04-18T16:27:19Z</time></trkpt><trkpt lat="45.10994661244622" lon="10.027497422043005"><ele>32.666666666666664</ele><time>2026-04-18T16:27:20Z</time></trkpt><trkpt lat="45.109873573203735" lon="10.027531889916094"><ele>32.5</ele><time>2026-04-18T16:27:21Z</time></trkpt><trkpt lat="45.10979915385753" lon="10.02756028324756"><ele>32.33333333333333</ele><time>2026-04-18T16:27:22Z</time></trkpt><trkpt lat="45.1097220113032" lon="10.027580674258258"><ele>32.166666666666664</ele><time>2026-04-18T16:27:23Z</time></trkpt><trkpt lat="45.1096475106713" lon="10.027610384619512"><ele>32.0</ele><time>2026-04-18T16:27:24Z</time></trkpt><trkpt lat="45.10957155036226" lon="10.027635378601609"><ele>31.999999999999996</ele><time>2026-04-18T16:27:25Z</time></trkpt><trkpt lat="45.109491987260604" lon="10.027656971220084"><ele>32.0</ele><time>2026-04-18T16:27:26Z</time></trkpt><trkpt lat="45.10941540231731" lon="10.027687766544181"><ele>32.0</ele><time>2026-04-18T16:27:27Z</time></trkpt><trkpt lat="45.10933979755155" lon="10.027712190204062"><ele>32.0</ele><time>2026-04-18T16:27:28Z</time></trkpt><trkpt lat="45.109265382912" lon="10.027745639364829"><ele>31.999999999999996</ele><time>2026-04-18T16:27:29Z</time></trkpt><trkpt lat="45.109186608771104" lon="10.0277670454099"><ele>32.0</ele><time>2026-04-18T16:27:30Z</time></trkpt><trkpt lat="45.109110758292104" lon="10.027786551347885"><ele>32.166666666666664</ele><time>2026-04-18T16:27:31Z</time></trkpt><trkpt lat="45.109034729518164" lon="10.027810678551434"><ele>32.33333333333333</ele><time>2026-04-18T16:27:32Z</time></trkpt><trkpt lat="45.10895929643497" lon="10.027840772870272"><ele>32.5</ele><time>2026-04-18T16:27:33Z</time></trkpt><trkpt lat="45.1088809878533" lon="10.027866085951796"><ele>32.666666666666664</ele><time>2026-04-18T16:27:34Z</time></trkpt><trkpt lat="45.10880941704462" lon="10.02790242643446"><ele>32.833333333333336</ele><time>2026-04-18T16:27:35Z</time></trkpt><trkpt lat="45.10872937962204" lon="10.02792065858522"><ele>33.0</ele><time>2026-04-18T16:27:36Z</time></trkpt><trkpt lat="45.108654662660804" lon="10.027945240456718"><ele>33.0</ele><time>2026-04-18T16:27:37Z</time></trkpt><trkpt lat="45.108575468392175" lon="10.027962547715223"><ele>33.0</ele><time>2026-04-18T16:27:38Z</time></trkpt><trkpt lat="45.108494115304865" lon="10.027977586520635"><ele>33.0</ele><time>2026-04-18T16:27:39Z</time></trkpt><trkpt lat="45.10842087294243" lon="10.027989767574926"><ele>33.0</ele><time>2026-04-18T16:27:40Z</time></trkpt><trkpt lat="45.108341109038456" lon="10.027991212123647"><ele>33.0</ele><time>2026-04-18T16:27:41Z</time></trkpt><trkpt lat="45.108264428729065" lon="10.02799669374253"><ele>33.0</ele><time>2026-04-18T16:27:42Z</time></trkpt><trkpt lat="45.108187699221446" lon="10.027997909958941"><ele>32.833333333333336</ele><time>2026-04-18T16:27:43Z</time></trkpt><trkpt lat="45.10810959161007" lon="10.027992379403269"><ele>32.666666666666664</ele><time>2026-04-18T16:27:44Z</time></trkpt><trkpt lat="45.10803150660706" lon="10.027982819944308"><ele>32.5</ele><time>2026-04-18T16:27:45Z</time></trkpt><trkpt lat="45.10795465129536" lon="10.027989337028709"><ele>32.33333333333333</ele><time>2026-04-18T16:27:46Z</time></trkpt><trkpt lat="45.10787634553979" lon="10.02798826013629"><ele>32.166666666666664</ele><time>2026-04-18T16:27:47Z</time></trkpt><trkpt lat="45.10779909460422" lon="10.028007381132317"><ele>32.0</ele><time>2026-04-18T16:27:48Z</time></trkpt><trkpt lat="45.10772870985549" lon="10.027994838880069"><ele>31.999999999999996</ele><time>2026-04-18T16:27:49Z</time></trkpt><trkpt lat="45.10765576405668" lon="10.028003394393613"><ele>32.0</ele><time>2026-04-18T16:27:50Z</time></trkpt><trkpt lat="45.1075800029842" lon="10.027998071617533"><ele>32.0</ele><time>2026-04-18T16:27:51Z</time></trkpt><trkpt lat="45.107503281010935" lon="10.027981721674124"><ele>32.0</ele><time>2026-04-18T16:27:52Z</time></trkpt><trkpt lat="45.10742406639624" lon="10.02797961287515"><ele>31.999999999999996</ele><time>2026-04-18T16:27:53Z</time></trkpt><trkpt lat="45.107344046693086" lon="10.027977099389773"><ele>32.0</ele><time>2026-04-18T16:27:54Z</time></trkpt><trkpt lat="45.10727032116787" lon="10.027974697981096"><ele>32.5</ele><time>2026-04-18T16:27:54.999Z</time></trkpt><trkpt lat="45.10719365725252" lon="10.027979982092546"><ele>33.0</ele><time>2026-04-18T16:27:55.999Z</time></trkpt><trkpt lat="45.10711523516164" lon="10.027982749536765"><ele>33.5</ele><time>2026-04-18T16:27:56.999Z</time></trkpt><trkpt lat="45.107033715452005" lon="10.027983135731056"><ele>34.0</ele><time>2026-04-18T16:27:57.999Z</time></trkpt><trkpt lat="45.10696139391713" lon="10.027963861538442"><ele>34.5</ele><time>2026-04-18T16:27:58.999Z</time></trkpt><trkpt lat="45.106881383390665" lon="10.02797742651483"><ele>35.0</ele><time>2026-04-18T16:27:59.999Z</time></trkpt><trkpt lat="45.106807807216974" lon="10.027957856813432"><ele>35.0</ele><time>2026-04-18T16:28:00.999Z</time></trkpt><trkpt lat="45.10673356284802" lon="10.027977287312124"><ele>35.0</ele><time>2026-04-18T16:28:01.999Z</time></trkpt><trkpt lat="45.1066560606942" lon="10.027962684290143"><ele>35.0</ele><time>2026-04-18T16:28:02.999Z</time></trkpt><trkpt lat="45.10657914138283" lon="10.027959482290102"><ele>35.0</ele><time>2026-04-18T16:28:03.999Z</time></trkpt><trkpt lat="45.106503008233304" lon="10.027965952451908"><ele>35.0</ele><time>2026-04-18T16:28:04.999Z</time></trkpt><trkpt lat="45.106422539648875" lon="10.027963094523836"><ele>35.0</ele><time>2026-04-18T16:28:05.999Z</time></trkpt><trkpt lat="45.10633962748769" lon="10.027953559436916"><ele>34.666666666666664</ele><time>2026-04-18T16:28:06.999Z</time></trkpt><trkpt lat="45.106264838808315" lon="10.027953885004004"><ele>34.33333333333333</ele><time>2026-04-18T16:28:07.999Z</time></trkpt><trkpt lat="45.10618894077487" lon="10.027955508388983"><ele>34.0</ele><time>2026-04-18T16:28:08.999Z</time></trkpt><trkpt lat="45.10610762411314" lon="10.027954778625881"><ele>33.666666666666664</ele><time>2026-04-18T16:28:09.999Z</time></trkpt><trkpt lat="45.106027325791125" lon="10.027952738096564"><ele>33.333333333333336</ele><time>2026-04-18T16:28:10.999Z</time></trkpt><trkpt lat="45.10594886942172" lon="10.027968591455412"><ele>33.0</ele><time>2026-04-18T16:28:11.999Z</time></trkpt><trkpt lat="45.10587148715646" lon="10.027990572887973"><ele>33.0</ele><time>2026-04-18T16:28:12.999Z</time></trkpt><trkpt lat="45.10580288748928" lon="10.028030469973393"><ele>33.0</ele><time>2026-04-18T16:28:13.999Z</time></trkpt><trkpt lat="45.10572450007163" lon="10.028068149741102"><ele>33.0</ele><time>2026-04-18T16:28:14.999Z</time></trkpt><trkpt lat="45.105648745926416" lon="10.028108242146457"><ele>33.0</ele><time>2026-04-18T16:28:15.999Z</time></trkpt><trkpt lat="45.105575459261075" lon="10.028146552489629"><ele>33.0</ele><time>2026-04-18T16:28:16.999Z</time></trkpt><trkpt lat="45.105499623759734" lon="10.028186740154808"><ele>33.0</ele><time>2026-04-18T16:28:17.999Z</time></trkpt><trkpt lat="45.10542574705887" lon="10.028231149143444"><ele>32.666666666666664</ele><time>2026-04-18T16:28:18.999Z</time></trkpt><trkpt lat="45.10534962408755" lon="10.028268034775822"><ele>32.333333333333336</ele><time>2026-04-18T16:28:19.999Z</time></trkpt><trkpt lat="45.105274806424866" lon="10.028302984421938"><ele>32.0</ele><time>2026-04-18T16:28:20.999Z</time></trkpt><trkpt lat="45.10520044443781" lon="10.028329907384057"><ele>31.666666666666668</ele><time>2026-04-18T16:28:21.999Z</time></trkpt><trkpt lat="45.10513308599744" lon="10.028390207909117"><ele>31.333333333333336</ele><time>2026-04-18T16:28:22.999Z</time></trkpt><trkpt lat="45.105057950766344" lon="10.028426282357579"><ele>31.0</ele><time>2026-04-18T16:28:23.999Z</time></trkpt><trkpt lat="45.104985110721096" lon="10.028474890455135"><ele>31.666666666666668</ele><time>2026-04-18T16:28:24.999Z</time></trkpt><trkpt lat="45.1049212298985" lon="10.028523342228466"><ele>32.333333333333336</ele><time>2026-04-18T16:28:25.999Z</time></trkpt><trkpt lat="45.10485041519503" lon="10.028574827478943"><ele>33.0</ele><time>2026-04-18T16:28:26.999Z</time></trkpt><trkpt lat="45.10478336410793" lon="10.028629420249542"><ele>33.666666666666664</ele><time>2026-04-18T16:28:27.999Z</time></trkpt><trkpt lat="45.10470889035119" lon="10.028665908307746"><ele>34.33333333333333</ele><time>2026-04-18T16:28:28.999Z</time></trkpt><trkpt lat="45.104646516051595" lon="10.028734604352264"><ele>35.0</ele><time>2026-04-18T16:28:29.999Z</time></trkpt><trkpt lat="45.10458312781836" lon="10.028798695962692"><ele>35.33333333333333</ele><time>2026-04-18T16:28:30.999Z</time></trkpt><trkpt lat="45.104507101674166" lon="10.028833692739024"><ele>35.666666666666664</ele><time>2026-04-18T16:28:31.999Z</time></trkpt><trkpt lat="45.10443919184447" lon="10.028890403395346"><ele>36.0</ele><time>2026-04-18T16:28:32.999Z</time></trkpt><trkpt lat="45.10437623549431" lon="10.028964562098038"><ele>36.333333333333336</ele><time>2026-04-18T16:28:33.999Z</time></trkpt><trkpt lat="45.1043340727333" lon="10.029072171957223"><ele>36.66666666666667</ele><time>2026-04-18T16:28:34.999Z</time></trkpt><trkpt lat="45.1043050293764" lon="10.029191562955097"><ele>37.0</ele><time>2026-04-18T16:28:35.999Z</time></trkpt><trkpt lat="45.10427738223648" lon="10.029309550109943"><ele>37.2</ele><time>2026-04-18T16:28:36.999Z</time></trkpt><trkpt lat="45.10425306273077" lon="10.0294353796922"><ele>37.400000000000006</ele><time>2026-04-18T16:28:37.999Z</time></trkpt><trkpt lat="45.104235248039174" lon="10.029560814448368"><ele>37.599999999999994</ele><time>2026-04-18T16:28:38.999Z</time></trkpt><trkpt lat="45.1042328320935" lon="10.029712320504359"><ele>37.8</ele><time>2026-04-18T16:28:39.999Z</time></trkpt><trkpt lat="45.10423412007994" lon="10.029845873634045"><ele>38.0</ele><time>2026-04-18T16:28:40.999Z</time></trkpt><trkpt lat="45.104240094992505" lon="10.029986159948278"><ele>38.0</ele><time>2026-04-18T16:28:41.999Z</time></trkpt><trkpt lat="45.10421972674477" lon="10.03018129691383"><ele>38.0</ele><time>2026-04-18T16:28:43.999Z</time></trkpt><trkpt lat="45.10415265039966" lon="10.030268538654065"><ele>38.0</ele><time>2026-04-18T16:28:44.999Z</time></trkpt><trkpt lat="45.104087325972145" lon="10.030349982258365"><ele>38.0</ele><time>2026-04-18T16:28:45.999Z</time></trkpt><trkpt lat="45.10402301652103" lon="10.030423650219646"><ele>38.0</ele><time>2026-04-18T16:28:46.999Z</time></trkpt><trkpt lat="45.10394948000009" lon="10.030497732261681"><ele>38.33333333333333</ele><time>2026-04-18T16:28:47.999Z</time></trkpt><trkpt lat="45.103873211897145" lon="10.03058524375963"><ele>38.666666666666664</ele><time>2026-04-18T16:28:48.999Z</time></trkpt><trkpt lat="45.10379280844811" lon="10.030649953941843"><ele>39.0</ele><time>2026-04-18T16:28:49.999Z</time></trkpt><trkpt lat="45.10372298138211" lon="10.030705961997757"><ele>39.333333333333336</ele><time>2026-04-18T16:28:51.998Z</time></trkpt><trkpt lat="45.103645666583645" lon="10.030760088255118"><ele>39.66666666666667</ele><time>2026-04-18T16:28:52.998Z</time></trkpt><trkpt lat="45.103575191657214" lon="10.030814214985226"><ele>40.0</ele><time>2026-04-18T16:28:53.998Z</time></trkpt><trkpt lat="45.1035197724317" lon="10.030889755024278"><ele>39.333333333333336</ele><time>2026-04-18T16:28:54.998Z</time></trkpt><trkpt lat="45.103461426294885" lon="10.03098719610776"><ele>38.66666666666667</ele><time>2026-04-18T16:28:55.998Z</time></trkpt><trkpt lat="45.10341351336681" lon="10.031071282062989"><ele>38.0</ele><time>2026-04-18T16:28:57Z</time></trkpt><trkpt lat="45.103382428690466" lon="10.031162573238172"><ele>37.333333333333336</ele><time>2026-04-18T16:28:58Z</time></trkpt><trkpt lat="45.103324593500304" lon="10.03122874020622"><ele>36.666666666666664</ele><time>2026-04-18T16:28:59Z</time></trkpt><trkpt lat="45.1032901762595" lon="10.031323510531927"><ele>36.0</ele><time>2026-04-18T16:29:00Z</time></trkpt><trkpt lat="45.103243555090216" lon="10.031406153577514"><ele>35.666666666666664</ele><time>2026-04-18T16:29:01Z</time></trkpt><trkpt lat="45.10319228464401" lon="10.031489241198683"><ele>35.333333333333336</ele><time>2026-04-18T16:29:02Z</time></trkpt><trkpt lat="45.10313640550993" lon="10.031574677488093"><ele>35.0</ele><time>2026-04-18T16:29:03Z</time></trkpt><trkpt lat="45.10308563452537" lon="10.031658930115169"><ele>34.66666666666667</ele><time>2026-04-18T16:29:04Z</time></trkpt><trkpt lat="45.10302449744629" lon="10.031734254577259"><ele>34.333333333333336</ele><time>2026-04-18T16:29:05Z</time></trkpt><trkpt lat="45.1029820370089" lon="10.031838399820218"><ele>34.0</ele><time>2026-04-18T16:29:06Z</time></trkpt><trkpt lat="45.102927216142604" lon="10.031933412989193"><ele>34.0</ele><time>2026-04-18T16:29:07Z</time></trkpt><trkpt lat="45.10288286405282" lon="10.032028707201574"><ele>34.0</ele><time>2026-04-18T16:29:08Z</time></trkpt><trkpt lat="45.10283300249839" lon="10.032121010606504"><ele>34.0</ele><time>2026-04-18T16:29:09Z</time></trkpt><trkpt lat="45.10278300630425" lon="10.032203617008099"><ele>34.0</ele><time>2026-04-18T16:29:10Z</time></trkpt><trkpt lat="45.102729446484226" lon="10.032282687219919"><ele>34.0</ele><time>2026-04-18T16:29:11Z</time></trkpt><trkpt lat="45.10267188901693" lon="10.032364475536832"><ele>34.0</ele><time>2026-04-18T16:29:12Z</time></trkpt><trkpt lat="45.102618722580466" lon="10.032450607012304"><ele>34.0</ele><time>2026-04-18T16:29:13Z</time></trkpt><trkpt lat="45.10252399470087" lon="10.032596912987765"><ele>34.0</ele><time>2026-04-18T16:29:15Z</time></trkpt><trkpt lat="45.10246912131492" lon="10.032685116077397"><ele>34.0</ele><time>2026-04-18T16:29:16Z</time></trkpt><trkpt lat="45.10241993317681" lon="10.032771037818241"><ele>34.0</ele><time>2026-04-18T16:29:17Z</time></trkpt><trkpt lat="45.10236211244922" lon="10.032851821013951"><ele>34.0</ele><time>2026-04-18T16:29:18Z</time></trkpt><trkpt lat="45.102304148421034" lon="10.032929912339457"><ele>33.833333333333336</ele><time>2026-04-18T16:29:19Z</time></trkpt><trkpt lat="45.10224161136453" lon="10.033000307820348"><ele>33.66666666666667</ele><time>2026-04-18T16:29:20Z</time></trkpt><trkpt lat="45.102178891288965" lon="10.033069117585962"><ele>33.5</ele><time>2026-04-18T16:29:21Z</time></trkpt><trkpt lat="45.10210765067802" lon="10.033127203124895"><ele>33.333333333333336</ele><time>2026-04-18T16:29:22Z</time></trkpt><trkpt lat="45.102032229017254" lon="10.03317346543376"><ele>33.166666666666664</ele><time>2026-04-18T16:29:23Z</time></trkpt><trkpt lat="45.10195712697754" lon="10.033215725571422"><ele>33.0</ele><time>2026-04-18T16:29:24Z</time></trkpt><trkpt lat="45.101883304870945" lon="10.033263841287477"><ele>33.0</ele><time>2026-04-18T16:29:25Z</time></trkpt><trkpt lat="45.10180614440173" lon="10.033303670439492"><ele>33.0</ele><time>2026-04-18T16:29:26Z</time></trkpt><trkpt lat="45.101734457438894" lon="10.0333522864237"><ele>33.0</ele><time>2026-04-18T16:29:27Z</time></trkpt><trkpt lat="45.10166248172868" lon="10.033398208232171"><ele>33.0</ele><time>2026-04-18T16:29:28Z</time></trkpt><trkpt lat="45.10158946240921" lon="10.033436037557282"><ele>33.0</ele><time>2026-04-18T16:29:29Z</time></trkpt><trkpt lat="45.10151763596821" lon="10.033480377228432"><ele>33.0</ele><time>2026-04-18T16:29:30Z</time></trkpt><trkpt lat="45.10144366063082" lon="10.033524880528928"><ele>33.0</ele><time>2026-04-18T16:29:31Z</time></trkpt><trkpt lat="45.101371125512344" lon="10.033567269849955"><ele>33.0</ele><time>2026-04-18T16:29:32Z</time></trkpt><trkpt lat="45.10129844033529" lon="10.033613060854169"><ele>33.0</ele><time>2026-04-18T16:29:33Z</time></trkpt><trkpt lat="45.10122765367247" lon="10.033662192228023"><ele>33.0</ele><time>2026-04-18T16:29:34Z</time></trkpt><trkpt lat="45.101154893017224" lon="10.033708120244258"><ele>33.0</ele><time>2026-04-18T16:29:35Z</time></trkpt><trkpt lat="45.1010822233214" lon="10.033754630237047"><ele>33.0</ele><time>2026-04-18T16:29:36Z</time></trkpt><trkpt lat="45.10100820468026" lon="10.033791720498957"><ele>33.0</ele><time>2026-04-18T16:29:37Z</time></trkpt><trkpt lat="45.100935407665006" lon="10.033837282421471"><ele>33.0</ele><time>2026-04-18T16:29:38Z</time></trkpt><trkpt lat="45.100863756665284" lon="10.03388584829269"><ele>33.0</ele><time>2026-04-18T16:29:39Z</time></trkpt><trkpt lat="45.1007888688124" lon="10.033928964231224"><ele>33.0</ele><time>2026-04-18T16:29:40Z</time></trkpt><trkpt lat="45.100716124490404" lon="10.033972422374442"><ele>33.0</ele><time>2026-04-18T16:29:41Z</time></trkpt><trkpt lat="45.10064141825155" lon="10.034015555246008"><ele>33.0</ele><time>2026-04-18T16:29:42Z</time></trkpt><trkpt lat="45.10056615176415" lon="10.034058991061148"><ele>33.0</ele><time>2026-04-18T16:29:43Z</time></trkpt><trkpt lat="45.100492565526565" lon="10.034109072570036"><ele>33.0</ele><time>2026-04-18T16:29:44Z</time></trkpt><trkpt lat="45.10041736408564" lon="10.034152210811978"><ele>33.0</ele><time>2026-04-18T16:29:45Z</time></trkpt><trkpt lat="45.1003443838019" lon="10.03420213698298"><ele>33.0</ele><time>2026-04-18T16:29:46Z</time></trkpt><trkpt lat="45.10027326309683" lon="10.034244860811043"><ele>33.0</ele><time>2026-04-18T16:29:47Z</time></trkpt><trkpt lat="45.100202504137116" lon="10.03429492329927"><ele>33.0</ele><time>2026-04-18T16:29:47.999Z</time></trkpt><trkpt lat="45.10013116779622" lon="10.03433645775419"><ele>33.166666666666664</ele><time>2026-04-18T16:29:48.999Z</time></trkpt><trkpt lat="45.100060289285715" lon="10.034377029168933"><ele>33.333333333333336</ele><time>2026-04-18T16:29:49.999Z</time></trkpt><trkpt lat="45.099989580686916" lon="10.034427740820847"><ele>33.5</ele><time>2026-04-18T16:29:50.999Z</time></trkpt><trkpt lat="45.099918804786036" lon="10.034473289903202"><ele>33.66666666666667</ele><time>2026-04-18T16:29:51.999Z</time></trkpt><trkpt lat="45.099846835175136" lon="10.03451815183858"><ele>33.833333333333336</ele><time>2026-04-18T16:29:52.999Z</time></trkpt><trkpt lat="45.099770666555806" lon="10.03455625478416"><ele>34.0</ele><time>2026-04-18T16:29:53.999Z</time></trkpt><trkpt lat="45.09968964602252" lon="10.034586997927784"><ele>33.5</ele><time>2026-04-18T16:29:54.999Z</time></trkpt><trkpt lat="45.099611742085166" lon="10.034600754397172"><ele>33.0</ele><time>2026-04-18T16:29:55.999Z</time></trkpt><trkpt lat="45.09952896729643" lon="10.034603205908548"><ele>32.5</ele><time>2026-04-18T16:29:56.999Z</time></trkpt><trkpt lat="45.09944638059921" lon="10.034607669433932"><ele>32.0</ele><time>2026-04-18T16:29:57.999Z</time></trkpt><trkpt lat="45.0993655543838" lon="10.034619537819873"><ele>31.500000000000004</ele><time>2026-04-18T16:29:58.999Z</time></trkpt><trkpt lat="45.09928528579748" lon="10.034628305792426"><ele>31.0</ele><time>2026-04-18T16:29:59.999Z</time></trkpt><trkpt lat="45.09920423516703" lon="10.034637338078623"><ele>31.000000000000004</ele><time>2026-04-18T16:30:00.999Z</time></trkpt><trkpt lat="45.099122648206574" lon="10.034652111927063"><ele>31.0</ele><time>2026-04-18T16:30:01.999Z</time></trkpt><trkpt lat="45.09904249062299" lon="10.03465982108828"><ele>31.0</ele><time>2026-04-18T16:30:02.999Z</time></trkpt><trkpt lat="45.09896332995688" lon="10.034670339866231"><ele>31.0</ele><time>2026-04-18T16:30:03.999Z</time></trkpt><trkpt lat="45.098881913755754" lon="10.034678554472261"><ele>31.000000000000004</ele><time>2026-04-18T16:30:04.999Z</time></trkpt><trkpt lat="45.098801315040376" lon="10.034687935999951"><ele>31.0</ele><time>2026-04-18T16:30:05.999Z</time></trkpt><trkpt lat="45.09871991997288" lon="10.034702047382522"><ele>31.333333333333336</ele><time>2026-04-18T16:30:06.999Z</time></trkpt><trkpt lat="45.09863878966726" lon="10.034716443282003"><ele>31.666666666666668</ele><time>2026-04-18T16:30:07.999Z</time></trkpt><trkpt lat="45.09855792235661" lon="10.034730186131492"><ele>32.0</ele><time>2026-04-18T16:30:08.999Z</time></trkpt><trkpt lat="45.098475998854155" lon="10.034743260846582"><ele>32.333333333333336</ele><time>2026-04-18T16:30:09.999Z</time></trkpt><trkpt lat="45.09840576120366" lon="10.03470483551268"><ele>32.666666666666664</ele><time>2026-04-18T16:30:10.999Z</time></trkpt><trkpt lat="45.09832930298264" lon="10.034687176576192"><ele>33.0</ele><time>2026-04-18T16:30:11.999Z</time></trkpt><trkpt lat="45.09825372774159" lon="10.034669721572353"><ele>33.6</ele><time>2026-04-18T16:30:12.999Z</time></trkpt><trkpt lat="45.098177487282456" lon="10.03465211292993"><ele>34.199999999999996</ele><time>2026-04-18T16:30:13.999Z</time></trkpt><trkpt lat="45.09808182016458" lon="10.034799643508263"><ele>34.8</ele><time>2026-04-18T16:30:14.999Z</time></trkpt><trkpt lat="45.09800524382755" lon="10.034808936624138"><ele>35.4</ele><time>2026-04-18T16:30:15.999Z</time></trkpt><trkpt lat="45.097925073976185" lon="10.034815729145954"><ele>36.0</ele><time>2026-04-18T16:30:16.999Z</time></trkpt><trkpt lat="45.09784467749759" lon="10.034824723253585"><ele>36.0</ele><time>2026-04-18T16:30:17.999Z</time></trkpt><trkpt lat="45.09776589833736" lon="10.034837317404191"><ele>36.0</ele><time>2026-04-18T16:30:18.999Z</time></trkpt><trkpt lat="45.09768620942249" lon="10.034849691782215"><ele>36.0</ele><time>2026-04-18T16:30:19.999Z</time></trkpt><trkpt lat="45.09760874371707" lon="10.034857433550444"><ele>36.0</ele><time>2026-04-18T16:30:20.999Z</time></trkpt><trkpt lat="45.097530723839796" lon="10.034869735363992"><ele>36.0</ele><time>2026-04-18T16:30:21.999Z</time></trkpt><trkpt lat="45.097454183988276" lon="10.034874303050113"><ele>36.0</ele><time>2026-04-18T16:30:22.999Z</time></trkpt><trkpt lat="45.09738445481177" lon="10.034879075737694"><ele>36.0</ele><time>2026-04-18T16:30:23.999Z</time></trkpt><trkpt lat="45.09731839133263" lon="10.03487560598425"><ele>36.0</ele><time>2026-04-18T16:30:24.999Z</time></trkpt><trkpt lat="45.09725075142039" lon="10.034892199715765"><ele>36.0</ele><time>2026-04-18T16:30:25.999Z</time></trkpt><trkpt lat="45.0971387741566" lon="10.034907761928045"><ele>36.0</ele><time>2026-04-18T16:30:27.999Z</time></trkpt><trkpt lat="45.09706194950021" lon="10.034943576056293"><ele>36.0</ele><time>2026-04-18T16:30:29.999Z</time></trkpt><trkpt lat="45.09704067053972" lon="10.03507246711968"><ele>36.0</ele><time>2026-04-18T16:30:31.999Z</time></trkpt><trkpt lat="45.09709051476942" lon="10.035197979318674"><ele>35.833333333333336</ele><time>2026-04-18T16:30:33.999Z</time></trkpt><trkpt lat="45.097141731470074" lon="10.035338144834693"><ele>35.666666666666664</ele><time>2026-04-18T16:30:35.999Z</time></trkpt><trkpt lat="45.09720915874636" lon="10.035483524719794"><ele>35.5</ele><time>2026-04-18T16:30:37.999Z</time></trkpt><trkpt lat="45.09723386869145" lon="10.035567435116164"><ele>35.33333333333333</ele><time>2026-04-18T16:30:38.999Z</time></trkpt><trkpt lat="45.09727401904872" lon="10.0356447802211"><ele>35.166666666666664</ele><time>2026-04-18T16:30:39.999Z</time></trkpt><trkpt lat="45.09731471390625" lon="10.03572118575039"><ele>35.0</ele><time>2026-04-18T16:30:40.999Z</time></trkpt><trkpt lat="45.097355971227465" lon="10.035798221395702"><ele>35.142857142857146</ele><time>2026-04-18T16:30:41.999Z</time></trkpt><trkpt lat="45.09739717591115" lon="10.035866115549396"><ele>35.285714285714285</ele><time>2026-04-18T16:30:42.998Z</time></trkpt><trkpt lat="45.09743850504019" lon="10.035939002221575"><ele>35.42857142857143</ele><time>2026-04-18T16:30:43.998Z</time></trkpt><trkpt lat="45.09748642363239" lon="10.036010181921524"><ele>35.57142857142857</ele><time>2026-04-18T16:30:44.998Z</time></trkpt><trkpt lat="45.09753534274704" lon="10.036078207317075"><ele>35.714285714285715</ele><time>2026-04-18T16:30:45.998Z</time></trkpt><trkpt lat="45.09758752278678" lon="10.036146075078738"><ele>35.85714285714286</ele><time>2026-04-18T16:30:46.998Z</time></trkpt><trkpt lat="45.09764011425065" lon="10.03621307040373"><ele>36.0</ele><time>2026-04-18T16:30:47.998Z</time></trkpt><trkpt lat="45.097690925422086" lon="10.036284736715192"><ele>36.333333333333336</ele><time>2026-04-18T16:30:48.998Z</time></trkpt><trkpt lat="45.09774949430146" lon="10.036346464292885"><ele>36.666666666666664</ele><time>2026-04-18T16:30:49.998Z</time></trkpt><trkpt lat="45.09780590913173" lon="10.036412208807747"><ele>37.0</ele><time>2026-04-18T16:30:50.998Z</time></trkpt><trkpt lat="45.09786810311154" lon="10.036467470543124"><ele>37.33333333333333</ele><time>2026-04-18T16:30:51.998Z</time></trkpt><trkpt lat="45.09793537025332" lon="10.03651179505845"><ele>37.666666666666664</ele><time>2026-04-18T16:30:52.998Z</time></trkpt><trkpt lat="45.09800763942839" lon="10.036554477775335"><ele>38.0</ele><time>2026-04-18T16:30:53.998Z</time></trkpt><trkpt lat="45.09808116170278" lon="10.036593267916894"><ele>38.0</ele><time>2026-04-18T16:30:54.998Z</time></trkpt><trkpt lat="45.09815627508141" lon="10.03663457664679"><ele>38.0</ele><time>2026-04-18T16:30:55.998Z</time></trkpt><trkpt lat="45.098227346406496" lon="10.03668244341589"><ele>38.0</ele><time>2026-04-18T16:30:56.998Z</time></trkpt><trkpt lat="45.09829417331832" lon="10.036742869582389"><ele>38.0</ele><time>2026-04-18T16:30:57.998Z</time></trkpt><trkpt lat="45.09836277874048" lon="10.036813177483742"><ele>38.0</ele><time>2026-04-18T16:30:58.998Z</time></trkpt><trkpt lat="45.09842686173004" lon="10.036885642141112"><ele>38.0</ele><time>2026-04-18T16:30:59.998Z</time></trkpt><trkpt lat="45.09849547302446" lon="10.03695627185199"><ele>37.33333333333333</ele><time>2026-04-18T16:31:00.998Z</time></trkpt><trkpt lat="45.09855395107807" lon="10.037036557655632"><ele>36.666666666666664</ele><time>2026-04-18T16:31:01.998Z</time></trkpt><trkpt lat="45.09861138559473" lon="10.037105666640992"><ele>36.0</ele><time>2026-04-18T16:31:03Z</time></trkpt><trkpt lat="45.09867050583474" lon="10.037179531603652"><ele>35.333333333333336</ele><time>2026-04-18T16:31:04Z</time></trkpt><trkpt lat="45.09873107004265" lon="10.037252369088403"><ele>34.66666666666667</ele><time>2026-04-18T16:31:05Z</time></trkpt><trkpt lat="45.09879649090275" lon="10.037319972928353"><ele>34.0</ele><time>2026-04-18T16:31:06Z</time></trkpt><trkpt lat="45.09885518717258" lon="10.037387833843441"><ele>34.0</ele><time>2026-04-18T16:31:07Z</time></trkpt><trkpt lat="45.098915875307114" lon="10.037456879459137"><ele>34.0</ele><time>2026-04-18T16:31:08Z</time></trkpt><trkpt lat="45.098971668113116" lon="10.037533400823762"><ele>34.0</ele><time>2026-04-18T16:31:09Z</time></trkpt><trkpt lat="45.09903385209902" lon="10.037601804620337"><ele>34.0</ele><time>2026-04-18T16:31:10Z</time></trkpt><trkpt lat="45.099095170058014" lon="10.037668422995202"><ele>34.0</ele><time>2026-04-18T16:31:11Z</time></trkpt><trkpt lat="45.099160357039054" lon="10.03773846083604"><ele>34.0</ele><time>2026-04-18T16:31:12Z</time></trkpt><trkpt lat="45.099213466929065" lon="10.037802570853243"><ele>34.333333333333336</ele><time>2026-04-18T16:31:13Z</time></trkpt><trkpt lat="45.099284894475595" lon="10.037859980310852"><ele>34.66666666666667</ele><time>2026-04-18T16:31:14Z</time></trkpt><trkpt lat="45.0993516660199" lon="10.037915029548898"><ele>35.0</ele><time>2026-04-18T16:31:15Z</time></trkpt><trkpt lat="45.09941895002112" lon="10.037968271286015"><ele>35.333333333333336</ele><time>2026-04-18T16:31:16Z</time></trkpt><trkpt lat="45.09948273175686" lon="10.038030136069706"><ele>35.666666666666664</ele><time>2026-04-18T16:31:17Z</time></trkpt><trkpt lat="45.09954478225279" lon="10.038090322089083"><ele>36.0</ele><time>2026-04-18T16:31:18Z</time></trkpt><trkpt lat="45.0996147094735" lon="10.038158561418363"><ele>36.0</ele><time>2026-04-18T16:31:19Z</time></trkpt><trkpt lat="45.09968474448607" lon="10.038212305993545"><ele>36.0</ele><time>2026-04-18T16:31:20Z</time></trkpt><trkpt lat="45.09975438615936" lon="10.03827115737219"><ele>36.0</ele><time>2026-04-18T16:31:21Z</time></trkpt><trkpt lat="45.09982296006537" lon="10.038330421717404"><ele>36.0</ele><time>2026-04-18T16:31:22Z</time></trkpt><trkpt lat="45.099891221538186" lon="10.03839400410645"><ele>36.0</ele><time>2026-04-18T16:31:23Z</time></trkpt><trkpt lat="45.099959256879906" lon="10.038451881948118"><ele>36.0</ele><time>2026-04-18T16:31:24Z</time></trkpt><trkpt lat="45.10002428233673" lon="10.03851474849316"><ele>36.333333333333336</ele><time>2026-04-18T16:31:25Z</time></trkpt><trkpt lat="45.10008973576761" lon="10.03857244036849"><ele>36.666666666666664</ele><time>2026-04-18T16:31:26Z</time></trkpt><trkpt lat="45.10015789718207" lon="10.03862308892999"><ele>37.0</ele><time>2026-04-18T16:31:27Z</time></trkpt><trkpt lat="45.100217967285616" lon="10.038676867280609"><ele>37.33333333333333</ele><time>2026-04-18T16:31:28Z</time></trkpt><trkpt lat="45.10028080888475" lon="10.038730577986616"><ele>37.666666666666664</ele><time>2026-04-18T16:31:29Z</time></trkpt><trkpt lat="45.10035248626225" lon="10.038773317827356"><ele>38.0</ele><time>2026-04-18T16:31:30Z</time></trkpt><trkpt lat="45.10042822162561" lon="10.038814898493191"><ele>38.0</ele><time>2026-04-18T16:31:31Z</time></trkpt><trkpt lat="45.10050648392675" lon="10.038863286539518"><ele>38.0</ele><time>2026-04-18T16:31:32Z</time></trkpt><trkpt lat="45.100589183078" lon="10.038908848527985"><ele>38.0</ele><time>2026-04-18T16:31:33Z</time></trkpt><trkpt lat="45.10067023889008" lon="10.038953349824878"><ele>38.0</ele><time>2026-04-18T16:31:34Z</time></trkpt><trkpt lat="45.10074326739003" lon="10.038999325372384"><ele>38.0</ele><time>2026-04-18T16:31:35Z</time></trkpt><trkpt lat="45.10081473411767" lon="10.039051436911507"><ele>38.0</ele><time>2026-04-18T16:31:36Z</time></trkpt><trkpt lat="45.1008898696959" lon="10.039102018715852"><ele>37.83333333333333</ele><time>2026-04-18T16:31:37Z</time></trkpt><trkpt lat="45.10096619836709" lon="10.039142735910653"><ele>37.666666666666664</ele><time>2026-04-18T16:31:38Z</time></trkpt><trkpt lat="45.10104298385671" lon="10.039182508580817"><ele>37.5</ele><time>2026-04-18T16:31:39Z</time></trkpt><trkpt lat="45.101118170654196" lon="10.039229946844795"><ele>37.333333333333336</ele><time>2026-04-18T16:31:40Z</time></trkpt><trkpt lat="45.10119356158338" lon="10.039279351814859"><ele>37.16666666666667</ele><time>2026-04-18T16:31:41Z</time></trkpt><trkpt lat="45.10127223081138" lon="10.039328963018686"><ele>37.0</ele><time>2026-04-18T16:31:42Z</time></trkpt><trkpt lat="45.10134880517082" lon="10.039382199240189"><ele>37.0</ele><time>2026-04-18T16:31:43Z</time></trkpt><trkpt lat="45.10142114391003" lon="10.039435889607857"><ele>37.0</ele><time>2026-04-18T16:31:44Z</time></trkpt><trkpt lat="45.101499618735964" lon="10.03947936279144"><ele>37.0</ele><time>2026-04-18T16:31:45Z</time></trkpt><trkpt lat="45.101576534634496" lon="10.039522721416914"><ele>37.0</ele><time>2026-04-18T16:31:46Z</time></trkpt><trkpt lat="45.10165174403662" lon="10.039566562170487"><ele>37.0</ele><time>2026-04-18T16:31:47Z</time></trkpt><trkpt lat="45.10173028589726" lon="10.039613097357167"><ele>37.0</ele><time>2026-04-18T16:31:48Z</time></trkpt><trkpt lat="45.10180323452819" lon="10.039664235255282"><ele>36.833333333333336</ele><time>2026-04-18T16:31:49Z</time></trkpt><trkpt lat="45.10187807400121" lon="10.039706111974729"><ele>36.66666666666667</ele><time>2026-04-18T16:31:50Z</time></trkpt><trkpt lat="45.10195046271942" lon="10.039749130957237"><ele>36.5</ele><time>2026-04-18T16:31:51Z</time></trkpt><trkpt lat="45.102022115171096" lon="10.039797543596515"><ele>36.333333333333336</ele><time>2026-04-18T16:31:52Z</time></trkpt><trkpt lat="45.10209362743882" lon="10.039837741601914"><ele>36.166666666666664</ele><time>2026-04-18T16:31:53Z</time></trkpt><trkpt lat="45.102166225836534" lon="10.039874715603013"><ele>36.0</ele><time>2026-04-18T16:31:54Z</time></trkpt><trkpt lat="45.10224093362952" lon="10.039908656589809"><ele>36.0</ele><time>2026-04-18T16:31:55Z</time></trkpt><trkpt lat="45.10231926780698" lon="10.039937680394472"><ele>36.0</ele><time>2026-04-18T16:31:56Z</time></trkpt><trkpt lat="45.102398177350345" lon="10.03996901321461"><ele>36.0</ele><time>2026-04-18T16:31:57Z</time></trkpt><trkpt lat="45.10247681647194" lon="10.0400039746562"><ele>36.0</ele><time>2026-04-18T16:31:58Z</time></trkpt><trkpt lat="45.10255383883313" lon="10.040037107381066"><ele>36.0</ele><time>2026-04-18T16:31:59Z</time></trkpt><trkpt lat="45.10263135309432" lon="10.040078182639375"><ele>36.0</ele><time>2026-04-18T16:32:00Z</time></trkpt><trkpt lat="45.10270690178679" lon="10.0401136387886"><ele>35.833333333333336</ele><time>2026-04-18T16:32:00.999Z</time></trkpt><trkpt lat="45.10278163297988" lon="10.040142498963851"><ele>35.666666666666664</ele><time>2026-04-18T16:32:01.999Z</time></trkpt><trkpt lat="45.10285452492398" lon="10.040180478424805"><ele>35.5</ele><time>2026-04-18T16:32:02.999Z</time></trkpt><trkpt lat="45.10293269001096" lon="10.040210231320238"><ele>35.33333333333333</ele><time>2026-04-18T16:32:03.999Z</time></trkpt><trkpt lat="45.10301004453788" lon="10.040244682310373"><ele>35.166666666666664</ele><time>2026-04-18T16:32:04.999Z</time></trkpt><trkpt lat="45.1030890551293" lon="10.040278311598966"><ele>35.0</ele><time>2026-04-18T16:32:05.999Z</time></trkpt><trkpt lat="45.103167787556984" lon="10.04030899051562"><ele>35.0</ele><time>2026-04-18T16:32:06.999Z</time></trkpt><trkpt lat="45.10324681365172" lon="10.040337757035324"><ele>35.0</ele><time>2026-04-18T16:32:07.999Z</time></trkpt><trkpt lat="45.103324931909995" lon="10.040373973913095"><ele>35.0</ele><time>2026-04-18T16:32:08.999Z</time></trkpt><trkpt lat="45.10340378017322" lon="10.040404353888624"><ele>35.0</ele><time>2026-04-18T16:32:09.999Z</time></trkpt><trkpt lat="45.10348268181791" lon="10.040430597497894"><ele>35.0</ele><time>2026-04-18T16:32:10.999Z</time></trkpt><trkpt lat="45.103564597759544" lon="10.04045260877049"><ele>35.0</ele><time>2026-04-18T16:32:11.999Z</time></trkpt><trkpt lat="45.10364846802131" lon="10.040480767522695"><ele>35.33333333333333</ele><time>2026-04-18T16:32:12.999Z</time></trkpt><trkpt lat="45.10372842433189" lon="10.040502342355088"><ele>35.666666666666664</ele><time>2026-04-18T16:32:13.999Z</time></trkpt><trkpt lat="45.10380813496916" lon="10.04051706827946"><ele>36.0</ele><time>2026-04-18T16:32:14.999Z</time></trkpt><trkpt lat="45.103884906331785" lon="10.040539579244099"><ele>36.333333333333336</ele><time>2026-04-18T16:32:15.999Z</time></trkpt><trkpt lat="45.10396255814029" lon="10.040568344984896"><ele>36.66666666666667</ele><time>2026-04-18T16:32:16.999Z</time></trkpt><trkpt lat="45.10404349382142" lon="10.040596109785964"><ele>37.0</ele><time>2026-04-18T16:32:17.999Z</time></trkpt><trkpt lat="45.10412353195001" lon="10.040624475307226"><ele>37.333333333333336</ele><time>2026-04-18T16:32:18.999Z</time></trkpt><trkpt lat="45.10420165205264" lon="10.040650971626299"><ele>37.66666666666667</ele><time>2026-04-18T16:32:19.999Z</time></trkpt><trkpt lat="45.1042794559236" lon="10.040681175207657"><ele>38.0</ele><time>2026-04-18T16:32:20.999Z</time></trkpt><trkpt lat="45.10435990738733" lon="10.040702734721226"><ele>38.333333333333336</ele><time>2026-04-18T16:32:21.999Z</time></trkpt><trkpt lat="45.104438288141246" lon="10.040729013723377"><ele>38.666666666666664</ele><time>2026-04-18T16:32:22.999Z</time></trkpt><trkpt lat="45.10451405196032" lon="10.04076239928292"><ele>39.0</ele><time>2026-04-18T16:32:23.999Z</time></trkpt><trkpt lat="45.10458992062187" lon="10.040789523144385"><ele>39.0</ele><time>2026-04-18T16:32:24.999Z</time></trkpt><trkpt lat="45.10466449498706" lon="10.040815400474495"><ele>39.0</ele><time>2026-04-18T16:32:25.999Z</time></trkpt><trkpt lat="45.10473722724102" lon="10.040839547567641"><ele>39.0</ele><time>2026-04-18T16:32:26.999Z</time></trkpt><trkpt lat="45.10480879878964" lon="10.040871923685344"><ele>39.0</ele><time>2026-04-18T16:32:27.999Z</time></trkpt><trkpt lat="45.1048790261087" lon="10.040899488947138"><ele>39.0</ele><time>2026-04-18T16:32:28.999Z</time></trkpt><trkpt lat="45.10494399299815" lon="10.04092769030162"><ele>39.0</ele><time>2026-04-18T16:32:29.999Z</time></trkpt><trkpt lat="45.10500609091584" lon="10.040953147606949"><ele>39.0</ele><time>2026-04-18T16:32:30.999Z</time></trkpt><trkpt lat="45.10509538156027" lon="10.041018510132846"><ele>38.8</ele><time>2026-04-18T16:32:32.999Z</time></trkpt><trkpt lat="45.1051230897029" lon="10.04113218845628"><ele>38.599999999999994</ele><time>2026-04-18T16:32:34.999Z</time></trkpt><trkpt lat="45.10507347201967" lon="10.04128268333382"><ele>38.4</ele><time>2026-04-18T16:32:36.999Z</time></trkpt><trkpt lat="45.1050633004236" lon="10.041409482595187"><ele>38.199999999999996</ele><time>2026-04-18T16:32:37.999Z</time></trkpt><trkpt lat="45.10507117764437" lon="10.041543980262935"><ele>38.0</ele><time>2026-04-18T16:32:38.999Z</time></trkpt><trkpt lat="45.10502828481052" lon="10.041614454210192"><ele>38.0</ele><time>2026-04-18T16:32:39.999Z</time></trkpt><trkpt lat="45.10499287237461" lon="10.041739641255914"><ele>38.0</ele><time>2026-04-18T16:32:40.999Z</time></trkpt><trkpt lat="45.10493692593016" lon="10.041806326859517"><ele>38.0</ele><time>2026-04-18T16:32:42.999Z</time></trkpt><trkpt lat="45.10488714774641" lon="10.041885889705682"><ele>38.0</ele><time>2026-04-18T16:32:43.999Z</time></trkpt><trkpt lat="45.104836131716155" lon="10.041970194741582"><ele>38.0</ele><time>2026-04-18T16:32:44.999Z</time></trkpt><trkpt lat="45.10478749794697" lon="10.042044290479435"><ele>38.0</ele><time>2026-04-18T16:32:45.999Z</time></trkpt><trkpt lat="45.10473871851677" lon="10.042122282192258"><ele>37.857142857142854</ele><time>2026-04-18T16:32:46.999Z</time></trkpt><trkpt lat="45.10469302523837" lon="10.042210460578284"><ele>37.714285714285715</ele><time>2026-04-18T16:32:47.999Z</time></trkpt><trkpt lat="45.10465183236461" lon="10.04229193840957"><ele>37.57142857142857</ele><time>2026-04-18T16:32:48.999Z</time></trkpt><trkpt lat="45.10460769678427" lon="10.042369115105863"><ele>37.42857142857143</ele><time>2026-04-18T16:32:49.999Z</time></trkpt><trkpt lat="45.104560976908566" lon="10.042448239471838"><ele>37.285714285714285</ele><time>2026-04-18T16:32:50.999Z</time></trkpt><trkpt lat="45.10451775523525" lon="10.042522768890056"><ele>37.142857142857146</ele><time>2026-04-18T16:32:51.999Z</time></trkpt><trkpt lat="45.10447976957101" lon="10.042602377912823"><ele>37.0</ele><time>2026-04-18T16:32:52.999Z</time></trkpt><trkpt lat="45.104432480970225" lon="10.042675904440879"><ele>37.0</ele><time>2026-04-18T16:32:53.999Z</time></trkpt><trkpt lat="45.10438966404622" lon="10.042747629850426"><ele>37.0</ele><time>2026-04-18T16:32:54.999Z</time></trkpt><trkpt lat="45.10434372065184" lon="10.042818598133557"><ele>37.0</ele><time>2026-04-18T16:32:55.999Z</time></trkpt><trkpt lat="45.10429478871477" lon="10.042888564721594"><ele>37.0</ele><time>2026-04-18T16:32:56.998Z</time></trkpt><trkpt lat="45.10424299352886" lon="10.04296822530699"><ele>37.0</ele><time>2026-04-18T16:32:57.998Z</time></trkpt><trkpt lat="45.104194968314616" lon="10.043034427811149"><ele>37.0</ele><time>2026-04-18T16:32:58.998Z</time></trkpt><trkpt lat="45.104147511228" lon="10.043109154459454"><ele>37.0</ele><time>2026-04-18T16:32:59.998Z</time></trkpt><trkpt lat="45.10410425369544" lon="10.043184989652442"><ele>36.833333333333336</ele><time>2026-04-18T16:33:00.998Z</time></trkpt><trkpt lat="45.10406441422561" lon="10.043269824792706"><ele>36.66666666666667</ele><time>2026-04-18T16:33:01.998Z</time></trkpt><trkpt lat="45.104027852414646" lon="10.04334912954945"><ele>36.5</ele><time>2026-04-18T16:33:02.998Z</time></trkpt><trkpt lat="45.10403208420007" lon="10.043458698437236"><ele>36.333333333333336</ele><time>2026-04-18T16:33:03.998Z</time></trkpt><trkpt lat="45.104057011930834" lon="10.043569864737997"><ele>36.166666666666664</ele><time>2026-04-18T16:33:04.998Z</time></trkpt><trkpt lat="45.1041061309709" lon="10.043668175554467"><ele>36.0</ele><time>2026-04-18T16:33:05.998Z</time></trkpt><trkpt lat="45.10414639075859" lon="10.04376030202175"><ele>36.0</ele><time>2026-04-18T16:33:06.998Z</time></trkpt><trkpt lat="45.104183966992835" lon="10.04386295264124"><ele>36.0</ele><time>2026-04-18T16:33:07.998Z</time></trkpt><trkpt lat="45.104222168012065" lon="10.043967158650549"><ele>36.0</ele><time>2026-04-18T16:33:09Z</time></trkpt><trkpt lat="45.10425128987517" lon="10.044075187499578"><ele>36.0</ele><time>2026-04-18T16:33:10Z</time></trkpt><trkpt lat="45.10428793987083" lon="10.044181796176474"><ele>36.0</ele><time>2026-04-18T16:33:11Z</time></trkpt><trkpt lat="45.10432505006236" lon="10.044288848736908"><ele>36.0</ele><time>2026-04-18T16:33:12Z</time></trkpt><trkpt lat="45.10435543883143" lon="10.044401808078737"><ele>36.0</ele><time>2026-04-18T16:33:13Z</time></trkpt><trkpt lat="45.104389343480186" lon="10.044508978516387"><ele>36.0</ele><time>2026-04-18T16:33:14Z</time></trkpt><trkpt lat="45.10441767431661" lon="10.044619122608156"><ele>36.0</ele><time>2026-04-18T16:33:15Z</time></trkpt><trkpt lat="45.10443956969139" lon="10.044735772989036"><ele>36.0</ele><time>2026-04-18T16:33:16Z</time></trkpt><trkpt lat="45.104467746654485" lon="10.04485260710528"><ele>36.0</ele><time>2026-04-18T16:33:17Z</time></trkpt><trkpt lat="45.104494297744786" lon="10.044966010412654"><ele>36.0</ele><time>2026-04-18T16:33:18Z</time></trkpt><trkpt lat="45.1045172389804" lon="10.045084314865449"><ele>35.833333333333336</ele><time>2026-04-18T16:33:19Z</time></trkpt><trkpt lat="45.10454399352953" lon="10.045197829207304"><ele>35.666666666666664</ele><time>2026-04-18T16:33:20Z</time></trkpt><trkpt lat="45.10456654561743" lon="10.04531823643569"><ele>35.5</ele><time>2026-04-18T16:33:21Z</time></trkpt><trkpt lat="45.10459076407723" lon="10.045436735390943"><ele>35.33333333333333</ele><time>2026-04-18T16:33:22Z</time></trkpt><trkpt lat="45.104619597174974" lon="10.045548964950022"><ele>35.166666666666664</ele><time>2026-04-18T16:33:23Z</time></trkpt><trkpt lat="45.10464416536754" lon="10.045664389906976"><ele>35.0</ele><time>2026-04-18T16:33:24Z</time></trkpt><trkpt lat="45.10467178860149" lon="10.045776639639444"><ele>34.666666666666664</ele><time>2026-04-18T16:33:25Z</time></trkpt><trkpt lat="45.10469375966972" lon="10.045891297987396"><ele>34.33333333333333</ele><time>2026-04-18T16:33:26Z</time></trkpt><trkpt lat="45.10471935723563" lon="10.046009194676078"><ele>34.0</ele><time>2026-04-18T16:33:27Z</time></trkpt><trkpt lat="45.10474427295541" lon="10.046122252241815"><ele>33.666666666666664</ele><time>2026-04-18T16:33:28Z</time></trkpt><trkpt lat="45.104768053107684" lon="10.046236420629679"><ele>33.333333333333336</ele><time>2026-04-18T16:33:29Z</time></trkpt><trkpt lat="45.10479215329381" lon="10.046351648552175"><ele>33.0</ele><time>2026-04-18T16:33:30Z</time></trkpt><trkpt lat="45.10482360789756" lon="10.046463539659955"><ele>33.0</ele><time>2026-04-18T16:33:31Z</time></trkpt><trkpt lat="45.10484484956342" lon="10.04657624646604"><ele>33.0</ele><time>2026-04-18T16:33:32Z</time></trkpt><trkpt lat="45.104866784108715" lon="10.046691720030214"><ele>33.0</ele><time>2026-04-18T16:33:33Z</time></trkpt><trkpt lat="45.10489998766182" lon="10.046797979254078"><ele>33.0</ele><time>2026-04-18T16:33:34Z</time></trkpt><trkpt lat="45.10492579360076" lon="10.046910928164197"><ele>33.0</ele><time>2026-04-18T16:33:35Z</time></trkpt><trkpt lat="45.10494883870483" lon="10.047024616759856"><ele>33.0</ele><time>2026-04-18T16:33:36Z</time></trkpt><trkpt lat="45.10497654810189" lon="10.04713403991429"><ele>33.166666666666664</ele><time>2026-04-18T16:33:37Z</time></trkpt><trkpt lat="45.105001531672656" lon="10.047243086981469"><ele>33.333333333333336</ele><time>2026-04-18T16:33:38Z</time></trkpt><trkpt lat="45.1050244635137" lon="10.047353331937842"><ele>33.5</ele><time>2026-04-18T16:33:39Z</time></trkpt><trkpt lat="45.105055738094705" lon="10.047462247355204"><ele>33.66666666666667</ele><time>2026-04-18T16:33:40Z</time></trkpt><trkpt lat="45.10508146521294" lon="10.047575941112525"><ele>33.833333333333336</ele><time>2026-04-18T16:33:41Z</time></trkpt><trkpt lat="45.105109273226006" lon="10.047686447551678"><ele>34.0</ele><time>2026-04-18T16:33:42Z</time></trkpt><trkpt lat="45.1051348139801" lon="10.047795715483725"><ele>34.16666666666667</ele><time>2026-04-18T16:33:43Z</time></trkpt><trkpt lat="45.10516533952525" lon="10.04790898548989"><ele>34.333333333333336</ele><time>2026-04-18T16:33:44Z</time></trkpt><trkpt lat="45.10519644190864" lon="10.048024310690709"><ele>34.5</ele><time>2026-04-18T16:33:45Z</time></trkpt><trkpt lat="45.105213456793095" lon="10.048146361089493"><ele>34.666666666666664</ele><time>2026-04-18T16:33:46Z</time></trkpt><trkpt lat="45.105217973387205" lon="10.048269520738739"><ele>34.83333333333333</ele><time>2026-04-18T16:33:47Z</time></trkpt><trkpt lat="45.1052289773088" lon="10.048391536452286"><ele>35.0</ele><time>2026-04-18T16:33:48Z</time></trkpt><trkpt lat="45.10523930698979" lon="10.048516551866232"><ele>35.0</ele><time>2026-04-18T16:33:49Z</time></trkpt><trkpt lat="45.10525507429586" lon="10.04863744027329"><ele>35.0</ele><time>2026-04-18T16:33:50Z</time></trkpt><trkpt lat="45.10527195128548" lon="10.048758898302566"><ele>35.0</ele><time>2026-04-18T16:33:51Z</time></trkpt><trkpt lat="45.10528279798451" lon="10.048877794925607"><ele>35.0</ele><time>2026-04-18T16:33:52Z</time></trkpt><trkpt lat="45.105295344362965" lon="10.048994553525366"><ele>35.0</ele><time>2026-04-18T16:33:53Z</time></trkpt><trkpt lat="45.10530396251222" lon="10.049113740687993"><ele>35.0</ele><time>2026-04-18T16:33:54Z</time></trkpt><trkpt lat="45.10531716799957" lon="10.049230625152328"><ele>34.666666666666664</ele><time>2026-04-18T16:33:55Z</time></trkpt><trkpt lat="45.10532253538778" lon="10.04935157660489"><ele>34.33333333333333</ele><time>2026-04-18T16:33:56Z</time></trkpt><trkpt lat="45.10533052936845" lon="10.049471755574896"><ele>34.0</ele><time>2026-04-18T16:33:57Z</time></trkpt><trkpt lat="45.105335939670596" lon="10.04958803058886"><ele>33.666666666666664</ele><time>2026-04-18T16:33:58Z</time></trkpt><trkpt lat="45.10533980228494" lon="10.049706446529873"><ele>33.333333333333336</ele><time>2026-04-18T16:33:59Z</time></trkpt><trkpt lat="45.105339013324595" lon="10.049824888783776"><ele>33.0</ele><time>2026-04-18T16:34:00Z</time></trkpt><trkpt lat="45.105340241855764" lon="10.049942932492543"><ele>33.166666666666664</ele><time>2026-04-18T16:34:01Z</time></trkpt><trkpt lat="45.10534691846224" lon="10.05005981145258"><ele>33.333333333333336</ele><time>2026-04-18T16:34:02Z</time></trkpt><trkpt lat="45.10534534223798" lon="10.050175970689118"><ele>33.5</ele><time>2026-04-18T16:34:03Z</time></trkpt><trkpt lat="45.105349432512384" lon="10.05028523303972"><ele>33.66666666666667</ele><time>2026-04-18T16:34:04Z</time></trkpt><trkpt lat="45.10535181462728" lon="10.050395429022023"><ele>33.833333333333336</ele><time>2026-04-18T16:34:05Z</time></trkpt><trkpt lat="45.10535156345787" lon="10.050510488351447"><ele>34.0</ele><time>2026-04-18T16:34:05.999Z</time></trkpt><trkpt lat="45.10534718197511" lon="10.05062470879973"><ele>34.0</ele><time>2026-04-18T16:34:06.999Z</time></trkpt><trkpt lat="45.10534906476608" lon="10.050740844725492"><ele>34.0</ele><time>2026-04-18T16:34:07.999Z</time></trkpt><trkpt lat="45.105343625834976" lon="10.050851403000687"><ele>34.0</ele><time>2026-04-18T16:34:08.999Z</time></trkpt><trkpt lat="45.10534791671568" lon="10.050962238324264"><ele>34.0</ele><time>2026-04-18T16:34:09.999Z</time></trkpt><trkpt lat="45.105350751631114" lon="10.051068998742588"><ele>34.0</ele><time>2026-04-18T16:34:10.999Z</time></trkpt><trkpt lat="45.10535133914201" lon="10.051171566241855"><ele>34.0</ele><time>2026-04-18T16:34:11.999Z</time></trkpt><trkpt lat="45.105350426778145" lon="10.0512695612576"><ele>33.857142857142854</ele><time>2026-04-18T16:34:12.999Z</time></trkpt><trkpt lat="45.10534935188826" lon="10.051365052364442"><ele>33.714285714285715</ele><time>2026-04-18T16:34:13.999Z</time></trkpt><trkpt lat="45.1053339882294" lon="10.051453360281707"><ele>33.57142857142857</ele><time>2026-04-18T16:34:14.999Z</time></trkpt><trkpt lat="45.10528659624699" lon="10.051523858081488"><ele>33.42857142857143</ele><time>2026-04-18T16:34:15.999Z</time></trkpt><trkpt lat="45.105207505532654" lon="10.051537160353337"><ele>33.285714285714285</ele><time>2026-04-18T16:34:16.999Z</time></trkpt><trkpt lat="45.10512359820759" lon="10.051548434978791"><ele>33.14285714285714</ele><time>2026-04-18T16:34:17.999Z</time></trkpt><trkpt lat="45.1050451531106" lon="10.051534145042421"><ele>33.0</ele><time>2026-04-18T16:34:18.999Z</time></trkpt><trkpt lat="45.10496827219139" lon="10.051521880290744"><ele>33.0</ele><time>2026-04-18T16:34:19.999Z</time></trkpt><trkpt lat="45.10489314525791" lon="10.051522920503599"><ele>33.0</ele><time>2026-04-18T16:34:20.999Z</time></trkpt><trkpt lat="45.104816391178815" lon="10.051520171501702"><ele>33.0</ele><time>2026-04-18T16:34:21.999Z</time></trkpt><trkpt lat="45.104737892844824" lon="10.05150761381531"><ele>33.0</ele><time>2026-04-18T16:34:22.999Z</time></trkpt><trkpt lat="45.104660835277215" lon="10.051494439386454"><ele>33.0</ele><time>2026-04-18T16:34:23.999Z</time></trkpt><trkpt lat="45.104583653574515" lon="10.051471035714956"><ele>33.0</ele><time>2026-04-18T16:34:24.999Z</time></trkpt><trkpt lat="45.10450438817684" lon="10.051459504391143"><ele>33.0</ele><time>2026-04-18T16:34:25.999Z</time></trkpt><trkpt lat="45.10442564620739" lon="10.05144374285584"><ele>33.0</ele><time>2026-04-18T16:34:26.999Z</time></trkpt><trkpt lat="45.10434446181908" lon="10.051429765197234"><ele>33.0</ele><time>2026-04-18T16:34:27.999Z</time></trkpt><trkpt lat="45.10426493822532" lon="10.051410859024848"><ele>33.0</ele><time>2026-04-18T16:34:28.999Z</time></trkpt><trkpt lat="45.1041854897248" lon="10.05138963192776"><ele>33.0</ele><time>2026-04-18T16:34:29.999Z</time></trkpt><trkpt lat="45.10410519540052" lon="10.051379398005292"><ele>33.0</ele><time>2026-04-18T16:34:30.999Z</time></trkpt><trkpt lat="45.10402430318772" lon="10.051359822228912"><ele>33.166666666666664</ele><time>2026-04-18T16:34:31.999Z</time></trkpt><trkpt lat="45.10394308193954" lon="10.051346923256622"><ele>33.333333333333336</ele><time>2026-04-18T16:34:32.999Z</time></trkpt><trkpt lat="45.10386193448039" lon="10.051326132005778"><ele>33.5</ele><time>2026-04-18T16:34:33.999Z</time></trkpt><trkpt lat="45.10378379110955" lon="10.051312774441307"><ele>33.66666666666667</ele><time>2026-04-18T16:34:34.999Z</time></trkpt><trkpt lat="45.10370775908176" lon="10.05129434874557"><ele>33.833333333333336</ele><time>2026-04-18T16:34:35.999Z</time></trkpt><trkpt lat="45.1036286736411" lon="10.05127534158678"><ele>34.0</ele><time>2026-04-18T16:34:36.999Z</time></trkpt><trkpt lat="45.10355231549564" lon="10.05125800315391"><ele>34.0</ele><time>2026-04-18T16:34:37.999Z</time></trkpt><trkpt lat="45.10347327657104" lon="10.051238744695512"><ele>34.0</ele><time>2026-04-18T16:34:38.999Z</time></trkpt><trkpt lat="45.103392266289504" lon="10.051232036102846"><ele>34.0</ele><time>2026-04-18T16:34:39.999Z</time></trkpt><trkpt lat="45.1033133546018" lon="10.051215384105271"><ele>34.0</ele><time>2026-04-18T16:34:40.999Z</time></trkpt><trkpt lat="45.10323270424565" lon="10.05120190542386"><ele>34.0</ele><time>2026-04-18T16:34:41.999Z</time></trkpt><trkpt lat="45.10315360979532" lon="10.051184413642114"><ele>34.0</ele><time>2026-04-18T16:34:42.999Z</time></trkpt><trkpt lat="45.10307489225241" lon="10.051173563733416"><ele>34.16666666666667</ele><time>2026-04-18T16:34:43.999Z</time></trkpt><trkpt lat="45.102996097419016" lon="10.05116118830754"><ele>34.333333333333336</ele><time>2026-04-18T16:34:44.999Z</time></trkpt><trkpt lat="45.102915196355866" lon="10.051151139504514"><ele>34.5</ele><time>2026-04-18T16:34:45.999Z</time></trkpt><trkpt lat="45.10283579375981" lon="10.051138170921107"><ele>34.666666666666664</ele><time>2026-04-18T16:34:46.999Z</time></trkpt><trkpt lat="45.10275612392134" lon="10.051123455188003"><ele>34.83333333333333</ele><time>2026-04-18T16:34:47.999Z</time></trkpt><trkpt lat="45.1026778331004" lon="10.05111174190636"><ele>35.0</ele><time>2026-04-18T16:34:48.999Z</time></trkpt><trkpt lat="45.10259913419661" lon="10.051104128108921"><ele>35.0</ele><time>2026-04-18T16:34:49.999Z</time></trkpt><trkpt lat="45.102515384149854" lon="10.051097760897298"><ele>35.0</ele><time>2026-04-18T16:34:50.999Z</time></trkpt><trkpt lat="45.102436075771855" lon="10.051092673591093"><ele>35.0</ele><time>2026-04-18T16:34:51.999Z</time></trkpt><trkpt lat="45.10235513450665" lon="10.051087752796578"><ele>35.0</ele><time>2026-04-18T16:34:52.999Z</time></trkpt><trkpt lat="45.10227453474795" lon="10.051083024707532"><ele>35.0</ele><time>2026-04-18T16:34:53.999Z</time></trkpt><trkpt lat="45.102193425749306" lon="10.051069724670649"><ele>35.0</ele><time>2026-04-18T16:34:54.999Z</time></trkpt><trkpt lat="45.10211316187976" lon="10.0510548474577"><ele>35.33333333333333</ele><time>2026-04-18T16:34:55.999Z</time></trkpt><trkpt lat="45.10203266721334" lon="10.05103873077113"><ele>35.666666666666664</ele><time>2026-04-18T16:34:56.999Z</time></trkpt><trkpt lat="45.10195483160009" lon="10.051024711402368"><ele>36.0</ele><time>2026-04-18T16:34:57.999Z</time></trkpt><trkpt lat="45.10188010975033" lon="10.051010263866486"><ele>36.333333333333336</ele><time>2026-04-18T16:34:58.999Z</time></trkpt><trkpt lat="45.101806154362336" lon="10.051012908648923"><ele>36.66666666666667</ele><time>2026-04-18T16:34:59.999Z</time></trkpt><trkpt lat="45.1017376104899" lon="10.0510629033206"><ele>37.0</ele><time>2026-04-18T16:35:00.998Z</time></trkpt><trkpt lat="45.10168168088893" lon="10.051159407475378"><ele>37.0</ele><time>2026-04-18T16:35:01.998Z</time></trkpt><trkpt lat="45.10165925852296" lon="10.051270516505197"><ele>37.0</ele><time>2026-04-18T16:35:02.998Z</time></trkpt><trkpt lat="45.1016518748265" lon="10.051388522991086"><ele>37.0</ele><time>2026-04-18T16:35:03.998Z</time></trkpt><trkpt lat="45.101651860166456" lon="10.0515049142389"><ele>37.0</ele><time>2026-04-18T16:35:04.998Z</time></trkpt><trkpt lat="45.10164530034366" lon="10.05162404446192"><ele>37.0</ele><time>2026-04-18T16:35:05.998Z</time></trkpt><trkpt lat="45.10163290284927" lon="10.051742776436978"><ele>37.0</ele><time>2026-04-18T16:35:06.998Z</time></trkpt><trkpt lat="45.10162382580614" lon="10.051861898351598"><ele>36.833333333333336</ele><time>2026-04-18T16:35:07.998Z</time></trkpt><trkpt lat="45.10161445402471" lon="10.051977822272933"><ele>36.66666666666667</ele><time>2026-04-18T16:35:08.998Z</time></trkpt><trkpt lat="45.101604546126666" lon="10.05209556509034"><ele>36.5</ele><time>2026-04-18T16:35:09.998Z</time></trkpt><trkpt lat="45.10159536419283" lon="10.052210618711939"><ele>36.333333333333336</ele><time>2026-04-18T16:35:10.998Z</time></trkpt><trkpt lat="45.10158573152398" lon="10.052327180339638"><ele>36.166666666666664</ele><time>2026-04-18T16:35:11.998Z</time></trkpt><trkpt lat="45.101581880725035" lon="10.052445852473221"><ele>36.0</ele><time>2026-04-18T16:35:12.998Z</time></trkpt><trkpt lat="45.10157077775" lon="10.052561562766972"><ele>35.833333333333336</ele><time>2026-04-18T16:35:13.998Z</time></trkpt><trkpt lat="45.10155946048915" lon="10.052681376872943"><ele>35.666666666666664</ele><time>2026-04-18T16:35:15Z</time></trkpt><trkpt lat="45.10155343616727" lon="10.052798165419329"><ele>35.5</ele><time>2026-04-18T16:35:16Z</time></trkpt><trkpt lat="45.10154451316741" lon="10.052917773542415"><ele>35.33333333333333</ele><time>2026-04-18T16:35:17Z</time></trkpt><trkpt lat="45.10153413861457" lon="10.05303441003894"><ele>35.166666666666664</ele><time>2026-04-18T16:35:18Z</time></trkpt><trkpt lat="45.101526260743974" lon="10.053148822884353"><ele>35.0</ele><time>2026-04-18T16:35:19Z</time></trkpt><trkpt lat="45.10151592520437" lon="10.053263160277718"><ele>35.0</ele><time>2026-04-18T16:35:20Z</time></trkpt><trkpt lat="45.1015072107206" lon="10.053378209068526"><ele>35.0</ele><time>2026-04-18T16:35:21Z</time></trkpt><trkpt lat="45.10149963112237" lon="10.053493127284083"><ele>35.0</ele><time>2026-04-18T16:35:22Z</time></trkpt><trkpt lat="45.10149173275056" lon="10.053608285773672"><ele>35.0</ele><time>2026-04-18T16:35:23Z</time></trkpt><trkpt lat="45.101480498938756" lon="10.053722261141134"><ele>35.0</ele><time>2026-04-18T16:35:24Z</time></trkpt><trkpt lat="45.10147844854267" lon="10.053837430070873"><ele>35.0</ele><time>2026-04-18T16:35:25Z</time></trkpt><trkpt lat="45.10147673856604" lon="10.053950943350143"><ele>35.0</ele><time>2026-04-18T16:35:26Z</time></trkpt><trkpt lat="45.10147273787335" lon="10.054067786629789"><ele>35.0</ele><time>2026-04-18T16:35:27Z</time></trkpt><trkpt lat="45.10148516279334" lon="10.054174562050722"><ele>35.0</ele><time>2026-04-18T16:35:28Z</time></trkpt><trkpt lat="45.101501496770666" lon="10.054288177105292"><ele>35.0</ele><time>2026-04-18T16:35:29Z</time></trkpt><trkpt lat="45.101533018439476" lon="10.05439746869381"><ele>35.0</ele><time>2026-04-18T16:35:30Z</time></trkpt><trkpt lat="45.101561086744816" lon="10.054504812832931"><ele>35.0</ele><time>2026-04-18T16:35:31Z</time></trkpt><trkpt lat="45.10159574884011" lon="10.05460649806774"><ele>35.0</ele><time>2026-04-18T16:35:32Z</time></trkpt><trkpt lat="45.10162810097778" lon="10.054717781686268"><ele>35.0</ele><time>2026-04-18T16:35:33Z</time></trkpt><trkpt lat="45.1016587346242" lon="10.054826458606668"><ele>35.0</ele><time>2026-04-18T16:35:34Z</time></trkpt><trkpt lat="45.10169365449445" lon="10.054930404251316"><ele>35.0</ele><time>2026-04-18T16:35:35Z</time></trkpt><trkpt lat="45.10172718586936" lon="10.055035237554907"><ele>35.0</ele><time>2026-04-18T16:35:36Z</time></trkpt><trkpt lat="45.101759083325334" lon="10.055141081567427"><ele>35.0</ele><time>2026-04-18T16:35:37Z</time></trkpt><trkpt lat="45.101793535576626" lon="10.055248488845415"><ele>34.83333333333333</ele><time>2026-04-18T16:35:38Z</time></trkpt><trkpt lat="45.101826664574816" lon="10.055352841527597"><ele>34.666666666666664</ele><time>2026-04-18T16:35:39Z</time></trkpt><trkpt lat="45.10186198248886" lon="10.055459164950761"><ele>34.5</ele><time>2026-04-18T16:35:40Z</time></trkpt><trkpt lat="45.10189692563166" lon="10.05556215329357"><ele>34.333333333333336</ele><time>2026-04-18T16:35:41Z</time></trkpt><trkpt lat="45.10192926143295" lon="10.05566910108114"><ele>34.16666666666667</ele><time>2026-04-18T16:35:42Z</time></trkpt><trkpt lat="45.1019632298701" lon="10.055773920384945"><ele>34.0</ele><time>2026-04-18T16:35:43Z</time></trkpt><trkpt lat="45.10199826911533" lon="10.055880518703152"><ele>34.333333333333336</ele><time>2026-04-18T16:35:44Z</time></trkpt><trkpt lat="45.10203163281425" lon="10.055987443544081"><ele>34.66666666666667</ele><time>2026-04-18T16:35:45Z</time></trkpt><trkpt lat="45.10206572197872" lon="10.056093119255582"><ele>35.0</ele><time>2026-04-18T16:35:46Z</time></trkpt><trkpt lat="45.102099902336214" lon="10.056198925976288"><ele>35.333333333333336</ele><time>2026-04-18T16:35:47Z</time></trkpt><trkpt lat="45.10213596495428" lon="10.056307577245036"><ele>35.666666666666664</ele><time>2026-04-18T16:35:48Z</time></trkpt><trkpt lat="45.10217386065913" lon="10.056414828291546"><ele>36.0</ele><time>2026-04-18T16:35:49Z</time></trkpt><trkpt lat="45.10221234067513" lon="10.056522110009531"><ele>36.333333333333336</ele><time>2026-04-18T16:35:50Z</time></trkpt><trkpt lat="45.10225524738656" lon="10.05663308291162"><ele>36.666666666666664</ele><time>2026-04-18T16:35:51Z</time></trkpt><trkpt lat="45.10229099249784" lon="10.0567429247387"><ele>37.0</ele><time>2026-04-18T16:35:52Z</time></trkpt><trkpt lat="45.10230812770225" lon="10.056832592021832"><ele>37.33333333333333</ele><time>2026-04-18T16:35:53Z</time></trkpt><trkpt lat="45.10233444109966" lon="10.056929115008543"><ele>37.666666666666664</ele><time>2026-04-18T16:35:54Z</time></trkpt><trkpt lat="45.10237295015406" lon="10.057025729858687"><ele>38.0</ele><time>2026-04-18T16:35:55Z</time></trkpt><trkpt lat="45.10240292338439" lon="10.057115548064475"><ele>38.166666666666664</ele><time>2026-04-18T16:35:56Z</time></trkpt><trkpt lat="45.10242708823833" lon="10.0572158386429"><ele>38.33333333333333</ele><time>2026-04-18T16:35:57Z</time></trkpt><trkpt lat="45.10245791569289" lon="10.057317237735017"><ele>38.5</ele><time>2026-04-18T16:35:58Z</time></trkpt><trkpt lat="45.10248375910687" lon="10.057407420068763"><ele>38.666666666666664</ele><time>2026-04-18T16:35:59Z</time></trkpt><trkpt lat="45.10251707804017" lon="10.057505900444156"><ele>38.833333333333336</ele><time>2026-04-18T16:36:00Z</time></trkpt><trkpt lat="45.10255125540288" lon="10.057610018464647"><ele>39.0</ele><time>2026-04-18T16:36:01Z</time></trkpt><trkpt lat="45.1025873812062" lon="10.057714339651598"><ele>39.166666666666664</ele><time>2026-04-18T16:36:02Z</time></trkpt><trkpt lat="45.10262982267807" lon="10.057821014827178"><ele>39.333333333333336</ele><time>2026-04-18T16:36:03Z</time></trkpt><trkpt lat="45.10267058221644" lon="10.057932880902907"><ele>39.5</ele><time>2026-04-18T16:36:04Z</time></trkpt><trkpt lat="45.1027004066369" lon="10.058034037201603"><ele>39.66666666666667</ele><time>2026-04-18T16:36:05Z</time></trkpt><trkpt lat="45.10273093377776" lon="10.058136636835313"><ele>39.833333333333336</ele><time>2026-04-18T16:36:06Z</time></trkpt><trkpt lat="45.10274890005421" lon="10.05824437290701"><ele>40.0</ele><time>2026-04-18T16:36:07Z</time></trkpt><trkpt lat="45.10277058854665" lon="10.058358203206824"><ele>39.5</ele><time>2026-04-18T16:36:08Z</time></trkpt><trkpt lat="45.10278774481756" lon="10.058459222735609"><ele>39.0</ele><time>2026-04-18T16:36:08.999Z</time></trkpt><trkpt lat="45.102811625472526" lon="10.0585709205839"><ele>38.5</ele><time>2026-04-18T16:36:09.999Z</time></trkpt><trkpt lat="45.102829934587504" lon="10.058686056638301"><ele>38.0</ele><time>2026-04-18T16:36:10.999Z</time></trkpt><trkpt lat="45.102845551783524" lon="10.058792381785349"><ele>37.5</ele><time>2026-04-18T16:36:11.999Z</time></trkpt><trkpt lat="45.10286496929424" lon="10.058905427817075"><ele>37.0</ele><time>2026-04-18T16:36:12.999Z</time></trkpt><trkpt lat="45.102888208007776" lon="10.059011458500546"><ele>37.0</ele><time>2026-04-18T16:36:13.999Z</time></trkpt><trkpt lat="45.10293207530738" lon="10.059109131047258"><ele>37.0</ele><time>2026-04-18T16:36:14.999Z</time></trkpt><trkpt lat="45.10299921928997" lon="10.059171260874173"><ele>37.0</ele><time>2026-04-18T16:36:15.999Z</time></trkpt><trkpt lat="45.10308029370721" lon="10.059206546784871"><ele>37.0</ele><time>2026-04-18T16:36:16.999Z</time></trkpt><trkpt lat="45.1031637122174" lon="10.059204727573547"><ele>37.0</ele><time>2026-04-18T16:36:17.999Z</time></trkpt><trkpt lat="45.10324251765031" lon="10.05921747288069"><ele>37.0</ele><time>2026-04-18T16:36:18.999Z</time></trkpt><trkpt lat="45.1033171368956" lon="10.059267925351582"><ele>36.66666666666667</ele><time>2026-04-18T16:36:19.999Z</time></trkpt><trkpt lat="45.10337942117368" lon="10.05935607448317"><ele>36.333333333333336</ele><time>2026-04-18T16:36:20.999Z</time></trkpt><trkpt lat="45.10341752347375" lon="10.059468616302944"><ele>36.0</ele><time>2026-04-18T16:36:21.999Z</time></trkpt><trkpt lat="45.103432973896744" lon="10.059590028845983"><ele>35.666666666666664</ele><time>2026-04-18T16:36:22.999Z</time></trkpt><trkpt lat="45.10342999395129" lon="10.059713471261972"><ele>35.33333333333333</ele><time>2026-04-18T16:36:23.999Z</time></trkpt><trkpt lat="45.10341444327159" lon="10.059833068149093"><ele>35.0</ele><time>2026-04-18T16:36:24.999Z</time></trkpt><trkpt lat="45.103404824397415" lon="10.059948717278996"><ele>34.83333333333333</ele><time>2026-04-18T16:36:25.999Z</time></trkpt><trkpt lat="45.10339555967286" lon="10.060055794873428"><ele>34.666666666666664</ele><time>2026-04-18T16:36:26.999Z</time></trkpt><trkpt lat="45.103400066742886" lon="10.0601769369969"><ele>34.5</ele><time>2026-04-18T16:36:27.999Z</time></trkpt><trkpt lat="45.1033946467814" lon="10.060287605494432"><ele>34.333333333333336</ele><time>2026-04-18T16:36:28.999Z</time></trkpt><trkpt lat="45.10338620646031" lon="10.060394529444446"><ele>34.16666666666667</ele><time>2026-04-18T16:36:29.999Z</time></trkpt><trkpt lat="45.10338031841188" lon="10.060511800378737"><ele>34.0</ele><time>2026-04-18T16:36:30.999Z</time></trkpt><trkpt lat="45.103369857603354" lon="10.060623646672962"><ele>34.0</ele><time>2026-04-18T16:36:31.999Z</time></trkpt><trkpt lat="45.103368755074534" lon="10.060733972692423"><ele>34.0</ele><time>2026-04-18T16:36:32.999Z</time></trkpt><trkpt lat="45.1033637182033" lon="10.060847566471619"><ele>34.0</ele><time>2026-04-18T16:36:33.999Z</time></trkpt><trkpt lat="45.10336313463568" lon="10.06095471947505"><ele>34.0</ele><time>2026-04-18T16:36:34.999Z</time></trkpt><trkpt lat="45.10335667249956" lon="10.061067105676372"><ele>34.0</ele><time>2026-04-18T16:36:35.999Z</time></trkpt><trkpt lat="45.1033497981689" lon="10.061177975310734"><ele>34.0</ele><time>2026-04-18T16:36:36.999Z</time></trkpt><trkpt lat="45.103345594442686" lon="10.061288644536333"><ele>34.16666666666667</ele><time>2026-04-18T16:36:37.999Z</time></trkpt><trkpt lat="45.10334159583472" lon="10.061401289311643"><ele>34.333333333333336</ele><time>2026-04-18T16:36:38.999Z</time></trkpt><trkpt lat="45.103336828271274" lon="10.061511991440776"><ele>34.5</ele><time>2026-04-18T16:36:39.999Z</time></trkpt><trkpt lat="45.10333841831058" lon="10.061631324729262"><ele>34.666666666666664</ele><time>2026-04-18T16:36:40.999Z</time></trkpt><trkpt lat="45.103330123485755" lon="10.061745888246174"><ele>34.83333333333333</ele><time>2026-04-18T16:36:41.999Z</time></trkpt><trkpt lat="45.10333307859378" lon="10.061865207465974"><ele>35.0</ele><time>2026-04-18T16:36:42.999Z</time></trkpt><trkpt lat="45.10333518510491" lon="10.061980975023916"><ele>35.0</ele><time>2026-04-18T16:36:43.999Z</time></trkpt><trkpt lat="45.103335961882294" lon="10.062099153368985"><ele>35.0</ele><time>2026-04-18T16:36:44.999Z</time></trkpt><trkpt lat="45.10333064486066" lon="10.062221501749002"><ele>35.0</ele><time>2026-04-18T16:36:45.999Z</time></trkpt><trkpt lat="45.10332146108921" lon="10.062340261343035"><ele>35.0</ele><time>2026-04-18T16:36:46.999Z</time></trkpt><trkpt lat="45.10331837351192" lon="10.062454012667915"><ele>35.0</ele><time>2026-04-18T16:36:47.999Z</time></trkpt><trkpt lat="45.1033136203019" lon="10.062562596718326"><ele>35.0</ele><time>2026-04-18T16:36:48.999Z</time></trkpt><trkpt lat="45.10331997935438" lon="10.062668287906241"><ele>34.83333333333333</ele><time>2026-04-18T16:36:49.999Z</time></trkpt><trkpt lat="45.10335741582889" lon="10.062765648049192"><ele>34.666666666666664</ele><time>2026-04-18T16:36:50.999Z</time></trkpt><trkpt lat="45.10342866995108" lon="10.062822640107276"><ele>34.5</ele><time>2026-04-18T16:36:51.999Z</time></trkpt><trkpt lat="45.10351978958751" lon="10.062796478843197"><ele>34.333333333333336</ele><time>2026-04-18T16:36:52.999Z</time></trkpt><trkpt lat="45.10360300476477" lon="10.062727572080485"><ele>34.16666666666667</ele><time>2026-04-18T16:36:53.999Z</time></trkpt><trkpt lat="45.10367979593932" lon="10.06267253597165"><ele>34.0</ele><time>2026-04-18T16:36:54.999Z</time></trkpt><trkpt lat="45.10375493367208" lon="10.062620397492548"><ele>34.0</ele><time>2026-04-18T16:36:55.999Z</time></trkpt><trkpt lat="45.1038357282349" lon="10.062577397592873"><ele>34.0</ele><time>2026-04-18T16:36:56.999Z</time></trkpt><trkpt lat="45.10391593325522" lon="10.062537382175428"><ele>34.0</ele><time>2026-04-18T16:36:57.999Z</time></trkpt><trkpt lat="45.10399730632207" lon="10.062496655631312"><ele>34.0</ele><time>2026-04-18T16:36:58.999Z</time></trkpt><trkpt lat="45.10407772726773" lon="10.062457954502648"><ele>34.0</ele><time>2026-04-18T16:36:59.999Z</time></trkpt><trkpt lat="45.104155944183255" lon="10.062419821485907"><ele>34.0</ele><time>2026-04-18T16:37:00.999Z</time></trkpt><trkpt lat="45.10423134913348" lon="10.06237493751772"><ele>33.66666666666667</ele><time>2026-04-18T16:37:01.999Z</time></trkpt><trkpt lat="45.104306052199085" lon="10.062335386906769"><ele>33.333333333333336</ele><time>2026-04-18T16:37:02.998Z</time></trkpt><trkpt lat="45.10438213573679" lon="10.062291018212234"><ele>33.0</ele><time>2026-04-18T16:37:03.998Z</time></trkpt><trkpt lat="45.104459428146015" lon="10.062248204436107"><ele>32.666666666666664</ele><time>2026-04-18T16:37:04.998Z</time></trkpt><trkpt lat="45.104537083004935" lon="10.062199389743315"><ele>32.33333333333333</ele><time>2026-04-18T16:37:05.998Z</time></trkpt><trkpt lat="45.10461372431931" lon="10.062153033503481"><ele>32.0</ele><time>2026-04-18T16:37:06.998Z</time></trkpt><trkpt lat="45.104693137713575" lon="10.062107808998684"><ele>31.999999999999996</ele><time>2026-04-18T16:37:07.998Z</time></trkpt><trkpt lat="45.10477238865827" lon="10.062068855671315"><ele>32.0</ele><time>2026-04-18T16:37:08.998Z</time></trkpt><trkpt lat="45.104856964723986" lon="10.062042063923178"><ele>32.0</ele><time>2026-04-18T16:37:09.998Z</time></trkpt><trkpt lat="45.10494471129936" lon="10.06203100652599"><ele>32.0</ele><time>2026-04-18T16:37:10.998Z</time></trkpt><trkpt lat="45.10503188309101" lon="10.062042959216157"><ele>31.999999999999996</ele><time>2026-04-18T16:37:11.998Z</time></trkpt><trkpt lat="45.10512330714243" lon="10.062070061424874"><ele>32.0</ele><time>2026-04-18T16:37:12.998Z</time></trkpt><trkpt lat="45.1052101208531" lon="10.062117339227646"><ele>31.999999999999996</ele><time>2026-04-18T16:37:13.998Z</time></trkpt><trkpt lat="45.10528944467014" lon="10.062179950650542"><ele>32.0</ele><time>2026-04-18T16:37:14.998Z</time></trkpt><trkpt lat="45.10536707364187" lon="10.062250010103039"><ele>32.0</ele><time>2026-04-18T16:37:15.998Z</time></trkpt><trkpt lat="45.105441844654315" lon="10.062320668579899"><ele>32.0</ele><time>2026-04-18T16:37:16.998Z</time></trkpt><trkpt lat="45.10551115170956" lon="10.062388169313802"><ele>31.999999999999996</ele><time>2026-04-18T16:37:17.998Z</time></trkpt><trkpt lat="45.10557456185647" lon="10.06246683289229"><ele>32.0</ele><time>2026-04-18T16:37:18.998Z</time></trkpt><trkpt lat="45.10563229090382" lon="10.062554585171597"><ele>32.33333333333333</ele><time>2026-04-18T16:37:19.998Z</time></trkpt><trkpt lat="45.10569505409616" lon="10.062636592448294"><ele>32.666666666666664</ele><time>2026-04-18T16:37:21Z</time></trkpt><trkpt lat="45.10574417908383" lon="10.062720874928615"><ele>33.0</ele><time>2026-04-18T16:37:22Z</time></trkpt><trkpt lat="45.10578938793106" lon="10.062816784157897"><ele>33.333333333333336</ele><time>2026-04-18T16:37:23Z</time></trkpt><trkpt lat="45.10584354130534" lon="10.062903521775333"><ele>33.66666666666667</ele><time>2026-04-18T16:37:24Z</time></trkpt><trkpt lat="45.105901978802905" lon="10.062985921552738"><ele>34.0</ele><time>2026-04-18T16:37:25Z</time></trkpt><trkpt lat="45.10594808311521" lon="10.063064466216579"><ele>34.0</ele><time>2026-04-18T16:37:26Z</time></trkpt><trkpt lat="45.10599565191153" lon="10.063147755255745"><ele>34.0</ele><time>2026-04-18T16:37:27Z</time></trkpt><trkpt lat="45.106046695191566" lon="10.063222295959141"><ele>34.0</ele><time>2026-04-18T16:37:28Z</time></trkpt><trkpt lat="45.10609577103702" lon="10.063295722365556"><ele>34.0</ele><time>2026-04-18T16:37:29Z</time></trkpt><trkpt lat="45.10614766482231" lon="10.063369926107702"><ele>34.0</ele><time>2026-04-18T16:37:30Z</time></trkpt><trkpt lat="45.10620246140483" lon="10.063443343801156"><ele>34.0</ele><time>2026-04-18T16:37:31Z</time></trkpt><trkpt lat="45.106254969100085" lon="10.063530034037797"><ele>34.16666666666667</ele><time>2026-04-18T16:37:32Z</time></trkpt><trkpt lat="45.10631121999501" lon="10.063620259216759"><ele>34.333333333333336</ele><time>2026-04-18T16:37:33Z</time></trkpt><trkpt lat="45.10636957962847" lon="10.063714256968325"><ele>34.5</ele><time>2026-04-18T16:37:34Z</time></trkpt><trkpt lat="45.10642684715861" lon="10.063812852302869"><ele>34.666666666666664</ele><time>2026-04-18T16:37:35Z</time></trkpt><trkpt lat="45.10648538573362" lon="10.063907434193537"><ele>34.83333333333333</ele><time>2026-04-18T16:37:36Z</time></trkpt><trkpt lat="45.10654802630426" lon="10.064000339170057"><ele>35.0</ele><time>2026-04-18T16:37:37Z</time></trkpt><trkpt lat="45.10661391165013" lon="10.0640909668798"><ele>34.666666666666664</ele><time>2026-04-18T16:37:38Z</time></trkpt><trkpt lat="45.106673020456846" lon="10.064190149922698"><ele>34.33333333333333</ele><time>2026-04-18T16:37:39Z</time></trkpt><trkpt lat="45.10673298065332" lon="10.064290678051375"><ele>34.0</ele><time>2026-04-18T16:37:40Z</time></trkpt><trkpt lat="45.106791712958476" lon="10.064387973473027"><ele>33.666666666666664</ele><time>2026-04-18T16:37:41Z</time></trkpt><trkpt lat="45.10685429840037" lon="10.064477281164887"><ele>33.333333333333336</ele><time>2026-04-18T16:37:42Z</time></trkpt><trkpt lat="45.10691010107861" lon="10.064568688140087"><ele>33.0</ele><time>2026-04-18T16:37:43Z</time></trkpt><trkpt lat="45.10696792804312" lon="10.064664954343629"><ele>33.0</ele><time>2026-04-18T16:37:44Z</time></trkpt><trkpt lat="45.107025542679324" lon="10.064761182364116"><ele>33.0</ele><time>2026-04-18T16:37:45Z</time></trkpt><trkpt lat="45.10708370027254" lon="10.064860075550692"><ele>33.0</ele><time>2026-04-18T16:37:46Z</time></trkpt><trkpt lat="45.1071378837432" lon="10.064962672755515"><ele>33.0</ele><time>2026-04-18T16:37:47Z</time></trkpt><trkpt lat="45.10720107707626" lon="10.065048528965292"><ele>33.0</ele><time>2026-04-18T16:37:48Z</time></trkpt><trkpt lat="45.107260850904915" lon="10.065140002519245"><ele>33.0</ele><time>2026-04-18T16:37:49Z</time></trkpt><trkpt lat="45.107319660118435" lon="10.065228551694398"><ele>33.0</ele><time>2026-04-18T16:37:50Z</time></trkpt><trkpt lat="45.10738018825773" lon="10.065320594695207"><ele>33.0</ele><time>2026-04-18T16:37:51Z</time></trkpt><trkpt lat="45.10743934056077" lon="10.065414345105246"><ele>33.0</ele><time>2026-04-18T16:37:52Z</time></trkpt><trkpt lat="45.10749501388385" lon="10.065511542263916"><ele>33.0</ele><time>2026-04-18T16:37:53Z</time></trkpt><trkpt lat="45.10755129109942" lon="10.065612841387988"><ele>33.0</ele><time>2026-04-18T16:37:54Z</time></trkpt><trkpt lat="45.10760874369563" lon="10.065704110888143"><ele>33.0</ele><time>2026-04-18T16:37:55Z</time></trkpt><trkpt lat="45.10767192509808" lon="10.06579009240627"><ele>33.0</ele><time>2026-04-18T16:37:56Z</time></trkpt><trkpt lat="45.107726321104344" lon="10.065886587062696"><ele>33.0</ele><time>2026-04-18T16:37:57Z</time></trkpt><trkpt lat="45.10778188560502" lon="10.065982587886406"><ele>33.0</ele><time>2026-04-18T16:37:58Z</time></trkpt><trkpt lat="45.10783527568779" lon="10.066074669675595"><ele>33.0</ele><time>2026-04-18T16:37:59Z</time></trkpt><trkpt lat="45.10789006435951" lon="10.066163895394382"><ele>33.0</ele><time>2026-04-18T16:38:00Z</time></trkpt><trkpt lat="45.10794761918463" lon="10.066249397896508"><ele>33.0</ele><time>2026-04-18T16:38:01Z</time></trkpt><trkpt lat="45.10800233621572" lon="10.066338779895224"><ele>33.0</ele><time>2026-04-18T16:38:02Z</time></trkpt><trkpt lat="45.10805516705359" lon="10.066434907978733"><ele>33.0</ele><time>2026-04-18T16:38:03Z</time></trkpt><trkpt lat="45.10810519795381" lon="10.066534788584695"><ele>33.0</ele><time>2026-04-18T16:38:04Z</time></trkpt><trkpt lat="45.10816397243643" lon="10.066625729400464"><ele>33.0</ele><time>2026-04-18T16:38:05Z</time></trkpt><trkpt lat="45.10821990665626" lon="10.066714093941021"><ele>33.0</ele><time>2026-04-18T16:38:06Z</time></trkpt><trkpt lat="45.10827742506409" lon="10.06680487788044"><ele>33.0</ele><time>2026-04-18T16:38:07Z</time></trkpt><trkpt lat="45.10833087869175" lon="10.066894063299381"><ele>33.0</ele><time>2026-04-18T16:38:08Z</time></trkpt><trkpt lat="45.10837825833337" lon="10.066992149768673"><ele>33.0</ele><time>2026-04-18T16:38:09Z</time></trkpt><trkpt lat="45.10843363518373" lon="10.067081672999223"><ele>33.0</ele><time>2026-04-18T16:38:10Z</time></trkpt><trkpt lat="45.108488191057305" lon="10.067172525095978"><ele>33.0</ele><time>2026-04-18T16:38:11Z</time></trkpt><trkpt lat="45.108544399583465" lon="10.067259039411365"><ele>33.0</ele><time>2026-04-18T16:38:11.999Z</time></trkpt><trkpt lat="45.10859987051993" lon="10.067346386731899"><ele>33.0</ele><time>2026-04-18T16:38:12.999Z</time></trkpt><trkpt lat="45.108651589175736" lon="10.067435860701071"><ele>33.166666666666664</ele><time>2026-04-18T16:38:13.999Z</time></trkpt><trkpt lat="45.10870059679244" lon="10.067527035641959"><ele>33.333333333333336</ele><time>2026-04-18T16:38:14.999Z</time></trkpt><trkpt lat="45.10874939809044" lon="10.067618159763333"><ele>33.5</ele><time>2026-04-18T16:38:15.999Z</time></trkpt><trkpt lat="45.10880883203212" lon="10.067700673031162"><ele>33.66666666666667</ele><time>2026-04-18T16:38:16.999Z</time></trkpt><trkpt lat="45.108856559504794" lon="10.067796645277122"><ele>33.833333333333336</ele><time>2026-04-18T16:38:17.999Z</time></trkpt><trkpt lat="45.10890896180241" lon="10.067895538299215"><ele>34.0</ele><time>2026-04-18T16:38:18.999Z</time></trkpt><trkpt lat="45.108972291377924" lon="10.067985087261993"><ele>34.0</ele><time>2026-04-18T16:38:19.999Z</time></trkpt><trkpt lat="45.10903178691248" lon="10.068072040886829"><ele>34.0</ele><time>2026-04-18T16:38:20.999Z</time></trkpt><trkpt lat="45.109087788454126" lon="10.068165881680313"><ele>34.0</ele><time>2026-04-18T16:38:21.999Z</time></trkpt><trkpt lat="45.10914862832574" lon="10.068257645846588"><ele>34.0</ele><time>2026-04-18T16:38:22.999Z</time></trkpt><trkpt lat="45.109206290126565" lon="10.068349364913306"><ele>34.0</ele><time>2026-04-18T16:38:23.999Z</time></trkpt><trkpt lat="45.109263937859104" lon="10.068442011919968"><ele>34.0</ele><time>2026-04-18T16:38:24.999Z</time></trkpt><trkpt lat="45.109313502966046" lon="10.068541281618174"><ele>33.833333333333336</ele><time>2026-04-18T16:38:25.999Z</time></trkpt><trkpt lat="45.10936712591633" lon="10.06863579648622"><ele>33.66666666666667</ele><time>2026-04-18T16:38:26.999Z</time></trkpt><trkpt lat="45.10942978135934" lon="10.068722367119182"><ele>33.5</ele><time>2026-04-18T16:38:27.999Z</time></trkpt><trkpt lat="45.10948052876344" lon="10.068815318373527"><ele>33.333333333333336</ele><time>2026-04-18T16:38:28.999Z</time></trkpt><trkpt lat="45.10953704552716" lon="10.068901722646439"><ele>33.166666666666664</ele><time>2026-04-18T16:38:29.999Z</time></trkpt><trkpt lat="45.10959240134835" lon="10.068995513318479"><ele>33.0</ele><time>2026-04-18T16:38:30.999Z</time></trkpt><trkpt lat="45.10964488895348" lon="10.069093292975865"><ele>33.0</ele><time>2026-04-18T16:38:31.999Z</time></trkpt><trkpt lat="45.10970315297689" lon="10.069183670006318"><ele>33.0</ele><time>2026-04-18T16:38:32.999Z</time></trkpt><trkpt lat="45.10974798606291" lon="10.069285352508995"><ele>33.0</ele><time>2026-04-18T16:38:33.999Z</time></trkpt><trkpt lat="45.109786519715605" lon="10.069393349078203"><ele>33.0</ele><time>2026-04-18T16:38:34.999Z</time></trkpt><trkpt lat="45.10982300426372" lon="10.069503363920305"><ele>33.0</ele><time>2026-04-18T16:38:35.999Z</time></trkpt><trkpt lat="45.109858366309034" lon="10.069613733977915"><ele>33.0</ele><time>2026-04-18T16:38:36.999Z</time></trkpt><trkpt lat="45.10990583737596" lon="10.069717078334676"><ele>32.833333333333336</ele><time>2026-04-18T16:38:37.999Z</time></trkpt><trkpt lat="45.10994397519078" lon="10.06981991823271"><ele>32.666666666666664</ele><time>2026-04-18T16:38:38.999Z</time></trkpt><trkpt lat="45.10998034161124" lon="10.069928573457414"><ele>32.5</ele><time>2026-04-18T16:38:39.999Z</time></trkpt><trkpt lat="45.11001032304745" lon="10.070040220248568"><ele>32.33333333333333</ele><time>2026-04-18T16:38:40.999Z</time></trkpt><trkpt lat="45.1100502991156" lon="10.070146554309577"><ele>32.166666666666664</ele><time>2026-04-18T16:38:41.999Z</time></trkpt><trkpt lat="45.110084424154714" lon="10.070251410360942"><ele>32.0</ele><time>2026-04-18T16:38:42.999Z</time></trkpt><trkpt lat="45.110116917116436" lon="10.07035729818768"><ele>32.83333333333333</ele><time>2026-04-18T16:38:43.999Z</time></trkpt><trkpt lat="45.110159408387446" lon="10.070455841899635"><ele>33.666666666666664</ele><time>2026-04-18T16:38:44.999Z</time></trkpt><trkpt lat="45.11019800852755" lon="10.07054862417365"><ele>34.5</ele><time>2026-04-18T16:38:45.999Z</time></trkpt><trkpt lat="45.11025576903428" lon="10.070616207093709"><ele>35.333333333333336</ele><time>2026-04-18T16:38:46.999Z</time></trkpt><trkpt lat="45.11031371875651" lon="10.070677112850435"><ele>36.16666666666667</ele><time>2026-04-18T16:38:47.999Z</time></trkpt><trkpt lat="45.110379107346354" lon="10.070733658313387"><ele>37.0</ele><time>2026-04-18T16:38:48.999Z</time></trkpt><trkpt lat="45.11044470306062" lon="10.07077946142932"><ele>37.66666666666667</ele><time>2026-04-18T16:38:49.999Z</time></trkpt><trkpt lat="45.11050303109329" lon="10.070813515329792"><ele>38.333333333333336</ele><time>2026-04-18T16:38:50.999Z</time></trkpt><trkpt lat="45.110560798105546" lon="10.070851839743677"><ele>39.0</ele><time>2026-04-18T16:38:51.999Z</time></trkpt><trkpt lat="45.110664766747284" lon="10.070933442585938"><ele>39.666666666666664</ele><time>2026-04-18T16:38:53.999Z</time></trkpt><trkpt lat="45.110752361569155" lon="10.071009149270791"><ele>40.33333333333333</ele><time>2026-04-18T16:38:55.999Z</time></trkpt><trkpt lat="45.1108209331959" lon="10.071079531050541"><ele>41.0</ele><time>2026-04-18T16:38:57.999Z</time></trkpt><trkpt lat="45.11082276808433" lon="10.07118803937361"><ele>41.0</ele><time>2026-04-18T16:38:59.999Z</time></trkpt><trkpt lat="45.1107631051521" lon="10.071340511330256"><ele>41.0</ele><time>2026-04-18T16:39:01.999Z</time></trkpt><trkpt lat="45.110721261801395" lon="10.071459325878918"><ele>41.0</ele><time>2026-04-18T16:39:03.999Z</time></trkpt><trkpt lat="45.11068948041387" lon="10.071538795693096"><ele>41.0</ele><time>2026-04-18T16:39:04.999Z</time></trkpt><trkpt lat="45.11064839840594" lon="10.07162225854094"><ele>41.0</ele><time>2026-04-18T16:39:05.999Z</time></trkpt><trkpt lat="45.11061516877351" lon="10.071707034401735"><ele>41.0</ele><time>2026-04-18T16:39:06.998Z</time></trkpt><trkpt lat="45.11058317810988" lon="10.071792743765785"><ele>41.0</ele><time>2026-04-18T16:39:07.998Z</time></trkpt><trkpt lat="45.11055056236663" lon="10.071880685142741"><ele>41.0</ele><time>2026-04-18T16:39:08.998Z</time></trkpt><trkpt lat="45.1105176419759" lon="10.071974369884826"><ele>41.0</ele><time>2026-04-18T16:39:09.998Z</time></trkpt><trkpt lat="45.1104861078227" lon="10.072058410802043"><ele>41.0</ele><time>2026-04-18T16:39:10.998Z</time></trkpt><trkpt lat="45.1104593095515" lon="10.072145965061884"><ele>41.0</ele><time>2026-04-18T16:39:11.998Z</time></trkpt><trkpt lat="45.11040607143241" lon="10.072305674847627"><ele>41.0</ele><time>2026-04-18T16:39:13.998Z</time></trkpt><trkpt lat="45.110358465469496" lon="10.072422925308372"><ele>40.599999999999994</ele><time>2026-04-18T16:39:15.998Z</time></trkpt><trkpt lat="45.11032966129265" lon="10.072530693980358"><ele>40.199999999999996</ele><time>2026-04-18T16:39:17.998Z</time></trkpt><trkpt lat="45.11038544442384" lon="10.072648682835013"><ele>39.8</ele><time>2026-04-18T16:39:19.998Z</time></trkpt><trkpt lat="45.11049496980881" lon="10.072708212319693"><ele>39.4</ele><time>2026-04-18T16:39:21.998Z</time></trkpt><trkpt lat="45.11061408931442" lon="10.07275616724226"><ele>39.0</ele><time>2026-04-18T16:39:23.998Z</time></trkpt><trkpt lat="45.1107397728647" lon="10.072813803344882"><ele>39.0</ele><time>2026-04-18T16:39:25.998Z</time></trkpt><trkpt lat="45.11080306362145" lon="10.072848280480073"><ele>39.0</ele><time>2026-04-18T16:39:27Z</time></trkpt><trkpt lat="45.110869760273566" lon="10.072882074991664"><ele>39.0</ele><time>2026-04-18T16:39:28Z</time></trkpt><trkpt lat="45.110939607565484" lon="10.072914657686987"><ele>39.0</ele><time>2026-04-18T16:39:29Z</time></trkpt><trkpt lat="45.11100946253436" lon="10.07294559635895"><ele>39.0</ele><time>2026-04-18T16:39:30Z</time></trkpt><trkpt lat="45.1110813826106" lon="10.07297857245736"><ele>39.0</ele><time>2026-04-18T16:39:31Z</time></trkpt><trkpt lat="45.11115152279302" lon="10.073015155865287"><ele>39.0</ele><time>2026-04-18T16:39:32Z</time></trkpt><trkpt lat="45.11122159812925" lon="10.073061071353727"><ele>39.0</ele><time>2026-04-18T16:39:33Z</time></trkpt><trkpt lat="45.111290731049216" lon="10.073106488206157"><ele>39.0</ele><time>2026-04-18T16:39:34Z</time></trkpt><trkpt lat="45.11136067650582" lon="10.073148715561667"><ele>39.0</ele><time>2026-04-18T16:39:35Z</time></trkpt><trkpt lat="45.1114335707074" lon="10.07317712472184"><ele>39.0</ele><time>2026-04-18T16:39:36Z</time></trkpt><trkpt lat="45.1115061744947" lon="10.07321189003909"><ele>39.0</ele><time>2026-04-18T16:39:37Z</time></trkpt><trkpt lat="45.11158039980119" lon="10.073243705800282"><ele>39.0</ele><time>2026-04-18T16:39:38Z</time></trkpt><trkpt lat="45.11165297027811" lon="10.073275610017664"><ele>39.0</ele><time>2026-04-18T16:39:39Z</time></trkpt><trkpt lat="45.11172912180171" lon="10.073298838679053"><ele>39.0</ele><time>2026-04-18T16:39:40Z</time></trkpt><trkpt lat="45.11180425297906" lon="10.073326088139028"><ele>39.0</ele><time>2026-04-18T16:39:41Z</time></trkpt><trkpt lat="45.11187770037491" lon="10.07335609863194"><ele>39.0</ele><time>2026-04-18T16:39:42Z</time></trkpt><trkpt lat="45.11195179239049" lon="10.073379917603198"><ele>39.0</ele><time>2026-04-18T16:39:43Z</time></trkpt><trkpt lat="45.11202941272878" lon="10.073406611386272"><ele>39.0</ele><time>2026-04-18T16:39:44Z</time></trkpt><trkpt lat="45.11210479844354" lon="10.07343237786406"><ele>39.0</ele><time>2026-04-18T16:39:45Z</time></trkpt><trkpt lat="45.11217829497399" lon="10.073465265346067"><ele>39.0</ele><time>2026-04-18T16:39:46Z</time></trkpt><trkpt lat="45.11225119792488" lon="10.073491559089401"><ele>39.0</ele><time>2026-04-18T16:39:47Z</time></trkpt><trkpt lat="45.11232684505949" lon="10.073513164070029"><ele>39.0</ele><time>2026-04-18T16:39:48Z</time></trkpt><trkpt lat="45.11239845198509" lon="10.073542624094793"><ele>39.0</ele><time>2026-04-18T16:39:49Z</time></trkpt><trkpt lat="45.11247181385507" lon="10.073566511932247"><ele>39.0</ele><time>2026-04-18T16:39:50Z</time></trkpt><trkpt lat="45.11254541536931" lon="10.073596299102304"><ele>38.85714285714286</ele><time>2026-04-18T16:39:51Z</time></trkpt><trkpt lat="45.112616950819515" lon="10.073624295315804"><ele>38.71428571428571</ele><time>2026-04-18T16:39:52Z</time></trkpt><trkpt lat="45.11269114571146" lon="10.073649081772194"><ele>38.57142857142857</ele><time>2026-04-18T16:39:53Z</time></trkpt><trkpt lat="45.11276329581253" lon="10.073676554368635"><ele>38.42857142857143</ele><time>2026-04-18T16:39:54Z</time></trkpt><trkpt lat="45.112839706405886" lon="10.073704064064149"><ele>38.28571428571429</ele><time>2026-04-18T16:39:55Z</time></trkpt><trkpt lat="45.112907115588214" lon="10.073730059734686"><ele>38.14285714285714</ele><time>2026-04-18T16:39:56Z</time></trkpt><trkpt lat="45.112977643648044" lon="10.073759609003913"><ele>38.0</ele><time>2026-04-18T16:39:57Z</time></trkpt><trkpt lat="45.11305765126807" lon="10.073785566139046"><ele>38.0</ele><time>2026-04-18T16:39:58Z</time></trkpt><trkpt lat="45.113125950891565" lon="10.073807562711439"><ele>38.0</ele><time>2026-04-18T16:39:59Z</time></trkpt><trkpt lat="45.11319401199774" lon="10.073827728191706"><ele>38.0</ele><time>2026-04-18T16:40:00Z</time></trkpt><trkpt lat="45.113266126557306" lon="10.073850853184497"><ele>38.0</ele><time>2026-04-18T16:40:01Z</time></trkpt><trkpt lat="45.11334782961938" lon="10.07388262378629"><ele>38.0</ele><time>2026-04-18T16:40:02Z</time></trkpt><trkpt lat="45.11342136831291" lon="10.073903358365635"><ele>38.0</ele><time>2026-04-18T16:40:03Z</time></trkpt><trkpt lat="45.11349444570594" lon="10.073931686703231"><ele>38.0</ele><time>2026-04-18T16:40:04Z</time></trkpt><trkpt lat="45.11357410772343" lon="10.07395931580425"><ele>38.0</ele><time>2026-04-18T16:40:05Z</time></trkpt><trkpt lat="45.11364308530665" lon="10.073978209405754"><ele>38.0</ele><time>2026-04-18T16:40:06Z</time></trkpt><trkpt lat="45.113715003377884" lon="10.073996470412554"><ele>38.0</ele><time>2026-04-18T16:40:07Z</time></trkpt><trkpt lat="45.113790622174925" lon="10.074026644574701"><ele>38.0</ele><time>2026-04-18T16:40:08Z</time></trkpt><trkpt lat="45.11385623873032" lon="10.074048734282389"><ele>38.0</ele><time>2026-04-18T16:40:09Z</time></trkpt><trkpt lat="45.11392423326614" lon="10.074069493724856"><ele>38.0</ele><time>2026-04-18T16:40:10Z</time></trkpt><trkpt lat="45.113992060518925" lon="10.074092823497352"><ele>38.0</ele><time>2026-04-18T16:40:11Z</time></trkpt><trkpt lat="45.114053730598805" lon="10.074111419193127"><ele>38.0</ele><time>2026-04-18T16:40:12Z</time></trkpt><trkpt lat="45.11411642790036" lon="10.074135460339056"><ele>38.0</ele><time>2026-04-18T16:40:13Z</time></trkpt><trkpt lat="45.1141778554209" lon="10.07415519453653"><ele>38.0</ele><time>2026-04-18T16:40:14Z</time></trkpt><trkpt lat="45.114291192214885" lon="10.074200601150197"><ele>38.0</ele><time>2026-04-18T16:40:16Z</time></trkpt><trkpt lat="45.11438738481746" lon="10.074239860085559"><ele>38.0</ele><time>2026-04-18T16:40:17.999Z</time></trkpt><trkpt lat="45.11452517745451" lon="10.074304660189616"><ele>38.0</ele><time>2026-04-18T16:40:19.999Z</time></trkpt><trkpt lat="45.11459558225074" lon="10.074428026906478"><ele>38.0</ele><time>2026-04-18T16:40:20.999Z</time></trkpt><trkpt lat="45.11466508161961" lon="10.074548636615322"><ele>38.0</ele><time>2026-04-18T16:40:21.999Z</time></trkpt><trkpt lat="45.11433845360562" lon="10.074416865992182"><ele>38.0</ele><time>2026-04-18T16:40:22.999Z</time></trkpt><trkpt lat="45.114309065350064" lon="10.074509846677682"><ele>38.0</ele><time>2026-04-18T16:40:23.999Z</time></trkpt><trkpt lat="45.114288286312785" lon="10.074596807929836"><ele>38.0</ele><time>2026-04-18T16:40:24.999Z</time></trkpt><trkpt lat="45.11426809692726" lon="10.074684938860628"><ele>38.0</ele><time>2026-04-18T16:40:25.999Z</time></trkpt><trkpt lat="45.11421943400219" lon="10.074868170608216"><ele>38.0</ele><time>2026-04-18T16:40:27.999Z</time></trkpt><trkpt lat="45.11419436248416" lon="10.07495891184117"><ele>38.0</ele><time>2026-04-18T16:40:28.999Z</time></trkpt><trkpt lat="45.11417372759736" lon="10.075050458672402"><ele>38.0</ele><time>2026-04-18T16:40:29.999Z</time></trkpt><trkpt lat="45.114150830077875" lon="10.075134841025962"><ele>38.0</ele><time>2026-04-18T16:40:30.999Z</time></trkpt><trkpt lat="45.11413221175255" lon="10.075220389603452"><ele>38.0</ele><time>2026-04-18T16:40:31.999Z</time></trkpt><trkpt lat="45.114087354277416" lon="10.07537687066558"><ele>38.0</ele><time>2026-04-18T16:40:33.999Z</time></trkpt><trkpt lat="45.1140462001374" lon="10.075534849359778"><ele>38.0</ele><time>2026-04-18T16:40:35.999Z</time></trkpt><trkpt lat="45.11401168964786" lon="10.075707042439008"><ele>38.14285714285714</ele><time>2026-04-18T16:40:37.999Z</time></trkpt><trkpt lat="45.1139859230832" lon="10.075794629272846"><ele>38.28571428571429</ele><time>2026-04-18T16:40:38.999Z</time></trkpt><trkpt lat="45.113961209207055" lon="10.075887841830445"><ele>38.42857142857143</ele><time>2026-04-18T16:40:39.999Z</time></trkpt><trkpt lat="45.1139448855757" lon="10.075979085632438"><ele>38.57142857142857</ele><time>2026-04-18T16:40:40.999Z</time></trkpt><trkpt lat="45.11392353356308" lon="10.07607100436583"><ele>38.71428571428571</ele><time>2026-04-18T16:40:41.999Z</time></trkpt><trkpt lat="45.113904519346214" lon="10.076164075069258"><ele>38.85714285714286</ele><time>2026-04-18T16:40:42.999Z</time></trkpt><trkpt lat="45.11388597248196" lon="10.07625096691126"><ele>39.0</ele><time>2026-04-18T16:40:43.999Z</time></trkpt><trkpt lat="45.11399775715195" lon="10.076450981380606"><ele>39.0</ele><time>2026-04-18T16:40:44.999Z</time></trkpt><trkpt lat="45.11397371437284" lon="10.076545620249654"><ele>39.0</ele><time>2026-04-18T16:40:45.999Z</time></trkpt><trkpt lat="45.11395409394859" lon="10.076635613824331"><ele>39.0</ele><time>2026-04-18T16:40:46.999Z</time></trkpt><trkpt lat="45.11391744331112" lon="10.076813055257183"><ele>39.0</ele><time>2026-04-18T16:40:48.999Z</time></trkpt><trkpt lat="45.11389853195791" lon="10.076899525809758"><ele>39.0</ele><time>2026-04-18T16:40:49.999Z</time></trkpt><trkpt lat="45.11387983782142" lon="10.076985286150048"><ele>39.0</ele><time>2026-04-18T16:40:50.999Z</time></trkpt><trkpt lat="45.11385392908687" lon="10.077071184184085"><ele>39.142857142857146</ele><time>2026-04-18T16:40:51.999Z</time></trkpt><trkpt lat="45.113828347857506" lon="10.077160880005854"><ele>39.285714285714285</ele><time>2026-04-18T16:40:52.999Z</time></trkpt><trkpt lat="45.11380983689441" lon="10.077256789088223"><ele>39.42857142857143</ele><time>2026-04-18T16:40:53.999Z</time></trkpt><trkpt lat="45.113786921146946" lon="10.077345958865335"><ele>39.57142857142857</ele><time>2026-04-18T16:40:54.999Z</time></trkpt><trkpt lat="45.113766408866915" lon="10.077432843313195"><ele>39.714285714285715</ele><time>2026-04-18T16:40:55.999Z</time></trkpt><trkpt lat="45.11374190658404" lon="10.077522992941274"><ele>39.857142857142854</ele><time>2026-04-18T16:40:56.999Z</time></trkpt><trkpt lat="45.113718074664206" lon="10.077612098660888"><ele>40.0</ele><time>2026-04-18T16:40:57.999Z</time></trkpt><trkpt lat="45.113695876862465" lon="10.07770774652782"><ele>40.14285714285714</ele><time>2026-04-18T16:40:58.999Z</time></trkpt><trkpt lat="45.113675376330335" lon="10.07780150190336"><ele>40.285714285714285</ele><time>2026-04-18T16:40:59.999Z</time></trkpt><trkpt lat="45.113646247767534" lon="10.077883395786715"><ele>40.42857142857143</ele><time>2026-04-18T16:41:00.999Z</time></trkpt><trkpt lat="45.11362027328992" lon="10.077974177279968"><ele>40.57142857142857</ele><time>2026-04-18T16:41:01.999Z</time></trkpt><trkpt lat="45.11359397180579" lon="10.0780614555857"><ele>40.714285714285715</ele><time>2026-04-18T16:41:02.999Z</time></trkpt><trkpt lat="45.113562375770904" lon="10.078142192920062"><ele>40.857142857142854</ele><time>2026-04-18T16:41:03.999Z</time></trkpt><trkpt lat="45.11353407236712" lon="10.078229187895683"><ele>41.0</ele><time>2026-04-18T16:41:04.999Z</time></trkpt><trkpt lat="45.11350612909282" lon="10.078315930477345"><ele>41.0</ele><time>2026-04-18T16:41:05.999Z</time></trkpt><trkpt lat="45.11348125871831" lon="10.078402465426494"><ele>41.0</ele><time>2026-04-18T16:41:06.999Z</time></trkpt><trkpt lat="45.11345676663733" lon="10.078487152956424"><ele>41.0</ele><time>2026-04-18T16:41:07.999Z</time></trkpt><trkpt lat="45.11340280185735" lon="10.078542687360128"><ele>41.0</ele><time>2026-04-18T16:41:08.999Z</time></trkpt><trkpt lat="45.11336152993064" lon="10.078695603435671"><ele>41.0</ele><time>2026-04-18T16:41:10.998Z</time></trkpt><trkpt lat="45.11328791580921" lon="10.078805016179368"><ele>41.0</ele><time>2026-04-18T16:41:12.998Z</time></trkpt><trkpt lat="45.1132292373302" lon="10.078930584287846"><ele>41.0</ele><time>2026-04-18T16:41:14.998Z</time></trkpt><trkpt lat="45.113149231616376" lon="10.078963998749755"><ele>41.0</ele><time>2026-04-18T16:41:16.998Z</time></trkpt><trkpt lat="45.11308098870156" lon="10.078909765595045"><ele>41.0</ele><time>2026-04-18T16:41:17.998Z</time></trkpt><trkpt lat="45.11298899527341" lon="10.078834038151497"><ele>41.0</ele><time>2026-04-18T16:41:19.998Z</time></trkpt><trkpt lat="45.112930625876245" lon="10.078799373962786"><ele>41.0</ele><time>2026-04-18T16:41:20.998Z</time></trkpt><trkpt lat="45.11286586369485" lon="10.078755874346697"><ele>41.0</ele><time>2026-04-18T16:41:21.998Z</time></trkpt><trkpt lat="45.11280066590073" lon="10.078719073862628"><ele>40.99999999999999</ele><time>2026-04-18T16:41:22.998Z</time></trkpt><trkpt lat="45.112740986379826" lon="10.078689655600115"><ele>41.0</ele><time>2026-04-18T16:41:23.998Z</time></trkpt><trkpt lat="45.11267952101954" lon="10.078643194232773"><ele>41.0</ele><time>2026-04-18T16:41:24.998Z</time></trkpt><trkpt lat="45.11261289476497" lon="10.078601390765842"><ele>41.0</ele><time>2026-04-18T16:41:25.998Z</time></trkpt><trkpt lat="45.11254918499205" lon="10.078566693155357"><ele>41.0</ele><time>2026-04-18T16:41:26.998Z</time></trkpt><trkpt lat="45.11248418547359" lon="10.078537719799627"><ele>40.99999999999999</ele><time>2026-04-18T16:41:27.998Z</time></trkpt><trkpt lat="45.112420895767414" lon="10.078509224640879"><ele>41.0</ele><time>2026-04-18T16:41:28.998Z</time></trkpt><trkpt lat="45.11235780541619" lon="10.07848896620227"><ele>40.666666666666664</ele><time>2026-04-18T16:41:29.998Z</time></trkpt><trkpt lat="45.112242043894305" lon="10.078444325214285"><ele>40.33333333333333</ele><time>2026-04-18T16:41:31.998Z</time></trkpt><trkpt lat="45.11217829638404" lon="10.078420421527262"><ele>40.0</ele><time>2026-04-18T16:41:33Z</time></trkpt><trkpt lat="45.112110946871944" lon="10.078386419200946"><ele>39.666666666666664</ele><time>2026-04-18T16:41:34Z</time></trkpt><trkpt lat="45.112041914404784" lon="10.078353598477076"><ele>39.333333333333336</ele><time>2026-04-18T16:41:35Z</time></trkpt><trkpt lat="45.11197521437571" lon="10.078335110950551"><ele>39.0</ele><time>2026-04-18T16:41:36Z</time></trkpt><trkpt lat="45.11190935208032" lon="10.078313051997897"><ele>39.0</ele><time>2026-04-18T16:41:37Z</time></trkpt><trkpt lat="45.111847336924704" lon="10.078289858632484"><ele>39.0</ele><time>2026-04-18T16:41:38Z</time></trkpt><trkpt lat="45.11177800082354" lon="10.078263395093254"><ele>39.0</ele><time>2026-04-18T16:41:39Z</time></trkpt><trkpt lat="45.1117131782468" lon="10.078244026681656"><ele>39.0</ele><time>2026-04-18T16:41:40Z</time></trkpt><trkpt lat="45.11164588648247" lon="10.07822449480564"><ele>39.0</ele><time>2026-04-18T16:41:41Z</time></trkpt><trkpt lat="45.111579012979455" lon="10.078204639386055"><ele>39.0</ele><time>2026-04-18T16:41:42Z</time></trkpt><trkpt lat="45.11151319360402" lon="10.078189219717974"><ele>39.0</ele><time>2026-04-18T16:41:43Z</time></trkpt><trkpt lat="45.11144264432492" lon="10.078175621741494"><ele>38.714285714285715</ele><time>2026-04-18T16:41:44Z</time></trkpt><trkpt lat="45.11138033501244" lon="10.078154140545811"><ele>38.42857142857142</ele><time>2026-04-18T16:41:45Z</time></trkpt><trkpt lat="45.11131285655643" lon="10.078133057117542"><ele>38.14285714285714</ele><time>2026-04-18T16:41:46Z</time></trkpt><trkpt lat="45.11124856580354" lon="10.078121534143134"><ele>37.85714285714286</ele><time>2026-04-18T16:41:47Z</time></trkpt><trkpt lat="45.11118156467031" lon="10.078101673593531"><ele>37.57142857142857</ele><time>2026-04-18T16:41:48Z</time></trkpt><trkpt lat="45.11111639794589" lon="10.078079861337988"><ele>37.285714285714285</ele><time>2026-04-18T16:41:49Z</time></trkpt><trkpt lat="45.11104865894746" lon="10.078071770847938"><ele>37.0</ele><time>2026-04-18T16:41:50Z</time></trkpt><trkpt lat="45.11098186818652" lon="10.078065238202186"><ele>37.0</ele><time>2026-04-18T16:41:51Z</time></trkpt><trkpt lat="45.110914111233896" lon="10.0780541077635"><ele>37.0</ele><time>2026-04-18T16:41:52Z</time></trkpt><trkpt lat="45.110845023652736" lon="10.078056640504792"><ele>37.0</ele><time>2026-04-18T16:41:53Z</time></trkpt><trkpt lat="45.11077726630056" lon="10.078065806749407"><ele>37.0</ele><time>2026-04-18T16:41:54Z</time></trkpt><trkpt lat="45.110708241867314" lon="10.078067795931917"><ele>37.0</ele><time>2026-04-18T16:41:55Z</time></trkpt><trkpt lat="45.110638545202306" lon="10.078075867424662"><ele>37.0</ele><time>2026-04-18T16:41:56Z</time></trkpt><trkpt lat="45.11057142019069" lon="10.078091306644712"><ele>37.0</ele><time>2026-04-18T16:41:57Z</time></trkpt><trkpt lat="45.11050674455688" lon="10.078109348437552"><ele>37.142857142857146</ele><time>2026-04-18T16:41:58Z</time></trkpt><trkpt lat="45.11043931955194" lon="10.078128708364"><ele>37.285714285714285</ele><time>2026-04-18T16:41:59Z</time></trkpt><trkpt lat="45.110374004453426" lon="10.078149612632167"><ele>37.42857142857143</ele><time>2026-04-18T16:42:00Z</time></trkpt><trkpt lat="45.110307574758416" lon="10.078175175551408"><ele>37.57142857142857</ele><time>2026-04-18T16:42:01Z</time></trkpt><trkpt lat="45.110243725619405" lon="10.078199499128981"><ele>37.714285714285715</ele><time>2026-04-18T16:42:02Z</time></trkpt><trkpt lat="45.110179098830436" lon="10.078224106224834"><ele>37.857142857142854</ele><time>2026-04-18T16:42:03Z</time></trkpt><trkpt lat="45.11011404981383" lon="10.0782432020247"><ele>38.0</ele><time>2026-04-18T16:42:04Z</time></trkpt><trkpt lat="45.110049435210094" lon="10.07825912675469"><ele>38.0</ele><time>2026-04-18T16:42:05Z</time></trkpt><trkpt lat="45.10998310160085" lon="10.078262510804413"><ele>38.0</ele><time>2026-04-18T16:42:06Z</time></trkpt><trkpt lat="45.109919142311604" lon="10.078245570347852"><ele>38.0</ele><time>2026-04-18T16:42:07Z</time></trkpt><trkpt lat="45.10985436620184" lon="10.078215613928183"><ele>38.0</ele><time>2026-04-18T16:42:08Z</time></trkpt><trkpt lat="45.10978903949507" lon="10.078189734645552"><ele>38.0</ele><time>2026-04-18T16:42:09Z</time></trkpt><trkpt lat="45.109723496139395" lon="10.078167315130978"><ele>38.0</ele><time>2026-04-18T16:42:10Z</time></trkpt><trkpt lat="45.109656279226336" lon="10.07814255943115"><ele>38.0</ele><time>2026-04-18T16:42:11Z</time></trkpt><trkpt lat="45.10958966446497" lon="10.078126372843009"><ele>38.0</ele><time>2026-04-18T16:42:12Z</time></trkpt><trkpt lat="45.109527655404364" lon="10.078100683616452"><ele>38.0</ele><time>2026-04-18T16:42:13Z</time></trkpt><trkpt lat="45.10946662783553" lon="10.078076276164547"><ele>38.0</ele><time>2026-04-18T16:42:14Z</time></trkpt><trkpt lat="45.109350058821825" lon="10.078032880133975"><ele>38.0</ele><time>2026-04-18T16:42:16Z</time></trkpt><trkpt lat="45.10923464996092" lon="10.07800589558727"><ele>38.0</ele><time>2026-04-18T16:42:18Z</time></trkpt><trkpt lat="45.10912627337081" lon="10.077967157990294"><ele>38.8</ele><time>2026-04-18T16:42:20Z</time></trkpt><trkpt lat="45.109022090298694" lon="10.077939141858318"><ele>39.599999999999994</ele><time>2026-04-18T16:42:21.999Z</time></trkpt><trkpt lat="45.1089325476329" lon="10.077917770720255"><ele>40.400000000000006</ele><time>2026-04-18T16:42:23.999Z</time></trkpt><trkpt lat="45.108888390940685" lon="10.0778104816994"><ele>41.2</ele><time>2026-04-18T16:42:25.999Z</time></trkpt><trkpt lat="45.10889368492255" lon="10.07766864728197"><ele>42.0</ele><time>2026-04-18T16:42:27.999Z</time></trkpt><trkpt lat="45.10890903970607" lon="10.077543987769296"><ele>41.857142857142854</ele><time>2026-04-18T16:42:29.999Z</time></trkpt><trkpt lat="45.10892990248737" lon="10.077427550285734"><ele>41.714285714285715</ele><time>2026-04-18T16:42:31.999Z</time></trkpt><trkpt lat="45.10893870128363" lon="10.07731554848423"><ele>41.57142857142857</ele><time>2026-04-18T16:42:33.999Z</time></trkpt><trkpt lat="45.108947728791286" lon="10.077211357702199"><ele>41.42857142857143</ele><time>2026-04-18T16:42:35.999Z</time></trkpt><trkpt lat="45.10895543229479" lon="10.077110204299352"><ele>41.285714285714285</ele><time>2026-04-18T16:42:37.999Z</time></trkpt><trkpt lat="45.10894575564247" lon="10.07701417895971"><ele>41.14285714285714</ele><time>2026-04-18T16:42:39.999Z</time></trkpt><trkpt lat="45.10891739175591" lon="10.076928957796236"><ele>41.0</ele><time>2026-04-18T16:42:41.999Z</time></trkpt><trkpt lat="45.108872739634016" lon="10.076861099043649"><ele>41.0</ele><time>2026-04-18T16:42:43.999Z</time></trkpt><trkpt lat="45.108797463911465" lon="10.076791035202287"><ele>41.0</ele><time>2026-04-18T16:42:46.999Z</time></trkpt><trkpt lat="45.10874537580442" lon="10.0767384145222"><ele>41.0</ele><time>2026-04-18T16:42:49.999Z</time></trkpt><trkpt lat="45.10867076460031" lon="10.076662907812652"><ele>41.0</ele><time>2026-04-18T16:43:06.999Z</time></trkpt><trkpt lat="45.10859727061053" lon="10.076680296300744"><ele>41.0</ele><time>2026-04-18T16:43:31.998Z</time></trkpt><trkpt lat="45.108520625677485" lon="10.076690820558774"><ele>41.0</ele><time>2026-04-18T16:43:35.998Z</time></trkpt><trkpt lat="45.10845989001256" lon="10.076722467012814"><ele>41.0</ele><time>2026-04-18T16:43:39Z</time></trkpt><trkpt lat="45.10838807535683" lon="10.07672777420225"><ele>41.0</ele><time>2026-04-18T16:43:43Z</time></trkpt><trkpt lat="45.10830589251678" lon="10.076719511126893"><ele>41.0</ele><time>2026-04-18T16:43:46Z</time></trkpt><trkpt lat="45.10825144012065" lon="10.076766358385733"><ele>41.0</ele><time>2026-04-18T16:43:49Z</time></trkpt></trkseg></trk></gpx>